<?xml version='1.0' encoding='UTF-8'?><gpx version="1.1" creator="JPX - https://github.com/jenetics/jpx" xmlns="http://www.topografix.com/GPX/1/1"><trk><trkseg><trkpt lat="41.14024595522638" lon="20.011505418763086"><ele>171.0</ele><time>2026-04-29T08:33:27Z</time></trkpt><trkpt lat="41.14030885359293" lon="20.011546012255963"><ele>171.0</ele><time>2026-04-29T08:33:29Z</time></trkpt><trkpt lat="41.14039087104102" lon="20.01156034102069"><ele>171.0</ele><time>2026-04-29T08:33:32Z</time></trkpt><trkpt lat="41.140481337001404" lon="20.011548514838417"><ele>171.0</ele><time>2026-04-29T08:33:36Z</time></trkpt><trkpt lat="41.14048707396248" lon="20.011640475496673"><ele>171.0</ele><time>2026-04-29T08:33:38Z</time></trkpt><trkpt lat="41.14049893039269" lon="20.01176270119984"><ele>171.0</ele><time>2026-04-29T08:33:40Z</time></trkpt><trkpt lat="41.140535115632126" lon="20.011902072191685"><ele>168.60000000000002</ele><time>2026-04-29T08:33:42Z</time></trkpt><trkpt lat="41.140594792700284" lon="20.01199283822842"><ele>166.20000000000002</ele><time>2026-04-29T08:33:44Z</time></trkpt><trkpt lat="41.14065891727126" lon="20.012116164103187"><ele>163.8</ele><time>2026-04-29T08:33:46.001Z</time></trkpt><trkpt lat="41.14072431307939" lon="20.01215999280176"><ele>161.4</ele><time>2026-04-29T08:33:48.001Z</time></trkpt><trkpt lat="41.14081059897848" lon="20.012196069294898"><ele>159.0</ele><time>2026-04-29T08:33:50.001Z</time></trkpt><trkpt lat="41.14087540748487" lon="20.012279114743148"><ele>159.0</ele><time>2026-04-29T08:33:52.001Z</time></trkpt><trkpt lat="41.14092937028019" lon="20.012334665895395"><ele>159.0</ele><time>2026-04-29T08:34:01Z</time></trkpt><trkpt lat="41.140994850424995" lon="20.012409009287"><ele>159.0</ele><time>2026-04-29T08:34:03Z</time></trkpt><trkpt lat="41.141045014818175" lon="20.012468427865073"><ele>159.0</ele><time>2026-04-29T08:34:05Z</time></trkpt><trkpt lat="41.14111345942447" lon="20.01254949890536"><ele>159.0</ele><time>2026-04-29T08:34:07Z</time></trkpt><trkpt lat="41.14123437297808" lon="20.01252859732417"><ele>159.0</ele><time>2026-04-29T08:34:10Z</time></trkpt><trkpt lat="41.1413146923588" lon="20.012514172128274"><ele>159.0</ele><time>2026-04-29T08:34:12Z</time></trkpt><trkpt lat="41.14142899640914" lon="20.012473495672946"><ele>159.0</ele><time>2026-04-29T08:34:14Z</time></trkpt><trkpt lat="41.14154165390433" lon="20.012430327431208"><ele>159.0</ele><time>2026-04-29T08:34:16Z</time></trkpt><trkpt lat="41.14161460745371" lon="20.012402682770706"><ele>159.0</ele><time>2026-04-29T08:34:17Z</time></trkpt><trkpt lat="41.14168922106542" lon="20.012363181394413"><ele>159.0</ele><time>2026-04-29T08:34:18Z</time></trkpt><trkpt lat="41.14177246576026" lon="20.01231949453437"><ele>158.66666666666666</ele><time>2026-04-29T08:34:19Z</time></trkpt><trkpt lat="41.14184218220451" lon="20.012285096671555"><ele>158.33333333333334</ele><time>2026-04-29T08:34:20Z</time></trkpt><trkpt lat="41.1419202204204" lon="20.012237756954903"><ele>158.0</ele><time>2026-04-29T08:34:21Z</time></trkpt><trkpt lat="41.141996304054736" lon="20.01218519177929"><ele>157.66666666666669</ele><time>2026-04-29T08:34:22Z</time></trkpt><trkpt lat="41.14205827234772" lon="20.012138173319112"><ele>157.33333333333334</ele><time>2026-04-29T08:34:23Z</time></trkpt><trkpt lat="41.14211439301036" lon="20.012095592028604"><ele>157.0</ele><time>2026-04-29T08:34:24Z</time></trkpt><trkpt lat="41.1421751988078" lon="20.012047884024238"><ele>157.0</ele><time>2026-04-29T08:34:25Z</time></trkpt><trkpt lat="41.142236987053685" lon="20.011999522517577"><ele>157.0</ele><time>2026-04-29T08:34:26Z</time></trkpt><trkpt lat="41.14229092277418" lon="20.011955235655158"><ele>157.0</ele><time>2026-04-29T08:34:27Z</time></trkpt><trkpt lat="41.142406080920665" lon="20.011889572800676"><ele>157.0</ele><time>2026-04-29T08:34:29Z</time></trkpt><trkpt lat="41.142489002863115" lon="20.01182891496792"><ele>157.0</ele><time>2026-04-29T08:34:31Z</time></trkpt><trkpt lat="41.14258455669214" lon="20.01177542525006"><ele>157.16666666666669</ele><time>2026-04-29T08:34:33Z</time></trkpt><trkpt lat="41.14266116235049" lon="20.01174445997981"><ele>157.33333333333334</ele><time>2026-04-29T08:34:35Z</time></trkpt><trkpt lat="41.14273697135636" lon="20.011701460796548"><ele>157.5</ele><time>2026-04-29T08:34:37Z</time></trkpt><trkpt lat="41.142816351739654" lon="20.01165638020293"><ele>157.66666666666666</ele><time>2026-04-29T08:34:39Z</time></trkpt><trkpt lat="41.142914896352536" lon="20.011600416146543"><ele>157.83333333333331</ele><time>2026-04-29T08:34:41Z</time></trkpt><trkpt lat="41.14297776953055" lon="20.01156471055895"><ele>158.0</ele><time>2026-04-29T08:34:42Z</time></trkpt><trkpt lat="41.14304436914824" lon="20.011526889898818"><ele>159.0</ele><time>2026-04-29T08:34:43Z</time></trkpt><trkpt lat="41.14311185604974" lon="20.011476381259662"><ele>160.0</ele><time>2026-04-29T08:34:44Z</time></trkpt><trkpt lat="41.143179498635135" lon="20.011432960315442"><ele>161.0</ele><time>2026-04-29T08:34:45Z</time></trkpt><trkpt lat="41.143238694602395" lon="20.01139488178231"><ele>162.0</ele><time>2026-04-29T08:34:46Z</time></trkpt><trkpt lat="41.143328235697496" lon="20.011337992119664"><ele>163.0</ele><time>2026-04-29T08:34:48Z</time></trkpt><trkpt lat="41.14343475683495" lon="20.011332457260977"><ele>164.0</ele><time>2026-04-29T08:34:50Z</time></trkpt><trkpt lat="41.1435532839507" lon="20.011355018515854"><ele>164.0</ele><time>2026-04-29T08:34:52Z</time></trkpt><trkpt lat="41.14367154619235" lon="20.01139222077021"><ele>164.0</ele><time>2026-04-29T08:34:54Z</time></trkpt><trkpt lat="41.14377410757029" lon="20.01137631300777"><ele>164.0</ele><time>2026-04-29T08:34:56Z</time></trkpt><trkpt lat="41.14384562235624" lon="20.011315721444817"><ele>164.0</ele><time>2026-04-29T08:34:58Z</time></trkpt><trkpt lat="41.14392503233549" lon="20.011195346128403"><ele>164.0</ele><time>2026-04-29T08:35:00Z</time></trkpt><trkpt lat="41.14396197797695" lon="20.011122625112115"><ele>164.0</ele><time>2026-04-29T08:35:01Z</time></trkpt><trkpt lat="41.14400129271975" lon="20.011056302656566"><ele>164.0</ele><time>2026-04-29T08:35:02Z</time></trkpt><trkpt lat="41.14405954652699" lon="20.011022265265446"><ele>164.0</ele><time>2026-04-29T08:35:03Z</time></trkpt><trkpt lat="41.144128024937174" lon="20.010996225189018"><ele>164.0</ele><time>2026-04-29T08:35:04Z</time></trkpt><trkpt lat="41.14419986602828" lon="20.010982311533713"><ele>164.0</ele><time>2026-04-29T08:35:05Z</time></trkpt><trkpt lat="41.14431677923023" lon="20.01098574737221"><ele>164.0</ele><time>2026-04-29T08:35:07Z</time></trkpt><trkpt lat="41.14442975822505" lon="20.011062362852364"><ele>164.0</ele><time>2026-04-29T08:35:09Z</time></trkpt><trkpt lat="41.144550981355835" lon="20.01107828792806"><ele>164.0</ele><time>2026-04-29T08:35:11Z</time></trkpt><trkpt lat="41.144632916008575" lon="20.011101975564102"><ele>164.0</ele><time>2026-04-29T08:35:12Z</time></trkpt><trkpt lat="41.1446959317038" lon="20.011139433384297"><ele>164.0</ele><time>2026-04-29T08:35:13Z</time></trkpt><trkpt lat="41.14479060921736" lon="20.011195710639175"><ele>164.0</ele><time>2026-04-29T08:35:15Z</time></trkpt><trkpt lat="41.14488950651245" lon="20.01130486636222"><ele>164.39999999999998</ele><time>2026-04-29T08:35:17Z</time></trkpt><trkpt lat="41.14498853133069" lon="20.011319150157394"><ele>164.8</ele><time>2026-04-29T08:35:19Z</time></trkpt><trkpt lat="41.145069452720705" lon="20.011339828819207"><ele>165.2</ele><time>2026-04-29T08:35:20Z</time></trkpt><trkpt lat="41.145149678112794" lon="20.011338730972017"><ele>165.60000000000002</ele><time>2026-04-29T08:35:21Z</time></trkpt><trkpt lat="41.14525546673204" lon="20.011331490995794"><ele>166.0</ele><time>2026-04-29T08:35:22Z</time></trkpt><trkpt lat="41.14534004833343" lon="20.011307625613142"><ele>166.0</ele><time>2026-04-29T08:35:23Z</time></trkpt><trkpt lat="41.145504958055994" lon="20.011207781307373"><ele>166.0</ele><time>2026-04-29T08:35:25Z</time></trkpt><trkpt lat="41.145585993338265" lon="20.011152251714645"><ele>166.0</ele><time>2026-04-29T08:35:26Z</time></trkpt><trkpt lat="41.14567266804079" lon="20.01107523934172"><ele>166.0</ele><time>2026-04-29T08:35:27Z</time></trkpt><trkpt lat="41.14573726702458" lon="20.011018932938644"><ele>166.20000000000002</ele><time>2026-04-29T08:35:28Z</time></trkpt><trkpt lat="41.14579526693739" lon="20.010968378487963"><ele>166.4</ele><time>2026-04-29T08:35:29Z</time></trkpt><trkpt lat="41.14586343113707" lon="20.010908964517622"><ele>166.6</ele><time>2026-04-29T08:35:30Z</time></trkpt><trkpt lat="41.145938091289175" lon="20.010826417775107"><ele>166.8</ele><time>2026-04-29T08:35:31Z</time></trkpt><trkpt lat="41.146030123012615" lon="20.010758403310763"><ele>167.0</ele><time>2026-04-29T08:35:32Z</time></trkpt><trkpt lat="41.14612352517226" lon="20.010678288261374"><ele>167.0</ele><time>2026-04-29T08:35:33Z</time></trkpt><trkpt lat="41.14622016509629" lon="20.01061246957054"><ele>167.0</ele><time>2026-04-29T08:35:34Z</time></trkpt><trkpt lat="41.14631657380931" lon="20.010563313164397"><ele>167.0</ele><time>2026-04-29T08:35:35Z</time></trkpt><trkpt lat="41.14641421256256" lon="20.010531135116704"><ele>167.0</ele><time>2026-04-29T08:35:36Z</time></trkpt><trkpt lat="41.146503343907646" lon="20.010514818025406"><ele>167.0</ele><time>2026-04-29T08:35:37Z</time></trkpt><trkpt lat="41.14656735523151" lon="20.010554465507127"><ele>167.75</ele><time>2026-04-29T08:35:38Z</time></trkpt><trkpt lat="41.14667575834273" lon="20.010607720486348"><ele>168.5</ele><time>2026-04-29T08:35:40Z</time></trkpt><trkpt lat="41.14677817520749" lon="20.01071710941279"><ele>169.25</ele><time>2026-04-29T08:35:42Z</time></trkpt><trkpt lat="41.14686486102254" lon="20.010843385749812"><ele>170.0</ele><time>2026-04-29T08:35:44Z</time></trkpt><trkpt lat="41.146914231650825" lon="20.010924190346824"><ele>170.16666666666666</ele><time>2026-04-29T08:35:45Z</time></trkpt><trkpt lat="41.14697659114674" lon="20.0110005186443"><ele>170.33333333333331</ele><time>2026-04-29T08:35:46Z</time></trkpt><trkpt lat="41.147038545609135" lon="20.01105203226555"><ele>170.5</ele><time>2026-04-29T08:35:47Z</time></trkpt><trkpt lat="41.147100848626685" lon="20.01111622005632"><ele>170.66666666666666</ele><time>2026-04-29T08:35:48Z</time></trkpt><trkpt lat="41.14717657916108" lon="20.011166120021066"><ele>170.83333333333334</ele><time>2026-04-29T08:35:49Z</time></trkpt><trkpt lat="41.147240582862395" lon="20.0112019339811"><ele>171.0</ele><time>2026-04-29T08:35:50Z</time></trkpt><trkpt lat="41.14736151817015" lon="20.011255099016076"><ele>170.25</ele><time>2026-04-29T08:35:52Z</time></trkpt><trkpt lat="41.14749259342037" lon="20.01127095880269"><ele>169.5</ele><time>2026-04-29T08:35:54Z</time></trkpt><trkpt lat="41.147614106522894" lon="20.011259202362744"><ele>168.75</ele><time>2026-04-29T08:35:55Z</time></trkpt><trkpt lat="41.14770947775301" lon="20.011225700307108"><ele>168.0</ele><time>2026-04-29T08:35:56Z</time></trkpt><trkpt lat="41.14781819128725" lon="20.011192884930317"><ele>168.0</ele><time>2026-04-29T08:35:57Z</time></trkpt><trkpt lat="41.14792965232601" lon="20.01123209129734"><ele>168.0</ele><time>2026-04-29T08:35:58Z</time></trkpt><trkpt lat="41.14803051335896" lon="20.01125911614361"><ele>168.0</ele><time>2026-04-29T08:35:59Z</time></trkpt><trkpt lat="41.14814272833228" lon="20.011266806951934"><ele>168.0</ele><time>2026-04-29T08:36:00Z</time></trkpt><trkpt lat="41.14825775907717" lon="20.011299738098447"><ele>168.0</ele><time>2026-04-29T08:36:01Z</time></trkpt><trkpt lat="41.14836673121296" lon="20.01128900154876"><ele>168.5</ele><time>2026-04-29T08:36:02Z</time></trkpt><trkpt lat="41.1484323488327" lon="20.01123329411343"><ele>169.0</ele><time>2026-04-29T08:36:03Z</time></trkpt><trkpt lat="41.14848708243874" lon="20.011187353109825"><ele>169.5</ele><time>2026-04-29T08:36:04Z</time></trkpt><trkpt lat="41.14855687006253" lon="20.011080068552136"><ele>170.0</ele><time>2026-04-29T08:36:06Z</time></trkpt><trkpt lat="41.148618301094" lon="20.011007591856384"><ele>170.5</ele><time>2026-04-29T08:36:07Z</time></trkpt><trkpt lat="41.148682432550416" lon="20.01093196430493"><ele>171.0</ele><time>2026-04-29T08:36:08Z</time></trkpt><trkpt lat="41.14875234829897" lon="20.01084959331879"><ele>171.20000000000002</ele><time>2026-04-29T08:36:09Z</time></trkpt><trkpt lat="41.14883101340668" lon="20.010757000493566"><ele>171.4</ele><time>2026-04-29T08:36:10Z</time></trkpt><trkpt lat="41.14891542848487" lon="20.010657624636842"><ele>171.6</ele><time>2026-04-29T08:36:11Z</time></trkpt><trkpt lat="41.14899216858345" lon="20.01056686270831"><ele>171.8</ele><time>2026-04-29T08:36:12Z</time></trkpt><trkpt lat="41.14906744159789" lon="20.010478501796445"><ele>172.0</ele><time>2026-04-29T08:36:13Z</time></trkpt><trkpt lat="41.1491454818881" lon="20.010386870929832"><ele>172.39999999999998</ele><time>2026-04-29T08:36:14Z</time></trkpt><trkpt lat="41.1492251741238" lon="20.010292864516565"><ele>172.79999999999998</ele><time>2026-04-29T08:36:15Z</time></trkpt><trkpt lat="41.14929456052307" lon="20.01021101373372"><ele>173.2</ele><time>2026-04-29T08:36:16Z</time></trkpt><trkpt lat="41.14937714898927" lon="20.0101522220424"><ele>173.6</ele><time>2026-04-29T08:36:17Z</time></trkpt><trkpt lat="41.14944848198689" lon="20.01012462985877"><ele>174.0</ele><time>2026-04-29T08:36:18Z</time></trkpt><trkpt lat="41.1495507935444" lon="20.0101142089396"><ele>174.0</ele><time>2026-04-29T08:36:20Z</time></trkpt><trkpt lat="41.149622227611005" lon="20.01016450110983"><ele>174.0</ele><time>2026-04-29T08:36:22Z</time></trkpt><trkpt lat="41.1496844451267" lon="20.01020069227612"><ele>174.0</ele><time>2026-04-29T08:36:23Z</time></trkpt><trkpt lat="41.14974310909225" lon="20.01025885021226"><ele>174.0</ele><time>2026-04-29T08:36:24Z</time></trkpt><trkpt lat="41.149821561368164" lon="20.01032619933495"><ele>174.0</ele><time>2026-04-29T08:36:25Z</time></trkpt><trkpt lat="41.14990636246263" lon="20.010398285365344"><ele>174.0</ele><time>2026-04-29T08:36:26Z</time></trkpt><trkpt lat="41.14998395547837" lon="20.010455774489"><ele>174.6</ele><time>2026-04-29T08:36:27Z</time></trkpt><trkpt lat="41.150081499156244" lon="20.010514613374976"><ele>175.2</ele><time>2026-04-29T08:36:29Z</time></trkpt><trkpt lat="41.150191780398835" lon="20.010484180194616"><ele>175.79999999999998</ele><time>2026-04-29T08:36:31Z</time></trkpt><trkpt lat="41.15024608956335" lon="20.010420034364962"><ele>176.39999999999998</ele><time>2026-04-29T08:36:32Z</time></trkpt><trkpt lat="41.15030795740086" lon="20.010317893483226"><ele>177.0</ele><time>2026-04-29T08:36:33Z</time></trkpt><trkpt lat="41.15040656668105" lon="20.01023373712993"><ele>177.0</ele><time>2026-04-29T08:36:34Z</time></trkpt><trkpt lat="41.15050234301462" lon="20.010171523199013"><ele>177.0</ele><time>2026-04-29T08:36:35Z</time></trkpt><trkpt lat="41.150603737074334" lon="20.01012059523548"><ele>177.0</ele><time>2026-04-29T08:36:36Z</time></trkpt><trkpt lat="41.15069711804107" lon="20.010088131356067"><ele>177.0</ele><time>2026-04-29T08:36:37Z</time></trkpt><trkpt lat="41.15077190930757" lon="20.010040279353053"><ele>177.0</ele><time>2026-04-29T08:36:38Z</time></trkpt><trkpt lat="41.150842545867015" lon="20.01002547757743"><ele>177.0</ele><time>2026-04-29T08:36:39Z</time></trkpt><trkpt lat="41.15090872332713" lon="20.00995995208808"><ele>177.0</ele><time>2026-04-29T08:36:40Z</time></trkpt><trkpt lat="41.15093251941227" lon="20.009832735255067"><ele>177.0</ele><time>2026-04-29T08:36:41Z</time></trkpt><trkpt lat="41.150993338090196" lon="20.009734769269762"><ele>177.0</ele><time>2026-04-29T08:36:42Z</time></trkpt><trkpt lat="41.15104782105563" lon="20.009620294092727"><ele>177.0</ele><time>2026-04-29T08:36:43Z</time></trkpt><trkpt lat="41.151109056591935" lon="20.00949313809864"><ele>177.0</ele><time>2026-04-29T08:36:44Z</time></trkpt><trkpt lat="41.151163287870425" lon="20.00937109443395"><ele>177.0</ele><time>2026-04-29T08:36:45Z</time></trkpt><trkpt lat="41.15119691896776" lon="20.00922809238433"><ele>177.0</ele><time>2026-04-29T08:36:46Z</time></trkpt><trkpt lat="41.15124355980365" lon="20.009113042682728"><ele>177.0</ele><time>2026-04-29T08:36:47Z</time></trkpt><trkpt lat="41.15130375450086" lon="20.009027132662123"><ele>177.0</ele><time>2026-04-29T08:36:48Z</time></trkpt><trkpt lat="41.15138318403956" lon="20.008981543016596"><ele>176.6</ele><time>2026-04-29T08:36:49Z</time></trkpt><trkpt lat="41.151469796334354" lon="20.00891875738743"><ele>176.2</ele><time>2026-04-29T08:36:50Z</time></trkpt><trkpt lat="41.15156481427586" lon="20.008811776355543"><ele>175.8</ele><time>2026-04-29T08:36:51Z</time></trkpt><trkpt lat="41.151664016574465" lon="20.00871123450148"><ele>175.4</ele><time>2026-04-29T08:36:52Z</time></trkpt><trkpt lat="41.15173653338384" lon="20.008622280205504"><ele>175.0</ele><time>2026-04-29T08:36:53Z</time></trkpt><trkpt lat="41.15180256376192" lon="20.008542948786367"><ele>175.8</ele><time>2026-04-29T08:36:54Z</time></trkpt><trkpt lat="41.15187696865933" lon="20.008460721558986"><ele>176.6</ele><time>2026-04-29T08:36:55Z</time></trkpt><trkpt lat="41.15197189962856" lon="20.008358611047036"><ele>177.39999999999998</ele><time>2026-04-29T08:36:56Z</time></trkpt><trkpt lat="41.15205151793964" lon="20.008260255901263"><ele>178.2</ele><time>2026-04-29T08:36:57Z</time></trkpt><trkpt lat="41.152125257844794" lon="20.00817953669599"><ele>179.0</ele><time>2026-04-29T08:36:58Z</time></trkpt><trkpt lat="41.15219674753588" lon="20.008125199786157"><ele>179.0</ele><time>2026-04-29T08:36:59Z</time></trkpt><trkpt lat="41.152274321955005" lon="20.00809078560687"><ele>179.0</ele><time>2026-04-29T08:37:00Z</time></trkpt><trkpt lat="41.15235905712197" lon="20.00805024470415"><ele>179.0</ele><time>2026-04-29T08:37:01Z</time></trkpt><trkpt lat="41.152457764548984" lon="20.00801789492173"><ele>179.0</ele><time>2026-04-29T08:37:02Z</time></trkpt><trkpt lat="41.15255354073244" lon="20.00794464400324"><ele>179.0</ele><time>2026-04-29T08:37:03Z</time></trkpt><trkpt lat="41.15263501245874" lon="20.00783898021674"><ele>180.6</ele><time>2026-04-29T08:37:04Z</time></trkpt><trkpt lat="41.15272050732087" lon="20.00776556194514"><ele>182.2</ele><time>2026-04-29T08:37:05Z</time></trkpt><trkpt lat="41.15280302860632" lon="20.007690154626253"><ele>183.79999999999998</ele><time>2026-04-29T08:37:06Z</time></trkpt><trkpt lat="41.15288784761826" lon="20.00763093129218"><ele>185.39999999999998</ele><time>2026-04-29T08:37:07Z</time></trkpt><trkpt lat="41.15296731925021" lon="20.007592899918247"><ele>187.0</ele><time>2026-04-29T08:37:08Z</time></trkpt><trkpt lat="41.15303058537108" lon="20.007534670854977"><ele>188.0</ele><time>2026-04-29T08:37:09Z</time></trkpt><trkpt lat="41.15307210819359" lon="20.007459766769077"><ele>189.0</ele><time>2026-04-29T08:37:10Z</time></trkpt><trkpt lat="41.153097851583496" lon="20.007355292570672"><ele>190.0</ele><time>2026-04-29T08:37:11Z</time></trkpt><trkpt lat="41.15315090647941" lon="20.0072330984928"><ele>191.0</ele><time>2026-04-29T08:37:12Z</time></trkpt><trkpt lat="41.15320296196993" lon="20.007114587772733"><ele>192.0</ele><time>2026-04-29T08:37:13Z</time></trkpt><trkpt lat="41.15329648734172" lon="20.00700479637224"><ele>192.0</ele><time>2026-04-29T08:37:14Z</time></trkpt><trkpt lat="41.153351715949356" lon="20.006888936674873"><ele>192.0</ele><time>2026-04-29T08:37:15Z</time></trkpt><trkpt lat="41.15341683143589" lon="20.00678709016521"><ele>192.0</ele><time>2026-04-29T08:37:16Z</time></trkpt><trkpt lat="41.15349193139316" lon="20.006726676345874"><ele>192.0</ele><time>2026-04-29T08:37:17Z</time></trkpt><trkpt lat="41.15356730452937" lon="20.00665885909221"><ele>192.0</ele><time>2026-04-29T08:37:18Z</time></trkpt><trkpt lat="41.153643401568154" lon="20.00656542857193"><ele>191.42857142857142</ele><time>2026-04-29T08:37:19Z</time></trkpt><trkpt lat="41.15372305622204" lon="20.00649945369196"><ele>190.85714285714286</ele><time>2026-04-29T08:37:20Z</time></trkpt><trkpt lat="41.153792094364555" lon="20.006439304206577"><ele>190.28571428571428</ele><time>2026-04-29T08:37:21Z</time></trkpt><trkpt lat="41.15384570555109" lon="20.00639097173397"><ele>189.71428571428572</ele><time>2026-04-29T08:37:22Z</time></trkpt><trkpt lat="41.153915169540404" lon="20.0064118706082"><ele>189.14285714285714</ele><time>2026-04-29T08:37:23Z</time></trkpt><trkpt lat="41.15398385040056" lon="20.006419217549546"><ele>188.57142857142856</ele><time>2026-04-29T08:37:24Z</time></trkpt><trkpt lat="41.154047023228124" lon="20.006451772201057"><ele>188.0</ele><time>2026-04-29T08:37:25Z</time></trkpt><trkpt lat="41.1541145068612" lon="20.006445331150267"><ele>188.0</ele><time>2026-04-29T08:37:26Z</time></trkpt><trkpt lat="41.15418250002238" lon="20.00643593419878"><ele>188.0</ele><time>2026-04-29T08:37:27Z</time></trkpt><trkpt lat="41.15425497573432" lon="20.00641254511376"><ele>188.0</ele><time>2026-04-29T08:37:28Z</time></trkpt><trkpt lat="41.154325798639064" lon="20.006336913341855"><ele>188.0</ele><time>2026-04-29T08:37:29Z</time></trkpt><trkpt lat="41.154390083886184" lon="20.0062390611265"><ele>188.0</ele><time>2026-04-29T08:37:30Z</time></trkpt><trkpt lat="41.15445570053528" lon="20.00613650989489"><ele>188.0</ele><time>2026-04-29T08:37:31Z</time></trkpt><trkpt lat="41.15452040088584" lon="20.006058626318538"><ele>188.0</ele><time>2026-04-29T08:37:32Z</time></trkpt><trkpt lat="41.15458090172017" lon="20.00598949241304"><ele>188.0</ele><time>2026-04-29T08:37:33Z</time></trkpt><trkpt lat="41.15463120003582" lon="20.00591171729861"><ele>188.0</ele><time>2026-04-29T08:37:34Z</time></trkpt><trkpt lat="41.15467224029221" lon="20.005802101529177"><ele>188.0</ele><time>2026-04-29T08:37:35Z</time></trkpt><trkpt lat="41.154685129779985" lon="20.005676910284922"><ele>188.0</ele><time>2026-04-29T08:37:36Z</time></trkpt><trkpt lat="41.154711343696455" lon="20.00556069094355"><ele>188.0</ele><time>2026-04-29T08:37:37Z</time></trkpt><trkpt lat="41.154750299249315" lon="20.00545801879757"><ele>188.60000000000002</ele><time>2026-04-29T08:37:38Z</time></trkpt><trkpt lat="41.15480428987365" lon="20.00537623166829"><ele>189.20000000000002</ele><time>2026-04-29T08:37:39Z</time></trkpt><trkpt lat="41.1548595528481" lon="20.0053135637187"><ele>189.8</ele><time>2026-04-29T08:37:40Z</time></trkpt><trkpt lat="41.15493136425693" lon="20.005229786943627"><ele>190.4</ele><time>2026-04-29T08:37:41Z</time></trkpt><trkpt lat="41.155009018099726" lon="20.00513970114734"><ele>191.0</ele><time>2026-04-29T08:37:42Z</time></trkpt><trkpt lat="41.15509072128258" lon="20.00504598493553"><ele>190.0</ele><time>2026-04-29T08:37:43Z</time></trkpt><trkpt lat="41.15516404978222" lon="20.004961874649165"><ele>189.0</ele><time>2026-04-29T08:37:44Z</time></trkpt><trkpt lat="41.15524557158544" lon="20.00486836609399"><ele>188.0</ele><time>2026-04-29T08:37:45Z</time></trkpt><trkpt lat="41.15533771047002" lon="20.00479114236785"><ele>187.0</ele><time>2026-04-29T08:37:46Z</time></trkpt><trkpt lat="41.15542737837821" lon="20.004723099308716"><ele>186.0</ele><time>2026-04-29T08:37:47Z</time></trkpt><trkpt lat="41.15550266653515" lon="20.00466946484543"><ele>186.0</ele><time>2026-04-29T08:37:48Z</time></trkpt><trkpt lat="41.15558104900227" lon="20.00461362602978"><ele>186.0</ele><time>2026-04-29T08:37:49Z</time></trkpt><trkpt lat="41.15564005539699" lon="20.00454725879005"><ele>186.0</ele><time>2026-04-29T08:37:50Z</time></trkpt><trkpt lat="41.15571258071918" lon="20.004506813348545"><ele>186.0</ele><time>2026-04-29T08:37:51Z</time></trkpt><trkpt lat="41.15577623052522" lon="20.004478306003485"><ele>186.0</ele><time>2026-04-29T08:37:52Z</time></trkpt><trkpt lat="41.1558829713191" lon="20.004482522066365"><ele>186.0</ele><time>2026-04-29T08:37:54Z</time></trkpt><trkpt lat="41.155972411545285" lon="20.00459187663828"><ele>187.0</ele><time>2026-04-29T08:37:56Z</time></trkpt><trkpt lat="41.15601936451324" lon="20.004668884608055"><ele>188.0</ele><time>2026-04-29T08:37:57Z</time></trkpt><trkpt lat="41.156126728681684" lon="20.004700708432086"><ele>189.0</ele><time>2026-04-29T08:37:59Z</time></trkpt><trkpt lat="41.156211043077384" lon="20.00463223269878"><ele>190.0</ele><time>2026-04-29T08:38:01Z</time></trkpt><trkpt lat="41.156252838302954" lon="20.00455944595237"><ele>191.0</ele><time>2026-04-29T08:38:02Z</time></trkpt><trkpt lat="41.15629074643859" lon="20.004469910640267"><ele>192.0</ele><time>2026-04-29T08:38:03Z</time></trkpt><trkpt lat="41.15633753482957" lon="20.004405559355146"><ele>192.0</ele><time>2026-04-29T08:38:04Z</time></trkpt><trkpt lat="41.156396595863754" lon="20.00436789386238"><ele>192.0</ele><time>2026-04-29T08:38:05Z</time></trkpt><trkpt lat="41.15647880002711" lon="20.00433041228303"><ele>192.0</ele><time>2026-04-29T08:38:06Z</time></trkpt><trkpt lat="41.1565631731975" lon="20.00429613501156"><ele>192.0</ele><time>2026-04-29T08:38:07Z</time></trkpt><trkpt lat="41.156656915103326" lon="20.00425615186708"><ele>192.0</ele><time>2026-04-29T08:38:08Z</time></trkpt><trkpt lat="41.15674489972438" lon="20.004216382619642"><ele>192.0</ele><time>2026-04-29T08:38:09Z</time></trkpt><trkpt lat="41.15681019511219" lon="20.00418026805936"><ele>192.0</ele><time>2026-04-29T08:38:10Z</time></trkpt><trkpt lat="41.15692342020227" lon="20.004119860678205"><ele>192.0</ele><time>2026-04-29T08:38:12Z</time></trkpt><trkpt lat="41.157009381638915" lon="20.003993088703087"><ele>192.0</ele><time>2026-04-29T08:38:14Z</time></trkpt><trkpt lat="41.15707494825267" lon="20.00390931748941"><ele>192.0</ele><time>2026-04-29T08:38:15Z</time></trkpt><trkpt lat="41.15713392935858" lon="20.003808074437213"><ele>192.0</ele><time>2026-04-29T08:38:16Z</time></trkpt><trkpt lat="41.15719085018097" lon="20.003689801013227"><ele>192.0</ele><time>2026-04-29T08:38:17Z</time></trkpt><trkpt lat="41.15723360107198" lon="20.003564872437266"><ele>192.0</ele><time>2026-04-29T08:38:18Z</time></trkpt><trkpt lat="41.157277059362364" lon="20.003416511682044"><ele>192.0</ele><time>2026-04-29T08:38:19Z</time></trkpt><trkpt lat="41.15727283350245" lon="20.003274227553554"><ele>192.0</ele><time>2026-04-29T08:38:20Z</time></trkpt><trkpt lat="41.157299660434596" lon="20.003186359217384"><ele>192.0</ele><time>2026-04-29T08:38:21Z</time></trkpt><trkpt lat="41.15733749805771" lon="20.00311712808015"><ele>192.33333333333334</ele><time>2026-04-29T08:38:22Z</time></trkpt><trkpt lat="41.157389454734755" lon="20.00305234081709"><ele>192.66666666666669</ele><time>2026-04-29T08:38:23Z</time></trkpt><trkpt lat="41.15745114894821" lon="20.00297580315093"><ele>193.0</ele><time>2026-04-29T08:38:24Z</time></trkpt><trkpt lat="41.15751192060662" lon="20.00288656658102"><ele>193.33333333333334</ele><time>2026-04-29T08:38:25Z</time></trkpt><trkpt lat="41.15758624751053" lon="20.00282310593076"><ele>193.66666666666669</ele><time>2026-04-29T08:38:26Z</time></trkpt><trkpt lat="41.15765524512372" lon="20.002782083839172"><ele>194.0</ele><time>2026-04-29T08:38:27Z</time></trkpt><trkpt lat="41.157715535210656" lon="20.00268184810299"><ele>194.0</ele><time>2026-04-29T08:38:28Z</time></trkpt><trkpt lat="41.15781529030359" lon="20.002639663254264"><ele>194.0</ele><time>2026-04-29T08:38:29Z</time></trkpt><trkpt lat="41.15792626927978" lon="20.00259999311057"><ele>194.0</ele><time>2026-04-29T08:38:30Z</time></trkpt><trkpt lat="41.1580411782721" lon="20.002550979600734"><ele>194.0</ele><time>2026-04-29T08:38:31Z</time></trkpt><trkpt lat="41.15813438060512" lon="20.00250691952423"><ele>194.0</ele><time>2026-04-29T08:38:32Z</time></trkpt><trkpt lat="41.15823108895734" lon="20.00246296498674"><ele>193.75</ele><time>2026-04-29T08:38:33Z</time></trkpt><trkpt lat="41.15834113389158" lon="20.002413175106643"><ele>193.5</ele><time>2026-04-29T08:38:34Z</time></trkpt><trkpt lat="41.158455266505754" lon="20.002376276237918"><ele>193.25</ele><time>2026-04-29T08:38:35Z</time></trkpt><trkpt lat="41.15856990420828" lon="20.0023495974886"><ele>193.0</ele><time>2026-04-29T08:38:36Z</time></trkpt><trkpt lat="41.15868217612427" lon="20.00230893799202"><ele>193.0</ele><time>2026-04-29T08:38:37Z</time></trkpt><trkpt lat="41.15879136841094" lon="20.002269393775556"><ele>193.0</ele><time>2026-04-29T08:38:38Z</time></trkpt><trkpt lat="41.15888489455931" lon="20.00224162268214"><ele>193.0</ele><time>2026-04-29T08:38:39Z</time></trkpt><trkpt lat="41.15898976680831" lon="20.00220944011565"><ele>193.0</ele><time>2026-04-29T08:38:40Z</time></trkpt><trkpt lat="41.15909038499729" lon="20.002161188270012"><ele>193.0</ele><time>2026-04-29T08:38:41Z</time></trkpt><trkpt lat="41.15917746522056" lon="20.002142886523014"><ele>193.4</ele><time>2026-04-29T08:38:42Z</time></trkpt><trkpt lat="41.15926385791072" lon="20.002115459795924"><ele>193.8</ele><time>2026-04-29T08:38:43Z</time></trkpt><trkpt lat="41.159365452557424" lon="20.002084929570135"><ele>194.2</ele><time>2026-04-29T08:38:44Z</time></trkpt><trkpt lat="41.15947600739773" lon="20.002051178838176"><ele>194.6</ele><time>2026-04-29T08:38:45Z</time></trkpt><trkpt lat="41.15958594064931" lon="20.002018380796585"><ele>195.0</ele><time>2026-04-29T08:38:46Z</time></trkpt><trkpt lat="41.15969844404293" lon="20.002013443195516"><ele>195.0</ele><time>2026-04-29T08:38:47Z</time></trkpt><trkpt lat="41.159781545968414" lon="20.00199603135899"><ele>195.0</ele><time>2026-04-29T08:38:48Z</time></trkpt><trkpt lat="41.159862956834736" lon="20.00197904879668"><ele>195.0</ele><time>2026-04-29T08:38:49Z</time></trkpt><trkpt lat="41.15997598939536" lon="20.001938409735697"><ele>195.0</ele><time>2026-04-29T08:38:50Z</time></trkpt><trkpt lat="41.16009828918464" lon="20.001932457285545"><ele>195.0</ele><time>2026-04-29T08:38:51Z</time></trkpt><trkpt lat="41.16019506418044" lon="20.001913371125593"><ele>195.83333333333334</ele><time>2026-04-29T08:38:52Z</time></trkpt><trkpt lat="41.16029175887575" lon="20.00190124782404"><ele>196.66666666666669</ele><time>2026-04-29T08:38:53Z</time></trkpt><trkpt lat="41.160368458304006" lon="20.00187422216155"><ele>197.5</ele><time>2026-04-29T08:38:54Z</time></trkpt><trkpt lat="41.16043341225779" lon="20.001855039320326"><ele>198.33333333333334</ele><time>2026-04-29T08:38:55Z</time></trkpt><trkpt lat="41.16051604060165" lon="20.001829012983244"><ele>199.16666666666669</ele><time>2026-04-29T08:38:57Z</time></trkpt><trkpt lat="41.16063352984087" lon="20.00178945290973"><ele>200.0</ele><time>2026-04-29T08:38:59Z</time></trkpt><trkpt lat="41.16071627810213" lon="20.00176926826175"><ele>200.66666666666669</ele><time>2026-04-29T08:39:00Z</time></trkpt><trkpt lat="41.16079652049817" lon="20.001764808642175"><ele>201.33333333333334</ele><time>2026-04-29T08:39:01Z</time></trkpt><trkpt lat="41.16087294851551" lon="20.001788700175062"><ele>202.0</ele><time>2026-04-29T08:39:02Z</time></trkpt><trkpt lat="41.160949275211685" lon="20.001827909812583"><ele>202.66666666666669</ele><time>2026-04-29T08:39:03Z</time></trkpt><trkpt lat="41.16099993525322" lon="20.001882713748195"><ele>203.33333333333334</ele><time>2026-04-29T08:39:04Z</time></trkpt><trkpt lat="41.1610649804616" lon="20.001975325684985"><ele>204.0</ele><time>2026-04-29T08:39:05Z</time></trkpt><trkpt lat="41.16112913678885" lon="20.002055577202885"><ele>204.0</ele><time>2026-04-29T08:39:06Z</time></trkpt><trkpt lat="41.161204583175454" lon="20.002115530574486"><ele>204.0</ele><time>2026-04-29T08:39:07Z</time></trkpt><trkpt lat="41.16131087004541" lon="20.0021437907139"><ele>204.0</ele><time>2026-04-29T08:39:08Z</time></trkpt><trkpt lat="41.16143013850478" lon="20.0021855136162"><ele>204.0</ele><time>2026-04-29T08:39:09Z</time></trkpt><trkpt lat="41.16154626949262" lon="20.00221568306249"><ele>204.0</ele><time>2026-04-29T08:39:10Z</time></trkpt><trkpt lat="41.16162481019179" lon="20.002233828150054"><ele>203.2</ele><time>2026-04-29T08:39:11Z</time></trkpt><trkpt lat="41.161728253670226" lon="20.002259048948805"><ele>202.39999999999998</ele><time>2026-04-29T08:39:12Z</time></trkpt><trkpt lat="41.161835872273386" lon="20.002279817615022"><ele>201.6</ele><time>2026-04-29T08:39:13Z</time></trkpt><trkpt lat="41.16191883546183" lon="20.002331764229403"><ele>200.8</ele><time>2026-04-29T08:39:14Z</time></trkpt><trkpt lat="41.16198965610217" lon="20.002371128193793"><ele>200.0</ele><time>2026-04-29T08:39:15Z</time></trkpt><trkpt lat="41.162076129653336" lon="20.002400470304927"><ele>200.00000000000003</ele><time>2026-04-29T08:39:16Z</time></trkpt><trkpt lat="41.16215109363791" lon="20.002410129876917"><ele>200.0</ele><time>2026-04-29T08:39:17Z</time></trkpt><trkpt lat="41.16221488457514" lon="20.002414245870597"><ele>200.0</ele><time>2026-04-29T08:39:18Z</time></trkpt><trkpt lat="41.16229105591321" lon="20.00238048849811"><ele>200.0</ele><time>2026-04-29T08:39:19Z</time></trkpt><trkpt lat="41.16233872772948" lon="20.002279332087664"><ele>200.0</ele><time>2026-04-29T08:39:20Z</time></trkpt><trkpt lat="41.16240187614832" lon="20.002244628072386"><ele>200.00000000000003</ele><time>2026-04-29T08:39:21Z</time></trkpt><trkpt lat="41.16246281638637" lon="20.002217902093275"><ele>200.0</ele><time>2026-04-29T08:39:22Z</time></trkpt><trkpt lat="41.16252434367268" lon="20.002235637264125"><ele>200.33333333333334</ele><time>2026-04-29T08:39:23Z</time></trkpt><trkpt lat="41.16258668078363" lon="20.002251987574294"><ele>200.66666666666669</ele><time>2026-04-29T08:39:24Z</time></trkpt><trkpt lat="41.16267022331559" lon="20.002256155778362"><ele>201.0</ele><time>2026-04-29T08:39:25Z</time></trkpt><trkpt lat="41.16275816077905" lon="20.002286360928096"><ele>201.33333333333331</ele><time>2026-04-29T08:39:26Z</time></trkpt><trkpt lat="41.162860071134766" lon="20.002324219153675"><ele>201.66666666666666</ele><time>2026-04-29T08:39:27Z</time></trkpt><trkpt lat="41.16295881664635" lon="20.00234856393834"><ele>202.0</ele><time>2026-04-29T08:39:28Z</time></trkpt><trkpt lat="41.163045102418316" lon="20.00234831970859"><ele>201.99999999999997</ele><time>2026-04-29T08:39:29Z</time></trkpt><trkpt lat="41.16310594145005" lon="20.00232315749922"><ele>202.0</ele><time>2026-04-29T08:39:30Z</time></trkpt><trkpt lat="41.163164666034774" lon="20.00221963614836"><ele>202.0</ele><time>2026-04-29T08:39:32Z</time></trkpt><trkpt lat="41.16316355754208" lon="20.002128956751225"><ele>202.0</ele><time>2026-04-29T08:39:33Z</time></trkpt><trkpt lat="41.16313736475322" lon="20.002036545351128"><ele>201.99999999999997</ele><time>2026-04-29T08:39:34Z</time></trkpt><trkpt lat="41.16315628791406" lon="20.00190252267558"><ele>202.0</ele><time>2026-04-29T08:39:36Z</time></trkpt><trkpt lat="41.163263810963144" lon="20.00190399715222"><ele>204.6</ele><time>2026-04-29T08:39:38Z</time></trkpt><trkpt lat="41.163342529531086" lon="20.001895909357312"><ele>207.2</ele><time>2026-04-29T08:39:39Z</time></trkpt><trkpt lat="41.16344404831984" lon="20.001881846649713"><ele>209.8</ele><time>2026-04-29T08:39:40Z</time></trkpt><trkpt lat="41.16355413659774" lon="20.001866659013782"><ele>212.4</ele><time>2026-04-29T08:39:41Z</time></trkpt><trkpt lat="41.16366866357133" lon="20.001828464659432"><ele>215.0</ele><time>2026-04-29T08:39:42Z</time></trkpt><trkpt lat="41.163798430654566" lon="20.00182108922701"><ele>215.0</ele><time>2026-04-29T08:39:43Z</time></trkpt><trkpt lat="41.16394031128945" lon="20.0017914307183"><ele>215.0</ele><time>2026-04-29T08:39:44Z</time></trkpt><trkpt lat="41.16407956874416" lon="20.001791776284964"><ele>215.0</ele><time>2026-04-29T08:39:45Z</time></trkpt><trkpt lat="41.16420612126558" lon="20.00176936042697"><ele>215.0</ele><time>2026-04-29T08:39:46Z</time></trkpt><trkpt lat="41.16433340711441" lon="20.001712761857608"><ele>217.6</ele><time>2026-04-29T08:39:47Z</time></trkpt><trkpt lat="41.16445429928485" lon="20.001698344430963"><ele>220.2</ele><time>2026-04-29T08:39:48Z</time></trkpt><trkpt lat="41.16457265166629" lon="20.001694487794172"><ele>222.8</ele><time>2026-04-29T08:39:49Z</time></trkpt><trkpt lat="41.164673266672914" lon="20.001695752099298"><ele>225.4</ele><time>2026-04-29T08:39:50Z</time></trkpt><trkpt lat="41.16476257081873" lon="20.001696702966086"><ele>228.0</ele><time>2026-04-29T08:39:51Z</time></trkpt><trkpt lat="41.16486573121555" lon="20.001697412587564"><ele>229.4</ele><time>2026-04-29T08:39:52Z</time></trkpt><trkpt lat="41.164978460533945" lon="20.00169804760079"><ele>230.8</ele><time>2026-04-29T08:39:53Z</time></trkpt><trkpt lat="41.165087076182935" lon="20.001706927653363"><ele>232.2</ele><time>2026-04-29T08:39:54Z</time></trkpt><trkpt lat="41.16518966393098" lon="20.001713518535745"><ele>233.6</ele><time>2026-04-29T08:39:55Z</time></trkpt><trkpt lat="41.16529024096283" lon="20.00168920103612"><ele>235.0</ele><time>2026-04-29T08:39:56Z</time></trkpt><trkpt lat="41.16539460772658" lon="20.001626016780026"><ele>233.16666666666666</ele><time>2026-04-29T08:39:57Z</time></trkpt><trkpt lat="41.16548724845199" lon="20.00159359351629"><ele>231.33333333333331</ele><time>2026-04-29T08:39:58Z</time></trkpt><trkpt lat="41.16556909317569" lon="20.001568604014704"><ele>229.5</ele><time>2026-04-29T08:39:59Z</time></trkpt><trkpt lat="41.16565728548452" lon="20.0015412440282"><ele>227.66666666666669</ele><time>2026-04-29T08:40:00Z</time></trkpt><trkpt lat="41.165747010419786" lon="20.00151391898193"><ele>225.83333333333334</ele><time>2026-04-29T08:40:01Z</time></trkpt><trkpt lat="41.165820810216196" lon="20.00147447863239"><ele>224.0</ele><time>2026-04-29T08:40:02Z</time></trkpt><trkpt lat="41.16590338338005" lon="20.001466265579104"><ele>224.00000000000003</ele><time>2026-04-29T08:40:03Z</time></trkpt><trkpt lat="41.165984101901905" lon="20.001441305356153"><ele>224.0</ele><time>2026-04-29T08:40:04Z</time></trkpt><trkpt lat="41.16606299623919" lon="20.00142468564934"><ele>224.0</ele><time>2026-04-29T08:40:05Z</time></trkpt><trkpt lat="41.16613867760066" lon="20.001424025942697"><ele>224.0</ele><time>2026-04-29T08:40:06Z</time></trkpt><trkpt lat="41.16621079849293" lon="20.001436064896037"><ele>224.00000000000003</ele><time>2026-04-29T08:40:07Z</time></trkpt><trkpt lat="41.16628747585237" lon="20.001441273030473"><ele>224.0</ele><time>2026-04-29T08:40:08Z</time></trkpt><trkpt lat="41.166335825227954" lon="20.00152223510633"><ele>224.00000000000003</ele><time>2026-04-29T08:40:09Z</time></trkpt><trkpt lat="41.1663807060944" lon="20.001608350977186"><ele>224.0</ele><time>2026-04-29T08:40:10Z</time></trkpt><trkpt lat="41.1664429333623" lon="20.001674407582176"><ele>224.0</ele><time>2026-04-29T08:40:11Z</time></trkpt><trkpt lat="41.16652208139804" lon="20.001709587678917"><ele>224.0</ele><time>2026-04-29T08:40:12Z</time></trkpt><trkpt lat="41.16660213692849" lon="20.00172234688571"><ele>224.00000000000003</ele><time>2026-04-29T08:40:13Z</time></trkpt><trkpt lat="41.16667900732501" lon="20.001651196452475"><ele>224.0</ele><time>2026-04-29T08:40:14Z</time></trkpt><trkpt lat="41.16675998562552" lon="20.001581459541345"><ele>222.79999999999998</ele><time>2026-04-29T08:40:15Z</time></trkpt><trkpt lat="41.166865908526724" lon="20.001511697227553"><ele>221.59999999999997</ele><time>2026-04-29T08:40:16Z</time></trkpt><trkpt lat="41.1669425616471" lon="20.001411080710962"><ele>220.4</ele><time>2026-04-29T08:40:17Z</time></trkpt><trkpt lat="41.16701029405113" lon="20.001319684366724"><ele>219.2</ele><time>2026-04-29T08:40:18Z</time></trkpt><trkpt lat="41.16709209406071" lon="20.001256311912712"><ele>218.0</ele><time>2026-04-29T08:40:19Z</time></trkpt><trkpt lat="41.16719598134684" lon="20.00122274647117"><ele>218.00000000000003</ele><time>2026-04-29T08:40:20Z</time></trkpt><trkpt lat="41.16728848883809" lon="20.00123590097163"><ele>218.0</ele><time>2026-04-29T08:40:21Z</time></trkpt><trkpt lat="41.16736058576173" lon="20.00126084134274"><ele>218.0</ele><time>2026-04-29T08:40:22Z</time></trkpt><trkpt lat="41.167438914662306" lon="20.00125570747664"><ele>218.0</ele><time>2026-04-29T08:40:23Z</time></trkpt><trkpt lat="41.167529398913736" lon="20.001288861535485"><ele>218.00000000000003</ele><time>2026-04-29T08:40:24Z</time></trkpt><trkpt lat="41.16760716665199" lon="20.00132125301076"><ele>218.0</ele><time>2026-04-29T08:40:25Z</time></trkpt><trkpt lat="41.1676707445892" lon="20.001347701474955"><ele>218.00000000000003</ele><time>2026-04-29T08:40:26Z</time></trkpt><trkpt lat="41.167732471261004" lon="20.00137543927058"><ele>218.0</ele><time>2026-04-29T08:40:27Z</time></trkpt><trkpt lat="41.16778924845657" lon="20.00145917105862"><ele>218.0</ele><time>2026-04-29T08:40:28Z</time></trkpt><trkpt lat="41.16785674011932" lon="20.00152725636648"><ele>218.0</ele><time>2026-04-29T08:40:29Z</time></trkpt><trkpt lat="41.167922826187606" lon="20.00158562704347"><ele>218.00000000000003</ele><time>2026-04-29T08:40:30Z</time></trkpt><trkpt lat="41.16796820046483" lon="20.00164363675009"><ele>218.0</ele><time>2026-04-29T08:40:31Z</time></trkpt><trkpt lat="41.168061395135496" lon="20.00173622520202"><ele>218.42857142857144</ele><time>2026-04-29T08:40:33Z</time></trkpt><trkpt lat="41.168131971774166" lon="20.00177539946653"><ele>218.85714285714286</ele><time>2026-04-29T08:40:35Z</time></trkpt><trkpt lat="41.168189739409286" lon="20.00182675942228"><ele>219.28571428571428</ele><time>2026-04-29T08:40:38Z</time></trkpt><trkpt lat="41.168255048386136" lon="20.00185703827484"><ele>219.71428571428572</ele><time>2026-04-29T08:40:40Z</time></trkpt><trkpt lat="41.16832057426343" lon="20.00188682441467"><ele>220.14285714285714</ele><time>2026-04-29T08:40:42Z</time></trkpt><trkpt lat="41.16838236375655" lon="20.001941528010256"><ele>220.57142857142858</ele><time>2026-04-29T08:40:44Z</time></trkpt><trkpt lat="41.16845236018002" lon="20.001997370274584"><ele>221.0</ele><time>2026-04-29T08:40:46Z</time></trkpt><trkpt lat="41.168561047791066" lon="20.00204978807896"><ele>221.00000000000003</ele><time>2026-04-29T08:40:48Z</time></trkpt><trkpt lat="41.16868051990295" lon="20.002115727869445"><ele>221.0</ele><time>2026-04-29T08:40:50Z</time></trkpt><trkpt lat="41.16873755055512" lon="20.002157914297594"><ele>221.0</ele><time>2026-04-29T08:40:51Z</time></trkpt><trkpt lat="41.16880212227917" lon="20.002171004373356"><ele>221.0</ele><time>2026-04-29T08:40:52Z</time></trkpt><trkpt lat="41.16888016095577" lon="20.00215684333236"><ele>221.00000000000003</ele><time>2026-04-29T08:40:53Z</time></trkpt><trkpt lat="41.16895988798098" lon="20.0021108670069"><ele>221.0</ele><time>2026-04-29T08:40:54Z</time></trkpt><trkpt lat="41.1690373669464" lon="20.002064550012115"><ele>221.00000000000003</ele><time>2026-04-29T08:40:55Z</time></trkpt><trkpt lat="41.16910867292153" lon="20.00202134056006"><ele>221.0</ele><time>2026-04-29T08:40:56Z</time></trkpt><trkpt lat="41.1691712084771" lon="20.001972021083365"><ele>221.0</ele><time>2026-04-29T08:40:57Z</time></trkpt><trkpt lat="41.16923532968259" lon="20.00192457609979"><ele>221.0</ele><time>2026-04-29T08:40:58Z</time></trkpt><trkpt lat="41.169316444554106" lon="20.00187399709729"><ele>221.00000000000003</ele><time>2026-04-29T08:40:59Z</time></trkpt><trkpt lat="41.16941555535147" lon="20.001818933087595"><ele>221.0</ele><time>2026-04-29T08:41:00Z</time></trkpt><trkpt lat="41.16950323042995" lon="20.001739555155975"><ele>220.20000000000002</ele><time>2026-04-29T08:41:01Z</time></trkpt><trkpt lat="41.1695689511498" lon="20.001635167917026"><ele>219.40000000000003</ele><time>2026-04-29T08:41:02Z</time></trkpt><trkpt lat="41.16963717811458" lon="20.001570026125012"><ele>218.6</ele><time>2026-04-29T08:41:03Z</time></trkpt><trkpt lat="41.169698695764524" lon="20.00148784672165"><ele>217.8</ele><time>2026-04-29T08:41:04Z</time></trkpt><trkpt lat="41.1697802556236" lon="20.001408701320315"><ele>217.0</ele><time>2026-04-29T08:41:05Z</time></trkpt><trkpt lat="41.16985758088971" lon="20.001354102661903"><ele>217.6</ele><time>2026-04-29T08:41:06Z</time></trkpt><trkpt lat="41.16995717522607" lon="20.001342337997915"><ele>218.2</ele><time>2026-04-29T08:41:07Z</time></trkpt><trkpt lat="41.17006135640257" lon="20.001312616381178"><ele>218.8</ele><time>2026-04-29T08:41:08Z</time></trkpt><trkpt lat="41.17016774249442" lon="20.00126851608896"><ele>219.4</ele><time>2026-04-29T08:41:09Z</time></trkpt><trkpt lat="41.170275639195516" lon="20.001200449718826"><ele>220.0</ele><time>2026-04-29T08:41:10Z</time></trkpt><trkpt lat="41.17036068226654" lon="20.001120449440272"><ele>220.0</ele><time>2026-04-29T08:41:11Z</time></trkpt><trkpt lat="41.170448370028865" lon="20.001033852249442"><ele>220.0</ele><time>2026-04-29T08:41:12Z</time></trkpt><trkpt lat="41.170538778552825" lon="20.000932095593555"><ele>220.0</ele><time>2026-04-29T08:41:13Z</time></trkpt><trkpt lat="41.17065101674227" lon="20.00086023398883"><ele>220.0</ele><time>2026-04-29T08:41:14Z</time></trkpt><trkpt lat="41.17077057473221" lon="20.000785816661146"><ele>219.75</ele><time>2026-04-29T08:41:15Z</time></trkpt><trkpt lat="41.17089533328904" lon="20.00071283655908"><ele>219.5</ele><time>2026-04-29T08:41:16Z</time></trkpt><trkpt lat="41.17102161198915" lon="20.000624755327685"><ele>219.25</ele><time>2026-04-29T08:41:17Z</time></trkpt><trkpt lat="41.17114302943591" lon="20.000525010246022"><ele>219.0</ele><time>2026-04-29T08:41:18Z</time></trkpt><trkpt lat="41.17123519969102" lon="20.000423092298174"><ele>219.0</ele><time>2026-04-29T08:41:19Z</time></trkpt><trkpt lat="41.171336743818514" lon="20.00035554605405"><ele>218.99999999999997</ele><time>2026-04-29T08:41:20Z</time></trkpt><trkpt lat="41.171438434881416" lon="20.000274854862887"><ele>218.99999999999997</ele><time>2026-04-29T08:41:21Z</time></trkpt><trkpt lat="41.17152697505746" lon="20.00021980250169"><ele>219.0</ele><time>2026-04-29T08:41:22Z</time></trkpt><trkpt lat="41.1716276841577" lon="20.000184006552953"><ele>219.0</ele><time>2026-04-29T08:41:23Z</time></trkpt><trkpt lat="41.17174482908415" lon="20.00014659916984"><ele>220.0</ele><time>2026-04-29T08:41:24Z</time></trkpt><trkpt lat="41.17186747701405" lon="20.000102297589702"><ele>221.0</ele><time>2026-04-29T08:41:25Z</time></trkpt><trkpt lat="41.17198602029371" lon="20.000034156905308"><ele>222.0</ele><time>2026-04-29T08:41:26Z</time></trkpt><trkpt lat="41.17208431206484" lon="19.999954510136135"><ele>223.0</ele><time>2026-04-29T08:41:27Z</time></trkpt><trkpt lat="41.172159140466654" lon="19.999884476394044"><ele>223.0</ele><time>2026-04-29T08:41:28Z</time></trkpt><trkpt lat="41.1722382888074" lon="19.999794390153824"><ele>223.0</ele><time>2026-04-29T08:41:29Z</time></trkpt><trkpt lat="41.17230849713898" lon="19.999681670355802"><ele>223.0</ele><time>2026-04-29T08:41:30Z</time></trkpt><trkpt lat="41.172354925345026" lon="19.999563253822895"><ele>223.0</ele><time>2026-04-29T08:41:31Z</time></trkpt><trkpt lat="41.17239279690173" lon="19.99947158073327"><ele>223.0</ele><time>2026-04-29T08:41:32Z</time></trkpt><trkpt lat="41.17242865162546" lon="19.9993586905296"><ele>222.4</ele><time>2026-04-29T08:41:33Z</time></trkpt><trkpt lat="41.17239132948216" lon="19.999193043649182"><ele>221.8</ele><time>2026-04-29T08:41:34Z</time></trkpt><trkpt lat="41.172406417011594" lon="19.999036422122366"><ele>221.2</ele><time>2026-04-29T08:41:35Z</time></trkpt><trkpt lat="41.172405465320395" lon="19.998888751423834"><ele>220.6</ele><time>2026-04-29T08:41:36Z</time></trkpt><trkpt lat="41.172413906125634" lon="19.998785771928468"><ele>220.0</ele><time>2026-04-29T08:41:37Z</time></trkpt><trkpt lat="41.17242414388725" lon="19.99869988463795"><ele>220.0</ele><time>2026-04-29T08:41:38Z</time></trkpt><trkpt lat="41.17250437204228" lon="19.998617481510337"><ele>220.0</ele><time>2026-04-29T08:41:40Z</time></trkpt><trkpt lat="41.17258497029375" lon="19.998587054784913"><ele>220.0</ele><time>2026-04-29T08:41:41Z</time></trkpt><trkpt lat="41.17268158144467" lon="19.998549761111175"><ele>220.0</ele><time>2026-04-29T08:41:42Z</time></trkpt><trkpt lat="41.172788616515945" lon="19.998541718565576"><ele>220.0</ele><time>2026-04-29T08:41:43Z</time></trkpt><trkpt lat="41.17291539466623" lon="19.998541713726148"><ele>220.0</ele><time>2026-04-29T08:41:44Z</time></trkpt><trkpt lat="41.17304247145848" lon="19.99854938739562"><ele>220.0</ele><time>2026-04-29T08:41:45Z</time></trkpt><trkpt lat="41.17314196554986" lon="19.998557999934288"><ele>220.0</ele><time>2026-04-29T08:41:46Z</time></trkpt><trkpt lat="41.17323843542465" lon="19.998559028273437"><ele>220.0</ele><time>2026-04-29T08:41:47Z</time></trkpt><trkpt lat="41.17333529968302" lon="19.998541878750874"><ele>220.0</ele><time>2026-04-29T08:41:48Z</time></trkpt><trkpt lat="41.17343780430946" lon="19.99853585290465"><ele>220.5</ele><time>2026-04-29T08:41:49Z</time></trkpt><trkpt lat="41.17354237686093" lon="19.998476742787314"><ele>221.0</ele><time>2026-04-29T08:41:50Z</time></trkpt><trkpt lat="41.173640123628786" lon="19.99838888215031"><ele>221.5</ele><time>2026-04-29T08:41:51Z</time></trkpt><trkpt lat="41.17373789439092" lon="19.998304329317733"><ele>222.0</ele><time>2026-04-29T08:41:52Z</time></trkpt><trkpt lat="41.17383613371569" lon="19.998219920153446"><ele>222.16666666666666</ele><time>2026-04-29T08:41:53Z</time></trkpt><trkpt lat="41.17391991409344" lon="19.998147934428292"><ele>222.33333333333331</ele><time>2026-04-29T08:41:54Z</time></trkpt><trkpt lat="41.17398825705832" lon="19.998089212838284"><ele>222.5</ele><time>2026-04-29T08:41:55Z</time></trkpt><trkpt lat="41.174060102372245" lon="19.99802748194696"><ele>222.66666666666666</ele><time>2026-04-29T08:41:56Z</time></trkpt><trkpt lat="41.17414270380208" lon="19.99795939296287"><ele>222.83333333333331</ele><time>2026-04-29T08:41:57Z</time></trkpt><trkpt lat="41.174214788881486" lon="19.997901367936095"><ele>223.0</ele><time>2026-04-29T08:41:58Z</time></trkpt><trkpt lat="41.174308642482835" lon="19.99782975662057"><ele>223.4</ele><time>2026-04-29T08:42:00Z</time></trkpt><trkpt lat="41.174406863080875" lon="19.997741923042973"><ele>223.8</ele><time>2026-04-29T08:42:02Z</time></trkpt><trkpt lat="41.17449304111666" lon="19.997620249578052"><ele>224.2</ele><time>2026-04-29T08:42:04Z</time></trkpt><trkpt lat="41.17454319942299" lon="19.99754690530986"><ele>224.6</ele><time>2026-04-29T08:42:05Z</time></trkpt><trkpt lat="41.17458860058556" lon="19.997481319234183"><ele>225.0</ele><time>2026-04-29T08:42:06Z</time></trkpt><trkpt lat="41.17463464795647" lon="19.997416757867477"><ele>225.4</ele><time>2026-04-29T08:42:09Z</time></trkpt><trkpt lat="41.174829969329544" lon="19.99743261416599"><ele>225.8</ele><time>2026-04-29T08:42:21Z</time></trkpt><trkpt lat="41.174901637053445" lon="19.99743880973767"><ele>226.2</ele><time>2026-04-29T08:42:22Z</time></trkpt><trkpt lat="41.1749915957876" lon="19.9974397241108"><ele>226.6</ele><time>2026-04-29T08:42:23Z</time></trkpt><trkpt lat="41.17508303882495" lon="19.997449646226592"><ele>227.0</ele><time>2026-04-29T08:42:24Z</time></trkpt><trkpt lat="41.17516009542493" lon="19.997466506768134"><ele>227.39999999999998</ele><time>2026-04-29T08:42:25Z</time></trkpt><trkpt lat="41.17526991410933" lon="19.997521657558064"><ele>227.79999999999998</ele><time>2026-04-29T08:42:27Z</time></trkpt><trkpt lat="41.17534422551834" lon="19.99756824419641"><ele>228.2</ele><time>2026-04-29T08:42:28Z</time></trkpt><trkpt lat="41.175429609922915" lon="19.99763894612009"><ele>228.6</ele><time>2026-04-29T08:42:29Z</time></trkpt><trkpt lat="41.175509332189925" lon="19.99772596089098"><ele>229.0</ele><time>2026-04-29T08:42:30Z</time></trkpt><trkpt lat="41.17556196601721" lon="19.99782436652726"><ele>229.0</ele><time>2026-04-29T08:42:31Z</time></trkpt><trkpt lat="41.17556738394247" lon="19.997957215337248"><ele>228.99999999999997</ele><time>2026-04-29T08:42:32Z</time></trkpt><trkpt lat="41.1756075866591" lon="19.998083235424208"><ele>228.99999999999997</ele><time>2026-04-29T08:42:33Z</time></trkpt><trkpt lat="41.17566639843625" lon="19.998197665802717"><ele>229.0</ele><time>2026-04-29T08:42:34Z</time></trkpt><trkpt lat="41.17579519801601" lon="19.998269098853296"><ele>229.0</ele><time>2026-04-29T08:42:35Z</time></trkpt><trkpt lat="41.17587607295023" lon="19.998375928175896"><ele>229.16666666666666</ele><time>2026-04-29T08:42:36Z</time></trkpt><trkpt lat="41.175933365205054" lon="19.998443916197754"><ele>229.33333333333331</ele><time>2026-04-29T08:42:37Z</time></trkpt><trkpt lat="41.17600006839212" lon="19.998502637641092"><ele>229.5</ele><time>2026-04-29T08:42:38Z</time></trkpt><trkpt lat="41.176098568805955" lon="19.998514300954998"><ele>229.66666666666669</ele><time>2026-04-29T08:42:39Z</time></trkpt><trkpt lat="41.176202576247036" lon="19.998514283945248"><ele>229.83333333333334</ele><time>2026-04-29T08:42:40Z</time></trkpt><trkpt lat="41.17627442847726" lon="19.998555474786986"><ele>230.0</ele><time>2026-04-29T08:42:41Z</time></trkpt><trkpt lat="41.176314592652886" lon="19.99863805014906"><ele>230.0</ele><time>2026-04-29T08:42:42Z</time></trkpt><trkpt lat="41.17638904446451" lon="19.99873967165213"><ele>230.0</ele><time>2026-04-29T08:42:43Z</time></trkpt><trkpt lat="41.176463227511896" lon="19.99887501294445"><ele>230.0</ele><time>2026-04-29T08:42:44Z</time></trkpt><trkpt lat="41.17652683966121" lon="19.99900177864118"><ele>230.0</ele><time>2026-04-29T08:42:45Z</time></trkpt><trkpt lat="41.176577613199996" lon="19.999101599601335"><ele>230.0</ele><time>2026-04-29T08:42:46Z</time></trkpt><trkpt lat="41.17662919885978" lon="19.99920110792488"><ele>232.2</ele><time>2026-04-29T08:42:47Z</time></trkpt><trkpt lat="41.176689229251565" lon="19.999302461707632"><ele>234.4</ele><time>2026-04-29T08:42:48Z</time></trkpt><trkpt lat="41.1767549555688" lon="19.999411840777878"><ele>236.60000000000002</ele><time>2026-04-29T08:42:49Z</time></trkpt><trkpt lat="41.17682263569684" lon="19.999522845722765"><ele>238.8</ele><time>2026-04-29T08:42:50Z</time></trkpt><trkpt lat="41.176883859906745" lon="19.99962400716368"><ele>241.0</ele><time>2026-04-29T08:42:51Z</time></trkpt><trkpt lat="41.176948556717356" lon="19.999715383327576"><ele>241.0</ele><time>2026-04-29T08:42:52Z</time></trkpt><trkpt lat="41.17703494461507" lon="19.999814119375802"><ele>241.00000000000003</ele><time>2026-04-29T08:42:53Z</time></trkpt><trkpt lat="41.17709923161239" lon="19.999882224726207"><ele>241.00000000000003</ele><time>2026-04-29T08:42:54Z</time></trkpt><trkpt lat="41.177195282951615" lon="19.999879781325607"><ele>241.0</ele><time>2026-04-29T08:42:55Z</time></trkpt><trkpt lat="41.177284786942266" lon="19.99985078928932"><ele>241.0</ele><time>2026-04-29T08:42:56Z</time></trkpt><trkpt lat="41.17737901685203" lon="19.999832825271472"><ele>243.60000000000002</ele><time>2026-04-29T08:42:57Z</time></trkpt><trkpt lat="41.17747311880906" lon="19.999816716507027"><ele>246.20000000000002</ele><time>2026-04-29T08:42:58Z</time></trkpt><trkpt lat="41.17756522794288" lon="19.99979412258833"><ele>248.79999999999998</ele><time>2026-04-29T08:42:59Z</time></trkpt><trkpt lat="41.17765150210598" lon="19.99979868790527"><ele>251.39999999999998</ele><time>2026-04-29T08:43:00Z</time></trkpt><trkpt lat="41.177750511709334" lon="19.999835994321234"><ele>254.0</ele><time>2026-04-29T08:43:02Z</time></trkpt><trkpt lat="41.17779868679203" lon="19.999914094088066"><ele>254.00000000000003</ele><time>2026-04-29T08:43:04Z</time></trkpt><trkpt lat="41.17783284458726" lon="19.99998437039344"><ele>254.0</ele><time>2026-04-29T08:43:05Z</time></trkpt><trkpt lat="41.17792520480071" lon="20.000037545444776"><ele>254.0</ele><time>2026-04-29T08:43:07Z</time></trkpt><trkpt lat="41.17798377705765" lon="19.99998353326958"><ele>254.0</ele><time>2026-04-29T08:43:08Z</time></trkpt><trkpt lat="41.1780292106172" lon="19.999898262732444"><ele>254.00000000000003</ele><time>2026-04-29T08:43:09Z</time></trkpt><trkpt lat="41.17807919762165" lon="19.999834643605126"><ele>254.0</ele><time>2026-04-29T08:43:10Z</time></trkpt><trkpt lat="41.17814763790391" lon="19.999864441905384"><ele>254.00000000000003</ele><time>2026-04-29T08:43:11Z</time></trkpt><trkpt lat="41.17823543313129" lon="19.999901797381515"><ele>254.0</ele><time>2026-04-29T08:43:13Z</time></trkpt><trkpt lat="41.178292491219835" lon="20.000052004632238"><ele>254.0</ele><time>2026-04-29T08:43:15Z</time></trkpt><trkpt lat="41.17829904174333" lon="20.000153036714348"><ele>254.0</ele><time>2026-04-29T08:43:16Z</time></trkpt><trkpt lat="41.17828313069239" lon="20.000251230530843"><ele>254.00000000000003</ele><time>2026-04-29T08:43:17Z</time></trkpt><trkpt lat="41.17822972672071" lon="20.00032450309641"><ele>254.0</ele><time>2026-04-29T08:43:18Z</time></trkpt><trkpt lat="41.17816795636263" lon="20.000398162214005"><ele>254.00000000000003</ele><time>2026-04-29T08:43:19Z</time></trkpt><trkpt lat="41.178113112310605" lon="20.000480656686637"><ele>254.0</ele><time>2026-04-29T08:43:20Z</time></trkpt><trkpt lat="41.17808497967856" lon="20.000591072619713"><ele>254.0</ele><time>2026-04-29T08:43:21Z</time></trkpt><trkpt lat="41.1780915246121" lon="20.000702799778026"><ele>254.0</ele><time>2026-04-29T08:43:22Z</time></trkpt><trkpt lat="41.17808460680084" lon="20.000823975251613"><ele>254.00000000000003</ele><time>2026-04-29T08:43:23Z</time></trkpt><trkpt lat="41.178071377467" lon="20.000942515546246"><ele>254.0</ele><time>2026-04-29T08:43:24Z</time></trkpt><trkpt lat="41.1780566512008" lon="20.001066428910594"><ele>254.6</ele><time>2026-04-29T08:43:25Z</time></trkpt><trkpt lat="41.1780385874888" lon="20.001187673172954"><ele>255.2</ele><time>2026-04-29T08:43:26Z</time></trkpt><trkpt lat="41.17801284881625" lon="20.00130751964064"><ele>255.79999999999998</ele><time>2026-04-29T08:43:27Z</time></trkpt><trkpt lat="41.17796610707656" lon="20.001432436830893"><ele>256.4</ele><time>2026-04-29T08:43:28Z</time></trkpt><trkpt lat="41.177934132323486" lon="20.00155660561124"><ele>257.0</ele><time>2026-04-29T08:43:29Z</time></trkpt><trkpt lat="41.17791905293556" lon="20.001652978272485"><ele>257.0</ele><time>2026-04-29T08:43:30Z</time></trkpt><trkpt lat="41.17793238328309" lon="20.001796285638573"><ele>257.0</ele><time>2026-04-29T08:43:32Z</time></trkpt><trkpt lat="41.177997165210385" lon="20.00198883188107"><ele>257.0</ele><time>2026-04-29T08:43:35Z</time></trkpt><trkpt lat="41.178054769858385" lon="20.002054716288356"><ele>257.0</ele><time>2026-04-29T08:43:36Z</time></trkpt><trkpt lat="41.17811378461839" lon="20.00211825302798"><ele>257.0</ele><time>2026-04-29T08:43:37Z</time></trkpt><trkpt lat="41.178176260192274" lon="20.002193828872894"><ele>260.6666666666667</ele><time>2026-04-29T08:43:38Z</time></trkpt><trkpt lat="41.17824845949867" lon="20.002285219171842"><ele>264.33333333333337</ele><time>2026-04-29T08:43:40Z</time></trkpt><trkpt lat="41.17831982686366" lon="20.002381006116458"><ele>268.0</ele><time>2026-04-29T08:43:43Z</time></trkpt><trkpt lat="41.17836280437462" lon="20.002461519501814"><ele>271.6666666666667</ele><time>2026-04-29T08:43:44Z</time></trkpt><trkpt lat="41.1783556382031" lon="20.00255331902406"><ele>275.3333333333333</ele><time>2026-04-29T08:43:45Z</time></trkpt><trkpt lat="41.17843022464377" lon="20.00260261978397"><ele>279.0</ele><time>2026-04-29T08:43:46Z</time></trkpt><trkpt lat="41.178478203499424" lon="20.00274929693856"><ele>279.0</ele><time>2026-04-29T08:43:48Z</time></trkpt><trkpt lat="41.17851535025858" lon="20.002872702220856"><ele>279.0</ele><time>2026-04-29T08:43:50Z</time></trkpt><trkpt lat="41.17854548693293" lon="20.002971966071897"><ele>279.0</ele><time>2026-04-29T08:43:53Z</time></trkpt><trkpt lat="41.17857220439651" lon="20.003059042351076"><ele>279.0</ele><time>2026-04-29T08:44:06Z</time></trkpt><trkpt lat="41.17861981252906" lon="20.00320777405186"><ele>279.0</ele><time>2026-04-29T08:44:08Z</time></trkpt><trkpt lat="41.17866065435336" lon="20.003315197580022"><ele>279.0</ele><time>2026-04-29T08:44:10Z</time></trkpt><trkpt lat="41.178685868954055" lon="20.003419763794973"><ele>279.0</ele><time>2026-04-29T08:44:12Z</time></trkpt><trkpt lat="41.1786755691057" lon="20.003288403686216"><ele>279.0</ele><time>2026-04-29T08:44:28Z</time></trkpt><trkpt lat="41.17871097578682" lon="20.003193463610433"><ele>279.0</ele><time>2026-04-29T08:44:30Z</time></trkpt><trkpt lat="41.178624025119795" lon="20.00312060332871"><ele>279.0</ele><time>2026-04-29T08:44:31Z</time></trkpt><trkpt lat="41.17858508249262" lon="20.003011136679298"><ele>279.0</ele><time>2026-04-29T08:44:33Z</time></trkpt><trkpt lat="41.17853839103806" lon="20.00287577056226"><ele>279.0</ele><time>2026-04-29T08:44:35Z</time></trkpt><trkpt lat="41.17851941116773" lon="20.00279547359015"><ele>279.0</ele><time>2026-04-29T08:44:36Z</time></trkpt><trkpt lat="41.178496853917" lon="20.00271344647555"><ele>279.0</ele><time>2026-04-29T08:44:37Z</time></trkpt><trkpt lat="41.17842568741663" lon="20.00258729500101"><ele>279.0</ele><time>2026-04-29T08:44:39Z</time></trkpt><trkpt lat="41.17835535795866" lon="20.002480472271277"><ele>279.8333333333333</ele><time>2026-04-29T08:44:41Z</time></trkpt><trkpt lat="41.17832396000182" lon="20.002377217041275"><ele>280.6666666666667</ele><time>2026-04-29T08:44:43Z</time></trkpt><trkpt lat="41.17829145110566" lon="20.002291341178793"><ele>281.5</ele><time>2026-04-29T08:44:45Z</time></trkpt><trkpt lat="41.178243382118374" lon="20.002221369959333"><ele>282.33333333333337</ele><time>2026-04-29T08:44:47Z</time></trkpt><trkpt lat="41.178177072452975" lon="20.00213807211628"><ele>283.1666666666667</ele><time>2026-04-29T08:44:49Z</time></trkpt><trkpt lat="41.17811779186682" lon="20.002065795613827"><ele>284.0</ele><time>2026-04-29T08:44:52Z</time></trkpt><trkpt lat="41.178070720517475" lon="20.002005900083564"><ele>279.5</ele><time>2026-04-29T08:46:11Z</time></trkpt><trkpt lat="41.17801569552302" lon="20.00196401177689"><ele>275.0</ele><time>2026-04-29T08:46:18Z</time></trkpt><trkpt lat="41.177963170501386" lon="20.00185316479883"><ele>270.5</ele><time>2026-04-29T08:47:12Z</time></trkpt><trkpt lat="41.177960464983435" lon="20.00174675527288"><ele>266.0</ele><time>2026-04-29T08:47:14Z</time></trkpt><trkpt lat="41.17797226614661" lon="20.001653569721018"><ele>261.5</ele><time>2026-04-29T08:47:16Z</time></trkpt><trkpt lat="41.17799684066834" lon="20.001556048787542"><ele>257.0</ele><time>2026-04-29T08:47:18Z</time></trkpt><trkpt lat="41.178028940535846" lon="20.00144706977411"><ele>257.0</ele><time>2026-04-29T08:47:20Z</time></trkpt><trkpt lat="41.17806667024116" lon="20.0013226140924"><ele>257.0</ele><time>2026-04-29T08:47:22Z</time></trkpt><trkpt lat="41.17808948128345" lon="20.001195564375102"><ele>257.0</ele><time>2026-04-29T08:47:24Z</time></trkpt><trkpt lat="41.17810481458813" lon="20.001088054879773"><ele>257.0</ele><time>2026-04-29T08:47:26Z</time></trkpt><trkpt lat="41.178116514337376" lon="20.000977040918407"><ele>257.0</ele><time>2026-04-29T08:47:28Z</time></trkpt><trkpt lat="41.178127378486806" lon="20.00087562889656"><ele>257.0</ele><time>2026-04-29T08:47:30Z</time></trkpt><trkpt lat="41.17813436827429" lon="20.000773593785453"><ele>256.5</ele><time>2026-04-29T08:47:32Z</time></trkpt><trkpt lat="41.178137310047354" lon="20.000651071566896"><ele>256.0</ele><time>2026-04-29T08:47:34Z</time></trkpt><trkpt lat="41.17815289383931" lon="20.000518930074453"><ele>255.5</ele><time>2026-04-29T08:47:36Z</time></trkpt><trkpt lat="41.178190629249414" lon="20.00041720130002"><ele>255.0</ele><time>2026-04-29T08:47:38Z</time></trkpt><trkpt lat="41.17825127147559" lon="20.000339471887816"><ele>254.50000000000003</ele><time>2026-04-29T08:47:41Z</time></trkpt><trkpt lat="41.178305733106775" lon="20.00025842398526"><ele>254.0</ele><time>2026-04-29T08:47:44Z</time></trkpt><trkpt lat="41.178335975935454" lon="20.00016858917827"><ele>254.0</ele><time>2026-04-29T08:47:47Z</time></trkpt><trkpt lat="41.17833145735744" lon="20.00006130780347"><ele>254.0</ele><time>2026-04-29T08:47:50Z</time></trkpt><trkpt lat="41.17828892888356" lon="19.99995987298375"><ele>254.0</ele><time>2026-04-29T08:47:53Z</time></trkpt><trkpt lat="41.17825498998229" lon="19.999882742046513"><ele>254.0</ele><time>2026-04-29T08:47:55Z</time></trkpt><trkpt lat="41.17820527767207" lon="19.999824954604478"><ele>254.0</ele><time>2026-04-29T08:47:57Z</time></trkpt><trkpt lat="41.178134237374096" lon="19.999815698720695"><ele>254.0</ele><time>2026-04-29T08:47:59Z</time></trkpt><trkpt lat="41.17806057468906" lon="19.999832914003882"><ele>254.0</ele><time>2026-04-29T08:48:01Z</time></trkpt><trkpt lat="41.17799984321785" lon="19.999887944222834"><ele>254.0</ele><time>2026-04-29T08:48:03Z</time></trkpt><trkpt lat="41.17794170428761" lon="19.999953052505298"><ele>254.0</ele><time>2026-04-29T08:48:05Z</time></trkpt><trkpt lat="41.17788185168447" lon="19.999992168510364"><ele>254.0</ele><time>2026-04-29T08:48:07Z</time></trkpt><trkpt lat="41.177808362974304" lon="19.99996092196084"><ele>254.0</ele><time>2026-04-29T08:48:10Z</time></trkpt><trkpt lat="41.17779800848227" lon="19.99986386632148"><ele>254.0</ele><time>2026-04-29T08:48:13Z</time></trkpt><trkpt lat="41.177740524990455" lon="19.999796092864173"><ele>254.0</ele><time>2026-04-29T08:48:16Z</time></trkpt><trkpt lat="41.17769110507455" lon="19.999726673737324"><ele>254.0</ele><time>2026-04-29T08:48:33Z</time></trkpt><trkpt lat="41.1776350009196" lon="19.99976629234156"><ele>254.0</ele><time>2026-04-29T08:48:34Z</time></trkpt><trkpt lat="41.17754875586159" lon="19.999771436006895"><ele>253.99999999999997</ele><time>2026-04-29T08:48:36Z</time></trkpt><trkpt lat="41.177439414980455" lon="19.999805752017455"><ele>253.99999999999997</ele><time>2026-04-29T08:48:38Z</time></trkpt><trkpt lat="41.1773090635837" lon="19.99981516033953"><ele>254.0</ele><time>2026-04-29T08:48:39.999Z</time></trkpt><trkpt lat="41.17724566760081" lon="19.99981387514606"><ele>254.0</ele><time>2026-04-29T08:48:40.999Z</time></trkpt><trkpt lat="41.177149642666606" lon="19.99980445527982"><ele>251.83333333333334</ele><time>2026-04-29T08:48:42.999Z</time></trkpt><trkpt lat="41.17706754439079" lon="19.999743031306778"><ele>249.66666666666669</ele><time>2026-04-29T08:48:44.999Z</time></trkpt><trkpt lat="41.17700155869856" lon="19.999673304246027"><ele>247.5</ele><time>2026-04-29T08:48:46.999Z</time></trkpt><trkpt lat="41.17694865850625" lon="19.999596045210023"><ele>245.33333333333331</ele><time>2026-04-29T08:48:49.999Z</time></trkpt><trkpt lat="41.176883256227256" lon="19.999539262884472"><ele>243.16666666666666</ele><time>2026-04-29T08:49:07.999Z</time></trkpt><trkpt lat="41.17684569706837" lon="19.999466574910027"><ele>241.0</ele><time>2026-04-29T08:49:11.999Z</time></trkpt><trkpt lat="41.17678181834916" lon="19.999357916164122"><ele>241.0</ele><time>2026-04-29T08:49:13.999Z</time></trkpt><trkpt lat="41.176734914812826" lon="19.999278107786125"><ele>241.00000000000003</ele><time>2026-04-29T08:49:14.999Z</time></trkpt><trkpt lat="41.176688132499784" lon="19.999196368036568"><ele>241.00000000000003</ele><time>2026-04-29T08:49:15.999Z</time></trkpt><trkpt lat="41.17664249304745" lon="19.999122084553573"><ele>241.0</ele><time>2026-04-29T08:49:16.999Z</time></trkpt><trkpt lat="41.17656228026671" lon="19.999003843303477"><ele>241.0</ele><time>2026-04-29T08:49:18.999Z</time></trkpt><trkpt lat="41.17649612367652" lon="19.99887048342728"><ele>239.16666666666666</ele><time>2026-04-29T08:49:20.999Z</time></trkpt><trkpt lat="41.17645953671281" lon="19.99879856246357"><ele>237.33333333333331</ele><time>2026-04-29T08:49:21.999Z</time></trkpt><trkpt lat="41.17640210431938" lon="19.998690244475288"><ele>235.5</ele><time>2026-04-29T08:49:23.999Z</time></trkpt><trkpt lat="41.17634219022975" lon="19.99859219181118"><ele>233.66666666666669</ele><time>2026-04-29T08:49:25.999Z</time></trkpt><trkpt lat="41.17627468478784" lon="19.9985084223674"><ele>231.83333333333334</ele><time>2026-04-29T08:49:27.999Z</time></trkpt><trkpt lat="41.17619333511105" lon="19.99844545216631"><ele>230.0</ele><time>2026-04-29T08:49:29.999Z</time></trkpt><trkpt lat="41.17608796958733" lon="19.99844670836984"><ele>230.0</ele><time>2026-04-29T08:49:31.999Z</time></trkpt><trkpt lat="41.1759870613069" lon="19.998431238342512"><ele>230.0</ele><time>2026-04-29T08:49:33.999Z</time></trkpt><trkpt lat="41.17589890013921" lon="19.998378791603223"><ele>230.0</ele><time>2026-04-29T08:49:35.999Z</time></trkpt><trkpt lat="41.17582750473189" lon="19.998263131763427"><ele>230.0</ele><time>2026-04-29T08:49:37.999Z</time></trkpt><trkpt lat="41.17572138647046" lon="19.99817659310671"><ele>230.0</ele><time>2026-04-29T08:49:39.999Z</time></trkpt><trkpt lat="41.1756641226822" lon="19.998122866163413"><ele>229.83333333333334</ele><time>2026-04-29T08:49:40.999Z</time></trkpt><trkpt lat="41.17561000355614" lon="19.998056957873597"><ele>229.66666666666669</ele><time>2026-04-29T08:49:41.999Z</time></trkpt><trkpt lat="41.17559321685675" lon="19.99796311566662"><ele>229.5</ele><time>2026-04-29T08:49:42.999Z</time></trkpt><trkpt lat="41.17557327097353" lon="19.99786499821023"><ele>229.33333333333331</ele><time>2026-04-29T08:49:44Z</time></trkpt><trkpt lat="41.175517274028124" lon="19.997789745950886"><ele>229.16666666666666</ele><time>2026-04-29T08:49:45Z</time></trkpt><trkpt lat="41.175471904268974" lon="19.997700929097153"><ele>229.0</ele><time>2026-04-29T08:49:46Z</time></trkpt><trkpt lat="41.175418548417085" lon="19.997632072553596"><ele>229.0</ele><time>2026-04-29T08:49:47Z</time></trkpt><trkpt lat="41.175348756325796" lon="19.997587462709813"><ele>229.0</ele><time>2026-04-29T08:49:48Z</time></trkpt><trkpt lat="41.175290696461175" lon="19.997543578354563"><ele>229.0</ele><time>2026-04-29T08:49:49Z</time></trkpt><trkpt lat="41.175227762782534" lon="19.997512114073768"><ele>229.0</ele><time>2026-04-29T08:49:50Z</time></trkpt><trkpt lat="41.175164278854574" lon="19.997489658919953"><ele>229.0</ele><time>2026-04-29T08:49:51Z</time></trkpt><trkpt lat="41.17509727311121" lon="19.9974685041255"><ele>229.0</ele><time>2026-04-29T08:49:52Z</time></trkpt><trkpt lat="41.175024717351526" lon="19.997451340838747"><ele>229.0</ele><time>2026-04-29T08:49:53Z</time></trkpt><trkpt lat="41.17495967764649" lon="19.99744267254955"><ele>228.66666666666666</ele><time>2026-04-29T08:49:54Z</time></trkpt><trkpt lat="41.17489648228489" lon="19.997455790465217"><ele>228.33333333333331</ele><time>2026-04-29T08:49:56Z</time></trkpt><trkpt lat="41.17484156519644" lon="19.997401257944563"><ele>228.0</ele><time>2026-04-29T08:50:01Z</time></trkpt><trkpt lat="41.17495953530349" lon="19.997439792479458"><ele>227.66666666666669</ele><time>2026-04-29T08:50:05Z</time></trkpt><trkpt lat="41.17502596739319" lon="19.997424258436673"><ele>227.33333333333334</ele><time>2026-04-29T08:50:07Z</time></trkpt><trkpt lat="41.175133654032955" lon="19.997431735693368"><ele>227.0</ele><time>2026-04-29T08:50:10Z</time></trkpt><trkpt lat="41.17524429758641" lon="19.99746429359944"><ele>227.39999999999998</ele><time>2026-04-29T08:50:12Z</time></trkpt><trkpt lat="41.17536757954261" lon="19.99751744948899"><ele>227.79999999999998</ele><time>2026-04-29T08:50:14Z</time></trkpt><trkpt lat="41.175439235630996" lon="19.99754827590044"><ele>228.2</ele><time>2026-04-29T08:50:15Z</time></trkpt><trkpt lat="41.1755015168557" lon="19.997587991551452"><ele>228.6</ele><time>2026-04-29T08:50:16Z</time></trkpt><trkpt lat="41.17556680414504" lon="19.997644156581032"><ele>229.0</ele><time>2026-04-29T08:50:17Z</time></trkpt><trkpt lat="41.17566172015454" lon="19.997727257114306"><ele>230.2</ele><time>2026-04-29T08:50:19Z</time></trkpt><trkpt lat="41.17581487438543" lon="19.997745851778888"><ele>231.39999999999998</ele><time>2026-04-29T08:50:21Z</time></trkpt><trkpt lat="41.17588365255602" lon="19.997727578475615"><ele>232.6</ele><time>2026-04-29T08:50:22Z</time></trkpt><trkpt lat="41.175966109917496" lon="19.99765261529825"><ele>233.8</ele><time>2026-04-29T08:50:23Z</time></trkpt><trkpt lat="41.176034177876396" lon="19.99760314145567"><ele>235.0</ele><time>2026-04-29T08:50:24Z</time></trkpt><trkpt lat="41.176108840994054" lon="19.99754975439399"><ele>236.66666666666666</ele><time>2026-04-29T08:50:25Z</time></trkpt><trkpt lat="41.17618269452993" lon="19.9974966448405"><ele>238.33333333333331</ele><time>2026-04-29T08:50:26Z</time></trkpt><trkpt lat="41.176258204416385" lon="19.997410545591883"><ele>240.0</ele><time>2026-04-29T08:50:27Z</time></trkpt><trkpt lat="41.176323869009714" lon="19.997358385700196"><ele>241.66666666666669</ele><time>2026-04-29T08:50:28Z</time></trkpt><trkpt lat="41.17639588508129" lon="19.997305797591633"><ele>243.33333333333334</ele><time>2026-04-29T08:50:29Z</time></trkpt><trkpt lat="41.17646069749507" lon="19.997291109821806"><ele>245.0</ele><time>2026-04-29T08:50:30Z</time></trkpt><trkpt lat="41.17652498923625" lon="19.997273538831998"><ele>247.50000000000003</ele><time>2026-04-29T08:50:31Z</time></trkpt><trkpt lat="41.17659791838255" lon="19.997252867482437"><ele>250.0</ele><time>2026-04-29T08:50:32Z</time></trkpt><trkpt lat="41.17668113779336" lon="19.997224284216216"><ele>252.5</ele><time>2026-04-29T08:50:33Z</time></trkpt><trkpt lat="41.17675887694495" lon="19.99719943390204"><ele>255.0</ele><time>2026-04-29T08:50:34Z</time></trkpt><trkpt lat="41.176828014296035" lon="19.99717903570608"><ele>257.5</ele><time>2026-04-29T08:50:35Z</time></trkpt><trkpt lat="41.176909104283155" lon="19.997127266750937"><ele>260.0</ele><time>2026-04-29T08:50:36Z</time></trkpt><trkpt lat="41.17697392176988" lon="19.997052501984133"><ele>260.0</ele><time>2026-04-29T08:50:37Z</time></trkpt><trkpt lat="41.17705544784426" lon="19.997010160370106"><ele>260.0</ele><time>2026-04-29T08:50:38Z</time></trkpt><trkpt lat="41.17712988538405" lon="19.996970941586138"><ele>260.0</ele><time>2026-04-29T08:50:39Z</time></trkpt><trkpt lat="41.17720177834276" lon="19.996974680351414"><ele>260.0</ele><time>2026-04-29T08:50:40Z</time></trkpt><trkpt lat="41.177285006693175" lon="19.99696862919577"><ele>260.0</ele><time>2026-04-29T08:50:41Z</time></trkpt><trkpt lat="41.17735892480362" lon="19.99697029636178"><ele>260.0</ele><time>2026-04-29T08:50:42Z</time></trkpt><trkpt lat="41.17742684083158" lon="19.99697210745858"><ele>263.1666666666667</ele><time>2026-04-29T08:50:43Z</time></trkpt><trkpt lat="41.17750407663447" lon="19.996938225787154"><ele>266.33333333333337</ele><time>2026-04-29T08:50:44Z</time></trkpt><trkpt lat="41.1775661836211" lon="19.996917555230002"><ele>269.5</ele><time>2026-04-29T08:50:44.999Z</time></trkpt><trkpt lat="41.17761090225071" lon="19.99676634502735"><ele>272.6666666666667</ele><time>2026-04-29T08:50:45.999Z</time></trkpt><trkpt lat="41.17768233952414" lon="19.996700372730082"><ele>275.8333333333333</ele><time>2026-04-29T08:50:46.999Z</time></trkpt><trkpt lat="41.17775020162427" lon="19.996615860290543"><ele>279.0</ele><time>2026-04-29T08:50:47.999Z</time></trkpt><trkpt lat="41.1777918068773" lon="19.996467842298888"><ele>279.0</ele><time>2026-04-29T08:50:48.999Z</time></trkpt><trkpt lat="41.17780721048258" lon="19.996370089007925"><ele>279.0</ele><time>2026-04-29T08:50:49.999Z</time></trkpt><trkpt lat="41.177820916830896" lon="19.99628303709168"><ele>279.0</ele><time>2026-04-29T08:50:50.999Z</time></trkpt><trkpt lat="41.17773148831355" lon="19.996172214642765"><ele>279.0</ele><time>2026-04-29T08:50:51.999Z</time></trkpt><trkpt lat="41.17768772171167" lon="19.996082447583575"><ele>279.0</ele><time>2026-04-29T08:50:52.999Z</time></trkpt><trkpt lat="41.17764224463568" lon="19.995986770527026"><ele>279.0</ele><time>2026-04-29T08:50:53.999Z</time></trkpt><trkpt lat="41.17760687699469" lon="19.995883547503873"><ele>280.3333333333333</ele><time>2026-04-29T08:50:54.999Z</time></trkpt><trkpt lat="41.17756325936155" lon="19.99576215844284"><ele>281.6666666666667</ele><time>2026-04-29T08:50:55.999Z</time></trkpt><trkpt lat="41.177509912569356" lon="19.9956480904653"><ele>283.0</ele><time>2026-04-29T08:50:56.999Z</time></trkpt><trkpt lat="41.17742336603353" lon="19.995606950661415"><ele>284.33333333333337</ele><time>2026-04-29T08:50:57.999Z</time></trkpt><trkpt lat="41.17736634163697" lon="19.995545371310815"><ele>285.6666666666667</ele><time>2026-04-29T08:50:58.999Z</time></trkpt><trkpt lat="41.17733751838762" lon="19.995465197453047"><ele>287.0</ele><time>2026-04-29T08:50:59.999Z</time></trkpt><trkpt lat="41.17729435828918" lon="19.995363564866345"><ele>287.0</ele><time>2026-04-29T08:51:01.999Z</time></trkpt><trkpt lat="41.177388130363596" lon="19.99530952565915"><ele>287.0</ele><time>2026-04-29T08:51:03.999Z</time></trkpt><trkpt lat="41.177456527737256" lon="19.995361767106395"><ele>287.0</ele><time>2026-04-29T08:51:06.999Z</time></trkpt><trkpt lat="41.17753954069125" lon="19.99535280221543"><ele>287.0</ele><time>2026-04-29T08:51:08.999Z</time></trkpt><trkpt lat="41.17760388889827" lon="19.995382881122588"><ele>287.0</ele><time>2026-04-29T08:51:09.999Z</time></trkpt><trkpt lat="41.17766806553363" lon="19.995412880054893"><ele>287.0</ele><time>2026-04-29T08:51:10.999Z</time></trkpt><trkpt lat="41.17779139812373" lon="19.995322886595293"><ele>287.0</ele><time>2026-04-29T08:51:11.999Z</time></trkpt><trkpt lat="41.177862495797925" lon="19.995291215554914"><ele>287.0</ele><time>2026-04-29T08:51:12.999Z</time></trkpt><trkpt lat="41.1779396802603" lon="19.99528869221325"><ele>287.0</ele><time>2026-04-29T08:51:13.999Z</time></trkpt><trkpt lat="41.1780252669045" lon="19.995285894184804"><ele>287.0</ele><time>2026-04-29T08:51:14.999Z</time></trkpt><trkpt lat="41.17810730407048" lon="19.995272503513714"><ele>287.0</ele><time>2026-04-29T08:51:15.999Z</time></trkpt><trkpt lat="41.1781777851766" lon="19.995296356075137"><ele>287.0</ele><time>2026-04-29T08:51:16.999Z</time></trkpt><trkpt lat="41.1782451743524" lon="19.995310425291194"><ele>289.6</ele><time>2026-04-29T08:51:17.999Z</time></trkpt><trkpt lat="41.17830903596241" lon="19.9953237581759"><ele>292.2</ele><time>2026-04-29T08:51:18.999Z</time></trkpt><trkpt lat="41.17840694751772" lon="19.995265524625243"><ele>294.8</ele><time>2026-04-29T08:51:20.999Z</time></trkpt><trkpt lat="41.178511717047506" lon="19.99520412864137"><ele>297.4</ele><time>2026-04-29T08:51:22.999Z</time></trkpt><trkpt lat="41.17858245960228" lon="19.995141137083003"><ele>300.0</ele><time>2026-04-29T08:51:23.999Z</time></trkpt><trkpt lat="41.17865990644692" lon="19.995001746389985"><ele>300.0</ele><time>2026-04-29T08:51:25.999Z</time></trkpt><trkpt lat="41.178765520844905" lon="19.994954976271938"><ele>300.0</ele><time>2026-04-29T08:51:27.999Z</time></trkpt><trkpt lat="41.17887632862111" lon="19.994902953873535"><ele>300.0</ele><time>2026-04-29T08:51:29.999Z</time></trkpt><trkpt lat="41.17899795278017" lon="19.994874147922896"><ele>300.0</ele><time>2026-04-29T08:51:31.999Z</time></trkpt><trkpt lat="41.17911183231089" lon="19.994933603635456"><ele>303.5</ele><time>2026-04-29T08:51:33.999Z</time></trkpt><trkpt lat="41.1791715311811" lon="19.99496602851499"><ele>307.0</ele><time>2026-04-29T08:51:35Z</time></trkpt><trkpt lat="41.17924516977253" lon="19.995058644346088"><ele>310.5</ele><time>2026-04-29T08:51:37Z</time></trkpt><trkpt lat="41.17931513373651" lon="19.99519422706141"><ele>314.0</ele><time>2026-04-29T08:51:39Z</time></trkpt><trkpt lat="41.179360467643946" lon="19.995284793375607"><ele>317.5</ele><time>2026-04-29T08:51:40Z</time></trkpt><trkpt lat="41.17941649401079" lon="19.99535059622711"><ele>321.0</ele><time>2026-04-29T08:51:41Z</time></trkpt><trkpt lat="41.1795037365638" lon="19.99542906282782"><ele>323.8333333333333</ele><time>2026-04-29T08:51:43Z</time></trkpt><trkpt lat="41.17961591616655" lon="19.995459549208352"><ele>326.6666666666667</ele><time>2026-04-29T08:51:45Z</time></trkpt><trkpt lat="41.17969476715872" lon="19.995436820479185"><ele>329.5</ele><time>2026-04-29T08:51:46Z</time></trkpt><trkpt lat="41.179777663315214" lon="19.995418134605877"><ele>332.33333333333337</ele><time>2026-04-29T08:51:47Z</time></trkpt><trkpt lat="41.17984379173898" lon="19.995383625947078"><ele>335.1666666666667</ele><time>2026-04-29T08:51:48Z</time></trkpt><trkpt lat="41.179913102386266" lon="19.99536501865834"><ele>338.0</ele><time>2026-04-29T08:51:50Z</time></trkpt><trkpt lat="41.1799988454016" lon="19.995344467510282"><ele>338.0</ele><time>2026-04-29T08:51:52Z</time></trkpt><trkpt lat="41.18007608269773" lon="19.995434415120226"><ele>338.0</ele><time>2026-04-29T08:51:54Z</time></trkpt><trkpt lat="41.18012919045883" lon="19.995483841670364"><ele>338.0</ele><time>2026-04-29T08:51:55Z</time></trkpt><trkpt lat="41.180227890012986" lon="19.995542208909566"><ele>338.0</ele><time>2026-04-29T08:51:57Z</time></trkpt><trkpt lat="41.18033263489497" lon="19.995655440049532"><ele>338.0</ele><time>2026-04-29T08:51:59Z</time></trkpt><trkpt lat="41.180403677832" lon="19.995724044245037"><ele>338.0</ele><time>2026-04-29T08:52:00Z</time></trkpt><trkpt lat="41.18048320283069" lon="19.995761222677455"><ele>338.0</ele><time>2026-04-29T08:52:01Z</time></trkpt><trkpt lat="41.180562984524016" lon="19.995811129014825"><ele>338.0</ele><time>2026-04-29T08:52:02Z</time></trkpt><trkpt lat="41.18063138500136" lon="19.995863498587223"><ele>338.0</ele><time>2026-04-29T08:52:03Z</time></trkpt><trkpt lat="41.180693911067806" lon="19.99589672359277"><ele>338.0</ele><time>2026-04-29T08:52:04Z</time></trkpt><trkpt lat="41.18076142375259" lon="19.995917854806596"><ele>338.0</ele><time>2026-04-29T08:52:05Z</time></trkpt><trkpt lat="41.18081550364942" lon="19.995972553402744"><ele>339.0</ele><time>2026-04-29T08:52:06Z</time></trkpt><trkpt lat="41.18086547979054" lon="19.99604353750365"><ele>340.0</ele><time>2026-04-29T08:52:08Z</time></trkpt><trkpt lat="41.18085183703017" lon="19.996133971026868"><ele>341.0</ele><time>2026-04-29T08:52:11Z</time></trkpt><trkpt lat="41.180791381198596" lon="19.996159074580593"><ele>342.0</ele><time>2026-04-29T08:52:13Z</time></trkpt><trkpt lat="41.18072602392041" lon="19.996143271580294"><ele>343.0</ele><time>2026-04-29T08:52:15Z</time></trkpt><trkpt lat="41.180584939231224" lon="19.99613561366791"><ele>344.0</ele><time>2026-04-29T08:52:17Z</time></trkpt><trkpt lat="41.18050323083491" lon="19.996100009111696"><ele>344.0</ele><time>2026-04-29T08:52:18Z</time></trkpt><trkpt lat="41.180409104632304" lon="19.996079059354432"><ele>344.0</ele><time>2026-04-29T08:52:19Z</time></trkpt><trkpt lat="41.18032338795816" lon="19.996040246606498"><ele>344.0</ele><time>2026-04-29T08:52:21Z</time></trkpt><trkpt lat="41.18025870918743" lon="19.996105640907906"><ele>344.0</ele><time>2026-04-29T08:52:23Z</time></trkpt><trkpt lat="41.18026405938759" lon="19.996215545888816"><ele>344.0</ele><time>2026-04-29T08:52:25Z</time></trkpt><trkpt lat="41.18031481788913" lon="19.99633976901414"><ele>344.0</ele><time>2026-04-29T08:52:27Z</time></trkpt><trkpt lat="41.18034855707441" lon="19.99645582908871"><ele>344.0</ele><time>2026-04-29T08:52:28Z</time></trkpt><trkpt lat="41.18040894542824" lon="19.996535217374905"><ele>344.0</ele><time>2026-04-29T08:52:29Z</time></trkpt><trkpt lat="41.18046879985484" lon="19.996615448270177"><ele>344.0</ele><time>2026-04-29T08:52:30Z</time></trkpt><trkpt lat="41.180531112260326" lon="19.99669819486593"><ele>344.0</ele><time>2026-04-29T08:52:31Z</time></trkpt><trkpt lat="41.18061391975287" lon="19.99673686032428"><ele>344.0</ele><time>2026-04-29T08:52:32Z</time></trkpt><trkpt lat="41.18067935737272" lon="19.996792885810265"><ele>345.83333333333337</ele><time>2026-04-29T08:52:33Z</time></trkpt><trkpt lat="41.18076099542601" lon="19.99683500311107"><ele>347.6666666666667</ele><time>2026-04-29T08:52:34Z</time></trkpt><trkpt lat="41.18085014628248" lon="19.996894928478124"><ele>349.5</ele><time>2026-04-29T08:52:35Z</time></trkpt><trkpt lat="41.180929576496304" lon="19.99693506647843"><ele>351.3333333333333</ele><time>2026-04-29T08:52:36Z</time></trkpt><trkpt lat="41.1810090197602" lon="19.996976140338557"><ele>353.16666666666663</ele><time>2026-04-29T08:52:37Z</time></trkpt><trkpt lat="41.1810725418524" lon="19.997010732475765"><ele>355.0</ele><time>2026-04-29T08:52:38Z</time></trkpt><trkpt lat="41.18116141027023" lon="19.997072937968145"><ele>355.0</ele><time>2026-04-29T08:52:40Z</time></trkpt><trkpt lat="41.18122734134064" lon="19.997100709478307"><ele>355.0</ele><time>2026-04-29T08:52:41Z</time></trkpt><trkpt lat="41.18129801827359" lon="19.99714501622894"><ele>355.0</ele><time>2026-04-29T08:52:42Z</time></trkpt><trkpt lat="41.18136424199809" lon="19.997189348178164"><ele>355.0</ele><time>2026-04-29T08:52:43Z</time></trkpt><trkpt lat="41.181429004577" lon="19.997191864228416"><ele>355.0</ele><time>2026-04-29T08:52:44Z</time></trkpt><trkpt lat="41.181498012079835" lon="19.99720997078186"><ele>355.0</ele><time>2026-04-29T08:52:45Z</time></trkpt><trkpt lat="41.18161735191005" lon="19.99724449453113"><ele>357.66666666666663</ele><time>2026-04-29T08:52:47Z</time></trkpt><trkpt lat="41.18169223581106" lon="19.997302121251536"><ele>360.3333333333333</ele><time>2026-04-29T08:52:49Z</time></trkpt><trkpt lat="41.18171735153889" lon="19.9973859210381"><ele>363.0</ele><time>2026-04-29T08:52:50Z</time></trkpt><trkpt lat="41.1817865086951" lon="19.997521544945336"><ele>365.6666666666667</ele><time>2026-04-29T08:52:51.999Z</time></trkpt><trkpt lat="41.18180545314037" lon="19.997606481998577"><ele>368.33333333333337</ele><time>2026-04-29T08:52:52.999Z</time></trkpt><trkpt lat="41.18182397503438" lon="19.997691094512025"><ele>371.0</ele><time>2026-04-29T08:52:53.999Z</time></trkpt><trkpt lat="41.18187522441263" lon="19.99777295678812"><ele>370.5</ele><time>2026-04-29T08:52:54.999Z</time></trkpt><trkpt lat="41.18189331071704" lon="19.99786737386095"><ele>370.0</ele><time>2026-04-29T08:52:55.999Z</time></trkpt><trkpt lat="41.181921257133816" lon="19.997969660336683"><ele>369.5</ele><time>2026-04-29T08:52:56.999Z</time></trkpt><trkpt lat="41.18194850908525" lon="19.998076123524275"><ele>369.0</ele><time>2026-04-29T08:52:57.999Z</time></trkpt><trkpt lat="41.181972778323455" lon="19.99819043077961"><ele>368.5</ele><time>2026-04-29T08:52:58.999Z</time></trkpt><trkpt lat="41.18202499348767" lon="19.99828224505352"><ele>368.0</ele><time>2026-04-29T08:52:59.999Z</time></trkpt><trkpt lat="41.18207346956611" lon="19.998359859706234"><ele>368.0</ele><time>2026-04-29T08:53:00.999Z</time></trkpt><trkpt lat="41.18212105418617" lon="19.998440342052213"><ele>368.0</ele><time>2026-04-29T08:53:01.999Z</time></trkpt><trkpt lat="41.182171148899386" lon="19.998531876474328"><ele>368.0</ele><time>2026-04-29T08:53:02.999Z</time></trkpt><trkpt lat="41.18221157847035" lon="19.998638906935966"><ele>368.0</ele><time>2026-04-29T08:53:03.999Z</time></trkpt><trkpt lat="41.18226467124923" lon="19.99873713215543"><ele>368.0</ele><time>2026-04-29T08:53:04.999Z</time></trkpt><trkpt lat="41.18233409456102" lon="19.998839913842875"><ele>368.0</ele><time>2026-04-29T08:53:05.999Z</time></trkpt><trkpt lat="41.18240133686574" lon="19.99890299430015"><ele>370.1666666666667</ele><time>2026-04-29T08:53:07Z</time></trkpt><trkpt lat="41.182463749107825" lon="19.998961226709035"><ele>372.33333333333337</ele><time>2026-04-29T08:53:08Z</time></trkpt><trkpt lat="41.182528888165045" lon="19.999016869053357"><ele>374.5</ele><time>2026-04-29T08:53:09Z</time></trkpt><trkpt lat="41.1826294918682" lon="19.999096464738994"><ele>376.6666666666667</ele><time>2026-04-29T08:53:11Z</time></trkpt><trkpt lat="41.18271645670584" lon="19.999092710877388"><ele>378.8333333333333</ele><time>2026-04-29T08:53:12Z</time></trkpt><trkpt lat="41.182786173904226" lon="19.999095802224918"><ele>381.0</ele><time>2026-04-29T08:53:13Z</time></trkpt><trkpt lat="41.18286086661043" lon="19.999077676887477"><ele>381.0</ele><time>2026-04-29T08:53:14Z</time></trkpt><trkpt lat="41.182924473548766" lon="19.999062227131482"><ele>381.0</ele><time>2026-04-29T08:53:15Z</time></trkpt><trkpt lat="41.18299003523152" lon="19.99904224585001"><ele>381.0</ele><time>2026-04-29T08:53:16Z</time></trkpt><trkpt lat="41.183061321680505" lon="19.999018958505893"><ele>381.0</ele><time>2026-04-29T08:53:17Z</time></trkpt><trkpt lat="41.183133658154226" lon="19.998995328079534"><ele>381.0</ele><time>2026-04-29T08:53:18Z</time></trkpt><trkpt lat="41.18320464241528" lon="19.999021968554192"><ele>381.0</ele><time>2026-04-29T08:53:19Z</time></trkpt><trkpt lat="41.18328545122527" lon="19.999030346050212"><ele>381.0</ele><time>2026-04-29T08:53:20Z</time></trkpt><trkpt lat="41.18335857445471" lon="19.999028947111764"><ele>383.6666666666667</ele><time>2026-04-29T08:53:21Z</time></trkpt><trkpt lat="41.18342729446745" lon="19.999007424690383"><ele>386.33333333333337</ele><time>2026-04-29T08:53:22Z</time></trkpt><trkpt lat="41.18349496363003" lon="19.998911101435112"><ele>389.0</ele><time>2026-04-29T08:53:23Z</time></trkpt><trkpt lat="41.18355807394278" lon="19.99882739377475"><ele>391.6666666666667</ele><time>2026-04-29T08:53:24Z</time></trkpt><trkpt lat="41.183610571066524" lon="19.99874734476042"><ele>394.33333333333337</ele><time>2026-04-29T08:53:25Z</time></trkpt><trkpt lat="41.18366174752694" lon="19.998669417048564"><ele>397.0</ele><time>2026-04-29T08:53:26Z</time></trkpt><trkpt lat="41.18373648874369" lon="19.998625694381207"><ele>397.0</ele><time>2026-04-29T08:53:28Z</time></trkpt><trkpt lat="41.18382127348569" lon="19.998668377233315"><ele>397.0</ele><time>2026-04-29T08:53:30Z</time></trkpt><trkpt lat="41.1839671097406" lon="19.998758589528308"><ele>397.0</ele><time>2026-04-29T08:53:32Z</time></trkpt><trkpt lat="41.18406820733494" lon="19.998809804434412"><ele>397.0</ele><time>2026-04-29T08:53:33Z</time></trkpt><trkpt lat="41.184161141248396" lon="19.998882159191087"><ele>397.6</ele><time>2026-04-29T08:53:34Z</time></trkpt><trkpt lat="41.184265864013014" lon="19.998948182228077"><ele>398.20000000000005</ele><time>2026-04-29T08:53:35Z</time></trkpt><trkpt lat="41.18436447293054" lon="19.99898564042511"><ele>398.8</ele><time>2026-04-29T08:53:36Z</time></trkpt><trkpt lat="41.184439029570896" lon="19.99903962711407"><ele>399.4</ele><time>2026-04-29T08:53:37Z</time></trkpt><trkpt lat="41.184514356835" lon="19.9990982596419"><ele>400.0</ele><time>2026-04-29T08:53:38Z</time></trkpt><trkpt lat="41.18459875182608" lon="19.999158478435643"><ele>398.4</ele><time>2026-04-29T08:53:39Z</time></trkpt><trkpt lat="41.18468902174034" lon="19.999239995738275"><ele>396.8</ele><time>2026-04-29T08:53:40Z</time></trkpt><trkpt lat="41.18478161400766" lon="19.999298149487014"><ele>395.20000000000005</ele><time>2026-04-29T08:53:41Z</time></trkpt><trkpt lat="41.18488354325899" lon="19.99935477504541"><ele>393.6</ele><time>2026-04-29T08:53:42Z</time></trkpt><trkpt lat="41.18497136063915" lon="19.999376780567076"><ele>392.0</ele><time>2026-04-29T08:53:43Z</time></trkpt><trkpt lat="41.1850619956358" lon="19.999367550397658"><ele>392.0</ele><time>2026-04-29T08:53:44Z</time></trkpt><trkpt lat="41.18514678293071" lon="19.99935503050696"><ele>392.0</ele><time>2026-04-29T08:53:45Z</time></trkpt><trkpt lat="41.18523540808165" lon="19.999341170723056"><ele>392.0</ele><time>2026-04-29T08:53:46Z</time></trkpt><trkpt lat="41.185332675310676" lon="19.999325991064328"><ele>392.0</ele><time>2026-04-29T08:53:47Z</time></trkpt><trkpt lat="41.185428502900436" lon="19.999310388767302"><ele>392.0</ele><time>2026-04-29T08:53:48Z</time></trkpt><trkpt lat="41.18551312622254" lon="19.99929694562482"><ele>392.0</ele><time>2026-04-29T08:53:49Z</time></trkpt><trkpt lat="41.18562423736235" lon="19.999286944152637"><ele>392.0</ele><time>2026-04-29T08:53:50Z</time></trkpt><trkpt lat="41.185732042973264" lon="19.999246490915667"><ele>392.0</ele><time>2026-04-29T08:53:51Z</time></trkpt><trkpt lat="41.18583051669936" lon="19.999230449029124"><ele>392.0</ele><time>2026-04-29T08:53:52Z</time></trkpt><trkpt lat="41.185929337172304" lon="19.999216410222875"><ele>392.0</ele><time>2026-04-29T08:53:53Z</time></trkpt><trkpt lat="41.18603044729038" lon="19.999215997656062"><ele>389.40000000000003</ele><time>2026-04-29T08:53:54Z</time></trkpt><trkpt lat="41.18612309909757" lon="19.999199272148452"><ele>386.8</ele><time>2026-04-29T08:53:55Z</time></trkpt><trkpt lat="41.186206065285226" lon="19.999222102127188"><ele>384.2</ele><time>2026-04-29T08:53:56Z</time></trkpt><trkpt lat="41.186296962818126" lon="19.999244135887313"><ele>381.6</ele><time>2026-04-29T08:53:57Z</time></trkpt><trkpt lat="41.18639771605309" lon="19.999248961654757"><ele>379.0</ele><time>2026-04-29T08:53:58Z</time></trkpt><trkpt lat="41.186502636123635" lon="19.999288456612593"><ele>378.79999999999995</ele><time>2026-04-29T08:53:59Z</time></trkpt><trkpt lat="41.186599741992445" lon="19.999328322237645"><ele>378.59999999999997</ele><time>2026-04-29T08:54:00Z</time></trkpt><trkpt lat="41.18669633890939" lon="19.99936441747081"><ele>378.4</ele><time>2026-04-29T08:54:01Z</time></trkpt><trkpt lat="41.18679894017662" lon="19.999409152207214"><ele>378.2</ele><time>2026-04-29T08:54:02Z</time></trkpt><trkpt lat="41.186908658394174" lon="19.99946230496854"><ele>378.0</ele><time>2026-04-29T08:54:03Z</time></trkpt><trkpt lat="41.18700307203256" lon="19.999507162646516"><ele>378.0</ele><time>2026-04-29T08:54:04Z</time></trkpt><trkpt lat="41.18709294656506" lon="19.999549361967514"><ele>378.0</ele><time>2026-04-29T08:54:05Z</time></trkpt><trkpt lat="41.18718493874988" lon="19.99957693395399"><ele>378.0</ele><time>2026-04-29T08:54:06Z</time></trkpt><trkpt lat="41.187265687056495" lon="19.999613564880054"><ele>378.0</ele><time>2026-04-29T08:54:07Z</time></trkpt><trkpt lat="41.18734148075057" lon="19.99964793056775"><ele>378.0</ele><time>2026-04-29T08:54:08Z</time></trkpt><trkpt lat="41.187430942519676" lon="19.999686548639573"><ele>378.0</ele><time>2026-04-29T08:54:09Z</time></trkpt><trkpt lat="41.18753700199299" lon="19.9997107009446"><ele>380.0</ele><time>2026-04-29T08:54:10Z</time></trkpt><trkpt lat="41.18763753238095" lon="19.999635136640254"><ele>382.0</ele><time>2026-04-29T08:54:11Z</time></trkpt><trkpt lat="41.18771373274002" lon="19.999591153412712"><ele>384.0</ele><time>2026-04-29T08:54:12Z</time></trkpt><trkpt lat="41.187783175197886" lon="19.999522705857665"><ele>386.0</ele><time>2026-04-29T08:54:13Z</time></trkpt><trkpt lat="41.187866022280694" lon="19.999486921858374"><ele>388.0</ele><time>2026-04-29T08:54:14Z</time></trkpt><trkpt lat="41.18794716471609" lon="19.999432675105812"><ele>388.0</ele><time>2026-04-29T08:54:15Z</time></trkpt><trkpt lat="41.188029333918514" lon="19.99937834250236"><ele>388.0</ele><time>2026-04-29T08:54:16Z</time></trkpt><trkpt lat="41.18811990631834" lon="19.999297064055888"><ele>388.0</ele><time>2026-04-29T08:54:17Z</time></trkpt><trkpt lat="41.18822208290534" lon="19.999231669485734"><ele>388.0</ele><time>2026-04-29T08:54:18Z</time></trkpt><trkpt lat="41.1883024241113" lon="19.999159393679193"><ele>388.0</ele><time>2026-04-29T08:54:19Z</time></trkpt><trkpt lat="41.18839077102685" lon="19.999096898858248"><ele>387.79999999999995</ele><time>2026-04-29T08:54:20Z</time></trkpt><trkpt lat="41.18846308053653" lon="19.998995874582636"><ele>387.6</ele><time>2026-04-29T08:54:21Z</time></trkpt><trkpt lat="41.188539232496474" lon="19.998911514259284"><ele>387.4</ele><time>2026-04-29T08:54:22Z</time></trkpt><trkpt lat="41.18861784169589" lon="19.99883728265536"><ele>387.20000000000005</ele><time>2026-04-29T08:54:23Z</time></trkpt><trkpt lat="41.188709032324496" lon="19.998758850376365"><ele>387.0</ele><time>2026-04-29T08:54:24Z</time></trkpt><trkpt lat="41.18878473276034" lon="19.998680842610636"><ele>387.0</ele><time>2026-04-29T08:54:25Z</time></trkpt><trkpt lat="41.18885331703206" lon="19.99861813987436"><ele>387.0</ele><time>2026-04-29T08:54:26Z</time></trkpt><trkpt lat="41.18893149597386" lon="19.99854555679585"><ele>387.0</ele><time>2026-04-29T08:54:27Z</time></trkpt><trkpt lat="41.18899893976104" lon="19.998447015239037"><ele>387.0</ele><time>2026-04-29T08:54:28Z</time></trkpt><trkpt lat="41.18907987400312" lon="19.998361504395433"><ele>387.0</ele><time>2026-04-29T08:54:29Z</time></trkpt><trkpt lat="41.18916018646879" lon="19.998274274576676"><ele>387.20000000000005</ele><time>2026-04-29T08:54:30Z</time></trkpt><trkpt lat="41.18923266403763" lon="19.99819060592081"><ele>387.4</ele><time>2026-04-29T08:54:31Z</time></trkpt><trkpt lat="41.18930245226573" lon="19.99810557298022"><ele>387.6</ele><time>2026-04-29T08:54:32Z</time></trkpt><trkpt lat="41.189381473814294" lon="19.99804854825981"><ele>387.79999999999995</ele><time>2026-04-29T08:54:33Z</time></trkpt><trkpt lat="41.189451406504965" lon="19.997976567264956"><ele>388.0</ele><time>2026-04-29T08:54:34Z</time></trkpt><trkpt lat="41.18952983314023" lon="19.997907208084154"><ele>388.0</ele><time>2026-04-29T08:54:35Z</time></trkpt><trkpt lat="41.18961238084739" lon="19.997833377799783"><ele>388.0</ele><time>2026-04-29T08:54:36Z</time></trkpt><trkpt lat="41.189680412055615" lon="19.997767511240397"><ele>388.0</ele><time>2026-04-29T08:54:37Z</time></trkpt><trkpt lat="41.18976492202223" lon="19.997763103893014"><ele>388.0</ele><time>2026-04-29T08:54:38Z</time></trkpt><trkpt lat="41.189854327044415" lon="19.99775865214615"><ele>388.0</ele><time>2026-04-29T08:54:39Z</time></trkpt><trkpt lat="41.18995229426649" lon="19.997754628012704"><ele>386.0</ele><time>2026-04-29T08:54:40Z</time></trkpt><trkpt lat="41.19005382730887" lon="19.99772860948838"><ele>384.0</ele><time>2026-04-29T08:54:41Z</time></trkpt><trkpt lat="41.19014224367375" lon="19.997734955558844"><ele>382.0</ele><time>2026-04-29T08:54:42Z</time></trkpt><trkpt lat="41.19023655976362" lon="19.997704680153074"><ele>380.0</ele><time>2026-04-29T08:54:43Z</time></trkpt><trkpt lat="41.190340063827406" lon="19.997692373271015"><ele>378.0</ele><time>2026-04-29T08:54:44Z</time></trkpt><trkpt lat="41.1904385446347" lon="19.9976647943909"><ele>378.0</ele><time>2026-04-29T08:54:45Z</time></trkpt><trkpt lat="41.19052506101289" lon="19.997631602290447"><ele>378.0</ele><time>2026-04-29T08:54:46Z</time></trkpt><trkpt lat="41.19060751186271" lon="19.99759195703727"><ele>378.0</ele><time>2026-04-29T08:54:47Z</time></trkpt><trkpt lat="41.190685376473986" lon="19.99757306227962"><ele>378.0</ele><time>2026-04-29T08:54:48Z</time></trkpt><trkpt lat="41.190749861285866" lon="19.997546190556026"><ele>378.0</ele><time>2026-04-29T08:54:49Z</time></trkpt><trkpt lat="41.19082651189172" lon="19.997481375302282"><ele>378.0</ele><time>2026-04-29T08:54:50Z</time></trkpt><trkpt lat="41.19091217954856" lon="19.99743344588608"><ele>380.2</ele><time>2026-04-29T08:54:51Z</time></trkpt><trkpt lat="41.19100338409437" lon="19.99741585982089"><ele>382.4</ele><time>2026-04-29T08:54:52Z</time></trkpt><trkpt lat="41.191097169625" lon="19.99739685533093"><ele>384.59999999999997</ele><time>2026-04-29T08:54:53Z</time></trkpt><trkpt lat="41.19119946987991" lon="19.99737957252074"><ele>386.79999999999995</ele><time>2026-04-29T08:54:54Z</time></trkpt><trkpt lat="41.191296314428854" lon="19.997362653066876"><ele>389.0</ele><time>2026-04-29T08:54:55Z</time></trkpt><trkpt lat="41.19138811151893" lon="19.997364653165235"><ele>388.99999999999994</ele><time>2026-04-29T08:54:56Z</time></trkpt><trkpt lat="41.19148353716414" lon="19.997365389394147"><ele>389.0</ele><time>2026-04-29T08:54:57Z</time></trkpt><trkpt lat="41.1915787476064" lon="19.997362850715056"><ele>389.0</ele><time>2026-04-29T08:54:58Z</time></trkpt><trkpt lat="41.19165134789278" lon="19.997342200626072"><ele>389.0</ele><time>2026-04-29T08:54:59Z</time></trkpt><trkpt lat="41.1917220257914" lon="19.99734402352344"><ele>388.99999999999994</ele><time>2026-04-29T08:55:00Z</time></trkpt><trkpt lat="41.19179915321395" lon="19.99735402016732"><ele>389.0</ele><time>2026-04-29T08:55:01Z</time></trkpt><trkpt lat="41.19187601781663" lon="19.997350788810827"><ele>389.16666666666663</ele><time>2026-04-29T08:55:02Z</time></trkpt><trkpt lat="41.191938499214636" lon="19.99740412262571"><ele>389.3333333333333</ele><time>2026-04-29T08:55:03Z</time></trkpt><trkpt lat="41.19202100344059" lon="19.99743513538967"><ele>389.5</ele><time>2026-04-29T08:55:04Z</time></trkpt><trkpt lat="41.19210675044446" lon="19.99746299445154"><ele>389.66666666666663</ele><time>2026-04-29T08:55:05Z</time></trkpt><trkpt lat="41.192197345832014" lon="19.997509843862662"><ele>389.8333333333333</ele><time>2026-04-29T08:55:06Z</time></trkpt><trkpt lat="41.19228007659258" lon="19.99754951767849"><ele>390.0</ele><time>2026-04-29T08:55:07Z</time></trkpt><trkpt lat="41.19237056179675" lon="19.99756672347594"><ele>388.5</ele><time>2026-04-29T08:55:08Z</time></trkpt><trkpt lat="41.19244835652431" lon="19.997593891417736"><ele>387.0</ele><time>2026-04-29T08:55:09Z</time></trkpt><trkpt lat="41.19252033631619" lon="19.99760363910122"><ele>385.5</ele><time>2026-04-29T08:55:10Z</time></trkpt><trkpt lat="41.192592402107394" lon="19.99763674648586"><ele>384.0</ele><time>2026-04-29T08:55:11Z</time></trkpt><trkpt lat="41.192676666391684" lon="19.997658827335595"><ele>382.5</ele><time>2026-04-29T08:55:12Z</time></trkpt><trkpt lat="41.19276977295429" lon="19.997682592792533"><ele>381.0</ele><time>2026-04-29T08:55:13Z</time></trkpt><trkpt lat="41.1928570822674" lon="19.997719281008408"><ele>381.0</ele><time>2026-04-29T08:55:14Z</time></trkpt><trkpt lat="41.192945199100485" lon="19.997737504435154"><ele>381.0</ele><time>2026-04-29T08:55:15Z</time></trkpt><trkpt lat="41.19303435389972" lon="19.997776510729754"><ele>381.0</ele><time>2026-04-29T08:55:16Z</time></trkpt><trkpt lat="41.19311659591352" lon="19.997802271460362"><ele>381.0</ele><time>2026-04-29T08:55:17Z</time></trkpt><trkpt lat="41.19319877289693" lon="19.99782801183915"><ele>381.0</ele><time>2026-04-29T08:55:18Z</time></trkpt><trkpt lat="41.193309084916734" lon="19.997820849280174"><ele>379.6666666666667</ele><time>2026-04-29T08:55:19Z</time></trkpt><trkpt lat="41.193395476049474" lon="19.99779476470053"><ele>378.3333333333333</ele><time>2026-04-29T08:55:20Z</time></trkpt><trkpt lat="41.19348422908597" lon="19.997762090320066"><ele>377.0</ele><time>2026-04-29T08:55:21Z</time></trkpt><trkpt lat="41.19357714181225" lon="19.99774977667721"><ele>375.66666666666663</ele><time>2026-04-29T08:55:22Z</time></trkpt><trkpt lat="41.19366515933266" lon="19.997730477386707"><ele>374.3333333333333</ele><time>2026-04-29T08:55:23Z</time></trkpt><trkpt lat="41.19373142065696" lon="19.997699185433415"><ele>373.0</ele><time>2026-04-29T08:55:24Z</time></trkpt><trkpt lat="41.193797235776906" lon="19.99768762804464"><ele>373.0</ele><time>2026-04-29T08:55:25Z</time></trkpt><trkpt lat="41.193913418822255" lon="19.99765600603421"><ele>373.0</ele><time>2026-04-29T08:55:27Z</time></trkpt><trkpt lat="41.19404001757463" lon="19.997601147709744"><ele>373.0</ele><time>2026-04-29T08:55:29Z</time></trkpt><trkpt lat="41.19411199562414" lon="19.99756562048107"><ele>373.0</ele><time>2026-04-29T08:55:30Z</time></trkpt><trkpt lat="41.194179345540185" lon="19.997537626951516"><ele>373.0</ele><time>2026-04-29T08:55:31Z</time></trkpt><trkpt lat="41.194289174777175" lon="19.997459116738824"><ele>375.66666666666663</ele><time>2026-04-29T08:55:33Z</time></trkpt><trkpt lat="41.194310065364746" lon="19.997370286168632"><ele>378.3333333333333</ele><time>2026-04-29T08:55:34Z</time></trkpt><trkpt lat="41.194357060801686" lon="19.997305197316503"><ele>381.0</ele><time>2026-04-29T08:55:35Z</time></trkpt><trkpt lat="41.19437197223934" lon="19.997170187109585"><ele>383.66666666666663</ele><time>2026-04-29T08:55:37Z</time></trkpt><trkpt lat="41.19430266003432" lon="19.997043134703862"><ele>386.3333333333333</ele><time>2026-04-29T08:55:39Z</time></trkpt><trkpt lat="41.194244204623665" lon="19.996975933593234"><ele>389.0</ele><time>2026-04-29T08:55:40Z</time></trkpt><trkpt lat="41.19420906470385" lon="19.99689895200879"><ele>388.99999999999994</ele><time>2026-04-29T08:55:41Z</time></trkpt><trkpt lat="41.19422053308082" lon="19.996807562214535"><ele>389.0</ele><time>2026-04-29T08:55:42Z</time></trkpt><trkpt lat="41.194200552335765" lon="19.996708263440123"><ele>389.0</ele><time>2026-04-29T08:55:43Z</time></trkpt><trkpt lat="41.19420540301291" lon="19.996599020873475"><ele>389.0</ele><time>2026-04-29T08:55:44Z</time></trkpt><trkpt lat="41.194189924992266" lon="19.996500692077195"><ele>388.99999999999994</ele><time>2026-04-29T08:55:45Z</time></trkpt><trkpt lat="41.19414885526315" lon="19.99640448167708"><ele>389.0</ele><time>2026-04-29T08:55:46Z</time></trkpt><trkpt lat="41.1940943434134" lon="19.996310156539504"><ele>388.8333333333333</ele><time>2026-04-29T08:55:47Z</time></trkpt><trkpt lat="41.194037047166645" lon="19.99622514907353"><ele>388.66666666666663</ele><time>2026-04-29T08:55:48Z</time></trkpt><trkpt lat="41.19398256811827" lon="19.99615526952193"><ele>388.5</ele><time>2026-04-29T08:55:49Z</time></trkpt><trkpt lat="41.19392908044389" lon="19.996095782767412"><ele>388.33333333333337</ele><time>2026-04-29T08:55:50Z</time></trkpt><trkpt lat="41.19388079356019" lon="19.996041749567517"><ele>388.1666666666667</ele><time>2026-04-29T08:55:51Z</time></trkpt><trkpt lat="41.19382367467611" lon="19.9959142342389"><ele>388.0</ele><time>2026-04-29T08:55:53Z</time></trkpt><trkpt lat="41.19382621217799" lon="19.995828826655917"><ele>382.4</ele><time>2026-04-29T08:55:54Z</time></trkpt><trkpt lat="41.193822239638656" lon="19.9956893884448"><ele>376.79999999999995</ele><time>2026-04-29T08:55:56Z</time></trkpt><trkpt lat="41.193813165528375" lon="19.995525063439985"><ele>371.2</ele><time>2026-04-29T08:55:58Z</time></trkpt><trkpt lat="41.193809844399205" lon="19.99538138077258"><ele>365.6</ele><time>2026-04-29T08:56:00Z</time></trkpt><trkpt lat="41.19377072724967" lon="19.99525461032905"><ele>360.0</ele><time>2026-04-29T08:56:02Z</time></trkpt><trkpt lat="41.19371316009296" lon="19.995155607465634"><ele>360.0</ele><time>2026-04-29T08:56:04Z</time></trkpt><trkpt lat="41.193652988081375" lon="19.99506624436388"><ele>360.0</ele><time>2026-04-29T08:56:06Z</time></trkpt><trkpt lat="41.193655981376125" lon="19.9949478278313"><ele>360.0</ele><time>2026-04-29T08:56:08Z</time></trkpt><trkpt lat="41.19370666135344" lon="19.99488051589631"><ele>360.0</ele><time>2026-04-29T08:56:10Z</time></trkpt><trkpt lat="41.19376788705923" lon="19.994901153853803"><ele>360.0</ele><time>2026-04-29T08:56:12Z</time></trkpt><trkpt lat="41.19385184972638" lon="19.994921670602665"><ele>360.0</ele><time>2026-04-29T08:56:14Z</time></trkpt><trkpt lat="41.193955723419535" lon="19.99495782908904"><ele>363.1666666666667</ele><time>2026-04-29T08:56:16Z</time></trkpt><trkpt lat="41.19406594597442" lon="19.99490764663067"><ele>366.3333333333333</ele><time>2026-04-29T08:56:18Z</time></trkpt><trkpt lat="41.19407402807711" lon="19.99480001248571"><ele>369.5</ele><time>2026-04-29T08:56:19Z</time></trkpt><trkpt lat="41.194082934246346" lon="19.99469405279247"><ele>372.66666666666663</ele><time>2026-04-29T08:56:20Z</time></trkpt><trkpt lat="41.19406676559491" lon="19.994585184758776"><ele>375.8333333333333</ele><time>2026-04-29T08:56:21Z</time></trkpt><trkpt lat="41.19407086827408" lon="19.99447873340613"><ele>379.0</ele><time>2026-04-29T08:56:22Z</time></trkpt><trkpt lat="41.19406993985022" lon="19.994378374323286"><ele>379.0</ele><time>2026-04-29T08:56:23Z</time></trkpt><trkpt lat="41.19405363754904" lon="19.994271598471908"><ele>379.0</ele><time>2026-04-29T08:56:24Z</time></trkpt><trkpt lat="41.19405517490295" lon="19.994177063505006"><ele>379.0</ele><time>2026-04-29T08:56:25Z</time></trkpt><trkpt lat="41.194057204762956" lon="19.994077796357203"><ele>379.0</ele><time>2026-04-29T08:56:26Z</time></trkpt><trkpt lat="41.19404716159522" lon="19.993970282321182"><ele>379.0</ele><time>2026-04-29T08:56:27Z</time></trkpt><trkpt lat="41.19404145448656" lon="19.993817633270286"><ele>379.0</ele><time>2026-04-29T08:56:29Z</time></trkpt><trkpt lat="41.19411116065089" lon="19.99374618471679"><ele>377.3333333333333</ele><time>2026-04-29T08:56:30Z</time></trkpt><trkpt lat="41.194177353324434" lon="19.99370416659137"><ele>375.66666666666663</ele><time>2026-04-29T08:56:31Z</time></trkpt><trkpt lat="41.19423668802229" lon="19.993613129106418"><ele>374.0</ele><time>2026-04-29T08:56:32Z</time></trkpt><trkpt lat="41.19427835865527" lon="19.99354935067404"><ele>372.3333333333333</ele><time>2026-04-29T08:56:33Z</time></trkpt><trkpt lat="41.19435304850735" lon="19.99344018119624"><ele>370.6666666666667</ele><time>2026-04-29T08:56:35Z</time></trkpt><trkpt lat="41.194338420286435" lon="19.993357640368316"><ele>369.0</ele><time>2026-04-29T08:56:36Z</time></trkpt><trkpt lat="41.194288222676356" lon="19.993263263806096"><ele>369.0</ele><time>2026-04-29T08:56:38Z</time></trkpt><trkpt lat="41.194193926708024" lon="19.99329244855047"><ele>369.0</ele><time>2026-04-29T08:56:40Z</time></trkpt><trkpt lat="41.19413128481842" lon="19.993390873969968"><ele>369.0</ele><time>2026-04-29T08:56:42Z</time></trkpt><trkpt lat="41.19407679601455" lon="19.993435600562776"><ele>369.0</ele><time>2026-04-29T08:56:43Z</time></trkpt><trkpt lat="41.19401423039869" lon="19.993527391820262"><ele>369.0</ele><time>2026-04-29T08:56:45Z</time></trkpt><trkpt lat="41.193919776901005" lon="19.993522027687536"><ele>369.0</ele><time>2026-04-29T08:56:47Z</time></trkpt><trkpt lat="41.19389398446674" lon="19.993390525825088"><ele>367.0</ele><time>2026-04-29T08:56:49Z</time></trkpt><trkpt lat="41.19396350799928" lon="19.99329973198593"><ele>365.0</ele><time>2026-04-29T08:56:51Z</time></trkpt><trkpt lat="41.194015646615306" lon="19.99319370362588"><ele>363.0</ele><time>2026-04-29T08:56:53Z</time></trkpt><trkpt lat="41.194072686117806" lon="19.993093209640882"><ele>361.0</ele><time>2026-04-29T08:56:55Z</time></trkpt><trkpt lat="41.19411637608049" lon="19.99299071772146"><ele>359.0</ele><time>2026-04-29T08:56:57Z</time></trkpt><trkpt lat="41.194188169297036" lon="19.992901589573528"><ele>359.0</ele><time>2026-04-29T08:56:59Z</time></trkpt><trkpt lat="41.19424982822552" lon="19.99287406681936"><ele>359.0</ele><time>2026-04-29T08:57:00Z</time></trkpt><trkpt lat="41.19434432016002" lon="19.992819119970548"><ele>359.0</ele><time>2026-04-29T08:57:02Z</time></trkpt><trkpt lat="41.19444941609672" lon="19.99275230952498"><ele>359.0</ele><time>2026-04-29T08:57:04Z</time></trkpt><trkpt lat="41.19451230581756" lon="19.992743236379255"><ele>359.0</ele><time>2026-04-29T08:57:05Z</time></trkpt><trkpt lat="41.1945859875066" lon="19.992734001521274"><ele>359.0</ele><time>2026-04-29T08:57:06Z</time></trkpt><trkpt lat="41.19470181671997" lon="19.992698568867947"><ele>359.0</ele><time>2026-04-29T08:57:08Z</time></trkpt><trkpt lat="41.194825909871945" lon="19.992667967409798"><ele>359.0</ele><time>2026-04-29T08:57:10Z</time></trkpt><trkpt lat="41.19492161194206" lon="19.992620891115504"><ele>359.0</ele><time>2026-04-29T08:57:12Z</time></trkpt><trkpt lat="41.195011981419874" lon="19.99258031933598"><ele>359.0</ele><time>2026-04-29T08:57:14Z</time></trkpt><trkpt lat="41.195077034551474" lon="19.992495030655775"><ele>359.0</ele><time>2026-04-29T08:57:16Z</time></trkpt><trkpt lat="41.19509987498764" lon="19.992361319536798"><ele>358.0</ele><time>2026-04-29T08:57:17Z</time></trkpt><trkpt lat="41.19508763217328" lon="19.992265545023365"><ele>357.0</ele><time>2026-04-29T08:57:18Z</time></trkpt><trkpt lat="41.19504895406545" lon="19.99214429861441"><ele>356.0</ele><time>2026-04-29T08:57:19Z</time></trkpt><trkpt lat="41.195008572981216" lon="19.99203445685289"><ele>355.0</ele><time>2026-04-29T08:57:20Z</time></trkpt><trkpt lat="41.194951449687075" lon="19.991925924479744"><ele>354.0</ele><time>2026-04-29T08:57:21Z</time></trkpt><trkpt lat="41.194898526534764" lon="19.991819471684142"><ele>354.0</ele><time>2026-04-29T08:57:22Z</time></trkpt><trkpt lat="41.194855407992016" lon="19.99173468609534"><ele>354.0</ele><time>2026-04-29T08:57:23Z</time></trkpt><trkpt lat="41.19482616973997" lon="19.991642803565682"><ele>354.0</ele><time>2026-04-29T08:57:24Z</time></trkpt><trkpt lat="41.19484660291288" lon="19.991535661600935"><ele>354.0</ele><time>2026-04-29T08:57:25Z</time></trkpt><trkpt lat="41.19484873940307" lon="19.991436210138655"><ele>354.0</ele><time>2026-04-29T08:57:26Z</time></trkpt><trkpt lat="41.19485125710793" lon="19.991315217475847"><ele>354.0</ele><time>2026-04-29T08:57:27Z</time></trkpt><trkpt lat="41.19485125710898" lon="19.991180315463634"><ele>354.3333333333333</ele><time>2026-04-29T08:57:28Z</time></trkpt><trkpt lat="41.1948512571085" lon="19.99107648456909"><ele>354.6666666666667</ele><time>2026-04-29T08:57:29Z</time></trkpt><trkpt lat="41.19484229105292" lon="19.990968090621354"><ele>355.0</ele><time>2026-04-29T08:57:30Z</time></trkpt><trkpt lat="41.194833952122" lon="19.99085457551023"><ele>355.33333333333337</ele><time>2026-04-29T08:57:31Z</time></trkpt><trkpt lat="41.194805959358305" lon="19.990743639742764"><ele>355.6666666666667</ele><time>2026-04-29T08:57:32Z</time></trkpt><trkpt lat="41.19483338492151" lon="19.990655198303834"><ele>356.0</ele><time>2026-04-29T08:57:33Z</time></trkpt><trkpt lat="41.19482335301939" lon="19.990539156371362"><ele>355.5</ele><time>2026-04-29T08:57:35Z</time></trkpt><trkpt lat="41.19488697965898" lon="19.99052339014027"><ele>355.0</ele><time>2026-04-29T08:57:36Z</time></trkpt><trkpt lat="41.19493906895746" lon="19.990402416069447"><ele>354.5</ele><time>2026-04-29T08:57:38Z</time></trkpt><trkpt lat="41.19501840705974" lon="19.990412902264882"><ele>354.0</ele><time>2026-04-29T08:57:39Z</time></trkpt><trkpt lat="41.19507844353022" lon="19.990379563939324"><ele>353.5</ele><time>2026-04-29T08:57:40Z</time></trkpt><trkpt lat="41.19514882980356" lon="19.990364420457848"><ele>353.0</ele><time>2026-04-29T08:57:41Z</time></trkpt><trkpt lat="41.195222358803846" lon="19.990340786778734"><ele>353.0</ele><time>2026-04-29T08:57:42Z</time></trkpt><trkpt lat="41.19529717452406" lon="19.99026978442372"><ele>353.0</ele><time>2026-04-29T08:57:43Z</time></trkpt><trkpt lat="41.19536028817724" lon="19.990217368705"><ele>353.0</ele><time>2026-04-29T08:57:44Z</time></trkpt><trkpt lat="41.19540480270596" lon="19.990029174625963"><ele>353.0</ele><time>2026-04-29T08:57:46Z</time></trkpt><trkpt lat="41.19541423287662" lon="19.9899264558527"><ele>353.0</ele><time>2026-04-29T08:57:47Z</time></trkpt><trkpt lat="41.19541416319107" lon="19.9897697870903"><ele>352.59999999999997</ele><time>2026-04-29T08:57:49Z</time></trkpt><trkpt lat="41.195411324303336" lon="19.989609744986343"><ele>352.2</ele><time>2026-04-29T08:57:51Z</time></trkpt><trkpt lat="41.19540839969468" lon="19.989468792422567"><ele>351.8</ele><time>2026-04-29T08:57:53Z</time></trkpt><trkpt lat="41.195476679454536" lon="19.98930995409468"><ele>351.4</ele><time>2026-04-29T08:57:55Z</time></trkpt><trkpt lat="41.195509529089264" lon="19.989231212394873"><ele>351.0</ele><time>2026-04-29T08:57:56Z</time></trkpt><trkpt lat="41.19556454729108" lon="19.989179619350296"><ele>351.6666666666667</ele><time>2026-04-29T08:57:57Z</time></trkpt><trkpt lat="41.19561325480816" lon="19.989084794303388"><ele>352.3333333333333</ele><time>2026-04-29T08:57:58Z</time></trkpt><trkpt lat="41.19567154982676" lon="19.9890206639"><ele>353.0</ele><time>2026-04-29T08:57:59Z</time></trkpt><trkpt lat="41.19572449574039" lon="19.988940920579388"><ele>353.66666666666663</ele><time>2026-04-29T08:58:00Z</time></trkpt><trkpt lat="41.19577649833087" lon="19.988868427739785"><ele>354.3333333333333</ele><time>2026-04-29T08:58:01Z</time></trkpt><trkpt lat="41.19583187101777" lon="19.988799239240283"><ele>355.0</ele><time>2026-04-29T08:58:02Z</time></trkpt><trkpt lat="41.19589059761533" lon="19.98871502191313"><ele>357.5</ele><time>2026-04-29T08:58:03Z</time></trkpt><trkpt lat="41.19595620376475" lon="19.988627050840186"><ele>360.0</ele><time>2026-04-29T08:58:04Z</time></trkpt><trkpt lat="41.19600825898906" lon="19.988555958061234"><ele>362.5</ele><time>2026-04-29T08:58:05Z</time></trkpt><trkpt lat="41.196055007926354" lon="19.98849803661172"><ele>365.0</ele><time>2026-04-29T08:58:06Z</time></trkpt><trkpt lat="41.196106182585346" lon="19.988417225165318"><ele>367.5</ele><time>2026-04-29T08:58:07Z</time></trkpt><trkpt lat="41.196159523392694" lon="19.98833165247098"><ele>370.0</ele><time>2026-04-29T08:58:08Z</time></trkpt><trkpt lat="41.196205034254625" lon="19.988258095640674"><ele>369.99999999999994</ele><time>2026-04-29T08:58:09Z</time></trkpt><trkpt lat="41.196244685022165" lon="19.98819228534091"><ele>370.0</ele><time>2026-04-29T08:58:10Z</time></trkpt><trkpt lat="41.196284700642096" lon="19.988126498925357"><ele>370.0</ele><time>2026-04-29T08:58:11Z</time></trkpt><trkpt lat="41.19633007206226" lon="19.988018603337412"><ele>370.0</ele><time>2026-04-29T08:58:12Z</time></trkpt><trkpt lat="41.19638708839088" lon="19.9879325457917"><ele>370.0</ele><time>2026-04-29T08:58:13Z</time></trkpt><trkpt lat="41.19642110284533" lon="19.987853249524118"><ele>369.99999999999994</ele><time>2026-04-29T08:58:14Z</time></trkpt><trkpt lat="41.196465489344405" lon="19.98778005924588"><ele>370.0</ele><time>2026-04-29T08:58:15Z</time></trkpt><trkpt lat="41.19654487754507" lon="19.98767817613551"><ele>375.5</ele><time>2026-04-29T08:58:17Z</time></trkpt><trkpt lat="41.196604808608065" lon="19.98758984467958"><ele>381.0</ele><time>2026-04-29T08:58:19Z</time></trkpt><trkpt lat="41.19665254167785" lon="19.987659128060034"><ele>386.5</ele><time>2026-04-29T08:58:22Z</time></trkpt><trkpt lat="41.19671308739528" lon="19.987732660625937"><ele>392.0</ele><time>2026-04-29T08:58:25Z</time></trkpt><trkpt lat="41.19675071576595" lon="19.987857597329107"><ele>397.50000000000006</ele><time>2026-04-29T08:58:27Z</time></trkpt><trkpt lat="41.19673328612329" lon="19.98799597344561"><ele>403.0</ele><time>2026-04-29T08:58:29Z</time></trkpt><trkpt lat="41.19664271497665" lon="19.988119561799916"><ele>403.00000000000006</ele><time>2026-04-29T08:58:31Z</time></trkpt><trkpt lat="41.19657168879737" lon="19.988196981736866"><ele>403.0</ele><time>2026-04-29T08:58:32Z</time></trkpt><trkpt lat="41.196510322950886" lon="19.988293291036854"><ele>403.0</ele><time>2026-04-29T08:58:33Z</time></trkpt><trkpt lat="41.19645575353398" lon="19.988388920407264"><ele>403.0</ele><time>2026-04-29T08:58:34Z</time></trkpt><trkpt lat="41.196418661229565" lon="19.988482255742873"><ele>403.00000000000006</ele><time>2026-04-29T08:58:35Z</time></trkpt><trkpt lat="41.19638492325412" lon="19.98858996718209"><ele>403.0</ele><time>2026-04-29T08:58:36Z</time></trkpt><trkpt lat="41.196342406043925" lon="19.988691628839536"><ele>398.59999999999997</ele><time>2026-04-29T08:58:37Z</time></trkpt><trkpt lat="41.19632121062107" lon="19.988800585510806"><ele>394.2</ele><time>2026-04-29T08:58:38Z</time></trkpt><trkpt lat="41.19629746454059" lon="19.988943560571037"><ele>389.8</ele><time>2026-04-29T08:58:39Z</time></trkpt><trkpt lat="41.1962808531933" lon="19.989066113802004"><ele>385.4</ele><time>2026-04-29T08:58:40Z</time></trkpt><trkpt lat="41.19625637443151" lon="19.9892010053571"><ele>381.0</ele><time>2026-04-29T08:58:42Z</time></trkpt><trkpt lat="41.19623702677636" lon="19.989308272195956"><ele>380.6</ele><time>2026-04-29T08:58:44Z</time></trkpt><trkpt lat="41.196230120024616" lon="19.989411817812382"><ele>380.20000000000005</ele><time>2026-04-29T08:58:46Z</time></trkpt><trkpt lat="41.196231830876506" lon="19.989548316674384"><ele>379.79999999999995</ele><time>2026-04-29T08:58:47Z</time></trkpt><trkpt lat="41.1963251586933" lon="19.989725719731254"><ele>379.4</ele><time>2026-04-29T08:58:49Z</time></trkpt><trkpt lat="41.19638416094953" lon="19.989806757219252"><ele>379.0</ele><time>2026-04-29T08:58:50Z</time></trkpt><trkpt lat="41.196458630020445" lon="19.9899093570198"><ele>387.79999999999995</ele><time>2026-04-29T08:58:51Z</time></trkpt><trkpt lat="41.1965536356353" lon="19.990013692748505"><ele>396.59999999999997</ele><time>2026-04-29T08:58:52Z</time></trkpt><trkpt lat="41.19663854775471" lon="19.99009789172751"><ele>405.4</ele><time>2026-04-29T08:58:53Z</time></trkpt><trkpt lat="41.19670866387786" lon="19.9901681401378"><ele>414.2</ele><time>2026-04-29T08:58:54Z</time></trkpt><trkpt lat="41.19676696817465" lon="19.990226880963256"><ele>423.0</ele><time>2026-04-29T08:58:55Z</time></trkpt><trkpt lat="41.196842191238694" lon="19.990248426981303"><ele>423.0</ele><time>2026-04-29T08:58:56Z</time></trkpt><trkpt lat="41.19694189786054" lon="19.990284576316984"><ele>423.0</ele><time>2026-04-29T08:58:58Z</time></trkpt><trkpt lat="41.19704434837308" lon="19.990304488513875"><ele>423.0</ele><time>2026-04-29T08:59:00Z</time></trkpt><trkpt lat="41.197107821024" lon="19.99033453151372"><ele>423.0</ele><time>2026-04-29T08:59:03Z</time></trkpt><trkpt lat="41.19709833481491" lon="19.990421762486232"><ele>423.0</ele><time>2026-04-29T08:59:10Z</time></trkpt><trkpt lat="41.1970376933228" lon="19.990466391600492"><ele>423.0</ele><time>2026-04-29T08:59:11Z</time></trkpt><trkpt lat="41.196990860176406" lon="19.99053112849262"><ele>423.0</ele><time>2026-04-29T08:59:12Z</time></trkpt><trkpt lat="41.19694095857702" lon="19.99063992852786"><ele>423.0</ele><time>2026-04-29T08:59:14Z</time></trkpt><trkpt lat="41.196961555083774" lon="19.990722942336863"><ele>423.0</ele><time>2026-04-29T08:59:17Z</time></trkpt><trkpt lat="41.19703037731392" lon="19.990739237999453"><ele>423.0</ele><time>2026-04-29T08:59:19Z</time></trkpt><trkpt lat="41.19714138339102" lon="19.99070356333462"><ele>423.0</ele><time>2026-04-29T08:59:21Z</time></trkpt><trkpt lat="41.197200801982575" lon="19.9906722737299"><ele>423.0</ele><time>2026-04-29T08:59:22Z</time></trkpt><trkpt lat="41.19727842878792" lon="19.99065936445289"><ele>423.0</ele><time>2026-04-29T08:59:24Z</time></trkpt><trkpt lat="41.1972891614693" lon="19.990750061160508"><ele>423.0</ele><time>2026-04-29T08:59:27Z</time></trkpt><trkpt lat="41.19722478125614" lon="19.990826165522748"><ele>423.0</ele><time>2026-04-29T08:59:29Z</time></trkpt><trkpt lat="41.19716441710767" lon="19.990861135337862"><ele>423.0</ele><time>2026-04-29T08:59:30Z</time></trkpt><trkpt lat="41.197097682763555" lon="19.99090514006632"><ele>423.0</ele><time>2026-04-29T08:59:31Z</time></trkpt><trkpt lat="41.197027989660405" lon="19.990945932339432"><ele>423.0</ele><time>2026-04-29T08:59:32Z</time></trkpt><trkpt lat="41.196947465000896" lon="19.990996278387406"><ele>423.8333333333333</ele><time>2026-04-29T08:59:33Z</time></trkpt><trkpt lat="41.19687089254648" lon="19.991051689434563"><ele>424.66666666666663</ele><time>2026-04-29T08:59:34Z</time></trkpt><trkpt lat="41.19683599263498" lon="19.991133171686588"><ele>425.5</ele><time>2026-04-29T08:59:35Z</time></trkpt><trkpt lat="41.19678493075907" lon="19.991187838318837"><ele>426.3333333333333</ele><time>2026-04-29T08:59:36Z</time></trkpt><trkpt lat="41.196730737061735" lon="19.991261776432093"><ele>427.16666666666663</ele><time>2026-04-29T08:59:37Z</time></trkpt><trkpt lat="41.196687016232474" lon="19.991395969449343"><ele>428.0</ele><time>2026-04-29T08:59:39Z</time></trkpt><trkpt lat="41.196675605429945" lon="19.991521635520314"><ele>428.0</ele><time>2026-04-29T08:59:40Z</time></trkpt><trkpt lat="41.196707225467016" lon="19.991661762023796"><ele>428.0</ele><time>2026-04-29T08:59:41Z</time></trkpt><trkpt lat="41.19678214362621" lon="19.991772153348986"><ele>428.0</ele><time>2026-04-29T08:59:42Z</time></trkpt><trkpt lat="41.19703307012946" lon="19.991752646316943"><ele>430.16666666666663</ele><time>2026-04-29T08:59:44Z</time></trkpt><trkpt lat="41.19710274226976" lon="19.99173745771035"><ele>432.3333333333333</ele><time>2026-04-29T08:59:45Z</time></trkpt><trkpt lat="41.197221545760115" lon="19.99171655858736"><ele>434.5</ele><time>2026-04-29T08:59:47Z</time></trkpt><trkpt lat="41.19730113400481" lon="19.991704552380803"><ele>436.66666666666663</ele><time>2026-04-29T08:59:48Z</time></trkpt><trkpt lat="41.19737741268883" lon="19.991693146164437"><ele>438.8333333333333</ele><time>2026-04-29T08:59:49Z</time></trkpt><trkpt lat="41.197462547832664" lon="19.991762125499434"><ele>441.0</ele><time>2026-04-29T08:59:51Z</time></trkpt><trkpt lat="41.19753640720307" lon="19.9918676066876"><ele>441.0</ele><time>2026-04-29T08:59:53Z</time></trkpt><trkpt lat="41.19758900766164" lon="19.99193215897709"><ele>441.0</ele><time>2026-04-29T08:59:54Z</time></trkpt><trkpt lat="41.19765411097198" lon="19.992012796679496"><ele>441.0</ele><time>2026-04-29T08:59:55Z</time></trkpt><trkpt lat="41.197705264396035" lon="19.992079899425665"><ele>441.0</ele><time>2026-04-29T08:59:56Z</time></trkpt><trkpt lat="41.19776938659883" lon="19.992173105008238"><ele>441.0</ele><time>2026-04-29T08:59:57Z</time></trkpt><trkpt lat="41.197810109846856" lon="19.992309611399808"><ele>441.0</ele><time>2026-04-29T08:59:59Z</time></trkpt><trkpt lat="41.19784408287511" lon="19.992401467207596"><ele>441.0</ele><time>2026-04-29T09:00:00Z</time></trkpt><trkpt lat="41.19789226904445" lon="19.992517040453457"><ele>441.0</ele><time>2026-04-29T09:00:02Z</time></trkpt><trkpt lat="41.1979806610591" lon="19.992637443570953"><ele>441.0</ele><time>2026-04-29T09:00:03Z</time></trkpt><trkpt lat="41.198056100503216" lon="19.992275111314836"><ele>441.0</ele><time>2026-04-29T09:00:06Z</time></trkpt><trkpt lat="41.198052839749344" lon="19.992123428502648"><ele>441.0</ele><time>2026-04-29T09:00:08Z</time></trkpt><trkpt lat="41.19804906048942" lon="19.992023053597354"><ele>441.0</ele><time>2026-04-29T09:00:09Z</time></trkpt><trkpt lat="41.19804529812851" lon="19.9919231275702"><ele>441.0</ele><time>2026-04-29T09:00:10Z</time></trkpt><trkpt lat="41.19804076624998" lon="19.991802763659397"><ele>441.0</ele><time>2026-04-29T09:00:11Z</time></trkpt><trkpt lat="41.19803632022547" lon="19.991684679974412"><ele>441.0</ele><time>2026-04-29T09:00:12Z</time></trkpt><trkpt lat="41.1980351881868" lon="19.99155999735565"><ele>443.0</ele><time>2026-04-29T09:00:13Z</time></trkpt><trkpt lat="41.198033125541066" lon="19.99145024948499"><ele>445.0</ele><time>2026-04-29T09:00:14Z</time></trkpt><trkpt lat="41.19802961755046" lon="19.99135914682507"><ele>447.0</ele><time>2026-04-29T09:00:15Z</time></trkpt><trkpt lat="41.19810447811644" lon="19.991300173241758"><ele>449.0</ele><time>2026-04-29T09:00:17Z</time></trkpt><trkpt lat="41.19818108261695" lon="19.99135402616573"><ele>451.0</ele><time>2026-04-29T09:00:19Z</time></trkpt><trkpt lat="41.19820792692302" lon="19.99145810956793"><ele>453.0</ele><time>2026-04-29T09:00:22Z</time></trkpt><trkpt lat="41.19824524616581" lon="19.991531651613688"><ele>456.0</ele><time>2026-04-29T09:00:23Z</time></trkpt><trkpt lat="41.19829211253552" lon="19.99162427147272"><ele>459.0</ele><time>2026-04-29T09:00:24Z</time></trkpt><trkpt lat="41.198341105405106" lon="19.991721386422164"><ele>462.0</ele><time>2026-04-29T09:00:25Z</time></trkpt><trkpt lat="41.19839331155718" lon="19.991824443848706"><ele>465.0</ele><time>2026-04-29T09:00:26Z</time></trkpt><trkpt lat="41.198446376895504" lon="19.991928301302487"><ele>468.0</ele><time>2026-04-29T09:00:27Z</time></trkpt><trkpt lat="41.19848460034315" lon="19.992026300747966"><ele>471.0</ele><time>2026-04-29T09:00:28Z</time></trkpt><trkpt lat="41.19852985300856" lon="19.99214499785825"><ele>471.0</ele><time>2026-04-29T09:00:29Z</time></trkpt><trkpt lat="41.19856749861609" lon="19.99224596047847"><ele>471.0</ele><time>2026-04-29T09:00:30Z</time></trkpt><trkpt lat="41.19859789162201" lon="19.99233692753799"><ele>471.0</ele><time>2026-04-29T09:00:31Z</time></trkpt><trkpt lat="41.198664355973804" lon="19.99247996735226"><ele>471.0</ele><time>2026-04-29T09:00:32Z</time></trkpt><trkpt lat="41.19872232848783" lon="19.99255128059019"><ele>471.0</ele><time>2026-04-29T09:00:33Z</time></trkpt><trkpt lat="41.198849965415796" lon="19.992688464323166"><ele>471.0</ele><time>2026-04-29T09:00:35Z</time></trkpt><trkpt lat="41.199016453776686" lon="19.992466044039347"><ele>471.0</ele><time>2026-04-29T09:00:37Z</time></trkpt><trkpt lat="41.19892431096141" lon="19.99235175305806"><ele>471.0</ele><time>2026-04-29T09:00:38Z</time></trkpt><trkpt lat="41.19889770973819" lon="19.99221344902813"><ele>471.0</ele><time>2026-04-29T09:00:40Z</time></trkpt><trkpt lat="41.19887653675289" lon="19.99212131065898"><ele>471.0</ele><time>2026-04-29T09:00:41Z</time></trkpt><trkpt lat="41.19885414382064" lon="19.99202045668362"><ele>471.0</ele><time>2026-04-29T09:00:42Z</time></trkpt><trkpt lat="41.198887539606964" lon="19.991941880966316"><ele>471.0</ele><time>2026-04-29T09:00:43Z</time></trkpt><trkpt lat="41.19893904931637" lon="19.991821712522974"><ele>471.0</ele><time>2026-04-29T09:00:45Z</time></trkpt><trkpt lat="41.198978840415734" lon="19.99166356016509"><ele>471.0</ele><time>2026-04-29T09:00:47Z</time></trkpt><trkpt lat="41.198995231479415" lon="19.991576777834254"><ele>479.20000000000005</ele><time>2026-04-29T09:00:48Z</time></trkpt><trkpt lat="41.19905104542163" lon="19.991428116318172"><ele>487.40000000000003</ele><time>2026-04-29T09:00:50Z</time></trkpt><trkpt lat="41.199085495221695" lon="19.991342477652566"><ele>495.6</ele><time>2026-04-29T09:00:51Z</time></trkpt><trkpt lat="41.19910890632152" lon="19.99124950400733"><ele>503.8</ele><time>2026-04-29T09:00:52Z</time></trkpt><trkpt lat="41.199114002867866" lon="19.991108448887765"><ele>512.0</ele><time>2026-04-29T09:00:54Z</time></trkpt><trkpt lat="41.19914548444132" lon="19.99101097425667"><ele>511.99999999999994</ele><time>2026-04-29T09:06:36Z</time></trkpt><trkpt lat="41.19914596941995" lon="19.99090190995147"><ele>512.0</ele><time>2026-04-29T09:06:37Z</time></trkpt><trkpt lat="41.199141421091774" lon="19.990812040687295"><ele>512.0</ele><time>2026-04-29T09:06:38Z</time></trkpt><trkpt lat="41.199061527952466" lon="19.990760351108747"><ele>512.0</ele><time>2026-04-29T09:06:39Z</time></trkpt><trkpt lat="41.19904381169741" lon="19.99067438197116"><ele>511.99999999999994</ele><time>2026-04-29T09:06:40Z</time></trkpt><trkpt lat="41.19911474220657" lon="19.990568989598444"><ele>512.0</ele><time>2026-04-29T09:06:41Z</time></trkpt><trkpt lat="41.19915966092078" lon="19.990493243889972"><ele>512.0</ele><time>2026-04-29T09:06:43Z</time></trkpt><trkpt lat="41.19925256378472" lon="19.99051713066477"><ele>512.0</ele><time>2026-04-29T09:06:46Z</time></trkpt><trkpt lat="41.19931478572731" lon="19.990590721200725"><ele>512.0</ele><time>2026-04-29T09:06:48Z</time></trkpt><trkpt lat="41.19936056073676" lon="19.990713646614374"><ele>512.0</ele><time>2026-04-29T09:06:50Z</time></trkpt><trkpt lat="41.199405759841575" lon="19.990818158560007"><ele>512.0</ele><time>2026-04-29T09:06:52Z</time></trkpt><trkpt lat="41.19944825386899" lon="19.990925343101072"><ele>512.0</ele><time>2026-04-29T09:07:17Z</time></trkpt><trkpt lat="41.19950461199639" lon="19.991087898215223"><ele>512.0</ele><time>2026-04-29T09:07:19Z</time></trkpt><trkpt lat="41.19953104199141" lon="19.991177739617722"><ele>512.0</ele><time>2026-04-29T09:07:20Z</time></trkpt><trkpt lat="41.19950004121781" lon="19.991316081132045"><ele>512.0</ele><time>2026-04-29T09:07:21Z</time></trkpt><trkpt lat="41.199539765331906" lon="19.991420049898455"><ele>512.0</ele><time>2026-04-29T09:07:22Z</time></trkpt><trkpt lat="41.199576964907806" lon="19.991518426470453"><ele>511.99999999999994</ele><time>2026-04-29T09:07:23Z</time></trkpt><trkpt lat="41.1996117437081" lon="19.991611618952135"><ele>512.0</ele><time>2026-04-29T09:07:24Z</time></trkpt><trkpt lat="41.19965342590235" lon="19.99172035572576"><ele>512.0</ele><time>2026-04-29T09:07:25Z</time></trkpt><trkpt lat="41.19968685710449" lon="19.99180793953679"><ele>512.0</ele><time>2026-04-29T09:07:26Z</time></trkpt><trkpt lat="41.19972854756363" lon="19.991904217872364"><ele>511.99999999999994</ele><time>2026-04-29T09:07:27Z</time></trkpt><trkpt lat="41.19976863405977" lon="19.991999022990765"><ele>512.0</ele><time>2026-04-29T09:07:28Z</time></trkpt><trkpt lat="41.199800648433424" lon="19.992074737424762"><ele>516.0</ele><time>2026-04-29T09:07:29Z</time></trkpt><trkpt lat="41.199841680292714" lon="19.99216906277763"><ele>520.0</ele><time>2026-04-29T09:07:31Z</time></trkpt><trkpt lat="41.199889840507325" lon="19.99226281000129"><ele>524.0</ele><time>2026-04-29T09:07:32Z</time></trkpt><trkpt lat="41.200020340831436" lon="19.992280526412358"><ele>528.0</ele><time>2026-04-29T09:07:33Z</time></trkpt><trkpt lat="41.20009382244241" lon="19.992133347492583"><ele>532.0</ele><time>2026-04-29T09:07:34Z</time></trkpt><trkpt lat="41.199984410445374" lon="19.99200819041857"><ele>532.0</ele><time>2026-04-29T09:07:35Z</time></trkpt><trkpt lat="41.199982156582735" lon="19.99187583180462"><ele>532.0</ele><time>2026-04-29T09:07:37Z</time></trkpt><trkpt lat="41.199982156579104" lon="19.99179085135884"><ele>532.0</ele><time>2026-04-29T09:07:38Z</time></trkpt><trkpt lat="41.20001905481155" lon="19.991631153481794"><ele>532.0</ele><time>2026-04-29T09:07:40Z</time></trkpt><trkpt lat="41.200021417638006" lon="19.99154742930698"><ele>532.0</ele><time>2026-04-29T09:07:41Z</time></trkpt><trkpt lat="41.200035856772324" lon="19.9914480021264"><ele>532.0</ele><time>2026-04-29T09:07:42Z</time></trkpt><trkpt lat="41.20000445809234" lon="19.991324171402173"><ele>534.0</ele><time>2026-04-29T09:07:44Z</time></trkpt><trkpt lat="41.199994045870106" lon="19.991192501649675"><ele>536.0</ele><time>2026-04-29T09:07:46Z</time></trkpt><trkpt lat="41.19997160113513" lon="19.991049291630443"><ele>538.0</ele><time>2026-04-29T09:07:48Z</time></trkpt><trkpt lat="41.19996082339494" lon="19.990958117580732"><ele>540.0</ele><time>2026-04-29T09:07:49Z</time></trkpt><trkpt lat="41.199910357366555" lon="19.99086852767593"><ele>542.0</ele><time>2026-04-29T09:07:51Z</time></trkpt><trkpt lat="41.199861471435604" lon="19.99072729833723"><ele>545.8000000000001</ele><time>2026-04-29T09:07:53Z</time></trkpt><trkpt lat="41.199852902537465" lon="19.990538776802754"><ele>549.6</ele><time>2026-04-29T09:07:55Z</time></trkpt><trkpt lat="41.19984835034695" lon="19.990374245850173"><ele>553.4000000000001</ele><time>2026-04-29T09:07:57Z</time></trkpt><trkpt lat="41.19984571277528" lon="19.990279912068623"><ele>557.2</ele><time>2026-04-29T09:07:58Z</time></trkpt><trkpt lat="41.19985918688861" lon="19.99017957914555"><ele>561.0</ele><time>2026-04-29T09:07:59Z</time></trkpt><trkpt lat="41.19984041692563" lon="19.990090503405078"><ele>554.1666666666666</ele><time>2026-04-29T09:08:00Z</time></trkpt><trkpt lat="41.19980306472129" lon="19.989952580538528"><ele>547.3333333333334</ele><time>2026-04-29T09:08:02Z</time></trkpt><trkpt lat="41.19977876244248" lon="19.98983351516143"><ele>540.5</ele><time>2026-04-29T09:08:04Z</time></trkpt><trkpt lat="41.199761179177536" lon="19.989747368564146"><ele>533.6666666666667</ele><time>2026-04-29T09:08:06Z</time></trkpt><trkpt lat="41.19974170047509" lon="19.98965193538425"><ele>526.8333333333334</ele><time>2026-04-29T09:08:08Z</time></trkpt><trkpt lat="41.19976023514023" lon="19.989556649976045"><ele>520.0</ele><time>2026-04-29T09:08:10Z</time></trkpt><trkpt lat="41.199751174437054" lon="19.989465320177775"><ele>520.0</ele><time>2026-04-29T09:08:52Z</time></trkpt><trkpt lat="41.1997488677781" lon="19.989315996908463"><ele>520.0</ele><time>2026-04-29T09:08:54Z</time></trkpt><trkpt lat="41.1997476924092" lon="19.989223730395306"><ele>520.0</ele><time>2026-04-29T09:08:55Z</time></trkpt><trkpt lat="41.1997459351904" lon="19.98907681706687"><ele>520.0</ele><time>2026-04-29T09:08:57Z</time></trkpt><trkpt lat="41.199733835527255" lon="19.988954877722467"><ele>520.0</ele><time>2026-04-29T09:08:59Z</time></trkpt><trkpt lat="41.19973014305403" lon="19.988867165162556"><ele>520.5714285714287</ele><time>2026-04-29T09:09:00Z</time></trkpt><trkpt lat="41.199729493499575" lon="19.98876666357592"><ele>521.1428571428571</ele><time>2026-04-29T09:09:01Z</time></trkpt><trkpt lat="41.19972036764043" lon="19.988682628617997"><ele>521.7142857142858</ele><time>2026-04-29T09:09:02Z</time></trkpt><trkpt lat="41.19971033388135" lon="19.988587625958672"><ele>522.2857142857143</ele><time>2026-04-29T09:09:03Z</time></trkpt><trkpt lat="41.1997207382335" lon="19.98850105525567"><ele>522.8571428571429</ele><time>2026-04-29T09:09:04Z</time></trkpt><trkpt lat="41.19969791209975" lon="19.988413470389084"><ele>523.4285714285714</ele><time>2026-04-29T09:09:05Z</time></trkpt><trkpt lat="41.19971365654711" lon="19.98831735823769"><ele>524.0</ele><time>2026-04-29T09:09:06Z</time></trkpt><trkpt lat="41.199715053482244" lon="19.988233536922436"><ele>524.8333333333333</ele><time>2026-04-29T09:09:07Z</time></trkpt><trkpt lat="41.199723426573456" lon="19.988141770182427"><ele>525.6666666666666</ele><time>2026-04-29T09:09:08Z</time></trkpt><trkpt lat="41.199737899528024" lon="19.988044985094845"><ele>526.5</ele><time>2026-04-29T09:09:09Z</time></trkpt><trkpt lat="41.19974059683139" lon="19.98795683278175"><ele>527.3333333333334</ele><time>2026-04-29T09:09:10Z</time></trkpt><trkpt lat="41.199771528370505" lon="19.987812013117527"><ele>528.1666666666667</ele><time>2026-04-29T09:09:12Z</time></trkpt><trkpt lat="41.199821023150285" lon="19.98766754098066"><ele>529.0</ele><time>2026-04-29T09:09:14Z</time></trkpt><trkpt lat="41.199845004456904" lon="19.987581926691725"><ele>538.2</ele><time>2026-04-29T09:09:15Z</time></trkpt><trkpt lat="41.199886329373264" lon="19.987434394966446"><ele>547.4</ele><time>2026-04-29T09:09:17Z</time></trkpt><trkpt lat="41.19991549674697" lon="19.987301728444166"><ele>556.6</ele><time>2026-04-29T09:09:19Z</time></trkpt><trkpt lat="41.19993651300789" lon="19.987174722644408"><ele>565.8</ele><time>2026-04-29T09:09:21Z</time></trkpt><trkpt lat="41.19990531048482" lon="19.98709874057838"><ele>575.0</ele><time>2026-04-29T09:09:22Z</time></trkpt><trkpt lat="41.199891487780256" lon="19.98695738925565"><ele>575.0</ele><time>2026-04-29T09:09:24Z</time></trkpt><trkpt lat="41.19989867414284" lon="19.986795572939666"><ele>575.0</ele><time>2026-04-29T09:09:26Z</time></trkpt><trkpt lat="41.19989969774707" lon="19.986628384552493"><ele>575.0</ele><time>2026-04-29T09:09:28Z</time></trkpt><trkpt lat="41.19991359945811" lon="19.986533351163775"><ele>575.0</ele><time>2026-04-29T09:09:29Z</time></trkpt><trkpt lat="41.19992660047966" lon="19.986438359060966"><ele>575.0</ele><time>2026-04-29T09:09:30Z</time></trkpt><trkpt lat="41.19993323750677" lon="19.986334081883502"><ele>573.1428571428571</ele><time>2026-04-29T09:09:31Z</time></trkpt><trkpt lat="41.1999424813146" lon="19.986239415482473"><ele>571.2857142857142</ele><time>2026-04-29T09:09:32Z</time></trkpt><trkpt lat="41.19995568500392" lon="19.986136419546966"><ele>569.4285714285714</ele><time>2026-04-29T09:09:33Z</time></trkpt><trkpt lat="41.19996217673454" lon="19.98603426982314"><ele>567.5714285714286</ele><time>2026-04-29T09:09:34Z</time></trkpt><trkpt lat="41.19998351699963" lon="19.985943198817377"><ele>565.7142857142858</ele><time>2026-04-29T09:09:35Z</time></trkpt><trkpt lat="41.199952788972446" lon="19.985845977701185"><ele>563.8571428571429</ele><time>2026-04-29T09:09:36Z</time></trkpt><trkpt lat="41.19991915333387" lon="19.985765515228216"><ele>562.0</ele><time>2026-04-29T09:09:37Z</time></trkpt><trkpt lat="41.199887189338284" lon="19.98567689290609"><ele>561.5</ele><time>2026-04-29T09:09:37.999Z</time></trkpt><trkpt lat="41.19985130988722" lon="19.985579370193516"><ele>561.0</ele><time>2026-04-29T09:09:38.999Z</time></trkpt><trkpt lat="41.199816910646625" lon="19.985485870674935"><ele>560.5</ele><time>2026-04-29T09:09:39.999Z</time></trkpt><trkpt lat="41.19971749886072" lon="19.985433340836174"><ele>560.0</ele><time>2026-04-29T09:09:41.999Z</time></trkpt><trkpt lat="41.19966128491249" lon="19.985362391515796"><ele>559.5</ele><time>2026-04-29T09:09:43.999Z</time></trkpt><trkpt lat="41.1996041394168" lon="19.985288905595286"><ele>559.0</ele><time>2026-04-29T09:09:45.999Z</time></trkpt><trkpt lat="41.199605922228756" lon="19.985167335774932"><ele>551.0</ele><time>2026-04-29T09:09:46.999Z</time></trkpt><trkpt lat="41.199618924677594" lon="19.985040064685144"><ele>543.0</ele><time>2026-04-29T09:10:45.999Z</time></trkpt><trkpt lat="41.19963775618765" lon="19.984894012860558"><ele>535.0</ele><time>2026-04-29T09:10:47.999Z</time></trkpt><trkpt lat="41.19965505440203" lon="19.984765254360557"><ele>527.0</ele><time>2026-04-29T09:10:49.999Z</time></trkpt><trkpt lat="41.19963570033663" lon="19.98465203360824"><ele>519.0</ele><time>2026-04-29T09:10:51.999Z</time></trkpt><trkpt lat="41.1996059773376" lon="19.98454761599202"><ele>518.5</ele><time>2026-04-29T09:10:54.999Z</time></trkpt><trkpt lat="41.199662063661776" lon="19.984490689358907"><ele>518.0</ele><time>2026-04-29T09:10:55.999Z</time></trkpt><trkpt lat="41.199715571337315" lon="19.98443549707225"><ele>517.5</ele><time>2026-04-29T09:10:57.999Z</time></trkpt><trkpt lat="41.19973207037419" lon="19.984333064220042"><ele>517.0</ele><time>2026-04-29T09:10:59.999Z</time></trkpt><trkpt lat="41.19978291020469" lon="19.984254229300717"><ele>516.5</ele><time>2026-04-29T09:11:01.999Z</time></trkpt><trkpt lat="41.19981215111303" lon="19.98413636562705"><ele>516.0</ele><time>2026-04-29T09:11:03.999Z</time></trkpt><trkpt lat="41.19972744906641" lon="19.984105705273983"><ele>514.5</ele><time>2026-04-29T09:11:04.999Z</time></trkpt><trkpt lat="41.19957114686177" lon="19.98408387763099"><ele>513.0</ele><time>2026-04-29T09:11:07.999Z</time></trkpt><trkpt lat="41.1996198547573" lon="19.984164260970847"><ele>511.5</ele><time>2026-04-29T09:11:08.999Z</time></trkpt><trkpt lat="41.19952971439126" lon="19.98392735466069"><ele>510.0</ele><time>2026-04-29T09:11:11.999Z</time></trkpt><trkpt lat="41.19956752684806" lon="19.98384541699549"><ele>510.0</ele><time>2026-04-29T09:11:12.999Z</time></trkpt><trkpt lat="41.199633475703806" lon="19.983758940043764"><ele>510.0</ele><time>2026-04-29T09:11:14.999Z</time></trkpt><trkpt lat="41.19966512884806" lon="19.983685586165578"><ele>510.0</ele><time>2026-04-29T09:11:15.999Z</time></trkpt><trkpt lat="41.19976049633678" lon="19.983564575159363"><ele>510.0</ele><time>2026-04-29T09:11:17.999Z</time></trkpt><trkpt lat="41.19981475132632" lon="19.983495978706916"><ele>510.0</ele><time>2026-04-29T09:11:18.999Z</time></trkpt><trkpt lat="41.199886947881474" lon="19.983379996499572"><ele>515.6</ele><time>2026-04-29T09:11:20.999Z</time></trkpt><trkpt lat="41.19996956493593" lon="19.983300152258636"><ele>521.2</ele><time>2026-04-29T09:11:22.999Z</time></trkpt><trkpt lat="41.20001784674757" lon="19.98320811629809"><ele>526.8</ele><time>2026-04-29T09:11:24.999Z</time></trkpt><trkpt lat="41.200066506538896" lon="19.983116465980956"><ele>532.4</ele><time>2026-04-29T09:11:26.999Z</time></trkpt><trkpt lat="41.2001177766997" lon="19.98300597485177"><ele>538.0</ele><time>2026-04-29T09:11:28.999Z</time></trkpt><trkpt lat="41.20015870646737" lon="19.982880918740342"><ele>538.0</ele><time>2026-04-29T09:11:30.999Z</time></trkpt><trkpt lat="41.20020814406133" lon="19.982762157113115"><ele>538.0</ele><time>2026-04-29T09:11:32.999Z</time></trkpt><trkpt lat="41.200253012724446" lon="19.982659906929484"><ele>538.0</ele><time>2026-04-29T09:11:34.999Z</time></trkpt><trkpt lat="41.200284356754544" lon="19.982587119891058"><ele>538.0</ele><time>2026-04-29T09:11:36.999Z</time></trkpt><trkpt lat="41.20031545817089" lon="19.982498828450744"><ele>538.0</ele><time>2026-04-29T09:11:48.999Z</time></trkpt><trkpt lat="41.200368320606614" lon="19.982412568349073"><ele>538.0</ele><time>2026-04-29T09:12:48.999Z</time></trkpt><trkpt lat="41.20040667335839" lon="19.982286405261043"><ele>537.6666666666667</ele><time>2026-04-29T09:12:52Z</time></trkpt><trkpt lat="41.20047829187721" lon="19.98221345658361"><ele>537.3333333333334</ele><time>2026-04-29T09:12:54Z</time></trkpt><trkpt lat="41.200552861773964" lon="19.982201089201883"><ele>537.0</ele><time>2026-04-29T09:12:56Z</time></trkpt><trkpt lat="41.20066465942906" lon="19.98219956582013"><ele>536.6666666666666</ele><time>2026-04-29T09:12:58Z</time></trkpt><trkpt lat="41.200758798685435" lon="19.982200092528036"><ele>536.3333333333333</ele><time>2026-04-29T09:13:00Z</time></trkpt><trkpt lat="41.200836090487904" lon="19.98220475004626"><ele>536.0</ele><time>2026-04-29T09:13:02Z</time></trkpt><trkpt lat="41.20091784448676" lon="19.982204127631533"><ele>536.0</ele><time>2026-04-29T09:13:04Z</time></trkpt><trkpt lat="41.20098529842666" lon="19.982205663432357"><ele>536.0</ele><time>2026-04-29T09:13:05Z</time></trkpt><trkpt lat="41.20109836789741" lon="19.982207571079908"><ele>536.0</ele><time>2026-04-29T09:13:07Z</time></trkpt><trkpt lat="41.201237467668506" lon="19.982213814445682"><ele>536.0</ele><time>2026-04-29T09:13:09Z</time></trkpt><trkpt lat="41.20130694332727" lon="19.98222022427615"><ele>536.0</ele><time>2026-04-29T09:13:10Z</time></trkpt><trkpt lat="41.20142141156055" lon="19.982239698389716"><ele>536.0</ele><time>2026-04-29T09:13:12Z</time></trkpt><trkpt lat="41.201485086022544" lon="19.982247387550874"><ele>536.0</ele><time>2026-04-29T09:13:13Z</time></trkpt><trkpt lat="41.201610977881764" lon="19.982257311577506"><ele>536.0</ele><time>2026-04-29T09:13:15Z</time></trkpt><trkpt lat="41.20173743042122" lon="19.98226176587616"><ele>536.0</ele><time>2026-04-29T09:13:17Z</time></trkpt><trkpt lat="41.20179988683546" lon="19.98227792842452"><ele>536.0</ele><time>2026-04-29T09:13:18Z</time></trkpt><trkpt lat="41.20186173665959" lon="19.98225917836495"><ele>536.0</ele><time>2026-04-29T09:13:19Z</time></trkpt><trkpt lat="41.20194936795551" lon="19.982286795300766"><ele>540.4</ele><time>2026-04-29T09:13:20Z</time></trkpt><trkpt lat="41.202053488952664" lon="19.98228503725446"><ele>544.8</ele><time>2026-04-29T09:13:21Z</time></trkpt><trkpt lat="41.202118541513364" lon="19.982258937842555"><ele>549.1999999999999</ele><time>2026-04-29T09:13:22Z</time></trkpt><trkpt lat="41.20223769776037" lon="19.982158878951598"><ele>553.6</ele><time>2026-04-29T09:13:24Z</time></trkpt><trkpt lat="41.202306762714386" lon="19.982077201337614"><ele>558.0</ele><time>2026-04-29T09:13:25Z</time></trkpt><trkpt lat="41.20237099818451" lon="19.981994223705904"><ele>559.0</ele><time>2026-04-29T09:13:26Z</time></trkpt><trkpt lat="41.202436715547044" lon="19.981909572941557"><ele>560.0</ele><time>2026-04-29T09:13:27Z</time></trkpt><trkpt lat="41.20250576206549" lon="19.981820275590287"><ele>561.0</ele><time>2026-04-29T09:13:28Z</time></trkpt><trkpt lat="41.20257432920811" lon="19.981730283412926"><ele>562.0</ele><time>2026-04-29T09:13:29Z</time></trkpt><trkpt lat="41.202643526898875" lon="19.981640377991127"><ele>563.0</ele><time>2026-04-29T09:13:30Z</time></trkpt><trkpt lat="41.20270989937968" lon="19.981553520484095"><ele>563.0</ele><time>2026-04-29T09:13:31Z</time></trkpt><trkpt lat="41.202780330911516" lon="19.981462635301085"><ele>563.0</ele><time>2026-04-29T09:13:32Z</time></trkpt><trkpt lat="41.20285490648444" lon="19.98136540112037"><ele>563.0</ele><time>2026-04-29T09:13:33Z</time></trkpt><trkpt lat="41.20292201290303" lon="19.98127074531068"><ele>563.0</ele><time>2026-04-29T09:13:34Z</time></trkpt><trkpt lat="41.20298408641006" lon="19.981197631713115"><ele>563.0</ele><time>2026-04-29T09:13:35Z</time></trkpt><trkpt lat="41.20302104287009" lon="19.98112167450456"><ele>563.0</ele><time>2026-04-29T09:13:36Z</time></trkpt><trkpt lat="41.2030824903879" lon="19.98105401774888"><ele>563.0</ele><time>2026-04-29T09:13:37Z</time></trkpt><trkpt lat="41.203130387386175" lon="19.980998365449096"><ele>563.0</ele><time>2026-04-29T09:13:38Z</time></trkpt><trkpt lat="41.20318175579494" lon="19.98093749596998"><ele>563.0</ele><time>2026-04-29T09:13:39Z</time></trkpt><trkpt lat="41.20322728833088" lon="19.98085477640488"><ele>563.0</ele><time>2026-04-29T09:13:40Z</time></trkpt><trkpt lat="41.20327106540653" lon="19.980755157890123"><ele>563.0</ele><time>2026-04-29T09:13:41Z</time></trkpt><trkpt lat="41.20331832819271" lon="19.98064669188347"><ele>564.1666666666666</ele><time>2026-04-29T09:13:42Z</time></trkpt><trkpt lat="41.20336317299619" lon="19.98054447804809"><ele>565.3333333333333</ele><time>2026-04-29T09:13:43Z</time></trkpt><trkpt lat="41.203403676279535" lon="19.98045702642871"><ele>566.5</ele><time>2026-04-29T09:13:44Z</time></trkpt><trkpt lat="41.20346010377854" lon="19.980336566619933"><ele>567.6666666666666</ele><time>2026-04-29T09:13:46Z</time></trkpt><trkpt lat="41.20353316238197" lon="19.980305721401574"><ele>568.8333333333334</ele><time>2026-04-29T09:13:49Z</time></trkpt><trkpt lat="41.20361462180874" lon="19.980311800721307"><ele>570.0</ele><time>2026-04-29T09:13:50.999Z</time></trkpt><trkpt lat="41.20367625610311" lon="19.98033772991791"><ele>570.0</ele><time>2026-04-29T09:13:51.999Z</time></trkpt><trkpt lat="41.203745704015724" lon="19.98036663085834"><ele>570.0</ele><time>2026-04-29T09:13:52.999Z</time></trkpt><trkpt lat="41.20384223876443" lon="19.980379660476686"><ele>570.0</ele><time>2026-04-29T09:13:54.999Z</time></trkpt><trkpt lat="41.20387078872776" lon="19.980297910756942"><ele>570.0</ele><time>2026-04-29T09:13:56.999Z</time></trkpt><trkpt lat="41.20383672204347" lon="19.980192885850457"><ele>570.0</ele><time>2026-04-29T09:13:59.999Z</time></trkpt><trkpt lat="41.20374805811779" lon="19.98012756519645"><ele>570.0</ele><time>2026-04-29T09:14:01.999Z</time></trkpt><trkpt lat="41.2036919455629" lon="19.980071726278926"><ele>571.0</ele><time>2026-04-29T09:14:02.999Z</time></trkpt><trkpt lat="41.2036298048699" lon="19.98001397596345"><ele>572.0</ele><time>2026-04-29T09:14:03.999Z</time></trkpt><trkpt lat="41.203575849203844" lon="19.97987960729203"><ele>573.0</ele><time>2026-04-29T09:14:05.999Z</time></trkpt><trkpt lat="41.203548201856876" lon="19.979799639437818"><ele>574.0</ele><time>2026-04-29T09:14:06.999Z</time></trkpt><trkpt lat="41.20352188190275" lon="19.979719705047813"><ele>575.0</ele><time>2026-04-29T09:14:07.999Z</time></trkpt><trkpt lat="41.203554335678454" lon="19.979640436833375"><ele>576.0</ele><time>2026-04-29T09:14:09.999Z</time></trkpt><trkpt lat="41.20364020209561" lon="19.97965490336503"><ele>576.0</ele><time>2026-04-29T09:14:13.999Z</time></trkpt><trkpt lat="41.20372926874615" lon="19.97971150617309"><ele>576.0</ele><time>2026-04-29T09:14:15.999Z</time></trkpt><trkpt lat="41.203808919202864" lon="19.979856409147224"><ele>576.0</ele><time>2026-04-29T09:14:17.999Z</time></trkpt><trkpt lat="41.203924978272155" lon="19.98000733034697"><ele>576.0</ele><time>2026-04-29T09:14:19.999Z</time></trkpt><trkpt lat="41.20402294292982" lon="19.980046565975496"><ele>576.0</ele><time>2026-04-29T09:14:21.999Z</time></trkpt><trkpt lat="41.20409564656147" lon="19.98001091517214"><ele>576.0</ele><time>2026-04-29T09:14:22.999Z</time></trkpt><trkpt lat="41.204151206887765" lon="19.979825244160146"><ele>576.0</ele><time>2026-04-29T09:14:24.999Z</time></trkpt><trkpt lat="41.204098225251236" lon="19.979725303994197"><ele>576.0</ele><time>2026-04-29T09:14:25.999Z</time></trkpt><trkpt lat="41.20402374757653" lon="19.97975420012419"><ele>576.0</ele><time>2026-04-29T09:14:26.999Z</time></trkpt><trkpt lat="41.20390808296705" lon="19.979649238628436"><ele>576.0</ele><time>2026-04-29T09:14:28.999Z</time></trkpt><trkpt lat="41.203842520895705" lon="19.979554914083455"><ele>576.0</ele><time>2026-04-29T09:14:29.999Z</time></trkpt><trkpt lat="41.203813254231434" lon="19.979456324351833"><ele>576.0</ele><time>2026-04-29T09:14:30.999Z</time></trkpt><trkpt lat="41.203780998597445" lon="19.9793740417444"><ele>576.0</ele><time>2026-04-29T09:14:31.999Z</time></trkpt><trkpt lat="41.20381335547056" lon="19.979243044660933"><ele>576.0</ele><time>2026-04-29T09:14:33.999Z</time></trkpt><trkpt lat="41.20381150625038" lon="19.97915458979258"><ele>576.0</ele><time>2026-04-29T09:14:34.999Z</time></trkpt><trkpt lat="41.20379288968279" lon="19.97907274923527"><ele>578.0</ele><time>2026-04-29T09:14:35.999Z</time></trkpt><trkpt lat="41.203851273351496" lon="19.978981807964185"><ele>580.0</ele><time>2026-04-29T09:14:36.999Z</time></trkpt><trkpt lat="41.203866174020945" lon="19.97888772960584"><ele>582.0</ele><time>2026-04-29T09:14:37.999Z</time></trkpt><trkpt lat="41.20384017327776" lon="19.97877261215973"><ele>584.0</ele><time>2026-04-29T09:14:38.999Z</time></trkpt><trkpt lat="41.203742458288254" lon="19.978712672152394"><ele>586.0</ele><time>2026-04-29T09:14:39.999Z</time></trkpt><trkpt lat="41.20373287769433" lon="19.978623810183482"><ele>588.0</ele><time>2026-04-29T09:14:40.999Z</time></trkpt><trkpt lat="41.20373116714747" lon="19.97852458997274"><ele>588.0</ele><time>2026-04-29T09:14:41.999Z</time></trkpt><trkpt lat="41.20373237963559" lon="19.978389085083233"><ele>588.0</ele><time>2026-04-29T09:14:43.999Z</time></trkpt><trkpt lat="41.20380728756267" lon="19.978280005094167"><ele>588.0</ele><time>2026-04-29T09:14:45.999Z</time></trkpt><trkpt lat="41.20387269817649" lon="19.97828098246354"><ele>588.0</ele><time>2026-04-29T09:14:47.999Z</time></trkpt><trkpt lat="41.20398901577386" lon="19.97833955538214"><ele>588.0</ele><time>2026-04-29T09:14:51.999Z</time></trkpt><trkpt lat="41.20406785596999" lon="19.978358058660202"><ele>591.1666666666666</ele><time>2026-04-29T09:14:52.999Z</time></trkpt><trkpt lat="41.204187309935016" lon="19.978408457551495"><ele>594.3333333333334</ele><time>2026-04-29T09:14:54.999Z</time></trkpt><trkpt lat="41.20424706016534" lon="19.97849978137016"><ele>597.5</ele><time>2026-04-29T09:14:57.999Z</time></trkpt><trkpt lat="41.204301859695235" lon="19.978553931127166"><ele>600.6666666666667</ele><time>2026-04-29T09:15:00Z</time></trkpt><trkpt lat="41.20439785998117" lon="19.978571475841324"><ele>603.8333333333334</ele><time>2026-04-29T09:15:03Z</time></trkpt><trkpt lat="41.20444680071669" lon="19.978633763896816"><ele>607.0</ele><time>2026-04-29T09:15:05Z</time></trkpt><trkpt lat="41.20450386624853" lon="19.978717169000497"><ele>607.0</ele><time>2026-04-29T09:15:07Z</time></trkpt><trkpt lat="41.20456092714956" lon="19.97879916921261"><ele>607.0</ele><time>2026-04-29T09:15:09Z</time></trkpt><trkpt lat="41.204611270601674" lon="19.978871516016312"><ele>607.0</ele><time>2026-04-29T09:15:11Z</time></trkpt><trkpt lat="41.20467835670151" lon="19.978949659271592"><ele>607.0</ele><time>2026-04-29T09:15:13Z</time></trkpt><trkpt lat="41.204768240266695" lon="19.979004083362604"><ele>607.0</ele><time>2026-04-29T09:15:15Z</time></trkpt><trkpt lat="41.204882660898" lon="19.97898748081702"><ele>609.3333333333334</ele><time>2026-04-29T09:15:17Z</time></trkpt><trkpt lat="41.20497189689839" lon="19.978936553773377"><ele>611.6666666666667</ele><time>2026-04-29T09:15:19Z</time></trkpt><trkpt lat="41.20505021866948" lon="19.978894320088795"><ele>614.0</ele><time>2026-04-29T09:15:43Z</time></trkpt><trkpt lat="41.20511213912804" lon="19.97887543056474"><ele>616.3333333333334</ele><time>2026-04-29T09:15:44Z</time></trkpt><trkpt lat="41.205243338047666" lon="19.978872213951718"><ele>618.6666666666666</ele><time>2026-04-29T09:15:46Z</time></trkpt><trkpt lat="41.20531099181717" lon="19.9788936290192"><ele>621.0</ele><time>2026-04-29T09:15:47Z</time></trkpt><trkpt lat="41.205389233374824" lon="19.978926410568075"><ele>621.0</ele><time>2026-04-29T09:15:48Z</time></trkpt><trkpt lat="41.205462364231984" lon="19.978959595758052"><ele>621.0</ele><time>2026-04-29T09:15:49Z</time></trkpt><trkpt lat="41.205540614336634" lon="19.97899204702941"><ele>621.0</ele><time>2026-04-29T09:15:50Z</time></trkpt><trkpt lat="41.20561289381783" lon="19.979023770609025"><ele>621.0</ele><time>2026-04-29T09:15:51Z</time></trkpt><trkpt lat="41.20568823140188" lon="19.97901216981506"><ele>621.0</ele><time>2026-04-29T09:15:52Z</time></trkpt><trkpt lat="41.20575657750251" lon="19.979005048019186"><ele>621.0</ele><time>2026-04-29T09:15:53Z</time></trkpt><trkpt lat="41.20587529395066" lon="19.978952902217724"><ele>621.0</ele><time>2026-04-29T09:15:55Z</time></trkpt><trkpt lat="41.205918544709704" lon="19.97885768191157"><ele>621.0</ele><time>2026-04-29T09:15:55.999Z</time></trkpt><trkpt lat="41.205970839868165" lon="19.978807764245246"><ele>621.0</ele><time>2026-04-29T09:15:56.999Z</time></trkpt><trkpt lat="41.206060002103115" lon="19.978674240512095"><ele>621.0</ele><time>2026-04-29T09:15:58.999Z</time></trkpt><trkpt lat="41.20615508068287" lon="19.978544469957725"><ele>621.0</ele><time>2026-04-29T09:16:00.999Z</time></trkpt><trkpt lat="41.206204300268915" lon="19.978485502214156"><ele>621.0</ele><time>2026-04-29T09:16:01.999Z</time></trkpt><trkpt lat="41.206317363945175" lon="19.978415970838427"><ele>621.0</ele><time>2026-04-29T09:16:03.999Z</time></trkpt><trkpt lat="41.20637567363537" lon="19.97837448455051"><ele>621.0</ele><time>2026-04-29T09:16:04.999Z</time></trkpt><trkpt lat="41.20643395202329" lon="19.978333058045962"><ele>621.0</ele><time>2026-04-29T09:16:05.999Z</time></trkpt><trkpt lat="41.20654104759731" lon="19.978290391864764"><ele>621.0</ele><time>2026-04-29T09:16:07.999Z</time></trkpt><trkpt lat="41.20662682960695" lon="19.97836070777383"><ele>620.1666666666666</ele><time>2026-04-29T09:16:09.999Z</time></trkpt><trkpt lat="41.20667838756531" lon="19.97842808978282"><ele>619.3333333333334</ele><time>2026-04-29T09:16:10.999Z</time></trkpt><trkpt lat="41.20673577694936" lon="19.978510068525264"><ele>618.5</ele><time>2026-04-29T09:16:11.999Z</time></trkpt><trkpt lat="41.20680513631313" lon="19.978587866227034"><ele>617.6666666666667</ele><time>2026-04-29T09:16:12.999Z</time></trkpt><trkpt lat="41.20685042370812" lon="19.97867099650103"><ele>616.8333333333334</ele><time>2026-04-29T09:16:13.999Z</time></trkpt><trkpt lat="41.20689276110656" lon="19.978747846021825"><ele>616.0</ele><time>2026-04-29T09:16:14.999Z</time></trkpt><trkpt lat="41.20694494989675" lon="19.978836030574865"><ele>616.0</ele><time>2026-04-29T09:16:15.999Z</time></trkpt><trkpt lat="41.20700877086948" lon="19.97891319265233"><ele>616.0</ele><time>2026-04-29T09:16:16.999Z</time></trkpt><trkpt lat="41.20708379648225" lon="19.97897129127771"><ele>616.0</ele><time>2026-04-29T09:16:17.999Z</time></trkpt><trkpt lat="41.20716256930916" lon="19.97901203602412"><ele>616.0</ele><time>2026-04-29T09:16:18.999Z</time></trkpt><trkpt lat="41.207235229126326" lon="19.97903171153556"><ele>616.0</ele><time>2026-04-29T09:16:19.999Z</time></trkpt><trkpt lat="41.20729794344348" lon="19.979023564267216"><ele>616.0</ele><time>2026-04-29T09:16:20.999Z</time></trkpt><trkpt lat="41.207415935669495" lon="19.978955519973965"><ele>614.6</ele><time>2026-04-29T09:16:22.999Z</time></trkpt><trkpt lat="41.20747687877467" lon="19.97889375221644"><ele>613.2</ele><time>2026-04-29T09:16:23.999Z</time></trkpt><trkpt lat="41.207547462320946" lon="19.978817022137363"><ele>611.8</ele><time>2026-04-29T09:16:24.999Z</time></trkpt><trkpt lat="41.20758453643261" lon="19.978674663670848"><ele>610.4</ele><time>2026-04-29T09:16:25.999Z</time></trkpt><trkpt lat="41.20766770219977" lon="19.978589527093902"><ele>609.0</ele><time>2026-04-29T09:16:26.999Z</time></trkpt><trkpt lat="41.207726242111136" lon="19.97850639787264"><ele>609.0</ele><time>2026-04-29T09:16:27.999Z</time></trkpt><trkpt lat="41.20781326422905" lon="19.978364282925764"><ele>609.0</ele><time>2026-04-29T09:16:29.999Z</time></trkpt><trkpt lat="41.207867981564135" lon="19.97829929987552"><ele>609.0</ele><time>2026-04-29T09:16:30.999Z</time></trkpt><trkpt lat="41.207939511255034" lon="19.978231997283157"><ele>609.0</ele><time>2026-04-29T09:16:31.999Z</time></trkpt><trkpt lat="41.20799165927226" lon="19.97815289169886"><ele>609.0</ele><time>2026-04-29T09:16:32.999Z</time></trkpt><trkpt lat="41.207999803160334" lon="19.97801838797922"><ele>607.6</ele><time>2026-04-29T09:16:33.999Z</time></trkpt><trkpt lat="41.20801906556465" lon="19.977916949374098"><ele>606.2</ele><time>2026-04-29T09:16:35Z</time></trkpt><trkpt lat="41.20805530783532" lon="19.97774190493929"><ele>604.8000000000001</ele><time>2026-04-29T09:16:37Z</time></trkpt><trkpt lat="41.20806231417589" lon="19.97764537425904"><ele>603.4</ele><time>2026-04-29T09:16:38Z</time></trkpt><trkpt lat="41.208130765702485" lon="19.97759252648781"><ele>602.0</ele><time>2026-04-29T09:16:39Z</time></trkpt><trkpt lat="41.20820409760734" lon="19.977476086102886"><ele>602.0</ele><time>2026-04-29T09:16:41Z</time></trkpt><trkpt lat="41.20824311249363" lon="19.97732825464511"><ele>602.0</ele><time>2026-04-29T09:16:43Z</time></trkpt><trkpt lat="41.20828524115776" lon="19.977170456298015"><ele>602.0</ele><time>2026-04-29T09:16:45Z</time></trkpt><trkpt lat="41.20828581088372" lon="19.977081398969766"><ele>602.0</ele><time>2026-04-29T09:16:46Z</time></trkpt><trkpt lat="41.20834022564773" lon="19.97703504718901"><ele>602.0</ele><time>2026-04-29T09:16:47Z</time></trkpt><trkpt lat="41.20839911725681" lon="19.976906929214298"><ele>602.0</ele><time>2026-04-29T09:16:49Z</time></trkpt><trkpt lat="41.2084764909392" lon="19.976796139552928"><ele>602.0</ele><time>2026-04-29T09:16:51Z</time></trkpt><trkpt lat="41.20851066107057" lon="19.97671326749725"><ele>602.0</ele><time>2026-04-29T09:24:02Z</time></trkpt><trkpt lat="41.208560814555604" lon="19.976655165790437"><ele>602.0</ele><time>2026-04-29T09:27:27Z</time></trkpt><trkpt lat="41.20862985818792" lon="19.976698761777087"><ele>602.0</ele><time>2026-04-29T09:27:29Z</time></trkpt><trkpt lat="41.208691458449515" lon="19.976721627827743"><ele>602.0</ele><time>2026-04-29T09:27:31Z</time></trkpt><trkpt lat="41.20875836822723" lon="19.976749490848267"><ele>602.0</ele><time>2026-04-29T09:27:34Z</time></trkpt><trkpt lat="41.2088273889814" lon="19.976788405626184"><ele>602.0</ele><time>2026-04-29T09:27:37Z</time></trkpt><trkpt lat="41.208898078283354" lon="19.97682826115647"><ele>602.0</ele><time>2026-04-29T09:27:40Z</time></trkpt><trkpt lat="41.20898447852366" lon="19.976879997202456"><ele>602.0</ele><time>2026-04-29T09:27:43Z</time></trkpt><trkpt lat="41.20904821850215" lon="19.976920569725685"><ele>602.0</ele><time>2026-04-29T09:27:45Z</time></trkpt><trkpt lat="41.209130377168286" lon="19.97697315332387"><ele>602.0</ele><time>2026-04-29T09:27:47Z</time></trkpt><trkpt lat="41.20920218106842" lon="19.97701898505967"><ele>599.5</ele><time>2026-04-29T09:27:49Z</time></trkpt><trkpt lat="41.209279707384795" lon="19.977069856670663"><ele>597.0</ele><time>2026-04-29T09:27:51Z</time></trkpt><trkpt lat="41.209370565946315" lon="19.977085631149617"><ele>594.5</ele><time>2026-04-29T09:27:53Z</time></trkpt><trkpt lat="41.20945795673641" lon="19.977100803548762"><ele>592.0</ele><time>2026-04-29T09:27:55Z</time></trkpt><trkpt lat="41.20951817557748" lon="19.97706139295136"><ele>589.5</ele><time>2026-04-29T09:27:56Z</time></trkpt><trkpt lat="41.20959013537318" lon="19.977036920840806"><ele>587.0</ele><time>2026-04-29T09:27:58Z</time></trkpt><trkpt lat="41.20967949772935" lon="19.976993761264296"><ele>587.0</ele><time>2026-04-29T09:28:00Z</time></trkpt><trkpt lat="41.20974785861524" lon="19.977090519918228"><ele>587.0</ele><time>2026-04-29T09:28:02Z</time></trkpt><trkpt lat="41.209855905578465" lon="19.97715878730299"><ele>587.0</ele><time>2026-04-29T09:28:04Z</time></trkpt><trkpt lat="41.20991233629206" lon="19.97719716990384"><ele>587.0</ele><time>2026-04-29T09:28:05Z</time></trkpt><trkpt lat="41.209968459892956" lon="19.977237634133495"><ele>587.0</ele><time>2026-04-29T09:28:06Z</time></trkpt><trkpt lat="41.21002709499154" lon="19.977279788584525"><ele>587.0</ele><time>2026-04-29T09:28:07Z</time></trkpt><trkpt lat="41.21009148300915" lon="19.977325396766886"><ele>584.6666666666666</ele><time>2026-04-29T09:28:08Z</time></trkpt><trkpt lat="41.21016352889901" lon="19.977376520451806"><ele>582.3333333333333</ele><time>2026-04-29T09:28:09Z</time></trkpt><trkpt lat="41.210231465603556" lon="19.977424756578703"><ele>580.0</ele><time>2026-04-29T09:28:10Z</time></trkpt><trkpt lat="41.21029431085432" lon="19.97746937770507"><ele>577.6666666666666</ele><time>2026-04-29T09:28:11Z</time></trkpt><trkpt lat="41.210365136181544" lon="19.97751225387075"><ele>575.3333333333334</ele><time>2026-04-29T09:28:12Z</time></trkpt><trkpt lat="41.210437344229" lon="19.977555238449238"><ele>573.0</ele><time>2026-04-29T09:28:13Z</time></trkpt><trkpt lat="41.21050363573053" lon="19.977594563324157"><ele>572.8333333333334</ele><time>2026-04-29T09:28:14Z</time></trkpt><trkpt lat="41.210618626647225" lon="19.977663804342363"><ele>572.6666666666666</ele><time>2026-04-29T09:28:16Z</time></trkpt><trkpt lat="41.21068125490126" lon="19.97770151535214"><ele>572.5</ele><time>2026-04-29T09:28:17Z</time></trkpt><trkpt lat="41.210735841224086" lon="19.977749145837773"><ele>572.3333333333333</ele><time>2026-04-29T09:28:18Z</time></trkpt><trkpt lat="41.21082525077144" lon="19.97781628187569"><ele>572.1666666666666</ele><time>2026-04-29T09:28:20Z</time></trkpt><trkpt lat="41.210886890421335" lon="19.977862566029874"><ele>572.0</ele><time>2026-04-29T09:28:22Z</time></trkpt><trkpt lat="41.21094274136836" lon="19.977904503536408"><ele>569.8333333333333</ele><time>2026-04-29T09:28:24Z</time></trkpt><trkpt lat="41.21102138302893" lon="19.97796355418869"><ele>567.6666666666666</ele><time>2026-04-29T09:28:27Z</time></trkpt><trkpt lat="41.211096460149264" lon="19.978018410980788"><ele>565.5</ele><time>2026-04-29T09:28:30Z</time></trkpt><trkpt lat="41.21115565733455" lon="19.978054834454504"><ele>563.3333333333334</ele><time>2026-04-29T09:28:32Z</time></trkpt><trkpt lat="41.21123682717867" lon="19.978104777490454"><ele>561.1666666666667</ele><time>2026-04-29T09:28:35Z</time></trkpt><trkpt lat="41.21129593174736" lon="19.97814088133696"><ele>559.0</ele><time>2026-04-29T09:28:37Z</time></trkpt><trkpt lat="41.211392676421646" lon="19.978185988416346"><ele>559.0</ele><time>2026-04-29T09:28:40Z</time></trkpt><trkpt lat="41.2114767669563" lon="19.9781667130533"><ele>559.0</ele><time>2026-04-29T09:28:42Z</time></trkpt><trkpt lat="41.21155433158067" lon="19.978141650748483"><ele>559.0</ele><time>2026-04-29T09:28:44Z</time></trkpt><trkpt lat="41.21163887779428" lon="19.978106801031405"><ele>559.0</ele><time>2026-04-29T09:28:46Z</time></trkpt><trkpt lat="41.211702642725136" lon="19.97814313891393"><ele>559.0</ele><time>2026-04-29T09:28:48Z</time></trkpt><trkpt lat="41.211777752856584" lon="19.97817859846729"><ele>559.0</ele><time>2026-04-29T09:28:51Z</time></trkpt><trkpt lat="41.211766903052904" lon="19.978284389770984"><ele>557.2</ele><time>2026-04-29T09:28:54Z</time></trkpt><trkpt lat="41.21170993074754" lon="19.97837119804621"><ele>555.4</ele><time>2026-04-29T09:28:56Z</time></trkpt><trkpt lat="41.21167844319107" lon="19.978464884082037"><ele>553.6</ele><time>2026-04-29T09:28:58Z</time></trkpt><trkpt lat="41.21169017050909" lon="19.97858513328247"><ele>551.8</ele><time>2026-04-29T09:29:00Z</time></trkpt><trkpt lat="41.211826964064684" lon="19.978639501298822"><ele>550.0</ele><time>2026-04-29T09:29:02Z</time></trkpt><trkpt lat="41.21190282423373" lon="19.978657658004582"><ele>550.0</ele><time>2026-04-29T09:29:03Z</time></trkpt><trkpt lat="41.21199287617109" lon="19.978680598804353"><ele>550.0</ele><time>2026-04-29T09:29:04Z</time></trkpt><trkpt lat="41.21207762411777" lon="19.97870218887164"><ele>550.0</ele><time>2026-04-29T09:29:05Z</time></trkpt><trkpt lat="41.21218782628077" lon="19.978757201690286"><ele>550.0</ele><time>2026-04-29T09:29:07Z</time></trkpt><trkpt lat="41.21226357692114" lon="19.97883829441753"><ele>550.0</ele><time>2026-04-29T09:29:09Z</time></trkpt><trkpt lat="41.21229344232054" lon="19.978956721910727"><ele>550.0</ele><time>2026-04-29T09:29:11Z</time></trkpt><trkpt lat="41.21226906708352" lon="19.979061000059048"><ele>550.0</ele><time>2026-04-29T09:29:12Z</time></trkpt><trkpt lat="41.21226197807436" lon="19.979163580407544"><ele>550.0</ele><time>2026-04-29T09:29:13Z</time></trkpt><trkpt lat="41.21228212056544" lon="19.979311335569758"><ele>550.0</ele><time>2026-04-29T09:29:15Z</time></trkpt><trkpt lat="41.212374482342135" lon="19.979364475754494"><ele>550.0</ele><time>2026-04-29T09:29:16Z</time></trkpt><trkpt lat="41.212464759078486" lon="19.979397598310733"><ele>549.1666666666667</ele><time>2026-04-29T09:29:17Z</time></trkpt><trkpt lat="41.21254004121036" lon="19.97944219305142"><ele>548.3333333333334</ele><time>2026-04-29T09:29:18Z</time></trkpt><trkpt lat="41.212632702550145" lon="19.97951829504711"><ele>547.5</ele><time>2026-04-29T09:29:20Z</time></trkpt><trkpt lat="41.21270441804603" lon="19.979526598197445"><ele>546.6666666666666</ele><time>2026-04-29T09:29:21Z</time></trkpt><trkpt lat="41.212782766281386" lon="19.979501761045427"><ele>545.8333333333333</ele><time>2026-04-29T09:29:22Z</time></trkpt><trkpt lat="41.21286400170038" lon="19.979471515936464"><ele>545.0</ele><time>2026-04-29T09:29:23Z</time></trkpt><trkpt lat="41.2129479522849" lon="19.979431118441745"><ele>545.0</ele><time>2026-04-29T09:29:24Z</time></trkpt><trkpt lat="41.21303114369567" lon="19.979391092562736"><ele>545.0</ele><time>2026-04-29T09:29:25Z</time></trkpt><trkpt lat="41.213103610740305" lon="19.979373145999396"><ele>545.0</ele><time>2026-04-29T09:29:26Z</time></trkpt><trkpt lat="41.2131784854897" lon="19.97935050023898"><ele>545.0</ele><time>2026-04-29T09:29:27Z</time></trkpt><trkpt lat="41.21325057996024" lon="19.979326219448495"><ele>545.0</ele><time>2026-04-29T09:29:28Z</time></trkpt><trkpt lat="41.213315575380456" lon="19.97931044861588"><ele>545.0</ele><time>2026-04-29T09:29:29Z</time></trkpt><trkpt lat="41.213382575849955" lon="19.979291857532086"><ele>545.0</ele><time>2026-04-29T09:29:30Z</time></trkpt><trkpt lat="41.21344719271102" lon="19.979273927996765"><ele>541.2</ele><time>2026-04-29T09:29:31Z</time></trkpt><trkpt lat="41.21354477988265" lon="19.97933272180087"><ele>537.4</ele><time>2026-04-29T09:29:33Z</time></trkpt><trkpt lat="41.21361681330853" lon="19.979406732701086"><ele>533.6</ele><time>2026-04-29T09:29:35Z</time></trkpt><trkpt lat="41.21359066058225" lon="19.979574687586354"><ele>529.8</ele><time>2026-04-29T09:29:37Z</time></trkpt><trkpt lat="41.213547924296755" lon="19.97967910730012"><ele>526.0</ele><time>2026-04-29T09:29:38Z</time></trkpt><trkpt lat="41.21351697263367" lon="19.979771958761486"><ele>526.0</ele><time>2026-04-29T09:29:39Z</time></trkpt><trkpt lat="41.21349952378958" lon="19.979866556157894"><ele>526.0</ele><time>2026-04-29T09:29:40Z</time></trkpt><trkpt lat="41.21350534490727" lon="19.979951911983484"><ele>526.0</ele><time>2026-04-29T09:29:41Z</time></trkpt><trkpt lat="41.2135115168639" lon="19.980052512879205"><ele>526.0</ele><time>2026-04-29T09:29:42Z</time></trkpt><trkpt lat="41.21357147491771" lon="19.980126283732066"><ele>526.0</ele><time>2026-04-29T09:29:43Z</time></trkpt><trkpt lat="41.213642887692274" lon="19.980219994879473"><ele>526.0</ele><time>2026-04-29T09:29:45Z</time></trkpt><trkpt lat="41.21371112988739" lon="19.980267002257882"><ele>526.5</ele><time>2026-04-29T09:29:46Z</time></trkpt><trkpt lat="41.21379019189708" lon="19.980342840650863"><ele>527.0</ele><time>2026-04-29T09:29:47Z</time></trkpt><trkpt lat="41.21386340688006" lon="19.9804019495397"><ele>527.5</ele><time>2026-04-29T09:29:48Z</time></trkpt><trkpt lat="41.21391840249048" lon="19.98045425869601"><ele>528.0</ele><time>2026-04-29T09:29:49Z</time></trkpt><trkpt lat="41.21398078854671" lon="19.980513529169325"><ele>528.5</ele><time>2026-04-29T09:29:50Z</time></trkpt><trkpt lat="41.214033107155956" lon="19.98056455054321"><ele>529.0</ele><time>2026-04-29T09:29:51Z</time></trkpt><trkpt lat="41.214094069760236" lon="19.980618948649127"><ele>527.1428571428571</ele><time>2026-04-29T09:29:52Z</time></trkpt><trkpt lat="41.214131145891045" lon="19.980715238979208"><ele>525.2857142857142</ele><time>2026-04-29T09:29:53Z</time></trkpt><trkpt lat="41.21416814741631" lon="19.980801660390526"><ele>523.4285714285713</ele><time>2026-04-29T09:29:54Z</time></trkpt><trkpt lat="41.21420065243187" lon="19.98087980529459"><ele>521.5714285714286</ele><time>2026-04-29T09:29:55Z</time></trkpt><trkpt lat="41.214231582144215" lon="19.98095386196823"><ele>519.7142857142857</ele><time>2026-04-29T09:29:56Z</time></trkpt><trkpt lat="41.21426093656868" lon="19.981038433656604"><ele>517.8571428571428</ele><time>2026-04-29T09:29:57Z</time></trkpt><trkpt lat="41.214291586100224" lon="19.981112425246042"><ele>516.0</ele><time>2026-04-29T09:29:58Z</time></trkpt><trkpt lat="41.214363291133026" lon="19.981246411541036"><ele>516.0</ele><time>2026-04-29T09:30:00Z</time></trkpt><trkpt lat="41.21443038264165" lon="19.981266601648013"><ele>516.0</ele><time>2026-04-29T09:30:01Z</time></trkpt><trkpt lat="41.214511515116754" lon="19.98130398005351"><ele>516.0</ele><time>2026-04-29T09:30:02Z</time></trkpt><trkpt lat="41.21461991238597" lon="19.98133865149476"><ele>516.0</ele><time>2026-04-29T09:30:03Z</time></trkpt><trkpt lat="41.214728172711766" lon="19.981372637510937"><ele>516.0</ele><time>2026-04-29T09:30:04Z</time></trkpt><trkpt lat="41.21481866150927" lon="19.98140812059905"><ele>514.2</ele><time>2026-04-29T09:30:05Z</time></trkpt><trkpt lat="41.21491010237918" lon="19.981440086021156"><ele>512.4000000000001</ele><time>2026-04-29T09:30:06Z</time></trkpt><trkpt lat="41.21501374275076" lon="19.98146390532353"><ele>510.6</ele><time>2026-04-29T09:30:07Z</time></trkpt><trkpt lat="41.215111564225275" lon="19.98146732695408"><ele>508.8</ele><time>2026-04-29T09:30:08Z</time></trkpt><trkpt lat="41.21518036181047" lon="19.981457688033355"><ele>507.0</ele><time>2026-04-29T09:30:09Z</time></trkpt><trkpt lat="41.215287337622826" lon="19.981488625876068"><ele>507.0</ele><time>2026-04-29T09:30:11Z</time></trkpt><trkpt lat="41.21538593760641" lon="19.981491921820023"><ele>507.00000000000006</ele><time>2026-04-29T09:30:13Z</time></trkpt><trkpt lat="41.21547512581733" lon="19.98147713779701"><ele>507.00000000000006</ele><time>2026-04-29T09:30:15Z</time></trkpt><trkpt lat="41.2155292342036" lon="19.98136227028927"><ele>507.0</ele><time>2026-04-29T09:30:17Z</time></trkpt><trkpt lat="41.2155584973131" lon="19.98121369402949"><ele>507.0</ele><time>2026-04-29T09:30:19Z</time></trkpt><trkpt lat="41.21561115305503" lon="19.981102412763942"><ele>506.5</ele><time>2026-04-29T09:30:20.999Z</time></trkpt><trkpt lat="41.21568696978077" lon="19.980974049863278"><ele>506.0</ele><time>2026-04-29T09:30:22.999Z</time></trkpt><trkpt lat="41.21571151182192" lon="19.980877174950514"><ele>505.5</ele><time>2026-04-29T09:30:23.999Z</time></trkpt><trkpt lat="41.21571455668797" lon="19.980778797880347"><ele>505.0</ele><time>2026-04-29T09:30:24.999Z</time></trkpt><trkpt lat="41.21568742869578" lon="19.980668578046107"><ele>504.5</ele><time>2026-04-29T09:30:25.999Z</time></trkpt><trkpt lat="41.215662480939365" lon="19.980563274433393"><ele>504.0</ele><time>2026-04-29T09:30:26.999Z</time></trkpt><trkpt lat="41.21562514938114" lon="19.980398711157175"><ele>500.25</ele><time>2026-04-29T09:30:28.999Z</time></trkpt><trkpt lat="41.215682766453895" lon="19.980277193014157"><ele>496.5</ele><time>2026-04-29T09:30:30.999Z</time></trkpt><trkpt lat="41.21579953480653" lon="19.98024167669084"><ele>492.75</ele><time>2026-04-29T09:30:32.999Z</time></trkpt><trkpt lat="41.21580690815427" lon="19.980024278620665"><ele>489.0</ele><time>2026-04-29T09:30:34.999Z</time></trkpt><trkpt lat="41.21579830064294" lon="19.97989730460152"><ele>486.8333333333333</ele><time>2026-04-29T09:30:35.999Z</time></trkpt><trkpt lat="41.215789788249" lon="19.979773153051468"><ele>484.66666666666663</ele><time>2026-04-29T09:30:36.999Z</time></trkpt><trkpt lat="41.21578159317769" lon="19.97965826718271"><ele>482.5</ele><time>2026-04-29T09:30:37.999Z</time></trkpt><trkpt lat="41.21577348843617" lon="19.979545011824467"><ele>480.3333333333333</ele><time>2026-04-29T09:30:38.999Z</time></trkpt><trkpt lat="41.215762727376394" lon="19.979438919938488"><ele>478.16666666666663</ele><time>2026-04-29T09:30:39.999Z</time></trkpt><trkpt lat="41.21574987203399" lon="19.9793383727812"><ele>476.0</ele><time>2026-04-29T09:30:40.999Z</time></trkpt><trkpt lat="41.215737481061545" lon="19.979241458397862"><ele>474.8333333333333</ele><time>2026-04-29T09:30:41.999Z</time></trkpt><trkpt lat="41.21568706601248" lon="19.979157241952088"><ele>473.66666666666663</ele><time>2026-04-29T09:30:42.999Z</time></trkpt><trkpt lat="41.21564162277898" lon="19.979078328122377"><ele>472.5</ele><time>2026-04-29T09:30:43.999Z</time></trkpt><trkpt lat="41.21560814854099" lon="19.978984886807947"><ele>471.33333333333337</ele><time>2026-04-29T09:30:44.999Z</time></trkpt><trkpt lat="41.215563102939406" lon="19.978895421203607"><ele>470.1666666666667</ele><time>2026-04-29T09:30:45.999Z</time></trkpt><trkpt lat="41.215520521131346" lon="19.97881398617852"><ele>469.0</ele><time>2026-04-29T09:30:46.999Z</time></trkpt><trkpt lat="41.21548663878958" lon="19.978733733901624"><ele>469.50000000000006</ele><time>2026-04-29T09:30:47.999Z</time></trkpt><trkpt lat="41.21546253640763" lon="19.978647172650486"><ele>470.0</ele><time>2026-04-29T09:30:48.999Z</time></trkpt><trkpt lat="41.21545095623981" lon="19.978558337006515"><ele>470.5</ele><time>2026-04-29T09:30:49.999Z</time></trkpt><trkpt lat="41.215441889724715" lon="19.978452692272892"><ele>471.0</ele><time>2026-04-29T09:30:50.999Z</time></trkpt><trkpt lat="41.2154299338107" lon="19.978344512017106"><ele>471.50000000000006</ele><time>2026-04-29T09:30:51.999Z</time></trkpt><trkpt lat="41.21540983186222" lon="19.978251290225973"><ele>472.0</ele><time>2026-04-29T09:30:52.999Z</time></trkpt><trkpt lat="41.21535719325379" lon="19.978126002664602"><ele>472.00000000000006</ele><time>2026-04-29T09:30:54.999Z</time></trkpt><trkpt lat="41.21531552636322" lon="19.97799991071036"><ele>472.0</ele><time>2026-04-29T09:30:56.999Z</time></trkpt><trkpt lat="41.21529360130594" lon="19.977894183333753"><ele>472.0</ele><time>2026-04-29T09:30:58.999Z</time></trkpt><trkpt lat="41.21526080157616" lon="19.97779405613649"><ele>472.0</ele><time>2026-04-29T09:31:00.999Z</time></trkpt><trkpt lat="41.21522747164391" lon="19.977692310299847"><ele>472.00000000000006</ele><time>2026-04-29T09:31:02.999Z</time></trkpt><trkpt lat="41.21519169108588" lon="19.977583081880532"><ele>472.0</ele><time>2026-04-29T09:31:04.999Z</time></trkpt><trkpt lat="41.21518949400813" lon="19.97747403087939"><ele>470.40000000000003</ele><time>2026-04-29T09:31:06.999Z</time></trkpt><trkpt lat="41.21521891049106" lon="19.97738127586237"><ele>468.80000000000007</ele><time>2026-04-29T09:31:08.999Z</time></trkpt><trkpt lat="41.21524312760005" lon="19.97723539079277"><ele>467.2</ele><time>2026-04-29T09:31:10.999Z</time></trkpt><trkpt lat="41.21523638809375" lon="19.977111429438036"><ele>465.6</ele><time>2026-04-29T09:31:12.999Z</time></trkpt><trkpt lat="41.215196652572146" lon="19.97693196622437"><ele>464.0</ele><time>2026-04-29T09:31:14.999Z</time></trkpt><trkpt lat="41.21516325311495" lon="19.976834013181893"><ele>463.99999999999994</ele><time>2026-04-29T09:31:15.999Z</time></trkpt><trkpt lat="41.21511849540092" lon="19.97672622492862"><ele>464.0</ele><time>2026-04-29T09:31:16.999Z</time></trkpt><trkpt lat="41.21507827658513" lon="19.976625853086368"><ele>464.0</ele><time>2026-04-29T09:31:17.999Z</time></trkpt><trkpt lat="41.21505191987229" lon="19.976532928593958"><ele>464.0</ele><time>2026-04-29T09:31:18.999Z</time></trkpt><trkpt lat="41.21502533064975" lon="19.97643590707883"><ele>463.99999999999994</ele><time>2026-04-29T09:31:19.999Z</time></trkpt><trkpt lat="41.21499023887575" lon="19.9763399268039"><ele>464.0</ele><time>2026-04-29T09:31:20.999Z</time></trkpt><trkpt lat="41.21495979823399" lon="19.976258692431422"><ele>464.57142857142867</ele><time>2026-04-29T09:31:21.999Z</time></trkpt><trkpt lat="41.21493101808367" lon="19.976181283788435"><ele>465.14285714285717</ele><time>2026-04-29T09:31:22.999Z</time></trkpt><trkpt lat="41.21488947140322" lon="19.97611497442899"><ele>465.7142857142858</ele><time>2026-04-29T09:31:23.999Z</time></trkpt><trkpt lat="41.21485749877068" lon="19.976030468822792"><ele>466.28571428571433</ele><time>2026-04-29T09:31:24.999Z</time></trkpt><trkpt lat="41.21481311248425" lon="19.975951787679584"><ele>466.8571428571429</ele><time>2026-04-29T09:31:25.999Z</time></trkpt><trkpt lat="41.21476894913136" lon="19.97585959734107"><ele>467.42857142857144</ele><time>2026-04-29T09:31:26.999Z</time></trkpt><trkpt lat="41.214716294312076" lon="19.975777461878575"><ele>468.0</ele><time>2026-04-29T09:31:27.999Z</time></trkpt><trkpt lat="41.21466550028435" lon="19.975694032209542"><ele>466.3333333333333</ele><time>2026-04-29T09:31:28.999Z</time></trkpt><trkpt lat="41.21461647264455" lon="19.975604209708802"><ele>464.66666666666663</ele><time>2026-04-29T09:31:29.999Z</time></trkpt><trkpt lat="41.214565667340814" lon="19.975535058289108"><ele>463.0</ele><time>2026-04-29T09:31:30.999Z</time></trkpt><trkpt lat="41.2145282721853" lon="19.975443330990355"><ele>461.3333333333333</ele><time>2026-04-29T09:31:31.999Z</time></trkpt><trkpt lat="41.21448354621973" lon="19.975348031434134"><ele>459.66666666666663</ele><time>2026-04-29T09:31:32.999Z</time></trkpt><trkpt lat="41.214434892309974" lon="19.975270126954562"><ele>458.0</ele><time>2026-04-29T09:31:33.999Z</time></trkpt><trkpt lat="41.21440302619223" lon="19.97518684509448"><ele>458.0</ele><time>2026-04-29T09:31:34.999Z</time></trkpt><trkpt lat="41.21436067217808" lon="19.975045602152946"><ele>457.99999999999994</ele><time>2026-04-29T09:31:36.999Z</time></trkpt><trkpt lat="41.21432652715937" lon="19.974888236343308"><ele>457.99999999999994</ele><time>2026-04-29T09:31:38.999Z</time></trkpt><trkpt lat="41.2143000232203" lon="19.974718568137945"><ele>458.0</ele><time>2026-04-29T09:31:40.999Z</time></trkpt><trkpt lat="41.21429239369907" lon="19.97462266512682"><ele>458.0</ele><time>2026-04-29T09:31:41.999Z</time></trkpt><trkpt lat="41.214284596784" lon="19.974517167729818"><ele>456.66666666666663</ele><time>2026-04-29T09:31:42.999Z</time></trkpt><trkpt lat="41.21427715009406" lon="19.97441561996973"><ele>455.3333333333333</ele><time>2026-04-29T09:31:43.999Z</time></trkpt><trkpt lat="41.21428111995703" lon="19.974331792032846"><ele>454.0</ele><time>2026-04-29T09:31:44.999Z</time></trkpt><trkpt lat="41.214289185943144" lon="19.9741959288199"><ele>452.66666666666663</ele><time>2026-04-29T09:31:46.999Z</time></trkpt><trkpt lat="41.214313972083474" lon="19.974057766915603"><ele>451.3333333333333</ele><time>2026-04-29T09:31:48.999Z</time></trkpt><trkpt lat="41.21432907734427" lon="19.973968034427504"><ele>450.0</ele><time>2026-04-29T09:31:49.999Z</time></trkpt><trkpt lat="41.21434109035297" lon="19.973879303274593"><ele>449.8333333333333</ele><time>2026-04-29T09:31:50.999Z</time></trkpt><trkpt lat="41.21435351156443" lon="19.97378659661354"><ele>449.66666666666663</ele><time>2026-04-29T09:31:51.999Z</time></trkpt><trkpt lat="41.21434279459539" lon="19.973662335039585"><ele>449.5</ele><time>2026-04-29T09:31:52.999Z</time></trkpt><trkpt lat="41.214333101451025" lon="19.973561110412735"><ele>449.3333333333333</ele><time>2026-04-29T09:31:53.999Z</time></trkpt><trkpt lat="41.21431075436246" lon="19.973464079756116"><ele>449.16666666666663</ele><time>2026-04-29T09:31:54.999Z</time></trkpt><trkpt lat="41.214293680699356" lon="19.97337769714758"><ele>449.0</ele><time>2026-04-29T09:31:55.999Z</time></trkpt><trkpt lat="41.21427608546382" lon="19.97328639008971"><ele>449.0</ele><time>2026-04-29T09:31:56.999Z</time></trkpt><trkpt lat="41.21429796327028" lon="19.973126146564073"><ele>449.0</ele><time>2026-04-29T09:31:58.999Z</time></trkpt><trkpt lat="41.2143699205039" lon="19.97298733881602"><ele>449.0</ele><time>2026-04-29T09:32:00.999Z</time></trkpt><trkpt lat="41.21441031263578" lon="19.97289854708881"><ele>449.0</ele><time>2026-04-29T09:32:01.999Z</time></trkpt><trkpt lat="41.21445424649343" lon="19.972817413053267"><ele>449.0</ele><time>2026-04-29T09:32:02.999Z</time></trkpt><trkpt lat="41.21449960625902" lon="19.97273180122298"><ele>448.99999999999994</ele><time>2026-04-29T09:32:03.999Z</time></trkpt><trkpt lat="41.21454272802959" lon="19.972615426513215"><ele>449.0</ele><time>2026-04-29T09:32:04.999Z</time></trkpt><trkpt lat="41.21456952950774" lon="19.972507219502027"><ele>449.0</ele><time>2026-04-29T09:32:05.999Z</time></trkpt><trkpt lat="41.21459635014688" lon="19.972399718271692"><ele>449.0</ele><time>2026-04-29T09:32:06.999Z</time></trkpt><trkpt lat="41.21462207251432" lon="19.972282601693127"><ele>448.99999999999994</ele><time>2026-04-29T09:32:07.999Z</time></trkpt><trkpt lat="41.21464263667718" lon="19.972167903817883"><ele>449.0</ele><time>2026-04-29T09:32:08.999Z</time></trkpt><trkpt lat="41.21466140602967" lon="19.972063466959092"><ele>448.3333333333333</ele><time>2026-04-29T09:32:09.999Z</time></trkpt><trkpt lat="41.21467923819032" lon="19.971964257983913"><ele>447.66666666666663</ele><time>2026-04-29T09:32:10.999Z</time></trkpt><trkpt lat="41.21469626718151" lon="19.971869516521544"><ele>447.0</ele><time>2026-04-29T09:32:11.999Z</time></trkpt><trkpt lat="41.21471926554323" lon="19.97177875211693"><ele>446.33333333333337</ele><time>2026-04-29T09:32:12.999Z</time></trkpt><trkpt lat="41.21474123340111" lon="19.971688678446515"><ele>445.6666666666667</ele><time>2026-04-29T09:32:13.999Z</time></trkpt><trkpt lat="41.21476230908104" lon="19.971602262869688"><ele>445.0</ele><time>2026-04-29T09:32:14.999Z</time></trkpt><trkpt lat="41.21479266063551" lon="19.971473274498955"><ele>445.00000000000006</ele><time>2026-04-29T09:32:16.999Z</time></trkpt><trkpt lat="41.214813866303906" lon="19.971381024976377"><ele>445.0</ele><time>2026-04-29T09:32:19.999Z</time></trkpt><trkpt lat="41.21479974305217" lon="19.9712984353665"><ele>445.0</ele><time>2026-04-29T09:32:23.999Z</time></trkpt><trkpt lat="41.214827643956475" lon="19.97121914583821"><ele>445.0</ele><time>2026-04-29T09:32:34.999Z</time></trkpt><trkpt lat="41.21491612045484" lon="19.971192515440226"><ele>445.00000000000006</ele><time>2026-04-29T09:32:38.999Z</time></trkpt><trkpt lat="41.214995413289444" lon="19.97115273001102"><ele>445.0</ele><time>2026-04-29T09:32:40.999Z</time></trkpt><trkpt lat="41.2150857635299" lon="19.971102833552116"><ele>442.50000000000006</ele><time>2026-04-29T09:32:42.999Z</time></trkpt><trkpt lat="41.21513985419212" lon="19.971037916061217"><ele>440.0</ele><time>2026-04-29T09:32:43.999Z</time></trkpt><trkpt lat="41.215184629939344" lon="19.970954065700337"><ele>437.5</ele><time>2026-04-29T09:32:44.999Z</time></trkpt><trkpt lat="41.21522448187647" lon="19.970867164739253"><ele>435.0</ele><time>2026-04-29T09:32:45.999Z</time></trkpt><trkpt lat="41.215260906597315" lon="19.97076557513657"><ele>432.50000000000006</ele><time>2026-04-29T09:32:46.999Z</time></trkpt><trkpt lat="41.21529977485914" lon="19.970666751514692"><ele>430.0</ele><time>2026-04-29T09:32:47.999Z</time></trkpt><trkpt lat="41.21534499992286" lon="19.97057797062244"><ele>429.6666666666667</ele><time>2026-04-29T09:32:48.999Z</time></trkpt><trkpt lat="41.21539143598384" lon="19.970493453703565"><ele>429.33333333333337</ele><time>2026-04-29T09:32:49.999Z</time></trkpt><trkpt lat="41.21543792632598" lon="19.97041104705019"><ele>429.0</ele><time>2026-04-29T09:32:50.999Z</time></trkpt><trkpt lat="41.215481926590876" lon="19.97033398814737"><ele>428.66666666666663</ele><time>2026-04-29T09:32:51.999Z</time></trkpt><trkpt lat="41.21552221731956" lon="19.97026256369059"><ele>428.3333333333333</ele><time>2026-04-29T09:32:52.999Z</time></trkpt><trkpt lat="41.21556346300234" lon="19.970175211696706"><ele>428.0</ele><time>2026-04-29T09:32:53.999Z</time></trkpt><trkpt lat="41.21556975856637" lon="19.97006049511371"><ele>427.79999999999995</ele><time>2026-04-29T09:32:54.999Z</time></trkpt><trkpt lat="41.21552734312861" lon="19.969968582943423"><ele>427.59999999999997</ele><time>2026-04-29T09:32:55.999Z</time></trkpt><trkpt lat="41.21553007274597" lon="19.969884477601266"><ele>427.40000000000003</ele><time>2026-04-29T09:32:56.999Z</time></trkpt><trkpt lat="41.21553736172504" lon="19.969755749457214"><ele>427.20000000000005</ele><time>2026-04-29T09:32:58.999Z</time></trkpt><trkpt lat="41.2156170531665" lon="19.969723505046577"><ele>427.0</ele><time>2026-04-29T09:33:00.999Z</time></trkpt><trkpt lat="41.215674816896595" lon="19.969881244692733"><ele>425.2857142857143</ele><time>2026-04-29T09:33:02.999Z</time></trkpt><trkpt lat="41.21571771803074" lon="19.96997161787027"><ele>423.57142857142856</ele><time>2026-04-29T09:33:03.999Z</time></trkpt><trkpt lat="41.21575715983515" lon="19.97006855597073"><ele>421.8571428571429</ele><time>2026-04-29T09:33:04.999Z</time></trkpt><trkpt lat="41.21579989199015" lon="19.970150800625703"><ele>420.1428571428571</ele><time>2026-04-29T09:33:05.999Z</time></trkpt><trkpt lat="41.2158381259092" lon="19.970221288729345"><ele>418.42857142857144</ele><time>2026-04-29T09:33:06.999Z</time></trkpt><trkpt lat="41.2158783957814" lon="19.970292303633297"><ele>416.7142857142857</ele><time>2026-04-29T09:33:07.999Z</time></trkpt><trkpt lat="41.21591877792474" lon="19.970364929045203"><ele>415.0</ele><time>2026-04-29T09:33:08.999Z</time></trkpt><trkpt lat="41.215964027612905" lon="19.970518324800118"><ele>415.0</ele><time>2026-04-29T09:33:10.999Z</time></trkpt><trkpt lat="41.215989859368186" lon="19.970672735566996"><ele>415.0</ele><time>2026-04-29T09:33:12.999Z</time></trkpt><trkpt lat="41.21603782465321" lon="19.970794748111757"><ele>415.0</ele><time>2026-04-29T09:33:14.999Z</time></trkpt><trkpt lat="41.21616370994415" lon="19.970779897138677"><ele>415.0</ele><time>2026-04-29T09:33:18.999Z</time></trkpt><trkpt lat="41.21627981129911" lon="19.970711614456043"><ele>415.00000000000006</ele><time>2026-04-29T09:33:20.999Z</time></trkpt><trkpt lat="41.21634668417084" lon="19.97066913463619"><ele>415.0</ele><time>2026-04-29T09:33:21.999Z</time></trkpt><trkpt lat="41.21641889044922" lon="19.970627260440455"><ele>415.0</ele><time>2026-04-29T09:33:22.999Z</time></trkpt><trkpt lat="41.21649864888475" lon="19.97060544733368"><ele>415.0</ele><time>2026-04-29T09:33:23.999Z</time></trkpt><trkpt lat="41.21658790169259" lon="19.970597454032173"><ele>415.00000000000006</ele><time>2026-04-29T09:33:24.999Z</time></trkpt><trkpt lat="41.216676210247876" lon="19.970596913576482"><ele>415.0</ele><time>2026-04-29T09:33:25.999Z</time></trkpt><trkpt lat="41.21676808140281" lon="19.970597806862077"><ele>413.6666666666667</ele><time>2026-04-29T09:33:26.999Z</time></trkpt><trkpt lat="41.216863084361655" lon="19.970598730602273"><ele>412.33333333333337</ele><time>2026-04-29T09:33:27.999Z</time></trkpt><trkpt lat="41.21695676604737" lon="19.97060014896801"><ele>411.0</ele><time>2026-04-29T09:33:28.999Z</time></trkpt><trkpt lat="41.217042506902054" lon="19.9706185430945"><ele>409.66666666666663</ele><time>2026-04-29T09:33:29.999Z</time></trkpt><trkpt lat="41.21711037789358" lon="19.970674079141467"><ele>408.3333333333333</ele><time>2026-04-29T09:33:30.999Z</time></trkpt><trkpt lat="41.21717877842756" lon="19.970722397202458"><ele>407.0</ele><time>2026-04-29T09:33:31.999Z</time></trkpt><trkpt lat="41.21724308334322" lon="19.970750758073844"><ele>407.0</ele><time>2026-04-29T09:33:32.999Z</time></trkpt><trkpt lat="41.2173103155898" lon="19.97074218651758"><ele>407.0</ele><time>2026-04-29T09:33:33.999Z</time></trkpt><trkpt lat="41.21736500538617" lon="19.970670281642157"><ele>407.0</ele><time>2026-04-29T09:33:34.999Z</time></trkpt><trkpt lat="41.217383093465365" lon="19.970566464227858"><ele>407.0</ele><time>2026-04-29T09:33:35.999Z</time></trkpt><trkpt lat="41.21741386251205" lon="19.97041929555887"><ele>407.0</ele><time>2026-04-29T09:33:37.999Z</time></trkpt><trkpt lat="41.217319411874776" lon="19.970330619790992"><ele>406.99999999999994</ele><time>2026-04-29T09:33:38.999Z</time></trkpt><trkpt lat="41.21721104173578" lon="19.970253664958495"><ele>407.0</ele><time>2026-04-29T09:33:40.999Z</time></trkpt><trkpt lat="41.21715117996919" lon="19.97022103542587"><ele>407.0</ele><time>2026-04-29T09:33:41.999Z</time></trkpt><trkpt lat="41.21709015069262" lon="19.970173980343496"><ele>407.0</ele><time>2026-04-29T09:33:42.999Z</time></trkpt><trkpt lat="41.21702135391638" lon="19.970117014593395"><ele>406.99999999999994</ele><time>2026-04-29T09:33:43.999Z</time></trkpt><trkpt lat="41.21695233384891" lon="19.97007700144953"><ele>407.0</ele><time>2026-04-29T09:33:44.999Z</time></trkpt><trkpt lat="41.216881542261184" lon="19.970052597714286"><ele>406.99999999999994</ele><time>2026-04-29T09:33:45.999Z</time></trkpt><trkpt lat="41.21681679347716" lon="19.97003564024081"><ele>407.0</ele><time>2026-04-29T09:33:46.999Z</time></trkpt><trkpt lat="41.21673755566164" lon="19.969950177031386"><ele>407.0</ele><time>2026-04-29T09:33:48.999Z</time></trkpt><trkpt lat="41.216777860704354" lon="19.969811142077226"><ele>407.0</ele><time>2026-04-29T09:33:50.999Z</time></trkpt><trkpt lat="41.21681968443697" lon="19.969745481694993"><ele>406.99999999999994</ele><time>2026-04-29T09:33:51.999Z</time></trkpt><trkpt lat="41.216868132122315" lon="19.969664954145824"><ele>407.0</ele><time>2026-04-29T09:33:52.999Z</time></trkpt><trkpt lat="41.21691759273027" lon="19.969594056277973"><ele>405.8333333333333</ele><time>2026-04-29T09:33:53.999Z</time></trkpt><trkpt lat="41.216967875907045" lon="19.969528251062"><ele>404.66666666666663</ele><time>2026-04-29T09:33:54.999Z</time></trkpt><trkpt lat="41.21701328688099" lon="19.969468822206593"><ele>403.5</ele><time>2026-04-29T09:33:55.999Z</time></trkpt><trkpt lat="41.21708260092639" lon="19.969395886919678"><ele>402.33333333333337</ele><time>2026-04-29T09:33:57.999Z</time></trkpt><trkpt lat="41.21715574180257" lon="19.969320062492923"><ele>401.1666666666667</ele><time>2026-04-29T09:33:59.999Z</time></trkpt><trkpt lat="41.21723807297251" lon="19.969273002831383"><ele>400.0</ele><time>2026-04-29T09:34:01.999Z</time></trkpt><trkpt lat="41.21735312344954" lon="19.969333735102122"><ele>399.33333333333337</ele><time>2026-04-29T09:34:03.999Z</time></trkpt><trkpt lat="41.217398917921244" lon="19.969404515860344"><ele>398.6666666666667</ele><time>2026-04-29T09:34:04.999Z</time></trkpt><trkpt lat="41.21743590521322" lon="19.96948562594612"><ele>398.0</ele><time>2026-04-29T09:34:05.999Z</time></trkpt><trkpt lat="41.217467336179524" lon="19.969558349545622"><ele>397.33333333333337</ele><time>2026-04-29T09:34:06.999Z</time></trkpt><trkpt lat="41.21754950323436" lon="19.969641166360166"><ele>396.6666666666667</ele><time>2026-04-29T09:34:08.999Z</time></trkpt><trkpt lat="41.21764308810722" lon="19.969678083265777"><ele>396.0</ele><time>2026-04-29T09:34:10.999Z</time></trkpt><trkpt lat="41.21774108753602" lon="19.969662174278962"><ele>396.0</ele><time>2026-04-29T09:34:12.999Z</time></trkpt><trkpt lat="41.21785341809822" lon="19.969632097008347"><ele>396.0</ele><time>2026-04-29T09:34:14.999Z</time></trkpt><trkpt lat="41.21795062116333" lon="19.96960607083165"><ele>396.0</ele><time>2026-04-29T09:34:16.999Z</time></trkpt><trkpt lat="41.21803438987719" lon="19.969615387839944"><ele>396.0</ele><time>2026-04-29T09:34:18.999Z</time></trkpt><trkpt lat="41.21809421580705" lon="19.96964343306961"><ele>396.0</ele><time>2026-04-29T09:34:19.999Z</time></trkpt><trkpt lat="41.218199735200045" lon="19.969710986947028"><ele>393.8</ele><time>2026-04-29T09:34:21.999Z</time></trkpt><trkpt lat="41.218308939469786" lon="19.969765369332887"><ele>391.6</ele><time>2026-04-29T09:34:23.999Z</time></trkpt><trkpt lat="41.21838796946454" lon="19.969784278019794"><ele>389.4</ele><time>2026-04-29T09:34:24.999Z</time></trkpt><trkpt lat="41.21848340489233" lon="19.969799477592424"><ele>387.2</ele><time>2026-04-29T09:34:25.999Z</time></trkpt><trkpt lat="41.218583074365775" lon="19.969794710491936"><ele>385.0</ele><time>2026-04-29T09:34:26.999Z</time></trkpt><trkpt lat="41.21866913124461" lon="19.969813653152364"><ele>385.0</ele><time>2026-04-29T09:34:27.999Z</time></trkpt><trkpt lat="41.21873818686469" lon="19.969842748940945"><ele>385.0</ele><time>2026-04-29T09:34:28.999Z</time></trkpt><trkpt lat="41.21886941495695" lon="19.969815621936775"><ele>385.0</ele><time>2026-04-29T09:34:30.999Z</time></trkpt><trkpt lat="41.218919287564425" lon="19.96973654591167"><ele>385.0</ele><time>2026-04-29T09:34:31.999Z</time></trkpt><trkpt lat="41.218959911208394" lon="19.969640644020163"><ele>385.0</ele><time>2026-04-29T09:34:32.999Z</time></trkpt><trkpt lat="41.21899557853327" lon="19.96953706151193"><ele>383.50000000000006</ele><time>2026-04-29T09:34:33.999Z</time></trkpt><trkpt lat="41.21904145391328" lon="19.96943710757734"><ele>382.0</ele><time>2026-04-29T09:34:34.999Z</time></trkpt><trkpt lat="41.219085615365884" lon="19.969349138663155"><ele>380.5</ele><time>2026-04-29T09:34:35.999Z</time></trkpt><trkpt lat="41.219130129614385" lon="19.96927392943434"><ele>379.0</ele><time>2026-04-29T09:34:36.999Z</time></trkpt><trkpt lat="41.21920866528603" lon="19.969250533348113"><ele>377.5</ele><time>2026-04-29T09:34:37.999Z</time></trkpt><trkpt lat="41.219297337512906" lon="19.969262918997384"><ele>376.0</ele><time>2026-04-29T09:34:38.999Z</time></trkpt><trkpt lat="41.21938803140841" lon="19.96929451691015"><ele>376.0</ele><time>2026-04-29T09:34:39.999Z</time></trkpt><trkpt lat="41.21945265046399" lon="19.969307953116413"><ele>376.0</ele><time>2026-04-29T09:34:40.999Z</time></trkpt><trkpt lat="41.219525812551595" lon="19.969368638945422"><ele>376.0</ele><time>2026-04-29T09:34:41.999Z</time></trkpt><trkpt lat="41.2195939205896" lon="19.969401239592532"><ele>376.0</ele><time>2026-04-29T09:34:42.999Z</time></trkpt><trkpt lat="41.21962050092384" lon="19.96950729920526"><ele>376.0</ele><time>2026-04-29T09:34:43.999Z</time></trkpt><trkpt lat="41.2196459525474" lon="19.96961700243341"><ele>376.0</ele><time>2026-04-29T09:34:44.999Z</time></trkpt><trkpt lat="41.219687609226106" lon="19.96974224157692"><ele>376.0</ele><time>2026-04-29T09:34:45.999Z</time></trkpt><trkpt lat="41.21971082936801" lon="19.96988296830188"><ele>376.0</ele><time>2026-04-29T09:34:46.999Z</time></trkpt><trkpt lat="41.219725351213974" lon="19.97001685626785"><ele>376.0</ele><time>2026-04-29T09:34:47.999Z</time></trkpt><trkpt lat="41.2197518730643" lon="19.970119661951806"><ele>376.0</ele><time>2026-04-29T09:34:48.998Z</time></trkpt><trkpt lat="41.21977487118979" lon="19.970281406425133"><ele>376.0</ele><time>2026-04-29T09:34:50.998Z</time></trkpt><trkpt lat="41.21985032460687" lon="19.970302483360545"><ele>374.0</ele><time>2026-04-29T09:34:51.998Z</time></trkpt><trkpt lat="41.21989340476525" lon="19.970232049425967"><ele>372.0</ele><time>2026-04-29T09:34:52.998Z</time></trkpt><trkpt lat="41.21994504161848" lon="19.970070805170188"><ele>370.0</ele><time>2026-04-29T09:34:54.999Z</time></trkpt><trkpt lat="41.21995186786445" lon="19.96996309462074"><ele>368.0</ele><time>2026-04-29T09:34:55.999Z</time></trkpt><trkpt lat="41.21995281952733" lon="19.96983038918701"><ele>366.0</ele><time>2026-04-29T09:34:56.999Z</time></trkpt><trkpt lat="41.21996005699953" lon="19.96966024649304"><ele>365.25</ele><time>2026-04-29T09:34:57.999Z</time></trkpt><trkpt lat="41.219956079481804" lon="19.9694635168906"><ele>364.5</ele><time>2026-04-29T09:34:58.999Z</time></trkpt><trkpt lat="41.219951494100556" lon="19.96928460459629"><ele>363.75</ele><time>2026-04-29T09:34:59.999Z</time></trkpt><trkpt lat="41.219966840500284" lon="19.969121895015274"><ele>363.0</ele><time>2026-04-29T09:35:00.999Z</time></trkpt><trkpt lat="41.21996232279326" lon="19.968974840805963"><ele>364.0</ele><time>2026-04-29T09:35:01.999Z</time></trkpt><trkpt lat="41.219938628863524" lon="19.968843754225414"><ele>365.0</ele><time>2026-04-29T09:35:02.999Z</time></trkpt><trkpt lat="41.219869432019884" lon="19.968722055707936"><ele>366.0</ele><time>2026-04-29T09:35:03.999Z</time></trkpt><trkpt lat="41.21975133615248" lon="19.96859370976498"><ele>367.0</ele><time>2026-04-29T09:35:04.999Z</time></trkpt><trkpt lat="41.21959443187988" lon="19.968460962209473"><ele>364.75</ele><time>2026-04-29T09:35:05.999Z</time></trkpt><trkpt lat="41.219472245664974" lon="19.96831402070712"><ele>362.5</ele><time>2026-04-29T09:35:06.999Z</time></trkpt><trkpt lat="41.21938629420879" lon="19.968196801850038"><ele>360.25</ele><time>2026-04-29T09:35:07.999Z</time></trkpt><trkpt lat="41.21931037688509" lon="19.968093657924094"><ele>358.0</ele><time>2026-04-29T09:35:08.999Z</time></trkpt><trkpt lat="41.21923256669164" lon="19.96801331515269"><ele>358.0</ele><time>2026-04-29T09:35:09.999Z</time></trkpt><trkpt lat="41.21930012018653" lon="19.967865977733403"><ele>358.0</ele><time>2026-04-29T09:35:10.999Z</time></trkpt><trkpt lat="41.219295207665624" lon="19.967726005200497"><ele>358.0</ele><time>2026-04-29T09:35:11.999Z</time></trkpt><trkpt lat="41.21929402264517" lon="19.967572815070387"><ele>358.0</ele><time>2026-04-29T09:35:12.999Z</time></trkpt><trkpt lat="41.21922932115552" lon="19.967435622586713"><ele>357.0</ele><time>2026-04-29T09:35:13.999Z</time></trkpt><trkpt lat="41.21913923876296" lon="19.96733678814603"><ele>356.0</ele><time>2026-04-29T09:35:14.999Z</time></trkpt><trkpt lat="41.21900813084975" lon="19.96726189745199"><ele>355.0</ele><time>2026-04-29T09:35:15.999Z</time></trkpt><trkpt lat="41.21884908661499" lon="19.96717827560551"><ele>354.0</ele><time>2026-04-29T09:35:16.999Z</time></trkpt><trkpt lat="41.218724934419555" lon="19.967108384732317"><ele>354.0</ele><time>2026-04-29T09:35:17.999Z</time></trkpt><trkpt lat="41.21863737222955" lon="19.967030224862715"><ele>354.0</ele><time>2026-04-29T09:35:18.999Z</time></trkpt><trkpt lat="41.21856451972085" lon="19.966924187462844"><ele>354.0</ele><time>2026-04-29T09:35:19.999Z</time></trkpt><trkpt lat="41.218552847041906" lon="19.966720875684704"><ele>354.0</ele><time>2026-04-29T09:35:20.999Z</time></trkpt><trkpt lat="41.21851825183396" lon="19.966524058330304"><ele>352.0</ele><time>2026-04-29T09:35:21.999Z</time></trkpt><trkpt lat="41.218522124649745" lon="19.966360050231927"><ele>350.0</ele><time>2026-04-29T09:35:22.999Z</time></trkpt><trkpt lat="41.218541617506425" lon="19.96619766180548"><ele>348.0</ele><time>2026-04-29T09:35:23.999Z</time></trkpt><trkpt lat="41.21856810369679" lon="19.966090696282475"><ele>346.0</ele><time>2026-04-29T09:35:24.999Z</time></trkpt><trkpt lat="41.218571639773764" lon="19.96600309657019"><ele>344.0</ele><time>2026-04-29T09:35:25.999Z</time></trkpt><trkpt lat="41.21871456099931" lon="19.96603493131012"><ele>344.0</ele><time>2026-04-29T09:35:27.999Z</time></trkpt><trkpt lat="41.21881014091967" lon="19.966103092264117"><ele>344.0</ele><time>2026-04-29T09:35:28.999Z</time></trkpt><trkpt lat="41.218890537164086" lon="19.966088097129568"><ele>344.0</ele><time>2026-04-29T09:35:29.999Z</time></trkpt><trkpt lat="41.21895290438282" lon="19.96596715640002"><ele>344.0</ele><time>2026-04-29T09:35:30.999Z</time></trkpt><trkpt lat="41.218966061511544" lon="19.965816509810544"><ele>344.0</ele><time>2026-04-29T09:35:31.999Z</time></trkpt><trkpt lat="41.21892857367789" lon="19.965632893850856"><ele>343.6666666666667</ele><time>2026-04-29T09:35:32.999Z</time></trkpt><trkpt lat="41.21887057601966" lon="19.965402532835537"><ele>343.3333333333333</ele><time>2026-04-29T09:35:33.999Z</time></trkpt><trkpt lat="41.218800638187886" lon="19.96513584303854"><ele>343.0</ele><time>2026-04-29T09:35:34.999Z</time></trkpt><trkpt lat="41.218729444336034" lon="19.96492690956087"><ele>341.25</ele><time>2026-04-29T09:35:35.999Z</time></trkpt><trkpt lat="41.21870402053585" lon="19.964751865642985"><ele>339.5</ele><time>2026-04-29T09:35:36.999Z</time></trkpt><trkpt lat="41.21873953050706" lon="19.96460314838192"><ele>337.75</ele><time>2026-04-29T09:35:37.999Z</time></trkpt><trkpt lat="41.21876673635537" lon="19.96443020745531"><ele>336.0</ele><time>2026-04-29T09:35:38.999Z</time></trkpt><trkpt lat="41.218774291651805" lon="19.964230153674706"><ele>335.0</ele><time>2026-04-29T09:35:39.999Z</time></trkpt><trkpt lat="41.21878995165364" lon="19.964037901590466"><ele>334.0</ele><time>2026-04-29T09:35:40.999Z</time></trkpt><trkpt lat="41.21878845211413" lon="19.96389956784542"><ele>333.0</ele><time>2026-04-29T09:35:41.999Z</time></trkpt><trkpt lat="41.21874338667677" lon="19.963747104263195"><ele>332.0</ele><time>2026-04-29T09:35:42.999Z</time></trkpt><trkpt lat="41.21864124995372" lon="19.963590986098264"><ele>332.0</ele><time>2026-04-29T09:35:43.999Z</time></trkpt><trkpt lat="41.21853332312324" lon="19.963457760094652"><ele>332.0</ele><time>2026-04-29T09:35:44.999Z</time></trkpt><trkpt lat="41.218440830229646" lon="19.96336013745581"><ele>332.0</ele><time>2026-04-29T09:35:45.999Z</time></trkpt><trkpt lat="41.21835335613744" lon="19.963290247375976"><ele>332.0</ele><time>2026-04-29T09:35:46.999Z</time></trkpt><trkpt lat="41.21836905711366" lon="19.96316187176583"><ele>330.40000000000003</ele><time>2026-04-29T09:35:48.999Z</time></trkpt><trkpt lat="41.21843592351555" lon="19.963141028225856"><ele>328.8</ele><time>2026-04-29T09:35:49.999Z</time></trkpt><trkpt lat="41.21853258709018" lon="19.963095946406035"><ele>327.2</ele><time>2026-04-29T09:35:50.999Z</time></trkpt><trkpt lat="41.218646665421375" lon="19.963132025709072"><ele>325.6</ele><time>2026-04-29T09:35:51.999Z</time></trkpt><trkpt lat="41.21873780870459" lon="19.963213980068065"><ele>324.0</ele><time>2026-04-29T09:35:52.999Z</time></trkpt><trkpt lat="41.218833814147615" lon="19.96329147769562"><ele>324.0</ele><time>2026-04-29T09:35:53.999Z</time></trkpt><trkpt lat="41.21891845848733" lon="19.96329782995752"><ele>324.0</ele><time>2026-04-29T09:35:54.999Z</time></trkpt><trkpt lat="41.21898296993446" lon="19.96326830767386"><ele>324.0</ele><time>2026-04-29T09:35:55.999Z</time></trkpt><trkpt lat="41.21901148508129" lon="19.963172111341457"><ele>324.0</ele><time>2026-04-29T09:35:56.999Z</time></trkpt><trkpt lat="41.21898706431125" lon="19.963056076994892"><ele>324.0</ele><time>2026-04-29T09:35:57.999Z</time></trkpt><trkpt lat="41.218922955843524" lon="19.96293012599297"><ele>324.0</ele><time>2026-04-29T09:35:58.999Z</time></trkpt><trkpt lat="41.21885836552404" lon="19.962797884151335"><ele>324.0</ele><time>2026-04-29T09:35:59.999Z</time></trkpt><trkpt lat="41.218816677554884" lon="19.96264789077461"><ele>324.0</ele><time>2026-04-29T09:36:00.999Z</time></trkpt><trkpt lat="41.218799769269125" lon="19.962550700739424"><ele>324.0</ele><time>2026-04-29T09:36:01.999Z</time></trkpt><trkpt lat="41.218797234905956" lon="19.962458013620143"><ele>324.0</ele><time>2026-04-29T09:36:02.999Z</time></trkpt><trkpt lat="41.218845476772614" lon="19.962370907058908"><ele>324.0</ele><time>2026-04-29T09:36:03.999Z</time></trkpt><trkpt lat="41.218963955020726" lon="19.96230752777386"><ele>319.8</ele><time>2026-04-29T09:36:04.999Z</time></trkpt><trkpt lat="41.219056828044536" lon="19.962230151710166"><ele>315.59999999999997</ele><time>2026-04-29T09:36:05.999Z</time></trkpt><trkpt lat="41.21911468794397" lon="19.96213398517575"><ele>311.4</ele><time>2026-04-29T09:36:06.999Z</time></trkpt><trkpt lat="41.2191499829102" lon="19.96202348826843"><ele>307.2</ele><time>2026-04-29T09:36:07.999Z</time></trkpt><trkpt lat="41.21917286827599" lon="19.9618930960651"><ele>303.0</ele><time>2026-04-29T09:36:08.999Z</time></trkpt><trkpt lat="41.219186831724635" lon="19.961728803212335"><ele>302.0</ele><time>2026-04-29T09:36:09.999Z</time></trkpt><trkpt lat="41.21921421291381" lon="19.96158083481714"><ele>301.0</ele><time>2026-04-29T09:36:10.999Z</time></trkpt><trkpt lat="41.21919252052544" lon="19.961449081878772"><ele>300.0</ele><time>2026-04-29T09:36:11.999Z</time></trkpt><trkpt lat="41.21919271821712" lon="19.961325825745902"><ele>299.0</ele><time>2026-04-29T09:36:12.999Z</time></trkpt><trkpt lat="41.219220182302884" lon="19.96122921907108"><ele>298.0</ele><time>2026-04-29T09:36:13.999Z</time></trkpt><trkpt lat="41.21929046360711" lon="19.961143063513905"><ele>298.0</ele><time>2026-04-29T09:36:14.999Z</time></trkpt><trkpt lat="41.21939173638717" lon="19.96107156312389"><ele>298.0</ele><time>2026-04-29T09:36:15.999Z</time></trkpt><trkpt lat="41.219498270151846" lon="19.96098870656524"><ele>298.0</ele><time>2026-04-29T09:36:16.999Z</time></trkpt><trkpt lat="41.21958759690566" lon="19.960861104555942"><ele>298.0</ele><time>2026-04-29T09:36:17.999Z</time></trkpt><trkpt lat="41.21965378085075" lon="19.960714293171403"><ele>296.0</ele><time>2026-04-29T09:36:18.999Z</time></trkpt><trkpt lat="41.219694745677806" lon="19.96058787733383"><ele>294.0</ele><time>2026-04-29T09:36:19.999Z</time></trkpt><trkpt lat="41.2197167793041" lon="19.96048519664832"><ele>292.0</ele><time>2026-04-29T09:36:20.999Z</time></trkpt><trkpt lat="41.21967693817263" lon="19.960328822441067"><ele>290.0</ele><time>2026-04-29T09:36:22.999Z</time></trkpt><trkpt lat="41.21951552330348" lon="19.960335372994223"><ele>290.0</ele><time>2026-04-29T09:36:24.999Z</time></trkpt><trkpt lat="41.21942145307939" lon="19.960335420666297"><ele>290.0</ele><time>2026-04-29T09:36:25.999Z</time></trkpt><trkpt lat="41.219327365033536" lon="19.960357038448436"><ele>290.0</ele><time>2026-04-29T09:36:26.999Z</time></trkpt><trkpt lat="41.21924400485894" lon="19.96037639788356"><ele>290.0</ele><time>2026-04-29T09:36:27.999Z</time></trkpt><trkpt lat="41.21917208793449" lon="19.96038026751797"><ele>290.0</ele><time>2026-04-29T09:36:28.999Z</time></trkpt><trkpt lat="41.219088404867406" lon="19.96034917634764"><ele>290.0</ele><time>2026-04-29T09:36:30.999Z</time></trkpt><trkpt lat="41.21907787007881" lon="19.96022709392341"><ele>290.0</ele><time>2026-04-29T09:36:32.999Z</time></trkpt><trkpt lat="41.21917036706511" lon="19.96008579713037"><ele>290.0</ele><time>2026-04-29T09:36:33.999Z</time></trkpt><trkpt lat="41.219255533732195" lon="19.959971967770443"><ele>290.0</ele><time>2026-04-29T09:36:34.999Z</time></trkpt><trkpt lat="41.2193005988591" lon="19.959830705236726"><ele>290.0</ele><time>2026-04-29T09:36:35.999Z</time></trkpt><trkpt lat="41.2193137366401" lon="19.959661967720244"><ele>289.0</ele><time>2026-04-29T09:36:36.999Z</time></trkpt><trkpt lat="41.21930960179803" lon="19.959461323789558"><ele>288.0</ele><time>2026-04-29T09:36:37.999Z</time></trkpt><trkpt lat="41.21928609283546" lon="19.959271165984312"><ele>287.0</ele><time>2026-04-29T09:36:38.999Z</time></trkpt><trkpt lat="41.219258180535014" lon="19.959138683489673"><ele>286.0</ele><time>2026-04-29T09:36:39.999Z</time></trkpt><trkpt lat="41.21923008727048" lon="19.959031253351107"><ele>286.0</ele><time>2026-04-29T09:36:40.999Z</time></trkpt><trkpt lat="41.21914809995554" lon="19.958945792182817"><ele>286.0</ele><time>2026-04-29T09:36:41.999Z</time></trkpt><trkpt lat="41.21902742594174" lon="19.9588997690006"><ele>286.0</ele><time>2026-04-29T09:36:42.999Z</time></trkpt><trkpt lat="41.2188936653628" lon="19.958816073246357"><ele>286.0</ele><time>2026-04-29T09:36:43.999Z</time></trkpt><trkpt lat="41.21878737697881" lon="19.958706817714912"><ele>288.0</ele><time>2026-04-29T09:36:44.999Z</time></trkpt><trkpt lat="41.218675520842915" lon="19.958540933207857"><ele>290.0</ele><time>2026-04-29T09:36:45.999Z</time></trkpt><trkpt lat="41.218591802230144" lon="19.95841717590806"><ele>292.0</ele><time>2026-04-29T09:36:46.999Z</time></trkpt><trkpt lat="41.218550423078206" lon="19.958339111297917"><ele>294.0</ele><time>2026-04-29T09:36:47.999Z</time></trkpt><trkpt lat="41.21855742791102" lon="19.958233688101803"><ele>296.0</ele><time>2026-04-29T09:36:49.999Z</time></trkpt><trkpt lat="41.21862788494374" lon="19.958187874913627"><ele>298.0</ele><time>2026-04-29T09:36:50.999Z</time></trkpt><trkpt lat="41.21873124698489" lon="19.95822892160803"><ele>300.0</ele><time>2026-04-29T09:36:51.999Z</time></trkpt><trkpt lat="41.218841067933056" lon="19.958273350547653"><ele>302.0</ele><time>2026-04-29T09:36:52.999Z</time></trkpt><trkpt lat="41.21897909546464" lon="19.958332248661726"><ele>304.0</ele><time>2026-04-29T09:36:53.999Z</time></trkpt><trkpt lat="41.21908158189991" lon="19.958412453838147"><ele>304.0</ele><time>2026-04-29T09:36:54.999Z</time></trkpt><trkpt lat="41.21914699112599" lon="19.958429472359477"><ele>304.0</ele><time>2026-04-29T09:36:55.999Z</time></trkpt><trkpt lat="41.21922380622587" lon="19.958286013683452"><ele>304.0</ele><time>2026-04-29T09:36:57.998Z</time></trkpt><trkpt lat="41.219166077047326" lon="19.95817272294663"><ele>304.0</ele><time>2026-04-29T09:36:58.998Z</time></trkpt><trkpt lat="41.219054908445756" lon="19.958116535651058"><ele>304.0</ele><time>2026-04-29T09:36:59.998Z</time></trkpt><trkpt lat="41.21893495754287" lon="19.95805795725257"><ele>304.0</ele><time>2026-04-29T09:37:00.998Z</time></trkpt><trkpt lat="41.21876596732106" lon="19.957976759187737"><ele>304.0</ele><time>2026-04-29T09:37:01.998Z</time></trkpt><trkpt lat="41.21860811054754" lon="19.957903013926273"><ele>304.0</ele><time>2026-04-29T09:37:02.998Z</time></trkpt><trkpt lat="41.21851688978439" lon="19.957880896009897"><ele>304.0</ele><time>2026-04-29T09:37:03.998Z</time></trkpt><trkpt lat="41.21850386410805" lon="19.957794852955576"><ele>304.0</ele><time>2026-04-29T09:37:04.998Z</time></trkpt><trkpt lat="41.2185574817705" lon="19.957745993967382"><ele>304.0</ele><time>2026-04-29T09:37:05.998Z</time></trkpt><trkpt lat="41.21869300845945" lon="19.957729332190873"><ele>304.0</ele><time>2026-04-29T09:37:07.999Z</time></trkpt><trkpt lat="41.21881405736865" lon="19.957807929545577"><ele>304.0</ele><time>2026-04-29T09:37:08.999Z</time></trkpt><trkpt lat="41.218958271367185" lon="19.957911461484336"><ele>303.75</ele><time>2026-04-29T09:37:09.999Z</time></trkpt><trkpt lat="41.21911289027982" lon="19.958015501069653"><ele>303.5</ele><time>2026-04-29T09:37:10.999Z</time></trkpt><trkpt lat="41.21924079447097" lon="19.958081227812134"><ele>303.25</ele><time>2026-04-29T09:37:11.999Z</time></trkpt><trkpt lat="41.219361037140395" lon="19.958120856586042"><ele>303.0</ele><time>2026-04-29T09:37:12.999Z</time></trkpt><trkpt lat="41.2194931554302" lon="19.95812975280357"><ele>303.0</ele><time>2026-04-29T09:37:13.999Z</time></trkpt><trkpt lat="41.21963852850574" lon="19.958100535038316"><ele>303.0</ele><time>2026-04-29T09:37:14.999Z</time></trkpt><trkpt lat="41.219778881099856" lon="19.958027090448596"><ele>303.0</ele><time>2026-04-29T09:37:15.999Z</time></trkpt><trkpt lat="41.21990940452296" lon="19.957901624336856"><ele>301.5</ele><time>2026-04-29T09:37:16.999Z</time></trkpt><trkpt lat="41.220007135435395" lon="19.957780533219193"><ele>300.0</ele><time>2026-04-29T09:37:17.999Z</time></trkpt><trkpt lat="41.220092458336524" lon="19.957703813090326"><ele>298.5</ele><time>2026-04-29T09:37:18.999Z</time></trkpt><trkpt lat="41.220095511700805" lon="19.957519668084803"><ele>297.0</ele><time>2026-04-29T09:37:19.999Z</time></trkpt><trkpt lat="41.22013218515352" lon="19.957296894724035"><ele>303.3333333333333</ele><time>2026-04-29T09:37:20.999Z</time></trkpt><trkpt lat="41.220156716899915" lon="19.957025040158893"><ele>309.66666666666663</ele><time>2026-04-29T09:37:21.999Z</time></trkpt><trkpt lat="41.22021428993829" lon="19.95682517328049"><ele>316.0</ele><time>2026-04-29T09:37:22.999Z</time></trkpt><trkpt lat="41.22025840831392" lon="19.956653913308802"><ele>318.5</ele><time>2026-04-29T09:37:23.999Z</time></trkpt><trkpt lat="41.22030128508078" lon="19.95652704870414"><ele>321.0</ele><time>2026-04-29T09:37:24.999Z</time></trkpt><trkpt lat="41.220282601939545" lon="19.956387985294626"><ele>323.5</ele><time>2026-04-29T09:37:25.999Z</time></trkpt><trkpt lat="41.220224748420684" lon="19.956216183148936"><ele>326.0</ele><time>2026-04-29T09:37:26.999Z</time></trkpt><trkpt lat="41.22016740063434" lon="19.955998652675085"><ele>326.0</ele><time>2026-04-29T09:37:27.999Z</time></trkpt><trkpt lat="41.220099971792024" lon="19.95583838674762"><ele>326.0</ele><time>2026-04-29T09:37:28.999Z</time></trkpt><trkpt lat="41.22006935340825" lon="19.955758195939154"><ele>326.0</ele><time>2026-04-29T09:37:29.999Z</time></trkpt><trkpt lat="41.21993556282244" lon="19.955771219107874"><ele>326.0</ele><time>2026-04-29T09:37:31.999Z</time></trkpt><trkpt lat="41.21989080325998" lon="19.955866996271457"><ele>326.0</ele><time>2026-04-29T09:37:32.999Z</time></trkpt><trkpt lat="41.219899937403476" lon="19.956009763049646"><ele>326.0</ele><time>2026-04-29T09:37:33.999Z</time></trkpt><trkpt lat="41.219944652156876" lon="19.95615975512338"><ele>326.0</ele><time>2026-04-29T09:37:34.999Z</time></trkpt><trkpt lat="41.22001081965812" lon="19.956311259766903"><ele>326.0</ele><time>2026-04-29T09:37:35.999Z</time></trkpt><trkpt lat="41.22004689279807" lon="19.95643318848358"><ele>326.0</ele><time>2026-04-29T09:37:36.999Z</time></trkpt><trkpt lat="41.220018094990245" lon="19.95653536177002"><ele>326.0</ele><time>2026-04-29T09:37:37.999Z</time></trkpt><trkpt lat="41.21993359618608" lon="19.956630663419432"><ele>324.6666666666667</ele><time>2026-04-29T09:37:38.999Z</time></trkpt><trkpt lat="41.219815311510274" lon="19.956705453717195"><ele>323.3333333333333</ele><time>2026-04-29T09:37:39.999Z</time></trkpt><trkpt lat="41.2196742224997" lon="19.956803308029365"><ele>322.0</ele><time>2026-04-29T09:37:40.999Z</time></trkpt><trkpt lat="41.21949867600834" lon="19.95695139938214"><ele>322.0</ele><time>2026-04-29T09:37:41.999Z</time></trkpt><trkpt lat="41.219353845117894" lon="19.957077614014686"><ele>322.0</ele><time>2026-04-29T09:37:42.999Z</time></trkpt><trkpt lat="41.219250248359515" lon="19.957141015542582"><ele>322.0</ele><time>2026-04-29T09:37:43.999Z</time></trkpt><trkpt lat="41.21913518697927" lon="19.957161834883774"><ele>322.0</ele><time>2026-04-29T09:37:44.999Z</time></trkpt><trkpt lat="41.21902024227135" lon="19.957084211245057"><ele>320.0</ele><time>2026-04-29T09:37:45.999Z</time></trkpt><trkpt lat="41.21889422254768" lon="19.95698497723853"><ele>318.0</ele><time>2026-04-29T09:37:46.999Z</time></trkpt><trkpt lat="41.21873391135528" lon="19.956867221868418"><ele>316.0</ele><time>2026-04-29T09:37:47.999Z</time></trkpt><trkpt lat="41.21853550341087" lon="19.956735330443742"><ele>320.0</ele><time>2026-04-29T09:37:48.999Z</time></trkpt><trkpt lat="41.21835363908621" lon="19.95662432269544"><ele>324.0</ele><time>2026-04-29T09:37:49.999Z</time></trkpt><trkpt lat="41.218211124294044" lon="19.956538580311932"><ele>328.0</ele><time>2026-04-29T09:37:50.999Z</time></trkpt><trkpt lat="41.21811043335569" lon="19.956367102088958"><ele>328.0</ele><time>2026-04-29T09:37:51.999Z</time></trkpt><trkpt lat="41.21800113390866" lon="19.956172163028093"><ele>328.0</ele><time>2026-04-29T09:37:52.999Z</time></trkpt><trkpt lat="41.21788680816755" lon="19.955970465936478"><ele>328.0</ele><time>2026-04-29T09:37:53.999Z</time></trkpt><trkpt lat="41.217753414373796" lon="19.955828982448974"><ele>334.66666666666663</ele><time>2026-04-29T09:37:54.999Z</time></trkpt><trkpt lat="41.21760293307573" lon="19.95571257186663"><ele>341.3333333333333</ele><time>2026-04-29T09:37:55.999Z</time></trkpt><trkpt lat="41.21748137206225" lon="19.95558478498902"><ele>348.0</ele><time>2026-04-29T09:37:56.999Z</time></trkpt><trkpt lat="41.21737905917149" lon="19.955486988376304"><ele>348.6666666666667</ele><time>2026-04-29T09:37:57.999Z</time></trkpt><trkpt lat="41.21724329711035" lon="19.9554436307719"><ele>349.33333333333337</ele><time>2026-04-29T09:37:58.999Z</time></trkpt><trkpt lat="41.21709204141363" lon="19.955441958798854"><ele>350.0</ele><time>2026-04-29T09:37:59.999Z</time></trkpt><trkpt lat="41.2169158462993" lon="19.955494425977683"><ele>350.0</ele><time>2026-04-29T09:38:00.999Z</time></trkpt><trkpt lat="41.216711888146435" lon="19.955570321737348"><ele>350.0</ele><time>2026-04-29T09:38:01.999Z</time></trkpt><trkpt lat="41.21648799865362" lon="19.955623662384788"><ele>350.0</ele><time>2026-04-29T09:38:02.999Z</time></trkpt><trkpt lat="41.2162320872599" lon="19.955645819338823"><ele>354.0</ele><time>2026-04-29T09:38:03.999Z</time></trkpt><trkpt lat="41.21601921445629" lon="19.95565840055942"><ele>358.0</ele><time>2026-04-29T09:38:04.999Z</time></trkpt><trkpt lat="41.21585474789126" lon="19.955666034082963"><ele>362.0</ele><time>2026-04-29T09:38:05.999Z</time></trkpt><trkpt lat="41.21571186678591" lon="19.955670932820137"><ele>364.0</ele><time>2026-04-29T09:38:06.999Z</time></trkpt><trkpt lat="41.21558776054824" lon="19.955673570641665"><ele>366.0</ele><time>2026-04-29T09:38:07.999Z</time></trkpt><trkpt lat="41.21547919045839" lon="19.955655129637695"><ele>368.0</ele><time>2026-04-29T09:38:08.999Z</time></trkpt><trkpt lat="41.21539151616014" lon="19.9555980063388"><ele>370.0</ele><time>2026-04-29T09:38:09.999Z</time></trkpt><trkpt lat="41.21535743108743" lon="19.95548026002974"><ele>372.0</ele><time>2026-04-29T09:38:10.999Z</time></trkpt><trkpt lat="41.215320029491906" lon="19.955362635714387"><ele>372.0</ele><time>2026-04-29T09:38:11.999Z</time></trkpt><trkpt lat="41.21535580721582" lon="19.955184369053224"><ele>372.0</ele><time>2026-04-29T09:38:12.999Z</time></trkpt><trkpt lat="41.21535088034204" lon="19.95498920507947"><ele>372.0</ele><time>2026-04-29T09:38:13.999Z</time></trkpt><trkpt lat="41.21538203452895" lon="19.954777031479832"><ele>372.0</ele><time>2026-04-29T09:38:14.999Z</time></trkpt><trkpt lat="41.215466191288535" lon="19.954649564327195"><ele>374.20000000000005</ele><time>2026-04-29T09:38:15.999Z</time></trkpt><trkpt lat="41.21551158286931" lon="19.954509075013483"><ele>376.4</ele><time>2026-04-29T09:38:16.999Z</time></trkpt><trkpt lat="41.21555702013851" lon="19.95436396771432"><ele>378.6</ele><time>2026-04-29T09:38:17.999Z</time></trkpt><trkpt lat="41.21561895872749" lon="19.954261815037054"><ele>380.79999999999995</ele><time>2026-04-29T09:38:18.999Z</time></trkpt><trkpt lat="41.21571179385143" lon="19.954192233928833"><ele>383.0</ele><time>2026-04-29T09:38:19.999Z</time></trkpt><trkpt lat="41.21583102133976" lon="19.95412076988572"><ele>383.0</ele><time>2026-04-29T09:38:20.999Z</time></trkpt><trkpt lat="41.21590388631987" lon="19.954042720706745"><ele>383.0</ele><time>2026-04-29T09:38:21.999Z</time></trkpt><trkpt lat="41.21591713797688" lon="19.953878569591083"><ele>383.0</ele><time>2026-04-29T09:38:22.999Z</time></trkpt><trkpt lat="41.215890198961254" lon="19.953705726900058"><ele>383.0</ele><time>2026-04-29T09:38:23.999Z</time></trkpt><trkpt lat="41.21588667758377" lon="19.95352106279005"><ele>384.75</ele><time>2026-04-29T09:38:24.999Z</time></trkpt><trkpt lat="41.215910848124004" lon="19.953317928203038"><ele>386.5</ele><time>2026-04-29T09:38:25.999Z</time></trkpt><trkpt lat="41.215931108761005" lon="19.953138240877315"><ele>388.25</ele><time>2026-04-29T09:38:26.999Z</time></trkpt><trkpt lat="41.21596439062494" lon="19.952950173418877"><ele>390.0</ele><time>2026-04-29T09:38:27.999Z</time></trkpt><trkpt lat="41.21600939618359" lon="19.952755813613987"><ele>390.0</ele><time>2026-04-29T09:38:28.999Z</time></trkpt><trkpt lat="41.216077966035726" lon="19.95258447404279"><ele>390.0</ele><time>2026-04-29T09:38:29.999Z</time></trkpt><trkpt lat="41.2161241974121" lon="19.952432258614394"><ele>390.0</ele><time>2026-04-29T09:38:30.999Z</time></trkpt><trkpt lat="41.216111994111074" lon="19.952232110820685"><ele>390.0</ele><time>2026-04-29T09:38:31.999Z</time></trkpt><trkpt lat="41.21609742138514" lon="19.952079156397236"><ele>391.2</ele><time>2026-04-29T09:38:32.999Z</time></trkpt><trkpt lat="41.216099265520285" lon="19.951980160043068"><ele>392.4</ele><time>2026-04-29T09:38:33.999Z</time></trkpt><trkpt lat="41.21605654733758" lon="19.95188219390164"><ele>393.6</ele><time>2026-04-29T09:38:34.999Z</time></trkpt><trkpt lat="41.21599581044952" lon="19.951767570518488"><ele>394.8</ele><time>2026-04-29T09:38:35.999Z</time></trkpt><trkpt lat="41.21589359963558" lon="19.95166849000182"><ele>396.0</ele><time>2026-04-29T09:38:36.999Z</time></trkpt><trkpt lat="41.21580412007229" lon="19.951519300622"><ele>396.5</ele><time>2026-04-29T09:38:37.999Z</time></trkpt><trkpt lat="41.215751717022044" lon="19.951375117573537"><ele>397.0</ele><time>2026-04-29T09:38:38.999Z</time></trkpt><trkpt lat="41.21575148118616" lon="19.951245533432605"><ele>397.5</ele><time>2026-04-29T09:38:39.999Z</time></trkpt><trkpt lat="41.21575154707113" lon="19.95105967774423"><ele>398.0</ele><time>2026-04-29T09:38:40.999Z</time></trkpt><trkpt lat="41.21577530573657" lon="19.950831160841823"><ele>398.0</ele><time>2026-04-29T09:38:41.999Z</time></trkpt><trkpt lat="41.21582130241044" lon="19.950555905297406"><ele>398.0</ele><time>2026-04-29T09:38:42.999Z</time></trkpt><trkpt lat="41.21585751914575" lon="19.950276608068506"><ele>398.0</ele><time>2026-04-29T09:38:43.999Z</time></trkpt><trkpt lat="41.21586598916467" lon="19.95005847687471"><ele>399.5</ele><time>2026-04-29T09:38:44.999Z</time></trkpt><trkpt lat="41.21589700057961" lon="19.949906391755416"><ele>401.0</ele><time>2026-04-29T09:38:45.999Z</time></trkpt><trkpt lat="41.215949010992695" lon="19.949783556677588"><ele>402.5</ele><time>2026-04-29T09:38:46.999Z</time></trkpt><trkpt lat="41.216065874580465" lon="19.949688544983246"><ele>404.0</ele><time>2026-04-29T09:38:47.999Z</time></trkpt><trkpt lat="41.21620904913589" lon="19.949606736462975"><ele>403.99999999999994</ele><time>2026-04-29T09:38:48.999Z</time></trkpt><trkpt lat="41.216332811647604" lon="19.9495175092474"><ele>404.0</ele><time>2026-04-29T09:38:49.999Z</time></trkpt><trkpt lat="41.21639776061411" lon="19.94943165099524"><ele>404.0</ele><time>2026-04-29T09:38:50.999Z</time></trkpt><trkpt lat="41.21642345852432" lon="19.94935404988238"><ele>404.0</ele><time>2026-04-29T09:38:51.999Z</time></trkpt><trkpt lat="41.216416854037426" lon="19.9492679259668"><ele>403.99999999999994</ele><time>2026-04-29T09:38:52.999Z</time></trkpt><trkpt lat="41.21642091269071" lon="19.949158872830033"><ele>404.0</ele><time>2026-04-29T09:38:54.999Z</time></trkpt><trkpt lat="41.216418325135635" lon="19.94906070312553"><ele>405.16666666666663</ele><time>2026-04-29T09:38:56.999Z</time></trkpt><trkpt lat="41.21644797886424" lon="19.94894754828878"><ele>406.3333333333333</ele><time>2026-04-29T09:38:58.999Z</time></trkpt><trkpt lat="41.216446240000664" lon="19.948830749599157"><ele>407.5</ele><time>2026-04-29T09:39:00.999Z</time></trkpt><trkpt lat="41.21645304319573" lon="19.948741396620292"><ele>408.66666666666663</ele><time>2026-04-29T09:39:02.999Z</time></trkpt><trkpt lat="41.216451196299424" lon="19.948628198481913"><ele>409.8333333333333</ele><time>2026-04-29T09:39:05.999Z</time></trkpt><trkpt lat="41.21646853124868" lon="19.94854175577629"><ele>411.0</ele><time>2026-04-29T09:39:07.999Z</time></trkpt><trkpt lat="41.21645741745377" lon="19.948408931136957"><ele>413.0</ele><time>2026-04-29T09:39:09.999Z</time></trkpt><trkpt lat="41.21646686942132" lon="19.948274123882697"><ele>415.0</ele><time>2026-04-29T09:39:10.999Z</time></trkpt><trkpt lat="41.21649480049814" lon="19.948120480087024"><ele>417.0</ele><time>2026-04-29T09:39:11.999Z</time></trkpt><trkpt lat="41.2165316367098" lon="19.947965325220867"><ele>419.0</ele><time>2026-04-29T09:39:12.999Z</time></trkpt><trkpt lat="41.216586310967756" lon="19.947842209320495"><ele>413.75</ele><time>2026-04-29T09:39:13.999Z</time></trkpt><trkpt lat="41.216642456818484" lon="19.94772796663317"><ele>408.5</ele><time>2026-04-29T09:39:14.999Z</time></trkpt><trkpt lat="41.21674716739294" lon="19.947647459638393"><ele>403.25</ele><time>2026-04-29T09:39:15.999Z</time></trkpt><trkpt lat="41.21687939372169" lon="19.947589513595315"><ele>398.0</ele><time>2026-04-29T09:39:16.999Z</time></trkpt><trkpt lat="41.21702739981975" lon="19.947551347067044"><ele>397.3333333333333</ele><time>2026-04-29T09:39:17.999Z</time></trkpt><trkpt lat="41.21720123038315" lon="19.94751437993483"><ele>396.66666666666663</ele><time>2026-04-29T09:39:18.999Z</time></trkpt><trkpt lat="41.21736729613149" lon="19.947480295394215"><ele>396.0</ele><time>2026-04-29T09:39:19.999Z</time></trkpt><trkpt lat="41.21751459045512" lon="19.947444826532777"><ele>396.0</ele><time>2026-04-29T09:39:20.999Z</time></trkpt><trkpt lat="41.217664217427085" lon="19.947408917817828"><ele>396.0</ele><time>2026-04-29T09:39:21.999Z</time></trkpt><trkpt lat="41.217806082591466" lon="19.947375073885127"><ele>396.0</ele><time>2026-04-29T09:39:22.999Z</time></trkpt><trkpt lat="41.2179308611597" lon="19.947345306124486"><ele>396.0</ele><time>2026-04-29T09:39:23.999Z</time></trkpt><trkpt lat="41.21804392047284" lon="19.947293231550482"><ele>394.5</ele><time>2026-04-29T09:39:24.999Z</time></trkpt><trkpt lat="41.21815642245113" lon="19.947218732158962"><ele>393.0</ele><time>2026-04-29T09:39:25.999Z</time></trkpt><trkpt lat="41.21824501003631" lon="19.947126496960312"><ele>391.5</ele><time>2026-04-29T09:39:26.999Z</time></trkpt><trkpt lat="41.21831190019218" lon="19.946984854762256"><ele>390.0</ele><time>2026-04-29T09:39:27.999Z</time></trkpt><trkpt lat="41.21836530032803" lon="19.946817638535006"><ele>392.0</ele><time>2026-04-29T09:39:28.999Z</time></trkpt><trkpt lat="41.218423779902146" lon="19.946627571793492"><ele>394.0</ele><time>2026-04-29T09:39:29.999Z</time></trkpt><trkpt lat="41.2184838756499" lon="19.946416602214544"><ele>396.0</ele><time>2026-04-29T09:39:30.999Z</time></trkpt><trkpt lat="41.21854549278299" lon="19.946185102011455"><ele>396.0</ele><time>2026-04-29T09:39:31.999Z</time></trkpt><trkpt lat="41.21859564377786" lon="19.94593218351053"><ele>396.0</ele><time>2026-04-29T09:39:32.999Z</time></trkpt><trkpt lat="41.218637867237206" lon="19.94566439172207"><ele>396.0</ele><time>2026-04-29T09:39:33.999Z</time></trkpt><trkpt lat="41.218680538921404" lon="19.945385240976755"><ele>397.66666666666663</ele><time>2026-04-29T09:39:34.999Z</time></trkpt><trkpt lat="41.21871947641642" lon="19.945129279151903"><ele>399.3333333333333</ele><time>2026-04-29T09:39:35.999Z</time></trkpt><trkpt lat="41.2187581901808" lon="19.94487626821752"><ele>401.0</ele><time>2026-04-29T09:39:36.999Z</time></trkpt><trkpt lat="41.218797271826965" lon="19.9446200060216"><ele>402.66666666666663</ele><time>2026-04-29T09:39:37.999Z</time></trkpt><trkpt lat="41.2188376694177" lon="19.944352243154533"><ele>404.33333333333337</ele><time>2026-04-29T09:39:38.999Z</time></trkpt><trkpt lat="41.21887945804871" lon="19.944077895135862"><ele>406.0</ele><time>2026-04-29T09:39:39.999Z</time></trkpt><trkpt lat="41.218921008859" lon="19.943798358343912"><ele>406.33333333333337</ele><time>2026-04-29T09:39:40.999Z</time></trkpt><trkpt lat="41.2189628927211" lon="19.943520888975296"><ele>406.66666666666663</ele><time>2026-04-29T09:39:41.999Z</time></trkpt><trkpt lat="41.21899988111197" lon="19.94326691754927"><ele>407.0</ele><time>2026-04-29T09:39:42.999Z</time></trkpt><trkpt lat="41.2190332903154" lon="19.94303068333493"><ele>400.3333333333333</ele><time>2026-04-29T09:39:43.999Z</time></trkpt><trkpt lat="41.219059279524615" lon="19.942802938173156"><ele>393.66666666666663</ele><time>2026-04-29T09:39:44.999Z</time></trkpt><trkpt lat="41.21908409143454" lon="19.9425809937406"><ele>387.0</ele><time>2026-04-29T09:39:45.999Z</time></trkpt><trkpt lat="41.21911037823661" lon="19.942357453049496"><ele>387.0</ele><time>2026-04-29T09:39:46.999Z</time></trkpt><trkpt lat="41.21913820598363" lon="19.94214739836663"><ele>387.0</ele><time>2026-04-29T09:39:47.999Z</time></trkpt><trkpt lat="41.219180461435734" lon="19.941962796785038"><ele>387.0</ele><time>2026-04-29T09:39:48.999Z</time></trkpt><trkpt lat="41.21925915281177" lon="19.94179666880485"><ele>386.33333333333337</ele><time>2026-04-29T09:39:49.999Z</time></trkpt><trkpt lat="41.21934965297565" lon="19.94162066982598"><ele>385.6666666666667</ele><time>2026-04-29T09:39:50.999Z</time></trkpt><trkpt lat="41.21945906095122" lon="19.941451726868383"><ele>385.0</ele><time>2026-04-29T09:39:51.999Z</time></trkpt><trkpt lat="41.21958498291602" lon="19.94128215191892"><ele>385.0</ele><time>2026-04-29T09:39:52.999Z</time></trkpt><trkpt lat="41.21972253168464" lon="19.941099296771004"><ele>385.0</ele><time>2026-04-29T09:39:53.999Z</time></trkpt><trkpt lat="41.219858011373645" lon="19.94091677394858"><ele>385.0</ele><time>2026-04-29T09:39:54.999Z</time></trkpt><trkpt lat="41.21997852497362" lon="19.94075360662972"><ele>382.0</ele><time>2026-04-29T09:39:55.999Z</time></trkpt><trkpt lat="41.220086608697876" lon="19.940607403051356"><ele>379.0</ele><time>2026-04-29T09:39:56.999Z</time></trkpt><trkpt lat="41.220188307986696" lon="19.940467976026262"><ele>376.0</ele><time>2026-04-29T09:39:57.999Z</time></trkpt><trkpt lat="41.22027792147695" lon="19.940299376613563"><ele>376.0</ele><time>2026-04-29T09:39:58.999Z</time></trkpt><trkpt lat="41.220348031607834" lon="19.94008827962908"><ele>376.0</ele><time>2026-04-29T09:39:59.999Z</time></trkpt><trkpt lat="41.2203918129272" lon="19.93985945792592"><ele>376.0</ele><time>2026-04-29T09:40:00.999Z</time></trkpt><trkpt lat="41.220414589855956" lon="19.939654329793203"><ele>376.75</ele><time>2026-04-29T09:40:01.999Z</time></trkpt><trkpt lat="41.220411711240885" lon="19.939467887874905"><ele>377.5</ele><time>2026-04-29T09:40:02.999Z</time></trkpt><trkpt lat="41.22039242576443" lon="19.939310995969432"><ele>378.25</ele><time>2026-04-29T09:40:03.999Z</time></trkpt><trkpt lat="41.220340915850244" lon="19.939165819219813"><ele>379.0</ele><time>2026-04-29T09:40:04.999Z</time></trkpt><trkpt lat="41.220244628391924" lon="19.939052379840316"><ele>379.0</ele><time>2026-04-29T09:40:05.999Z</time></trkpt><trkpt lat="41.22013567964063" lon="19.938947023855054"><ele>379.0</ele><time>2026-04-29T09:40:06.999Z</time></trkpt><trkpt lat="41.219994664848066" lon="19.93885397756486"><ele>379.0</ele><time>2026-04-29T09:40:07.999Z</time></trkpt><trkpt lat="41.21983638939791" lon="19.93873386454902"><ele>383.66666666666663</ele><time>2026-04-29T09:40:08.999Z</time></trkpt><trkpt lat="41.21966278346675" lon="19.938607350194218"><ele>388.3333333333333</ele><time>2026-04-29T09:40:09.999Z</time></trkpt><trkpt lat="41.219506724885434" lon="19.938504527481793"><ele>393.0</ele><time>2026-04-29T09:40:10.999Z</time></trkpt><trkpt lat="41.21937254096645" lon="19.938412623375296"><ele>393.0</ele><time>2026-04-29T09:40:11.999Z</time></trkpt><trkpt lat="41.21924777780979" lon="19.938326215927823"><ele>393.0</ele><time>2026-04-29T09:40:12.999Z</time></trkpt><trkpt lat="41.21912585213553" lon="19.938257336423874"><ele>393.0</ele><time>2026-04-29T09:40:13.999Z</time></trkpt><trkpt lat="41.219024088947315" lon="19.938160883856582"><ele>393.0</ele><time>2026-04-29T09:40:14.999Z</time></trkpt><trkpt lat="41.218967771973574" lon="19.938020492508688"><ele>393.0</ele><time>2026-04-29T09:40:15.999Z</time></trkpt><trkpt lat="41.21891446530196" lon="19.93789207896506"><ele>393.0</ele><time>2026-04-29T09:40:16.999Z</time></trkpt><trkpt lat="41.21889689346907" lon="19.937740296476644"><ele>393.0</ele><time>2026-04-29T09:40:17.999Z</time></trkpt><trkpt lat="41.21889780915749" lon="19.937569822659544"><ele>393.0</ele><time>2026-04-29T09:40:18.999Z</time></trkpt><trkpt lat="41.21890188201335" lon="19.937374912998507"><ele>387.25</ele><time>2026-04-29T09:40:19.999Z</time></trkpt><trkpt lat="41.2189059864325" lon="19.93717849249684"><ele>381.5</ele><time>2026-04-29T09:40:20.999Z</time></trkpt><trkpt lat="41.21891158785122" lon="19.937006616708604"><ele>375.75</ele><time>2026-04-29T09:40:21.999Z</time></trkpt><trkpt lat="41.2189261158332" lon="19.936840758203726"><ele>370.0</ele><time>2026-04-29T09:40:22.999Z</time></trkpt><trkpt lat="41.21895356963099" lon="19.93668914047615"><ele>367.25</ele><time>2026-04-29T09:40:23.999Z</time></trkpt><trkpt lat="41.21901533702945" lon="19.93656282237843"><ele>364.5</ele><time>2026-04-29T09:40:24.999Z</time></trkpt><trkpt lat="41.219099978184744" lon="19.93643531305884"><ele>361.75</ele><time>2026-04-29T09:40:25.999Z</time></trkpt><trkpt lat="41.219220762560234" lon="19.936322583861635"><ele>359.0</ele><time>2026-04-29T09:40:26.999Z</time></trkpt><trkpt lat="41.21936178210861" lon="19.936189763904178"><ele>359.0</ele><time>2026-04-29T09:40:27.999Z</time></trkpt><trkpt lat="41.21949470242059" lon="19.93605479821465"><ele>359.0</ele><time>2026-04-29T09:40:28.999Z</time></trkpt><trkpt lat="41.21960685907831" lon="19.93592750618775"><ele>359.0</ele><time>2026-04-29T09:40:29.999Z</time></trkpt><trkpt lat="41.21971001442134" lon="19.935806373021745"><ele>361.25</ele><time>2026-04-29T09:40:30.999Z</time></trkpt><trkpt lat="41.21980883309602" lon="19.93568990274698"><ele>363.5</ele><time>2026-04-29T09:40:31.999Z</time></trkpt><trkpt lat="41.219897190272874" lon="19.935560321023885"><ele>365.75</ele><time>2026-04-29T09:40:32.999Z</time></trkpt><trkpt lat="41.21999977569761" lon="19.93545786707296"><ele>368.0</ele><time>2026-04-29T09:40:33.999Z</time></trkpt><trkpt lat="41.220105913798875" lon="19.935375265199422"><ele>363.0</ele><time>2026-04-29T09:40:34.999Z</time></trkpt><trkpt lat="41.22021517790998" lon="19.935337012885352"><ele>358.0</ele><time>2026-04-29T09:40:35.999Z</time></trkpt><trkpt lat="41.22034645219757" lon="19.93533621019366"><ele>353.0</ele><time>2026-04-29T09:40:37Z</time></trkpt><trkpt lat="41.220484187598394" lon="19.935373527093486"><ele>348.0</ele><time>2026-04-29T09:40:38Z</time></trkpt><trkpt lat="41.22060535664126" lon="19.935431370774"><ele>345.75</ele><time>2026-04-29T09:40:39Z</time></trkpt><trkpt lat="41.22072396885619" lon="19.935478766495592"><ele>343.5</ele><time>2026-04-29T09:40:40Z</time></trkpt><trkpt lat="41.22084808622563" lon="19.93552036791269"><ele>341.25</ele><time>2026-04-29T09:40:41Z</time></trkpt><trkpt lat="41.22096738037464" lon="19.93555342286566"><ele>339.0</ele><time>2026-04-29T09:40:42Z</time></trkpt><trkpt lat="41.22107571009932" lon="19.9355873818261"><ele>339.0</ele><time>2026-04-29T09:40:43Z</time></trkpt><trkpt lat="41.221181600579975" lon="19.935613497865475"><ele>339.0</ele><time>2026-04-29T09:40:44Z</time></trkpt><trkpt lat="41.22129583723383" lon="19.935622178106435"><ele>339.0</ele><time>2026-04-29T09:40:45Z</time></trkpt><trkpt lat="41.22141064897513" lon="19.93562451796405"><ele>339.0</ele><time>2026-04-29T09:40:46Z</time></trkpt><trkpt lat="41.22151661525823" lon="19.935579551291255"><ele>339.0</ele><time>2026-04-29T09:40:47Z</time></trkpt><trkpt lat="41.22161165017661" lon="19.9355036501827"><ele>339.25</ele><time>2026-04-29T09:40:48Z</time></trkpt><trkpt lat="41.22166909384805" lon="19.93535243432661"><ele>339.5</ele><time>2026-04-29T09:40:49Z</time></trkpt><trkpt lat="41.22174536169734" lon="19.935221224912993"><ele>339.75</ele><time>2026-04-29T09:40:50Z</time></trkpt><trkpt lat="41.22181723674324" lon="19.935062600158894"><ele>340.0</ele><time>2026-04-29T09:40:51Z</time></trkpt><trkpt lat="41.221876439973805" lon="19.93489218665475"><ele>340.0</ele><time>2026-04-29T09:40:52Z</time></trkpt><trkpt lat="41.22195172862618" lon="19.934762165180583"><ele>340.0</ele><time>2026-04-29T09:40:53Z</time></trkpt><trkpt lat="41.22205751360285" lon="19.93468919906058"><ele>340.0</ele><time>2026-04-29T09:40:54Z</time></trkpt><trkpt lat="41.222160943300786" lon="19.934629372093674"><ele>340.0</ele><time>2026-04-29T09:40:55Z</time></trkpt><trkpt lat="41.22227298006992" lon="19.93458441814758"><ele>337.2</ele><time>2026-04-29T09:40:56Z</time></trkpt><trkpt lat="41.22239362018176" lon="19.934589347511267"><ele>334.4</ele><time>2026-04-29T09:40:57Z</time></trkpt><trkpt lat="41.22249108788331" lon="19.934604242932224"><ele>331.6</ele><time>2026-04-29T09:40:58Z</time></trkpt><trkpt lat="41.22257167081653" lon="19.934604360664753"><ele>328.8</ele><time>2026-04-29T09:40:59Z</time></trkpt><trkpt lat="41.22264990236764" lon="19.934593764842923"><ele>326.0</ele><time>2026-04-29T09:41:00Z</time></trkpt><trkpt lat="41.22273879607437" lon="19.934522598724246"><ele>326.0</ele><time>2026-04-29T09:41:01Z</time></trkpt><trkpt lat="41.22281700315758" lon="19.934394568589948"><ele>326.0</ele><time>2026-04-29T09:41:02Z</time></trkpt><trkpt lat="41.22283073895491" lon="19.934224962425468"><ele>326.0</ele><time>2026-04-29T09:41:03Z</time></trkpt><trkpt lat="41.22283930511689" lon="19.93407801284793"><ele>326.0</ele><time>2026-04-29T09:41:04Z</time></trkpt><trkpt lat="41.222824905598664" lon="19.933938779441153"><ele>327.1666666666667</ele><time>2026-04-29T09:41:05Z</time></trkpt><trkpt lat="41.22277514018126" lon="19.93381792889609"><ele>328.33333333333337</ele><time>2026-04-29T09:41:06Z</time></trkpt><trkpt lat="41.22271412681553" lon="19.933708617764395"><ele>329.5</ele><time>2026-04-29T09:41:06.999Z</time></trkpt><trkpt lat="41.22266174670441" lon="19.9336084696256"><ele>330.6666666666667</ele><time>2026-04-29T09:41:07.999Z</time></trkpt><trkpt lat="41.222654991491865" lon="19.933508736301253"><ele>331.8333333333333</ele><time>2026-04-29T09:41:08.999Z</time></trkpt><trkpt lat="41.2226750675198" lon="19.933416105075654"><ele>333.0</ele><time>2026-04-29T09:41:09.999Z</time></trkpt><trkpt lat="41.2227307670245" lon="19.93334337362713"><ele>333.0</ele><time>2026-04-29T09:41:10.999Z</time></trkpt><trkpt lat="41.22279599496323" lon="19.933288096717934"><ele>333.0</ele><time>2026-04-29T09:41:11.999Z</time></trkpt><trkpt lat="41.22286373259412" lon="19.93325130888801"><ele>333.0</ele><time>2026-04-29T09:41:12.999Z</time></trkpt><trkpt lat="41.22294935064485" lon="19.93324783199193"><ele>333.0</ele><time>2026-04-29T09:41:13.999Z</time></trkpt><trkpt lat="41.223036294517506" lon="19.93328863722022"><ele>333.0</ele><time>2026-04-29T09:41:14.999Z</time></trkpt><trkpt lat="41.22311077329058" lon="19.933363309198352"><ele>333.0</ele><time>2026-04-29T09:41:15.999Z</time></trkpt><trkpt lat="41.22319207501484" lon="19.933451330983875"><ele>328.3333333333333</ele><time>2026-04-29T09:41:16.999Z</time></trkpt><trkpt lat="41.2232945623999" lon="19.93357831176073"><ele>323.66666666666663</ele><time>2026-04-29T09:41:17.999Z</time></trkpt><trkpt lat="41.22339870744772" lon="19.933746940835256"><ele>319.0</ele><time>2026-04-29T09:41:18.999Z</time></trkpt><trkpt lat="41.22348567872722" lon="19.93391787931485"><ele>319.0</ele><time>2026-04-29T09:41:19.999Z</time></trkpt><trkpt lat="41.2235734609717" lon="19.934063771581428"><ele>319.0</ele><time>2026-04-29T09:41:20.999Z</time></trkpt><trkpt lat="41.223661943519836" lon="19.934195372179634"><ele>319.0</ele><time>2026-04-29T09:41:21.999Z</time></trkpt><trkpt lat="41.22375942597917" lon="19.934311828446308"><ele>319.0</ele><time>2026-04-29T09:41:22.999Z</time></trkpt><trkpt lat="41.22387265816183" lon="19.934409839706696"><ele>314.0</ele><time>2026-04-29T09:41:23.999Z</time></trkpt><trkpt lat="41.22400111457645" lon="19.934486923271002"><ele>309.0</ele><time>2026-04-29T09:41:24.999Z</time></trkpt><trkpt lat="41.22414910429551" lon="19.93454779284538"><ele>304.0</ele><time>2026-04-29T09:41:25.999Z</time></trkpt><trkpt lat="41.22430524944686" lon="19.934592316695454"><ele>304.0</ele><time>2026-04-29T09:41:26.999Z</time></trkpt><trkpt lat="41.22446551864356" lon="19.934641326028355"><ele>304.0</ele><time>2026-04-29T09:41:27.999Z</time></trkpt><trkpt lat="41.224611479179025" lon="19.934666512453294"><ele>304.0</ele><time>2026-04-29T09:41:28.999Z</time></trkpt><trkpt lat="41.2247595149269" lon="19.934703652818435"><ele>304.0</ele><time>2026-04-29T09:41:29.999Z</time></trkpt><trkpt lat="41.22491188251868" lon="19.93473957096139"><ele>304.0</ele><time>2026-04-29T09:41:30.999Z</time></trkpt><trkpt lat="41.22506717359814" lon="19.934780402515205"><ele>304.0</ele><time>2026-04-29T09:41:31.999Z</time></trkpt><trkpt lat="41.22520631664734" lon="19.934816830002784"><ele>304.0</ele><time>2026-04-29T09:41:32.999Z</time></trkpt><trkpt lat="41.225330563599314" lon="19.934848362669705"><ele>304.0</ele><time>2026-04-29T09:41:33.999Z</time></trkpt><trkpt lat="41.22544456815025" lon="19.934857172578553"><ele>304.0</ele><time>2026-04-29T09:41:34.999Z</time></trkpt><trkpt lat="41.22556660544756" lon="19.934836327176765"><ele>304.0</ele><time>2026-04-29T09:41:35.999Z</time></trkpt><trkpt lat="41.22566706433811" lon="19.93477594567499"><ele>302.0</ele><time>2026-04-29T09:41:36.999Z</time></trkpt><trkpt lat="41.22575580569814" lon="19.93465656081957"><ele>300.0</ele><time>2026-04-29T09:41:37.999Z</time></trkpt><trkpt lat="41.225837496936634" lon="19.934496509754336"><ele>298.0</ele><time>2026-04-29T09:41:38.999Z</time></trkpt><trkpt lat="41.22589298136822" lon="19.934328285807645"><ele>296.0</ele><time>2026-04-29T09:41:39.999Z</time></trkpt><trkpt lat="41.22593007210916" lon="19.934130369283707"><ele>296.0</ele><time>2026-04-29T09:41:41Z</time></trkpt><trkpt lat="41.225958622005344" lon="19.93390360122419"><ele>296.0</ele><time>2026-04-29T09:41:42Z</time></trkpt><trkpt lat="41.22599927540699" lon="19.933659123805707"><ele>296.0</ele><time>2026-04-29T09:41:43Z</time></trkpt><trkpt lat="41.22604016085458" lon="19.933406497178396"><ele>295.6666666666667</ele><time>2026-04-29T09:41:44Z</time></trkpt><trkpt lat="41.2260863060354" lon="19.93318379544837"><ele>295.3333333333333</ele><time>2026-04-29T09:41:45Z</time></trkpt><trkpt lat="41.22611525817596" lon="19.932979049201922"><ele>295.0</ele><time>2026-04-29T09:41:46Z</time></trkpt><trkpt lat="41.22613980273762" lon="19.932806931995643"><ele>295.0</ele><time>2026-04-29T09:41:47Z</time></trkpt><trkpt lat="41.226151362540485" lon="19.932644343818602"><ele>295.0</ele><time>2026-04-29T09:41:48Z</time></trkpt><trkpt lat="41.22623284100902" lon="19.93251214461688"><ele>295.0</ele><time>2026-04-29T09:41:49Z</time></trkpt><trkpt lat="41.226319305243386" lon="19.932366991043907"><ele>295.0</ele><time>2026-04-29T09:41:50Z</time></trkpt><trkpt lat="41.22642149864092" lon="19.93224792793943"><ele>287.3333333333333</ele><time>2026-04-29T09:41:51Z</time></trkpt><trkpt lat="41.226500124709" lon="19.932118407545264"><ele>279.6666666666667</ele><time>2026-04-29T09:41:52Z</time></trkpt><trkpt lat="41.226520402463564" lon="19.9318870846496"><ele>272.0</ele><time>2026-04-29T09:41:53Z</time></trkpt><trkpt lat="41.22654556282156" lon="19.931659136955634"><ele>272.0</ele><time>2026-04-29T09:41:54Z</time></trkpt><trkpt lat="41.22657199540029" lon="19.931402517544875"><ele>272.0</ele><time>2026-04-29T09:41:55Z</time></trkpt><trkpt lat="41.22660044201644" lon="19.931133694984585"><ele>272.0</ele><time>2026-04-29T09:41:56Z</time></trkpt><trkpt lat="41.22661668307886" lon="19.930895822692626"><ele>272.33333333333337</ele><time>2026-04-29T09:41:57Z</time></trkpt><trkpt lat="41.22665496527748" lon="19.930678563494777"><ele>272.6666666666667</ele><time>2026-04-29T09:41:58Z</time></trkpt><trkpt lat="41.22668706379732" lon="19.93047116667943"><ele>273.0</ele><time>2026-04-29T09:41:59Z</time></trkpt><trkpt lat="41.226746982912346" lon="19.930304224487"><ele>273.0</ele><time>2026-04-29T09:42:00Z</time></trkpt><trkpt lat="41.22678197465307" lon="19.930135427175482"><ele>273.0</ele><time>2026-04-29T09:42:01Z</time></trkpt><trkpt lat="41.226870001709266" lon="19.92999853721167"><ele>273.0</ele><time>2026-04-29T09:42:02Z</time></trkpt><trkpt lat="41.22700929074714" lon="19.92990073181641"><ele>273.0</ele><time>2026-04-29T09:42:03Z</time></trkpt><trkpt lat="41.227175292090315" lon="19.929815996749525"><ele>268.6666666666667</ele><time>2026-04-29T09:42:04Z</time></trkpt><trkpt lat="41.22734889118996" lon="19.929768541153223"><ele>264.33333333333337</ele><time>2026-04-29T09:42:05Z</time></trkpt><trkpt lat="41.22746431443448" lon="19.929603284412476"><ele>260.0</ele><time>2026-04-29T09:42:06Z</time></trkpt><trkpt lat="41.227574151850455" lon="19.929417794672094"><ele>263.0</ele><time>2026-04-29T09:42:07Z</time></trkpt><trkpt lat="41.22766874552628" lon="19.929203281426737"><ele>266.0</ele><time>2026-04-29T09:42:08Z</time></trkpt><trkpt lat="41.227738117516466" lon="19.92900640091768"><ele>269.0</ele><time>2026-04-29T09:42:09Z</time></trkpt><trkpt lat="41.22778540504648" lon="19.92882997466072"><ele>269.0</ele><time>2026-04-29T09:42:10Z</time></trkpt><trkpt lat="41.22785424955486" lon="19.928701641557836"><ele>269.0</ele><time>2026-04-29T09:42:11Z</time></trkpt><trkpt lat="41.227920001449014" lon="19.92859575419703"><ele>269.0</ele><time>2026-04-29T09:42:12Z</time></trkpt><trkpt lat="41.22799182433217" lon="19.928481772042073"><ele>269.0</ele><time>2026-04-29T09:42:13Z</time></trkpt><trkpt lat="41.22810312683684" lon="19.928375923554736"><ele>262.6666666666667</ele><time>2026-04-29T09:42:14Z</time></trkpt><trkpt lat="41.22827650968691" lon="19.928408101722592"><ele>256.3333333333333</ele><time>2026-04-29T09:42:15Z</time></trkpt><trkpt lat="41.22845464848658" lon="19.928407901237176"><ele>250.0</ele><time>2026-04-29T09:42:16Z</time></trkpt><trkpt lat="41.22863706877409" lon="19.928402672176126"><ele>250.0</ele><time>2026-04-29T09:42:17Z</time></trkpt><trkpt lat="41.22879402479963" lon="19.928395885667047"><ele>250.0</ele><time>2026-04-29T09:42:18Z</time></trkpt><trkpt lat="41.22893944777421" lon="19.928414655436246"><ele>250.0</ele><time>2026-04-29T09:42:19Z</time></trkpt><trkpt lat="41.229074623657255" lon="19.928441306756607"><ele>250.0</ele><time>2026-04-29T09:42:20Z</time></trkpt><trkpt lat="41.22920485843133" lon="19.928474185101233"><ele>247.75</ele><time>2026-04-29T09:42:21Z</time></trkpt><trkpt lat="41.2293366628658" lon="19.928532962014714"><ele>245.5</ele><time>2026-04-29T09:42:22Z</time></trkpt><trkpt lat="41.229462539190266" lon="19.928641802747716"><ele>243.25</ele><time>2026-04-29T09:42:23Z</time></trkpt><trkpt lat="41.229592560465626" lon="19.92874184954594"><ele>241.0</ele><time>2026-04-29T09:42:24Z</time></trkpt><trkpt lat="41.22970377372566" lon="19.92882718315972"><ele>241.0</ele><time>2026-04-29T09:42:25Z</time></trkpt><trkpt lat="41.229805074514765" lon="19.92889493903487"><ele>241.0</ele><time>2026-04-29T09:42:26Z</time></trkpt><trkpt lat="41.229913708871585" lon="19.928956972007484"><ele>241.0</ele><time>2026-04-29T09:42:27Z</time></trkpt><trkpt lat="41.23002261885248" lon="19.92904578001604"><ele>241.0</ele><time>2026-04-29T09:42:28Z</time></trkpt><trkpt lat="41.23013200151162" lon="19.929103994263624"><ele>241.49999999999997</ele><time>2026-04-29T09:42:29Z</time></trkpt><trkpt lat="41.23022997601218" lon="19.929164722791707"><ele>242.0</ele><time>2026-04-29T09:42:30Z</time></trkpt><trkpt lat="41.23030939554035" lon="19.92922237613966"><ele>242.5</ele><time>2026-04-29T09:42:31Z</time></trkpt><trkpt lat="41.23037484203181" lon="19.92928890752065"><ele>243.0</ele><time>2026-04-29T09:42:32Z</time></trkpt><trkpt lat="41.23043978502361" lon="19.92932102927281"><ele>243.49999999999997</ele><time>2026-04-29T09:42:33Z</time></trkpt><trkpt lat="41.23048857282141" lon="19.929434149966735"><ele>244.0</ele><time>2026-04-29T09:42:34Z</time></trkpt><trkpt lat="41.230564356077764" lon="19.92954830629902"><ele>240.39999999999998</ele><time>2026-04-29T09:42:35Z</time></trkpt><trkpt lat="41.23057918450528" lon="19.929654577029513"><ele>236.79999999999998</ele><time>2026-04-29T09:42:36Z</time></trkpt><trkpt lat="41.230635618771515" lon="19.929725641263975"><ele>233.20000000000002</ele><time>2026-04-29T09:42:37Z</time></trkpt><trkpt lat="41.23072609827566" lon="19.929702516590556"><ele>229.60000000000002</ele><time>2026-04-29T09:42:38Z</time></trkpt><trkpt lat="41.230804928053075" lon="19.929645553048072"><ele>226.0</ele><time>2026-04-29T09:42:39Z</time></trkpt><trkpt lat="41.23089299251724" lon="19.929560313131468"><ele>224.66666666666666</ele><time>2026-04-29T09:42:40Z</time></trkpt><trkpt lat="41.23099583460209" lon="19.929453795782653"><ele>223.33333333333331</ele><time>2026-04-29T09:42:41Z</time></trkpt><trkpt lat="41.231118504378394" lon="19.9293297132442"><ele>222.0</ele><time>2026-04-29T09:42:42Z</time></trkpt><trkpt lat="41.2312646444194" lon="19.929173572796866"><ele>221.66666666666669</ele><time>2026-04-29T09:42:43Z</time></trkpt><trkpt lat="41.231427317817456" lon="19.9289963173935"><ele>221.33333333333334</ele><time>2026-04-29T09:42:44Z</time></trkpt><trkpt lat="41.23159438526621" lon="19.928829976474557"><ele>221.0</ele><time>2026-04-29T09:42:45Z</time></trkpt><trkpt lat="41.23173173013738" lon="19.92866700102342"><ele>221.0</ele><time>2026-04-29T09:42:46Z</time></trkpt><trkpt lat="41.231858884273734" lon="19.92851788235394"><ele>221.0</ele><time>2026-04-29T09:42:47Z</time></trkpt><trkpt lat="41.231978807969206" lon="19.928380661521278"><ele>221.0</ele><time>2026-04-29T09:42:48Z</time></trkpt><trkpt lat="41.2320974499033" lon="19.928274595330617"><ele>222.66666666666669</ele><time>2026-04-29T09:42:49Z</time></trkpt><trkpt lat="41.23224139808694" lon="19.928217459978615"><ele>224.33333333333331</ele><time>2026-04-29T09:42:50Z</time></trkpt><trkpt lat="41.2323907690901" lon="19.92817127260951"><ele>226.0</ele><time>2026-04-29T09:42:51Z</time></trkpt><trkpt lat="41.23253698165185" lon="19.928132343753795"><ele>226.0</ele><time>2026-04-29T09:42:52Z</time></trkpt><trkpt lat="41.23266950593557" lon="19.92809875957953"><ele>226.0</ele><time>2026-04-29T09:42:53Z</time></trkpt><trkpt lat="41.232801951052714" lon="19.92805435798256"><ele>226.0</ele><time>2026-04-29T09:42:54Z</time></trkpt><trkpt lat="41.232928892767056" lon="19.92799154648417"><ele>226.0</ele><time>2026-04-29T09:42:55Z</time></trkpt><trkpt lat="41.23303702254471" lon="19.927891386563573"><ele>226.0</ele><time>2026-04-29T09:42:56Z</time></trkpt><trkpt lat="41.233135113727634" lon="19.927751740668306"><ele>226.0</ele><time>2026-04-29T09:42:57Z</time></trkpt><trkpt lat="41.23321406914105" lon="19.927583419863204"><ele>226.0</ele><time>2026-04-29T09:42:58Z</time></trkpt><trkpt lat="41.233272826871925" lon="19.927382666607414"><ele>221.66666666666666</ele><time>2026-04-29T09:42:59Z</time></trkpt><trkpt lat="41.233316346673625" lon="19.92716394244247"><ele>217.33333333333331</ele><time>2026-04-29T09:43:00Z</time></trkpt><trkpt lat="41.23335113029135" lon="19.92695765549792"><ele>213.0</ele><time>2026-04-29T09:43:01Z</time></trkpt><trkpt lat="41.23339433152259" lon="19.92677970144781"><ele>214.25</ele><time>2026-04-29T09:43:02Z</time></trkpt><trkpt lat="41.23345153892407" lon="19.926628811153336"><ele>215.5</ele><time>2026-04-29T09:43:03Z</time></trkpt><trkpt lat="41.23352385601189" lon="19.926492241944647"><ele>216.75</ele><time>2026-04-29T09:43:04Z</time></trkpt><trkpt lat="41.233629226155045" lon="19.926422139382527"><ele>218.0</ele><time>2026-04-29T09:43:05Z</time></trkpt><trkpt lat="41.233746732543246" lon="19.92636134862608"><ele>218.0</ele><time>2026-04-29T09:43:06Z</time></trkpt><trkpt lat="41.2338778238675" lon="19.92627887294661"><ele>218.0</ele><time>2026-04-29T09:43:07Z</time></trkpt><trkpt lat="41.23402447659521" lon="19.9262167272302"><ele>218.0</ele><time>2026-04-29T09:43:08Z</time></trkpt><trkpt lat="41.23414665648467" lon="19.926143346468812"><ele>218.0</ele><time>2026-04-29T09:43:09Z</time></trkpt><trkpt lat="41.23423034345888" lon="19.926083431881263"><ele>216.8</ele><time>2026-04-29T09:43:10Z</time></trkpt><trkpt lat="41.23430448389581" lon="19.92602339637175"><ele>215.60000000000002</ele><time>2026-04-29T09:43:11Z</time></trkpt><trkpt lat="41.234402493441756" lon="19.92598920909149"><ele>214.39999999999998</ele><time>2026-04-29T09:43:12Z</time></trkpt><trkpt lat="41.234491870514375" lon="19.92587699594192"><ele>213.2</ele><time>2026-04-29T09:43:13Z</time></trkpt><trkpt lat="41.23459203784216" lon="19.925770078506773"><ele>212.0</ele><time>2026-04-29T09:43:14Z</time></trkpt><trkpt lat="41.234688809223556" lon="19.925646021126774"><ele>212.0</ele><time>2026-04-29T09:43:15Z</time></trkpt><trkpt lat="41.23476325759524" lon="19.925516509331526"><ele>212.0</ele><time>2026-04-29T09:43:16Z</time></trkpt><trkpt lat="41.234810718422914" lon="19.92537542035473"><ele>212.0</ele><time>2026-04-29T09:43:17Z</time></trkpt><trkpt lat="41.23485932960792" lon="19.925218278078663"><ele>212.0</ele><time>2026-04-29T09:43:18Z</time></trkpt><trkpt lat="41.23484284939101" lon="19.925028156844544"><ele>213.66666666666669</ele><time>2026-04-29T09:43:19Z</time></trkpt><trkpt lat="41.23483022087843" lon="19.92483385248445"><ele>215.33333333333331</ele><time>2026-04-29T09:43:20Z</time></trkpt><trkpt lat="41.23480518938048" lon="19.924629784421814"><ele>217.0</ele><time>2026-04-29T09:43:21Z</time></trkpt><trkpt lat="41.23480095931922" lon="19.92441918324446"><ele>218.0</ele><time>2026-04-29T09:43:22Z</time></trkpt><trkpt lat="41.23476199108325" lon="19.92420301368228"><ele>219.0</ele><time>2026-04-29T09:43:23Z</time></trkpt><trkpt lat="41.23474121696188" lon="19.92397642999278"><ele>220.0</ele><time>2026-04-29T09:43:24Z</time></trkpt><trkpt lat="41.234741004938684" lon="19.92376732009619"><ele>220.0</ele><time>2026-04-29T09:43:25Z</time></trkpt><trkpt lat="41.23472921738777" lon="19.923564382295634"><ele>220.0</ele><time>2026-04-29T09:43:26Z</time></trkpt><trkpt lat="41.234706487557176" lon="19.923349549351645"><ele>220.0</ele><time>2026-04-29T09:43:27Z</time></trkpt><trkpt lat="41.23473450246163" lon="19.923124774150693"><ele>221.33333333333331</ele><time>2026-04-29T09:43:28Z</time></trkpt><trkpt lat="41.23474833036642" lon="19.922890777642575"><ele>222.66666666666669</ele><time>2026-04-29T09:43:29Z</time></trkpt><trkpt lat="41.23476777979565" lon="19.922654609895176"><ele>224.0</ele><time>2026-04-29T09:43:30Z</time></trkpt><trkpt lat="41.23476644835785" lon="19.922406552052276"><ele>226.33333333333334</ele><time>2026-04-29T09:43:31Z</time></trkpt><trkpt lat="41.234779305046125" lon="19.9221552587296"><ele>228.66666666666669</ele><time>2026-04-29T09:43:32Z</time></trkpt><trkpt lat="41.234789648990905" lon="19.921908313373713"><ele>231.0</ele><time>2026-04-29T09:43:33Z</time></trkpt><trkpt lat="41.23479738241812" lon="19.92168436594952"><ele>221.33333333333331</ele><time>2026-04-29T09:43:34Z</time></trkpt><trkpt lat="41.234808691214155" lon="19.92147629657226"><ele>211.66666666666666</ele><time>2026-04-29T09:43:35Z</time></trkpt><trkpt lat="41.234818342426976" lon="19.921275093992026"><ele>202.0</ele><time>2026-04-29T09:43:36Z</time></trkpt><trkpt lat="41.234829221420846" lon="19.92108794331991"><ele>202.0</ele><time>2026-04-29T09:43:37Z</time></trkpt><trkpt lat="41.234841076357476" lon="19.920914135332904"><ele>202.0</ele><time>2026-04-29T09:43:38Z</time></trkpt><trkpt lat="41.23486726382748" lon="19.920765887225127"><ele>202.0</ele><time>2026-04-29T09:43:39Z</time></trkpt><trkpt lat="41.23492509067911" lon="19.920620251469842"><ele>202.0</ele><time>2026-04-29T09:43:40Z</time></trkpt><trkpt lat="41.2350114283116" lon="19.92046365894856"><ele>202.0</ele><time>2026-04-29T09:43:41Z</time></trkpt><trkpt lat="41.23511480259045" lon="19.92028823200164"><ele>202.0</ele><time>2026-04-29T09:43:42Z</time></trkpt><trkpt lat="41.23520773900246" lon="19.92012386024231"><ele>202.0</ele><time>2026-04-29T09:43:43Z</time></trkpt><trkpt lat="41.23528837852662" lon="19.91997488496291"><ele>201.0</ele><time>2026-04-29T09:43:44Z</time></trkpt><trkpt lat="41.23536724336712" lon="19.91983952021258"><ele>200.0</ele><time>2026-04-29T09:43:45Z</time></trkpt><trkpt lat="41.23543918421988" lon="19.919714594018448"><ele>199.0</ele><time>2026-04-29T09:43:46Z</time></trkpt><trkpt lat="41.235494674436296" lon="19.919572407049394"><ele>198.0</ele><time>2026-04-29T09:43:47Z</time></trkpt><trkpt lat="41.235521268666645" lon="19.919405065400266"><ele>198.0</ele><time>2026-04-29T09:43:48Z</time></trkpt><trkpt lat="41.235525101978915" lon="19.919253080492634"><ele>198.0</ele><time>2026-04-29T09:43:49Z</time></trkpt><trkpt lat="41.23551860313837" lon="19.919143332940724"><ele>198.0</ele><time>2026-04-29T09:43:50Z</time></trkpt><trkpt lat="41.23551392848225" lon="19.91904858108172"><ele>198.0</ele><time>2026-04-29T09:43:51Z</time></trkpt><trkpt lat="41.235512782759095" lon="19.91894083898404"><ele>198.0</ele><time>2026-04-29T09:43:52Z</time></trkpt><trkpt lat="41.235510092050916" lon="19.91877336212953"><ele>199.0</ele><time>2026-04-29T09:43:53Z</time></trkpt><trkpt lat="41.23550744917549" lon="19.918652687973882"><ele>200.0</ele><time>2026-04-29T09:43:54Z</time></trkpt><trkpt lat="41.23550453567495" lon="19.918478544823188"><ele>201.0</ele><time>2026-04-29T09:43:55Z</time></trkpt><trkpt lat="41.2355621764899" lon="19.918314991517335"><ele>202.0</ele><time>2026-04-29T09:43:56Z</time></trkpt><trkpt lat="41.235621100557566" lon="19.918130269531307"><ele>197.33333333333331</ele><time>2026-04-29T09:43:57Z</time></trkpt><trkpt lat="41.23568571372621" lon="19.917928571182024"><ele>192.66666666666666</ele><time>2026-04-29T09:43:58Z</time></trkpt><trkpt lat="41.23575407596776" lon="19.917713642700196"><ele>188.0</ele><time>2026-04-29T09:43:59Z</time></trkpt><trkpt lat="41.23583080491861" lon="19.91747312544418"><ele>188.0</ele><time>2026-04-29T09:44:00Z</time></trkpt><trkpt lat="41.2359099443866" lon="19.91722733126305"><ele>188.0</ele><time>2026-04-29T09:44:01Z</time></trkpt><trkpt lat="41.235975476941995" lon="19.91699932112221"><ele>188.0</ele><time>2026-04-29T09:44:02Z</time></trkpt><trkpt lat="41.23601636034347" lon="19.9167969257012"><ele>189.75</ele><time>2026-04-29T09:44:03Z</time></trkpt><trkpt lat="41.23608139790043" lon="19.916614688021703"><ele>191.5</ele><time>2026-04-29T09:44:04Z</time></trkpt><trkpt lat="41.23613732702041" lon="19.916442366246393"><ele>193.25</ele><time>2026-04-29T09:44:05Z</time></trkpt><trkpt lat="41.236183450480596" lon="19.916287351725167"><ele>195.0</ele><time>2026-04-29T09:44:06Z</time></trkpt><trkpt lat="41.2362254446087" lon="19.916131730706553"><ele>195.0</ele><time>2026-04-29T09:44:07Z</time></trkpt><trkpt lat="41.23630503146999" lon="19.915984605178352"><ele>195.0</ele><time>2026-04-29T09:44:08Z</time></trkpt><trkpt lat="41.23638973308293" lon="19.91582140140137"><ele>195.0</ele><time>2026-04-29T09:44:09Z</time></trkpt><trkpt lat="41.236502738236176" lon="19.915696098527796"><ele>195.0</ele><time>2026-04-29T09:44:10Z</time></trkpt><trkpt lat="41.23660380443283" lon="19.915610533766838"><ele>193.16666666666666</ele><time>2026-04-29T09:44:11Z</time></trkpt><trkpt lat="41.236692352384836" lon="19.91556022048402"><ele>191.33333333333334</ele><time>2026-04-29T09:44:12Z</time></trkpt><trkpt lat="41.23676778445047" lon="19.915530608228412"><ele>189.5</ele><time>2026-04-29T09:44:13Z</time></trkpt><trkpt lat="41.236834852680886" lon="19.915532329241014"><ele>187.66666666666669</ele><time>2026-04-29T09:44:14Z</time></trkpt><trkpt lat="41.23689976417399" lon="19.915561113398322"><ele>185.83333333333334</ele><time>2026-04-29T09:44:15Z</time></trkpt><trkpt lat="41.23698313343582" lon="19.915600020538708"><ele>184.0</ele><time>2026-04-29T09:44:16Z</time></trkpt><trkpt lat="41.23706914017527" lon="19.915605388088693"><ele>184.0</ele><time>2026-04-29T09:44:17Z</time></trkpt><trkpt lat="41.23718845125803" lon="19.915471271037557"><ele>184.0</ele><time>2026-04-29T09:44:19Z</time></trkpt><trkpt lat="41.23723723149247" lon="19.91534967872261"><ele>184.0</ele><time>2026-04-29T09:44:20Z</time></trkpt><trkpt lat="41.237281893418704" lon="19.915222912689703"><ele>184.0</ele><time>2026-04-29T09:44:21Z</time></trkpt><trkpt lat="41.23734149228325" lon="19.91514667788999"><ele>184.0</ele><time>2026-04-29T09:44:22Z</time></trkpt><trkpt lat="41.23743014349768" lon="19.91511663697524"><ele>183.75</ele><time>2026-04-29T09:44:23Z</time></trkpt><trkpt lat="41.23752944022406" lon="19.915077787887654"><ele>183.5</ele><time>2026-04-29T09:44:24Z</time></trkpt><trkpt lat="41.23766018025352" lon="19.91515063506342"><ele>183.25</ele><time>2026-04-29T09:44:25Z</time></trkpt><trkpt lat="41.23778214779405" lon="19.915219088094602"><ele>183.0</ele><time>2026-04-29T09:44:26Z</time></trkpt><trkpt lat="41.23790035577569" lon="19.915316208391896"><ele>183.0</ele><time>2026-04-29T09:44:27Z</time></trkpt><trkpt lat="41.23802207731951" lon="19.915435172353753"><ele>183.0</ele><time>2026-04-29T09:44:28Z</time></trkpt><trkpt lat="41.2381343440085" lon="19.91553127811939"><ele>183.0</ele><time>2026-04-29T09:44:29Z</time></trkpt><trkpt lat="41.23823463766247" lon="19.915600847238267"><ele>183.0</ele><time>2026-04-29T09:44:30Z</time></trkpt><trkpt lat="41.238342076104914" lon="19.91564578660423"><ele>183.75</ele><time>2026-04-29T09:44:31Z</time></trkpt><trkpt lat="41.23846272135291" lon="19.91565543646067"><ele>184.5</ele><time>2026-04-29T09:44:32Z</time></trkpt><trkpt lat="41.238581643482775" lon="19.91561488785011"><ele>185.25</ele><time>2026-04-29T09:44:33Z</time></trkpt><trkpt lat="41.238671217912504" lon="19.915521487936733"><ele>186.0</ele><time>2026-04-29T09:44:34Z</time></trkpt><trkpt lat="41.23876747624827" lon="19.91544110728035"><ele>186.0</ele><time>2026-04-29T09:44:35Z</time></trkpt><trkpt lat="41.238845755736314" lon="19.915320321702083"><ele>186.0</ele><time>2026-04-29T09:44:36Z</time></trkpt><trkpt lat="41.238904470214585" lon="19.915171621580033"><ele>186.0</ele><time>2026-04-29T09:44:37Z</time></trkpt><trkpt lat="41.23891591105237" lon="19.914988124944863"><ele>186.0</ele><time>2026-04-29T09:44:38Z</time></trkpt><trkpt lat="41.238956010873615" lon="19.914798389768947"><ele>186.66666666666666</ele><time>2026-04-29T09:44:39Z</time></trkpt><trkpt lat="41.23898091711635" lon="19.91459569871193"><ele>187.33333333333331</ele><time>2026-04-29T09:44:40Z</time></trkpt><trkpt lat="41.23900182816042" lon="19.914376035323066"><ele>188.0</ele><time>2026-04-29T09:44:41Z</time></trkpt><trkpt lat="41.23902268592356" lon="19.914172399073156"><ele>189.5</ele><time>2026-04-29T09:44:42Z</time></trkpt><trkpt lat="41.23903998099154" lon="19.91399995872865"><ele>191.0</ele><time>2026-04-29T09:44:43Z</time></trkpt><trkpt lat="41.239041333876465" lon="19.913845841290993"><ele>192.5</ele><time>2026-04-29T09:44:44Z</time></trkpt><trkpt lat="41.239102884276086" lon="19.9137190739602"><ele>194.0</ele><time>2026-04-29T09:44:45Z</time></trkpt><trkpt lat="41.23915816422187" lon="19.91359045031957"><ele>194.0</ele><time>2026-04-29T09:44:46Z</time></trkpt><trkpt lat="41.23925824271635" lon="19.913489712638487"><ele>194.0</ele><time>2026-04-29T09:44:47Z</time></trkpt><trkpt lat="41.239381515973015" lon="19.913410691773446"><ele>194.0</ele><time>2026-04-29T09:44:48Z</time></trkpt><trkpt lat="41.239512919617304" lon="19.9133427286144"><ele>194.0</ele><time>2026-04-29T09:44:49Z</time></trkpt><trkpt lat="41.23964670942702" lon="19.913264176724887"><ele>194.66666666666669</ele><time>2026-04-29T09:44:50Z</time></trkpt><trkpt lat="41.239770834197216" lon="19.91317851900647"><ele>195.33333333333331</ele><time>2026-04-29T09:44:51Z</time></trkpt><trkpt lat="41.23991499008437" lon="19.91307360529744"><ele>196.0</ele><time>2026-04-29T09:44:52Z</time></trkpt><trkpt lat="41.24010322225472" lon="19.91295362566083"><ele>196.0</ele><time>2026-04-29T09:44:53Z</time></trkpt><trkpt lat="41.24033449621665" lon="19.912821151421486"><ele>196.0</ele><time>2026-04-29T09:44:54Z</time></trkpt><trkpt lat="41.24057416511832" lon="19.912678513170796"><ele>195.66666666666666</ele><time>2026-04-29T09:44:55Z</time></trkpt><trkpt lat="41.24077927092574" lon="19.912546020684616"><ele>195.33333333333331</ele><time>2026-04-29T09:44:56Z</time></trkpt><trkpt lat="41.24096359467409" lon="19.912425636571186"><ele>195.0</ele><time>2026-04-29T09:44:57Z</time></trkpt><trkpt lat="41.241132317057414" lon="19.9123124220464"><ele>195.0</ele><time>2026-04-29T09:44:58Z</time></trkpt><trkpt lat="41.24129130024912" lon="19.912207901344658"><ele>195.0</ele><time>2026-04-29T09:44:59Z</time></trkpt><trkpt lat="41.24144309284704" lon="19.912116042740728"><ele>195.0</ele><time>2026-04-29T09:45:00Z</time></trkpt><trkpt lat="41.24158605740193" lon="19.912025632283484"><ele>194.66666666666669</ele><time>2026-04-29T09:45:01Z</time></trkpt><trkpt lat="41.24172127664604" lon="19.911902212621886"><ele>194.33333333333334</ele><time>2026-04-29T09:45:02Z</time></trkpt><trkpt lat="41.241851670628094" lon="19.911740778520386"><ele>194.0</ele><time>2026-04-29T09:45:03Z</time></trkpt><trkpt lat="41.24198266540722" lon="19.91156010099802"><ele>194.0</ele><time>2026-04-29T09:45:04Z</time></trkpt><trkpt lat="41.242116248818874" lon="19.91137387563811"><ele>194.0</ele><time>2026-04-29T09:45:05Z</time></trkpt><trkpt lat="41.242254871261785" lon="19.91117683546656"><ele>194.0</ele><time>2026-04-29T09:45:06Z</time></trkpt><trkpt lat="41.24239581754757" lon="19.910974468309362"><ele>193.33333333333334</ele><time>2026-04-29T09:45:07Z</time></trkpt><trkpt lat="41.24253839380501" lon="19.910762217058068"><ele>192.66666666666669</ele><time>2026-04-29T09:45:08Z</time></trkpt><trkpt lat="41.24267655576462" lon="19.910533661963196"><ele>192.0</ele><time>2026-04-29T09:45:09Z</time></trkpt><trkpt lat="41.24280602481105" lon="19.91028858309695"><ele>193.5</ele><time>2026-04-29T09:45:10Z</time></trkpt><trkpt lat="41.24293495290823" lon="19.91003499223476"><ele>195.0</ele><time>2026-04-29T09:45:11Z</time></trkpt><trkpt lat="41.24306630943607" lon="19.909786656353532"><ele>194.66666666666669</ele><time>2026-04-29T09:45:12Z</time></trkpt><trkpt lat="41.24319451038191" lon="19.909547950183757"><ele>194.33333333333334</ele><time>2026-04-29T09:45:13Z</time></trkpt><trkpt lat="41.24332245738553" lon="19.90930783775078"><ele>194.0</ele><time>2026-04-29T09:45:14Z</time></trkpt><trkpt lat="41.2434430431347" lon="19.90907923946512"><ele>194.0</ele><time>2026-04-29T09:45:15Z</time></trkpt><trkpt lat="41.243556407743064" lon="19.9088664535105"><ele>194.0</ele><time>2026-04-29T09:45:16Z</time></trkpt><trkpt lat="41.24366847362577" lon="19.908650436062942"><ele>194.0</ele><time>2026-04-29T09:45:17Z</time></trkpt><trkpt lat="41.243777049402325" lon="19.908425038153798"><ele>194.66666666666669</ele><time>2026-04-29T09:45:18Z</time></trkpt><trkpt lat="41.24387364854248" lon="19.90819370242482"><ele>195.33333333333331</ele><time>2026-04-29T09:45:19Z</time></trkpt><trkpt lat="41.24396188936026" lon="19.90795627538281"><ele>196.0</ele><time>2026-04-29T09:45:20Z</time></trkpt><trkpt lat="41.24404821430887" lon="19.907717383216273"><ele>194.0</ele><time>2026-04-29T09:45:21Z</time></trkpt><trkpt lat="41.244132947478406" lon="19.90749715157456"><ele>192.0</ele><time>2026-04-29T09:45:22Z</time></trkpt><trkpt lat="41.244219755656715" lon="19.907296344067465"><ele>190.0</ele><time>2026-04-29T09:45:23Z</time></trkpt><trkpt lat="41.24431401452448" lon="19.907111120154923"><ele>190.0</ele><time>2026-04-29T09:45:24Z</time></trkpt><trkpt lat="41.24441892223166" lon="19.906915242764555"><ele>190.0</ele><time>2026-04-29T09:45:25Z</time></trkpt><trkpt lat="41.24452786232998" lon="19.906712942826392"><ele>190.0</ele><time>2026-04-29T09:45:26Z</time></trkpt><trkpt lat="41.24464434381584" lon="19.906500060359264"><ele>190.0</ele><time>2026-04-29T09:45:27Z</time></trkpt><trkpt lat="41.24476141828378" lon="19.906285700119806"><ele>190.0</ele><time>2026-04-29T09:45:28Z</time></trkpt><trkpt lat="41.24487953387919" lon="19.906064886222154"><ele>190.0</ele><time>2026-04-29T09:45:29Z</time></trkpt><trkpt lat="41.24499897896876" lon="19.905841265964472"><ele>190.0</ele><time>2026-04-29T09:45:30Z</time></trkpt><trkpt lat="41.24511495047851" lon="19.90562036000145"><ele>190.0</ele><time>2026-04-29T09:45:31Z</time></trkpt><trkpt lat="41.24521916597686" lon="19.905419517040688"><ele>190.0</ele><time>2026-04-29T09:45:32Z</time></trkpt><trkpt lat="41.24531763373041" lon="19.90522680311119"><ele>189.66666666666669</ele><time>2026-04-29T09:45:33Z</time></trkpt><trkpt lat="41.245419538409394" lon="19.905030376631053"><ele>189.33333333333334</ele><time>2026-04-29T09:45:34Z</time></trkpt><trkpt lat="41.24552801557803" lon="19.904831847567895"><ele>189.0</ele><time>2026-04-29T09:45:35Z</time></trkpt><trkpt lat="41.24563824879359" lon="19.904636050722093"><ele>189.0</ele><time>2026-04-29T09:45:36Z</time></trkpt><trkpt lat="41.24575270388576" lon="19.90443055124803"><ele>189.0</ele><time>2026-04-29T09:45:37Z</time></trkpt><trkpt lat="41.24586431523616" lon="19.904223799430646"><ele>189.0</ele><time>2026-04-29T09:45:38Z</time></trkpt><trkpt lat="41.245977908723255" lon="19.904013614746955"><ele>189.66666666666666</ele><time>2026-04-29T09:45:39Z</time></trkpt><trkpt lat="41.24609414412923" lon="19.90379955130446"><ele>190.33333333333331</ele><time>2026-04-29T09:45:40Z</time></trkpt><trkpt lat="41.246201592402656" lon="19.90359814736219"><ele>191.0</ele><time>2026-04-29T09:45:41Z</time></trkpt><trkpt lat="41.24629722968748" lon="19.903417500782858"><ele>191.33333333333331</ele><time>2026-04-29T09:45:42Z</time></trkpt><trkpt lat="41.24638707976412" lon="19.903245583949445"><ele>191.66666666666666</ele><time>2026-04-29T09:45:43Z</time></trkpt><trkpt lat="41.24647970546662" lon="19.903072712406654"><ele>192.0</ele><time>2026-04-29T09:45:44Z</time></trkpt><trkpt lat="41.246576518300955" lon="19.90289469062615"><ele>192.33333333333331</ele><time>2026-04-29T09:45:45Z</time></trkpt><trkpt lat="41.24667347471811" lon="19.90271560173586"><ele>192.66666666666666</ele><time>2026-04-29T09:45:46Z</time></trkpt><trkpt lat="41.2467725875199" lon="19.90252996405357"><ele>193.0</ele><time>2026-04-29T09:45:47Z</time></trkpt><trkpt lat="41.24687241317622" lon="19.9023394149755"><ele>193.0</ele><time>2026-04-29T09:45:48Z</time></trkpt><trkpt lat="41.246974546592064" lon="19.902191181454523"><ele>193.0</ele><time>2026-04-29T09:45:49Z</time></trkpt><trkpt lat="41.247064792555115" lon="19.902026877389325"><ele>193.0</ele><time>2026-04-29T09:45:50Z</time></trkpt><trkpt lat="41.24718783381197" lon="19.901758744622917"><ele>191.33333333333331</ele><time>2026-04-29T09:45:51Z</time></trkpt><trkpt lat="41.24730142708086" lon="19.901547029174054"><ele>189.66666666666666</ele><time>2026-04-29T09:45:52Z</time></trkpt><trkpt lat="41.24740734792639" lon="19.901348939883487"><ele>188.0</ele><time>2026-04-29T09:45:53Z</time></trkpt><trkpt lat="41.247516853701256" lon="19.90114693048611"><ele>188.0</ele><time>2026-04-29T09:45:54Z</time></trkpt><trkpt lat="41.24762320768154" lon="19.900943724376877"><ele>188.0</ele><time>2026-04-29T09:45:55Z</time></trkpt><trkpt lat="41.247720444817965" lon="19.900756916444873"><ele>188.0</ele><time>2026-04-29T09:45:56Z</time></trkpt><trkpt lat="41.24781237842361" lon="19.900586764790074"><ele>188.0</ele><time>2026-04-29T09:45:57Z</time></trkpt><trkpt lat="41.24789848458356" lon="19.90042809024058"><ele>188.0</ele><time>2026-04-29T09:45:58Z</time></trkpt><trkpt lat="41.247981918982674" lon="19.90028367917616"><ele>188.0</ele><time>2026-04-29T09:45:59Z</time></trkpt><trkpt lat="41.24805039982148" lon="19.90013940657391"><ele>188.0</ele><time>2026-04-29T09:46:00Z</time></trkpt><trkpt lat="41.248124428809916" lon="19.899994124929897"><ele>187.5</ele><time>2026-04-29T09:46:01Z</time></trkpt><trkpt lat="41.248202453721014" lon="19.899837734607555"><ele>187.0</ele><time>2026-04-29T09:46:02Z</time></trkpt><trkpt lat="41.24828886162399" lon="19.899688134889956"><ele>186.5</ele><time>2026-04-29T09:46:03Z</time></trkpt><trkpt lat="41.248374640771594" lon="19.899528285558503"><ele>186.0</ele><time>2026-04-29T09:46:04Z</time></trkpt><trkpt lat="41.2484633303367" lon="19.899365644761172"><ele>186.66666666666666</ele><time>2026-04-29T09:46:05Z</time></trkpt><trkpt lat="41.248550885858656" lon="19.899195185091916"><ele>187.33333333333331</ele><time>2026-04-29T09:46:06Z</time></trkpt><trkpt lat="41.248637399068436" lon="19.89902076114686"><ele>188.0</ele><time>2026-04-29T09:46:07Z</time></trkpt><trkpt lat="41.24874410253741" lon="19.898855571788744"><ele>188.0</ele><time>2026-04-29T09:46:08Z</time></trkpt><trkpt lat="41.248832511692655" lon="19.89869407453929"><ele>188.0</ele><time>2026-04-29T09:46:09Z</time></trkpt><trkpt lat="41.24890009434419" lon="19.89853270775118"><ele>188.0</ele><time>2026-04-29T09:46:10Z</time></trkpt><trkpt lat="41.24898212132676" lon="19.898385005817506"><ele>188.0</ele><time>2026-04-29T09:46:11Z</time></trkpt><trkpt lat="41.24906892869401" lon="19.89823151957916"><ele>188.0</ele><time>2026-04-29T09:46:12Z</time></trkpt><trkpt lat="41.249153535546554" lon="19.898067590144244"><ele>188.0</ele><time>2026-04-29T09:46:13Z</time></trkpt><trkpt lat="41.249255020801534" lon="19.89791828658181"><ele>188.0</ele><time>2026-04-29T09:46:14Z</time></trkpt><trkpt lat="41.249344609982664" lon="19.897752707125385"><ele>188.0</ele><time>2026-04-29T09:46:15Z</time></trkpt><trkpt lat="41.24943061040417" lon="19.89759032635227"><ele>188.0</ele><time>2026-04-29T09:46:16Z</time></trkpt><trkpt lat="41.24950786708385" lon="19.897444455094245"><ele>188.0</ele><time>2026-04-29T09:46:17Z</time></trkpt><trkpt lat="41.24958165090602" lon="19.897305141108255"><ele>188.0</ele><time>2026-04-29T09:46:18Z</time></trkpt><trkpt lat="41.24965003919173" lon="19.897176014451638"><ele>188.5</ele><time>2026-04-29T09:46:19Z</time></trkpt><trkpt lat="41.249714651512335" lon="19.897054078202455"><ele>189.0</ele><time>2026-04-29T09:46:20Z</time></trkpt><trkpt lat="41.249776317643594" lon="19.896937752245236"><ele>189.5</ele><time>2026-04-29T09:46:21Z</time></trkpt><trkpt lat="41.24984173187685" lon="19.896813874158465"><ele>190.0</ele><time>2026-04-29T09:46:22Z</time></trkpt><trkpt lat="41.24991968021058" lon="19.896666155234932"><ele>188.0</ele><time>2026-04-29T09:46:23Z</time></trkpt><trkpt lat="41.250008101776174" lon="19.89649921458477"><ele>186.0</ele><time>2026-04-29T09:46:24Z</time></trkpt><trkpt lat="41.25010417102732" lon="19.89631862289242"><ele>184.0</ele><time>2026-04-29T09:46:25Z</time></trkpt><trkpt lat="41.25020452168854" lon="19.896130061082097"><ele>184.0</ele><time>2026-04-29T09:46:26Z</time></trkpt><trkpt lat="41.25029529481554" lon="19.895922375285565"><ele>184.0</ele><time>2026-04-29T09:46:27Z</time></trkpt><trkpt lat="41.250409832851346" lon="19.895730581661837"><ele>184.0</ele><time>2026-04-29T09:46:28Z</time></trkpt><trkpt lat="41.250516988669375" lon="19.89555603872558"><ele>183.75</ele><time>2026-04-29T09:46:29Z</time></trkpt><trkpt lat="41.25061577884579" lon="19.89539703432352"><ele>183.5</ele><time>2026-04-29T09:46:30Z</time></trkpt><trkpt lat="41.25071221424843" lon="19.895254091044634"><ele>183.25</ele><time>2026-04-29T09:46:31Z</time></trkpt><trkpt lat="41.250817087802545" lon="19.895123297337037"><ele>183.0</ele><time>2026-04-29T09:46:32Z</time></trkpt><trkpt lat="41.25095015175429" lon="19.895015783184764"><ele>184.66666666666666</ele><time>2026-04-29T09:46:33Z</time></trkpt><trkpt lat="41.25106838012575" lon="19.89487167984414"><ele>186.33333333333331</ele><time>2026-04-29T09:46:34Z</time></trkpt><trkpt lat="41.25119557699132" lon="19.894748991319013"><ele>188.0</ele><time>2026-04-29T09:46:35Z</time></trkpt><trkpt lat="41.2513079452911" lon="19.894638917554023"><ele>188.0</ele><time>2026-04-29T09:46:36Z</time></trkpt><trkpt lat="41.25141588655169" lon="19.89453055124396"><ele>188.0</ele><time>2026-04-29T09:46:37Z</time></trkpt><trkpt lat="41.25153373723622" lon="19.894414524465095"><ele>188.0</ele><time>2026-04-29T09:46:38Z</time></trkpt><trkpt lat="41.251657311957494" lon="19.89429257999009"><ele>188.0</ele><time>2026-04-29T09:46:39Z</time></trkpt><trkpt lat="41.25177303143948" lon="19.89417421149758"><ele>185.66666666666666</ele><time>2026-04-29T09:46:40Z</time></trkpt><trkpt lat="41.251889397128316" lon="19.894058143747838"><ele>183.33333333333334</ele><time>2026-04-29T09:46:41Z</time></trkpt><trkpt lat="41.25201638108291" lon="19.89394073354401"><ele>181.0</ele><time>2026-04-29T09:46:42Z</time></trkpt><trkpt lat="41.25213570823526" lon="19.893819463072397"><ele>181.0</ele><time>2026-04-29T09:46:43Z</time></trkpt><trkpt lat="41.25224969908552" lon="19.893705781338344"><ele>181.0</ele><time>2026-04-29T09:46:44Z</time></trkpt><trkpt lat="41.25237096122993" lon="19.893596909532754"><ele>181.0</ele><time>2026-04-29T09:46:45Z</time></trkpt><trkpt lat="41.2524824826249" lon="19.893476120864342"><ele>181.0</ele><time>2026-04-29T09:46:46Z</time></trkpt><trkpt lat="41.252590130060156" lon="19.893367347397053"><ele>181.25</ele><time>2026-04-29T09:46:47Z</time></trkpt><trkpt lat="41.25269412730933" lon="19.893267428021495"><ele>181.5</ele><time>2026-04-29T09:46:48Z</time></trkpt><trkpt lat="41.252793651109236" lon="19.893169103436716"><ele>181.75</ele><time>2026-04-29T09:46:49Z</time></trkpt><trkpt lat="41.25288089190383" lon="19.89306788098482"><ele>182.0</ele><time>2026-04-29T09:46:50Z</time></trkpt><trkpt lat="41.252972353089724" lon="19.89297604749401"><ele>182.0</ele><time>2026-04-29T09:46:51Z</time></trkpt><trkpt lat="41.25302049558141" lon="19.892818660793434"><ele>182.0</ele><time>2026-04-29T09:46:52Z</time></trkpt><trkpt lat="41.253070603369025" lon="19.89265335261155"><ele>182.0</ele><time>2026-04-29T09:46:53Z</time></trkpt><trkpt lat="41.25310686107494" lon="19.892471367663173"><ele>182.0</ele><time>2026-04-29T09:46:54Z</time></trkpt><trkpt lat="41.2531348733882" lon="19.89229679457825"><ele>180.0</ele><time>2026-04-29T09:46:55Z</time></trkpt><trkpt lat="41.253174968500836" lon="19.892105095725462"><ele>178.0</ele><time>2026-04-29T09:46:56Z</time></trkpt><trkpt lat="41.25328311578125" lon="19.891903504260938"><ele>176.0</ele><time>2026-04-29T09:46:57Z</time></trkpt><trkpt lat="41.25333693048257" lon="19.891641682513765"><ele>175.33333333333331</ele><time>2026-04-29T09:46:58Z</time></trkpt><trkpt lat="41.253395272824804" lon="19.891358125905164"><ele>174.66666666666666</ele><time>2026-04-29T09:46:59Z</time></trkpt><trkpt lat="41.25346093133842" lon="19.891083704468308"><ele>174.0</ele><time>2026-04-29T09:47:00Z</time></trkpt><trkpt lat="41.25350936910237" lon="19.890828995059728"><ele>176.33333333333334</ele><time>2026-04-29T09:47:01Z</time></trkpt><trkpt lat="41.253560974211624" lon="19.89057147920016"><ele>178.66666666666669</ele><time>2026-04-29T09:47:02Z</time></trkpt><trkpt lat="41.253609338256645" lon="19.89031015069805"><ele>181.0</ele><time>2026-04-29T09:47:03Z</time></trkpt><trkpt lat="41.25365411579375" lon="19.890056714708937"><ele>183.33333333333334</ele><time>2026-04-29T09:47:04Z</time></trkpt><trkpt lat="41.253688439973466" lon="19.88982563584361"><ele>185.66666666666666</ele><time>2026-04-29T09:47:05Z</time></trkpt><trkpt lat="41.25374425596052" lon="19.889628477968085"><ele>188.0</ele><time>2026-04-29T09:47:06Z</time></trkpt><trkpt lat="41.2537944441775" lon="19.889423292753357"><ele>188.66666666666666</ele><time>2026-04-29T09:47:07Z</time></trkpt><trkpt lat="41.25384283414099" lon="19.889199194134257"><ele>189.33333333333334</ele><time>2026-04-29T09:47:08Z</time></trkpt><trkpt lat="41.253916994724946" lon="19.888968196430522"><ele>190.0</ele><time>2026-04-29T09:47:09Z</time></trkpt><trkpt lat="41.25399752276148" lon="19.88873590242406"><ele>184.66666666666669</ele><time>2026-04-29T09:47:10Z</time></trkpt><trkpt lat="41.254071904507256" lon="19.8885259106588"><ele>179.33333333333334</ele><time>2026-04-29T09:47:11Z</time></trkpt><trkpt lat="41.254144631360575" lon="19.88833770252419"><ele>174.0</ele><time>2026-04-29T09:47:12Z</time></trkpt><trkpt lat="41.25421805939062" lon="19.888160228487823"><ele>174.0</ele><time>2026-04-29T09:47:13Z</time></trkpt><trkpt lat="41.254295815008234" lon="19.888004768241522"><ele>174.0</ele><time>2026-04-29T09:47:14Z</time></trkpt><trkpt lat="41.25440394733889" lon="19.88789577096794"><ele>174.0</ele><time>2026-04-29T09:47:15Z</time></trkpt><trkpt lat="41.25451651168489" lon="19.887791269201756"><ele>174.0</ele><time>2026-04-29T09:47:16Z</time></trkpt><trkpt lat="41.25464457835971" lon="19.88769304747919"><ele>173.66666666666666</ele><time>2026-04-29T09:47:17Z</time></trkpt><trkpt lat="41.254773281803075" lon="19.88755977442462"><ele>173.33333333333331</ele><time>2026-04-29T09:47:18Z</time></trkpt><trkpt lat="41.254931799047064" lon="19.887461352969545"><ele>173.0</ele><time>2026-04-29T09:47:19Z</time></trkpt><trkpt lat="41.2551041834923" lon="19.88738389897962"><ele>173.0</ele><time>2026-04-29T09:47:20Z</time></trkpt><trkpt lat="41.25526779812437" lon="19.887341751983858"><ele>173.0</ele><time>2026-04-29T09:47:21Z</time></trkpt><trkpt lat="41.25540785293066" lon="19.88732414262221"><ele>173.0</ele><time>2026-04-29T09:47:22Z</time></trkpt><trkpt lat="41.25552863378729" lon="19.887291821634296"><ele>173.0</ele><time>2026-04-29T09:47:23Z</time></trkpt><trkpt lat="41.255650098475236" lon="19.88720616151285"><ele>173.33333333333331</ele><time>2026-04-29T09:47:24Z</time></trkpt><trkpt lat="41.25576642025576" lon="19.887071506933932"><ele>173.66666666666666</ele><time>2026-04-29T09:47:25Z</time></trkpt><trkpt lat="41.25589171825641" lon="19.88690371187361"><ele>174.0</ele><time>2026-04-29T09:47:26Z</time></trkpt><trkpt lat="41.25602287227775" lon="19.88672833217396"><ele>174.0</ele><time>2026-04-29T09:47:27Z</time></trkpt><trkpt lat="41.256158673208645" lon="19.886542801209345"><ele>174.0</ele><time>2026-04-29T09:47:28Z</time></trkpt><trkpt lat="41.256268030639774" lon="19.886368365460427"><ele>174.0</ele><time>2026-04-29T09:47:29Z</time></trkpt><trkpt lat="41.25635702206145" lon="19.88620200937522"><ele>174.0</ele><time>2026-04-29T09:47:30Z</time></trkpt><trkpt lat="41.256444513122915" lon="19.886028733858723"><ele>174.0</ele><time>2026-04-29T09:47:31Z</time></trkpt><trkpt lat="41.256515653913176" lon="19.88586075233087"><ele>174.0</ele><time>2026-04-29T09:47:32Z</time></trkpt><trkpt lat="41.256558342833564" lon="19.88569555695987"><ele>174.0</ele><time>2026-04-29T09:47:33Z</time></trkpt><trkpt lat="41.25657039555474" lon="19.88552379636387"><ele>173.25</ele><time>2026-04-29T09:47:34Z</time></trkpt><trkpt lat="41.25657522408407" lon="19.885336863229412"><ele>172.5</ele><time>2026-04-29T09:47:35Z</time></trkpt><trkpt lat="41.256592226817844" lon="19.885144536293783"><ele>171.75</ele><time>2026-04-29T09:47:36Z</time></trkpt><trkpt lat="41.256620222877096" lon="19.88494713915772"><ele>171.0</ele><time>2026-04-29T09:47:37Z</time></trkpt><trkpt lat="41.256658218699116" lon="19.88474288028625"><ele>171.0</ele><time>2026-04-29T09:47:38Z</time></trkpt><trkpt lat="41.256703757210815" lon="19.884534896482798"><ele>171.0</ele><time>2026-04-29T09:47:39Z</time></trkpt><trkpt lat="41.25675382741752" lon="19.88431683884761"><ele>171.0</ele><time>2026-04-29T09:47:40Z</time></trkpt><trkpt lat="41.25679902144575" lon="19.884122954396833"><ele>171.5</ele><time>2026-04-29T09:47:41Z</time></trkpt><trkpt lat="41.25683976002916" lon="19.88395327218231"><ele>172.0</ele><time>2026-04-29T09:47:42Z</time></trkpt><trkpt lat="41.256874133247436" lon="19.883797817941304"><ele>172.5</ele><time>2026-04-29T09:47:43Z</time></trkpt><trkpt lat="41.25690640375941" lon="19.883648659721732"><ele>173.0</ele><time>2026-04-29T09:47:44Z</time></trkpt><trkpt lat="41.25694111682713" lon="19.88350317672291"><ele>173.4</ele><time>2026-04-29T09:47:45Z</time></trkpt><trkpt lat="41.25697461460701" lon="19.883363465421297"><ele>173.8</ele><time>2026-04-29T09:47:46Z</time></trkpt><trkpt lat="41.25700453954692" lon="19.883236234289928"><ele>174.2</ele><time>2026-04-29T09:47:47Z</time></trkpt><trkpt lat="41.25703404065535" lon="19.883117856239966"><ele>174.6</ele><time>2026-04-29T09:47:48Z</time></trkpt><trkpt lat="41.25706190796569" lon="19.883007071940966"><ele>175.0</ele><time>2026-04-29T09:47:49Z</time></trkpt><trkpt lat="41.25709464131698" lon="19.882898609894237"><ele>175.0</ele><time>2026-04-29T09:47:50Z</time></trkpt><trkpt lat="41.25712572628404" lon="19.88278467818952"><ele>175.0</ele><time>2026-04-29T09:47:51Z</time></trkpt><trkpt lat="41.257162171153716" lon="19.882669032449552"><ele>175.0</ele><time>2026-04-29T09:47:52Z</time></trkpt><trkpt lat="41.25719876595479" lon="19.882557809202215"><ele>175.0</ele><time>2026-04-29T09:47:53Z</time></trkpt><trkpt lat="41.25724241465125" lon="19.882441742510647"><ele>175.0</ele><time>2026-04-29T09:47:54Z</time></trkpt><trkpt lat="41.25728669252687" lon="19.882335458110433"><ele>174.2</ele><time>2026-04-29T09:47:55Z</time></trkpt><trkpt lat="41.2573340144556" lon="19.88222886873453"><ele>173.4</ele><time>2026-04-29T09:47:56Z</time></trkpt><trkpt lat="41.25737806014741" lon="19.882113982587086"><ele>172.60000000000002</ele><time>2026-04-29T09:47:57Z</time></trkpt><trkpt lat="41.25742236404363" lon="19.88198237031988"><ele>171.8</ele><time>2026-04-29T09:47:58Z</time></trkpt><trkpt lat="41.25747189171025" lon="19.881829733841133"><ele>171.0</ele><time>2026-04-29T09:47:59Z</time></trkpt><trkpt lat="41.25755001062735" lon="19.881666428267593"><ele>171.0</ele><time>2026-04-29T09:48:00Z</time></trkpt><trkpt lat="41.257632301628526" lon="19.881469038333847"><ele>171.0</ele><time>2026-04-29T09:48:01Z</time></trkpt><trkpt lat="41.257723613713125" lon="19.881250009752783"><ele>171.0</ele><time>2026-04-29T09:48:02Z</time></trkpt><trkpt lat="41.25781273234295" lon="19.881036220789195"><ele>172.0</ele><time>2026-04-29T09:48:03Z</time></trkpt><trkpt lat="41.25787389367604" lon="19.880841326170735"><ele>173.0</ele><time>2026-04-29T09:48:04Z</time></trkpt><trkpt lat="41.25794120829166" lon="19.88068795062656"><ele>174.0</ele><time>2026-04-29T09:48:05Z</time></trkpt><trkpt lat="41.25800162778837" lon="19.880537194487182"><ele>175.0</ele><time>2026-04-29T09:48:06Z</time></trkpt><trkpt lat="41.258054112740126" lon="19.880375593446715"><ele>175.0</ele><time>2026-04-29T09:48:07Z</time></trkpt><trkpt lat="41.258114290607686" lon="19.880213828366095"><ele>175.0</ele><time>2026-04-29T09:48:08Z</time></trkpt><trkpt lat="41.25818614282059" lon="19.880057822799355"><ele>175.0</ele><time>2026-04-29T09:48:09Z</time></trkpt><trkpt lat="41.2582688055988" lon="19.87990561766064"><ele>175.0</ele><time>2026-04-29T09:48:10Z</time></trkpt><trkpt lat="41.25835842259796" lon="19.87976138336191"><ele>175.25</ele><time>2026-04-29T09:48:11Z</time></trkpt><trkpt lat="41.25845438504701" lon="19.879612269695446"><ele>175.5</ele><time>2026-04-29T09:48:12Z</time></trkpt><trkpt lat="41.2585501674731" lon="19.879461151022326"><ele>175.75</ele><time>2026-04-29T09:48:13Z</time></trkpt><trkpt lat="41.258650089850846" lon="19.879306456201483"><ele>176.0</ele><time>2026-04-29T09:48:14Z</time></trkpt><trkpt lat="41.25875825987858" lon="19.87914501389108"><ele>176.0</ele><time>2026-04-29T09:48:15Z</time></trkpt><trkpt lat="41.25884640774238" lon="19.87897198815434"><ele>176.0</ele><time>2026-04-29T09:48:16Z</time></trkpt><trkpt lat="41.25892868514339" lon="19.878803719682104"><ele>176.0</ele><time>2026-04-29T09:48:17Z</time></trkpt><trkpt lat="41.258991961990475" lon="19.878628645640603"><ele>173.5</ele><time>2026-04-29T09:48:18Z</time></trkpt><trkpt lat="41.25904069673577" lon="19.87847088394854"><ele>171.0</ele><time>2026-04-29T09:48:19Z</time></trkpt><trkpt lat="41.25908382127978" lon="19.878301996556843"><ele>168.5</ele><time>2026-04-29T09:48:20Z</time></trkpt><trkpt lat="41.25912252111371" lon="19.87812235192322"><ele>166.0</ele><time>2026-04-29T09:48:21Z</time></trkpt><trkpt lat="41.25915530179682" lon="19.87793540467378"><ele>166.0</ele><time>2026-04-29T09:48:22Z</time></trkpt><trkpt lat="41.25918170577011" lon="19.87774250836655"><ele>166.0</ele><time>2026-04-29T09:48:23Z</time></trkpt><trkpt lat="41.259196755268" lon="19.87753246406805"><ele>166.0</ele><time>2026-04-29T09:48:24Z</time></trkpt><trkpt lat="41.25919064502128" lon="19.877313444958112"><ele>167.0</ele><time>2026-04-29T09:48:25Z</time></trkpt><trkpt lat="41.259170962265046" lon="19.877100840842623"><ele>168.0</ele><time>2026-04-29T09:48:26Z</time></trkpt><trkpt lat="41.259131512716344" lon="19.876895842500282"><ele>169.0</ele><time>2026-04-29T09:48:27Z</time></trkpt><trkpt lat="41.259115990074" lon="19.876709892332027"><ele>169.0</ele><time>2026-04-29T09:48:28Z</time></trkpt><trkpt lat="41.259103128787366" lon="19.876536931898936"><ele>169.0</ele><time>2026-04-29T09:48:29Z</time></trkpt><trkpt lat="41.259087959905635" lon="19.87637300086977"><ele>169.0</ele><time>2026-04-29T09:48:30Z</time></trkpt><trkpt lat="41.25907577961247" lon="19.876220326225432"><ele>169.0</ele><time>2026-04-29T09:48:31Z</time></trkpt><trkpt lat="41.25906412415323" lon="19.876062989634427"><ele>168.75</ele><time>2026-04-29T09:48:32Z</time></trkpt><trkpt lat="41.259059369265174" lon="19.875892601768896"><ele>168.5</ele><time>2026-04-29T09:48:33Z</time></trkpt><trkpt lat="41.25908417460113" lon="19.875710553792583"><ele>168.25</ele><time>2026-04-29T09:48:34Z</time></trkpt><trkpt lat="41.25912810849641" lon="19.875520091863873"><ele>168.0</ele><time>2026-04-29T09:48:35Z</time></trkpt><trkpt lat="41.25917781866511" lon="19.875327985888312"><ele>168.0</ele><time>2026-04-29T09:48:36Z</time></trkpt><trkpt lat="41.259203453308395" lon="19.875142215782837"><ele>168.0</ele><time>2026-04-29T09:48:37Z</time></trkpt><trkpt lat="41.259245278031145" lon="19.874927785904124"><ele>168.0</ele><time>2026-04-29T09:48:38Z</time></trkpt><trkpt lat="41.25930089238285" lon="19.8747502837545"><ele>168.0</ele><time>2026-04-29T09:48:39Z</time></trkpt><trkpt lat="41.25934803881326" lon="19.87456950281219"><ele>168.0</ele><time>2026-04-29T09:48:40Z</time></trkpt><trkpt lat="41.259397789358154" lon="19.874364356360672"><ele>168.0</ele><time>2026-04-29T09:48:41Z</time></trkpt><trkpt lat="41.259443998410404" lon="19.874166579542237"><ele>168.0</ele><time>2026-04-29T09:48:42Z</time></trkpt><trkpt lat="41.25949027167575" lon="19.87396819738649"><ele>168.0</ele><time>2026-04-29T09:48:43Z</time></trkpt><trkpt lat="41.25954526776677" lon="19.87380704744154"><ele>168.0</ele><time>2026-04-29T09:48:44Z</time></trkpt><trkpt lat="41.259604659267964" lon="19.873647335247153"><ele>168.0</ele><time>2026-04-29T09:48:45Z</time></trkpt><trkpt lat="41.2596672846096" lon="19.87350191821359"><ele>168.75</ele><time>2026-04-29T09:48:46Z</time></trkpt><trkpt lat="41.25973506579853" lon="19.873374887263992"><ele>169.5</ele><time>2026-04-29T09:48:47Z</time></trkpt><trkpt lat="41.25979985373286" lon="19.873253465577736"><ele>170.25</ele><time>2026-04-29T09:48:48Z</time></trkpt><trkpt lat="41.259887687522024" lon="19.87316863284837"><ele>171.0</ele><time>2026-04-29T09:48:49Z</time></trkpt><trkpt lat="41.259982079192135" lon="19.873069963056555"><ele>169.0</ele><time>2026-04-29T09:48:50Z</time></trkpt><trkpt lat="41.26008822418629" lon="19.872962534146193"><ele>167.0</ele><time>2026-04-29T09:48:51Z</time></trkpt><trkpt lat="41.26018976776752" lon="19.872832507602443"><ele>165.0</ele><time>2026-04-29T09:48:52Z</time></trkpt><trkpt lat="41.26030785150947" lon="19.872740243157196"><ele>163.0</ele><time>2026-04-29T09:48:53Z</time></trkpt><trkpt lat="41.26040515016837" lon="19.87264383204866"><ele>163.75</ele><time>2026-04-29T09:48:54Z</time></trkpt><trkpt lat="41.260502595630626" lon="19.872560677030616"><ele>164.5</ele><time>2026-04-29T09:48:55Z</time></trkpt><trkpt lat="41.260604365164696" lon="19.872470144193727"><ele>165.25</ele><time>2026-04-29T09:48:56Z</time></trkpt><trkpt lat="41.26070654465235" lon="19.87237537408986"><ele>166.0</ele><time>2026-04-29T09:48:57Z</time></trkpt><trkpt lat="41.26081601058433" lon="19.872272864279218"><ele>163.5</ele><time>2026-04-29T09:48:58Z</time></trkpt><trkpt lat="41.260916050358205" lon="19.872183980535528"><ele>161.0</ele><time>2026-04-29T09:48:59Z</time></trkpt><trkpt lat="41.26101038583149" lon="19.872087080827438"><ele>158.5</ele><time>2026-04-29T09:49:00Z</time></trkpt><trkpt lat="41.26110440099292" lon="19.87198887084072"><ele>156.0</ele><time>2026-04-29T09:49:01Z</time></trkpt><trkpt lat="41.26120195414259" lon="19.871887367563126"><ele>156.75</ele><time>2026-04-29T09:49:02Z</time></trkpt><trkpt lat="41.26130444095503" lon="19.871735827222416"><ele>157.5</ele><time>2026-04-29T09:49:03Z</time></trkpt><trkpt lat="41.26138476835412" lon="19.87156086550381"><ele>158.25</ele><time>2026-04-29T09:49:04Z</time></trkpt><trkpt lat="41.2614515848863" lon="19.8714018693719"><ele>159.0</ele><time>2026-04-29T09:49:05Z</time></trkpt><trkpt lat="41.26151505582151" lon="19.87126247208386"><ele>155.75</ele><time>2026-04-29T09:49:06Z</time></trkpt><trkpt lat="41.26157894688964" lon="19.871123276705244"><ele>152.5</ele><time>2026-04-29T09:49:07Z</time></trkpt><trkpt lat="41.261641851570715" lon="19.870967809038905"><ele>149.25</ele><time>2026-04-29T09:49:08Z</time></trkpt><trkpt lat="41.26173355856573" lon="19.870805535354826"><ele>146.0</ele><time>2026-04-29T09:49:09Z</time></trkpt><trkpt lat="41.26182767094511" lon="19.870639712557995"><ele>146.0</ele><time>2026-04-29T09:49:10Z</time></trkpt><trkpt lat="41.26191274331126" lon="19.870452358055058"><ele>146.0</ele><time>2026-04-29T09:49:11Z</time></trkpt><trkpt lat="41.26199695870953" lon="19.8702737143579"><ele>146.0</ele><time>2026-04-29T09:49:12Z</time></trkpt><trkpt lat="41.26207801955812" lon="19.870097632743743"><ele>145.0</ele><time>2026-04-29T09:49:13Z</time></trkpt><trkpt lat="41.26215421365592" lon="19.86992471743333"><ele>144.0</ele><time>2026-04-29T09:49:14Z</time></trkpt><trkpt lat="41.26223269665645" lon="19.869751298419217"><ele>143.0</ele><time>2026-04-29T09:49:15Z</time></trkpt><trkpt lat="41.26231325729782" lon="19.869578472175725"><ele>143.33333333333331</ele><time>2026-04-29T09:49:16Z</time></trkpt><trkpt lat="41.26239487761645" lon="19.86940118947398"><ele>143.66666666666666</ele><time>2026-04-29T09:49:17Z</time></trkpt><trkpt lat="41.26247908025176" lon="19.869221854103788"><ele>144.0</ele><time>2026-04-29T09:49:18Z</time></trkpt><trkpt lat="41.26256088642644" lon="19.86903709008817"><ele>144.0</ele><time>2026-04-29T09:49:19Z</time></trkpt><trkpt lat="41.26264004855009" lon="19.868849582160184"><ele>144.0</ele><time>2026-04-29T09:49:20Z</time></trkpt><trkpt lat="41.262709350596516" lon="19.86867854406018"><ele>144.0</ele><time>2026-04-29T09:49:21Z</time></trkpt><trkpt lat="41.26277191373764" lon="19.86851662482321"><ele>144.0</ele><time>2026-04-29T09:49:22Z</time></trkpt><trkpt lat="41.26283700479155" lon="19.868345106820243"><ele>144.25</ele><time>2026-04-29T09:49:23Z</time></trkpt><trkpt lat="41.26290102239881" lon="19.868173252450003"><ele>144.5</ele><time>2026-04-29T09:49:24Z</time></trkpt><trkpt lat="41.26296727937548" lon="19.86800824082731"><ele>144.75</ele><time>2026-04-29T09:49:25Z</time></trkpt><trkpt lat="41.26303128951959" lon="19.86786217740117"><ele>145.0</ele><time>2026-04-29T09:49:26Z</time></trkpt><trkpt lat="41.26309409963117" lon="19.86772782179729"><ele>146.5</ele><time>2026-04-29T09:49:27Z</time></trkpt><trkpt lat="41.263166475626974" lon="19.867585478459535"><ele>148.0</ele><time>2026-04-29T09:49:28Z</time></trkpt><trkpt lat="41.26324276418085" lon="19.86743414370065"><ele>149.5</ele><time>2026-04-29T09:49:29Z</time></trkpt><trkpt lat="41.26331560334429" lon="19.86728359425511"><ele>151.0</ele><time>2026-04-29T09:49:30Z</time></trkpt><trkpt lat="41.26338693872246" lon="19.86712572686499"><ele>151.0</ele><time>2026-04-29T09:49:31Z</time></trkpt><trkpt lat="41.26346166222095" lon="19.866966125544145"><ele>151.0</ele><time>2026-04-29T09:49:32Z</time></trkpt><trkpt lat="41.263531584368536" lon="19.866814394358002"><ele>151.0</ele><time>2026-04-29T09:49:33Z</time></trkpt><trkpt lat="41.26359334357126" lon="19.86668653679212"><ele>151.0</ele><time>2026-04-29T09:49:34Z</time></trkpt><trkpt lat="41.2636538440443" lon="19.866565539488963"><ele>151.0</ele><time>2026-04-29T09:49:35Z</time></trkpt><trkpt lat="41.26371291632074" lon="19.866442610731394"><ele>151.0</ele><time>2026-04-29T09:49:36Z</time></trkpt><trkpt lat="41.263768031089086" lon="19.866338983938064"><ele>151.0</ele><time>2026-04-29T09:49:37Z</time></trkpt><trkpt lat="41.263821685143476" lon="19.866258122553"><ele>151.0</ele><time>2026-04-29T09:49:38Z</time></trkpt><trkpt lat="41.26387583056225" lon="19.866191566150338"><ele>151.0</ele><time>2026-04-29T09:49:39Z</time></trkpt><trkpt lat="41.263987718863184" lon="19.86613395361528"><ele>152.25</ele><time>2026-04-29T09:49:41Z</time></trkpt><trkpt lat="41.26409889535752" lon="19.8660925857103"><ele>153.5</ele><time>2026-04-29T09:49:43Z</time></trkpt><trkpt lat="41.26418771566928" lon="19.866063487081174"><ele>154.75</ele><time>2026-04-29T09:49:45Z</time></trkpt><trkpt lat="41.264261755727574" lon="19.866088991884105"><ele>156.0</ele><time>2026-04-29T09:49:48Z</time></trkpt><trkpt lat="41.26438311667901" lon="19.86625224241256"><ele>156.0</ele><time>2026-04-29T09:49:54Z</time></trkpt><trkpt lat="41.26443925101499" lon="19.8663643662949"><ele>156.0</ele><time>2026-04-29T09:49:55Z</time></trkpt><trkpt lat="41.264479284055106" lon="19.86649002979228"><ele>156.0</ele><time>2026-04-29T09:49:56Z</time></trkpt><trkpt lat="41.264531410914465" lon="19.866629854879903"><ele>156.0</ele><time>2026-04-29T09:49:57Z</time></trkpt><trkpt lat="41.26458697808083" lon="19.866791809788904"><ele>155.33333333333334</ele><time>2026-04-29T09:49:58Z</time></trkpt><trkpt lat="41.26465769697272" lon="19.867012149351776"><ele>154.66666666666669</ele><time>2026-04-29T09:49:59Z</time></trkpt><trkpt lat="41.26470845492083" lon="19.86724778628678"><ele>154.0</ele><time>2026-04-29T09:50:00Z</time></trkpt><trkpt lat="41.26475233477327" lon="19.8675021140345"><ele>156.0</ele><time>2026-04-29T09:50:01Z</time></trkpt><trkpt lat="41.264779901195595" lon="19.867741510439373"><ele>158.0</ele><time>2026-04-29T09:50:02Z</time></trkpt><trkpt lat="41.264795213937674" lon="19.867947990465158"><ele>160.0</ele><time>2026-04-29T09:50:03Z</time></trkpt><trkpt lat="41.26481163925258" lon="19.868137761064812"><ele>160.0</ele><time>2026-04-29T09:50:04Z</time></trkpt><trkpt lat="41.26483518385105" lon="19.868325595113244"><ele>160.0</ele><time>2026-04-29T09:50:05Z</time></trkpt><trkpt lat="41.26486462169803" lon="19.868514867468065"><ele>160.0</ele><time>2026-04-29T09:50:06Z</time></trkpt><trkpt lat="41.26489615481439" lon="19.868686769879517"><ele>160.0</ele><time>2026-04-29T09:50:07Z</time></trkpt><trkpt lat="41.26492833246171" lon="19.868857342066146"><ele>159.75</ele><time>2026-04-29T09:50:08Z</time></trkpt><trkpt lat="41.264959832785514" lon="19.869018205810278"><ele>159.5</ele><time>2026-04-29T09:50:09Z</time></trkpt><trkpt lat="41.264984772852216" lon="19.869170562347843"><ele>159.25</ele><time>2026-04-29T09:50:10Z</time></trkpt><trkpt lat="41.26498455679047" lon="19.869343976672493"><ele>159.0</ele><time>2026-04-29T09:50:11Z</time></trkpt><trkpt lat="41.26499860038726" lon="19.86951235601516"><ele>159.0</ele><time>2026-04-29T09:50:12Z</time></trkpt><trkpt lat="41.265008224776594" lon="19.86967190683924"><ele>159.0</ele><time>2026-04-29T09:50:13Z</time></trkpt><trkpt lat="41.26502052835507" lon="19.869896729278096"><ele>159.0</ele><time>2026-04-29T09:50:14Z</time></trkpt><trkpt lat="41.26503276357102" lon="19.870131801647496"><ele>158.33333333333334</ele><time>2026-04-29T09:50:15Z</time></trkpt><trkpt lat="41.26504453133562" lon="19.870344569103683"><ele>157.66666666666669</ele><time>2026-04-29T09:50:16Z</time></trkpt><trkpt lat="41.265067505028824" lon="19.870559653701623"><ele>157.0</ele><time>2026-04-29T09:50:17Z</time></trkpt><trkpt lat="41.2650942009083" lon="19.87074579935626"><ele>157.66666666666669</ele><time>2026-04-29T09:50:18Z</time></trkpt><trkpt lat="41.2651387035286" lon="19.870967787732866"><ele>158.33333333333334</ele><time>2026-04-29T09:50:19Z</time></trkpt><trkpt lat="41.265186490272356" lon="19.871179298769658"><ele>159.0</ele><time>2026-04-29T09:50:20Z</time></trkpt><trkpt lat="41.265256645761646" lon="19.87139311985896"><ele>159.0</ele><time>2026-04-29T09:50:21Z</time></trkpt><trkpt lat="41.265309810389034" lon="19.87161493821194"><ele>159.0</ele><time>2026-04-29T09:50:22Z</time></trkpt><trkpt lat="41.265379262189306" lon="19.871846433245025"><ele>159.0</ele><time>2026-04-29T09:50:23Z</time></trkpt><trkpt lat="41.26544281752415" lon="19.87205717328704"><ele>158.66666666666666</ele><time>2026-04-29T09:50:24Z</time></trkpt><trkpt lat="41.26549837859036" lon="19.87224290091795"><ele>158.33333333333331</ele><time>2026-04-29T09:50:25Z</time></trkpt><trkpt lat="41.265557984601706" lon="19.87243421632297"><ele>158.0</ele><time>2026-04-29T09:50:26Z</time></trkpt><trkpt lat="41.26561532725418" lon="19.872632683670087"><ele>159.0</ele><time>2026-04-29T09:50:27Z</time></trkpt><trkpt lat="41.265663334006014" lon="19.872843169670436"><ele>160.0</ele><time>2026-04-29T09:50:28Z</time></trkpt><trkpt lat="41.265700984595796" lon="19.873034374766796"><ele>161.0</ele><time>2026-04-29T09:50:29Z</time></trkpt><trkpt lat="41.265728940387895" lon="19.873196157737947"><ele>162.0</ele><time>2026-04-29T09:50:30Z</time></trkpt><trkpt lat="41.26574899773701" lon="19.87332314026579"><ele>162.0</ele><time>2026-04-29T09:50:31Z</time></trkpt><trkpt lat="41.26576356779794" lon="19.873439425406403"><ele>162.0</ele><time>2026-04-29T09:50:32Z</time></trkpt><trkpt lat="41.26577122520194" lon="19.873522873883296"><ele>162.0</ele><time>2026-04-29T09:50:33Z</time></trkpt><trkpt lat="41.2657392309628" lon="19.873645258505235"><ele>162.0</ele><time>2026-04-29T09:50:35Z</time></trkpt><trkpt lat="41.26569087880793" lon="19.873721626155216"><ele>162.0</ele><time>2026-04-29T09:50:36Z</time></trkpt><trkpt lat="41.265648290830775" lon="19.873822470512454"><ele>162.0</ele><time>2026-04-29T09:50:37Z</time></trkpt><trkpt lat="41.26563964061277" lon="19.87392406007076"><ele>162.0</ele><time>2026-04-29T09:50:38Z</time></trkpt><trkpt lat="41.26566403159005" lon="19.874021790096947"><ele>162.0</ele><time>2026-04-29T09:50:39Z</time></trkpt><trkpt lat="41.265710962134264" lon="19.87410791298582"><ele>162.0</ele><time>2026-04-29T09:50:40Z</time></trkpt><trkpt lat="41.26578704846117" lon="19.874159015889447"><ele>162.0</ele><time>2026-04-29T09:50:41Z</time></trkpt><trkpt lat="41.265853259208505" lon="19.874200263406"><ele>162.0</ele><time>2026-04-29T09:50:42Z</time></trkpt><trkpt lat="41.265923460915" lon="19.87424065037378"><ele>162.0</ele><time>2026-04-29T09:50:43Z</time></trkpt><trkpt lat="41.26597633387877" lon="19.87429760537187"><ele>161.8</ele><time>2026-04-29T09:50:44Z</time></trkpt><trkpt lat="41.266046632094735" lon="19.874429146737327"><ele>161.6</ele><time>2026-04-29T09:50:46Z</time></trkpt><trkpt lat="41.266127767398785" lon="19.87455103181065"><ele>161.4</ele><time>2026-04-29T09:50:48Z</time></trkpt><trkpt lat="41.266184368446034" lon="19.874637483467733"><ele>161.20000000000002</ele><time>2026-04-29T09:50:49Z</time></trkpt><trkpt lat="41.266251634248796" lon="19.87473712252391"><ele>161.0</ele><time>2026-04-29T09:50:50Z</time></trkpt><trkpt lat="41.26632975558005" lon="19.874850755443997"><ele>161.0</ele><time>2026-04-29T09:50:51Z</time></trkpt><trkpt lat="41.26641389691302" lon="19.87496719001936"><ele>161.0</ele><time>2026-04-29T09:50:52Z</time></trkpt><trkpt lat="41.26649804625791" lon="19.875082464243008"><ele>161.0</ele><time>2026-04-29T09:50:53Z</time></trkpt><trkpt lat="41.26658239159282" lon="19.875200170076578"><ele>161.0</ele><time>2026-04-29T09:50:54Z</time></trkpt><trkpt lat="41.26667030135373" lon="19.87532776296331"><ele>162.5</ele><time>2026-04-29T09:50:55Z</time></trkpt><trkpt lat="41.26676095072492" lon="19.87546348850716"><ele>164.0</ele><time>2026-04-29T09:50:56Z</time></trkpt><trkpt lat="41.266842174995105" lon="19.87559591761207"><ele>165.5</ele><time>2026-04-29T09:50:57Z</time></trkpt><trkpt lat="41.26690444124939" lon="19.87571075149325"><ele>167.0</ele><time>2026-04-29T09:50:58Z</time></trkpt><trkpt lat="41.2669635951228" lon="19.875805424527357"><ele>167.0</ele><time>2026-04-29T09:50:59Z</time></trkpt><trkpt lat="41.26704402877658" lon="19.87590457454968"><ele>167.0</ele><time>2026-04-29T09:51:00Z</time></trkpt><trkpt lat="41.267140745641576" lon="19.87603643546923"><ele>167.0</ele><time>2026-04-29T09:51:01Z</time></trkpt><trkpt lat="41.267233916827934" lon="19.876200972628666"><ele>167.0</ele><time>2026-04-29T09:51:02Z</time></trkpt><trkpt lat="41.2673223667979" lon="19.876382919761106"><ele>169.66666666666666</ele><time>2026-04-29T09:51:03Z</time></trkpt><trkpt lat="41.26740871220517" lon="19.876582017919723"><ele>172.33333333333334</ele><time>2026-04-29T09:51:04Z</time></trkpt><trkpt lat="41.267502627634165" lon="19.8767903749054"><ele>175.0</ele><time>2026-04-29T09:51:05Z</time></trkpt><trkpt lat="41.26757309275173" lon="19.877017922771145"><ele>175.75</ele><time>2026-04-29T09:51:06Z</time></trkpt><trkpt lat="41.26764058119787" lon="19.877222814443687"><ele>176.5</ele><time>2026-04-29T09:51:07Z</time></trkpt><trkpt lat="41.267704784291524" lon="19.877383260369918"><ele>177.25</ele><time>2026-04-29T09:51:08Z</time></trkpt><trkpt lat="41.26775663798074" lon="19.877539304901884"><ele>178.0</ele><time>2026-04-29T09:51:09Z</time></trkpt><trkpt lat="41.267807860909954" lon="19.877703415084063"><ele>179.0</ele><time>2026-04-29T09:51:10Z</time></trkpt><trkpt lat="41.267838163556185" lon="19.877887669130693"><ele>180.0</ele><time>2026-04-29T09:51:11Z</time></trkpt><trkpt lat="41.26789724846673" lon="19.87806666693948"><ele>181.0</ele><time>2026-04-29T09:51:12Z</time></trkpt><trkpt lat="41.26793999426795" lon="19.87823518567811"><ele>182.0</ele><time>2026-04-29T09:51:13Z</time></trkpt><trkpt lat="41.26799390762618" lon="19.878378209364218"><ele>182.33333333333331</ele><time>2026-04-29T09:51:14Z</time></trkpt><trkpt lat="41.26805051683071" lon="19.878532161431107"><ele>182.66666666666666</ele><time>2026-04-29T09:51:15Z</time></trkpt><trkpt lat="41.2680649963806" lon="19.878726996691803"><ele>183.0</ele><time>2026-04-29T09:51:16Z</time></trkpt><trkpt lat="41.26810600799538" lon="19.87895175790677"><ele>187.66666666666669</ele><time>2026-04-29T09:51:17Z</time></trkpt><trkpt lat="41.26813491757262" lon="19.879196598205066"><ele>192.33333333333334</ele><time>2026-04-29T09:51:18Z</time></trkpt><trkpt lat="41.26816748153869" lon="19.879409872081318"><ele>197.0</ele><time>2026-04-29T09:51:19Z</time></trkpt><trkpt lat="41.268176956164915" lon="19.879594626166433"><ele>197.75</ele><time>2026-04-29T09:51:20Z</time></trkpt><trkpt lat="41.268223088778235" lon="19.879773525761443"><ele>198.5</ele><time>2026-04-29T09:51:21Z</time></trkpt><trkpt lat="41.26824645981923" lon="19.87992966256974"><ele>199.25</ele><time>2026-04-29T09:51:22Z</time></trkpt><trkpt lat="41.268290507125755" lon="19.880060989464322"><ele>200.0</ele><time>2026-04-29T09:51:23Z</time></trkpt><trkpt lat="41.268371569066076" lon="19.88019645397043"><ele>198.0</ele><time>2026-04-29T09:51:24Z</time></trkpt><trkpt lat="41.2684723507217" lon="19.880342867717648"><ele>196.0</ele><time>2026-04-29T09:51:25Z</time></trkpt><trkpt lat="41.268583442474004" lon="19.88047882223045"><ele>194.0</ele><time>2026-04-29T09:51:26Z</time></trkpt><trkpt lat="41.26869413555315" lon="19.88061965832395"><ele>194.0</ele><time>2026-04-29T09:51:27Z</time></trkpt><trkpt lat="41.26875257985315" lon="19.880779577137186"><ele>194.0</ele><time>2026-04-29T09:51:28Z</time></trkpt><trkpt lat="41.268826602867435" lon="19.880881976261954"><ele>194.0</ele><time>2026-04-29T09:51:29Z</time></trkpt><trkpt lat="41.268902365218125" lon="19.88096841696008"><ele>194.0</ele><time>2026-04-29T09:51:30Z</time></trkpt><trkpt lat="41.26901656214956" lon="19.881031515558792"><ele>197.66666666666669</ele><time>2026-04-29T09:51:31Z</time></trkpt><trkpt lat="41.26914130547645" lon="19.88112547098685"><ele>201.33333333333331</ele><time>2026-04-29T09:51:32Z</time></trkpt><trkpt lat="41.26925853793799" lon="19.881269435167134"><ele>205.0</ele><time>2026-04-29T09:51:33Z</time></trkpt><trkpt lat="41.269336901661525" lon="19.881460452111778"><ele>205.0</ele><time>2026-04-29T09:51:34Z</time></trkpt><trkpt lat="41.26943279714817" lon="19.881585216925224"><ele>205.0</ele><time>2026-04-29T09:51:35Z</time></trkpt><trkpt lat="41.26952976158886" lon="19.88170823226543"><ele>205.0</ele><time>2026-04-29T09:51:35.999Z</time></trkpt><trkpt lat="41.26966385244665" lon="19.881831638942796"><ele>205.0</ele><time>2026-04-29T09:51:36.999Z</time></trkpt><trkpt lat="41.26980561658492" lon="19.881955014893038"><ele>205.6</ele><time>2026-04-29T09:51:37.999Z</time></trkpt><trkpt lat="41.26989358345426" lon="19.882103466031822"><ele>206.2</ele><time>2026-04-29T09:51:38.999Z</time></trkpt><trkpt lat="41.26998025691436" lon="19.882201431172536"><ele>206.8</ele><time>2026-04-29T09:51:39.999Z</time></trkpt><trkpt lat="41.27002597897093" lon="19.882290558616237"><ele>207.4</ele><time>2026-04-29T09:51:40.999Z</time></trkpt><trkpt lat="41.27012125373377" lon="19.88229646803622"><ele>208.0</ele><time>2026-04-29T09:51:41.999Z</time></trkpt><trkpt lat="41.270219729034075" lon="19.88226450289385"><ele>208.0</ele><time>2026-04-29T09:51:42.999Z</time></trkpt><trkpt lat="41.27033082385352" lon="19.882202808276134"><ele>208.0</ele><time>2026-04-29T09:51:43.999Z</time></trkpt><trkpt lat="41.27047445935018" lon="19.882150467236617"><ele>208.0</ele><time>2026-04-29T09:51:44.999Z</time></trkpt><trkpt lat="41.2706399138561" lon="19.882061502396756"><ele>208.0</ele><time>2026-04-29T09:51:45.999Z</time></trkpt><trkpt lat="41.27081233219055" lon="19.881981748631535"><ele>209.0</ele><time>2026-04-29T09:51:46.999Z</time></trkpt><trkpt lat="41.27096725597458" lon="19.881918516513807"><ele>210.0</ele><time>2026-04-29T09:51:47.999Z</time></trkpt><trkpt lat="41.27108945757307" lon="19.881833122100318"><ele>211.0</ele><time>2026-04-29T09:51:48.999Z</time></trkpt><trkpt lat="41.2712074202479" lon="19.881824001804183"><ele>212.0</ele><time>2026-04-29T09:51:49.999Z</time></trkpt><trkpt lat="41.27132937772874" lon="19.88181973863732"><ele>215.0</ele><time>2026-04-29T09:51:51Z</time></trkpt><trkpt lat="41.271467087806755" lon="19.88180880308915"><ele>218.0</ele><time>2026-04-29T09:51:52Z</time></trkpt><trkpt lat="41.27159185125787" lon="19.88184535629448"><ele>221.0</ele><time>2026-04-29T09:51:53Z</time></trkpt><trkpt lat="41.2716770589721" lon="19.88196153336747"><ele>224.0</ele><time>2026-04-29T09:51:54Z</time></trkpt><trkpt lat="41.271800015062915" lon="19.882069507708138"><ele>224.0</ele><time>2026-04-29T09:51:55Z</time></trkpt><trkpt lat="41.2719179674785" lon="19.882220707447402"><ele>224.0</ele><time>2026-04-29T09:51:56Z</time></trkpt><trkpt lat="41.27204350431406" lon="19.882353100027885"><ele>224.0</ele><time>2026-04-29T09:51:57Z</time></trkpt><trkpt lat="41.2721358766806" lon="19.882454602510695"><ele>224.0</ele><time>2026-04-29T09:51:58Z</time></trkpt><trkpt lat="41.272212068678215" lon="19.88247951643416"><ele>225.0</ele><time>2026-04-29T09:51:59Z</time></trkpt><trkpt lat="41.27227727650313" lon="19.88250621153715"><ele>226.0</ele><time>2026-04-29T09:52:01Z</time></trkpt><trkpt lat="41.27236356676015" lon="19.882521903448428"><ele>227.0</ele><time>2026-04-29T09:52:03Z</time></trkpt><trkpt lat="41.27242824649687" lon="19.882528951505698"><ele>228.0</ele><time>2026-04-29T09:52:04Z</time></trkpt><trkpt lat="41.272491752081805" lon="19.882529413568836"><ele>229.0</ele><time>2026-04-29T09:52:05Z</time></trkpt><trkpt lat="41.272578384459" lon="19.882490378757627"><ele>230.0</ele><time>2026-04-29T09:52:07Z</time></trkpt><trkpt lat="41.272629108877304" lon="19.882434391035552"><ele>231.0</ele><time>2026-04-29T09:52:08Z</time></trkpt><trkpt lat="41.2726923717771" lon="19.88232855779623"><ele>231.0</ele><time>2026-04-29T09:52:09Z</time></trkpt><trkpt lat="41.272745217479475" lon="19.882172592359474"><ele>231.0</ele><time>2026-04-29T09:52:10Z</time></trkpt><trkpt lat="41.27279636920207" lon="19.882000277379596"><ele>231.0</ele><time>2026-04-29T09:52:11Z</time></trkpt><trkpt lat="41.27287587356341" lon="19.881844098253985"><ele>231.0</ele><time>2026-04-29T09:52:12Z</time></trkpt><trkpt lat="41.27299949253419" lon="19.881711633947525"><ele>230.0</ele><time>2026-04-29T09:52:13Z</time></trkpt><trkpt lat="41.27311049991804" lon="19.88153577673643"><ele>229.0</ele><time>2026-04-29T09:52:14Z</time></trkpt><trkpt lat="41.27324943726088" lon="19.8813995407353"><ele>228.0</ele><time>2026-04-29T09:52:15Z</time></trkpt><trkpt lat="41.27335979074478" lon="19.881266903647145"><ele>228.0</ele><time>2026-04-29T09:52:16Z</time></trkpt><trkpt lat="41.273459678976344" lon="19.88114896329252"><ele>228.0</ele><time>2026-04-29T09:52:17Z</time></trkpt><trkpt lat="41.27355567980271" lon="19.88103481664984"><ele>228.0</ele><time>2026-04-29T09:52:18Z</time></trkpt><trkpt lat="41.27364300578992" lon="19.880911327762686"><ele>228.0</ele><time>2026-04-29T09:52:19Z</time></trkpt><trkpt lat="41.273739731846554" lon="19.880802336623724"><ele>228.60000000000002</ele><time>2026-04-29T09:52:20Z</time></trkpt><trkpt lat="41.273823818339466" lon="19.8806840990068"><ele>229.20000000000002</ele><time>2026-04-29T09:52:21Z</time></trkpt><trkpt lat="41.27389211000901" lon="19.880551091017676"><ele>229.8</ele><time>2026-04-29T09:52:22Z</time></trkpt><trkpt lat="41.273957004985036" lon="19.880447261817903"><ele>230.4</ele><time>2026-04-29T09:52:23Z</time></trkpt><trkpt lat="41.273989476666436" lon="19.880333230479025"><ele>231.0</ele><time>2026-04-29T09:52:24Z</time></trkpt><trkpt lat="41.27400240986634" lon="19.880218238339616"><ele>232.0</ele><time>2026-04-29T09:52:26Z</time></trkpt><trkpt lat="41.274020994197706" lon="19.88007310115705"><ele>233.00000000000003</ele><time>2026-04-29T09:52:28Z</time></trkpt><trkpt lat="41.27401933481543" lon="19.879958520667603"><ele>234.00000000000003</ele><time>2026-04-29T09:52:29Z</time></trkpt><trkpt lat="41.27397887200939" lon="19.87984362827561"><ele>235.0</ele><time>2026-04-29T09:52:30Z</time></trkpt><trkpt lat="41.27395546819477" lon="19.87971818657356"><ele>236.0</ele><time>2026-04-29T09:52:31Z</time></trkpt><trkpt lat="41.273919244476666" lon="19.87956622017181"><ele>234.0</ele><time>2026-04-29T09:52:32Z</time></trkpt><trkpt lat="41.27386932999319" lon="19.879401296317468"><ele>232.00000000000003</ele><time>2026-04-29T09:52:33Z</time></trkpt><trkpt lat="41.27382384963023" lon="19.87925316158399"><ele>230.00000000000003</ele><time>2026-04-29T09:52:34Z</time></trkpt><trkpt lat="41.273765095606116" lon="19.879143016807383"><ele>228.0</ele><time>2026-04-29T09:52:35Z</time></trkpt><trkpt lat="41.27373638657913" lon="19.879036019823207"><ele>226.0</ele><time>2026-04-29T09:52:36Z</time></trkpt><trkpt lat="41.273698771533326" lon="19.878950512190126"><ele>225.99999999999997</ele><time>2026-04-29T09:52:37Z</time></trkpt><trkpt lat="41.273664529361376" lon="19.878876135654792"><ele>226.0</ele><time>2026-04-29T09:52:38Z</time></trkpt><trkpt lat="41.27361703632381" lon="19.878773183300627"><ele>226.0</ele><time>2026-04-29T09:52:39Z</time></trkpt><trkpt lat="41.27356242952834" lon="19.87866559805452"><ele>226.0</ele><time>2026-04-29T09:52:40Z</time></trkpt><trkpt lat="41.273503628858776" lon="19.878562389444088"><ele>225.99999999999997</ele><time>2026-04-29T09:52:41Z</time></trkpt><trkpt lat="41.2734484800209" lon="19.87848181234566"><ele>226.0</ele><time>2026-04-29T09:52:42Z</time></trkpt><trkpt lat="41.27341647791815" lon="19.87839523142656"><ele>226.75</ele><time>2026-04-29T09:52:43Z</time></trkpt><trkpt lat="41.27337976163756" lon="19.878279004326814"><ele>227.5</ele><time>2026-04-29T09:52:45Z</time></trkpt><trkpt lat="41.27344723167159" lon="19.87813871113801"><ele>228.25</ele><time>2026-04-29T09:52:47Z</time></trkpt><trkpt lat="41.273518667521735" lon="19.878028475615025"><ele>229.0</ele><time>2026-04-29T09:52:48Z</time></trkpt><trkpt lat="41.27360185538268" lon="19.877888048523584"><ele>229.0</ele><time>2026-04-29T09:52:49Z</time></trkpt><trkpt lat="41.273688130867434" lon="19.877732127701684"><ele>228.99999999999997</ele><time>2026-04-29T09:52:50Z</time></trkpt><trkpt lat="41.27376897786096" lon="19.877589365393675"><ele>228.99999999999997</ele><time>2026-04-29T09:52:51Z</time></trkpt><trkpt lat="41.273832802100955" lon="19.877481116222903"><ele>229.0</ele><time>2026-04-29T09:52:52Z</time></trkpt><trkpt lat="41.27387204498503" lon="19.877411074412308"><ele>229.0</ele><time>2026-04-29T09:52:53Z</time></trkpt><trkpt lat="41.27390939238816" lon="19.877343564322096"><ele>227.2</ele><time>2026-04-29T09:52:55Z</time></trkpt><trkpt lat="41.273953546884705" lon="19.877275644079152"><ele>225.39999999999998</ele><time>2026-04-29T09:52:57Z</time></trkpt><trkpt lat="41.27402408617688" lon="19.877158377579267"><ele>223.6</ele><time>2026-04-29T09:52:59Z</time></trkpt><trkpt lat="41.2740882224009" lon="19.87704493794874"><ele>221.8</ele><time>2026-04-29T09:53:00Z</time></trkpt><trkpt lat="41.27416791834827" lon="19.87690735357618"><ele>220.0</ele><time>2026-04-29T09:53:01Z</time></trkpt><trkpt lat="41.27424639150108" lon="19.876774108185817"><ele>218.4</ele><time>2026-04-29T09:53:02Z</time></trkpt><trkpt lat="41.274321822955876" lon="19.876644605909135"><ele>216.8</ele><time>2026-04-29T09:53:03Z</time></trkpt><trkpt lat="41.274392308082675" lon="19.876530380030168"><ele>215.2</ele><time>2026-04-29T09:53:04Z</time></trkpt><trkpt lat="41.27445361240866" lon="19.87643648582769"><ele>213.6</ele><time>2026-04-29T09:53:05Z</time></trkpt><trkpt lat="41.27452554870353" lon="19.876340487274046"><ele>212.0</ele><time>2026-04-29T09:53:06Z</time></trkpt><trkpt lat="41.27461823250406" lon="19.87622829046504"><ele>212.0</ele><time>2026-04-29T09:53:07Z</time></trkpt><trkpt lat="41.274706944835046" lon="19.876126877797947"><ele>212.0</ele><time>2026-04-29T09:53:08Z</time></trkpt><trkpt lat="41.27478411298088" lon="19.876048256681113"><ele>212.0</ele><time>2026-04-29T09:53:09Z</time></trkpt><trkpt lat="41.27486289684629" lon="19.87596378319452"><ele>212.0</ele><time>2026-04-29T09:53:10Z</time></trkpt><trkpt lat="41.274951084335385" lon="19.875865527547212"><ele>212.0</ele><time>2026-04-29T09:53:11Z</time></trkpt><trkpt lat="41.275036996740134" lon="19.875765921075065"><ele>209.66666666666669</ele><time>2026-04-29T09:53:12Z</time></trkpt><trkpt lat="41.275113901459626" lon="19.87567861780405"><ele>207.33333333333334</ele><time>2026-04-29T09:53:13Z</time></trkpt><trkpt lat="41.27517935707135" lon="19.87560421112551"><ele>205.0</ele><time>2026-04-29T09:53:14Z</time></trkpt><trkpt lat="41.275236709542746" lon="19.875544145834468"><ele>202.66666666666669</ele><time>2026-04-29T09:53:15Z</time></trkpt><trkpt lat="41.27528902463925" lon="19.87549520341641"><ele>200.33333333333334</ele><time>2026-04-29T09:53:16Z</time></trkpt><trkpt lat="41.27539176887303" lon="19.875431677155905"><ele>198.0</ele><time>2026-04-29T09:53:18Z</time></trkpt><trkpt lat="41.275486298139" lon="19.8753722205539"><ele>198.0</ele><time>2026-04-29T09:53:20Z</time></trkpt><trkpt lat="41.2755910152379" lon="19.875306928641894"><ele>198.0</ele><time>2026-04-29T09:53:22Z</time></trkpt><trkpt lat="41.275648308263015" lon="19.875270553180037"><ele>198.0</ele><time>2026-04-29T09:53:23Z</time></trkpt><trkpt lat="41.27575256279685" lon="19.875208525724457"><ele>198.0</ele><time>2026-04-29T09:53:25Z</time></trkpt><trkpt lat="41.27583336989746" lon="19.875093606726125"><ele>198.0</ele><time>2026-04-29T09:53:27Z</time></trkpt><trkpt lat="41.275859913692074" lon="19.87496632364415"><ele>196.0</ele><time>2026-04-29T09:53:29Z</time></trkpt><trkpt lat="41.27586502881748" lon="19.87484343883432"><ele>194.0</ele><time>2026-04-29T09:53:31Z</time></trkpt><trkpt lat="41.2758495243742" lon="19.87470790140689"><ele>192.0</ele><time>2026-04-29T09:53:33Z</time></trkpt><trkpt lat="41.275790432992956" lon="19.87460702360562"><ele>190.0</ele><time>2026-04-29T09:53:34Z</time></trkpt><trkpt lat="41.275768596569336" lon="19.874450207440223"><ele>188.0</ele><time>2026-04-29T09:53:35Z</time></trkpt><trkpt lat="41.27571844013874" lon="19.874288525741907"><ele>186.5</ele><time>2026-04-29T09:53:36Z</time></trkpt><trkpt lat="41.27569636879141" lon="19.87413052455957"><ele>185.0</ele><time>2026-04-29T09:53:37Z</time></trkpt><trkpt lat="41.27568299198231" lon="19.873965076575054"><ele>183.5</ele><time>2026-04-29T09:53:38Z</time></trkpt><trkpt lat="41.275703012978816" lon="19.87376618346439"><ele>182.0</ele><time>2026-04-29T09:53:39Z</time></trkpt><trkpt lat="41.275756652153774" lon="19.87354487584783"><ele>180.33333333333331</ele><time>2026-04-29T09:53:40Z</time></trkpt><trkpt lat="41.27580470172554" lon="19.873342930159023"><ele>178.66666666666666</ele><time>2026-04-29T09:53:41Z</time></trkpt><trkpt lat="41.275831095074274" lon="19.873149613179535"><ele>177.0</ele><time>2026-04-29T09:53:42Z</time></trkpt><trkpt lat="41.27583215362162" lon="19.872948506590873"><ele>177.0</ele><time>2026-04-29T09:53:43Z</time></trkpt><trkpt lat="41.275810795547265" lon="19.872730268245004"><ele>177.0</ele><time>2026-04-29T09:53:44Z</time></trkpt><trkpt lat="41.27578462285703" lon="19.872497819785135"><ele>177.0</ele><time>2026-04-29T09:53:45Z</time></trkpt><trkpt lat="41.275762122827295" lon="19.872249001448274"><ele>176.0</ele><time>2026-04-29T09:53:46Z</time></trkpt><trkpt lat="41.27574349753364" lon="19.871998310546886"><ele>175.0</ele><time>2026-04-29T09:53:47Z</time></trkpt><trkpt lat="41.27571945481244" lon="19.871766964725946"><ele>174.0</ele><time>2026-04-29T09:53:48Z</time></trkpt><trkpt lat="41.27569505327802" lon="19.87152569450981"><ele>173.0</ele><time>2026-04-29T09:53:49Z</time></trkpt><trkpt lat="41.27566868333043" lon="19.87127357059407"><ele>172.0</ele><time>2026-04-29T09:53:50Z</time></trkpt><trkpt lat="41.275641176090396" lon="19.871045631578806"><ele>171.0</ele><time>2026-04-29T09:53:51Z</time></trkpt><trkpt lat="41.275613805632325" lon="19.870828059782713"><ele>169.33333333333334</ele><time>2026-04-29T09:53:52Z</time></trkpt><trkpt lat="41.27558216782475" lon="19.870602618098122"><ele>167.66666666666669</ele><time>2026-04-29T09:53:53Z</time></trkpt><trkpt lat="41.275547430228265" lon="19.870364650601516"><ele>166.0</ele><time>2026-04-29T09:53:54Z</time></trkpt><trkpt lat="41.27550958422943" lon="19.870117695244232"><ele>165.33333333333334</ele><time>2026-04-29T09:53:55Z</time></trkpt><trkpt lat="41.27547566738875" lon="19.869886505939093"><ele>164.66666666666666</ele><time>2026-04-29T09:53:56Z</time></trkpt><trkpt lat="41.2754449933658" lon="19.869682511017437"><ele>164.0</ele><time>2026-04-29T09:53:57Z</time></trkpt><trkpt lat="41.27541811531466" lon="19.86952376365437"><ele>164.0</ele><time>2026-04-29T09:53:58Z</time></trkpt><trkpt lat="41.275395702608975" lon="19.86940514138809"><ele>164.0</ele><time>2026-04-29T09:53:59Z</time></trkpt><trkpt lat="41.275368673187735" lon="19.869277757436294"><ele>164.0</ele><time>2026-04-29T09:54:00Z</time></trkpt><trkpt lat="41.275328354218104" lon="19.869110939753917"><ele>164.0</ele><time>2026-04-29T09:54:01Z</time></trkpt><trkpt lat="41.275285935470116" lon="19.868928735265968"><ele>162.33333333333331</ele><time>2026-04-29T09:54:02Z</time></trkpt><trkpt lat="41.2752362530675" lon="19.8687205685192"><ele>160.66666666666666</ele><time>2026-04-29T09:54:03Z</time></trkpt><trkpt lat="41.27518455459891" lon="19.86850188407023"><ele>159.0</ele><time>2026-04-29T09:54:04Z</time></trkpt><trkpt lat="41.27513186804917" lon="19.86827955234006"><ele>157.66666666666666</ele><time>2026-04-29T09:54:05Z</time></trkpt><trkpt lat="41.27508270213904" lon="19.868078999628512"><ele>156.33333333333331</ele><time>2026-04-29T09:54:06Z</time></trkpt><trkpt lat="41.27503670686538" lon="19.867891217452346"><ele>155.0</ele><time>2026-04-29T09:54:07Z</time></trkpt><trkpt lat="41.27499339171416" lon="19.867703905655784"><ele>153.66666666666666</ele><time>2026-04-29T09:54:08Z</time></trkpt><trkpt lat="41.2749521956119" lon="19.867503020312558"><ele>152.33333333333334</ele><time>2026-04-29T09:54:09Z</time></trkpt><trkpt lat="41.27492357570212" lon="19.867282069594808"><ele>151.0</ele><time>2026-04-29T09:54:10Z</time></trkpt><trkpt lat="41.27491072779826" lon="19.867050630218152"><ele>151.0</ele><time>2026-04-29T09:54:11Z</time></trkpt><trkpt lat="41.27491166831978" lon="19.866840578431567"><ele>151.0</ele><time>2026-04-29T09:54:12Z</time></trkpt><trkpt lat="41.274928281128815" lon="19.866656130595324"><ele>151.0</ele><time>2026-04-29T09:54:13Z</time></trkpt><trkpt lat="41.274965442956315" lon="19.866486864591717"><ele>151.0</ele><time>2026-04-29T09:54:14Z</time></trkpt><trkpt lat="41.27501361745735" lon="19.86632473301752"><ele>150.8</ele><time>2026-04-29T09:54:15Z</time></trkpt><trkpt lat="41.27505915138569" lon="19.866185134017044"><ele>150.6</ele><time>2026-04-29T09:54:16Z</time></trkpt><trkpt lat="41.275100755996895" lon="19.86606336364154"><ele>150.4</ele><time>2026-04-29T09:54:17Z</time></trkpt><trkpt lat="41.275143907348316" lon="19.865961095243602"><ele>150.2</ele><time>2026-04-29T09:54:18Z</time></trkpt><trkpt lat="41.27518752005773" lon="19.86588621238273"><ele>150.0</ele><time>2026-04-29T09:54:19Z</time></trkpt><trkpt lat="41.27528257619964" lon="19.865767298952147"><ele>149.75</ele><time>2026-04-29T09:54:21Z</time></trkpt><trkpt lat="41.275369757027455" lon="19.86567886342373"><ele>149.5</ele><time>2026-04-29T09:54:22Z</time></trkpt><trkpt lat="41.27546994369421" lon="19.865554704350984"><ele>149.25</ele><time>2026-04-29T09:54:23Z</time></trkpt><trkpt lat="41.275610771783654" lon="19.86544280372974"><ele>149.0</ele><time>2026-04-29T09:54:24Z</time></trkpt><trkpt lat="41.27574843457175" lon="19.865281186898777"><ele>150.0</ele><time>2026-04-29T09:54:25Z</time></trkpt><trkpt lat="41.27586227365517" lon="19.86515959076454"><ele>151.0</ele><time>2026-04-29T09:54:26Z</time></trkpt><trkpt lat="41.27598053347136" lon="19.86506724848627"><ele>152.0</ele><time>2026-04-29T09:54:27Z</time></trkpt><trkpt lat="41.27612748990957" lon="19.864978536066424"><ele>153.0</ele><time>2026-04-29T09:54:28Z</time></trkpt><trkpt lat="41.276293522255436" lon="19.864889040338493"><ele>152.75</ele><time>2026-04-29T09:54:29Z</time></trkpt><trkpt lat="41.276441178914375" lon="19.864811579367437"><ele>152.5</ele><time>2026-04-29T09:54:30Z</time></trkpt><trkpt lat="41.27657189922363" lon="19.864744177574625"><ele>152.25</ele><time>2026-04-29T09:54:31Z</time></trkpt><trkpt lat="41.27670749915511" lon="19.864676399396906"><ele>152.0</ele><time>2026-04-29T09:54:32Z</time></trkpt><trkpt lat="41.27683887384893" lon="19.864623804599784"><ele>152.0</ele><time>2026-04-29T09:54:33Z</time></trkpt><trkpt lat="41.27696466006593" lon="19.864574982854872"><ele>152.0</ele><time>2026-04-29T09:54:34Z</time></trkpt><trkpt lat="41.2770803923806" lon="19.864500628160297"><ele>152.0</ele><time>2026-04-29T09:54:35.001Z</time></trkpt><trkpt lat="41.27719910199376" lon="19.86440098821285"><ele>152.0</ele><time>2026-04-29T09:54:36.001Z</time></trkpt><trkpt lat="41.27731328109451" lon="19.864314897930008"><ele>149.75</ele><time>2026-04-29T09:54:37.001Z</time></trkpt><trkpt lat="41.27742090397602" lon="19.864242087637134"><ele>147.5</ele><time>2026-04-29T09:54:38.001Z</time></trkpt><trkpt lat="41.27753790845738" lon="19.864179955334162"><ele>145.25</ele><time>2026-04-29T09:54:39.001Z</time></trkpt><trkpt lat="41.27767654354071" lon="19.86412936441572"><ele>143.0</ele><time>2026-04-29T09:54:40.001Z</time></trkpt><trkpt lat="41.2778304787386" lon="19.864092123548062"><ele>143.0</ele><time>2026-04-29T09:54:41.001Z</time></trkpt><trkpt lat="41.27799537940576" lon="19.86406368810781"><ele>143.0</ele><time>2026-04-29T09:54:42.001Z</time></trkpt><trkpt lat="41.27816710387218" lon="19.864051052159038"><ele>143.0</ele><time>2026-04-29T09:54:43.001Z</time></trkpt><trkpt lat="41.278346645717924" lon="19.864065343605606"><ele>142.66666666666666</ele><time>2026-04-29T09:54:44.001Z</time></trkpt><trkpt lat="41.27851887198686" lon="19.864087371142592"><ele>142.33333333333334</ele><time>2026-04-29T09:54:45.001Z</time></trkpt><trkpt lat="41.278671315933515" lon="19.864102355375962"><ele>142.0</ele><time>2026-04-29T09:54:46.001Z</time></trkpt><trkpt lat="41.27879880610886" lon="19.864111372703007"><ele>142.0</ele><time>2026-04-29T09:54:47.001Z</time></trkpt><trkpt lat="41.27890849898733" lon="19.86411897206443"><ele>142.0</ele><time>2026-04-29T09:54:48.001Z</time></trkpt><trkpt lat="41.27901058957351" lon="19.86411233034614"><ele>142.0</ele><time>2026-04-29T09:54:49.001Z</time></trkpt><trkpt lat="41.279099399728885" lon="19.864094453784823"><ele>142.0</ele><time>2026-04-29T09:54:50.001Z</time></trkpt><trkpt lat="41.27917806616487" lon="19.86402635250095"><ele>142.0</ele><time>2026-04-29T09:54:51.001Z</time></trkpt><trkpt lat="41.27922690378385" lon="19.863914731204783"><ele>142.4</ele><time>2026-04-29T09:54:52.001Z</time></trkpt><trkpt lat="41.27922471955735" lon="19.86376673482524"><ele>142.79999999999998</ele><time>2026-04-29T09:54:53.001Z</time></trkpt><trkpt lat="41.27924938546282" lon="19.863641747225117"><ele>143.2</ele><time>2026-04-29T09:54:54.001Z</time></trkpt><trkpt lat="41.27928600815757" lon="19.863502088904802"><ele>143.6</ele><time>2026-04-29T09:54:55.001Z</time></trkpt><trkpt lat="41.27932693604147" lon="19.86335389046592"><ele>144.0</ele><time>2026-04-29T09:54:56.001Z</time></trkpt><trkpt lat="41.279370277548935" lon="19.863240476892372"><ele>144.66666666666666</ele><time>2026-04-29T09:54:57.001Z</time></trkpt><trkpt lat="41.279404867948834" lon="19.86314413029758"><ele>145.33333333333334</ele><time>2026-04-29T09:54:58.001Z</time></trkpt><trkpt lat="41.27943761184835" lon="19.86304858895495"><ele>146.0</ele><time>2026-04-29T09:54:59.001Z</time></trkpt><trkpt lat="41.27947121691402" lon="19.86295325814232"><ele>146.66666666666669</ele><time>2026-04-29T09:55:00.001Z</time></trkpt><trkpt lat="41.279504010749086" lon="19.862878615257298"><ele>147.33333333333334</ele><time>2026-04-29T09:55:01.001Z</time></trkpt><trkpt lat="41.27959625950396" lon="19.862775477559367"><ele>148.0</ele><time>2026-04-29T09:55:03.001Z</time></trkpt><trkpt lat="41.279645063438814" lon="19.862693153155586"><ele>148.5</ele><time>2026-04-29T09:55:04.001Z</time></trkpt><trkpt lat="41.279708518362" lon="19.86257054500052"><ele>149.0</ele><time>2026-04-29T09:55:05.001Z</time></trkpt><trkpt lat="41.279790576575486" lon="19.862404192994447"><ele>149.5</ele><time>2026-04-29T09:55:06.001Z</time></trkpt><trkpt lat="41.27988498943491" lon="19.862238514799547"><ele>150.0</ele><time>2026-04-29T09:55:07.001Z</time></trkpt><trkpt lat="41.279989788792356" lon="19.862052485548972"><ele>152.0</ele><time>2026-04-29T09:55:08.001Z</time></trkpt><trkpt lat="41.28010069524838" lon="19.86187681735341"><ele>154.0</ele><time>2026-04-29T09:55:09.001Z</time></trkpt><trkpt lat="41.2802166558209" lon="19.861764529314463"><ele>156.0</ele><time>2026-04-29T09:55:10.001Z</time></trkpt><trkpt lat="41.28032958907033" lon="19.861662924505186"><ele>156.0</ele><time>2026-04-29T09:55:11.001Z</time></trkpt><trkpt lat="41.28044615977547" lon="19.861543639591222"><ele>156.0</ele><time>2026-04-29T09:55:12.001Z</time></trkpt><trkpt lat="41.28055209788613" lon="19.86141943589633"><ele>156.0</ele><time>2026-04-29T09:55:13.001Z</time></trkpt><trkpt lat="41.28062402694775" lon="19.861270918329417"><ele>156.0</ele><time>2026-04-29T09:55:14.001Z</time></trkpt><trkpt lat="41.28069921805976" lon="19.861146191693"><ele>155.75</ele><time>2026-04-29T09:55:15.001Z</time></trkpt><trkpt lat="41.28078418087323" lon="19.861016788273133"><ele>155.5</ele><time>2026-04-29T09:55:16.001Z</time></trkpt><trkpt lat="41.28087956068101" lon="19.860897397269756"><ele>155.25</ele><time>2026-04-29T09:55:17.001Z</time></trkpt><trkpt lat="41.28097190843873" lon="19.86080019285416"><ele>155.0</ele><time>2026-04-29T09:55:18.001Z</time></trkpt><trkpt lat="41.28106308035785" lon="19.860728931293025"><ele>155.0</ele><time>2026-04-29T09:55:19.001Z</time></trkpt><trkpt lat="41.281163459835014" lon="19.860679389153223"><ele>155.0</ele><time>2026-04-29T09:55:20.001Z</time></trkpt><trkpt lat="41.2812697686468" lon="19.86063739260181"><ele>155.0</ele><time>2026-04-29T09:55:21.001Z</time></trkpt><trkpt lat="41.28136366663784" lon="19.860604444616282"><ele>155.0</ele><time>2026-04-29T09:55:22.001Z</time></trkpt><trkpt lat="41.28145613317177" lon="19.860567839173527"><ele>155.0</ele><time>2026-04-29T09:55:23.001Z</time></trkpt><trkpt lat="41.28155722218556" lon="19.860530443980956"><ele>155.2</ele><time>2026-04-29T09:55:24.001Z</time></trkpt><trkpt lat="41.28165964806347" lon="19.860491230707296"><ele>155.4</ele><time>2026-04-29T09:55:25.001Z</time></trkpt><trkpt lat="41.2817599195186" lon="19.86045632516472"><ele>155.6</ele><time>2026-04-29T09:55:26.001Z</time></trkpt><trkpt lat="41.28183754997973" lon="19.860426228413957"><ele>155.8</ele><time>2026-04-29T09:55:27.001Z</time></trkpt><trkpt lat="41.2819243071578" lon="19.86044641222927"><ele>156.0</ele><time>2026-04-29T09:55:29.001Z</time></trkpt><trkpt lat="41.28195041661769" lon="19.860565986097292"><ele>156.0</ele><time>2026-04-29T09:55:33.001Z</time></trkpt><trkpt lat="41.281989831368996" lon="19.860645751645883"><ele>156.0</ele><time>2026-04-29T09:55:57Z</time></trkpt><trkpt lat="41.28202168382707" lon="19.860743100494336"><ele>156.0</ele><time>2026-04-29T09:55:58Z</time></trkpt><trkpt lat="41.28206330266524" lon="19.860876168188092"><ele>156.0</ele><time>2026-04-29T09:55:59Z</time></trkpt><trkpt lat="41.282124463084116" lon="19.86107125360784"><ele>156.0</ele><time>2026-04-29T09:56:00Z</time></trkpt><trkpt lat="41.28218317612226" lon="19.861274380960058"><ele>157.25</ele><time>2026-04-29T09:56:01Z</time></trkpt><trkpt lat="41.28223403194424" lon="19.861440674173792"><ele>158.5</ele><time>2026-04-29T09:56:02Z</time></trkpt><trkpt lat="41.28228083542008" lon="19.86159958736019"><ele>159.75</ele><time>2026-04-29T09:56:03Z</time></trkpt><trkpt lat="41.28232726672146" lon="19.861748483543902"><ele>161.0</ele><time>2026-04-29T09:56:04Z</time></trkpt><trkpt lat="41.282364463933554" lon="19.861882836194468"><ele>163.0</ele><time>2026-04-29T09:56:05Z</time></trkpt><trkpt lat="41.28240393089795" lon="19.862031312243392"><ele>165.0</ele><time>2026-04-29T09:56:06Z</time></trkpt><trkpt lat="41.282448495094165" lon="19.862196322782196"><ele>167.0</ele><time>2026-04-29T09:56:07Z</time></trkpt><trkpt lat="41.28249745341967" lon="19.862360862668652"><ele>169.0</ele><time>2026-04-29T09:56:08Z</time></trkpt><trkpt lat="41.28255144153297" lon="19.862525501123578"><ele>170.39999999999998</ele><time>2026-04-29T09:56:09Z</time></trkpt><trkpt lat="41.28260379037786" lon="19.86269465867039"><ele>171.8</ele><time>2026-04-29T09:56:10Z</time></trkpt><trkpt lat="41.28265050740645" lon="19.86285227649854"><ele>173.2</ele><time>2026-04-29T09:56:11Z</time></trkpt><trkpt lat="41.28268092274736" lon="19.862969417682898"><ele>174.60000000000002</ele><time>2026-04-29T09:56:12Z</time></trkpt><trkpt lat="41.2827046096559" lon="19.863051851538007"><ele>176.0</ele><time>2026-04-29T09:56:13Z</time></trkpt><trkpt lat="41.28272024931285" lon="19.86314439883113"><ele>176.0</ele><time>2026-04-29T09:56:14Z</time></trkpt><trkpt lat="41.28275607206081" lon="19.863266265355282"><ele>176.0</ele><time>2026-04-29T09:56:15Z</time></trkpt><trkpt lat="41.28279778586764" lon="19.86340226504853"><ele>176.0</ele><time>2026-04-29T09:56:16Z</time></trkpt><trkpt lat="41.28284326952066" lon="19.863553426015564"><ele>176.0</ele><time>2026-04-29T09:56:17Z</time></trkpt><trkpt lat="41.28290300035233" lon="19.863694815187635"><ele>177.4</ele><time>2026-04-29T09:56:18Z</time></trkpt><trkpt lat="41.28293957891847" lon="19.86381920137751"><ele>178.8</ele><time>2026-04-29T09:56:19Z</time></trkpt><trkpt lat="41.282973334542824" lon="19.863935488851876"><ele>180.20000000000002</ele><time>2026-04-29T09:56:20Z</time></trkpt><trkpt lat="41.28300702837943" lon="19.864051739952348"><ele>181.60000000000002</ele><time>2026-04-29T09:56:21Z</time></trkpt><trkpt lat="41.28304454172606" lon="19.864172901415305"><ele>183.0</ele><time>2026-04-29T09:56:22Z</time></trkpt><trkpt lat="41.28308311943266" lon="19.864291878685922"><ele>184.5</ele><time>2026-04-29T09:56:23Z</time></trkpt><trkpt lat="41.283115745523276" lon="19.864397105044368"><ele>186.0</ele><time>2026-04-29T09:56:24Z</time></trkpt><trkpt lat="41.28314647672538" lon="19.86450626740397"><ele>187.5</ele><time>2026-04-29T09:56:25Z</time></trkpt><trkpt lat="41.28317964707839" lon="19.86461959078227"><ele>189.0</ele><time>2026-04-29T09:56:26Z</time></trkpt><trkpt lat="41.283216161575574" lon="19.864731159782455"><ele>190.5</ele><time>2026-04-29T09:56:27Z</time></trkpt><trkpt lat="41.283260085385145" lon="19.86484100764379"><ele>192.0</ele><time>2026-04-29T09:56:28Z</time></trkpt><trkpt lat="41.28330847224515" lon="19.864948293563547"><ele>192.0</ele><time>2026-04-29T09:56:29Z</time></trkpt><trkpt lat="41.283356895646726" lon="19.865060065396726"><ele>192.0</ele><time>2026-04-29T09:56:30Z</time></trkpt><trkpt lat="41.283405264938004" lon="19.86517766181882"><ele>192.0</ele><time>2026-04-29T09:56:31Z</time></trkpt><trkpt lat="41.28345922977183" lon="19.865298825688015"><ele>192.0</ele><time>2026-04-29T09:56:32.001Z</time></trkpt><trkpt lat="41.28351880163182" lon="19.865431966774953"><ele>192.0</ele><time>2026-04-29T09:56:33.001Z</time></trkpt><trkpt lat="41.283586169242" lon="19.865574413119408"><ele>191.0</ele><time>2026-04-29T09:56:34.001Z</time></trkpt><trkpt lat="41.28365747337165" lon="19.86572984025877"><ele>190.0</ele><time>2026-04-29T09:56:35.001Z</time></trkpt><trkpt lat="41.28373350704633" lon="19.865893073204084"><ele>189.0</ele><time>2026-04-29T09:56:36.001Z</time></trkpt><trkpt lat="41.283815509802906" lon="19.866051815981795"><ele>188.0</ele><time>2026-04-29T09:56:37.001Z</time></trkpt><trkpt lat="41.28389382949653" lon="19.866183148841994"><ele>189.4</ele><time>2026-04-29T09:56:38.001Z</time></trkpt><trkpt lat="41.28396292574418" lon="19.866285737176074"><ele>190.8</ele><time>2026-04-29T09:56:39.001Z</time></trkpt><trkpt lat="41.28402356021413" lon="19.866374713386865"><ele>192.2</ele><time>2026-04-29T09:56:40.001Z</time></trkpt><trkpt lat="41.28407945815185" lon="19.86644975964663"><ele>193.6</ele><time>2026-04-29T09:56:41.001Z</time></trkpt><trkpt lat="41.28412980001434" lon="19.866511372029954"><ele>195.0</ele><time>2026-04-29T09:56:42.001Z</time></trkpt><trkpt lat="41.28421224676812" lon="19.866604169463397"><ele>195.0</ele><time>2026-04-29T09:56:44.001Z</time></trkpt><trkpt lat="41.28427741512792" lon="19.866667955934265"><ele>195.0</ele><time>2026-04-29T09:56:46.001Z</time></trkpt><trkpt lat="41.28435731768451" lon="19.866773747677655"><ele>195.0</ele><time>2026-04-29T09:56:49.001Z</time></trkpt><trkpt lat="41.28445669628033" lon="19.866879016549625"><ele>195.0</ele><time>2026-04-29T09:56:51.001Z</time></trkpt><trkpt lat="41.28456021355407" lon="19.866964147355755"><ele>195.0</ele><time>2026-04-29T09:56:53.001Z</time></trkpt><trkpt lat="41.28464867734756" lon="19.867010214321752"><ele>195.83333333333334</ele><time>2026-04-29T09:56:55.001Z</time></trkpt><trkpt lat="41.28471831774938" lon="19.867034210120856"><ele>196.66666666666669</ele><time>2026-04-29T09:56:58.001Z</time></trkpt><trkpt lat="41.28478603676661" lon="19.867035463532694"><ele>197.5</ele><time>2026-04-29T09:57:27.001Z</time></trkpt><trkpt lat="41.28489431479595" lon="19.867028806018848"><ele>198.33333333333334</ele><time>2026-04-29T09:57:29.001Z</time></trkpt><trkpt lat="41.285002156557965" lon="19.867032257476104"><ele>199.16666666666669</ele><time>2026-04-29T09:57:31.001Z</time></trkpt><trkpt lat="41.28507537109598" lon="19.867031125264564"><ele>200.0</ele><time>2026-04-29T09:57:32.001Z</time></trkpt><trkpt lat="41.28515638530391" lon="19.867026497132308"><ele>200.0</ele><time>2026-04-29T09:57:33.001Z</time></trkpt><trkpt lat="41.28523986421388" lon="19.867017759835008"><ele>200.0</ele><time>2026-04-29T09:57:34.001Z</time></trkpt><trkpt lat="41.285334229121226" lon="19.867016408983666"><ele>200.0</ele><time>2026-04-29T09:57:35.001Z</time></trkpt><trkpt lat="41.28544041381703" lon="19.867024124368765"><ele>200.0</ele><time>2026-04-29T09:57:36.001Z</time></trkpt><trkpt lat="41.28556755136247" lon="19.86703084366546"><ele>200.0</ele><time>2026-04-29T09:57:37.001Z</time></trkpt><trkpt lat="41.28570191515057" lon="19.86703631213512"><ele>200.0</ele><time>2026-04-29T09:57:38.001Z</time></trkpt><trkpt lat="41.28586310295327" lon="19.867040434366366"><ele>200.0</ele><time>2026-04-29T09:57:39.001Z</time></trkpt><trkpt lat="41.28605368565624" lon="19.8670441155944"><ele>200.0</ele><time>2026-04-29T09:57:40.001Z</time></trkpt><trkpt lat="41.28622918548788" lon="19.86705536647083"><ele>200.0</ele><time>2026-04-29T09:57:41.001Z</time></trkpt><trkpt lat="41.28638389511002" lon="19.86706455056442"><ele>200.0</ele><time>2026-04-29T09:57:42.001Z</time></trkpt><trkpt lat="41.28652776845047" lon="19.867079196008092"><ele>200.0</ele><time>2026-04-29T09:57:43.001Z</time></trkpt><trkpt lat="41.286672709276594" lon="19.86709131822612"><ele>200.0</ele><time>2026-04-29T09:57:44.001Z</time></trkpt><trkpt lat="41.286803019127795" lon="19.867102308641858"><ele>202.25</ele><time>2026-04-29T09:57:45.001Z</time></trkpt><trkpt lat="41.28692674848115" lon="19.867112379693168"><ele>204.5</ele><time>2026-04-29T09:57:46.001Z</time></trkpt><trkpt lat="41.28704658129066" lon="19.86712234865177"><ele>206.75</ele><time>2026-04-29T09:57:47.001Z</time></trkpt><trkpt lat="41.287182478617986" lon="19.867149902616973"><ele>209.0</ele><time>2026-04-29T09:57:48.001Z</time></trkpt><trkpt lat="41.287320245929564" lon="19.86717736671303"><ele>209.0</ele><time>2026-04-29T09:57:49.001Z</time></trkpt><trkpt lat="41.28746027133753" lon="19.86722838232574"><ele>209.0</ele><time>2026-04-29T09:57:50.001Z</time></trkpt><trkpt lat="41.28759771020266" lon="19.86727665299863"><ele>209.0</ele><time>2026-04-29T09:57:51.001Z</time></trkpt><trkpt lat="41.287719904482294" lon="19.867300442089704"><ele>209.0</ele><time>2026-04-29T09:57:52.001Z</time></trkpt><trkpt lat="41.28781639031535" lon="19.86734532552934"><ele>209.00000000000003</ele><time>2026-04-29T09:57:53Z</time></trkpt><trkpt lat="41.28790085564194" lon="19.86738749601615"><ele>209.0</ele><time>2026-04-29T09:57:54Z</time></trkpt><trkpt lat="41.287979054635564" lon="19.867422927728434"><ele>209.0</ele><time>2026-04-29T09:57:55Z</time></trkpt><trkpt lat="41.288055358070494" lon="19.867451698331905"><ele>209.0</ele><time>2026-04-29T09:57:56Z</time></trkpt><trkpt lat="41.28812603421788" lon="19.86748276052703"><ele>209.00000000000003</ele><time>2026-04-29T09:57:57Z</time></trkpt><trkpt lat="41.28818993547089" lon="19.867516362815213"><ele>209.0</ele><time>2026-04-29T09:57:58Z</time></trkpt><trkpt lat="41.28825100271509" lon="19.867546352011463"><ele>208.79999999999998</ele><time>2026-04-29T09:57:59Z</time></trkpt><trkpt lat="41.288357144037285" lon="19.867601199176846"><ele>208.6</ele><time>2026-04-29T09:58:01Z</time></trkpt><trkpt lat="41.28844369853148" lon="19.86765339672761"><ele>208.4</ele><time>2026-04-29T09:58:03Z</time></trkpt><trkpt lat="41.28853324621566" lon="19.867698246771315"><ele>208.2</ele><time>2026-04-29T09:58:05Z</time></trkpt><trkpt lat="41.28862088993203" lon="19.86774128318935"><ele>208.0</ele><time>2026-04-29T09:58:07Z</time></trkpt><trkpt lat="41.28871772267383" lon="19.867791568610112"><ele>207.33333333333331</ele><time>2026-04-29T09:58:09Z</time></trkpt><trkpt lat="41.2888011058813" lon="19.867844987895378"><ele>206.66666666666666</ele><time>2026-04-29T09:58:11Z</time></trkpt><trkpt lat="41.28887488370375" lon="19.867901720988304"><ele>206.0</ele><time>2026-04-29T09:58:13Z</time></trkpt><trkpt lat="41.28896039622742" lon="19.867961093748555"><ele>205.33333333333331</ele><time>2026-04-29T09:58:15Z</time></trkpt><trkpt lat="41.28903554504701" lon="19.868015588626953"><ele>204.66666666666666</ele><time>2026-04-29T09:58:17Z</time></trkpt><trkpt lat="41.289090746391544" lon="19.868060188700206"><ele>204.0</ele><time>2026-04-29T09:58:22Z</time></trkpt><trkpt lat="41.28915661267831" lon="19.86812017487968"><ele>204.0</ele><time>2026-04-29T09:58:26Z</time></trkpt><trkpt lat="41.289216081300985" lon="19.868173185997154"><ele>204.0</ele><time>2026-04-29T09:58:28Z</time></trkpt><trkpt lat="41.289257680423404" lon="19.868248844895614"><ele>204.0</ele><time>2026-04-29T09:58:30Z</time></trkpt><trkpt lat="41.289298378077916" lon="19.868363236282"><ele>204.0</ele><time>2026-04-29T09:58:32Z</time></trkpt><trkpt lat="41.289332712269285" lon="19.86845657748591"><ele>204.0</ele><time>2026-04-29T09:58:34Z</time></trkpt><trkpt lat="41.289398727343475" lon="19.86856297541907"><ele>204.0</ele><time>2026-04-29T09:58:36Z</time></trkpt><trkpt lat="41.289444558782805" lon="19.868623543304448"><ele>203.33333333333334</ele><time>2026-04-29T09:58:37Z</time></trkpt><trkpt lat="41.28949667471853" lon="19.86868314624437"><ele>202.66666666666669</ele><time>2026-04-29T09:58:38Z</time></trkpt><trkpt lat="41.28956372895975" lon="19.868742914030065"><ele>202.0</ele><time>2026-04-29T09:58:39Z</time></trkpt><trkpt lat="41.28962439622419" lon="19.868807178769334"><ele>201.33333333333334</ele><time>2026-04-29T09:58:40Z</time></trkpt><trkpt lat="41.28969099665363" lon="19.86886553372945"><ele>200.66666666666669</ele><time>2026-04-29T09:58:41Z</time></trkpt><trkpt lat="41.28978018588391" lon="19.868943680907314"><ele>200.0</ele><time>2026-04-29T09:58:42Z</time></trkpt><trkpt lat="41.28988736925185" lon="19.86903759432509"><ele>202.0</ele><time>2026-04-29T09:58:43Z</time></trkpt><trkpt lat="41.29000051200735" lon="19.869142658956925"><ele>204.0</ele><time>2026-04-29T09:58:44Z</time></trkpt><trkpt lat="41.29010099134421" lon="19.869244574588357"><ele>206.0</ele><time>2026-04-29T09:58:45.001Z</time></trkpt><trkpt lat="41.29024259201846" lon="19.869377844593792"><ele>208.0</ele><time>2026-04-29T09:58:46.001Z</time></trkpt><trkpt lat="41.29039642082433" lon="19.869522957254254"><ele>208.0</ele><time>2026-04-29T09:58:47.001Z</time></trkpt><trkpt lat="41.29053503707869" lon="19.869691053121624"><ele>208.0</ele><time>2026-04-29T09:58:48.001Z</time></trkpt><trkpt lat="41.290676093709536" lon="19.869858870512488"><ele>208.0</ele><time>2026-04-29T09:58:49.001Z</time></trkpt><trkpt lat="41.29082688945987" lon="19.870015956117552"><ele>208.75</ele><time>2026-04-29T09:58:50.001Z</time></trkpt><trkpt lat="41.29094414829035" lon="19.870169036858517"><ele>209.5</ele><time>2026-04-29T09:58:51.001Z</time></trkpt><trkpt lat="41.291034585158535" lon="19.870275829816006"><ele>210.25</ele><time>2026-04-29T09:58:52.001Z</time></trkpt><trkpt lat="41.29110313526487" lon="19.87035606837968"><ele>211.0</ele><time>2026-04-29T09:58:53.001Z</time></trkpt><trkpt lat="41.29117517143723" lon="19.87043693865762"><ele>211.0</ele><time>2026-04-29T09:58:54.001Z</time></trkpt><trkpt lat="41.29126014614075" lon="19.870526810039067"><ele>211.0</ele><time>2026-04-29T09:58:55.001Z</time></trkpt><trkpt lat="41.291358725532845" lon="19.87060878964866"><ele>211.0</ele><time>2026-04-29T09:58:56.001Z</time></trkpt><trkpt lat="41.291478882878216" lon="19.870668519600926"><ele>211.0</ele><time>2026-04-29T09:58:57.001Z</time></trkpt><trkpt lat="41.2915904573862" lon="19.870707816335997"><ele>211.75</ele><time>2026-04-29T09:58:58.001Z</time></trkpt><trkpt lat="41.291689841123336" lon="19.870732116448455"><ele>212.5</ele><time>2026-04-29T09:58:59.001Z</time></trkpt><trkpt lat="41.291811025083206" lon="19.870758142977692"><ele>213.25</ele><time>2026-04-29T09:59:00.001Z</time></trkpt><trkpt lat="41.291945328939406" lon="19.870799197909346"><ele>214.0</ele><time>2026-04-29T09:59:01.001Z</time></trkpt><trkpt lat="41.292099761593406" lon="19.87084892777968"><ele>215.0</ele><time>2026-04-29T09:59:02.001Z</time></trkpt><trkpt lat="41.29226553891604" lon="19.870899008481164"><ele>216.0</ele><time>2026-04-29T09:59:03.001Z</time></trkpt><trkpt lat="41.292436171555366" lon="19.870978905697996"><ele>217.0</ele><time>2026-04-29T09:59:04.001Z</time></trkpt><trkpt lat="41.29260467282574" lon="19.871093050510215"><ele>215.0</ele><time>2026-04-29T09:59:05.001Z</time></trkpt><trkpt lat="41.29277731392113" lon="19.87122721123277"><ele>213.0</ele><time>2026-04-29T09:59:06.001Z</time></trkpt><trkpt lat="41.29294065227584" lon="19.871367189509936"><ele>211.0</ele><time>2026-04-29T09:59:07.001Z</time></trkpt><trkpt lat="41.29308017157008" lon="19.871482383620233"><ele>214.0</ele><time>2026-04-29T09:59:08.001Z</time></trkpt><trkpt lat="41.29319725464609" lon="19.871562611274275"><ele>217.0</ele><time>2026-04-29T09:59:09.001Z</time></trkpt><trkpt lat="41.29330481277155" lon="19.871617584770387"><ele>220.0</ele><time>2026-04-29T09:59:10.001Z</time></trkpt><trkpt lat="41.29340422372897" lon="19.87163207148551"><ele>223.0</ele><time>2026-04-29T09:59:11.001Z</time></trkpt><trkpt lat="41.29351157710164" lon="19.871619848471468"><ele>223.0</ele><time>2026-04-29T09:59:12.001Z</time></trkpt><trkpt lat="41.293627928681815" lon="19.871572758279093"><ele>223.0</ele><time>2026-04-29T09:59:13.001Z</time></trkpt><trkpt lat="41.29375164217607" lon="19.871513682456225"><ele>223.0</ele><time>2026-04-29T09:59:14.001Z</time></trkpt><trkpt lat="41.293896899791" lon="19.871439394459294"><ele>223.0</ele><time>2026-04-29T09:59:15.001Z</time></trkpt><trkpt lat="41.29404689967651" lon="19.871379516090578"><ele>222.5</ele><time>2026-04-29T09:59:16.001Z</time></trkpt><trkpt lat="41.29418118359381" lon="19.871329992275744"><ele>222.0</ele><time>2026-04-29T09:59:17.001Z</time></trkpt><trkpt lat="41.2943020474314" lon="19.871282826594683"><ele>221.5</ele><time>2026-04-29T09:59:18.001Z</time></trkpt><trkpt lat="41.294419048982824" lon="19.87123468824695"><ele>221.0</ele><time>2026-04-29T09:59:19.001Z</time></trkpt><trkpt lat="41.294540326215426" lon="19.871184547038435"><ele>221.0</ele><time>2026-04-29T09:59:20.001Z</time></trkpt><trkpt lat="41.29466301042736" lon="19.871131839537437"><ele>221.0</ele><time>2026-04-29T09:59:21.001Z</time></trkpt><trkpt lat="41.29477541981908" lon="19.87109248655561"><ele>221.0</ele><time>2026-04-29T09:59:22.001Z</time></trkpt><trkpt lat="41.294883394972075" lon="19.87105941538792"><ele>221.0</ele><time>2026-04-29T09:59:23.001Z</time></trkpt><trkpt lat="41.29500083420814" lon="19.871019453403008"><ele>220.60000000000002</ele><time>2026-04-29T09:59:24.001Z</time></trkpt><trkpt lat="41.29510180002682" lon="19.8709754745089"><ele>220.20000000000002</ele><time>2026-04-29T09:59:25.001Z</time></trkpt><trkpt lat="41.29516967099078" lon="19.870935720519576"><ele>219.79999999999998</ele><time>2026-04-29T09:59:26.001Z</time></trkpt><trkpt lat="41.295281643892466" lon="19.870846900472987"><ele>219.39999999999998</ele><time>2026-04-29T09:59:28.001Z</time></trkpt><trkpt lat="41.29532447722652" lon="19.870776586755653"><ele>219.0</ele><time>2026-04-29T09:59:29.001Z</time></trkpt><trkpt lat="41.295359199836106" lon="19.87069056165876"><ele>219.79999999999998</ele><time>2026-04-29T09:59:30.001Z</time></trkpt><trkpt lat="41.29541191633385" lon="19.870622559735576"><ele>220.59999999999997</ele><time>2026-04-29T09:59:31.001Z</time></trkpt><trkpt lat="41.29548874935489" lon="19.870593288202432"><ele>221.4</ele><time>2026-04-29T09:59:32.001Z</time></trkpt><trkpt lat="41.29557880144188" lon="19.87063675287664"><ele>222.2</ele><time>2026-04-29T09:59:33.001Z</time></trkpt><trkpt lat="41.295681647095186" lon="19.870663691006136"><ele>223.0</ele><time>2026-04-29T09:59:34.001Z</time></trkpt><trkpt lat="41.29580536842772" lon="19.87071890896611"><ele>223.25</ele><time>2026-04-29T09:59:35.001Z</time></trkpt><trkpt lat="41.295940102309196" lon="19.870756961951557"><ele>223.5</ele><time>2026-04-29T09:59:36.001Z</time></trkpt><trkpt lat="41.29608212109894" lon="19.870791213286754"><ele>223.75</ele><time>2026-04-29T09:59:37.001Z</time></trkpt><trkpt lat="41.296206521754684" lon="19.8708298572612"><ele>224.0</ele><time>2026-04-29T09:59:38.001Z</time></trkpt><trkpt lat="41.29630919719966" lon="19.870863668136597"><ele>224.0</ele><time>2026-04-29T09:59:39.001Z</time></trkpt><trkpt lat="41.2963969984446" lon="19.870894731506972"><ele>223.99999999999997</ele><time>2026-04-29T09:59:40.001Z</time></trkpt><trkpt lat="41.296479955742356" lon="19.870929760316994"><ele>223.99999999999997</ele><time>2026-04-29T09:59:41.001Z</time></trkpt><trkpt lat="41.29657321303369" lon="19.87096976505759"><ele>224.0</ele><time>2026-04-29T09:59:42.001Z</time></trkpt><trkpt lat="41.296669347956055" lon="19.87100828684985"><ele>224.0</ele><time>2026-04-29T09:59:43.001Z</time></trkpt><trkpt lat="41.29675498605718" lon="19.87103580739752"><ele>225.50000000000003</ele><time>2026-04-29T09:59:44.001Z</time></trkpt><trkpt lat="41.296821578385334" lon="19.87105550576475"><ele>227.0</ele><time>2026-04-29T09:59:45.001Z</time></trkpt><trkpt lat="41.296925883961784" lon="19.871083953319822"><ele>228.5</ele><time>2026-04-29T09:59:47.001Z</time></trkpt><trkpt lat="41.29700592326315" lon="19.871104602297134"><ele>230.0</ele><time>2026-04-29T09:59:49.001Z</time></trkpt><trkpt lat="41.29707531880671" lon="19.87111426572814"><ele>231.50000000000003</ele><time>2026-04-29T09:59:53.001Z</time></trkpt><trkpt lat="41.29713608881786" lon="19.871155617555807"><ele>233.0</ele><time>2026-04-29T09:59:56.001Z</time></trkpt><trkpt lat="41.297200183973004" lon="19.871168792220338"><ele>233.33333333333334</ele><time>2026-04-29T09:59:59Z</time></trkpt><trkpt lat="41.29727675978415" lon="19.871204676390626"><ele>233.66666666666669</ele><time>2026-04-29T10:00:02Z</time></trkpt><trkpt lat="41.297352550696935" lon="19.871232810698043"><ele>234.0</ele><time>2026-04-29T10:00:07Z</time></trkpt><trkpt lat="41.29741658190123" lon="19.871250298202206"><ele>234.33333333333331</ele><time>2026-04-29T10:00:09Z</time></trkpt><trkpt lat="41.29749058085325" lon="19.871273739457692"><ele>234.66666666666666</ele><time>2026-04-29T10:00:11Z</time></trkpt><trkpt lat="41.2975710982001" lon="19.871305604525336"><ele>235.0</ele><time>2026-04-29T10:00:13Z</time></trkpt><trkpt lat="41.29766146360615" lon="19.871357669835497"><ele>235.0</ele><time>2026-04-29T10:00:15Z</time></trkpt><trkpt lat="41.29773815743561" lon="19.8714541038924"><ele>235.0</ele><time>2026-04-29T10:00:17Z</time></trkpt><trkpt lat="41.29779330465256" lon="19.87156259902923"><ele>235.0</ele><time>2026-04-29T10:00:19Z</time></trkpt><trkpt lat="41.297864031540996" lon="19.871696875954328"><ele>235.0</ele><time>2026-04-29T10:00:21Z</time></trkpt><trkpt lat="41.29790397562944" lon="19.87177345623723"><ele>235.0</ele><time>2026-04-29T10:00:22Z</time></trkpt><trkpt lat="41.297944522935" lon="19.871850611803882"><ele>234.57142857142856</ele><time>2026-04-29T10:00:23Z</time></trkpt><trkpt lat="41.297984364744764" lon="19.87192683777867"><ele>234.1428571428571</ele><time>2026-04-29T10:00:24Z</time></trkpt><trkpt lat="41.298024408651926" lon="19.87200345046959"><ele>233.71428571428572</ele><time>2026-04-29T10:00:25Z</time></trkpt><trkpt lat="41.298065845967315" lon="19.872082729038695"><ele>233.28571428571428</ele><time>2026-04-29T10:00:26Z</time></trkpt><trkpt lat="41.29810769136816" lon="19.87216278841234"><ele>232.85714285714286</ele><time>2026-04-29T10:00:27Z</time></trkpt><trkpt lat="41.29815020292525" lon="19.87224420125753"><ele>232.42857142857144</ele><time>2026-04-29T10:00:28Z</time></trkpt><trkpt lat="41.29820693364131" lon="19.87230835819137"><ele>232.00000000000003</ele><time>2026-04-29T10:00:29Z</time></trkpt><trkpt lat="41.298258551340616" lon="19.8723791355476"><ele>232.00000000000003</ele><time>2026-04-29T10:00:30Z</time></trkpt><trkpt lat="41.29831486098966" lon="19.872440385940166"><ele>232.0</ele><time>2026-04-29T10:00:31Z</time></trkpt><trkpt lat="41.29837041220813" lon="19.872490223301316"><ele>232.00000000000003</ele><time>2026-04-29T10:00:32Z</time></trkpt><trkpt lat="41.29842636944203" lon="19.872533262141648"><ele>232.00000000000003</ele><time>2026-04-29T10:00:33Z</time></trkpt><trkpt lat="41.29848318426963" lon="19.872579743582587"><ele>232.0</ele><time>2026-04-29T10:00:34Z</time></trkpt><trkpt lat="41.29854353419605" lon="19.872632330376426"><ele>232.00000000000003</ele><time>2026-04-29T10:00:35Z</time></trkpt><trkpt lat="41.298614118888416" lon="19.87269469982444"><ele>232.00000000000003</ele><time>2026-04-29T10:00:36Z</time></trkpt><trkpt lat="41.29867854169823" lon="19.87275278308875"><ele>232.66666666666666</ele><time>2026-04-29T10:00:37Z</time></trkpt><trkpt lat="41.2987334913825" lon="19.872798049147374"><ele>233.33333333333331</ele><time>2026-04-29T10:00:38Z</time></trkpt><trkpt lat="41.29879359263021" lon="19.872849175602564"><ele>234.0</ele><time>2026-04-29T10:00:39Z</time></trkpt><trkpt lat="41.29886691961471" lon="19.872898258179998"><ele>234.66666666666669</ele><time>2026-04-29T10:00:40Z</time></trkpt><trkpt lat="41.298945355312014" lon="19.872961940693624"><ele>235.33333333333334</ele><time>2026-04-29T10:00:41Z</time></trkpt><trkpt lat="41.299032285552805" lon="19.87302030160473"><ele>236.0</ele><time>2026-04-29T10:00:42Z</time></trkpt><trkpt lat="41.29912468238863" lon="19.873064836048922"><ele>236.00000000000003</ele><time>2026-04-29T10:00:43Z</time></trkpt><trkpt lat="41.299206256127086" lon="19.873086288783316"><ele>236.0</ele><time>2026-04-29T10:00:44Z</time></trkpt><trkpt lat="41.29927572229699" lon="19.87309991759121"><ele>236.0</ele><time>2026-04-29T10:00:45Z</time></trkpt><trkpt lat="41.299344994172266" lon="19.873102996200405"><ele>236.0</ele><time>2026-04-29T10:00:46Z</time></trkpt><trkpt lat="41.29941828951442" lon="19.873096355329302"><ele>236.00000000000003</ele><time>2026-04-29T10:00:47Z</time></trkpt><trkpt lat="41.2994956819864" lon="19.873072931190816"><ele>236.0</ele><time>2026-04-29T10:00:48Z</time></trkpt><trkpt lat="41.29957612703827" lon="19.8730348657527"><ele>236.00000000000003</ele><time>2026-04-29T10:00:49Z</time></trkpt><trkpt lat="41.29966415094579" lon="19.872992478737967"><ele>236.0</ele><time>2026-04-29T10:00:50Z</time></trkpt><trkpt lat="41.299753892646386" lon="19.872959769997404"><ele>236.0</ele><time>2026-04-29T10:00:51Z</time></trkpt><trkpt lat="41.29982943689712" lon="19.872944312378838"><ele>236.0</ele><time>2026-04-29T10:00:52Z</time></trkpt><trkpt lat="41.29989716047411" lon="19.872963430249538"><ele>236.00000000000003</ele><time>2026-04-29T10:00:53Z</time></trkpt><trkpt lat="41.29995625518696" lon="19.873019064685113"><ele>236.0</ele><time>2026-04-29T10:00:54Z</time></trkpt><trkpt lat="41.30002278120214" lon="19.873095827298936"><ele>235.8</ele><time>2026-04-29T10:00:55Z</time></trkpt><trkpt lat="41.30009216714476" lon="19.873183059418874"><ele>235.60000000000002</ele><time>2026-04-29T10:00:56Z</time></trkpt><trkpt lat="41.300168243588566" lon="19.87327003802776"><ele>235.4</ele><time>2026-04-29T10:00:57Z</time></trkpt><trkpt lat="41.30024895195233" lon="19.873352108329918"><ele>235.2</ele><time>2026-04-29T10:00:58Z</time></trkpt><trkpt lat="41.30034023949186" lon="19.873425214471027"><ele>235.0</ele><time>2026-04-29T10:00:59Z</time></trkpt><trkpt lat="41.30043469846688" lon="19.873488704215102"><ele>234.0</ele><time>2026-04-29T10:01:00Z</time></trkpt><trkpt lat="41.30053902844019" lon="19.873543465676253"><ele>233.0</ele><time>2026-04-29T10:01:01Z</time></trkpt><trkpt lat="41.30065093462565" lon="19.87358030985551"><ele>232.0</ele><time>2026-04-29T10:01:02Z</time></trkpt><trkpt lat="41.30077162452271" lon="19.87360279508373"><ele>231.0</ele><time>2026-04-29T10:01:03Z</time></trkpt><trkpt lat="41.30089770771222" lon="19.873616564085367"><ele>231.0</ele><time>2026-04-29T10:01:04Z</time></trkpt><trkpt lat="41.30102652718233" lon="19.873628537969992"><ele>231.0</ele><time>2026-04-29T10:01:05Z</time></trkpt><trkpt lat="41.30115656976886" lon="19.87364707036105"><ele>231.0</ele><time>2026-04-29T10:01:06Z</time></trkpt><trkpt lat="41.30128733945886" lon="19.87368038091187"><ele>231.0</ele><time>2026-04-29T10:01:07Z</time></trkpt><trkpt lat="41.301420311077436" lon="19.873726662263003"><ele>231.0</ele><time>2026-04-29T10:01:08Z</time></trkpt><trkpt lat="41.301549807782585" lon="19.873799508497953"><ele>231.0</ele><time>2026-04-29T10:01:09Z</time></trkpt><trkpt lat="41.30168469950225" lon="19.87384170134411"><ele>231.0</ele><time>2026-04-29T10:01:10Z</time></trkpt><trkpt lat="41.30181039595975" lon="19.873836618174032"><ele>231.0</ele><time>2026-04-29T10:01:11Z</time></trkpt><trkpt lat="41.301938891206056" lon="19.873832508883066"><ele>231.0</ele><time>2026-04-29T10:01:12Z</time></trkpt><trkpt lat="41.302084459458214" lon="19.873820940282855"><ele>231.0</ele><time>2026-04-29T10:01:13Z</time></trkpt><trkpt lat="41.30224283579688" lon="19.873809715604175"><ele>231.0</ele><time>2026-04-29T10:01:14Z</time></trkpt><trkpt lat="41.302406625656964" lon="19.873808580592765"><ele>231.0</ele><time>2026-04-29T10:01:15Z</time></trkpt><trkpt lat="41.30257344194749" lon="19.873820817409225"><ele>231.0</ele><time>2026-04-29T10:01:16Z</time></trkpt><trkpt lat="41.30274693600865" lon="19.87384462222611"><ele>231.0</ele><time>2026-04-29T10:01:17Z</time></trkpt><trkpt lat="41.30292250300967" lon="19.873874440229326"><ele>230.33333333333331</ele><time>2026-04-29T10:01:18Z</time></trkpt><trkpt lat="41.30310371064288" lon="19.873908763481758"><ele>229.66666666666666</ele><time>2026-04-29T10:01:19.001Z</time></trkpt><trkpt lat="41.30327795789727" lon="19.873965545511133"><ele>229.0</ele><time>2026-04-29T10:01:20.001Z</time></trkpt><trkpt lat="41.30345621313562" lon="19.873970434766818"><ele>229.0</ele><time>2026-04-29T10:01:21.001Z</time></trkpt><trkpt lat="41.30363244063365" lon="19.873991871504717"><ele>229.0</ele><time>2026-04-29T10:01:22.001Z</time></trkpt><trkpt lat="41.303809555959404" lon="19.874007458236253"><ele>229.0</ele><time>2026-04-29T10:01:23.001Z</time></trkpt><trkpt lat="41.30398873045204" lon="19.8740228773302"><ele>230.66666666666666</ele><time>2026-04-29T10:01:24.001Z</time></trkpt><trkpt lat="41.30416922882661" lon="19.874033239103422"><ele>232.33333333333331</ele><time>2026-04-29T10:01:25.001Z</time></trkpt><trkpt lat="41.304337391858226" lon="19.874040679216566"><ele>234.0</ele><time>2026-04-29T10:01:26.001Z</time></trkpt><trkpt lat="41.304485119032876" lon="19.87404821265442"><ele>234.0</ele><time>2026-04-29T10:01:27.001Z</time></trkpt><trkpt lat="41.304622420158154" lon="19.87405696508284"><ele>234.0</ele><time>2026-04-29T10:01:28.001Z</time></trkpt><trkpt lat="41.30474854685271" lon="19.874066367967743"><ele>234.0</ele><time>2026-04-29T10:01:29.001Z</time></trkpt><trkpt lat="41.30486605068956" lon="19.874074890848338"><ele>234.0</ele><time>2026-04-29T10:01:30.001Z</time></trkpt><trkpt lat="41.30497382114786" lon="19.874076143092694"><ele>234.2</ele><time>2026-04-29T10:01:31.001Z</time></trkpt><trkpt lat="41.30506395398944" lon="19.87407095888159"><ele>234.39999999999998</ele><time>2026-04-29T10:01:32.001Z</time></trkpt><trkpt lat="41.30513846904978" lon="19.87409088104553"><ele>234.6</ele><time>2026-04-29T10:01:33.001Z</time></trkpt><trkpt lat="41.30524765935645" lon="19.87408098436829"><ele>234.8</ele><time>2026-04-29T10:01:34.001Z</time></trkpt><trkpt lat="41.305364652488784" lon="19.874101311248"><ele>235.0</ele><time>2026-04-29T10:01:35.001Z</time></trkpt><trkpt lat="41.30547901249479" lon="19.874112913983087"><ele>234.8</ele><time>2026-04-29T10:01:36.001Z</time></trkpt><trkpt lat="41.30558936586811" lon="19.874122092762807"><ele>234.6</ele><time>2026-04-29T10:01:37.001Z</time></trkpt><trkpt lat="41.30569470625032" lon="19.874130772704717"><ele>234.39999999999998</ele><time>2026-04-29T10:01:38.001Z</time></trkpt><trkpt lat="41.305805754905855" lon="19.874118324762044"><ele>234.2</ele><time>2026-04-29T10:01:39.001Z</time></trkpt><trkpt lat="41.30592523069682" lon="19.874136071995"><ele>234.0</ele><time>2026-04-29T10:01:40.001Z</time></trkpt><trkpt lat="41.306053901451" lon="19.874146001545203"><ele>234.0</ele><time>2026-04-29T10:01:41.001Z</time></trkpt><trkpt lat="41.30616963744827" lon="19.874149943378416"><ele>233.99999999999997</ele><time>2026-04-29T10:01:42.001Z</time></trkpt><trkpt lat="41.30627722605161" lon="19.874177721867575"><ele>233.99999999999997</ele><time>2026-04-29T10:01:43.001Z</time></trkpt><trkpt lat="41.30638353635407" lon="19.874186388161835"><ele>234.0</ele><time>2026-04-29T10:01:44.001Z</time></trkpt><trkpt lat="41.30648040607399" lon="19.874194351220424"><ele>234.0</ele><time>2026-04-29T10:01:45.001Z</time></trkpt><trkpt lat="41.30658637313022" lon="19.874202344355336"><ele>234.5</ele><time>2026-04-29T10:01:46.001Z</time></trkpt><trkpt lat="41.306703033806656" lon="19.874208310964487"><ele>235.0</ele><time>2026-04-29T10:01:47.001Z</time></trkpt><trkpt lat="41.306827642236996" lon="19.874214685722787"><ele>235.5</ele><time>2026-04-29T10:01:48.001Z</time></trkpt><trkpt lat="41.306964350008506" lon="19.874201940530032"><ele>236.0</ele><time>2026-04-29T10:01:49.001Z</time></trkpt><trkpt lat="41.30710404140213" lon="19.874213514171203"><ele>236.0</ele><time>2026-04-29T10:01:50.001Z</time></trkpt><trkpt lat="41.30724142843389" lon="19.874222949799247"><ele>236.0</ele><time>2026-04-29T10:01:51.001Z</time></trkpt><trkpt lat="41.307363774243676" lon="19.874233143603323"><ele>236.0</ele><time>2026-04-29T10:01:52.001Z</time></trkpt><trkpt lat="41.30747600871535" lon="19.874240610493416"><ele>236.0</ele><time>2026-04-29T10:01:53.001Z</time></trkpt><trkpt lat="41.30759662967461" lon="19.874246660995677"><ele>236.0</ele><time>2026-04-29T10:01:54.001Z</time></trkpt><trkpt lat="41.30772402545141" lon="19.87425369885205"><ele>236.0</ele><time>2026-04-29T10:01:55.001Z</time></trkpt><trkpt lat="41.30785101459819" lon="19.874254219527327"><ele>236.0</ele><time>2026-04-29T10:01:56.001Z</time></trkpt><trkpt lat="41.30796794956153" lon="19.874259407940073"><ele>236.0</ele><time>2026-04-29T10:01:57.001Z</time></trkpt><trkpt lat="41.30808975206255" lon="19.874270447100546"><ele>236.0</ele><time>2026-04-29T10:01:58.001Z</time></trkpt><trkpt lat="41.30821730980298" lon="19.874284197148395"><ele>236.0</ele><time>2026-04-29T10:01:59.001Z</time></trkpt><trkpt lat="41.30833544401949" lon="19.87430244038935"><ele>236.0</ele><time>2026-04-29T10:02:00.001Z</time></trkpt><trkpt lat="41.308430458800416" lon="19.874349818565015"><ele>236.0</ele><time>2026-04-29T10:02:01.001Z</time></trkpt><trkpt lat="41.308533189365086" lon="19.87439284203851"><ele>236.0</ele><time>2026-04-29T10:02:02.001Z</time></trkpt><trkpt lat="41.30864577765122" lon="19.874439792162008"><ele>236.0</ele><time>2026-04-29T10:02:03.001Z</time></trkpt><trkpt lat="41.30876984454568" lon="19.87449049076519"><ele>236.0</ele><time>2026-04-29T10:02:04Z</time></trkpt><trkpt lat="41.308881181271964" lon="19.87453562408826"><ele>236.0</ele><time>2026-04-29T10:02:05Z</time></trkpt><trkpt lat="41.308976016669575" lon="19.874574115668874"><ele>237.0</ele><time>2026-04-29T10:02:06Z</time></trkpt><trkpt lat="41.30906470673352" lon="19.874602298327318"><ele>238.00000000000003</ele><time>2026-04-29T10:02:07Z</time></trkpt><trkpt lat="41.309153369929014" lon="19.874630669092102"><ele>239.00000000000003</ele><time>2026-04-29T10:02:08Z</time></trkpt><trkpt lat="41.3092479553519" lon="19.874661149793663"><ele>240.0</ele><time>2026-04-29T10:02:09Z</time></trkpt><trkpt lat="41.30935480461353" lon="19.8746955826232"><ele>241.0</ele><time>2026-04-29T10:02:10Z</time></trkpt><trkpt lat="41.30947156530571" lon="19.874733098139824"><ele>241.0</ele><time>2026-04-29T10:02:11Z</time></trkpt><trkpt lat="41.30959696602186" lon="19.874773358024836"><ele>241.0</ele><time>2026-04-29T10:02:12Z</time></trkpt><trkpt lat="41.30973270753876" lon="19.874816937804507"><ele>241.0</ele><time>2026-04-29T10:02:13Z</time></trkpt><trkpt lat="41.309879971321315" lon="19.874845289378317"><ele>241.0</ele><time>2026-04-29T10:02:14Z</time></trkpt><trkpt lat="41.310031866688945" lon="19.874896933165306"><ele>241.33333333333331</ele><time>2026-04-29T10:02:15Z</time></trkpt><trkpt lat="41.310187866216545" lon="19.874950055985146"><ele>241.66666666666669</ele><time>2026-04-29T10:02:16Z</time></trkpt><trkpt lat="41.31034542253097" lon="19.875013638689136"><ele>242.0</ele><time>2026-04-29T10:02:17Z</time></trkpt><trkpt lat="41.310507557639426" lon="19.87508496969742"><ele>243.0</ele><time>2026-04-29T10:02:18Z</time></trkpt><trkpt lat="41.31067025459158" lon="19.87516300677886"><ele>244.0</ele><time>2026-04-29T10:02:19Z</time></trkpt><trkpt lat="41.310824424211525" lon="19.875268335573942"><ele>245.0</ele><time>2026-04-29T10:02:20Z</time></trkpt><trkpt lat="41.31097296767609" lon="19.875329662802805"><ele>245.0</ele><time>2026-04-29T10:02:21Z</time></trkpt><trkpt lat="41.31111390366571" lon="19.875418744776272"><ele>245.0</ele><time>2026-04-29T10:02:22Z</time></trkpt><trkpt lat="41.31125687874156" lon="19.875503098387924"><ele>245.0</ele><time>2026-04-29T10:02:23Z</time></trkpt><trkpt lat="41.311384712903326" lon="19.87557254921994"><ele>246.0</ele><time>2026-04-29T10:02:24Z</time></trkpt><trkpt lat="41.31150852175043" lon="19.87563702152876"><ele>247.0</ele><time>2026-04-29T10:02:25Z</time></trkpt><trkpt lat="41.311642158889406" lon="19.87570486439026"><ele>248.0</ele><time>2026-04-29T10:02:26Z</time></trkpt><trkpt lat="41.31178862562729" lon="19.875771837778252"><ele>249.0</ele><time>2026-04-29T10:02:27Z</time></trkpt><trkpt lat="41.311936879227424" lon="19.87583409017607"><ele>249.0</ele><time>2026-04-29T10:02:28Z</time></trkpt><trkpt lat="41.312075818189044" lon="19.875884753792857"><ele>249.0</ele><time>2026-04-29T10:02:29Z</time></trkpt><trkpt lat="41.31220738536709" lon="19.875920026364913"><ele>249.0</ele><time>2026-04-29T10:02:30Z</time></trkpt><trkpt lat="41.31234068579867" lon="19.87594298606038"><ele>249.0</ele><time>2026-04-29T10:02:31Z</time></trkpt><trkpt lat="41.31246833242709" lon="19.875990968163453"><ele>246.25</ele><time>2026-04-29T10:02:32Z</time></trkpt><trkpt lat="41.312585093571805" lon="19.876019888882816"><ele>243.5</ele><time>2026-04-29T10:02:33Z</time></trkpt><trkpt lat="41.31270537164174" lon="19.876049054648846"><ele>240.75</ele><time>2026-04-29T10:02:34Z</time></trkpt><trkpt lat="41.312844195492396" lon="19.876075030885332"><ele>238.0</ele><time>2026-04-29T10:02:35Z</time></trkpt><trkpt lat="41.31298171732278" lon="19.876089945935046"><ele>238.0</ele><time>2026-04-29T10:02:36Z</time></trkpt><trkpt lat="41.31310949418911" lon="19.876103598552067"><ele>238.0</ele><time>2026-04-29T10:02:37Z</time></trkpt><trkpt lat="41.31322984249477" lon="19.876110057456675"><ele>238.0</ele><time>2026-04-29T10:02:38Z</time></trkpt><trkpt lat="41.31333150438057" lon="19.876110854751733"><ele>238.0</ele><time>2026-04-29T10:02:39Z</time></trkpt><trkpt lat="41.31339798948534" lon="19.876133107348288"><ele>238.0</ele><time>2026-04-29T10:02:40Z</time></trkpt><trkpt lat="41.3134864287329" lon="19.876079908203486"><ele>238.0</ele><time>2026-04-29T10:02:41Z</time></trkpt><trkpt lat="41.31353957386624" lon="19.876150872540833"><ele>238.0</ele><time>2026-04-29T10:02:43Z</time></trkpt><trkpt lat="41.313588772503884" lon="19.876323958682637"><ele>238.0</ele><time>2026-04-29T10:02:45Z</time></trkpt><trkpt lat="41.31364133550033" lon="19.87644922154869"><ele>238.0</ele><time>2026-04-29T10:02:46Z</time></trkpt><trkpt lat="41.313690933178975" lon="19.876597340155104"><ele>238.0</ele><time>2026-04-29T10:02:47Z</time></trkpt><trkpt lat="41.31373692311215" lon="19.876746817314963"><ele>237.8</ele><time>2026-04-29T10:02:48Z</time></trkpt><trkpt lat="41.31376831408667" lon="19.876875852142625"><ele>237.60000000000002</ele><time>2026-04-29T10:02:49Z</time></trkpt><trkpt lat="41.31379766931609" lon="19.87699516012125"><ele>237.39999999999998</ele><time>2026-04-29T10:02:50Z</time></trkpt><trkpt lat="41.313827039940584" lon="19.877116472593997"><ele>237.2</ele><time>2026-04-29T10:02:51Z</time></trkpt><trkpt lat="41.31380566501696" lon="19.877260620943"><ele>237.0</ele><time>2026-04-29T10:02:52Z</time></trkpt><trkpt lat="41.31380724181152" lon="19.87742665761526"><ele>236.25</ele><time>2026-04-29T10:02:53Z</time></trkpt><trkpt lat="41.3138089641282" lon="19.8776080175486"><ele>235.5</ele><time>2026-04-29T10:02:54Z</time></trkpt><trkpt lat="41.3138412006563" lon="19.877785512743095"><ele>234.75</ele><time>2026-04-29T10:02:55Z</time></trkpt><trkpt lat="41.313833956310425" lon="19.87793113494314"><ele>234.0</ele><time>2026-04-29T10:02:56Z</time></trkpt><trkpt lat="41.313823178154976" lon="19.87804220105454"><ele>234.0</ele><time>2026-04-29T10:02:57Z</time></trkpt><trkpt lat="41.3138011763194" lon="19.878125688949478"><ele>234.0</ele><time>2026-04-29T10:02:58Z</time></trkpt><trkpt lat="41.31375325507279" lon="19.87819419187226"><ele>234.0</ele><time>2026-04-29T10:02:59Z</time></trkpt><trkpt lat="41.31369259605624" lon="19.87827835246815"><ele>234.0</ele><time>2026-04-29T10:03:00Z</time></trkpt><trkpt lat="41.313669784604436" lon="19.87838296088993"><ele>234.0</ele><time>2026-04-29T10:03:01Z</time></trkpt><trkpt lat="41.313695049137614" lon="19.8784737427407"><ele>234.0</ele><time>2026-04-29T10:03:02Z</time></trkpt><trkpt lat="41.31373406879404" lon="19.878592154551654"><ele>234.0</ele><time>2026-04-29T10:03:03Z</time></trkpt><trkpt lat="41.313752633723276" lon="19.878741001665674"><ele>234.0</ele><time>2026-04-29T10:03:04Z</time></trkpt><trkpt lat="41.31373157808578" lon="19.87891292594238"><ele>234.0</ele><time>2026-04-29T10:03:05Z</time></trkpt><trkpt lat="41.313699488800644" lon="19.8790892035403"><ele>234.0</ele><time>2026-04-29T10:03:06.001Z</time></trkpt><trkpt lat="41.313677974476114" lon="19.879281076659748"><ele>235.0</ele><time>2026-04-29T10:03:07.001Z</time></trkpt><trkpt lat="41.313659678045966" lon="19.879426921771774"><ele>235.99999999999997</ele><time>2026-04-29T10:03:08.001Z</time></trkpt><trkpt lat="41.313639237360825" lon="19.87957383282014"><ele>236.99999999999997</ele><time>2026-04-29T10:03:09.001Z</time></trkpt><trkpt lat="41.313617318279974" lon="19.879705050283746"><ele>238.0</ele><time>2026-04-29T10:03:10.001Z</time></trkpt><trkpt lat="41.31357850199403" lon="19.879793961983673"><ele>239.0</ele><time>2026-04-29T10:03:11.001Z</time></trkpt><trkpt lat="41.31352204643558" lon="19.879870664102516"><ele>239.0</ele><time>2026-04-29T10:03:12.001Z</time></trkpt><trkpt lat="41.313453599815006" lon="19.879946364124407"><ele>238.99999999999997</ele><time>2026-04-29T10:03:13.001Z</time></trkpt><trkpt lat="41.3134220040772" lon="19.880035680030918"><ele>238.99999999999997</ele><time>2026-04-29T10:03:14.001Z</time></trkpt><trkpt lat="41.313443809751405" lon="19.880124182395473"><ele>239.0</ele><time>2026-04-29T10:03:15.001Z</time></trkpt><trkpt lat="41.31347305354506" lon="19.880233572433866"><ele>239.0</ele><time>2026-04-29T10:03:17.001Z</time></trkpt><trkpt lat="41.31362980932244" lon="19.88018115021625"><ele>239.0</ele><time>2026-04-29T10:03:18.001Z</time></trkpt><trkpt lat="41.31370704387512" lon="19.880130820605984"><ele>238.99999999999997</ele><time>2026-04-29T10:03:19.001Z</time></trkpt><trkpt lat="41.313795245834065" lon="19.880078239131905"><ele>238.99999999999997</ele><time>2026-04-29T10:03:20.001Z</time></trkpt><trkpt lat="41.3138963135089" lon="19.88004005832088"><ele>239.0</ele><time>2026-04-29T10:03:21.001Z</time></trkpt><trkpt lat="41.314008145205385" lon="19.880026739639806"><ele>239.0</ele><time>2026-04-29T10:03:22.001Z</time></trkpt><trkpt lat="41.31414194835612" lon="19.880016108678248"><ele>239.6</ele><time>2026-04-29T10:03:23.001Z</time></trkpt><trkpt lat="41.314267048561604" lon="19.87999633470281"><ele>240.2</ele><time>2026-04-29T10:03:24.001Z</time></trkpt><trkpt lat="41.31437121909186" lon="19.87998269817276"><ele>240.79999999999998</ele><time>2026-04-29T10:03:25.001Z</time></trkpt><trkpt lat="41.31444080154641" lon="19.879982310227987"><ele>241.39999999999998</ele><time>2026-04-29T10:03:26.001Z</time></trkpt><trkpt lat="41.314564311367604" lon="19.88003853299832"><ele>242.0</ele><time>2026-04-29T10:03:28.001Z</time></trkpt><trkpt lat="41.31464130006239" lon="19.880050513204214"><ele>242.0</ele><time>2026-04-29T10:03:29.001Z</time></trkpt><trkpt lat="41.31472337775417" lon="19.88002282833046"><ele>242.0</ele><time>2026-04-29T10:03:30.001Z</time></trkpt><trkpt lat="41.314815512566284" lon="19.879990000212434"><ele>242.0</ele><time>2026-04-29T10:03:31.001Z</time></trkpt><trkpt lat="41.314915279182834" lon="19.879990337226715"><ele>242.0</ele><time>2026-04-29T10:03:32.001Z</time></trkpt><trkpt lat="41.315020287154134" lon="19.880003179262854"><ele>242.0</ele><time>2026-04-29T10:03:33.001Z</time></trkpt><trkpt lat="41.3151335630548" lon="19.880009577327066"><ele>242.39999999999998</ele><time>2026-04-29T10:03:34.001Z</time></trkpt><trkpt lat="41.315249498730466" lon="19.8800143236508"><ele>242.79999999999998</ele><time>2026-04-29T10:03:35.001Z</time></trkpt><trkpt lat="41.31534692166725" lon="19.880033124050435"><ele>243.2</ele><time>2026-04-29T10:03:36.001Z</time></trkpt><trkpt lat="41.31544696531547" lon="19.88008508791427"><ele>243.6</ele><time>2026-04-29T10:03:37.001Z</time></trkpt><trkpt lat="41.315526063239155" lon="19.880196244510337"><ele>244.0</ele><time>2026-04-29T10:03:38.001Z</time></trkpt><trkpt lat="41.31561990720752" lon="19.880289384291448"><ele>244.79999999999998</ele><time>2026-04-29T10:03:39.001Z</time></trkpt><trkpt lat="41.31571448834498" lon="19.880383255661812"><ele>245.59999999999997</ele><time>2026-04-29T10:03:40.001Z</time></trkpt><trkpt lat="41.31581336321499" lon="19.880472653648877"><ele>246.4</ele><time>2026-04-29T10:03:41.001Z</time></trkpt><trkpt lat="41.31588817934521" lon="19.880570698913566"><ele>247.2</ele><time>2026-04-29T10:03:42.001Z</time></trkpt><trkpt lat="41.31594697716172" lon="19.880658816807387"><ele>248.0</ele><time>2026-04-29T10:03:43.001Z</time></trkpt><trkpt lat="41.315970443542504" lon="19.880767196202846"><ele>248.00000000000003</ele><time>2026-04-29T10:03:44.001Z</time></trkpt><trkpt lat="41.31600024781911" lon="19.88087859569834"><ele>248.0</ele><time>2026-04-29T10:03:45.001Z</time></trkpt><trkpt lat="41.316024272173884" lon="19.880969040443432"><ele>248.0</ele><time>2026-04-29T10:03:46.001Z</time></trkpt><trkpt lat="41.31606327499636" lon="19.881049553547225"><ele>248.0</ele><time>2026-04-29T10:03:47.001Z</time></trkpt><trkpt lat="41.316076950329744" lon="19.881142302313155"><ele>248.00000000000003</ele><time>2026-04-29T10:03:48.001Z</time></trkpt><trkpt lat="41.3161062631462" lon="19.8812284223178"><ele>248.0</ele><time>2026-04-29T10:03:49.001Z</time></trkpt><trkpt lat="41.31614405606485" lon="19.881317625210716"><ele>248.66666666666669</ele><time>2026-04-29T10:03:50.001Z</time></trkpt><trkpt lat="41.31619069973457" lon="19.8814033639085"><ele>249.33333333333334</ele><time>2026-04-29T10:03:51.001Z</time></trkpt><trkpt lat="41.31622363044482" lon="19.881489368391218"><ele>250.0</ele><time>2026-04-29T10:03:52.001Z</time></trkpt><trkpt lat="41.316263875793794" lon="19.881635890971136"><ele>250.66666666666669</ele><time>2026-04-29T10:03:54.001Z</time></trkpt><trkpt lat="41.316298484365745" lon="19.88171122496376"><ele>251.33333333333334</ele><time>2026-04-29T10:03:55.001Z</time></trkpt><trkpt lat="41.31631437850304" lon="19.881851622351224"><ele>252.0</ele><time>2026-04-29T10:03:57.001Z</time></trkpt><trkpt lat="41.31633263048516" lon="19.881958900123372"><ele>253.6</ele><time>2026-04-29T10:03:59.001Z</time></trkpt><trkpt lat="41.316421690863706" lon="19.881983512466253"><ele>255.2</ele><time>2026-04-29T10:04:01.001Z</time></trkpt><trkpt lat="41.31649269964506" lon="19.882002512740712"><ele>256.8</ele><time>2026-04-29T10:04:02.001Z</time></trkpt><trkpt lat="41.31658848259593" lon="19.882004840364694"><ele>258.4</ele><time>2026-04-29T10:04:03.001Z</time></trkpt><trkpt lat="41.31670339828793" lon="19.881995406144103"><ele>260.0</ele><time>2026-04-29T10:04:04.001Z</time></trkpt><trkpt lat="41.316817258631474" lon="19.881991462843942"><ele>260.0</ele><time>2026-04-29T10:04:05.001Z</time></trkpt><trkpt lat="41.31693429051027" lon="19.882010115374225"><ele>260.0</ele><time>2026-04-29T10:04:06.001Z</time></trkpt><trkpt lat="41.31705135841585" lon="19.88206825105258"><ele>260.0</ele><time>2026-04-29T10:04:07.001Z</time></trkpt><trkpt lat="41.31716803398982" lon="19.88215960240276"><ele>260.0</ele><time>2026-04-29T10:04:08.001Z</time></trkpt><trkpt lat="41.31729979154828" lon="19.882266112857483"><ele>261.0</ele><time>2026-04-29T10:04:09.001Z</time></trkpt><trkpt lat="41.317448587679515" lon="19.88233976090958"><ele>262.0</ele><time>2026-04-29T10:04:10Z</time></trkpt><trkpt lat="41.31760612648829" lon="19.88238202496401"><ele>263.0</ele><time>2026-04-29T10:04:11Z</time></trkpt><trkpt lat="41.3177809759496" lon="19.88243118908159"><ele>263.0</ele><time>2026-04-29T10:04:12Z</time></trkpt><trkpt lat="41.31796533564035" lon="19.88250636842828"><ele>263.0</ele><time>2026-04-29T10:04:13Z</time></trkpt><trkpt lat="41.3181530288864" lon="19.88259012454807"><ele>263.0</ele><time>2026-04-29T10:04:14Z</time></trkpt><trkpt lat="41.31831762843448" lon="19.8826619963548"><ele>264.25</ele><time>2026-04-29T10:04:15Z</time></trkpt><trkpt lat="41.31846332620185" lon="19.8827193337143"><ele>265.5</ele><time>2026-04-29T10:04:16Z</time></trkpt><trkpt lat="41.31859381620985" lon="19.882773174353822"><ele>266.75</ele><time>2026-04-29T10:04:17Z</time></trkpt><trkpt lat="41.31870962229314" lon="19.882824949628763"><ele>268.0</ele><time>2026-04-29T10:04:18Z</time></trkpt><trkpt lat="41.31882322103378" lon="19.882875914975497"><ele>269.25</ele><time>2026-04-29T10:04:19Z</time></trkpt><trkpt lat="41.31894516997521" lon="19.882937078570762"><ele>270.5</ele><time>2026-04-29T10:04:20Z</time></trkpt><trkpt lat="41.31907093534707" lon="19.882999882183427"><ele>271.75</ele><time>2026-04-29T10:04:21Z</time></trkpt><trkpt lat="41.319195334523364" lon="19.883069092062378"><ele>273.0</ele><time>2026-04-29T10:04:22Z</time></trkpt><trkpt lat="41.3192906581707" lon="19.883184051630163"><ele>273.0</ele><time>2026-04-29T10:04:23Z</time></trkpt><trkpt lat="41.31937760492142" lon="19.88326400725714"><ele>273.0</ele><time>2026-04-29T10:04:24Z</time></trkpt><trkpt lat="41.31948328043244" lon="19.88327765635863"><ele>273.0</ele><time>2026-04-29T10:04:25Z</time></trkpt><trkpt lat="41.31960968458106" lon="19.883270158302718"><ele>273.0</ele><time>2026-04-29T10:04:26Z</time></trkpt><trkpt lat="41.31975728571974" lon="19.883255764211462"><ele>272.75</ele><time>2026-04-29T10:04:27Z</time></trkpt><trkpt lat="41.31990418541266" lon="19.88325472232281"><ele>272.5</ele><time>2026-04-29T10:04:28Z</time></trkpt><trkpt lat="41.32001615308531" lon="19.88327606656601"><ele>272.25</ele><time>2026-04-29T10:04:29Z</time></trkpt><trkpt lat="41.320089173613205" lon="19.883368870922325"><ele>272.0</ele><time>2026-04-29T10:04:30Z</time></trkpt><trkpt lat="41.32019296411291" lon="19.883457260431758"><ele>276.5</ele><time>2026-04-29T10:04:31Z</time></trkpt><trkpt lat="41.320317522981014" lon="19.883539732341738"><ele>281.0</ele><time>2026-04-29T10:04:32Z</time></trkpt><trkpt lat="41.32041624022526" lon="19.883633199753945"><ele>285.5</ele><time>2026-04-29T10:04:33Z</time></trkpt><trkpt lat="41.32049799129496" lon="19.883738268971513"><ele>290.0</ele><time>2026-04-29T10:04:34Z</time></trkpt><trkpt lat="41.320557165424795" lon="19.883910007838487"><ele>289.5</ele><time>2026-04-29T10:04:35Z</time></trkpt><trkpt lat="41.32067554922217" lon="19.884032026274166"><ele>289.0</ele><time>2026-04-29T10:04:36Z</time></trkpt><trkpt lat="41.32077845083973" lon="19.88414864104322"><ele>288.5</ele><time>2026-04-29T10:04:37Z</time></trkpt><trkpt lat="41.3208779441183" lon="19.884253507585164"><ele>288.0</ele><time>2026-04-29T10:04:38Z</time></trkpt><trkpt lat="41.320975743521466" lon="19.884378880191722"><ele>288.0</ele><time>2026-04-29T10:04:39Z</time></trkpt><trkpt lat="41.32106726180286" lon="19.884538791488374"><ele>288.0</ele><time>2026-04-29T10:04:40Z</time></trkpt><trkpt lat="41.32114829913491" lon="19.884691436272576"><ele>288.0</ele><time>2026-04-29T10:04:41Z</time></trkpt><trkpt lat="41.32123000233641" lon="19.88481550601025"><ele>288.0</ele><time>2026-04-29T10:04:42Z</time></trkpt><trkpt lat="41.32131593257961" lon="19.88491603836937"><ele>288.0</ele><time>2026-04-29T10:04:43Z</time></trkpt><trkpt lat="41.32139696399868" lon="19.88500868339611"><ele>288.0</ele><time>2026-04-29T10:04:44Z</time></trkpt><trkpt lat="41.321470754465345" lon="19.885088200309298"><ele>288.0</ele><time>2026-04-29T10:04:45Z</time></trkpt><trkpt lat="41.32154419839695" lon="19.88513573514769"><ele>288.0</ele><time>2026-04-29T10:04:46Z</time></trkpt><trkpt lat="41.32162904269477" lon="19.885145844640636"><ele>288.0</ele><time>2026-04-29T10:04:47Z</time></trkpt><trkpt lat="41.3217377478317" lon="19.885129340281285"><ele>284.5</ele><time>2026-04-29T10:04:48Z</time></trkpt><trkpt lat="41.32184908943768" lon="19.885076736983606"><ele>281.0</ele><time>2026-04-29T10:04:49Z</time></trkpt><trkpt lat="41.32195546904338" lon="19.884994143697583"><ele>277.5</ele><time>2026-04-29T10:04:50Z</time></trkpt><trkpt lat="41.322058722734894" lon="19.8848978772514"><ele>274.0</ele><time>2026-04-29T10:04:51Z</time></trkpt><trkpt lat="41.32217371531516" lon="19.884803328399506"><ele>275.75</ele><time>2026-04-29T10:04:52Z</time></trkpt><trkpt lat="41.322297503009814" lon="19.88470500339822"><ele>277.5</ele><time>2026-04-29T10:04:53Z</time></trkpt><trkpt lat="41.32240648780406" lon="19.884617054735905"><ele>279.25</ele><time>2026-04-29T10:04:54Z</time></trkpt><trkpt lat="41.32251039506607" lon="19.884535852627184"><ele>281.0</ele><time>2026-04-29T10:04:55Z</time></trkpt><trkpt lat="41.32261049854023" lon="19.884460948559322"><ele>281.00000000000006</ele><time>2026-04-29T10:04:56Z</time></trkpt><trkpt lat="41.32268731584044" lon="19.88440048541471"><ele>281.0</ele><time>2026-04-29T10:04:57Z</time></trkpt><trkpt lat="41.322753794621974" lon="19.884339021227095"><ele>281.0</ele><time>2026-04-29T10:04:59Z</time></trkpt><trkpt lat="41.32280523849881" lon="19.884271647888276"><ele>281.0</ele><time>2026-04-29T10:05:01.001Z</time></trkpt><trkpt lat="41.32286424699615" lon="19.884238284049438"><ele>281.0</ele><time>2026-04-29T10:05:02.001Z</time></trkpt><trkpt lat="41.32292701402607" lon="19.88421314386611"><ele>281.00000000000006</ele><time>2026-04-29T10:05:03.001Z</time></trkpt><trkpt lat="41.3229947038799" lon="19.884203479435204"><ele>281.0</ele><time>2026-04-29T10:05:06.001Z</time></trkpt><trkpt lat="41.32306611018592" lon="19.884186056045557"><ele>283.5</ele><time>2026-04-29T10:05:09.001Z</time></trkpt><trkpt lat="41.32314387179764" lon="19.88400360595429"><ele>286.0</ele><time>2026-04-29T10:05:11.001Z</time></trkpt><trkpt lat="41.32321289184857" lon="19.883885778057902"><ele>288.5</ele><time>2026-04-29T10:05:12.001Z</time></trkpt><trkpt lat="41.32330928787315" lon="19.883759575301784"><ele>291.0</ele><time>2026-04-29T10:05:13.001Z</time></trkpt><trkpt lat="41.32341960361009" lon="19.883641967121033"><ele>291.0</ele><time>2026-04-29T10:05:14.001Z</time></trkpt><trkpt lat="41.323522548159566" lon="19.883552139728856"><ele>291.0</ele><time>2026-04-29T10:05:15.001Z</time></trkpt><trkpt lat="41.3236211077496" lon="19.883475339748067"><ele>291.0</ele><time>2026-04-29T10:05:16.001Z</time></trkpt><trkpt lat="41.323729179580994" lon="19.883391976497435"><ele>291.0</ele><time>2026-04-29T10:05:17.001Z</time></trkpt><trkpt lat="41.323862564010334" lon="19.883304950665305"><ele>289.6666666666667</ele><time>2026-04-29T10:05:18.001Z</time></trkpt><trkpt lat="41.32402555238221" lon="19.8832314765408"><ele>288.33333333333337</ele><time>2026-04-29T10:05:19.001Z</time></trkpt><trkpt lat="41.32421386345556" lon="19.883170266842427"><ele>287.0</ele><time>2026-04-29T10:05:20.001Z</time></trkpt><trkpt lat="41.32441838322583" lon="19.883114726095222"><ele>287.0</ele><time>2026-04-29T10:05:21.001Z</time></trkpt><trkpt lat="41.324618965379514" lon="19.8830716152335"><ele>287.0</ele><time>2026-04-29T10:05:22.001Z</time></trkpt><trkpt lat="41.32480681949814" lon="19.883040468830323"><ele>287.0</ele><time>2026-04-29T10:05:23.001Z</time></trkpt><trkpt lat="41.3249737628534" lon="19.882998130734496"><ele>288.2</ele><time>2026-04-29T10:05:24.001Z</time></trkpt><trkpt lat="41.325117792610676" lon="19.882935041254736"><ele>289.4</ele><time>2026-04-29T10:05:25.001Z</time></trkpt><trkpt lat="41.32523440624026" lon="19.88287344966175"><ele>290.6</ele><time>2026-04-29T10:05:26.001Z</time></trkpt><trkpt lat="41.3253209670029" lon="19.882838957220955"><ele>291.8</ele><time>2026-04-29T10:05:27.001Z</time></trkpt><trkpt lat="41.32539555828419" lon="19.882852751886393"><ele>293.0</ele><time>2026-04-29T10:05:28.001Z</time></trkpt><trkpt lat="41.32545041965061" lon="19.882920953321467"><ele>293.0</ele><time>2026-04-29T10:05:29.001Z</time></trkpt><trkpt lat="41.325499307704796" lon="19.883013920785874"><ele>293.0</ele><time>2026-04-29T10:05:30.001Z</time></trkpt><trkpt lat="41.32553660835228" lon="19.88312705091236"><ele>293.0</ele><time>2026-04-29T10:05:31.001Z</time></trkpt><trkpt lat="41.32563659889032" lon="19.883166088301945"><ele>293.0</ele><time>2026-04-29T10:05:32.001Z</time></trkpt><trkpt lat="41.32573786674638" lon="19.883164322231416"><ele>293.0</ele><time>2026-04-29T10:05:33.001Z</time></trkpt><trkpt lat="41.3258539647273" lon="19.883120633468"><ele>293.0</ele><time>2026-04-29T10:05:34.001Z</time></trkpt><trkpt lat="41.32598593335714" lon="19.88306258425486"><ele>293.0</ele><time>2026-04-29T10:05:35.001Z</time></trkpt><trkpt lat="41.326131605202406" lon="19.882986623284975"><ele>293.0</ele><time>2026-04-29T10:05:36.001Z</time></trkpt><trkpt lat="41.32628049492506" lon="19.882880183723504"><ele>290.25</ele><time>2026-04-29T10:05:37.001Z</time></trkpt><trkpt lat="41.32641234745392" lon="19.88275571684794"><ele>287.5</ele><time>2026-04-29T10:05:38.001Z</time></trkpt><trkpt lat="41.326523443104364" lon="19.88264120527935"><ele>284.75</ele><time>2026-04-29T10:05:39.001Z</time></trkpt><trkpt lat="41.32662034443031" lon="19.882520589439423"><ele>282.0</ele><time>2026-04-29T10:05:40.001Z</time></trkpt><trkpt lat="41.32670656206391" lon="19.882368785852137"><ele>282.0</ele><time>2026-04-29T10:05:41.001Z</time></trkpt><trkpt lat="41.32677290875361" lon="19.882208250026462"><ele>282.0</ele><time>2026-04-29T10:05:42.001Z</time></trkpt><trkpt lat="41.32683201830391" lon="19.882055154780126"><ele>282.0</ele><time>2026-04-29T10:05:43.001Z</time></trkpt><trkpt lat="41.32690778873331" lon="19.881895813546837"><ele>282.0</ele><time>2026-04-29T10:05:44.001Z</time></trkpt><trkpt lat="41.32698717609434" lon="19.881729521428618"><ele>277.25</ele><time>2026-04-29T10:05:45.001Z</time></trkpt><trkpt lat="41.327045344083096" lon="19.8815688175137"><ele>272.5</ele><time>2026-04-29T10:05:46.001Z</time></trkpt><trkpt lat="41.32707540596895" lon="19.881408052935793"><ele>267.75</ele><time>2026-04-29T10:05:47.001Z</time></trkpt><trkpt lat="41.327069080665346" lon="19.881253496555008"><ele>263.0</ele><time>2026-04-29T10:05:48.001Z</time></trkpt><trkpt lat="41.32702998573018" lon="19.881099060526974"><ele>261.75</ele><time>2026-04-29T10:05:49.001Z</time></trkpt><trkpt lat="41.32697689426275" lon="19.88092896027407"><ele>260.5</ele><time>2026-04-29T10:05:50.001Z</time></trkpt><trkpt lat="41.326930812882225" lon="19.880764430492164"><ele>259.25</ele><time>2026-04-29T10:05:51.001Z</time></trkpt><trkpt lat="41.32689375143412" lon="19.880614853342287"><ele>258.0</ele><time>2026-04-29T10:05:52.001Z</time></trkpt><trkpt lat="41.32687059366435" lon="19.880473171372504"><ele>258.0</ele><time>2026-04-29T10:05:53.001Z</time></trkpt><trkpt lat="41.326865382237266" lon="19.880329317678985"><ele>258.0</ele><time>2026-04-29T10:05:54.001Z</time></trkpt><trkpt lat="41.326879065306734" lon="19.88018008458557"><ele>258.0</ele><time>2026-04-29T10:05:55.001Z</time></trkpt><trkpt lat="41.32692104758744" lon="19.88004863000984"><ele>258.0</ele><time>2026-04-29T10:05:56.001Z</time></trkpt><trkpt lat="41.32698763193794" lon="19.879942900566554"><ele>258.0</ele><time>2026-04-29T10:05:57.001Z</time></trkpt><trkpt lat="41.32708054428135" lon="19.879838256276248"><ele>256.6666666666667</ele><time>2026-04-29T10:05:58.001Z</time></trkpt><trkpt lat="41.327181935586665" lon="19.879717929420497"><ele>255.33333333333334</ele><time>2026-04-29T10:05:59.001Z</time></trkpt><trkpt lat="41.32729397930984" lon="19.879572846173158"><ele>254.0</ele><time>2026-04-29T10:06:00.001Z</time></trkpt><trkpt lat="41.32741510686152" lon="19.879422514536483"><ele>254.66666666666669</ele><time>2026-04-29T10:06:01.001Z</time></trkpt><trkpt lat="41.32755137544553" lon="19.879276815737715"><ele>255.33333333333331</ele><time>2026-04-29T10:06:02.001Z</time></trkpt><trkpt lat="41.32768823369094" lon="19.879145508312877"><ele>256.0</ele><time>2026-04-29T10:06:03.001Z</time></trkpt><trkpt lat="41.32782734707595" lon="19.879041636025377"><ele>256.0</ele><time>2026-04-29T10:06:04.001Z</time></trkpt><trkpt lat="41.327946785157636" lon="19.87889267530908"><ele>256.0</ele><time>2026-04-29T10:06:05.001Z</time></trkpt><trkpt lat="41.32806912927319" lon="19.878770515915395"><ele>256.0</ele><time>2026-04-29T10:06:06.001Z</time></trkpt><trkpt lat="41.32820509943662" lon="19.87869180898135"><ele>256.0</ele><time>2026-04-29T10:06:07.001Z</time></trkpt><trkpt lat="41.3283359046368" lon="19.878616220171534"><ele>256.0</ele><time>2026-04-29T10:06:08.001Z</time></trkpt><trkpt lat="41.328454482861495" lon="19.878509983898848"><ele>256.0</ele><time>2026-04-29T10:06:09.001Z</time></trkpt><trkpt lat="41.32858531768429" lon="19.87840636708128"><ele>256.0</ele><time>2026-04-29T10:06:10.001Z</time></trkpt><trkpt lat="41.328708706154266" lon="19.878257777531193"><ele>252.5</ele><time>2026-04-29T10:06:11.001Z</time></trkpt><trkpt lat="41.32880797223294" lon="19.878095120336766"><ele>249.0</ele><time>2026-04-29T10:06:12.001Z</time></trkpt><trkpt lat="41.328889710638144" lon="19.87793847014408"><ele>245.5</ele><time>2026-04-29T10:06:13.001Z</time></trkpt><trkpt lat="41.328973243558615" lon="19.87780593994709"><ele>242.0</ele><time>2026-04-29T10:06:14.001Z</time></trkpt><trkpt lat="41.32906389887026" lon="19.877695801648834"><ele>239.8</ele><time>2026-04-29T10:06:15.001Z</time></trkpt><trkpt lat="41.32915876916792" lon="19.877601143583966"><ele>237.6</ele><time>2026-04-29T10:06:16Z</time></trkpt><trkpt lat="41.32925394969058" lon="19.87751239064842"><ele>235.40000000000003</ele><time>2026-04-29T10:06:17Z</time></trkpt><trkpt lat="41.32933286002363" lon="19.877407258283636"><ele>233.20000000000002</ele><time>2026-04-29T10:06:18Z</time></trkpt><trkpt lat="41.329392101905185" lon="19.877300309621777"><ele>231.0</ele><time>2026-04-29T10:06:19Z</time></trkpt><trkpt lat="41.32945786165549" lon="19.877210368402675"><ele>231.0</ele><time>2026-04-29T10:06:20Z</time></trkpt><trkpt lat="41.329503494453" lon="19.877109529126407"><ele>231.0</ele><time>2026-04-29T10:06:21Z</time></trkpt><trkpt lat="41.32952147037894" lon="19.877003694949625"><ele>231.0</ele><time>2026-04-29T10:06:22Z</time></trkpt><trkpt lat="41.329586879403784" lon="19.87693611054607"><ele>231.0</ele><time>2026-04-29T10:06:23Z</time></trkpt><trkpt lat="41.32963041025359" lon="19.87684240167579"><ele>231.0</ele><time>2026-04-29T10:06:24Z</time></trkpt><trkpt lat="41.32963211828344" lon="19.87672742331994"><ele>231.0</ele><time>2026-04-29T10:06:25Z</time></trkpt><trkpt lat="41.32966810112721" lon="19.876624784890907"><ele>229.20000000000002</ele><time>2026-04-29T10:06:26Z</time></trkpt><trkpt lat="41.32974041748178" lon="19.87653589608113"><ele>227.40000000000003</ele><time>2026-04-29T10:06:27Z</time></trkpt><trkpt lat="41.32980696748986" lon="19.87642104802193"><ele>225.6</ele><time>2026-04-29T10:06:28Z</time></trkpt><trkpt lat="41.32988248763084" lon="19.876308224362184"><ele>223.8</ele><time>2026-04-29T10:06:29Z</time></trkpt><trkpt lat="41.32994406484984" lon="19.876184861118897"><ele>222.0</ele><time>2026-04-29T10:06:30Z</time></trkpt><trkpt lat="41.33001964333165" lon="19.87607862562875"><ele>222.0</ele><time>2026-04-29T10:06:31Z</time></trkpt><trkpt lat="41.330094435459415" lon="19.87597460481088"><ele>222.0</ele><time>2026-04-29T10:06:32Z</time></trkpt><trkpt lat="41.330171554482256" lon="19.87587741134274"><ele>222.0</ele><time>2026-04-29T10:06:33Z</time></trkpt><trkpt lat="41.330248472277205" lon="19.875777380170994"><ele>222.0</ele><time>2026-04-29T10:06:34Z</time></trkpt><trkpt lat="41.330319787136375" lon="19.875672360687282"><ele>222.0</ele><time>2026-04-29T10:06:35Z</time></trkpt><trkpt lat="41.33039215034591" lon="19.87557342178461"><ele>221.39999999999998</ele><time>2026-04-29T10:06:36Z</time></trkpt><trkpt lat="41.33048039099896" lon="19.87547721005983"><ele>220.79999999999998</ele><time>2026-04-29T10:06:37Z</time></trkpt><trkpt lat="41.33055699450993" lon="19.875396783157598"><ele>220.2</ele><time>2026-04-29T10:06:38Z</time></trkpt><trkpt lat="41.33061668209696" lon="19.875311401525355"><ele>219.6</ele><time>2026-04-29T10:06:39.001Z</time></trkpt><trkpt lat="41.33064973394009" lon="19.875201433508952"><ele>219.0</ele><time>2026-04-29T10:06:40.001Z</time></trkpt><trkpt lat="41.3306410955251" lon="19.8751056736918"><ele>217.83333333333334</ele><time>2026-04-29T10:06:41.001Z</time></trkpt><trkpt lat="41.330629890063236" lon="19.874978553662118"><ele>216.66666666666669</ele><time>2026-04-29T10:06:43.001Z</time></trkpt><trkpt lat="41.330587119152504" lon="19.87489620829934"><ele>215.5</ele><time>2026-04-29T10:06:44.001Z</time></trkpt><trkpt lat="41.33055133105116" lon="19.874810904254108"><ele>214.33333333333334</ele><time>2026-04-29T10:06:45.001Z</time></trkpt><trkpt lat="41.33054472623062" lon="19.87472505458067"><ele>213.16666666666669</ele><time>2026-04-29T10:06:46.001Z</time></trkpt><trkpt lat="41.33056649326926" lon="19.87464298447785"><ele>212.0</ele><time>2026-04-29T10:06:47.001Z</time></trkpt><trkpt lat="41.33060147450409" lon="19.874543269960213"><ele>212.0</ele><time>2026-04-29T10:06:48.001Z</time></trkpt><trkpt lat="41.330628537227206" lon="19.874455250634302"><ele>212.0</ele><time>2026-04-29T10:06:49.001Z</time></trkpt><trkpt lat="41.33065550519371" lon="19.87435168850016"><ele>212.0</ele><time>2026-04-29T10:06:50.001Z</time></trkpt><trkpt lat="41.330684021998394" lon="19.87423424556963"><ele>212.0</ele><time>2026-04-29T10:06:51.001Z</time></trkpt><trkpt lat="41.33071539882005" lon="19.87408486968966"><ele>212.0</ele><time>2026-04-29T10:06:52.001Z</time></trkpt><trkpt lat="41.33076155620315" lon="19.873880720448934"><ele>210.39999999999998</ele><time>2026-04-29T10:06:53.001Z</time></trkpt><trkpt lat="41.33081003075417" lon="19.873689821624435"><ele>208.79999999999998</ele><time>2026-04-29T10:06:54.001Z</time></trkpt><trkpt lat="41.330862035667806" lon="19.873553536695947"><ele>207.2</ele><time>2026-04-29T10:06:55.001Z</time></trkpt><trkpt lat="41.33089428590335" lon="19.873436418691988"><ele>205.6</ele><time>2026-04-29T10:06:56.001Z</time></trkpt><trkpt lat="41.33091238416444" lon="19.87332695007252"><ele>204.0</ele><time>2026-04-29T10:06:57.001Z</time></trkpt><trkpt lat="41.330934315509396" lon="19.873237024652948"><ele>202.66666666666666</ele><time>2026-04-29T10:06:58.001Z</time></trkpt><trkpt lat="41.33095788004116" lon="19.873148754058032"><ele>201.33333333333331</ele><time>2026-04-29T10:06:59.001Z</time></trkpt><trkpt lat="41.330984043266234" lon="19.873067186091184"><ele>200.0</ele><time>2026-04-29T10:07:00.001Z</time></trkpt><trkpt lat="41.331007346620076" lon="19.872984632084084"><ele>198.66666666666666</ele><time>2026-04-29T10:07:01.001Z</time></trkpt><trkpt lat="41.331033443534714" lon="19.872894793207557"><ele>197.33333333333331</ele><time>2026-04-29T10:07:02.001Z</time></trkpt><trkpt lat="41.33105901852288" lon="19.872746368732372"><ele>196.0</ele><time>2026-04-29T10:07:04.001Z</time></trkpt><trkpt lat="41.33104832789681" lon="19.8726091173838"><ele>195.33333333333331</ele><time>2026-04-29T10:07:06.001Z</time></trkpt><trkpt lat="41.33104519031866" lon="19.87249912360065"><ele>194.66666666666666</ele><time>2026-04-29T10:07:08.001Z</time></trkpt><trkpt lat="41.33104613241138" lon="19.87241100006916"><ele>194.0</ele><time>2026-04-29T10:07:10.001Z</time></trkpt><trkpt lat="41.33106602169906" lon="19.872314578264177"><ele>193.33333333333331</ele><time>2026-04-29T10:07:13.001Z</time></trkpt><trkpt lat="41.33113813182408" lon="19.87224566711202"><ele>192.66666666666666</ele><time>2026-04-29T10:07:15.001Z</time></trkpt><trkpt lat="41.331214074047075" lon="19.872277798723267"><ele>192.0</ele><time>2026-04-29T10:07:16.001Z</time></trkpt><trkpt lat="41.331313771199646" lon="19.872277798724905"><ele>190.8</ele><time>2026-04-29T10:07:17.001Z</time></trkpt><trkpt lat="41.33140908815855" lon="19.872275363265352"><ele>189.6</ele><time>2026-04-29T10:07:18.001Z</time></trkpt><trkpt lat="41.33147282182831" lon="19.87229836405953"><ele>188.4</ele><time>2026-04-29T10:07:19.001Z</time></trkpt><trkpt lat="41.331580520852796" lon="19.87235996966802"><ele>187.20000000000002</ele><time>2026-04-29T10:07:21.001Z</time></trkpt><trkpt lat="41.331671899277644" lon="19.872358753523244"><ele>186.0</ele><time>2026-04-29T10:07:23.001Z</time></trkpt><trkpt lat="41.33173066533877" lon="19.872244528153185"><ele>186.0</ele><time>2026-04-29T10:07:25.001Z</time></trkpt><trkpt lat="41.3317193920193" lon="19.8721000220036"><ele>186.0</ele><time>2026-04-29T10:07:26.001Z</time></trkpt><trkpt lat="41.33174322724217" lon="19.87198252264274"><ele>186.0</ele><time>2026-04-29T10:07:27.001Z</time></trkpt><trkpt lat="41.33179533562867" lon="19.8716898670309"><ele>186.0</ele><time>2026-04-29T10:07:29.001Z</time></trkpt><trkpt lat="41.33181576117003" lon="19.871522755409973"><ele>185.5</ele><time>2026-04-29T10:07:30.001Z</time></trkpt><trkpt lat="41.33183799595389" lon="19.871356369075297"><ele>185.0</ele><time>2026-04-29T10:07:31.001Z</time></trkpt><trkpt lat="41.33186602572121" lon="19.871178826266092"><ele>184.5</ele><time>2026-04-29T10:07:32.001Z</time></trkpt><trkpt lat="41.331897660936484" lon="19.87100627177777"><ele>184.0</ele><time>2026-04-29T10:07:33.001Z</time></trkpt><trkpt lat="41.331927590836514" lon="19.870857862286776"><ele>183.79999999999998</ele><time>2026-04-29T10:07:34.001Z</time></trkpt><trkpt lat="41.33195061289269" lon="19.87072227379742"><ele>183.6</ele><time>2026-04-29T10:07:35.001Z</time></trkpt><trkpt lat="41.33197119886837" lon="19.87059645300777"><ele>183.4</ele><time>2026-04-29T10:07:36.001Z</time></trkpt><trkpt lat="41.3319939643527" lon="19.870467525419425"><ele>183.2</ele><time>2026-04-29T10:07:37.001Z</time></trkpt><trkpt lat="41.33201288118661" lon="19.870346367193775"><ele>183.0</ele><time>2026-04-29T10:07:38.001Z</time></trkpt><trkpt lat="41.332030235731416" lon="19.870238860647824"><ele>183.0</ele><time>2026-04-29T10:07:39.001Z</time></trkpt><trkpt lat="41.33204677947793" lon="19.870137728293095"><ele>183.0</ele><time>2026-04-29T10:07:40.001Z</time></trkpt><trkpt lat="41.33206147651206" lon="19.87003428375141"><ele>183.0</ele><time>2026-04-29T10:07:41.001Z</time></trkpt><trkpt lat="41.33207648360212" lon="19.869924536205044"><ele>183.0</ele><time>2026-04-29T10:07:42.001Z</time></trkpt><trkpt lat="41.33209508778053" lon="19.869800252313762"><ele>183.0</ele><time>2026-04-29T10:07:43.001Z</time></trkpt><trkpt lat="41.332117067562145" lon="19.86966527531472"><ele>183.0</ele><time>2026-04-29T10:07:44.001Z</time></trkpt><trkpt lat="41.332135594425225" lon="19.86954548123235"><ele>182.83333333333334</ele><time>2026-04-29T10:07:45.001Z</time></trkpt><trkpt lat="41.332152483800314" lon="19.869440856401788"><ele>182.66666666666666</ele><time>2026-04-29T10:07:46.001Z</time></trkpt><trkpt lat="41.33216868350843" lon="19.869336244839907"><ele>182.5</ele><time>2026-04-29T10:07:47.001Z</time></trkpt><trkpt lat="41.33218815371375" lon="19.869226342755315"><ele>182.33333333333331</ele><time>2026-04-29T10:07:48.001Z</time></trkpt><trkpt lat="41.332211349715784" lon="19.86910357189126"><ele>182.16666666666666</ele><time>2026-04-29T10:07:49.001Z</time></trkpt><trkpt lat="41.332235988855274" lon="19.86896342148911"><ele>182.0</ele><time>2026-04-29T10:07:50.001Z</time></trkpt><trkpt lat="41.33226114404089" lon="19.868811524555884"><ele>181.6</ele><time>2026-04-29T10:07:51.001Z</time></trkpt><trkpt lat="41.33228673545907" lon="19.86866683513901"><ele>181.2</ele><time>2026-04-29T10:07:52.001Z</time></trkpt><trkpt lat="41.332308553536315" lon="19.86853670977026"><ele>180.8</ele><time>2026-04-29T10:07:53.001Z</time></trkpt><trkpt lat="41.33232872364413" lon="19.868419127756496"><ele>180.4</ele><time>2026-04-29T10:07:54.001Z</time></trkpt><trkpt lat="41.3323538717889" lon="19.86830552056006"><ele>180.0</ele><time>2026-04-29T10:07:55.001Z</time></trkpt><trkpt lat="41.332376980292004" lon="19.868180949636177"><ele>180.0</ele><time>2026-04-29T10:07:56.001Z</time></trkpt><trkpt lat="41.33239846687333" lon="19.868044636164054"><ele>180.0</ele><time>2026-04-29T10:07:57.001Z</time></trkpt><trkpt lat="41.33242344794912" lon="19.867908168595697"><ele>180.0</ele><time>2026-04-29T10:07:58.001Z</time></trkpt><trkpt lat="41.33244670316975" lon="19.867782230190404"><ele>180.0</ele><time>2026-04-29T10:07:59.001Z</time></trkpt><trkpt lat="41.33246569672653" lon="19.867665748835005"><ele>180.0</ele><time>2026-04-29T10:08:00.001Z</time></trkpt><trkpt lat="41.33247166633819" lon="19.86755171919539"><ele>179.8</ele><time>2026-04-29T10:08:01.001Z</time></trkpt><trkpt lat="41.33245655453945" lon="19.867431312656723"><ele>179.6</ele><time>2026-04-29T10:08:02.001Z</time></trkpt><trkpt lat="41.3324183993159" lon="19.867309895629827"><ele>179.39999999999998</ele><time>2026-04-29T10:08:03.001Z</time></trkpt><trkpt lat="41.33236251298071" lon="19.86721227979092"><ele>179.2</ele><time>2026-04-29T10:08:04.001Z</time></trkpt><trkpt lat="41.33231234622656" lon="19.867122441354287"><ele>179.0</ele><time>2026-04-29T10:08:05.001Z</time></trkpt><trkpt lat="41.33227020617953" lon="19.86702663516584"><ele>179.0</ele><time>2026-04-29T10:08:06.001Z</time></trkpt><trkpt lat="41.33222862727157" lon="19.866924084242545"><ele>179.0</ele><time>2026-04-29T10:08:07.001Z</time></trkpt><trkpt lat="41.33219147936492" lon="19.86680853663782"><ele>179.0</ele><time>2026-04-29T10:08:08.001Z</time></trkpt><trkpt lat="41.332169634427075" lon="19.866700254722282"><ele>179.0</ele><time>2026-04-29T10:08:09.001Z</time></trkpt><trkpt lat="41.33216954307934" lon="19.866609466723126"><ele>179.0</ele><time>2026-04-29T10:08:10.001Z</time></trkpt><trkpt lat="41.33219431142813" lon="19.86645788193626"><ele>178.16666666666666</ele><time>2026-04-29T10:08:12.001Z</time></trkpt><trkpt lat="41.33224018520953" lon="19.86639327595305"><ele>177.33333333333331</ele><time>2026-04-29T10:08:13.001Z</time></trkpt><trkpt lat="41.3322911055802" lon="19.866312952277124"><ele>176.5</ele><time>2026-04-29T10:08:14.001Z</time></trkpt><trkpt lat="41.33234756764534" lon="19.86622347182095"><ele>175.66666666666666</ele><time>2026-04-29T10:08:15.001Z</time></trkpt><trkpt lat="41.33239887337443" lon="19.866138679022153"><ele>174.83333333333334</ele><time>2026-04-29T10:08:16.001Z</time></trkpt><trkpt lat="41.33245581314841" lon="19.866043133318705"><ele>174.0</ele><time>2026-04-29T10:08:17.001Z</time></trkpt><trkpt lat="41.33252224965015" lon="19.86593165076378"><ele>173.5</ele><time>2026-04-29T10:08:18.001Z</time></trkpt><trkpt lat="41.33260102316276" lon="19.865815089765064"><ele>173.0</ele><time>2026-04-29T10:08:19.001Z</time></trkpt><trkpt lat="41.33267827722664" lon="19.865679473668383"><ele>172.5</ele><time>2026-04-29T10:08:20.001Z</time></trkpt><trkpt lat="41.332764789289996" lon="19.865558828267147"><ele>172.0</ele><time>2026-04-29T10:08:21.001Z</time></trkpt><trkpt lat="41.332833612292184" lon="19.86544789770682"><ele>172.0</ele><time>2026-04-29T10:08:22Z</time></trkpt><trkpt lat="41.33289655685638" lon="19.865354628355714"><ele>172.0</ele><time>2026-04-29T10:08:23Z</time></trkpt><trkpt lat="41.33295538238054" lon="19.865277160371352"><ele>172.0</ele><time>2026-04-29T10:08:24Z</time></trkpt><trkpt lat="41.333014817971026" lon="19.865196340441976"><ele>172.0</ele><time>2026-04-29T10:08:25Z</time></trkpt><trkpt lat="41.333075848369006" lon="19.865095211196707"><ele>172.0</ele><time>2026-04-29T10:08:26Z</time></trkpt><trkpt lat="41.3331443117595" lon="19.86498589314528"><ele>172.5</ele><time>2026-04-29T10:08:27Z</time></trkpt><trkpt lat="41.3332197435983" lon="19.864873179088498"><ele>173.0</ele><time>2026-04-29T10:08:28Z</time></trkpt><trkpt lat="41.33329887137789" lon="19.864755624029772"><ele>173.5</ele><time>2026-04-29T10:08:29Z</time></trkpt><trkpt lat="41.333377883722" lon="19.86463956105002"><ele>174.0</ele><time>2026-04-29T10:08:30Z</time></trkpt><trkpt lat="41.333445901851434" lon="19.864538038962106"><ele>174.0</ele><time>2026-04-29T10:08:31Z</time></trkpt><trkpt lat="41.333505041411016" lon="19.86444883667281"><ele>174.0</ele><time>2026-04-29T10:08:32Z</time></trkpt><trkpt lat="41.333560145351754" lon="19.864371402806988"><ele>174.0</ele><time>2026-04-29T10:08:33Z</time></trkpt><trkpt lat="41.33362011940638" lon="19.86430713882145"><ele>174.0</ele><time>2026-04-29T10:08:34Z</time></trkpt><trkpt lat="41.333664709531405" lon="19.86423503555251"><ele>174.0</ele><time>2026-04-29T10:08:35Z</time></trkpt><trkpt lat="41.333719317448086" lon="19.864138216526307"><ele>174.0</ele><time>2026-04-29T10:08:36Z</time></trkpt><trkpt lat="41.33378583161146" lon="19.864016835408428"><ele>173.5</ele><time>2026-04-29T10:08:37Z</time></trkpt><trkpt lat="41.333850550182596" lon="19.863858396900135"><ele>173.0</ele><time>2026-04-29T10:08:38Z</time></trkpt><trkpt lat="41.33393446764414" lon="19.86368742155855"><ele>172.5</ele><time>2026-04-29T10:08:39Z</time></trkpt><trkpt lat="41.33402542249092" lon="19.86351232511216"><ele>172.0</ele><time>2026-04-29T10:08:40Z</time></trkpt><trkpt lat="41.33406838084622" lon="19.863333896838487"><ele>172.0</ele><time>2026-04-29T10:08:41Z</time></trkpt><trkpt lat="41.33411609877765" lon="19.863184400359792"><ele>172.0</ele><time>2026-04-29T10:08:42Z</time></trkpt><trkpt lat="41.33415465115565" lon="19.86304275232597"><ele>172.0</ele><time>2026-04-29T10:08:43Z</time></trkpt><trkpt lat="41.33418826419819" lon="19.86290783631255"><ele>172.0</ele><time>2026-04-29T10:08:44Z</time></trkpt><trkpt lat="41.334222679723574" lon="19.86276112740295"><ele>171.25</ele><time>2026-04-29T10:08:45Z</time></trkpt><trkpt lat="41.334258220464136" lon="19.862597010665173"><ele>170.5</ele><time>2026-04-29T10:08:46Z</time></trkpt><trkpt lat="41.334294930464274" lon="19.862419857634723"><ele>169.75</ele><time>2026-04-29T10:08:47Z</time></trkpt><trkpt lat="41.33432785945828" lon="19.862231207713588"><ele>169.0</ele><time>2026-04-29T10:08:48Z</time></trkpt><trkpt lat="41.33435923234175" lon="19.862049821603353"><ele>169.0</ele><time>2026-04-29T10:08:49Z</time></trkpt><trkpt lat="41.33438317183517" lon="19.861893445419796"><ele>169.0</ele><time>2026-04-29T10:08:50Z</time></trkpt><trkpt lat="41.33440449746153" lon="19.86175085613689"><ele>169.0</ele><time>2026-04-29T10:08:51Z</time></trkpt><trkpt lat="41.33442984873016" lon="19.861604659062422"><ele>169.0</ele><time>2026-04-29T10:08:52Z</time></trkpt><trkpt lat="41.33445617119499" lon="19.861446535963545"><ele>168.25</ele><time>2026-04-29T10:08:53Z</time></trkpt><trkpt lat="41.33448238025375" lon="19.861290562565713"><ele>167.5</ele><time>2026-04-29T10:08:54Z</time></trkpt><trkpt lat="41.33450722876064" lon="19.86114670361808"><ele>166.75</ele><time>2026-04-29T10:08:55Z</time></trkpt><trkpt lat="41.334530703653535" lon="19.86099713689317"><ele>166.0</ele><time>2026-04-29T10:08:56Z</time></trkpt><trkpt lat="41.334549696936854" lon="19.860849761901918"><ele>165.83333333333334</ele><time>2026-04-29T10:08:57Z</time></trkpt><trkpt lat="41.334561061905454" lon="19.860717585197357"><ele>165.66666666666669</ele><time>2026-04-29T10:08:58Z</time></trkpt><trkpt lat="41.33456519305803" lon="19.86060101458232"><ele>165.5</ele><time>2026-04-29T10:08:59Z</time></trkpt><trkpt lat="41.33456250212809" lon="19.86049399187583"><ele>165.33333333333334</ele><time>2026-04-29T10:09:00Z</time></trkpt><trkpt lat="41.334553397492925" lon="19.86039693706207"><ele>165.16666666666666</ele><time>2026-04-29T10:09:01Z</time></trkpt><trkpt lat="41.33454631199176" lon="19.860309219344877"><ele>165.0</ele><time>2026-04-29T10:09:02Z</time></trkpt><trkpt lat="41.334537156486995" lon="19.860192210805376"><ele>164.5</ele><time>2026-04-29T10:09:04.001Z</time></trkpt><trkpt lat="41.334526546313825" lon="19.860106586454286"><ele>164.0</ele><time>2026-04-29T10:09:07.001Z</time></trkpt><trkpt lat="41.33450418799501" lon="19.86000749660881"><ele>163.5</ele><time>2026-04-29T10:09:10.001Z</time></trkpt><trkpt lat="41.33449618746017" lon="19.859895016266123"><ele>163.0</ele><time>2026-04-29T10:09:12.001Z</time></trkpt><trkpt lat="41.33449353509282" lon="19.859810061679777"><ele>162.5</ele><time>2026-04-29T10:09:13.001Z</time></trkpt><trkpt lat="41.33448008226318" lon="19.859684439596233"><ele>162.0</ele><time>2026-04-29T10:09:15.001Z</time></trkpt><trkpt lat="41.334474545487254" lon="19.85959990300277"><ele>162.0</ele><time>2026-04-29T10:09:17.001Z</time></trkpt><trkpt lat="41.33446054002645" lon="19.859486232371978"><ele>162.0</ele><time>2026-04-29T10:09:20.001Z</time></trkpt><trkpt lat="41.334455093584154" lon="19.85936945595763"><ele>162.0</ele><time>2026-04-29T10:09:23.001Z</time></trkpt><trkpt lat="41.33443512810679" lon="19.859279432937257"><ele>162.0</ele><time>2026-04-29T10:09:25.001Z</time></trkpt><trkpt lat="41.33443606631016" lon="19.85913838112864"><ele>162.0</ele><time>2026-04-29T10:09:27.001Z</time></trkpt><trkpt lat="41.3344340869581" lon="19.859050522021317"><ele>162.0</ele><time>2026-04-29T10:09:28.001Z</time></trkpt><trkpt lat="41.334432482019004" lon="19.85896121327889"><ele>161.83333333333334</ele><time>2026-04-29T10:09:29.001Z</time></trkpt><trkpt lat="41.33444374478844" lon="19.85879151774007"><ele>161.66666666666666</ele><time>2026-04-29T10:09:31.001Z</time></trkpt><trkpt lat="41.33445427481332" lon="19.858705110129417"><ele>161.5</ele><time>2026-04-29T10:09:32.001Z</time></trkpt><trkpt lat="41.33446579703829" lon="19.858616861053502"><ele>161.33333333333331</ele><time>2026-04-29T10:09:33.001Z</time></trkpt><trkpt lat="41.33448205562302" lon="19.85852136051668"><ele>161.16666666666666</ele><time>2026-04-29T10:09:34.001Z</time></trkpt><trkpt lat="41.33449567358973" lon="19.85842800546206"><ele>161.0</ele><time>2026-04-29T10:09:35.001Z</time></trkpt><trkpt lat="41.33451016362258" lon="19.858338066111337"><ele>160.33333333333331</ele><time>2026-04-29T10:09:36.001Z</time></trkpt><trkpt lat="41.33452335617039" lon="19.858244504853083"><ele>159.66666666666666</ele><time>2026-04-29T10:09:37.001Z</time></trkpt><trkpt lat="41.334544448057756" lon="19.858135196868403"><ele>159.0</ele><time>2026-04-29T10:09:38.001Z</time></trkpt><trkpt lat="41.334566298900874" lon="19.85802905462099"><ele>158.33333333333334</ele><time>2026-04-29T10:09:39.001Z</time></trkpt><trkpt lat="41.33458860711923" lon="19.857920607824635"><ele>157.66666666666669</ele><time>2026-04-29T10:09:40.001Z</time></trkpt><trkpt lat="41.334613502160636" lon="19.85780567291351"><ele>157.0</ele><time>2026-04-29T10:09:41.001Z</time></trkpt><trkpt lat="41.33463664806098" lon="19.85768826086814"><ele>156.5</ele><time>2026-04-29T10:09:42.001Z</time></trkpt><trkpt lat="41.33465616183553" lon="19.85757640216836"><ele>156.0</ele><time>2026-04-29T10:09:43.001Z</time></trkpt><trkpt lat="41.33467482964451" lon="19.85747315614706"><ele>155.5</ele><time>2026-04-29T10:09:44.001Z</time></trkpt><trkpt lat="41.334689756919246" lon="19.857377371293563"><ele>155.0</ele><time>2026-04-29T10:09:45.001Z</time></trkpt><trkpt lat="41.33470238407498" lon="19.857291617508892"><ele>154.5</ele><time>2026-04-29T10:09:46.001Z</time></trkpt><trkpt lat="41.33472885790228" lon="19.857167225976276"><ele>154.0</ele><time>2026-04-29T10:09:48.001Z</time></trkpt><trkpt lat="41.33474391199406" lon="19.85707531968454"><ele>153.8</ele><time>2026-04-29T10:09:50.001Z</time></trkpt><trkpt lat="41.3347639915901" lon="19.856928970623713"><ele>153.60000000000002</ele><time>2026-04-29T10:09:52.001Z</time></trkpt><trkpt lat="41.334789143055346" lon="19.856787873848344"><ele>153.4</ele><time>2026-04-29T10:09:54.001Z</time></trkpt><trkpt lat="41.33480980247331" lon="19.856682047523538"><ele>153.20000000000002</ele><time>2026-04-29T10:09:57.001Z</time></trkpt><trkpt lat="41.33483024853019" lon="19.856551283094046"><ele>153.0</ele><time>2026-04-29T10:09:59.001Z</time></trkpt><trkpt lat="41.3348403103135" lon="19.856453307478535"><ele>152.5</ele><time>2026-04-29T10:10:00.001Z</time></trkpt><trkpt lat="41.33485418656916" lon="19.856365437947183"><ele>152.0</ele><time>2026-04-29T10:10:01.001Z</time></trkpt><trkpt lat="41.334867608462" lon="19.85626905611918"><ele>151.5</ele><time>2026-04-29T10:10:02.001Z</time></trkpt><trkpt lat="41.33488105184965" lon="19.856162329412438"><ele>151.0</ele><time>2026-04-29T10:10:03.001Z</time></trkpt><trkpt lat="41.33488985119137" lon="19.856049066374688"><ele>150.5</ele><time>2026-04-29T10:10:04.001Z</time></trkpt><trkpt lat="41.334903822458905" lon="19.85593993482526"><ele>150.0</ele><time>2026-04-29T10:10:05.001Z</time></trkpt><trkpt lat="41.3349071337832" lon="19.855811036820906"><ele>150.0</ele><time>2026-04-29T10:10:06.001Z</time></trkpt><trkpt lat="41.3348987520093" lon="19.855684919745993"><ele>150.0</ele><time>2026-04-29T10:10:07.001Z</time></trkpt><trkpt lat="41.33487808564182" lon="19.855544104467945"><ele>150.0</ele><time>2026-04-29T10:10:08.001Z</time></trkpt><trkpt lat="41.33485056868497" lon="19.855403742807063"><ele>150.0</ele><time>2026-04-29T10:10:09.001Z</time></trkpt><trkpt lat="41.334817015713085" lon="19.85525526061698"><ele>150.0</ele><time>2026-04-29T10:10:10.001Z</time></trkpt><trkpt lat="41.33478194830539" lon="19.85511547385021"><ele>149.8</ele><time>2026-04-29T10:10:11.001Z</time></trkpt><trkpt lat="41.334746349695806" lon="19.854987560224732"><ele>149.6</ele><time>2026-04-29T10:10:12.001Z</time></trkpt><trkpt lat="41.33471409002294" lon="19.854859592539572"><ele>149.4</ele><time>2026-04-29T10:10:13.001Z</time></trkpt><trkpt lat="41.334686749444586" lon="19.854723507707646"><ele>149.2</ele><time>2026-04-29T10:10:14.001Z</time></trkpt><trkpt lat="41.334670489844534" lon="19.854575822865588"><ele>149.0</ele><time>2026-04-29T10:10:15.001Z</time></trkpt><trkpt lat="41.33467437632182" lon="19.854424550599507"><ele>149.0</ele><time>2026-04-29T10:10:16.001Z</time></trkpt><trkpt lat="41.33467628556762" lon="19.85428822041758"><ele>149.0</ele><time>2026-04-29T10:10:17.001Z</time></trkpt><trkpt lat="41.334687633780085" lon="19.854134274186926"><ele>149.0</ele><time>2026-04-29T10:10:18.001Z</time></trkpt><trkpt lat="41.334711302541336" lon="19.854004992716142"><ele>149.0</ele><time>2026-04-29T10:10:19.001Z</time></trkpt><trkpt lat="41.33470512222238" lon="19.853889309112027"><ele>149.0</ele><time>2026-04-29T10:10:20.001Z</time></trkpt><trkpt lat="41.33468909144469" lon="19.85377570865656"><ele>148.8</ele><time>2026-04-29T10:10:21.001Z</time></trkpt><trkpt lat="41.33465285815669" lon="19.853669613268426"><ele>148.60000000000002</ele><time>2026-04-29T10:10:22.001Z</time></trkpt><trkpt lat="41.33462059635706" lon="19.853560639788785"><ele>148.4</ele><time>2026-04-29T10:10:23.001Z</time></trkpt><trkpt lat="41.33457879897088" lon="19.853434898281353"><ele>148.20000000000002</ele><time>2026-04-29T10:10:24.001Z</time></trkpt><trkpt lat="41.33453877743535" lon="19.853294339907432"><ele>148.0</ele><time>2026-04-29T10:10:25.001Z</time></trkpt><trkpt lat="41.33449584213869" lon="19.853167346687663"><ele>148.0</ele><time>2026-04-29T10:10:26.001Z</time></trkpt><trkpt lat="41.3344538479143" lon="19.853037942712486"><ele>148.0</ele><time>2026-04-29T10:10:27.001Z</time></trkpt><trkpt lat="41.334417844161216" lon="19.85289621146023"><ele>148.0</ele><time>2026-04-29T10:10:28Z</time></trkpt><trkpt lat="41.33437840623727" lon="19.852756238963888"><ele>148.0</ele><time>2026-04-29T10:10:29Z</time></trkpt><trkpt lat="41.334334124436815" lon="19.852618479181977"><ele>148.0</ele><time>2026-04-29T10:10:30Z</time></trkpt><trkpt lat="41.33429291924376" lon="19.85249288291398"><ele>147.6</ele><time>2026-04-29T10:10:31Z</time></trkpt><trkpt lat="41.33425169165315" lon="19.852370233917643"><ele>147.20000000000002</ele><time>2026-04-29T10:10:32Z</time></trkpt><trkpt lat="41.33421104444153" lon="19.85223916003517"><ele>146.8</ele><time>2026-04-29T10:10:33Z</time></trkpt><trkpt lat="41.33416161314393" lon="19.85210691664967"><ele>146.4</ele><time>2026-04-29T10:10:34Z</time></trkpt><trkpt lat="41.33412017551183" lon="19.851976535437554"><ele>146.0</ele><time>2026-04-29T10:10:35Z</time></trkpt><trkpt lat="41.33409125298513" lon="19.851856464702916"><ele>145.8</ele><time>2026-04-29T10:10:36Z</time></trkpt><trkpt lat="41.33405374609486" lon="19.85172868175629"><ele>145.6</ele><time>2026-04-29T10:10:37Z</time></trkpt><trkpt lat="41.334019764783434" lon="19.851600480924034"><ele>145.4</ele><time>2026-04-29T10:10:38Z</time></trkpt><trkpt lat="41.333994649780486" lon="19.851457410300007"><ele>145.2</ele><time>2026-04-29T10:10:39Z</time></trkpt><trkpt lat="41.33400979908002" lon="19.851304724801434"><ele>145.0</ele><time>2026-04-29T10:10:40Z</time></trkpt><trkpt lat="41.334030001476144" lon="19.851164361846585"><ele>145.0</ele><time>2026-04-29T10:10:41Z</time></trkpt><trkpt lat="41.334030360043585" lon="19.85103656398339"><ele>145.0</ele><time>2026-04-29T10:10:42Z</time></trkpt><trkpt lat="41.334041352070905" lon="19.85093297484818"><ele>145.0</ele><time>2026-04-29T10:10:43Z</time></trkpt><trkpt lat="41.33405062017019" lon="19.85082374624765"><ele>145.0</ele><time>2026-04-29T10:10:44Z</time></trkpt><trkpt lat="41.33406722171082" lon="19.850709588913016"><ele>145.0</ele><time>2026-04-29T10:10:45Z</time></trkpt><trkpt lat="41.3340817236826" lon="19.850601930632596"><ele>145.0</ele><time>2026-04-29T10:10:46Z</time></trkpt><trkpt lat="41.33408943796294" lon="19.850505270564884"><ele>144.8</ele><time>2026-04-29T10:10:47Z</time></trkpt><trkpt lat="41.334073316645174" lon="19.850354457164926"><ele>144.6</ele><time>2026-04-29T10:10:49Z</time></trkpt><trkpt lat="41.33408457282432" lon="19.850261124040237"><ele>144.4</ele><time>2026-04-29T10:10:51Z</time></trkpt><trkpt lat="41.3340984741416" lon="19.85017888735473"><ele>144.2</ele><time>2026-04-29T10:10:53Z</time></trkpt><trkpt lat="41.33413421208386" lon="19.85007061055647"><ele>144.0</ele><time>2026-04-29T10:10:55Z</time></trkpt><trkpt lat="41.33417602404497" lon="19.849931340679134"><ele>143.33333333333334</ele><time>2026-04-29T10:10:57Z</time></trkpt><trkpt lat="41.334194685073356" lon="19.849843048625697"><ele>142.66666666666666</ele><time>2026-04-29T10:10:58Z</time></trkpt><trkpt lat="41.33421980743855" lon="19.849744592848047"><ele>142.0</ele><time>2026-04-29T10:10:59Z</time></trkpt><trkpt lat="41.334247751220964" lon="19.84963266470655"><ele>141.33333333333331</ele><time>2026-04-29T10:11:00Z</time></trkpt><trkpt lat="41.3342880096723" lon="19.84951646090958"><ele>140.66666666666666</ele><time>2026-04-29T10:11:01Z</time></trkpt><trkpt lat="41.334325213153875" lon="19.849387558336254"><ele>140.0</ele><time>2026-04-29T10:11:02Z</time></trkpt><trkpt lat="41.334355668019626" lon="19.849250620340676"><ele>139.75</ele><time>2026-04-29T10:11:03Z</time></trkpt><trkpt lat="41.33437823425235" lon="19.84909863303328"><ele>139.5</ele><time>2026-04-29T10:11:04Z</time></trkpt><trkpt lat="41.334389934299296" lon="19.848938452470062"><ele>139.25</ele><time>2026-04-29T10:11:05Z</time></trkpt><trkpt lat="41.33438599003259" lon="19.84877088228942"><ele>139.0</ele><time>2026-04-29T10:11:06Z</time></trkpt><trkpt lat="41.3343725239902" lon="19.848602819898293"><ele>138.75</ele><time>2026-04-29T10:11:07Z</time></trkpt><trkpt lat="41.334358131987585" lon="19.848425113105872"><ele>138.5</ele><time>2026-04-29T10:11:08Z</time></trkpt><trkpt lat="41.334344927361414" lon="19.848245528600664"><ele>138.25</ele><time>2026-04-29T10:11:09Z</time></trkpt><trkpt lat="41.334327363507384" lon="19.848081959339325"><ele>138.0</ele><time>2026-04-29T10:11:10Z</time></trkpt><trkpt lat="41.334317237961585" lon="19.847932315579076"><ele>138.0</ele><time>2026-04-29T10:11:11Z</time></trkpt><trkpt lat="41.33430488883619" lon="19.84778741432787"><ele>138.0</ele><time>2026-04-29T10:11:12Z</time></trkpt><trkpt lat="41.334292165238224" lon="19.84763834405299"><ele>138.0</ele><time>2026-04-29T10:11:13Z</time></trkpt><trkpt lat="41.334282915346485" lon="19.84748579747274"><ele>138.0</ele><time>2026-04-29T10:11:14Z</time></trkpt><trkpt lat="41.33426695287635" lon="19.847322481172718"><ele>138.33333333333334</ele><time>2026-04-29T10:11:15Z</time></trkpt><trkpt lat="41.334234045031906" lon="19.84698323165732"><ele>138.66666666666669</ele><time>2026-04-29T10:11:17Z</time></trkpt><trkpt lat="41.33421661829515" lon="19.84680513069057"><ele>139.0</ele><time>2026-04-29T10:11:18Z</time></trkpt><trkpt lat="41.33419766694215" lon="19.84662589638059"><ele>139.33333333333334</ele><time>2026-04-29T10:11:19Z</time></trkpt><trkpt lat="41.334176576971856" lon="19.846457958769705"><ele>139.66666666666666</ele><time>2026-04-29T10:11:20Z</time></trkpt><trkpt lat="41.33415569205345" lon="19.846292418634413"><ele>140.0</ele><time>2026-04-29T10:11:21Z</time></trkpt><trkpt lat="41.33411670192137" lon="19.845957795766964"><ele>139.5</ele><time>2026-04-29T10:11:23Z</time></trkpt><trkpt lat="41.33408323141838" lon="19.845787468290144"><ele>139.0</ele><time>2026-04-29T10:11:24Z</time></trkpt><trkpt lat="41.33403804331876" lon="19.845616662816873"><ele>138.5</ele><time>2026-04-29T10:11:25Z</time></trkpt><trkpt lat="41.33398980693435" lon="19.845447867887092"><ele>138.0</ele><time>2026-04-29T10:11:26Z</time></trkpt><trkpt lat="41.333930600635455" lon="19.845288782522672"><ele>137.5</ele><time>2026-04-29T10:11:27Z</time></trkpt><trkpt lat="41.33386303705102" lon="19.845152170109742"><ele>137.0</ele><time>2026-04-29T10:11:28Z</time></trkpt><trkpt lat="41.33379733185425" lon="19.845014734751306"><ele>136.5</ele><time>2026-04-29T10:11:29Z</time></trkpt><trkpt lat="41.33372277912697" lon="19.844874491966724"><ele>136.0</ele><time>2026-04-29T10:11:30Z</time></trkpt><trkpt lat="41.333650840162164" lon="19.84474600336745"><ele>136.0</ele><time>2026-04-29T10:11:31Z</time></trkpt><trkpt lat="41.33358609875443" lon="19.844628502041076"><ele>136.0</ele><time>2026-04-29T10:11:32Z</time></trkpt><trkpt lat="41.33352210621426" lon="19.84452361196517"><ele>136.0</ele><time>2026-04-29T10:11:33Z</time></trkpt><trkpt lat="41.33346785216695" lon="19.84441680302181"><ele>136.0</ele><time>2026-04-29T10:11:34Z</time></trkpt><trkpt lat="41.3334124142628" lon="19.844315368382762"><ele>136.0</ele><time>2026-04-29T10:11:35Z</time></trkpt><trkpt lat="41.33335780825466" lon="19.844213573151585"><ele>135.66666666666669</ele><time>2026-04-29T10:11:36Z</time></trkpt><trkpt lat="41.33330007657021" lon="19.844118747582204"><ele>135.33333333333334</ele><time>2026-04-29T10:11:37Z</time></trkpt><trkpt lat="41.33325294472022" lon="19.844024800278984"><ele>135.0</ele><time>2026-04-29T10:11:38.001Z</time></trkpt><trkpt lat="41.33321058336273" lon="19.843949576279215"><ele>134.66666666666666</ele><time>2026-04-29T10:11:39.001Z</time></trkpt><trkpt lat="41.333149786300545" lon="19.843829339264374"><ele>134.33333333333331</ele><time>2026-04-29T10:11:41.001Z</time></trkpt><trkpt lat="41.33310681304632" lon="19.843748736459982"><ele>134.0</ele><time>2026-04-29T10:11:43.001Z</time></trkpt><trkpt lat="41.33302515660621" lon="19.843799729655675"><ele>134.0</ele><time>2026-04-29T10:11:44.001Z</time></trkpt><trkpt lat="41.333000469033045" lon="19.843901961101103"><ele>134.0</ele><time>2026-04-29T10:11:48.001Z</time></trkpt><trkpt lat="41.33295695860693" lon="19.843963528078703"><ele>134.0</ele><time>2026-04-29T10:11:50.001Z</time></trkpt><trkpt lat="41.332912062756385" lon="19.84403580014413"><ele>134.0</ele><time>2026-04-29T10:11:53.001Z</time></trkpt><trkpt lat="41.3328519699061" lon="19.844100335454545"><ele>134.0</ele><time>2026-04-29T10:12:18.001Z</time></trkpt><trkpt lat="41.33286749030934" lon="19.844292524179107"><ele>134.0</ele><time>2026-04-29T10:12:20.001Z</time></trkpt><trkpt lat="41.332918207942775" lon="19.844394869135513"><ele>134.5</ele><time>2026-04-29T10:12:21.001Z</time></trkpt><trkpt lat="41.332985339792884" lon="19.84453074224659"><ele>135.0</ele><time>2026-04-29T10:12:22.001Z</time></trkpt><trkpt lat="41.33307582405875" lon="19.84468814214563"><ele>135.5</ele><time>2026-04-29T10:12:23.001Z</time></trkpt><trkpt lat="41.33316762086607" lon="19.844852043816548"><ele>136.0</ele><time>2026-04-29T10:12:24.001Z</time></trkpt><trkpt lat="41.333262478900686" lon="19.84502845287708"><ele>136.0</ele><time>2026-04-29T10:12:25.001Z</time></trkpt><trkpt lat="41.33336324143955" lon="19.845217091831106"><ele>136.0</ele><time>2026-04-29T10:12:26.001Z</time></trkpt><trkpt lat="41.33345591114138" lon="19.84540575588368"><ele>136.0</ele><time>2026-04-29T10:12:27.001Z</time></trkpt><trkpt lat="41.3335444312573" lon="19.84560169022874"><ele>136.0</ele><time>2026-04-29T10:12:28.001Z</time></trkpt><trkpt lat="41.33361439017781" lon="19.845798586421644"><ele>136.0</ele><time>2026-04-29T10:12:29.001Z</time></trkpt><trkpt lat="41.33366772357895" lon="19.846010563971603"><ele>136.0</ele><time>2026-04-29T10:12:30.001Z</time></trkpt><trkpt lat="41.333702799193894" lon="19.846223957606952"><ele>136.66666666666669</ele><time>2026-04-29T10:12:31.001Z</time></trkpt><trkpt lat="41.33373280647892" lon="19.846436524419953"><ele>137.33333333333334</ele><time>2026-04-29T10:12:32.001Z</time></trkpt><trkpt lat="41.33375685586268" lon="19.84665322992807"><ele>138.0</ele><time>2026-04-29T10:12:33.001Z</time></trkpt><trkpt lat="41.33377660722237" lon="19.84687375396786"><ele>138.0</ele><time>2026-04-29T10:12:33.999Z</time></trkpt><trkpt lat="41.33379919486112" lon="19.847096515465136"><ele>138.0</ele><time>2026-04-29T10:12:34.999Z</time></trkpt><trkpt lat="41.33381729716569" lon="19.847319879093487"><ele>138.0</ele><time>2026-04-29T10:12:35.999Z</time></trkpt><trkpt lat="41.33383834017521" lon="19.84754228379751"><ele>138.0</ele><time>2026-04-29T10:12:36.999Z</time></trkpt><trkpt lat="41.333859611844545" lon="19.84774803230254"><ele>138.0</ele><time>2026-04-29T10:12:37.999Z</time></trkpt><trkpt lat="41.33387806209377" lon="19.847928948063156"><ele>138.0</ele><time>2026-04-29T10:12:39Z</time></trkpt><trkpt lat="41.33389506675025" lon="19.84809186668403"><ele>138.0</ele><time>2026-04-29T10:12:40Z</time></trkpt><trkpt lat="41.33390884258261" lon="19.848240432040278"><ele>138.0</ele><time>2026-04-29T10:12:41Z</time></trkpt><trkpt lat="41.33391941264217" lon="19.848377958112742"><ele>138.0</ele><time>2026-04-29T10:12:42Z</time></trkpt><trkpt lat="41.333930718761174" lon="19.84850885573529"><ele>138.0</ele><time>2026-04-29T10:12:43Z</time></trkpt><trkpt lat="41.333941559797125" lon="19.848642655870982"><ele>138.0</ele><time>2026-04-29T10:12:44Z</time></trkpt><trkpt lat="41.33394697858604" lon="19.848777478495865"><ele>138.0</ele><time>2026-04-29T10:12:45Z</time></trkpt><trkpt lat="41.33395005706674" lon="19.848891501762683"><ele>138.16666666666666</ele><time>2026-04-29T10:12:46Z</time></trkpt><trkpt lat="41.33394866006353" lon="19.84897611573411"><ele>138.33333333333334</ele><time>2026-04-29T10:12:47Z</time></trkpt><trkpt lat="41.33393975866012" lon="19.849091169871826"><ele>138.5</ele><time>2026-04-29T10:12:49Z</time></trkpt><trkpt lat="41.3339231796041" lon="19.849177628317847"><ele>138.66666666666669</ele><time>2026-04-29T10:12:51Z</time></trkpt><trkpt lat="41.33387739181811" lon="19.849295463301708"><ele>138.83333333333334</ele><time>2026-04-29T10:12:54Z</time></trkpt><trkpt lat="41.33379127288546" lon="19.849408239313526"><ele>139.0</ele><time>2026-04-29T10:12:56Z</time></trkpt><trkpt lat="41.333724111190534" lon="19.849454476739588"><ele>139.57142857142856</ele><time>2026-04-29T10:12:57Z</time></trkpt><trkpt lat="41.33366074481043" lon="19.849517458197063"><ele>140.14285714285714</ele><time>2026-04-29T10:12:58Z</time></trkpt><trkpt lat="41.33360536739336" lon="19.849607701574552"><ele>140.71428571428572</ele><time>2026-04-29T10:12:59Z</time></trkpt><trkpt lat="41.33357403028675" lon="19.849702063529897"><ele>141.28571428571428</ele><time>2026-04-29T10:13:00Z</time></trkpt><trkpt lat="41.33357310968604" lon="19.849791121016004"><ele>141.85714285714286</ele><time>2026-04-29T10:13:01Z</time></trkpt><trkpt lat="41.33358491998353" lon="19.84987884754321"><ele>142.42857142857142</ele><time>2026-04-29T10:13:02Z</time></trkpt><trkpt lat="41.333609530468635" lon="19.849961013218383"><ele>143.0</ele><time>2026-04-29T10:13:03Z</time></trkpt><trkpt lat="41.33364924727947" lon="19.850046119887725"><ele>143.0</ele><time>2026-04-29T10:13:04Z</time></trkpt><trkpt lat="41.33370349054762" lon="19.850116822672017"><ele>143.0</ele><time>2026-04-29T10:13:05Z</time></trkpt><trkpt lat="41.33376590926567" lon="19.850160443123162"><ele>143.0</ele><time>2026-04-29T10:13:06Z</time></trkpt><trkpt lat="41.33382792996743" lon="19.85019031798247"><ele>143.0</ele><time>2026-04-29T10:13:07Z</time></trkpt><trkpt lat="41.33389223002127" lon="19.85019372958707"><ele>143.0</ele><time>2026-04-29T10:13:08Z</time></trkpt><trkpt lat="41.334041472373734" lon="19.850125947432485"><ele>143.0</ele><time>2026-04-29T10:13:11Z</time></trkpt><trkpt lat="41.33411587302068" lon="19.85003069186652"><ele>142.4</ele><time>2026-04-29T10:13:13Z</time></trkpt><trkpt lat="41.334179403821835" lon="19.84988985606306"><ele>141.8</ele><time>2026-04-29T10:13:15Z</time></trkpt><trkpt lat="41.334209579910464" lon="19.849798747821023"><ele>141.2</ele><time>2026-04-29T10:13:16Z</time></trkpt><trkpt lat="41.3342441666042" lon="19.849689339719337"><ele>140.6</ele><time>2026-04-29T10:13:17Z</time></trkpt><trkpt lat="41.33428387325089" lon="19.84957927021677"><ele>140.0</ele><time>2026-04-29T10:13:18Z</time></trkpt><trkpt lat="41.334323213022884" lon="19.84946783099668"><ele>140.0</ele><time>2026-04-29T10:13:19Z</time></trkpt><trkpt lat="41.33436186043167" lon="19.84934404893754"><ele>140.0</ele><time>2026-04-29T10:13:20Z</time></trkpt><trkpt lat="41.33439014440521" lon="19.849228787265293"><ele>140.0</ele><time>2026-04-29T10:13:21Z</time></trkpt><trkpt lat="41.33442122735312" lon="19.849122862194072"><ele>140.0</ele><time>2026-04-29T10:13:22Z</time></trkpt><trkpt lat="41.334461198440096" lon="19.849032963987103"><ele>140.0</ele><time>2026-04-29T10:13:23Z</time></trkpt><trkpt lat="41.33450999231956" lon="19.848952868441927"><ele>140.0</ele><time>2026-04-29T10:13:24Z</time></trkpt><trkpt lat="41.33462521971537" lon="19.848812447989093"><ele>139.8</ele><time>2026-04-29T10:13:26Z</time></trkpt><trkpt lat="41.33470338740282" lon="19.848769586224858"><ele>139.6</ele><time>2026-04-29T10:13:27Z</time></trkpt><trkpt lat="41.33476512648646" lon="19.84869206994175"><ele>139.4</ele><time>2026-04-29T10:13:28Z</time></trkpt><trkpt lat="41.3348503349224" lon="19.84862980150585"><ele>139.2</ele><time>2026-04-29T10:13:29Z</time></trkpt><trkpt lat="41.33493756501616" lon="19.848561081514024"><ele>139.0</ele><time>2026-04-29T10:13:30Z</time></trkpt><trkpt lat="41.33501753523293" lon="19.848483639278296"><ele>140.4</ele><time>2026-04-29T10:13:31Z</time></trkpt><trkpt lat="41.33508793178534" lon="19.848384408625723"><ele>141.8</ele><time>2026-04-29T10:13:32Z</time></trkpt><trkpt lat="41.335151573760555" lon="19.84826819695927"><ele>143.2</ele><time>2026-04-29T10:13:33Z</time></trkpt><trkpt lat="41.3352061905778" lon="19.848157672677548"><ele>144.6</ele><time>2026-04-29T10:13:34Z</time></trkpt><trkpt lat="41.335250433622825" lon="19.848064409637242"><ele>146.0</ele><time>2026-04-29T10:13:35Z</time></trkpt><trkpt lat="41.335288099172544" lon="19.847985569947248"><ele>146.0</ele><time>2026-04-29T10:13:36Z</time></trkpt><trkpt lat="41.33531585395273" lon="19.847900767499144"><ele>146.0</ele><time>2026-04-29T10:13:37.001Z</time></trkpt><trkpt lat="41.335343648505074" lon="19.847802315639672"><ele>146.0</ele><time>2026-04-29T10:13:38.001Z</time></trkpt><trkpt lat="41.33537055795565" lon="19.84768518181465"><ele>146.0</ele><time>2026-04-29T10:13:39.001Z</time></trkpt><trkpt lat="41.3353958216911" lon="19.847561163150516"><ele>146.0</ele><time>2026-04-29T10:13:40.001Z</time></trkpt><trkpt lat="41.3354304142797" lon="19.847426123144103"><ele>146.0</ele><time>2026-04-29T10:13:41.001Z</time></trkpt><trkpt lat="41.33546527124235" lon="19.847285332820583"><ele>146.75</ele><time>2026-04-29T10:13:42.001Z</time></trkpt><trkpt lat="41.3355016127275" lon="19.847137164829313"><ele>147.5</ele><time>2026-04-29T10:13:43.001Z</time></trkpt><trkpt lat="41.33553437229136" lon="19.846981885556907"><ele>148.25</ele><time>2026-04-29T10:13:44.001Z</time></trkpt><trkpt lat="41.33556443466595" lon="19.8468242050398"><ele>149.0</ele><time>2026-04-29T10:13:45.001Z</time></trkpt><trkpt lat="41.33558926658968" lon="19.846691349080757"><ele>149.2</ele><time>2026-04-29T10:13:46.001Z</time></trkpt><trkpt lat="41.33560475232228" lon="19.846568566640748"><ele>149.4</ele><time>2026-04-29T10:13:47.001Z</time></trkpt><trkpt lat="41.33561100915648" lon="19.84643580884675"><ele>149.6</ele><time>2026-04-29T10:13:48.001Z</time></trkpt><trkpt lat="41.33562498747936" lon="19.84631081078447"><ele>149.8</ele><time>2026-04-29T10:13:49.001Z</time></trkpt><trkpt lat="41.33564842501312" lon="19.846194976492587"><ele>150.0</ele><time>2026-04-29T10:13:50.001Z</time></trkpt><trkpt lat="41.33568703259114" lon="19.84608469607663"><ele>150.0</ele><time>2026-04-29T10:13:51.001Z</time></trkpt><trkpt lat="41.335736655407935" lon="19.845986795170532"><ele>150.0</ele><time>2026-04-29T10:13:52.001Z</time></trkpt><trkpt lat="41.33580284510955" lon="19.845906998065956"><ele>150.0</ele><time>2026-04-29T10:13:53.001Z</time></trkpt><trkpt lat="41.335868376395126" lon="19.845875450709983"><ele>150.0</ele><time>2026-04-29T10:13:54.001Z</time></trkpt><trkpt lat="41.33593904429879" lon="19.84581576332296"><ele>150.0</ele><time>2026-04-29T10:13:56.001Z</time></trkpt><trkpt lat="41.33598112534953" lon="19.84574707148974"><ele>150.0</ele><time>2026-04-29T10:13:58.001Z</time></trkpt><trkpt lat="41.33598070833835" lon="19.84565969747656"><ele>149.0</ele><time>2026-04-29T10:13:59.001Z</time></trkpt><trkpt lat="41.33597858001527" lon="19.845557980105884"><ele>148.0</ele><time>2026-04-29T10:14:00.001Z</time></trkpt><trkpt lat="41.33598422954237" lon="19.845450575945236"><ele>147.0</ele><time>2026-04-29T10:14:01.001Z</time></trkpt><trkpt lat="41.335998475830635" lon="19.845318112348366"><ele>146.0</ele><time>2026-04-29T10:14:02.001Z</time></trkpt><trkpt lat="41.3360082640254" lon="19.845176242274206"><ele>145.0</ele><time>2026-04-29T10:14:03.001Z</time></trkpt><trkpt lat="41.33602125005533" lon="19.845055786293344"><ele>144.0</ele><time>2026-04-29T10:14:04.001Z</time></trkpt><trkpt lat="41.3360356498582" lon="19.84494795638125"><ele>143.0</ele><time>2026-04-29T10:14:05.001Z</time></trkpt><trkpt lat="41.336050475370634" lon="19.84485083956482"><ele>142.0</ele><time>2026-04-29T10:14:06.001Z</time></trkpt><trkpt lat="41.33607442591835" lon="19.844758213412618"><ele>141.0</ele><time>2026-04-29T10:14:07.001Z</time></trkpt><trkpt lat="41.33610407354957" lon="19.84466404374353"><ele>140.0</ele><time>2026-04-29T10:14:08.001Z</time></trkpt><trkpt lat="41.336140353875244" lon="19.844573566144454"><ele>139.0</ele><time>2026-04-29T10:14:09.001Z</time></trkpt><trkpt lat="41.336121694284095" lon="19.844470897312334"><ele>139.0</ele><time>2026-04-29T10:14:10.001Z</time></trkpt><trkpt lat="41.3361440997212" lon="19.84434328074886"><ele>139.0</ele><time>2026-04-29T10:14:12.001Z</time></trkpt><trkpt lat="41.33618287837067" lon="19.844187434918222"><ele>139.0</ele><time>2026-04-29T10:14:14.001Z</time></trkpt><trkpt lat="41.33621480738497" lon="19.84409202040885"><ele>139.0</ele><time>2026-04-29T10:14:15.001Z</time></trkpt><trkpt lat="41.33624875077958" lon="19.84398252834623"><ele>139.0</ele><time>2026-04-29T10:14:16.001Z</time></trkpt><trkpt lat="41.33628567028871" lon="19.843859532188485"><ele>139.0</ele><time>2026-04-29T10:14:17.001Z</time></trkpt><trkpt lat="41.33630975891921" lon="19.843763555768966"><ele>139.0</ele><time>2026-04-29T10:14:18.001Z</time></trkpt><trkpt lat="41.33633866475335" lon="19.843663553418413"><ele>139.0</ele><time>2026-04-29T10:14:19.001Z</time></trkpt><trkpt lat="41.33637216230191" lon="19.843560124995182"><ele>139.0</ele><time>2026-04-29T10:14:20.001Z</time></trkpt><trkpt lat="41.33641162029527" lon="19.843441484492722"><ele>139.0</ele><time>2026-04-29T10:14:21.001Z</time></trkpt><trkpt lat="41.33645804559733" lon="19.84331797538176"><ele>139.0</ele><time>2026-04-29T10:14:22.001Z</time></trkpt><trkpt lat="41.336512136013916" lon="19.843198409845062"><ele>139.0</ele><time>2026-04-29T10:14:23.001Z</time></trkpt><trkpt lat="41.33655988848375" lon="19.843082326174347"><ele>139.0</ele><time>2026-04-29T10:14:24.001Z</time></trkpt><trkpt lat="41.33660324612943" lon="19.842984849827843"><ele>139.0</ele><time>2026-04-29T10:14:25.001Z</time></trkpt><trkpt lat="41.33664994042898" lon="19.84289351708467"><ele>139.0</ele><time>2026-04-29T10:14:26.001Z</time></trkpt><trkpt lat="41.336690732732826" lon="19.842825502867136"><ele>139.0</ele><time>2026-04-29T10:14:27.001Z</time></trkpt><trkpt lat="41.336755526600506" lon="19.84273265626411"><ele>139.0</ele><time>2026-04-29T10:14:29.001Z</time></trkpt><trkpt lat="41.336798148113274" lon="19.842666498014257"><ele>139.33333333333334</ele><time>2026-04-29T10:14:31.001Z</time></trkpt><trkpt lat="41.33684771618017" lon="19.842600816811736"><ele>139.66666666666669</ele><time>2026-04-29T10:14:33.001Z</time></trkpt><trkpt lat="41.336897234424825" lon="19.842535154051543"><ele>140.0</ele><time>2026-04-29T10:14:35.001Z</time></trkpt><trkpt lat="41.336959067979556" lon="19.842467281639394"><ele>140.33333333333334</ele><time>2026-04-29T10:14:37.001Z</time></trkpt><trkpt lat="41.33701799442472" lon="19.842383157269552"><ele>140.66666666666666</ele><time>2026-04-29T10:14:39.001Z</time></trkpt><trkpt lat="41.33708073260633" lon="19.842289322825827"><ele>141.0</ele><time>2026-04-29T10:14:41Z</time></trkpt><trkpt lat="41.337125658009825" lon="19.842208478052466"><ele>141.0</ele><time>2026-04-29T10:14:43Z</time></trkpt><trkpt lat="41.33717259442758" lon="19.842141614888202"><ele>141.0</ele><time>2026-04-29T10:14:47Z</time></trkpt><trkpt lat="41.33721092472673" lon="19.8420580299755"><ele>141.0</ele><time>2026-04-29T10:15:11Z</time></trkpt><trkpt lat="41.337257541585444" lon="19.84200085911289"><ele>141.0</ele><time>2026-04-29T10:15:13Z</time></trkpt><trkpt lat="41.33732573659029" lon="19.841913175935534"><ele>141.0</ele><time>2026-04-29T10:15:15Z</time></trkpt><trkpt lat="41.33738723314166" lon="19.84183296852972"><ele>141.0</ele><time>2026-04-29T10:15:17Z</time></trkpt><trkpt lat="41.33743336287224" lon="19.841774592306766"><ele>141.16666666666666</ele><time>2026-04-29T10:15:19Z</time></trkpt><trkpt lat="41.33747790769576" lon="19.84171110697343"><ele>141.33333333333334</ele><time>2026-04-29T10:15:23Z</time></trkpt><trkpt lat="41.33752542475892" lon="19.841603852480887"><ele>141.5</ele><time>2026-04-29T10:15:49.001Z</time></trkpt><trkpt lat="41.33758670377269" lon="19.841529945553646"><ele>141.66666666666669</ele><time>2026-04-29T10:15:51.001Z</time></trkpt><trkpt lat="41.3376481897236" lon="19.84143931596609"><ele>141.83333333333334</ele><time>2026-04-29T10:15:53.001Z</time></trkpt><trkpt lat="41.33772561719633" lon="19.84136877623991"><ele>142.0</ele><time>2026-04-29T10:15:55.001Z</time></trkpt><trkpt lat="41.33776724548793" lon="19.841285270709356"><ele>142.0</ele><time>2026-04-29T10:15:57.001Z</time></trkpt><trkpt lat="41.33783420784536" lon="19.84122306572138"><ele>142.0</ele><time>2026-04-29T10:16:17.001Z</time></trkpt><trkpt lat="41.337901485609905" lon="19.84117142593303"><ele>142.0</ele><time>2026-04-29T10:16:20.001Z</time></trkpt><trkpt lat="41.33795643422271" lon="19.841124263398008"><ele>142.0</ele><time>2026-04-29T10:16:22.001Z</time></trkpt><trkpt lat="41.338037866069925" lon="19.841050763112754"><ele>142.0</ele><time>2026-04-29T10:16:24.001Z</time></trkpt><trkpt lat="41.338142807768726" lon="19.840988244219183"><ele>142.0</ele><time>2026-04-29T10:16:26.001Z</time></trkpt><trkpt lat="41.338201331614016" lon="19.84095577339929"><ele>141.2</ele><time>2026-04-29T10:16:27.001Z</time></trkpt><trkpt lat="41.33829771102195" lon="19.840902939837672"><ele>140.39999999999998</ele><time>2026-04-29T10:16:29.001Z</time></trkpt><trkpt lat="41.33838425230912" lon="19.840853788022972"><ele>139.60000000000002</ele><time>2026-04-29T10:16:31.001Z</time></trkpt><trkpt lat="41.33846669556455" lon="19.84080518549644"><ele>138.8</ele><time>2026-04-29T10:16:33.001Z</time></trkpt><trkpt lat="41.33855634001183" lon="19.840746143263445"><ele>138.0</ele><time>2026-04-29T10:16:35.001Z</time></trkpt><trkpt lat="41.33862343691819" lon="19.840699463125762"><ele>138.0</ele><time>2026-04-29T10:16:37.001Z</time></trkpt><trkpt lat="41.338685117724985" lon="19.840676100854854"><ele>138.0</ele><time>2026-04-29T10:16:39.001Z</time></trkpt><trkpt lat="41.33875218566309" lon="19.8406338080964"><ele>138.0</ele><time>2026-04-29T10:16:44.001Z</time></trkpt><trkpt lat="41.33870090071511" lon="19.840405524972873"><ele>138.0</ele><time>2026-04-29T10:16:49Z</time></trkpt><trkpt lat="41.33864555143616" lon="19.840325467794294"><ele>138.0</ele><time>2026-04-29T10:16:51Z</time></trkpt><trkpt lat="41.3386806767601" lon="19.840403008269533"><ele>138.0</ele><time>2026-04-29T10:18:54.001Z</time></trkpt><trkpt lat="41.33864219559692" lon="19.84053805290873"><ele>138.0</ele><time>2026-04-29T10:19:01.001Z</time></trkpt><trkpt lat="41.338596664153805" lon="19.840695251301284"><ele>138.0</ele><time>2026-04-29T10:20:44.002Z</time></trkpt><trkpt lat="41.338631446938656" lon="19.840766398011453"><ele>138.0</ele><time>2026-04-29T10:20:46.002Z</time></trkpt><trkpt lat="41.33852591489009" lon="19.840746651288416"><ele>138.0</ele><time>2026-04-29T10:23:06.07Z</time></trkpt><trkpt lat="41.338034565009565" lon="19.8409939622829"><ele>138.0</ele><time>2026-04-29T10:23:33.56Z</time></trkpt><trkpt lat="41.33828506391182" lon="19.840848219092585"><ele>138.0</ele><time>2026-04-29T10:23:39.559Z</time></trkpt><trkpt lat="41.338352298236885" lon="19.84082656255165"><ele>138.0</ele><time>2026-04-29T10:23:45.558Z</time></trkpt><trkpt lat="41.33845004252629" lon="19.84075935228887"><ele>138.0</ele><time>2026-04-29T10:23:51.967Z</time></trkpt><trkpt lat="41.33855617619373" lon="19.840755881312433"><ele>138.0</ele><time>2026-04-29T10:24:15.004Z</time></trkpt><trkpt lat="41.338543298231635" lon="19.840672176144782"><ele>138.0</ele><time>2026-04-29T10:24:24.003Z</time></trkpt><trkpt lat="41.33858167557422" lon="19.84059759283355"><ele>138.0</ele><time>2026-04-29T10:24:30.003Z</time></trkpt><trkpt lat="41.33852111538385" lon="19.840656239590054"><ele>138.0</ele><time>2026-04-29T11:05:08Z</time></trkpt><trkpt lat="41.338461187723325" lon="19.84070165929342"><ele>138.0</ele><time>2026-04-29T11:05:16Z</time></trkpt><trkpt lat="41.338450340240634" lon="19.840789258657885"><ele>138.0</ele><time>2026-04-29T11:05:22Z</time></trkpt><trkpt lat="41.33843613643691" lon="19.840880727268132"><ele>138.0</ele><time>2026-04-29T11:05:28Z</time></trkpt><trkpt lat="41.3383754926082" lon="19.840928723542433"><ele>138.0</ele><time>2026-04-29T11:05:34Z</time></trkpt><trkpt lat="41.33830916272827" lon="19.84094549766348"><ele>138.0</ele><time>2026-04-29T11:05:39Z</time></trkpt><trkpt lat="41.338250155334435" lon="19.84100160364142"><ele>138.0</ele><time>2026-04-29T11:05:47Z</time></trkpt><trkpt lat="41.338243637323" lon="19.8411018016142"><ele>138.0</ele><time>2026-04-29T11:05:55Z</time></trkpt><trkpt lat="41.33825670236032" lon="19.84118669952304"><ele>138.0</ele><time>2026-04-29T11:06:01Z</time></trkpt><trkpt lat="41.33826583493228" lon="19.841274607610448"><ele>138.0</ele><time>2026-04-29T11:06:06.999Z</time></trkpt><trkpt lat="41.3382962114839" lon="19.84135029330958"><ele>138.33333333333334</ele><time>2026-04-29T11:06:13Z</time></trkpt><trkpt lat="41.33824767504353" lon="19.841408606406475"><ele>138.66666666666666</ele><time>2026-04-29T11:06:23Z</time></trkpt><trkpt lat="41.33823061488368" lon="19.841499976373452"><ele>139.0</ele><time>2026-04-29T11:06:31Z</time></trkpt><trkpt lat="41.33815555232066" lon="19.841487399643494"><ele>139.33333333333331</ele><time>2026-04-29T11:06:41Z</time></trkpt><trkpt lat="41.338198394634446" lon="19.84140102669425"><ele>139.66666666666666</ele><time>2026-04-29T11:09:02.013Z</time></trkpt><trkpt lat="41.33811330440904" lon="19.841303460827234"><ele>140.0</ele><time>2026-04-29T11:10:33.013Z</time></trkpt><trkpt lat="41.338176019586385" lon="19.841293773493277"><ele>140.0</ele><time>2026-04-29T11:11:11.998Z</time></trkpt><trkpt lat="41.3382481843944" lon="19.841359038699608"><ele>140.0</ele><time>2026-04-29T11:11:21Z</time></trkpt><trkpt lat="41.338224632483936" lon="19.84127977487743"><ele>140.0</ele><time>2026-04-29T11:11:35Z</time></trkpt><trkpt lat="41.3382095962029" lon="19.841186660175964"><ele>140.0</ele><time>2026-04-29T11:11:42Z</time></trkpt><trkpt lat="41.33820619324458" lon="19.841096504149057"><ele>140.0</ele><time>2026-04-29T11:11:49Z</time></trkpt><trkpt lat="41.33824699642451" lon="19.84102279616552"><ele>140.0</ele><time>2026-04-29T11:12:20Z</time></trkpt><trkpt lat="41.338295950852704" lon="19.84095680385582"><ele>140.0</ele><time>2026-04-29T11:12:24Z</time></trkpt><trkpt lat="41.33836464088468" lon="19.840917656864754"><ele>139.71428571428572</ele><time>2026-04-29T11:12:32Z</time></trkpt><trkpt lat="41.338394563876385" lon="19.84082843172211"><ele>139.42857142857144</ele><time>2026-04-29T11:12:40Z</time></trkpt><trkpt lat="41.33840638152481" lon="19.84074402803134"><ele>139.14285714285714</ele><time>2026-04-29T11:12:46Z</time></trkpt><trkpt lat="41.33846439678498" lon="19.840701157567032"><ele>138.85714285714286</ele><time>2026-04-29T11:12:52Z</time></trkpt><trkpt lat="41.33852179591381" lon="19.840637886127805"><ele>138.57142857142858</ele><time>2026-04-29T11:13:00Z</time></trkpt><trkpt lat="41.3385722598124" lon="19.840584745639447"><ele>138.28571428571428</ele><time>2026-04-29T11:13:06Z</time></trkpt><trkpt lat="41.338594354199685" lon="19.840497815886966"><ele>138.0</ele><time>2026-04-29T11:21:45Z</time></trkpt><trkpt lat="41.33860520479836" lon="19.840409057437096"><ele>138.0</ele><time>2026-04-29T11:21:51Z</time></trkpt><trkpt lat="41.33861403346088" lon="19.840324822170203"><ele>138.0</ele><time>2026-04-29T11:21:59Z</time></trkpt><trkpt lat="41.33868067777911" lon="19.84039057325366"><ele>138.0</ele><time>2026-04-29T11:25:58Z</time></trkpt><trkpt lat="41.33870128065542" lon="19.840476505882584"><ele>138.0</ele><time>2026-04-29T11:26:00Z</time></trkpt><trkpt lat="41.33872043605191" lon="19.840572111140858"><ele>138.0</ele><time>2026-04-29T11:26:07Z</time></trkpt><trkpt lat="41.33880186711676" lon="19.84056674680201"><ele>138.0</ele><time>2026-04-29T11:26:11Z</time></trkpt><trkpt lat="41.338858959020584" lon="19.84052972326259"><ele>138.0</ele><time>2026-04-29T11:26:14Z</time></trkpt><trkpt lat="41.33893767917554" lon="19.840469119495786"><ele>138.0</ele><time>2026-04-29T11:26:17Z</time></trkpt><trkpt lat="41.33901172537493" lon="19.840421856659045"><ele>138.0</ele><time>2026-04-29T11:26:19Z</time></trkpt><trkpt lat="41.339074591532075" lon="19.840376089765282"><ele>138.0</ele><time>2026-04-29T11:26:22Z</time></trkpt><trkpt lat="41.339129277052145" lon="19.840333834546648"><ele>138.0</ele><time>2026-04-29T11:26:26Z</time></trkpt><trkpt lat="41.33918250807939" lon="19.840287263692204"><ele>138.0</ele><time>2026-04-29T11:26:30Z</time></trkpt><trkpt lat="41.33923565047004" lon="19.84024149047798"><ele>138.0</ele><time>2026-04-29T11:26:35Z</time></trkpt><trkpt lat="41.339302222216304" lon="19.84019325636206"><ele>138.0</ele><time>2026-04-29T11:26:42Z</time></trkpt><trkpt lat="41.339370038309966" lon="19.84014554990549"><ele>137.85714285714286</ele><time>2026-04-29T11:26:52Z</time></trkpt><trkpt lat="41.33942836900182" lon="19.840092201475706"><ele>137.71428571428572</ele><time>2026-04-29T11:27:06Z</time></trkpt><trkpt lat="41.33948996686825" lon="19.840039204049155"><ele>137.57142857142858</ele><time>2026-04-29T11:27:14Z</time></trkpt><trkpt lat="41.33954611799955" lon="19.839999122327566"><ele>137.42857142857144</ele><time>2026-04-29T11:27:27Z</time></trkpt><trkpt lat="41.339607410247865" lon="19.839956772230774"><ele>137.28571428571428</ele><time>2026-04-29T11:27:42.999Z</time></trkpt><trkpt lat="41.33965998473401" lon="19.839891902227436"><ele>137.14285714285717</ele><time>2026-04-29T11:27:48.999Z</time></trkpt><trkpt lat="41.339734152571054" lon="19.839830880310153"><ele>137.0</ele><time>2026-04-29T11:27:51.999Z</time></trkpt><trkpt lat="41.33980365454344" lon="19.839781258823727"><ele>137.00000000000003</ele><time>2026-04-29T11:27:53.999Z</time></trkpt><trkpt lat="41.339861090721264" lon="19.8397419527855"><ele>137.0</ele><time>2026-04-29T11:27:55.999Z</time></trkpt><trkpt lat="41.33992382934827" lon="19.83969994768214"><ele>137.0</ele><time>2026-04-29T11:28:10.999Z</time></trkpt><trkpt lat="41.34001213066885" lon="19.839641991902926"><ele>137.0</ele><time>2026-04-29T11:28:14.999Z</time></trkpt><trkpt lat="41.340073709707475" lon="19.839589152458448"><ele>137.0</ele><time>2026-04-29T11:28:16.999Z</time></trkpt><trkpt lat="41.34012926017343" lon="19.83953261570429"><ele>137.00000000000003</ele><time>2026-04-29T11:28:18.999Z</time></trkpt><trkpt lat="41.3401928844966" lon="19.83949006045148"><ele>137.0</ele><time>2026-04-29T11:28:21.999Z</time></trkpt><trkpt lat="41.34026375096348" lon="19.83939243296576"><ele>137.00000000000003</ele><time>2026-04-29T11:28:45.999Z</time></trkpt><trkpt lat="41.34032229795556" lon="19.839353008055372"><ele>137.0</ele><time>2026-04-29T11:28:48.999Z</time></trkpt><trkpt lat="41.34039349522849" lon="19.839301103719606"><ele>137.0</ele><time>2026-04-29T11:28:55.999Z</time></trkpt><trkpt lat="41.34045060392611" lon="19.83925801363309"><ele>137.0</ele><time>2026-04-29T11:29:00.999Z</time></trkpt><trkpt lat="41.340506933160285" lon="19.83920851681608"><ele>137.0</ele><time>2026-04-29T11:29:04.999Z</time></trkpt><trkpt lat="41.34057181325847" lon="19.839194830975412"><ele>137.00000000000003</ele><time>2026-04-29T11:29:07.999Z</time></trkpt><trkpt lat="41.340634238790955" lon="19.839258253910824"><ele>137.0</ele><time>2026-04-29T11:29:11.999Z</time></trkpt><trkpt lat="41.34069746114504" lon="19.839387522932576"><ele>137.66666666666666</ele><time>2026-04-29T11:29:13.999Z</time></trkpt><trkpt lat="41.34073075007357" lon="19.83946872290544"><ele>138.33333333333331</ele><time>2026-04-29T11:29:14.999Z</time></trkpt><trkpt lat="41.34076415882289" lon="19.839552982481433"><ele>139.0</ele><time>2026-04-29T11:29:15.999Z</time></trkpt><trkpt lat="41.34081735458389" lon="19.83968957125605"><ele>139.66666666666666</ele><time>2026-04-29T11:29:17.999Z</time></trkpt><trkpt lat="41.34086645156472" lon="19.83981725440958"><ele>140.33333333333334</ele><time>2026-04-29T11:29:19.999Z</time></trkpt><trkpt lat="41.34090320460219" lon="19.839894519710477"><ele>141.0</ele><time>2026-04-29T11:29:21.999Z</time></trkpt><trkpt lat="41.340958932582886" lon="19.840015733370777"><ele>141.0</ele><time>2026-04-29T11:29:23.999Z</time></trkpt><trkpt lat="41.34099456966296" lon="19.840096344006838"><ele>141.0</ele><time>2026-04-29T11:29:24.999Z</time></trkpt><trkpt lat="41.341031754267235" lon="19.84018574638725"><ele>141.0</ele><time>2026-04-29T11:29:25.999Z</time></trkpt><trkpt lat="41.34107494983085" lon="19.84028702828901"><ele>141.0</ele><time>2026-04-29T11:29:26.999Z</time></trkpt><trkpt lat="41.34111707546287" lon="19.84038173192556"><ele>141.0</ele><time>2026-04-29T11:29:27.999Z</time></trkpt><trkpt lat="41.341164156332916" lon="19.840483293735677"><ele>141.0</ele><time>2026-04-29T11:29:28.999Z</time></trkpt><trkpt lat="41.34120888321702" lon="19.840594513439786"><ele>141.0</ele><time>2026-04-29T11:29:29.999Z</time></trkpt><trkpt lat="41.34125274389597" lon="19.840704886325753"><ele>141.0</ele><time>2026-04-29T11:29:30.999Z</time></trkpt><trkpt lat="41.34129099047723" lon="19.84080529937768"><ele>141.0</ele><time>2026-04-29T11:29:31.999Z</time></trkpt><trkpt lat="41.341326525268045" lon="19.840887884836004"><ele>141.0</ele><time>2026-04-29T11:29:32.999Z</time></trkpt><trkpt lat="41.3413791993622" lon="19.84100322667654"><ele>141.0</ele><time>2026-04-29T11:29:34.999Z</time></trkpt><trkpt lat="41.341422469460326" lon="19.841098897928998"><ele>141.0</ele><time>2026-04-29T11:29:36.999Z</time></trkpt><trkpt lat="41.34146207960574" lon="19.8412112895081"><ele>141.16666666666666</ele><time>2026-04-29T11:29:38.999Z</time></trkpt><trkpt lat="41.34149275062294" lon="19.841291065911005"><ele>141.33333333333334</ele><time>2026-04-29T11:29:40.999Z</time></trkpt><trkpt lat="41.34154023462059" lon="19.841351004188084"><ele>141.5</ele><time>2026-04-29T11:29:43.999Z</time></trkpt><trkpt lat="41.34167814480683" lon="19.841312391523818"><ele>141.66666666666669</ele><time>2026-04-29T11:29:46.999Z</time></trkpt><trkpt lat="41.34173371735776" lon="19.841269398053473"><ele>141.83333333333334</ele><time>2026-04-29T11:29:47.999Z</time></trkpt><trkpt lat="41.34179758338834" lon="19.841213094735288"><ele>142.0</ele><time>2026-04-29T11:29:48.999Z</time></trkpt><trkpt lat="41.341868205424554" lon="19.841150835362793"><ele>142.0</ele><time>2026-04-29T11:29:49.999Z</time></trkpt><trkpt lat="41.341940101858114" lon="19.841087449120344"><ele>142.0</ele><time>2026-04-29T11:29:50.999Z</time></trkpt><trkpt lat="41.34200132825611" lon="19.841033827186276"><ele>142.0</ele><time>2026-04-29T11:29:51.999Z</time></trkpt><trkpt lat="41.34205589611706" lon="19.84098603677915"><ele>142.0</ele><time>2026-04-29T11:29:52.999Z</time></trkpt><trkpt lat="41.34211175063803" lon="19.840937119525268"><ele>142.0</ele><time>2026-04-29T11:29:53.999Z</time></trkpt><trkpt lat="41.342166601966234" lon="19.84088908087524"><ele>142.0</ele><time>2026-04-29T11:29:54.999Z</time></trkpt><trkpt lat="41.3422228695743" lon="19.840839801834534"><ele>142.0</ele><time>2026-04-29T11:29:55.999Z</time></trkpt><trkpt lat="41.342282322837356" lon="19.840787732820104"><ele>142.0</ele><time>2026-04-29T11:29:56.999Z</time></trkpt><trkpt lat="41.342343798054145" lon="19.840733892958543"><ele>142.0</ele><time>2026-04-29T11:29:57.999Z</time></trkpt><trkpt lat="41.3424027771852" lon="19.840682239196244"><ele>142.0</ele><time>2026-04-29T11:29:58.999Z</time></trkpt><trkpt lat="41.342502498214444" lon="19.840595010604567"><ele>142.0</ele><time>2026-04-29T11:30:00.999Z</time></trkpt><trkpt lat="41.34261097681612" lon="19.840498727530125"><ele>142.0</ele><time>2026-04-29T11:30:02.999Z</time></trkpt><trkpt lat="41.34267195021255" lon="19.84044557075724"><ele>142.0</ele><time>2026-04-29T11:30:03.999Z</time></trkpt><trkpt lat="41.34277440376985" lon="19.84035625149694"><ele>142.0</ele><time>2026-04-29T11:30:05.997Z</time></trkpt><trkpt lat="41.342870521765946" lon="19.840272455583328"><ele>142.0</ele><time>2026-04-29T11:30:07.997Z</time></trkpt><trkpt lat="41.34296482509255" lon="19.840190193919746"><ele>142.0</ele><time>2026-04-29T11:30:09.997Z</time></trkpt><trkpt lat="41.34306267974237" lon="19.840104765251006"><ele>142.4</ele><time>2026-04-29T11:30:11.997Z</time></trkpt><trkpt lat="41.34314886885946" lon="19.840029520789795"><ele>142.79999999999998</ele><time>2026-04-29T11:30:13.997Z</time></trkpt><trkpt lat="41.34322940225867" lon="19.839959213840604"><ele>143.2</ele><time>2026-04-29T11:30:15.998Z</time></trkpt><trkpt lat="41.34328873722118" lon="19.839907413486962"><ele>143.6</ele><time>2026-04-29T11:30:19.998Z</time></trkpt><trkpt lat="41.34337378174483" lon="19.8398331681824"><ele>144.0</ele><time>2026-04-29T11:30:23.998Z</time></trkpt><trkpt lat="41.343482972426685" lon="19.83973656197338"><ele>144.0</ele><time>2026-04-29T11:30:25.998Z</time></trkpt><trkpt lat="41.34355290519405" lon="19.83967474037837"><ele>144.0</ele><time>2026-04-29T11:30:26.998Z</time></trkpt><trkpt lat="41.34362905236218" lon="19.839607425199556"><ele>144.0</ele><time>2026-04-29T11:30:27.998Z</time></trkpt><trkpt lat="41.343709431518995" lon="19.839536368832647"><ele>144.0</ele><time>2026-04-29T11:30:28.998Z</time></trkpt><trkpt lat="41.343797252495925" lon="19.839458733837944"><ele>144.0</ele><time>2026-04-29T11:30:29.998Z</time></trkpt><trkpt lat="41.3439754718223" lon="19.839301811306743"><ele>143.83333333333334</ele><time>2026-04-29T11:30:31.998Z</time></trkpt><trkpt lat="41.344052179192495" lon="19.83923504315213"><ele>143.66666666666666</ele><time>2026-04-29T11:30:32.998Z</time></trkpt><trkpt lat="41.344121693615115" lon="19.839174535957053"><ele>143.5</ele><time>2026-04-29T11:30:33.998Z</time></trkpt><trkpt lat="41.34418586705921" lon="19.839118677633174"><ele>143.33333333333331</ele><time>2026-04-29T11:30:34.998Z</time></trkpt><trkpt lat="41.34424126846354" lon="19.839070454775918"><ele>143.16666666666666</ele><time>2026-04-29T11:30:35.998Z</time></trkpt><trkpt lat="41.34433237531462" lon="19.8389911529385"><ele>143.0</ele><time>2026-04-29T11:30:37.998Z</time></trkpt><trkpt lat="41.34441129733337" lon="19.838921233307428"><ele>143.0</ele><time>2026-04-29T11:30:39.999Z</time></trkpt><trkpt lat="41.34446159199838" lon="19.83885163584228"><ele>143.0</ele><time>2026-04-29T11:30:41.999Z</time></trkpt><trkpt lat="41.34452653790189" lon="19.838798328339067"><ele>143.0</ele><time>2026-04-29T11:30:43.999Z</time></trkpt><trkpt lat="41.344589881584625" lon="19.8387416861548"><ele>143.0</ele><time>2026-04-29T11:30:45.999Z</time></trkpt><trkpt lat="41.34465549706124" lon="19.8387073549001"><ele>143.0</ele><time>2026-04-29T11:30:47.999Z</time></trkpt><trkpt lat="41.34471787075191" lon="19.838652850443932"><ele>143.0</ele><time>2026-04-29T11:30:49.999Z</time></trkpt><trkpt lat="41.34479693353663" lon="19.838584079752067"><ele>143.16666666666666</ele><time>2026-04-29T11:30:51.999Z</time></trkpt><trkpt lat="41.344872286337846" lon="19.83851858537036"><ele>143.33333333333331</ele><time>2026-04-29T11:30:53.999Z</time></trkpt><trkpt lat="41.34492875506094" lon="19.838469506411823"><ele>143.5</ele><time>2026-04-29T11:31:06.999Z</time></trkpt><trkpt lat="41.34497770111832" lon="19.838415594250943"><ele>143.66666666666666</ele><time>2026-04-29T11:31:08.999Z</time></trkpt><trkpt lat="41.345073562931994" lon="19.83838131618662"><ele>143.83333333333334</ele><time>2026-04-29T11:31:10.999Z</time></trkpt><trkpt lat="41.34514904518559" lon="19.838352628067074"><ele>144.0</ele><time>2026-04-29T11:31:12.999Z</time></trkpt><trkpt lat="41.34521916458246" lon="19.83836968261532"><ele>144.0</ele><time>2026-04-29T11:31:14.999Z</time></trkpt><trkpt lat="41.34526373279545" lon="19.838471799532005"><ele>144.0</ele><time>2026-04-29T11:31:16.999Z</time></trkpt><trkpt lat="41.345295071342605" lon="19.838625321109475"><ele>144.0</ele><time>2026-04-29T11:31:18.999Z</time></trkpt><trkpt lat="41.34531928425564" lon="19.838717709191254"><ele>144.0</ele><time>2026-04-29T11:31:19.999Z</time></trkpt><trkpt lat="41.34534776222237" lon="19.838827538990273"><ele>144.0</ele><time>2026-04-29T11:31:20.999Z</time></trkpt><trkpt lat="41.345376655839466" lon="19.838946385438962"><ele>144.0</ele><time>2026-04-29T11:31:21.999Z</time></trkpt><trkpt lat="41.34540765713947" lon="19.83905826216266"><ele>144.0</ele><time>2026-04-29T11:31:22.999Z</time></trkpt><trkpt lat="41.34543308591991" lon="19.83914545707271"><ele>144.0</ele><time>2026-04-29T11:31:23.999Z</time></trkpt><trkpt lat="41.34546985692101" lon="19.839304091962678"><ele>144.0</ele><time>2026-04-29T11:31:25.999Z</time></trkpt><trkpt lat="41.34549047659078" lon="19.839387758760232"><ele>144.0</ele><time>2026-04-29T11:31:26.999Z</time></trkpt><trkpt lat="41.345512876402694" lon="19.839475866594377"><ele>144.0</ele><time>2026-04-29T11:31:27.999Z</time></trkpt><trkpt lat="41.34553577856092" lon="19.839565485392185"><ele>143.6</ele><time>2026-04-29T11:31:28.999Z</time></trkpt><trkpt lat="41.34555601341838" lon="19.839647212468627"><ele>143.2</ele><time>2026-04-29T11:31:29.999Z</time></trkpt><trkpt lat="41.34558676679055" lon="19.839771664599105"><ele>142.79999999999998</ele><time>2026-04-29T11:31:31.999Z</time></trkpt><trkpt lat="41.345619078552104" lon="19.83991377184999"><ele>142.4</ele><time>2026-04-29T11:31:33.999Z</time></trkpt><trkpt lat="41.345649871184676" lon="19.840035668324887"><ele>142.0</ele><time>2026-04-29T11:31:35.999Z</time></trkpt><trkpt lat="41.345695006072646" lon="19.840217727465543"><ele>142.0</ele><time>2026-04-29T11:31:38.999Z</time></trkpt><trkpt lat="41.34572376953606" lon="19.840322843427355"><ele>142.0</ele><time>2026-04-29T11:31:40.999Z</time></trkpt><trkpt lat="41.34576155557219" lon="19.840490467714616"><ele>142.0</ele><time>2026-04-29T11:31:42.999Z</time></trkpt><trkpt lat="41.34578840625269" lon="19.840584756465834"><ele>142.0</ele><time>2026-04-29T11:31:44.999Z</time></trkpt><trkpt lat="41.345812947704566" lon="19.840703776084016"><ele>142.0</ele><time>2026-04-29T11:31:46.999Z</time></trkpt><trkpt lat="41.34584437181579" lon="19.840787172074194"><ele>142.0</ele><time>2026-04-29T11:31:48.999Z</time></trkpt><trkpt lat="41.3458692904134" lon="19.840873715326413"><ele>142.0</ele><time>2026-04-29T11:31:51.999Z</time></trkpt><trkpt lat="41.34590146286553" lon="19.84097553986835"><ele>142.0</ele><time>2026-04-29T11:31:54.999Z</time></trkpt><trkpt lat="41.34592873409421" lon="19.841061738150902"><ele>142.0</ele><time>2026-04-29T11:31:56.999Z</time></trkpt><trkpt lat="41.34595809074325" lon="19.841144834000048"><ele>142.0</ele><time>2026-04-29T11:31:58.999Z</time></trkpt><trkpt lat="41.34597726237944" lon="19.840948413141177"><ele>142.0</ele><time>2026-04-29T11:32:04.999Z</time></trkpt><trkpt lat="41.3459283222716" lon="19.840866852753006"><ele>142.0</ele><time>2026-04-29T11:32:05.999Z</time></trkpt><trkpt lat="41.345896800249044" lon="19.840752464405206"><ele>142.0</ele><time>2026-04-29T11:32:06.999Z</time></trkpt><trkpt lat="41.34586432824122" lon="19.840622707099545"><ele>142.0</ele><time>2026-04-29T11:32:07.999Z</time></trkpt><trkpt lat="41.34583159537542" lon="19.840495508907104"><ele>142.0</ele><time>2026-04-29T11:32:08.999Z</time></trkpt><trkpt lat="41.3458103178425" lon="19.84039253600674"><ele>142.0</ele><time>2026-04-29T11:32:09.999Z</time></trkpt><trkpt lat="41.34578766489937" lon="19.840297046472816"><ele>142.0</ele><time>2026-04-29T11:32:10.999Z</time></trkpt><trkpt lat="41.34576275896843" lon="19.84018529465065"><ele>142.0</ele><time>2026-04-29T11:32:11.997Z</time></trkpt><trkpt lat="41.345734828488126" lon="19.840057820723807"><ele>142.0</ele><time>2026-04-29T11:32:12.997Z</time></trkpt><trkpt lat="41.345707815839276" lon="19.839919797184145"><ele>142.0</ele><time>2026-04-29T11:32:13.997Z</time></trkpt><trkpt lat="41.345677874242895" lon="19.839803624130504"><ele>142.0</ele><time>2026-04-29T11:32:14.997Z</time></trkpt><trkpt lat="41.34565267814077" lon="19.83970124233133"><ele>142.33333333333334</ele><time>2026-04-29T11:32:15.997Z</time></trkpt><trkpt lat="41.345626840931125" lon="19.839594037439944"><ele>142.66666666666669</ele><time>2026-04-29T11:32:16.997Z</time></trkpt><trkpt lat="41.34560330174856" lon="19.83948513325841"><ele>143.0</ele><time>2026-04-29T11:32:17.997Z</time></trkpt><trkpt lat="41.345579710981085" lon="19.83937926338533"><ele>143.33333333333334</ele><time>2026-04-29T11:32:18.997Z</time></trkpt><trkpt lat="41.345557871412005" lon="19.83926749573572"><ele>143.66666666666666</ele><time>2026-04-29T11:32:19.997Z</time></trkpt><trkpt lat="41.34552679302866" lon="19.839159212686262"><ele>144.0</ele><time>2026-04-29T11:32:20.997Z</time></trkpt><trkpt lat="41.34550025471216" lon="19.83906621781438"><ele>144.0</ele><time>2026-04-29T11:32:21.997Z</time></trkpt><trkpt lat="41.345471054218294" lon="19.838957471645966"><ele>144.0</ele><time>2026-04-29T11:32:23.997Z</time></trkpt><trkpt lat="41.34542028823203" lon="19.83881753682356"><ele>144.0</ele><time>2026-04-29T11:32:25.998Z</time></trkpt><trkpt lat="41.34540298829987" lon="19.838723881248907"><ele>144.0</ele><time>2026-04-29T11:32:26.998Z</time></trkpt><trkpt lat="41.34538047810653" lon="19.838603353351807"><ele>144.0</ele><time>2026-04-29T11:32:28.998Z</time></trkpt><trkpt lat="41.34537087674226" lon="19.838512484361857"><ele>144.0</ele><time>2026-04-29T11:32:48.999Z</time></trkpt><trkpt lat="41.34535385722404" lon="19.838417798176575"><ele>142.75</ele><time>2026-04-29T11:32:50.999Z</time></trkpt><trkpt lat="41.3453384305268" lon="19.838335483631337"><ele>141.5</ele><time>2026-04-29T11:32:52.999Z</time></trkpt><trkpt lat="41.34558189171766" lon="19.838328051383076"><ele>140.25</ele><time>2026-04-29T11:33:00.999Z</time></trkpt><trkpt lat="41.345679197711625" lon="19.838361275967678"><ele>139.0</ele><time>2026-04-29T11:33:01.999Z</time></trkpt><trkpt lat="41.34576274645275" lon="19.838384466958566"><ele>138.16666666666669</ele><time>2026-04-29T11:33:02.999Z</time></trkpt><trkpt lat="41.345841523538965" lon="19.838399719451303"><ele>137.33333333333334</ele><time>2026-04-29T11:33:03.999Z</time></trkpt><trkpt lat="41.34590476049579" lon="19.8383976118742"><ele>136.5</ele><time>2026-04-29T11:33:04.999Z</time></trkpt><trkpt lat="41.34601166343982" lon="19.83838264667713"><ele>135.66666666666666</ele><time>2026-04-29T11:33:06.999Z</time></trkpt><trkpt lat="41.346091119966395" lon="19.83835363869275"><ele>134.83333333333331</ele><time>2026-04-29T11:33:08.999Z</time></trkpt><trkpt lat="41.34615939930382" lon="19.838332119735988"><ele>134.0</ele><time>2026-04-29T11:33:15.999Z</time></trkpt><trkpt lat="41.34622737194931" lon="19.83831276845041"><ele>134.0</ele><time>2026-04-29T11:33:17.999Z</time></trkpt><trkpt lat="41.346290159571836" lon="19.838296356565806"><ele>134.0</ele><time>2026-04-29T11:33:19.999Z</time></trkpt><trkpt lat="41.346373717755434" lon="19.8382789656725"><ele>134.0</ele><time>2026-04-29T11:33:22.999Z</time></trkpt><trkpt lat="41.34644226194934" lon="19.838258748097385"><ele>134.0</ele><time>2026-04-29T11:33:24.999Z</time></trkpt><trkpt lat="41.346522554367695" lon="19.838230783871314"><ele>134.0</ele><time>2026-04-29T11:33:26.999Z</time></trkpt><trkpt lat="41.346584310650265" lon="19.83821187621661"><ele>134.0</ele><time>2026-04-29T11:33:28.999Z</time></trkpt><trkpt lat="41.34667805765783" lon="19.838169241914617"><ele>133.4</ele><time>2026-04-29T11:33:30.999Z</time></trkpt><trkpt lat="41.34675351562579" lon="19.83812128458897"><ele>132.8</ele><time>2026-04-29T11:33:32.999Z</time></trkpt><trkpt lat="41.34681417297991" lon="19.83806907611664"><ele>132.2</ele><time>2026-04-29T11:33:34.999Z</time></trkpt><trkpt lat="41.34687426368767" lon="19.83803874047889"><ele>131.6</ele><time>2026-04-29T11:33:36.999Z</time></trkpt><trkpt lat="41.34683491455585" lon="19.837860875338666"><ele>131.0</ele><time>2026-04-29T11:33:38.999Z</time></trkpt><trkpt lat="41.34682112528085" lon="19.83774143005594"><ele>131.2</ele><time>2026-04-29T11:33:40.999Z</time></trkpt><trkpt lat="41.3468082499397" lon="19.83760585753906"><ele>131.39999999999998</ele><time>2026-04-29T11:33:42.999Z</time></trkpt><trkpt lat="41.34680204840514" lon="19.837428114712072"><ele>131.6</ele><time>2026-04-29T11:33:44.999Z</time></trkpt><trkpt lat="41.34679029851899" lon="19.837324793572748"><ele>131.79999999999998</ele><time>2026-04-29T11:33:45.999Z</time></trkpt><trkpt lat="41.34677894647051" lon="19.837224970711997"><ele>132.0</ele><time>2026-04-29T11:33:46.999Z</time></trkpt><trkpt lat="41.34676935881679" lon="19.837140662832763"><ele>132.0</ele><time>2026-04-29T11:33:47.999Z</time></trkpt><trkpt lat="41.34675268194049" lon="19.83699377891707"><ele>132.0</ele><time>2026-04-29T11:33:49.999Z</time></trkpt><trkpt lat="41.34672809390719" lon="19.83685566695747"><ele>132.0</ele><time>2026-04-29T11:33:51.999Z</time></trkpt><trkpt lat="41.346715146308426" lon="19.836722569541"><ele>132.0</ele><time>2026-04-29T11:33:53.999Z</time></trkpt><trkpt lat="41.34671113425543" lon="19.836621651712836"><ele>132.0</ele><time>2026-04-29T11:33:56.999Z</time></trkpt><trkpt lat="41.346702955598836" lon="19.836519469273167"><ele>131.6</ele><time>2026-04-29T11:34:00.999Z</time></trkpt><trkpt lat="41.346679982367476" lon="19.836396442394594"><ele>131.2</ele><time>2026-04-29T11:34:03.999Z</time></trkpt><trkpt lat="41.34666553079968" lon="19.83628169962723"><ele>130.8</ele><time>2026-04-29T11:34:05.999Z</time></trkpt><trkpt lat="41.34665409269305" lon="19.83616082763952"><ele>130.4</ele><time>2026-04-29T11:34:07.999Z</time></trkpt><trkpt lat="41.34663959095745" lon="19.836031596088997"><ele>130.0</ele><time>2026-04-29T11:34:09.999Z</time></trkpt><trkpt lat="41.346627870178494" lon="19.835920143366224"><ele>129.6</ele><time>2026-04-29T11:34:11.999Z</time></trkpt><trkpt lat="41.34661720051583" lon="19.835798331395786"><ele>129.2</ele><time>2026-04-29T11:34:13.999Z</time></trkpt><trkpt lat="41.34660373513884" lon="19.835666509319722"><ele>128.8</ele><time>2026-04-29T11:34:15.999Z</time></trkpt><trkpt lat="41.34659480727184" lon="19.835546277973656"><ele>128.4</ele><time>2026-04-29T11:34:17.997Z</time></trkpt><trkpt lat="41.34658675655422" lon="19.835437044611847"><ele>128.0</ele><time>2026-04-29T11:34:19.997Z</time></trkpt><trkpt lat="41.34657360975789" lon="19.83529730641009"><ele>127.99999999999999</ele><time>2026-04-29T11:34:21.997Z</time></trkpt><trkpt lat="41.34656406809848" lon="19.835196604149804"><ele>128.0</ele><time>2026-04-29T11:34:23.998Z</time></trkpt><trkpt lat="41.34655499791619" lon="19.835083660624125"><ele>128.0</ele><time>2026-04-29T11:34:26.998Z</time></trkpt><trkpt lat="41.346541894625446" lon="19.834959447507472"><ele>128.0</ele><time>2026-04-29T11:34:29.998Z</time></trkpt><trkpt lat="41.34652982227219" lon="19.834853619654183"><ele>127.99999999999999</ele><time>2026-04-29T11:34:32.998Z</time></trkpt><trkpt lat="41.346516665021845" lon="19.834745520427543"><ele>128.0</ele><time>2026-04-29T11:34:35.998Z</time></trkpt><trkpt lat="41.346499085047455" lon="19.83465264223502"><ele>127.2</ele><time>2026-04-29T11:34:38.998Z</time></trkpt><trkpt lat="41.34649685685574" lon="19.834565741240183"><ele>126.4</ele><time>2026-04-29T11:34:41.998Z</time></trkpt><trkpt lat="41.34648554028152" lon="19.834456265016883"><ele>125.60000000000001</ele><time>2026-04-29T11:34:44.999Z</time></trkpt><trkpt lat="41.34646810306042" lon="19.8343469880892"><ele>124.80000000000001</ele><time>2026-04-29T11:34:46.999Z</time></trkpt><trkpt lat="41.34645447249757" lon="19.83416501974008"><ele>124.0</ele><time>2026-04-29T11:34:48.999Z</time></trkpt><trkpt lat="41.34644487554892" lon="19.83403528018034"><ele>123.83333333333334</ele><time>2026-04-29T11:34:49.999Z</time></trkpt><trkpt lat="41.34643567598875" lon="19.833938954745868"><ele>123.66666666666667</ele><time>2026-04-29T11:34:50.999Z</time></trkpt><trkpt lat="41.34642126964436" lon="19.833850229146897"><ele>123.5</ele><time>2026-04-29T11:34:51.999Z</time></trkpt><trkpt lat="41.34640692312829" lon="19.833706938947955"><ele>123.33333333333334</ele><time>2026-04-29T11:34:53.999Z</time></trkpt><trkpt lat="41.34640068074519" lon="19.833617061653616"><ele>123.16666666666667</ele><time>2026-04-29T11:34:55.999Z</time></trkpt><trkpt lat="41.34644680399874" lon="19.83351901543926"><ele>123.0</ele><time>2026-04-29T11:34:58.999Z</time></trkpt><trkpt lat="41.34653191267332" lon="19.833511281118383"><ele>123.0</ele><time>2026-04-29T11:35:00.999Z</time></trkpt><trkpt lat="41.346651624898705" lon="19.83353431540174"><ele>123.00000000000001</ele><time>2026-04-29T11:35:02.999Z</time></trkpt><trkpt lat="41.346761579628414" lon="19.833544837026555"><ele>123.00000000000001</ele><time>2026-04-29T11:35:04.999Z</time></trkpt><trkpt lat="41.34682771626987" lon="19.833542415451404"><ele>123.0</ele><time>2026-04-29T11:35:05.999Z</time></trkpt><trkpt lat="41.34690519215637" lon="19.83354094307459"><ele>123.0</ele><time>2026-04-29T11:35:06.999Z</time></trkpt><trkpt lat="41.34699294697089" lon="19.83353851783935"><ele>123.0</ele><time>2026-04-29T11:35:07.999Z</time></trkpt><trkpt lat="41.347064237520875" lon="19.833532247923113"><ele>123.00000000000001</ele><time>2026-04-29T11:35:08.999Z</time></trkpt><trkpt lat="41.34718189546028" lon="19.833530512899667"><ele>123.00000000000001</ele><time>2026-04-29T11:35:10.999Z</time></trkpt><trkpt lat="41.347281371488094" lon="19.833520770017984"><ele>123.0</ele><time>2026-04-29T11:35:12.999Z</time></trkpt><trkpt lat="41.347361521579856" lon="19.833514470570506"><ele>123.0</ele><time>2026-04-29T11:35:14.999Z</time></trkpt><trkpt lat="41.347500431882814" lon="19.833484424064036"><ele>123.2</ele><time>2026-04-29T11:35:16.999Z</time></trkpt><trkpt lat="41.34759815492877" lon="19.83346144232277"><ele>123.4</ele><time>2026-04-29T11:35:17.999Z</time></trkpt><trkpt lat="41.34770617298656" lon="19.833437768027434"><ele>123.60000000000001</ele><time>2026-04-29T11:35:18.999Z</time></trkpt><trkpt lat="41.34782469027145" lon="19.833412073232626"><ele>123.80000000000001</ele><time>2026-04-29T11:35:19.999Z</time></trkpt><trkpt lat="41.34790024026926" lon="19.83341353355125"><ele>124.0</ele><time>2026-04-29T11:35:20.999Z</time></trkpt><trkpt lat="41.34796587107714" lon="19.833400676040274"><ele>124.00000000000001</ele><time>2026-04-29T11:35:21.999Z</time></trkpt><trkpt lat="41.348031639131754" lon="19.833406659575093"><ele>124.0</ele><time>2026-04-29T11:35:22.999Z</time></trkpt><trkpt lat="41.34810603752474" lon="19.833391456791514"><ele>124.0</ele><time>2026-04-29T11:35:23.999Z</time></trkpt><trkpt lat="41.34816779990604" lon="19.8333559049816"><ele>124.0</ele><time>2026-04-29T11:35:24.999Z</time></trkpt><trkpt lat="41.348248768691185" lon="19.833283305121704"><ele>124.00000000000001</ele><time>2026-04-29T11:35:25.999Z</time></trkpt><trkpt lat="41.34833120611936" lon="19.833212872428636"><ele>124.0</ele><time>2026-04-29T11:35:26.999Z</time></trkpt><trkpt lat="41.34840813710583" lon="19.833181732622805"><ele>123.71428571428572</ele><time>2026-04-29T11:35:27.999Z</time></trkpt><trkpt lat="41.348475164264364" lon="19.833159464035422"><ele>123.42857142857144</ele><time>2026-04-29T11:35:28.999Z</time></trkpt><trkpt lat="41.34854157523091" lon="19.833150490069084"><ele>123.14285714285714</ele><time>2026-04-29T11:35:29.999Z</time></trkpt><trkpt lat="41.34860856367837" lon="19.833127702549607"><ele>122.85714285714286</ele><time>2026-04-29T11:35:30.999Z</time></trkpt><trkpt lat="41.34867201546436" lon="19.833096072441464"><ele>122.57142857142857</ele><time>2026-04-29T11:35:32Z</time></trkpt><trkpt lat="41.34874979816949" lon="19.83307411693576"><ele>122.28571428571428</ele><time>2026-04-29T11:35:33Z</time></trkpt><trkpt lat="41.348829644057155" lon="19.83305753395377"><ele>121.99999999999999</ele><time>2026-04-29T11:35:34Z</time></trkpt><trkpt lat="41.348946411683784" lon="19.833031623621636"><ele>121.99999999999999</ele><time>2026-04-29T11:35:36Z</time></trkpt><trkpt lat="41.34905385725405" lon="19.83299131300655"><ele>122.0</ele><time>2026-04-29T11:35:38Z</time></trkpt><trkpt lat="41.349116581181654" lon="19.83296937354508"><ele>122.0</ele><time>2026-04-29T11:35:39Z</time></trkpt><trkpt lat="41.34918777679766" lon="19.83294344247589"><ele>122.0</ele><time>2026-04-29T11:35:40Z</time></trkpt><trkpt lat="41.349271798589236" lon="19.832917071718406"><ele>121.99999999999999</ele><time>2026-04-29T11:35:41Z</time></trkpt><trkpt lat="41.34934943798974" lon="19.832883423684653"><ele>122.0</ele><time>2026-04-29T11:35:42Z</time></trkpt><trkpt lat="41.349420486229306" lon="19.832869266164895"><ele>122.0</ele><time>2026-04-29T11:35:43Z</time></trkpt><trkpt lat="41.34947286497197" lon="19.83281266221743"><ele>121.99999999999999</ele><time>2026-04-29T11:35:44Z</time></trkpt><trkpt lat="41.349584810601364" lon="19.83275005414484"><ele>121.99999999999999</ele><time>2026-04-29T11:35:46Z</time></trkpt><trkpt lat="41.34968512650417" lon="19.832691785007817"><ele>122.0</ele><time>2026-04-29T11:35:48Z</time></trkpt><trkpt lat="41.34975698382437" lon="19.832667610177324"><ele>122.0</ele><time>2026-04-29T11:35:50Z</time></trkpt><trkpt lat="41.349833218522804" lon="19.83263195323981"><ele>121.8</ele><time>2026-04-29T11:35:52Z</time></trkpt><trkpt lat="41.34992593383044" lon="19.832597736821818"><ele>121.6</ele><time>2026-04-29T11:35:54Z</time></trkpt><trkpt lat="41.350037853911886" lon="19.832571511867865"><ele>121.39999999999999</ele><time>2026-04-29T11:35:56Z</time></trkpt><trkpt lat="41.350131516394995" lon="19.832550114161776"><ele>121.19999999999999</ele><time>2026-04-29T11:35:58Z</time></trkpt><trkpt lat="41.3502485268416" lon="19.832499741269622"><ele>121.0</ele><time>2026-04-29T11:36:00Z</time></trkpt><trkpt lat="41.350311587206534" lon="19.832461551871496"><ele>121.00000000000001</ele><time>2026-04-29T11:36:01Z</time></trkpt><trkpt lat="41.35040643919097" lon="19.832352591058438"><ele>121.0</ele><time>2026-04-29T11:36:03Z</time></trkpt><trkpt lat="41.35044092703568" lon="19.83227267710107"><ele>121.0</ele><time>2026-04-29T11:36:04Z</time></trkpt><trkpt lat="41.35047103313179" lon="19.83219062405999"><ele>121.0</ele><time>2026-04-29T11:36:05Z</time></trkpt><trkpt lat="41.35050147998232" lon="19.832099041977557"><ele>121.00000000000001</ele><time>2026-04-29T11:36:06Z</time></trkpt><trkpt lat="41.35053244811869" lon="19.832007247237097"><ele>121.0</ele><time>2026-04-29T11:36:07Z</time></trkpt><trkpt lat="41.3505620691575" lon="19.83185001612941"><ele>119.83333333333334</ele><time>2026-04-29T11:36:09Z</time></trkpt><trkpt lat="41.35057282907591" lon="19.83176506828445"><ele>118.66666666666667</ele><time>2026-04-29T11:36:10Z</time></trkpt><trkpt lat="41.35057821466594" lon="19.831607771086507"><ele>117.5</ele><time>2026-04-29T11:36:12Z</time></trkpt><trkpt lat="41.3505699283226" lon="19.831507480314897"><ele>116.33333333333334</ele><time>2026-04-29T11:36:13Z</time></trkpt><trkpt lat="41.350561651620275" lon="19.831422560027672"><ele>115.16666666666667</ele><time>2026-04-29T11:36:14Z</time></trkpt><trkpt lat="41.350572070008475" lon="19.831282273372445"><ele>114.0</ele><time>2026-04-29T11:36:16Z</time></trkpt><trkpt lat="41.35062554240657" lon="19.831181626143934"><ele>114.0</ele><time>2026-04-29T11:36:18Z</time></trkpt><trkpt lat="41.35074038319294" lon="19.831118030528938"><ele>114.0</ele><time>2026-04-29T11:36:20Z</time></trkpt><trkpt lat="41.35085199475126" lon="19.83108320579237"><ele>114.0</ele><time>2026-04-29T11:36:22Z</time></trkpt><trkpt lat="41.35091391205874" lon="19.83106626984378"><ele>114.0</ele><time>2026-04-29T11:36:23Z</time></trkpt><trkpt lat="41.350977182533796" lon="19.83105097564684"><ele>114.0</ele><time>2026-04-29T11:36:23.999Z</time></trkpt><trkpt lat="41.351040786264036" lon="19.831032420943405"><ele>114.0</ele><time>2026-04-29T11:36:24.999Z</time></trkpt><trkpt lat="41.35115600238591" lon="19.83101638898028"><ele>114.0</ele><time>2026-04-29T11:36:26.999Z</time></trkpt><trkpt lat="41.351219536948335" lon="19.830980433233997"><ele>114.0</ele><time>2026-04-29T11:36:27.999Z</time></trkpt><trkpt lat="41.351295641990816" lon="19.830887929205048"><ele>114.0</ele><time>2026-04-29T11:36:29.999Z</time></trkpt><trkpt lat="41.35140436708375" lon="19.830842154351465"><ele>114.0</ele><time>2026-04-29T11:36:31.999Z</time></trkpt><trkpt lat="41.35148280286483" lon="19.830820489540184"><ele>114.0</ele><time>2026-04-29T11:36:32.999Z</time></trkpt><trkpt lat="41.351569507170474" lon="19.83079637728974"><ele>113.66666666666667</ele><time>2026-04-29T11:36:33.999Z</time></trkpt><trkpt lat="41.351660131200454" lon="19.830771174981574"><ele>113.33333333333334</ele><time>2026-04-29T11:36:34.999Z</time></trkpt><trkpt lat="41.35173577581209" lon="19.83075045724085"><ele>113.0</ele><time>2026-04-29T11:36:35.999Z</time></trkpt><trkpt lat="41.35181280536162" lon="19.830729355485367"><ele>112.66666666666667</ele><time>2026-04-29T11:36:36.999Z</time></trkpt><trkpt lat="41.35188913114832" lon="19.83070827785733"><ele>112.33333333333334</ele><time>2026-04-29T11:36:37.999Z</time></trkpt><trkpt lat="41.35197041489462" lon="19.830685669135438"><ele>112.0</ele><time>2026-04-29T11:36:38.999Z</time></trkpt><trkpt lat="41.35205312849695" lon="19.83066266270074"><ele>112.00000000000001</ele><time>2026-04-29T11:36:39.999Z</time></trkpt><trkpt lat="41.352136419346046" lon="19.830639066712003"><ele>112.0</ele><time>2026-04-29T11:36:40.999Z</time></trkpt><trkpt lat="41.352200055822045" lon="19.83062196082002"><ele>112.0</ele><time>2026-04-29T11:36:41.999Z</time></trkpt><trkpt lat="41.35226193829318" lon="19.830604968553"><ele>112.0</ele><time>2026-04-29T11:36:42.999Z</time></trkpt><trkpt lat="41.352359162567566" lon="19.830578741807773"><ele>112.00000000000001</ele><time>2026-04-29T11:36:44.999Z</time></trkpt><trkpt lat="41.35245121335982" lon="19.830561742427264"><ele>112.0</ele><time>2026-04-29T11:36:46.999Z</time></trkpt><trkpt lat="41.352568096792325" lon="19.830577057317658"><ele>112.39999999999999</ele><time>2026-04-29T11:36:48.999Z</time></trkpt><trkpt lat="41.35269338999631" lon="19.830534517251152"><ele>112.79999999999998</ele><time>2026-04-29T11:36:51Z</time></trkpt><trkpt lat="41.35278904397854" lon="19.830539116639223"><ele>113.2</ele><time>2026-04-29T11:36:53Z</time></trkpt><trkpt lat="41.35288590632998" lon="19.830521311318833"><ele>113.6</ele><time>2026-04-29T11:36:55Z</time></trkpt><trkpt lat="41.353009822349634" lon="19.830498532968207"><ele>114.0</ele><time>2026-04-29T11:36:57Z</time></trkpt><trkpt lat="41.35307568589668" lon="19.830484343730788"><ele>114.5</ele><time>2026-04-29T11:36:58Z</time></trkpt><trkpt lat="41.35316494995127" lon="19.830459085728023"><ele>115.0</ele><time>2026-04-29T11:37:00Z</time></trkpt><trkpt lat="41.35323932964463" lon="19.830438039380155"><ele>115.5</ele><time>2026-04-29T11:37:02Z</time></trkpt><trkpt lat="41.35331783730838" lon="19.83041582499018"><ele>116.0</ele><time>2026-04-29T11:37:04Z</time></trkpt><trkpt lat="41.353396181553755" lon="19.830393630641648"><ele>116.5</ele><time>2026-04-29T11:37:07Z</time></trkpt><trkpt lat="41.35347284141589" lon="19.83036730376698"><ele>117.0</ele><time>2026-04-29T11:37:11Z</time></trkpt><trkpt lat="41.35353711138114" lon="19.830330766386556"><ele>117.0</ele><time>2026-04-29T11:37:21Z</time></trkpt><trkpt lat="41.35361207327592" lon="19.830335747869576"><ele>116.99999999999999</ele><time>2026-04-29T11:37:27Z</time></trkpt><trkpt lat="41.35361911296359" lon="19.830185932921815"><ele>116.99999999999999</ele><time>2026-04-29T11:37:31Z</time></trkpt><trkpt lat="41.35357536531022" lon="19.830109533520055"><ele>117.0</ele><time>2026-04-29T11:37:32Z</time></trkpt><trkpt lat="41.353545828685164" lon="19.829951922661753"><ele>117.0</ele><time>2026-04-29T11:37:34Z</time></trkpt><trkpt lat="41.35355657226504" lon="19.82980174913608"><ele>118.19999999999999</ele><time>2026-04-29T11:37:36Z</time></trkpt><trkpt lat="41.35353835065848" lon="19.82964788673361"><ele>119.39999999999999</ele><time>2026-04-29T11:37:38Z</time></trkpt><trkpt lat="41.353541866858194" lon="19.829482769328575"><ele>120.60000000000001</ele><time>2026-04-29T11:37:40Z</time></trkpt><trkpt lat="41.35354368006814" lon="19.82933417646912"><ele>121.80000000000001</ele><time>2026-04-29T11:37:42Z</time></trkpt><trkpt lat="41.353543979671194" lon="19.829245469452406"><ele>123.0</ele><time>2026-04-29T11:37:43Z</time></trkpt><trkpt lat="41.353545495340356" lon="19.829145571206137"><ele>123.2</ele><time>2026-04-29T11:37:44Z</time></trkpt><trkpt lat="41.353547089596994" lon="19.829056319842035"><ele>123.4</ele><time>2026-04-29T11:37:45Z</time></trkpt><trkpt lat="41.35355034228305" lon="19.828900323260612"><ele>123.60000000000001</ele><time>2026-04-29T11:37:47.001Z</time></trkpt><trkpt lat="41.35355464449439" lon="19.828734761327926"><ele>123.80000000000001</ele><time>2026-04-29T11:37:49.001Z</time></trkpt><trkpt lat="41.35355418727231" lon="19.82864711740293"><ele>124.0</ele><time>2026-04-29T11:37:50.001Z</time></trkpt><trkpt lat="41.353572460132554" lon="19.828533206597548"><ele>123.75</ele><time>2026-04-29T11:37:51.001Z</time></trkpt><trkpt lat="41.35357584396279" lon="19.828382747729705"><ele>123.5</ele><time>2026-04-29T11:37:52.001Z</time></trkpt><trkpt lat="41.353580062888426" lon="19.828178234001218"><ele>123.25</ele><time>2026-04-29T11:37:53.001Z</time></trkpt><trkpt lat="41.35358363756725" lon="19.82799194045129"><ele>123.0</ele><time>2026-04-29T11:37:54.001Z</time></trkpt><trkpt lat="41.353574328078686" lon="19.827848539200286"><ele>123.0</ele><time>2026-04-29T11:37:55.001Z</time></trkpt><trkpt lat="41.353581064443254" lon="19.827708730598754"><ele>123.00000000000001</ele><time>2026-04-29T11:37:56.001Z</time></trkpt><trkpt lat="41.35359074379632" lon="19.827554473865586"><ele>123.00000000000001</ele><time>2026-04-29T11:37:57.001Z</time></trkpt><trkpt lat="41.35359458452535" lon="19.827430720070172"><ele>123.0</ele><time>2026-04-29T11:37:58.001Z</time></trkpt><trkpt lat="41.35360089174497" lon="19.82730780614746"><ele>123.0</ele><time>2026-04-29T11:37:59.001Z</time></trkpt><trkpt lat="41.35360518531571" lon="19.827197219840595"><ele>122.80000000000001</ele><time>2026-04-29T11:38:00.001Z</time></trkpt><trkpt lat="41.35359891123562" lon="19.827048364444423"><ele>122.60000000000001</ele><time>2026-04-29T11:38:02.001Z</time></trkpt><trkpt lat="41.35361385537565" lon="19.82691395863772"><ele>122.39999999999999</ele><time>2026-04-29T11:38:04.001Z</time></trkpt><trkpt lat="41.35361849398824" lon="19.826772944830775"><ele>122.19999999999999</ele><time>2026-04-29T11:38:06.001Z</time></trkpt><trkpt lat="41.35361028631888" lon="19.826652334299407"><ele>122.0</ele><time>2026-04-29T11:38:08.001Z</time></trkpt><trkpt lat="41.35362333213356" lon="19.826565143914745"><ele>121.6</ele><time>2026-04-29T11:38:11.001Z</time></trkpt><trkpt lat="41.353636097156844" lon="19.826428986478444"><ele>121.19999999999999</ele><time>2026-04-29T11:38:16.001Z</time></trkpt><trkpt lat="41.353641891933094" lon="19.82627061045965"><ele>120.8</ele><time>2026-04-29T11:38:18.001Z</time></trkpt><trkpt lat="41.35364282459746" lon="19.826144674659652"><ele>120.4</ele><time>2026-04-29T11:38:20.001Z</time></trkpt><trkpt lat="41.35364510989574" lon="19.82605123401402"><ele>120.0</ele><time>2026-04-29T11:38:23.001Z</time></trkpt><trkpt lat="41.35365008251117" lon="19.825962487648276"><ele>119.66666666666667</ele><time>2026-04-29T11:38:27.001Z</time></trkpt><trkpt lat="41.353655060972486" lon="19.825862147557782"><ele>119.33333333333334</ele><time>2026-04-29T11:38:30Z</time></trkpt><trkpt lat="41.3536610930695" lon="19.825736507805047"><ele>119.0</ele><time>2026-04-29T11:38:32Z</time></trkpt><trkpt lat="41.3536583369369" lon="19.82560553043275"><ele>118.66666666666667</ele><time>2026-04-29T11:38:34Z</time></trkpt><trkpt lat="41.35366035585303" lon="19.825521285714526"><ele>118.33333333333334</ele><time>2026-04-29T11:38:35Z</time></trkpt><trkpt lat="41.35366635770983" lon="19.82543389300914"><ele>118.0</ele><time>2026-04-29T11:38:36Z</time></trkpt><trkpt lat="41.353674030471396" lon="19.825333821684065"><ele>118.0</ele><time>2026-04-29T11:38:37Z</time></trkpt><trkpt lat="41.35368153602727" lon="19.825236873575797"><ele>118.0</ele><time>2026-04-29T11:38:38Z</time></trkpt><trkpt lat="41.35369572841577" lon="19.82514775372413"><ele>118.0</ele><time>2026-04-29T11:38:39Z</time></trkpt><trkpt lat="41.35371438859179" lon="19.82506266091007"><ele>118.0</ele><time>2026-04-29T11:38:40Z</time></trkpt><trkpt lat="41.3537390930633" lon="19.824960270270164"><ele>118.0</ele><time>2026-04-29T11:38:41Z</time></trkpt><trkpt lat="41.35376738389723" lon="19.82485925743369"><ele>118.0</ele><time>2026-04-29T11:38:42Z</time></trkpt><trkpt lat="41.35378925228007" lon="19.824764170485935"><ele>118.0</ele><time>2026-04-29T11:38:43Z</time></trkpt><trkpt lat="41.35380637251358" lon="19.824671003841047"><ele>117.16666666666667</ele><time>2026-04-29T11:38:44Z</time></trkpt><trkpt lat="41.35383231600839" lon="19.824580306580287"><ele>116.33333333333334</ele><time>2026-04-29T11:38:45Z</time></trkpt><trkpt lat="41.35387176592908" lon="19.82449581180507"><ele>115.5</ele><time>2026-04-29T11:38:46Z</time></trkpt><trkpt lat="41.353901455939884" lon="19.824413414548218"><ele>114.66666666666666</ele><time>2026-04-29T11:38:47Z</time></trkpt><trkpt lat="41.353919472077465" lon="19.824327385215923"><ele>113.83333333333333</ele><time>2026-04-29T11:38:48Z</time></trkpt><trkpt lat="41.35395982875205" lon="19.824181746477084"><ele>113.0</ele><time>2026-04-29T11:38:50Z</time></trkpt><trkpt lat="41.35400097060758" lon="19.824028347590794"><ele>112.2</ele><time>2026-04-29T11:38:52Z</time></trkpt><trkpt lat="41.354021425698285" lon="19.823943147262458"><ele>111.4</ele><time>2026-04-29T11:38:53Z</time></trkpt><trkpt lat="41.35406036492307" lon="19.82380568484588"><ele>110.60000000000001</ele><time>2026-04-29T11:38:55Z</time></trkpt><trkpt lat="41.35412819899659" lon="19.82368162187836"><ele>109.80000000000001</ele><time>2026-04-29T11:38:57Z</time></trkpt><trkpt lat="41.35424620088312" lon="19.823595445404056"><ele>109.0</ele><time>2026-04-29T11:38:59Z</time></trkpt><trkpt lat="41.35436486466508" lon="19.82354332483575"><ele>109.0</ele><time>2026-04-29T11:39:00Z</time></trkpt><trkpt lat="41.354474370030076" lon="19.823493546418224"><ele>109.0</ele><time>2026-04-29T11:39:01Z</time></trkpt><trkpt lat="41.354576686050805" lon="19.823451637432438"><ele>109.0</ele><time>2026-04-29T11:39:02Z</time></trkpt><trkpt lat="41.35465039669976" lon="19.82342210833576"><ele>109.0</ele><time>2026-04-29T11:39:03Z</time></trkpt><trkpt lat="41.35473356932877" lon="19.823423906757863"><ele>109.0</ele><time>2026-04-29T11:39:04Z</time></trkpt><trkpt lat="41.354814313133" lon="19.82340160072882"><ele>110.80000000000001</ele><time>2026-04-29T11:39:05Z</time></trkpt><trkpt lat="41.354894597663495" lon="19.823377342196654"><ele>112.60000000000001</ele><time>2026-04-29T11:39:06Z</time></trkpt><trkpt lat="41.35497596781829" lon="19.823327054591022"><ele>114.4</ele><time>2026-04-29T11:39:07Z</time></trkpt><trkpt lat="41.35506970151132" lon="19.823290377508577"><ele>116.2</ele><time>2026-04-29T11:39:08Z</time></trkpt><trkpt lat="41.355177390656465" lon="19.823240856672797"><ele>118.0</ele><time>2026-04-29T11:39:09Z</time></trkpt><trkpt lat="41.35529912363178" lon="19.82320417908267"><ele>118.0</ele><time>2026-04-29T11:39:10Z</time></trkpt><trkpt lat="41.35540775319593" lon="19.82313174687462"><ele>118.00000000000001</ele><time>2026-04-29T11:39:11Z</time></trkpt><trkpt lat="41.355497744558285" lon="19.82309681860322"><ele>118.00000000000001</ele><time>2026-04-29T11:39:12Z</time></trkpt><trkpt lat="41.355574297559016" lon="19.82307365566448"><ele>118.0</ele><time>2026-04-29T11:39:13Z</time></trkpt><trkpt lat="41.355640579290124" lon="19.823051347301316"><ele>118.0</ele><time>2026-04-29T11:39:14Z</time></trkpt><trkpt lat="41.35574996637327" lon="19.823018836293585"><ele>119.2</ele><time>2026-04-29T11:39:16Z</time></trkpt><trkpt lat="41.35582340363192" lon="19.823014827892735"><ele>120.4</ele><time>2026-04-29T11:39:17Z</time></trkpt><trkpt lat="41.35591302123546" lon="19.82300735201457"><ele>121.60000000000001</ele><time>2026-04-29T11:39:18Z</time></trkpt><trkpt lat="41.3560119486301" lon="19.822998860626697"><ele>122.80000000000001</ele><time>2026-04-29T11:39:19.001Z</time></trkpt><trkpt lat="41.356123193775574" lon="19.82298180700263"><ele>124.0</ele><time>2026-04-29T11:39:20.001Z</time></trkpt><trkpt lat="41.35623962697439" lon="19.822951405198737"><ele>124.0</ele><time>2026-04-29T11:39:21.001Z</time></trkpt><trkpt lat="41.356358265487344" lon="19.822923006182606"><ele>124.0</ele><time>2026-04-29T11:39:22.001Z</time></trkpt><trkpt lat="41.356472521953094" lon="19.822884706316774"><ele>124.0</ele><time>2026-04-29T11:39:23.001Z</time></trkpt><trkpt lat="41.356585171069085" lon="19.82285224725006"><ele>124.0</ele><time>2026-04-29T11:39:24.001Z</time></trkpt><trkpt lat="41.35668653904711" lon="19.822818295134986"><ele>125.4</ele><time>2026-04-29T11:39:25.001Z</time></trkpt><trkpt lat="41.356780258254155" lon="19.822785300784947"><ele>126.80000000000001</ele><time>2026-04-29T11:39:26.001Z</time></trkpt><trkpt lat="41.3568769122851" lon="19.822752805941423"><ele>128.2</ele><time>2026-04-29T11:39:27.001Z</time></trkpt><trkpt lat="41.35697651483384" lon="19.822714849410215"><ele>129.6</ele><time>2026-04-29T11:39:28.001Z</time></trkpt><trkpt lat="41.3570811802192" lon="19.822683867127026"><ele>131.0</ele><time>2026-04-29T11:39:29.001Z</time></trkpt><trkpt lat="41.35718671099559" lon="19.822659375789968"><ele>132.4</ele><time>2026-04-29T11:39:30.001Z</time></trkpt><trkpt lat="41.35729012354277" lon="19.82262580802448"><ele>133.8</ele><time>2026-04-29T11:39:31.001Z</time></trkpt><trkpt lat="41.35739249296795" lon="19.82258843235492"><ele>135.20000000000002</ele><time>2026-04-29T11:39:32.001Z</time></trkpt><trkpt lat="41.35749538252705" lon="19.822550912441958"><ele>136.6</ele><time>2026-04-29T11:39:33.001Z</time></trkpt><trkpt lat="41.35758548225794" lon="19.822513905703524"><ele>138.0</ele><time>2026-04-29T11:39:34.001Z</time></trkpt><trkpt lat="41.357672780918655" lon="19.822483456409557"><ele>138.0</ele><time>2026-04-29T11:39:35.001Z</time></trkpt><trkpt lat="41.357766934332176" lon="19.82245564272145"><ele>138.0</ele><time>2026-04-29T11:39:36.001Z</time></trkpt><trkpt lat="41.35786666417619" lon="19.82244061419045"><ele>138.0</ele><time>2026-04-29T11:39:37.001Z</time></trkpt><trkpt lat="41.357971625477184" lon="19.822439898218757"><ele>138.0</ele><time>2026-04-29T11:39:38.001Z</time></trkpt><trkpt lat="41.35808517517154" lon="19.82244398664073"><ele>138.0</ele><time>2026-04-29T11:39:39.001Z</time></trkpt><trkpt lat="41.35820264445884" lon="19.8224569930247"><ele>139.0</ele><time>2026-04-29T11:39:40.001Z</time></trkpt><trkpt lat="41.35832003599066" lon="19.822479305420263"><ele>140.0</ele><time>2026-04-29T11:39:41.001Z</time></trkpt><trkpt lat="41.35844241967504" lon="19.822493192088494"><ele>141.0</ele><time>2026-04-29T11:39:42.001Z</time></trkpt><trkpt lat="41.35856418930476" lon="19.82250308382983"><ele>142.0</ele><time>2026-04-29T11:39:43.001Z</time></trkpt><trkpt lat="41.35869016914091" lon="19.82250894615685"><ele>142.0</ele><time>2026-04-29T11:39:44.001Z</time></trkpt><trkpt lat="41.35881349369196" lon="19.822537740009732"><ele>142.0</ele><time>2026-04-29T11:39:45.001Z</time></trkpt><trkpt lat="41.35894646104838" lon="19.822551217801497"><ele>142.0</ele><time>2026-04-29T11:39:46.001Z</time></trkpt><trkpt lat="41.3590836349435" lon="19.822545948962507"><ele>142.0</ele><time>2026-04-29T11:39:47.001Z</time></trkpt><trkpt lat="41.35922713852551" lon="19.822564595860708"><ele>143.0</ele><time>2026-04-29T11:39:48.001Z</time></trkpt><trkpt lat="41.35937542423922" lon="19.822582004249995"><ele>144.0</ele><time>2026-04-29T11:39:49.001Z</time></trkpt><trkpt lat="41.359525800052694" lon="19.822601645734736"><ele>145.0</ele><time>2026-04-29T11:39:50.001Z</time></trkpt><trkpt lat="41.359681508374436" lon="19.82262193714999"><ele>145.75</ele><time>2026-04-29T11:39:51.001Z</time></trkpt><trkpt lat="41.3598242731969" lon="19.822642884624923"><ele>146.5</ele><time>2026-04-29T11:39:52.001Z</time></trkpt><trkpt lat="41.359948336312435" lon="19.82265400833628"><ele>147.25</ele><time>2026-04-29T11:39:53.001Z</time></trkpt><trkpt lat="41.36005800218822" lon="19.82266510820847"><ele>148.0</ele><time>2026-04-29T11:39:54.001Z</time></trkpt><trkpt lat="41.360162791904926" lon="19.822675386916625"><ele>147.83333333333334</ele><time>2026-04-29T11:39:55.001Z</time></trkpt><trkpt lat="41.36025507603132" lon="19.822685898775923"><ele>147.66666666666669</ele><time>2026-04-29T11:39:56.001Z</time></trkpt><trkpt lat="41.3603361694283" lon="19.822697330689056"><ele>147.5</ele><time>2026-04-29T11:39:57.001Z</time></trkpt><trkpt lat="41.36041227023612" lon="19.822705473603563"><ele>147.33333333333334</ele><time>2026-04-29T11:39:58.001Z</time></trkpt><trkpt lat="41.36048200512067" lon="19.822704950863944"><ele>147.16666666666666</ele><time>2026-04-29T11:39:59.001Z</time></trkpt><trkpt lat="41.36055920881261" lon="19.8227299796063"><ele>147.0</ele><time>2026-04-29T11:40:00.001Z</time></trkpt><trkpt lat="41.36065572495585" lon="19.82274343982902"><ele>147.0</ele><time>2026-04-29T11:40:01.001Z</time></trkpt><trkpt lat="41.360746514801114" lon="19.82274222844039"><ele>147.0</ele><time>2026-04-29T11:40:02.001Z</time></trkpt><trkpt lat="41.3608557218648" lon="19.82275169939848"><ele>147.0</ele><time>2026-04-29T11:40:03.001Z</time></trkpt><trkpt lat="41.360975294335255" lon="19.822783543424393"><ele>147.0</ele><time>2026-04-29T11:40:04.001Z</time></trkpt><trkpt lat="41.36109530664797" lon="19.822769987601433"><ele>147.0</ele><time>2026-04-29T11:40:05.001Z</time></trkpt><trkpt lat="41.361191780376515" lon="19.82277612593105"><ele>147.0</ele><time>2026-04-29T11:40:06.001Z</time></trkpt><trkpt lat="41.36128198141715" lon="19.82276804717515"><ele>147.0</ele><time>2026-04-29T11:40:07.001Z</time></trkpt><trkpt lat="41.3613745898494" lon="19.822758933242447"><ele>147.0</ele><time>2026-04-29T11:40:08.001Z</time></trkpt><trkpt lat="41.36146802186293" lon="19.82275429450892"><ele>147.0</ele><time>2026-04-29T11:40:09.001Z</time></trkpt><trkpt lat="41.361568375212684" lon="19.82274790082656"><ele>147.0</ele><time>2026-04-29T11:40:10.001Z</time></trkpt><trkpt lat="41.361663927241004" lon="19.822741408488245"><ele>147.4</ele><time>2026-04-29T11:40:11.001Z</time></trkpt><trkpt lat="41.36175764042831" lon="19.822727600651255"><ele>147.79999999999998</ele><time>2026-04-29T11:40:12.001Z</time></trkpt><trkpt lat="41.36185694737116" lon="19.822734470180677"><ele>148.2</ele><time>2026-04-29T11:40:13.001Z</time></trkpt><trkpt lat="41.361972235677904" lon="19.822709086005993"><ele>148.6</ele><time>2026-04-29T11:40:14.001Z</time></trkpt><trkpt lat="41.36210301450717" lon="19.82270399931037"><ele>149.0</ele><time>2026-04-29T11:40:15.001Z</time></trkpt><trkpt lat="41.36227776917301" lon="19.822686843185114"><ele>150.5</ele><time>2026-04-29T11:40:16.001Z</time></trkpt><trkpt lat="41.362454203672435" lon="19.822670948163122"><ele>152.0</ele><time>2026-04-29T11:40:17.001Z</time></trkpt><trkpt lat="41.362590492110165" lon="19.822657506086845"><ele>153.5</ele><time>2026-04-29T11:40:18.001Z</time></trkpt><trkpt lat="41.36271042774345" lon="19.822648020377564"><ele>155.0</ele><time>2026-04-29T11:40:19.001Z</time></trkpt><trkpt lat="41.362813105968335" lon="19.82263703623651"><ele>155.0</ele><time>2026-04-29T11:40:20.001Z</time></trkpt><trkpt lat="41.36290097581604" lon="19.822634822821428"><ele>155.0</ele><time>2026-04-29T11:40:21.001Z</time></trkpt><trkpt lat="41.36298504390043" lon="19.8226426915365"><ele>155.0</ele><time>2026-04-29T11:40:22.001Z</time></trkpt><trkpt lat="41.3630823336687" lon="19.822645208581122"><ele>155.0</ele><time>2026-04-29T11:40:23.001Z</time></trkpt><trkpt lat="41.36322379655882" lon="19.82264148388165"><ele>155.0</ele><time>2026-04-29T11:40:24.001Z</time></trkpt><trkpt lat="41.363420912570554" lon="19.822666281587942"><ele>155.0</ele><time>2026-04-29T11:40:25.001Z</time></trkpt><trkpt lat="41.363603604496866" lon="19.822691090932736"><ele>155.0</ele><time>2026-04-29T11:40:26.001Z</time></trkpt><trkpt lat="41.36376094279389" lon="19.822717367715025"><ele>155.0</ele><time>2026-04-29T11:40:27.001Z</time></trkpt><trkpt lat="41.36390469692986" lon="19.82274152717301"><ele>155.0</ele><time>2026-04-29T11:40:28.001Z</time></trkpt><trkpt lat="41.36404137382839" lon="19.822763974344383"><ele>155.0</ele><time>2026-04-29T11:40:29.001Z</time></trkpt><trkpt lat="41.364167654563786" lon="19.822789730034394"><ele>155.0</ele><time>2026-04-29T11:40:30.002Z</time></trkpt><trkpt lat="41.36430124355822" lon="19.822820051114306"><ele>155.0</ele><time>2026-04-29T11:40:31.002Z</time></trkpt><trkpt lat="41.3644442778779" lon="19.822850772668275"><ele>155.0</ele><time>2026-04-29T11:40:32.002Z</time></trkpt><trkpt lat="41.364589422609995" lon="19.822877467955834"><ele>155.0</ele><time>2026-04-29T11:40:33.002Z</time></trkpt><trkpt lat="41.364709971995765" lon="19.822899248054217"><ele>155.0</ele><time>2026-04-29T11:40:34.002Z</time></trkpt><trkpt lat="41.36482402059663" lon="19.82292033316896"><ele>155.0</ele><time>2026-04-29T11:40:35.002Z</time></trkpt><trkpt lat="41.364945736557985" lon="19.822944075762624"><ele>158.75</ele><time>2026-04-29T11:40:36.001Z</time></trkpt><trkpt lat="41.36507318956525" lon="19.82297004591975"><ele>162.5</ele><time>2026-04-29T11:40:37.001Z</time></trkpt><trkpt lat="41.36519988606726" lon="19.82300082661222"><ele>166.25</ele><time>2026-04-29T11:40:38.001Z</time></trkpt><trkpt lat="41.36533390969969" lon="19.82301680783048"><ele>170.0</ele><time>2026-04-29T11:40:39.001Z</time></trkpt><trkpt lat="41.365463109144336" lon="19.823053615801918"><ele>171.25</ele><time>2026-04-29T11:40:40.001Z</time></trkpt><trkpt lat="41.365595143142535" lon="19.823078687658427"><ele>172.5</ele><time>2026-04-29T11:40:41.001Z</time></trkpt><trkpt lat="41.36573467262229" lon="19.823084891904607"><ele>173.75</ele><time>2026-04-29T11:40:42.001Z</time></trkpt><trkpt lat="41.36587202861419" lon="19.823066798538854"><ele>175.0</ele><time>2026-04-29T11:40:43.001Z</time></trkpt><trkpt lat="41.365989951669725" lon="19.823030897118475"><ele>175.0</ele><time>2026-04-29T11:40:44.001Z</time></trkpt><trkpt lat="41.36609271932088" lon="19.822978977281714"><ele>175.0</ele><time>2026-04-29T11:40:45.001Z</time></trkpt><trkpt lat="41.366208419361676" lon="19.822898590696894"><ele>175.0</ele><time>2026-04-29T11:40:46.001Z</time></trkpt><trkpt lat="41.366337597292336" lon="19.822807861320502"><ele>175.0</ele><time>2026-04-29T11:40:47.001Z</time></trkpt><trkpt lat="41.36645332511197" lon="19.822740094545058"><ele>175.0</ele><time>2026-04-29T11:40:48.001Z</time></trkpt><trkpt lat="41.36652989137059" lon="19.822670202908792"><ele>175.0</ele><time>2026-04-29T11:40:49.001Z</time></trkpt><trkpt lat="41.36657846645272" lon="19.82257945538997"><ele>175.0</ele><time>2026-04-29T11:40:51.001Z</time></trkpt><trkpt lat="41.36664495282588" lon="19.82262755051435"><ele>175.0</ele><time>2026-04-29T11:40:54.001Z</time></trkpt><trkpt lat="41.36668159062925" lon="19.822710391763845"><ele>175.0</ele><time>2026-04-29T11:40:55.001Z</time></trkpt><trkpt lat="41.36678462459708" lon="19.822684933554008"><ele>175.0</ele><time>2026-04-29T11:40:57.001Z</time></trkpt><trkpt lat="41.36686820244825" lon="19.822698221429057"><ele>175.0</ele><time>2026-04-29T11:40:58.001Z</time></trkpt><trkpt lat="41.366975224481756" lon="19.82269354146459"><ele>175.0</ele><time>2026-04-29T11:40:59.001Z</time></trkpt><trkpt lat="41.36707989114315" lon="19.822701853245984"><ele>175.0</ele><time>2026-04-29T11:41:00.001Z</time></trkpt><trkpt lat="41.36719160937798" lon="19.822729211409882"><ele>175.0</ele><time>2026-04-29T11:41:01.001Z</time></trkpt><trkpt lat="41.367302689609346" lon="19.822773532002756"><ele>175.0</ele><time>2026-04-29T11:41:02.001Z</time></trkpt><trkpt lat="41.36740570470833" lon="19.82282173945726"><ele>176.75</ele><time>2026-04-29T11:41:03.001Z</time></trkpt><trkpt lat="41.36751918904536" lon="19.82289019609365"><ele>178.5</ele><time>2026-04-29T11:41:04.001Z</time></trkpt><trkpt lat="41.36764063110787" lon="19.822959338012403"><ele>180.25</ele><time>2026-04-29T11:41:05.001Z</time></trkpt><trkpt lat="41.36775467085414" lon="19.82305624589561"><ele>182.0</ele><time>2026-04-29T11:41:06.001Z</time></trkpt><trkpt lat="41.36785515206073" lon="19.82315945296245"><ele>182.0</ele><time>2026-04-29T11:41:07.001Z</time></trkpt><trkpt lat="41.36795905018957" lon="19.823195332284428"><ele>182.0</ele><time>2026-04-29T11:41:08.001Z</time></trkpt><trkpt lat="41.36804626817678" lon="19.82323030553943"><ele>182.0</ele><time>2026-04-29T11:41:09.001Z</time></trkpt><trkpt lat="41.368133253288505" lon="19.823289076932223"><ele>182.0</ele><time>2026-04-29T11:41:10.001Z</time></trkpt><trkpt lat="41.368237005438274" lon="19.82329790655431"><ele>182.0</ele><time>2026-04-29T11:41:11.001Z</time></trkpt><trkpt lat="41.368333422124664" lon="19.823237214260836"><ele>181.5</ele><time>2026-04-29T11:41:12.001Z</time></trkpt><trkpt lat="41.368426903023035" lon="19.82317053060177"><ele>181.0</ele><time>2026-04-29T11:41:13.001Z</time></trkpt><trkpt lat="41.36854800864191" lon="19.82307374098407"><ele>180.5</ele><time>2026-04-29T11:41:14.001Z</time></trkpt><trkpt lat="41.36869811150652" lon="19.822965954841667"><ele>180.0</ele><time>2026-04-29T11:41:15.001Z</time></trkpt><trkpt lat="41.36886878206429" lon="19.822859824996392"><ele>180.0</ele><time>2026-04-29T11:41:16.001Z</time></trkpt><trkpt lat="41.3690633103983" lon="19.822802191936162"><ele>180.0</ele><time>2026-04-29T11:41:17.001Z</time></trkpt><trkpt lat="41.36923207142151" lon="19.82271069532291"><ele>180.0</ele><time>2026-04-29T11:41:18.001Z</time></trkpt><trkpt lat="41.369373324604766" lon="19.822662088320946"><ele>180.0</ele><time>2026-04-29T11:41:19.001Z</time></trkpt><trkpt lat="41.369490092304595" lon="19.822627978016197"><ele>180.0</ele><time>2026-04-29T11:41:20.001Z</time></trkpt><trkpt lat="41.36959477338003" lon="19.822624690320456"><ele>180.0</ele><time>2026-04-29T11:41:21.001Z</time></trkpt><trkpt lat="41.369684566736545" lon="19.822703345045756"><ele>180.0</ele><time>2026-04-29T11:41:22.001Z</time></trkpt><trkpt lat="41.369791652191616" lon="19.82276378677215"><ele>180.0</ele><time>2026-04-29T11:41:23.001Z</time></trkpt><trkpt lat="41.369903840509856" lon="19.822832965120856"><ele>181.2</ele><time>2026-04-29T11:41:24.001Z</time></trkpt><trkpt lat="41.37002367508745" lon="19.822908234051877"><ele>182.4</ele><time>2026-04-29T11:41:25.001Z</time></trkpt><trkpt lat="41.37013620308025" lon="19.822988719549247"><ele>183.60000000000002</ele><time>2026-04-29T11:41:26.001Z</time></trkpt><trkpt lat="41.37023740892488" lon="19.823024314264384"><ele>184.8</ele><time>2026-04-29T11:41:27.001Z</time></trkpt><trkpt lat="41.37031423826826" lon="19.82306906400923"><ele>186.0</ele><time>2026-04-29T11:41:28.001Z</time></trkpt><trkpt lat="41.37037408642927" lon="19.82310804827181"><ele>186.0</ele><time>2026-04-29T11:41:29.001Z</time></trkpt><trkpt lat="41.37043097570756" lon="19.82314650117648"><ele>186.0</ele><time>2026-04-29T11:41:31.001Z</time></trkpt><trkpt lat="41.3704983181658" lon="19.823184237315647"><ele>186.0</ele><time>2026-04-29T11:41:35.001Z</time></trkpt><trkpt lat="41.37057867417508" lon="19.8232495687495"><ele>186.0</ele><time>2026-04-29T11:41:39.001Z</time></trkpt><trkpt lat="41.37065178792973" lon="19.823311736969593"><ele>186.0</ele><time>2026-04-29T11:41:42.001Z</time></trkpt><trkpt lat="41.37071677398246" lon="19.823373247992457"><ele>186.0</ele><time>2026-04-29T11:41:45.001Z</time></trkpt><trkpt lat="41.37077225961007" lon="19.823414961820653"><ele>186.33333333333334</ele><time>2026-04-29T11:41:47.001Z</time></trkpt><trkpt lat="41.370829882657205" lon="19.823458366201802"><ele>186.66666666666666</ele><time>2026-04-29T11:41:49.001Z</time></trkpt><trkpt lat="41.37089879784573" lon="19.823510276337174"><ele>187.0</ele><time>2026-04-29T11:41:51.001Z</time></trkpt><trkpt lat="41.37098765392218" lon="19.82357720688643"><ele>187.33333333333331</ele><time>2026-04-29T11:41:53.001Z</time></trkpt><trkpt lat="41.37105783456953" lon="19.823617580064024"><ele>187.66666666666666</ele><time>2026-04-29T11:41:55.001Z</time></trkpt><trkpt lat="41.37114677527057" lon="19.823680824419675"><ele>188.0</ele><time>2026-04-29T11:41:58.001Z</time></trkpt><trkpt lat="41.37122765508763" lon="19.823735448040168"><ele>188.0</ele><time>2026-04-29T11:42:00.001Z</time></trkpt><trkpt lat="41.371329522968786" lon="19.823815694831993"><ele>188.0</ele><time>2026-04-29T11:42:02.001Z</time></trkpt><trkpt lat="41.371391814684735" lon="19.823863562266162"><ele>188.0</ele><time>2026-04-29T11:42:03.001Z</time></trkpt><trkpt lat="41.37145491564579" lon="19.823911871118973"><ele>188.0</ele><time>2026-04-29T11:42:04.001Z</time></trkpt><trkpt lat="41.37152885875206" lon="19.823967784456446"><ele>188.0</ele><time>2026-04-29T11:42:05.001Z</time></trkpt><trkpt lat="41.37160692079886" lon="19.824029537696337"><ele>188.0</ele><time>2026-04-29T11:42:06.001Z</time></trkpt><trkpt lat="41.37168923019645" lon="19.824098084706577"><ele>187.4</ele><time>2026-04-29T11:42:07.001Z</time></trkpt><trkpt lat="41.371777695308126" lon="19.82417288166138"><ele>186.8</ele><time>2026-04-29T11:42:08.001Z</time></trkpt><trkpt lat="41.3718752018336" lon="19.824245090187176"><ele>186.2</ele><time>2026-04-29T11:42:09.001Z</time></trkpt><trkpt lat="41.37197311108514" lon="19.824313192211182"><ele>185.6</ele><time>2026-04-29T11:42:10.001Z</time></trkpt><trkpt lat="41.37206954596086" lon="19.824374028883245"><ele>185.0</ele><time>2026-04-29T11:42:11.001Z</time></trkpt><trkpt lat="41.372158415845924" lon="19.82444550720493"><ele>185.6</ele><time>2026-04-29T11:42:12.001Z</time></trkpt><trkpt lat="41.37224257554812" lon="19.824486696212045"><ele>186.2</ele><time>2026-04-29T11:42:13.001Z</time></trkpt><trkpt lat="41.37232821137138" lon="19.824517814887734"><ele>186.8</ele><time>2026-04-29T11:42:14.001Z</time></trkpt><trkpt lat="41.37242307078579" lon="19.82454127023064"><ele>187.4</ele><time>2026-04-29T11:42:15.001Z</time></trkpt><trkpt lat="41.37252236724604" lon="19.824547886708746"><ele>188.0</ele><time>2026-04-29T11:42:16.002Z</time></trkpt><trkpt lat="41.37261569071775" lon="19.82457441596452"><ele>188.0</ele><time>2026-04-29T11:42:17.002Z</time></trkpt><trkpt lat="41.37270575355305" lon="19.824593594945398"><ele>188.0</ele><time>2026-04-29T11:42:18.002Z</time></trkpt><trkpt lat="41.37279174158704" lon="19.824611789823138"><ele>188.0</ele><time>2026-04-29T11:42:19.002Z</time></trkpt><trkpt lat="41.372871884097904" lon="19.82463474631072"><ele>188.0</ele><time>2026-04-29T11:42:20.002Z</time></trkpt><trkpt lat="41.37294758831491" lon="19.824658212460264"><ele>188.0</ele><time>2026-04-29T11:42:21.002Z</time></trkpt><trkpt lat="41.373023393788664" lon="19.824682834099235"><ele>188.0</ele><time>2026-04-29T11:42:22.002Z</time></trkpt><trkpt lat="41.37309566805561" lon="19.824737325795166"><ele>186.60000000000002</ele><time>2026-04-29T11:42:23.002Z</time></trkpt><trkpt lat="41.373169624604664" lon="19.824791932657483"><ele>185.20000000000002</ele><time>2026-04-29T11:42:24.002Z</time></trkpt><trkpt lat="41.37324436297126" lon="19.824816468712346"><ele>183.8</ele><time>2026-04-29T11:42:25.002Z</time></trkpt><trkpt lat="41.373291684023016" lon="19.824887246993313"><ele>182.4</ele><time>2026-04-29T11:42:26.002Z</time></trkpt><trkpt lat="41.373383615618344" lon="19.824963597724384"><ele>181.0</ele><time>2026-04-29T11:42:28.002Z</time></trkpt><trkpt lat="41.37372021076962" lon="19.824719140694974"><ele>181.0</ele><time>2026-04-29T11:42:30.002Z</time></trkpt><trkpt lat="41.373849702197965" lon="19.824696656421196"><ele>181.0</ele><time>2026-04-29T11:42:31.002Z</time></trkpt><trkpt lat="41.37399280609059" lon="19.82466778089503"><ele>181.0</ele><time>2026-04-29T11:42:32.002Z</time></trkpt><trkpt lat="41.37415762465675" lon="19.824639092628946"><ele>181.0</ele><time>2026-04-29T11:42:33.002Z</time></trkpt><trkpt lat="41.37432354972245" lon="19.824577949275245"><ele>179.66666666666669</ele><time>2026-04-29T11:42:34.002Z</time></trkpt><trkpt lat="41.374486789923225" lon="19.824473825009207"><ele>178.33333333333334</ele><time>2026-04-29T11:42:35.002Z</time></trkpt><trkpt lat="41.374651529101016" lon="19.82436404325241"><ele>177.0</ele><time>2026-04-29T11:42:36.002Z</time></trkpt><trkpt lat="41.37400644982294" lon="19.82593217847307"><ele>176.2</ele><time>2026-04-29T11:42:37.002Z</time></trkpt><trkpt lat="41.37406197821839" lon="19.82605345899954"><ele>175.39999999999998</ele><time>2026-04-29T11:42:38.002Z</time></trkpt><trkpt lat="41.37413445475053" lon="19.82617236274138"><ele>174.60000000000002</ele><time>2026-04-29T11:42:39.002Z</time></trkpt><trkpt lat="41.37421334517141" lon="19.8262852473043"><ele>173.8</ele><time>2026-04-29T11:42:40.002Z</time></trkpt><trkpt lat="41.37428808772521" lon="19.826385488614903"><ele>173.0</ele><time>2026-04-29T11:42:41.002Z</time></trkpt><trkpt lat="41.3743732237896" lon="19.82649348989618"><ele>173.0</ele><time>2026-04-29T11:42:42.001Z</time></trkpt><trkpt lat="41.3744669346113" lon="19.826609067383924"><ele>173.0</ele><time>2026-04-29T11:42:43.001Z</time></trkpt><trkpt lat="41.374575748954165" lon="19.826733145689897"><ele>173.0</ele><time>2026-04-29T11:42:44.001Z</time></trkpt><trkpt lat="41.37468246862706" lon="19.826858924106634"><ele>173.0</ele><time>2026-04-29T11:42:45.001Z</time></trkpt><trkpt lat="41.374781415555994" lon="19.82695265751643"><ele>172.66666666666666</ele><time>2026-04-29T11:42:46.001Z</time></trkpt><trkpt lat="41.374864871032464" lon="19.827041208352746"><ele>172.33333333333331</ele><time>2026-04-29T11:42:47.001Z</time></trkpt><trkpt lat="41.37492296206685" lon="19.82710429730706"><ele>172.0</ele><time>2026-04-29T11:42:48.001Z</time></trkpt><trkpt lat="41.374982029060014" lon="19.827160682424495"><ele>171.66666666666666</ele><time>2026-04-29T11:42:49.001Z</time></trkpt><trkpt lat="41.37504947782761" lon="19.827231907256692"><ele>171.33333333333334</ele><time>2026-04-29T11:42:51.001Z</time></trkpt><trkpt lat="41.375124083723115" lon="19.82715975735636"><ele>171.0</ele><time>2026-04-29T11:42:54.001Z</time></trkpt><trkpt lat="41.37517814126947" lon="19.82704110958559"><ele>171.0</ele><time>2026-04-29T11:42:56.001Z</time></trkpt><trkpt lat="41.3751792373191" lon="19.82689126640522"><ele>171.0</ele><time>2026-04-29T11:42:58.001Z</time></trkpt><trkpt lat="41.37516717967965" lon="19.826797732167908"><ele>171.0</ele><time>2026-04-29T11:42:59.001Z</time></trkpt><trkpt lat="41.37514617666841" lon="19.826698364513774"><ele>171.0</ele><time>2026-04-29T11:43:00.001Z</time></trkpt><trkpt lat="41.375124333410575" lon="19.82661437731833"><ele>171.0</ele><time>2026-04-29T11:43:01.001Z</time></trkpt><trkpt lat="41.3750732214984" lon="19.826466247831757"><ele>170.83333333333334</ele><time>2026-04-29T11:43:03.001Z</time></trkpt><trkpt lat="41.37504756991388" lon="19.82636393159741"><ele>170.66666666666666</ele><time>2026-04-29T11:43:04.001Z</time></trkpt><trkpt lat="41.375023587319575" lon="19.826253594794515"><ele>170.5</ele><time>2026-04-29T11:43:05.001Z</time></trkpt><trkpt lat="41.37500609312029" lon="19.826170696540597"><ele>170.33333333333331</ele><time>2026-04-29T11:43:06.001Z</time></trkpt><trkpt lat="41.37495040262824" lon="19.8260168266417"><ele>170.16666666666666</ele><time>2026-04-29T11:43:08.001Z</time></trkpt><trkpt lat="41.37490607395999" lon="19.825937668509557"><ele>170.0</ele><time>2026-04-29T11:43:09.001Z</time></trkpt><trkpt lat="41.37483507322789" lon="19.825831454953907"><ele>171.4</ele><time>2026-04-29T11:43:11.001Z</time></trkpt><trkpt lat="41.374783808303626" lon="19.825703588982694"><ele>172.8</ele><time>2026-04-29T11:43:13.001Z</time></trkpt><trkpt lat="41.37472787844095" lon="19.8256111136551"><ele>174.2</ele><time>2026-04-29T11:43:14.001Z</time></trkpt><trkpt lat="41.374682787865396" lon="19.825496291048115"><ele>175.6</ele><time>2026-04-29T11:43:15.001Z</time></trkpt><trkpt lat="41.374640963528655" lon="19.82540305205333"><ele>177.0</ele><time>2026-04-29T11:43:16.001Z</time></trkpt><trkpt lat="41.374588668886446" lon="19.825290716240627"><ele>177.0</ele><time>2026-04-29T11:43:18.001Z</time></trkpt><trkpt lat="41.37454463023536" lon="19.825164466218162"><ele>177.0</ele><time>2026-04-29T11:43:21.001Z</time></trkpt><trkpt lat="41.37455372367968" lon="19.82500188932888"><ele>177.0</ele><time>2026-04-29T11:43:23.001Z</time></trkpt><trkpt lat="41.37455108320159" lon="19.82490256146794"><ele>177.0</ele><time>2026-04-29T11:43:24.001Z</time></trkpt><trkpt lat="41.374531021196304" lon="19.824794613858526"><ele>177.0</ele><time>2026-04-29T11:43:25.001Z</time></trkpt><trkpt lat="41.37451186115999" lon="19.824656130546042"><ele>176.6</ele><time>2026-04-29T11:43:27.001Z</time></trkpt><trkpt lat="41.37448007982375" lon="19.82451039369496"><ele>176.2</ele><time>2026-04-29T11:43:29.001Z</time></trkpt><trkpt lat="41.374442734818" lon="19.82435931784735"><ele>175.8</ele><time>2026-04-29T11:43:31.001Z</time></trkpt><trkpt lat="41.37441608045306" lon="19.824269846533294"><ele>175.4</ele><time>2026-04-29T11:43:32.001Z</time></trkpt><trkpt lat="41.374406986274195" lon="19.824144690214357"><ele>175.0</ele><time>2026-04-29T11:43:34.001Z</time></trkpt><trkpt lat="41.37439371751873" lon="19.82398954193342"><ele>173.8</ele><time>2026-04-29T11:43:36.001Z</time></trkpt><trkpt lat="41.3744087602209" lon="19.823819477767643"><ele>172.6</ele><time>2026-04-29T11:43:38.001Z</time></trkpt><trkpt lat="41.37442588895381" lon="19.823735269310852"><ele>171.39999999999998</ele><time>2026-04-29T11:43:39.001Z</time></trkpt><trkpt lat="41.37446321912502" lon="19.823566035189977"><ele>170.2</ele><time>2026-04-29T11:43:41.001Z</time></trkpt><trkpt lat="41.374483441357086" lon="19.82346426437351"><ele>169.0</ele><time>2026-04-29T11:43:42.001Z</time></trkpt><trkpt lat="41.37450106541005" lon="19.823360980808683"><ele>168.6</ele><time>2026-04-29T11:43:43.001Z</time></trkpt><trkpt lat="41.3745291880545" lon="19.823214873494223"><ele>168.2</ele><time>2026-04-29T11:43:45.001Z</time></trkpt><trkpt lat="41.37459220729466" lon="19.82308512459729"><ele>167.79999999999998</ele><time>2026-04-29T11:43:47.001Z</time></trkpt><trkpt lat="41.374689963633685" lon="19.822955358566926"><ele>167.39999999999998</ele><time>2026-04-29T11:43:49.001Z</time></trkpt><trkpt lat="41.3747441959773" lon="19.82289394967714"><ele>167.0</ele><time>2026-04-29T11:43:50.001Z</time></trkpt><trkpt lat="41.3748065831754" lon="19.82282490870254"><ele>165.28571428571428</ele><time>2026-04-29T11:43:51.001Z</time></trkpt><trkpt lat="41.37486211595605" lon="19.82276558245204"><ele>163.57142857142858</ele><time>2026-04-29T11:43:52.001Z</time></trkpt><trkpt lat="41.374918020583145" lon="19.822708214533634"><ele>161.85714285714286</ele><time>2026-04-29T11:43:53.001Z</time></trkpt><trkpt lat="41.374978436581195" lon="19.82264621719959"><ele>160.14285714285714</ele><time>2026-04-29T11:43:54.001Z</time></trkpt><trkpt lat="41.37504040375185" lon="19.82259680479855"><ele>158.42857142857142</ele><time>2026-04-29T11:43:55.001Z</time></trkpt><trkpt lat="41.37510726224703" lon="19.82254503930095"><ele>156.71428571428572</ele><time>2026-04-29T11:43:56.001Z</time></trkpt><trkpt lat="41.37517090831924" lon="19.82249576103463"><ele>155.0</ele><time>2026-04-29T11:43:57.001Z</time></trkpt><trkpt lat="41.375273948731824" lon="19.822398335738487"><ele>155.0</ele><time>2026-04-29T11:43:59.001Z</time></trkpt><trkpt lat="41.3753419538831" lon="19.82223162502157"><ele>155.0</ele><time>2026-04-29T11:44:01.001Z</time></trkpt><trkpt lat="41.37538668832196" lon="19.822140951500096"><ele>155.0</ele><time>2026-04-29T11:44:02.002Z</time></trkpt><trkpt lat="41.37544408411397" lon="19.822079987255936"><ele>155.0</ele><time>2026-04-29T11:44:03.002Z</time></trkpt><trkpt lat="41.37551537527742" lon="19.821968162284637"><ele>155.0</ele><time>2026-04-29T11:44:05.002Z</time></trkpt><trkpt lat="41.37557478893759" lon="19.821862376415986"><ele>153.83333333333331</ele><time>2026-04-29T11:44:07.002Z</time></trkpt><trkpt lat="41.37561931995064" lon="19.821755431661106"><ele>152.66666666666666</ele><time>2026-04-29T11:44:09.002Z</time></trkpt><trkpt lat="41.375656765567" lon="19.821643645661727"><ele>151.5</ele><time>2026-04-29T11:44:11.002Z</time></trkpt><trkpt lat="41.375706061582825" lon="19.82157467772922"><ele>150.33333333333334</ele><time>2026-04-29T11:44:13.002Z</time></trkpt><trkpt lat="41.37575654793726" lon="19.821519389228122"><ele>149.16666666666669</ele><time>2026-04-29T11:44:15.002Z</time></trkpt><trkpt lat="41.37585143436408" lon="19.82142725794852"><ele>148.0</ele><time>2026-04-29T11:44:17.002Z</time></trkpt><trkpt lat="41.3759198963909" lon="19.821374958974538"><ele>148.0</ele><time>2026-04-29T11:44:18.002Z</time></trkpt><trkpt lat="41.37599957980292" lon="19.82136487537473"><ele>148.0</ele><time>2026-04-29T11:44:19.002Z</time></trkpt><trkpt lat="41.376080353949284" lon="19.821355569919124"><ele>148.0</ele><time>2026-04-29T11:44:20.002Z</time></trkpt><trkpt lat="41.37616047422956" lon="19.82134983980601"><ele>148.0</ele><time>2026-04-29T11:44:21.002Z</time></trkpt><trkpt lat="41.376238257847355" lon="19.821330539074378"><ele>148.0</ele><time>2026-04-29T11:44:22.002Z</time></trkpt><trkpt lat="41.37632044180756" lon="19.821350644586676"><ele>148.0</ele><time>2026-04-29T11:44:23.002Z</time></trkpt><trkpt lat="41.37639910037424" lon="19.821364665666266"><ele>147.0</ele><time>2026-04-29T11:44:24.002Z</time></trkpt><trkpt lat="41.37646629304557" lon="19.821379573295783"><ele>146.0</ele><time>2026-04-29T11:44:25.002Z</time></trkpt><trkpt lat="41.37653802239202" lon="19.8214008359504"><ele>145.0</ele><time>2026-04-29T11:44:26.002Z</time></trkpt><trkpt lat="41.37661021676871" lon="19.82143034322859"><ele>144.0</ele><time>2026-04-29T11:44:27.002Z</time></trkpt><trkpt lat="41.376681725232075" lon="19.821497667073466"><ele>143.0</ele><time>2026-04-29T11:44:28.002Z</time></trkpt><trkpt lat="41.37676703561531" lon="19.821558043926"><ele>142.0</ele><time>2026-04-29T11:44:29.002Z</time></trkpt><trkpt lat="41.376863353482754" lon="19.82160308672189"><ele>142.0</ele><time>2026-04-29T11:44:30.002Z</time></trkpt><trkpt lat="41.376954563499204" lon="19.821670244317122"><ele>142.0</ele><time>2026-04-29T11:44:31.002Z</time></trkpt><trkpt lat="41.37704236181285" lon="19.821759189197046"><ele>142.0</ele><time>2026-04-29T11:44:32.002Z</time></trkpt><trkpt lat="41.37713610960893" lon="19.821807234396836"><ele>142.0</ele><time>2026-04-29T11:44:33.002Z</time></trkpt><trkpt lat="41.37721973930002" lon="19.821879504357515"><ele>142.0</ele><time>2026-04-29T11:44:34.002Z</time></trkpt><trkpt lat="41.37731327313384" lon="19.821952346558028"><ele>141.2</ele><time>2026-04-29T11:44:35.002Z</time></trkpt><trkpt lat="41.3774064896633" lon="19.82201711629711"><ele>140.39999999999998</ele><time>2026-04-29T11:44:36.002Z</time></trkpt><trkpt lat="41.37748232356884" lon="19.822081627047513"><ele>139.60000000000002</ele><time>2026-04-29T11:44:37.002Z</time></trkpt><trkpt lat="41.377559641794015" lon="19.822149125765"><ele>138.8</ele><time>2026-04-29T11:44:38.002Z</time></trkpt><trkpt lat="41.37763463687712" lon="19.822204260935084"><ele>138.0</ele><time>2026-04-29T11:44:39.002Z</time></trkpt><trkpt lat="41.37771319328807" lon="19.82225303513132"><ele>138.0</ele><time>2026-04-29T11:44:40.002Z</time></trkpt><trkpt lat="41.37779745177054" lon="19.822312974898697"><ele>138.0</ele><time>2026-04-29T11:44:41.002Z</time></trkpt><trkpt lat="41.377877964598454" lon="19.822383479341294"><ele>138.0</ele><time>2026-04-29T11:44:42.002Z</time></trkpt><trkpt lat="41.37795343323193" lon="19.822446885184966"><ele>138.0</ele><time>2026-04-29T11:44:43.002Z</time></trkpt><trkpt lat="41.378017250497784" lon="19.822541206966598"><ele>138.0</ele><time>2026-04-29T11:44:44.002Z</time></trkpt><trkpt lat="41.3780938559705" lon="19.822601867663906"><ele>138.4</ele><time>2026-04-29T11:44:45.002Z</time></trkpt><trkpt lat="41.37813222075425" lon="19.822717948330872"><ele>138.8</ele><time>2026-04-29T11:44:46.002Z</time></trkpt><trkpt lat="41.37818777551678" lon="19.822820240552584"><ele>139.2</ele><time>2026-04-29T11:44:47.002Z</time></trkpt><trkpt lat="41.37824367085116" lon="19.822922437368348"><ele>139.6</ele><time>2026-04-29T11:44:48.002Z</time></trkpt><trkpt lat="41.37830589512622" lon="19.823016134067647"><ele>140.0</ele><time>2026-04-29T11:44:49.002Z</time></trkpt><trkpt lat="41.37835213917338" lon="19.823099204358233"><ele>140.0</ele><time>2026-04-29T11:44:50.002Z</time></trkpt><trkpt lat="41.37839727667083" lon="19.823177488311675"><ele>140.0</ele><time>2026-04-29T11:44:51.002Z</time></trkpt><trkpt lat="41.37844800093956" lon="19.823267216490404"><ele>140.0</ele><time>2026-04-29T11:44:52.002Z</time></trkpt><trkpt lat="41.37850276462825" lon="19.82336201136994"><ele>140.0</ele><time>2026-04-29T11:44:53.002Z</time></trkpt><trkpt lat="41.37856716227021" lon="19.823443836599733"><ele>140.0</ele><time>2026-04-29T11:44:54.002Z</time></trkpt><trkpt lat="41.378616079719585" lon="19.82351855226385"><ele>140.0</ele><time>2026-04-29T11:44:55.002Z</time></trkpt><trkpt lat="41.37867403775149" lon="19.823554772359635"><ele>140.5</ele><time>2026-04-29T11:44:56.002Z</time></trkpt><trkpt lat="41.378737938292396" lon="19.82354565094239"><ele>141.0</ele><time>2026-04-29T11:44:57.001Z</time></trkpt><trkpt lat="41.37885782838048" lon="19.8235679778691"><ele>141.5</ele><time>2026-04-29T11:44:59.001Z</time></trkpt><trkpt lat="41.37892968635305" lon="19.823609860337314"><ele>142.0</ele><time>2026-04-29T11:45:00.001Z</time></trkpt><trkpt lat="41.378996272262654" lon="19.823649288812465"><ele>142.5</ele><time>2026-04-29T11:45:01.001Z</time></trkpt><trkpt lat="41.379052581740645" lon="19.823697527699846"><ele>143.0</ele><time>2026-04-29T11:45:02.001Z</time></trkpt><trkpt lat="41.37910265048769" lon="19.82375011962177"><ele>144.5</ele><time>2026-04-29T11:45:03.001Z</time></trkpt><trkpt lat="41.37916727973009" lon="19.823809314388352"><ele>146.0</ele><time>2026-04-29T11:45:04.001Z</time></trkpt><trkpt lat="41.379220884077114" lon="19.82386226950883"><ele>147.5</ele><time>2026-04-29T11:45:05.001Z</time></trkpt><trkpt lat="41.3792986591074" lon="19.82393767084438"><ele>149.0</ele><time>2026-04-29T11:45:07.001Z</time></trkpt><trkpt lat="41.37935960893787" lon="19.82398206997228"><ele>150.5</ele><time>2026-04-29T11:45:08.001Z</time></trkpt><trkpt lat="41.37942522373593" lon="19.824007709450793"><ele>152.0</ele><time>2026-04-29T11:45:09.001Z</time></trkpt><trkpt lat="41.379540860059706" lon="19.82404053984647"><ele>152.0</ele><time>2026-04-29T11:45:11.001Z</time></trkpt><trkpt lat="41.3796551060628" lon="19.824096025475924"><ele>152.0</ele><time>2026-04-29T11:45:13Z</time></trkpt><trkpt lat="41.37972726024224" lon="19.824187916942382"><ele>152.0</ele><time>2026-04-29T11:45:15Z</time></trkpt><trkpt lat="41.3797582514451" lon="19.82439092122613"><ele>152.0</ele><time>2026-04-29T11:45:18Z</time></trkpt><trkpt lat="41.37978173178706" lon="19.824482040555026"><ele>152.0</ele><time>2026-04-29T11:45:19Z</time></trkpt><trkpt lat="41.37981164894303" lon="19.824569876954286"><ele>154.83333333333331</ele><time>2026-04-29T11:45:20Z</time></trkpt><trkpt lat="41.37983635864968" lon="19.82466920441311"><ele>157.66666666666666</ele><time>2026-04-29T11:45:22Z</time></trkpt><trkpt lat="41.379834031043345" lon="19.824786028723924"><ele>160.5</ele><time>2026-04-29T11:45:34Z</time></trkpt><trkpt lat="41.37980197080518" lon="19.824673790771264"><ele>163.33333333333334</ele><time>2026-04-29T11:45:59Z</time></trkpt><trkpt lat="41.37978747539582" lon="19.824589834222227"><ele>166.16666666666669</ele><time>2026-04-29T11:46:01Z</time></trkpt><trkpt lat="41.379770264851956" lon="19.824505292261186"><ele>169.0</ele><time>2026-04-29T11:46:03Z</time></trkpt><trkpt lat="41.37974763394885" lon="19.82439258354343"><ele>168.0</ele><time>2026-04-29T11:46:06Z</time></trkpt><trkpt lat="41.37972838561468" lon="19.82430485549703"><ele>167.0</ele><time>2026-04-29T11:46:15Z</time></trkpt><trkpt lat="41.379715983634995" lon="19.824134806882444"><ele>166.0</ele><time>2026-04-29T11:46:17Z</time></trkpt><trkpt lat="41.37973787827912" lon="19.823997214452426"><ele>165.0</ele><time>2026-04-29T11:46:18Z</time></trkpt><trkpt lat="41.379735701544234" lon="19.823890019864578"><ele>164.0</ele><time>2026-04-29T11:46:19Z</time></trkpt><trkpt lat="41.37973000070194" lon="19.823800116473276"><ele>164.0</ele><time>2026-04-29T11:46:20Z</time></trkpt><trkpt lat="41.37971325209542" lon="19.823648607436173"><ele>164.0</ele><time>2026-04-29T11:46:22Z</time></trkpt><trkpt lat="41.37968520307169" lon="19.823496469746356"><ele>164.0</ele><time>2026-04-29T11:46:24Z</time></trkpt><trkpt lat="41.37961189396293" lon="19.823366734692378"><ele>164.0</ele><time>2026-04-29T11:46:26Z</time></trkpt><trkpt lat="41.37952006546373" lon="19.82325772764114"><ele>161.16666666666666</ele><time>2026-04-29T11:46:28Z</time></trkpt><trkpt lat="41.37944064034773" lon="19.82315444231238"><ele>158.33333333333331</ele><time>2026-04-29T11:46:30Z</time></trkpt><trkpt lat="41.37939499404709" lon="19.82309539607206"><ele>155.5</ele><time>2026-04-29T11:46:31Z</time></trkpt><trkpt lat="41.379345049035614" lon="19.823032111716955"><ele>152.66666666666666</ele><time>2026-04-29T11:46:32Z</time></trkpt><trkpt lat="41.379305575853266" lon="19.8229640856337"><ele>149.83333333333334</ele><time>2026-04-29T11:46:33Z</time></trkpt><trkpt lat="41.379298828601264" lon="19.8228772007688"><ele>147.0</ele><time>2026-04-29T11:46:34Z</time></trkpt><trkpt lat="41.37933805608066" lon="19.82277710008829"><ele>145.83333333333334</ele><time>2026-04-29T11:46:35Z</time></trkpt><trkpt lat="41.37929961971471" lon="19.822643838645515"><ele>144.66666666666666</ele><time>2026-04-29T11:46:37Z</time></trkpt><trkpt lat="41.379276808096094" lon="19.822564748736035"><ele>143.5</ele><time>2026-04-29T11:46:39Z</time></trkpt><trkpt lat="41.37930691055146" lon="19.82244159913136"><ele>142.33333333333331</ele><time>2026-04-29T11:46:42Z</time></trkpt><trkpt lat="41.37934261328822" lon="19.82234759856274"><ele>141.16666666666666</ele><time>2026-04-29T11:46:43Z</time></trkpt><trkpt lat="41.37937961564412" lon="19.82223209391544"><ele>140.0</ele><time>2026-04-29T11:46:44Z</time></trkpt><trkpt lat="41.3794409243224" lon="19.822127173570735"><ele>140.0</ele><time>2026-04-29T11:46:45Z</time></trkpt><trkpt lat="41.37949405429538" lon="19.822041359605024"><ele>140.0</ele><time>2026-04-29T11:46:46Z</time></trkpt><trkpt lat="41.379535198656434" lon="19.82195451602751"><ele>140.0</ele><time>2026-04-29T11:46:47Z</time></trkpt><trkpt lat="41.379564910480724" lon="19.821865964100034"><ele>140.0</ele><time>2026-04-29T11:46:48Z</time></trkpt><trkpt lat="41.37959567441758" lon="19.82176965006385"><ele>140.0</ele><time>2026-04-29T11:46:49Z</time></trkpt><trkpt lat="41.3796206262933" lon="19.82168053651493"><ele>140.0</ele><time>2026-04-29T11:46:50Z</time></trkpt><trkpt lat="41.37964138332279" lon="19.821589996538883"><ele>139.83333333333331</ele><time>2026-04-29T11:46:51Z</time></trkpt><trkpt lat="41.379658961072536" lon="19.821491230075196"><ele>139.66666666666666</ele><time>2026-04-29T11:46:52Z</time></trkpt><trkpt lat="41.37967763347474" lon="19.821391429028882"><ele>139.5</ele><time>2026-04-29T11:46:53Z</time></trkpt><trkpt lat="41.37971622963988" lon="19.821291284928304"><ele>139.33333333333334</ele><time>2026-04-29T11:46:54Z</time></trkpt><trkpt lat="41.37978171265009" lon="19.821212626308565"><ele>139.16666666666669</ele><time>2026-04-29T11:46:55Z</time></trkpt><trkpt lat="41.37983317440179" lon="19.821136057093526"><ele>139.0</ele><time>2026-04-29T11:46:56Z</time></trkpt><trkpt lat="41.379893883792136" lon="19.821053650791747"><ele>137.6</ele><time>2026-04-29T11:46:57Z</time></trkpt><trkpt lat="41.37996330194085" lon="19.820973963380826"><ele>136.2</ele><time>2026-04-29T11:46:58Z</time></trkpt><trkpt lat="41.38002074835894" lon="19.82088575291307"><ele>134.79999999999998</ele><time>2026-04-29T11:46:59Z</time></trkpt><trkpt lat="41.38009851498948" lon="19.8208619673577"><ele>133.4</ele><time>2026-04-29T11:47:00Z</time></trkpt><trkpt lat="41.3801852067491" lon="19.820835961691166"><ele>132.0</ele><time>2026-04-29T11:47:01Z</time></trkpt><trkpt lat="41.38029425938982" lon="19.82081648672348"><ele>132.0</ele><time>2026-04-29T11:47:02Z</time></trkpt><trkpt lat="41.38041321866759" lon="19.820783906162305"><ele>132.0</ele><time>2026-04-29T11:47:03.001Z</time></trkpt><trkpt lat="41.380527579565346" lon="19.820775505687333"><ele>132.0</ele><time>2026-04-29T11:47:04.001Z</time></trkpt><trkpt lat="41.38062132062976" lon="19.820776259936686"><ele>132.0</ele><time>2026-04-29T11:47:05.001Z</time></trkpt><trkpt lat="41.38069173199797" lon="19.820777945984045"><ele>132.0</ele><time>2026-04-29T11:47:06.001Z</time></trkpt><trkpt lat="41.38080937265729" lon="19.82076018148459"><ele>131.2</ele><time>2026-04-29T11:47:08.001Z</time></trkpt><trkpt lat="41.3809351539604" lon="19.820754212633233"><ele>130.39999999999998</ele><time>2026-04-29T11:47:10.001Z</time></trkpt><trkpt lat="41.38106357852948" lon="19.820740190107742"><ele>129.60000000000002</ele><time>2026-04-29T11:47:12.001Z</time></trkpt><trkpt lat="41.38113419213688" lon="19.820721046286153"><ele>128.8</ele><time>2026-04-29T11:47:13.001Z</time></trkpt><trkpt lat="41.38121465720594" lon="19.820691044127972"><ele>128.0</ele><time>2026-04-29T11:47:14.001Z</time></trkpt><trkpt lat="41.381309072404186" lon="19.82063218414795"><ele>128.0</ele><time>2026-04-29T11:47:16.001Z</time></trkpt><trkpt lat="41.38138714703561" lon="19.820603347053762"><ele>128.0</ele><time>2026-04-29T11:47:18.001Z</time></trkpt><trkpt lat="41.38147687860599" lon="19.820566948027388"><ele>128.0</ele><time>2026-04-29T11:47:20.001Z</time></trkpt><trkpt lat="41.3815486977451" lon="19.82050804984946"><ele>128.0</ele><time>2026-04-29T11:47:22.001Z</time></trkpt><trkpt lat="41.38161377008749" lon="19.82040375064172"><ele>128.0</ele><time>2026-04-29T11:47:24.001Z</time></trkpt><trkpt lat="41.38168964183008" lon="19.82026999551573"><ele>127.2</ele><time>2026-04-29T11:47:26.001Z</time></trkpt><trkpt lat="41.381776971578596" lon="19.82013720103271"><ele>126.4</ele><time>2026-04-29T11:47:28.001Z</time></trkpt><trkpt lat="41.381825669389904" lon="19.820067866686646"><ele>125.60000000000001</ele><time>2026-04-29T11:47:29.001Z</time></trkpt><trkpt lat="41.38188138922635" lon="19.81999467506841"><ele>124.80000000000001</ele><time>2026-04-29T11:47:30.001Z</time></trkpt><trkpt lat="41.38194227966133" lon="19.819917005926143"><ele>124.0</ele><time>2026-04-29T11:47:31.001Z</time></trkpt><trkpt lat="41.38202134530082" lon="19.819816843112253"><ele>124.0</ele><time>2026-04-29T11:47:32.001Z</time></trkpt><trkpt lat="41.38211248460086" lon="19.81973027969532"><ele>124.0</ele><time>2026-04-29T11:47:33.001Z</time></trkpt><trkpt lat="41.3822163447014" lon="19.81963310461622"><ele>124.0</ele><time>2026-04-29T11:47:34.001Z</time></trkpt><trkpt lat="41.382299935648966" lon="19.81954607555796"><ele>124.0</ele><time>2026-04-29T11:47:35.001Z</time></trkpt><trkpt lat="41.38238433783705" lon="19.81947959178246"><ele>124.0</ele><time>2026-04-29T11:47:36.001Z</time></trkpt><trkpt lat="41.382474304502445" lon="19.81944140405737"><ele>123.6</ele><time>2026-04-29T11:47:37.001Z</time></trkpt><trkpt lat="41.38255049668919" lon="19.819389642989705"><ele>123.2</ele><time>2026-04-29T11:47:38.001Z</time></trkpt><trkpt lat="41.382617036776" lon="19.819290467438798"><ele>122.79999999999998</ele><time>2026-04-29T11:47:39.001Z</time></trkpt><trkpt lat="41.382703181566825" lon="19.819225623295814"><ele>122.39999999999999</ele><time>2026-04-29T11:47:40.001Z</time></trkpt><trkpt lat="41.38276003864998" lon="19.8190940339593"><ele>122.0</ele><time>2026-04-29T11:47:41.001Z</time></trkpt><trkpt lat="41.38282666164725" lon="19.819000810247502"><ele>121.33333333333333</ele><time>2026-04-29T11:47:42.001Z</time></trkpt><trkpt lat="41.382894757248906" lon="19.81890898640574"><ele>120.66666666666666</ele><time>2026-04-29T11:47:43.001Z</time></trkpt><trkpt lat="41.38295963630136" lon="19.818811148608685"><ele>120.0</ele><time>2026-04-29T11:47:44.001Z</time></trkpt><trkpt lat="41.383013365369706" lon="19.818733058176957"><ele>119.33333333333334</ele><time>2026-04-29T11:47:45.001Z</time></trkpt><trkpt lat="41.38306388744539" lon="19.818673518772204"><ele>118.66666666666667</ele><time>2026-04-29T11:47:46.001Z</time></trkpt><trkpt lat="41.38313821065211" lon="19.818636063692185"><ele>118.0</ele><time>2026-04-29T11:47:47.001Z</time></trkpt><trkpt lat="41.38323299235903" lon="19.81855938611715"><ele>117.00000000000001</ele><time>2026-04-29T11:47:49.001Z</time></trkpt><trkpt lat="41.383281971225294" lon="19.818452279545777"><ele>116.0</ele><time>2026-04-29T11:47:51.001Z</time></trkpt><trkpt lat="41.383274038437044" lon="19.818342662460573"><ele>115.0</ele><time>2026-04-29T11:47:52.001Z</time></trkpt><trkpt lat="41.38325316987109" lon="19.818242858087164"><ele>114.0</ele><time>2026-04-29T11:47:53.001Z</time></trkpt><trkpt lat="41.38322136797328" lon="19.818134043709886"><ele>113.00000000000001</ele><time>2026-04-29T11:47:54.001Z</time></trkpt><trkpt lat="41.38319455699067" lon="19.818015908812214"><ele>112.0</ele><time>2026-04-29T11:47:55.001Z</time></trkpt><trkpt lat="41.38317823336462" lon="19.817917445603104"><ele>112.00000000000001</ele><time>2026-04-29T11:47:56.001Z</time></trkpt><trkpt lat="41.3831689059108" lon="19.817832489931373"><ele>112.0</ele><time>2026-04-29T11:47:57.001Z</time></trkpt><trkpt lat="41.383160661796275" lon="19.817728035563064"><ele>112.0</ele><time>2026-04-29T11:47:58.001Z</time></trkpt><trkpt lat="41.38315930595277" lon="19.817619770820713"><ele>112.0</ele><time>2026-04-29T11:47:59.001Z</time></trkpt><trkpt lat="41.383187075643164" lon="19.817513864061315"><ele>112.00000000000001</ele><time>2026-04-29T11:48:00.001Z</time></trkpt><trkpt lat="41.383218425240656" lon="19.817392159510828"><ele>112.0</ele><time>2026-04-29T11:48:01.001Z</time></trkpt><trkpt lat="41.38324725374726" lon="19.817278254237888"><ele>111.33333333333334</ele><time>2026-04-29T11:48:02.001Z</time></trkpt><trkpt lat="41.38327271497962" lon="19.817144736025902"><ele>110.66666666666667</ele><time>2026-04-29T11:48:03.001Z</time></trkpt><trkpt lat="41.38329056126557" lon="19.817016611643957"><ele>110.0</ele><time>2026-04-29T11:48:04.001Z</time></trkpt><trkpt lat="41.38329771197151" lon="19.816897213749233"><ele>109.33333333333334</ele><time>2026-04-29T11:48:05.001Z</time></trkpt><trkpt lat="41.38330545754332" lon="19.816783781048162"><ele>108.66666666666667</ele><time>2026-04-29T11:48:06.001Z</time></trkpt><trkpt lat="41.38332575718921" lon="19.81669292846931"><ele>108.0</ele><time>2026-04-29T11:48:07.001Z</time></trkpt><trkpt lat="41.38339010204642" lon="19.81663843753765"><ele>107.2</ele><time>2026-04-29T11:48:08.001Z</time></trkpt><trkpt lat="41.38342675060885" lon="19.816523785767068"><ele>106.4</ele><time>2026-04-29T11:48:09.001Z</time></trkpt><trkpt lat="41.38342580625979" lon="19.81638068332715"><ele>105.60000000000001</ele><time>2026-04-29T11:48:10.001Z</time></trkpt><trkpt lat="41.38344558296741" lon="19.816257542876855"><ele>104.80000000000001</ele><time>2026-04-29T11:48:11.001Z</time></trkpt><trkpt lat="41.38347652045003" lon="19.816145100661625"><ele>104.0</ele><time>2026-04-29T11:48:12.001Z</time></trkpt><trkpt lat="41.38352259662517" lon="19.816024009154425"><ele>103.4</ele><time>2026-04-29T11:48:13.001Z</time></trkpt><trkpt lat="41.38357655965724" lon="19.815899958136065"><ele>102.80000000000001</ele><time>2026-04-29T11:48:14.001Z</time></trkpt><trkpt lat="41.3836256505253" lon="19.81577135081996"><ele>102.19999999999999</ele><time>2026-04-29T11:48:15.001Z</time></trkpt><trkpt lat="41.38367758795734" lon="19.815642764542062"><ele>101.6</ele><time>2026-04-29T11:48:16.001Z</time></trkpt><trkpt lat="41.38373180871392" lon="19.815512838694513"><ele>101.0</ele><time>2026-04-29T11:48:17.001Z</time></trkpt><trkpt lat="41.38378097892616" lon="19.8153785153802"><ele>101.0</ele><time>2026-04-29T11:48:18.001Z</time></trkpt><trkpt lat="41.383833232879496" lon="19.8152401539298"><ele>101.0</ele><time>2026-04-29T11:48:19.001Z</time></trkpt><trkpt lat="41.38388729269214" lon="19.815089372009144"><ele>101.0</ele><time>2026-04-29T11:48:20.001Z</time></trkpt><trkpt lat="41.38393744544661" lon="19.81492842051012"><ele>101.0</ele><time>2026-04-29T11:48:21.001Z</time></trkpt><trkpt lat="41.383982581444485" lon="19.81477560998035"><ele>100.33333333333333</ele><time>2026-04-29T11:48:22.001Z</time></trkpt><trkpt lat="41.384026382306374" lon="19.81464618495024"><ele>99.66666666666666</ele><time>2026-04-29T11:48:23.001Z</time></trkpt><trkpt lat="41.38407560511789" lon="19.814531291961774"><ele>99.0</ele><time>2026-04-29T11:48:24.001Z</time></trkpt><trkpt lat="41.38412121784543" lon="19.814444503648218"><ele>98.33333333333334</ele><time>2026-04-29T11:48:25.001Z</time></trkpt><trkpt lat="41.384156277537194" lon="19.81437205078011"><ele>97.66666666666667</ele><time>2026-04-29T11:48:26.001Z</time></trkpt><trkpt lat="41.38420297465279" lon="19.814278897558193"><ele>97.0</ele><time>2026-04-29T11:48:28.001Z</time></trkpt><trkpt lat="41.38431406984038" lon="19.814292295172947"><ele>97.00000000000001</ele><time>2026-04-29T11:48:37.001Z</time></trkpt><trkpt lat="41.38437915322885" lon="19.814319962158006"><ele>97.0</ele><time>2026-04-29T11:48:38.001Z</time></trkpt><trkpt lat="41.38444453541282" lon="19.814375586531217"><ele>97.0</ele><time>2026-04-29T11:48:39.001Z</time></trkpt><trkpt lat="41.38452512743767" lon="19.814425709166652"><ele>97.0</ele><time>2026-04-29T11:48:40.001Z</time></trkpt><trkpt lat="41.38460828210104" lon="19.814477551006547"><ele>97.00000000000001</ele><time>2026-04-29T11:48:41.001Z</time></trkpt><trkpt lat="41.38469893884788" lon="19.814525434032877"><ele>97.0</ele><time>2026-04-29T11:48:42.001Z</time></trkpt><trkpt lat="41.384794153364055" lon="19.814572724365018"><ele>97.0</ele><time>2026-04-29T11:48:43.002Z</time></trkpt><trkpt lat="41.384898754821656" lon="19.814624714632235"><ele>97.0</ele><time>2026-04-29T11:48:44.002Z</time></trkpt><trkpt lat="41.385012805708925" lon="19.814682380957205"><ele>97.0</ele><time>2026-04-29T11:48:45.002Z</time></trkpt><trkpt lat="41.38513253019694" lon="19.814743669400844"><ele>97.0</ele><time>2026-04-29T11:48:46.002Z</time></trkpt><trkpt lat="41.38525528916188" lon="19.814799843569446"><ele>97.0</ele><time>2026-04-29T11:48:47.002Z</time></trkpt><trkpt lat="41.38538028223819" lon="19.81485167136416"><ele>97.0</ele><time>2026-04-29T11:48:48.002Z</time></trkpt><trkpt lat="41.38550999055109" lon="19.81490060166025"><ele>97.0</ele><time>2026-04-29T11:48:49.002Z</time></trkpt><trkpt lat="41.3856441900781" lon="19.814943427604184"><ele>97.0</ele><time>2026-04-29T11:48:50.002Z</time></trkpt><trkpt lat="41.38578637180531" lon="19.81497285197714"><ele>96.66666666666667</ele><time>2026-04-29T11:48:51.002Z</time></trkpt><trkpt lat="41.38594162117182" lon="19.814998444259906"><ele>96.33333333333334</ele><time>2026-04-29T11:48:52.002Z</time></trkpt><trkpt lat="41.3861014821305" lon="19.81504373735439"><ele>96.0</ele><time>2026-04-29T11:48:53.002Z</time></trkpt><trkpt lat="41.38622238713409" lon="19.815135124345264"><ele>96.25</ele><time>2026-04-29T11:48:54.002Z</time></trkpt><trkpt lat="41.38632455561506" lon="19.815219505859748"><ele>96.5</ele><time>2026-04-29T11:48:55.002Z</time></trkpt><trkpt lat="41.38639945948619" lon="19.815330118702658"><ele>96.75</ele><time>2026-04-29T11:48:56.002Z</time></trkpt><trkpt lat="41.38644670298912" lon="19.815472301525176"><ele>97.0</ele><time>2026-04-29T11:48:57.002Z</time></trkpt><trkpt lat="41.38649379385728" lon="19.81562794980313"><ele>97.0</ele><time>2026-04-29T11:48:58.002Z</time></trkpt><trkpt lat="41.38654306918681" lon="19.81578102384245"><ele>97.0</ele><time>2026-04-29T11:48:59.002Z</time></trkpt><trkpt lat="41.38656886975367" lon="19.815902351411253"><ele>97.0</ele><time>2026-04-29T11:49:00.001Z</time></trkpt><trkpt lat="41.38658867845711" lon="19.81598323564755"><ele>97.0</ele><time>2026-04-29T11:49:01.001Z</time></trkpt><trkpt lat="41.38660985088049" lon="19.816182779674183"><ele>97.0</ele><time>2026-04-29T11:49:03.001Z</time></trkpt><trkpt lat="41.38664635455162" lon="19.81632649616495"><ele>96.8</ele><time>2026-04-29T11:49:04.001Z</time></trkpt><trkpt lat="41.38666632796031" lon="19.816488270859704"><ele>96.6</ele><time>2026-04-29T11:49:05.001Z</time></trkpt><trkpt lat="41.38668263378166" lon="19.816634660913458"><ele>96.39999999999999</ele><time>2026-04-29T11:49:06.001Z</time></trkpt><trkpt lat="41.38669909191636" lon="19.81676892787325"><ele>96.19999999999999</ele><time>2026-04-29T11:49:07.001Z</time></trkpt><trkpt lat="41.38669955600859" lon="19.81691135568901"><ele>96.0</ele><time>2026-04-29T11:49:08.001Z</time></trkpt><trkpt lat="41.38670801216106" lon="19.817042872645313"><ele>97.25</ele><time>2026-04-29T11:49:09.001Z</time></trkpt><trkpt lat="41.386714452986524" lon="19.817159958570233"><ele>98.5</ele><time>2026-04-29T11:49:10.001Z</time></trkpt><trkpt lat="41.38672638283959" lon="19.817303644414867"><ele>99.75</ele><time>2026-04-29T11:49:11.001Z</time></trkpt><trkpt lat="41.38675477206914" lon="19.817482601998353"><ele>101.0</ele><time>2026-04-29T11:49:12.001Z</time></trkpt><trkpt lat="41.38681418660513" lon="19.817644545748774"><ele>101.19999999999999</ele><time>2026-04-29T11:49:13.001Z</time></trkpt><trkpt lat="41.3868558256914" lon="19.817776327934283"><ele>101.39999999999999</ele><time>2026-04-29T11:49:14.001Z</time></trkpt><trkpt lat="41.386888182713705" lon="19.817903979962598"><ele>101.6</ele><time>2026-04-29T11:49:15.001Z</time></trkpt><trkpt lat="41.38693320154545" lon="19.818041899899843"><ele>101.8</ele><time>2026-04-29T11:49:16.001Z</time></trkpt><trkpt lat="41.38697919847443" lon="19.8181840552743"><ele>102.0</ele><time>2026-04-29T11:49:17.001Z</time></trkpt><trkpt lat="41.38702310836296" lon="19.818309602460356"><ele>102.0</ele><time>2026-04-29T11:49:18.001Z</time></trkpt><trkpt lat="41.38706885438764" lon="19.818430301621994"><ele>102.0</ele><time>2026-04-29T11:49:19.001Z</time></trkpt><trkpt lat="41.38713167495771" lon="19.818547027834764"><ele>102.0</ele><time>2026-04-29T11:49:20.001Z</time></trkpt><trkpt lat="41.38721401755675" lon="19.81864726753054"><ele>102.0</ele><time>2026-04-29T11:49:21.001Z</time></trkpt><trkpt lat="41.38731573795919" lon="19.818729194238323"><ele>102.0</ele><time>2026-04-29T11:49:22.001Z</time></trkpt><trkpt lat="41.387429824124844" lon="19.818801489625788"><ele>102.0</ele><time>2026-04-29T11:49:23.001Z</time></trkpt><trkpt lat="41.38754725508458" lon="19.818875482738445"><ele>102.0</ele><time>2026-04-29T11:49:24.001Z</time></trkpt><trkpt lat="41.38766605306057" lon="19.818958453429914"><ele>102.0</ele><time>2026-04-29T11:49:25.001Z</time></trkpt><trkpt lat="41.38776932112702" lon="19.81903449564626"><ele>102.0</ele><time>2026-04-29T11:49:26.001Z</time></trkpt><trkpt lat="41.387858306758886" lon="19.81910328534902"><ele>102.0</ele><time>2026-04-29T11:49:27.001Z</time></trkpt><trkpt lat="41.387943572185705" lon="19.81916566296419"><ele>102.0</ele><time>2026-04-29T11:49:28.001Z</time></trkpt><trkpt lat="41.388047878466956" lon="19.81922887544509"><ele>102.0</ele><time>2026-04-29T11:49:29.001Z</time></trkpt><trkpt lat="41.3881683368213" lon="19.81929165669403"><ele>102.0</ele><time>2026-04-29T11:49:30.001Z</time></trkpt><trkpt lat="41.38829669801143" lon="19.8193595011076"><ele>102.0</ele><time>2026-04-29T11:49:31.001Z</time></trkpt><trkpt lat="41.38842668038242" lon="19.819435111366438"><ele>102.0</ele><time>2026-04-29T11:49:32.001Z</time></trkpt><trkpt lat="41.388540481244526" lon="19.81952411642373"><ele>102.0</ele><time>2026-04-29T11:49:33.001Z</time></trkpt><trkpt lat="41.38861177609836" lon="19.81965970824921"><ele>102.0</ele><time>2026-04-29T11:49:34.001Z</time></trkpt><trkpt lat="41.38869268051346" lon="19.819800213115656"><ele>102.0</ele><time>2026-04-29T11:49:35.001Z</time></trkpt><trkpt lat="41.388791075811994" lon="19.81993872781082"><ele>102.0</ele><time>2026-04-29T11:49:36.001Z</time></trkpt><trkpt lat="41.38887646479157" lon="19.820083087432582"><ele>102.0</ele><time>2026-04-29T11:49:37.001Z</time></trkpt><trkpt lat="41.388956773936094" lon="19.82019985475072"><ele>102.0</ele><time>2026-04-29T11:49:38.001Z</time></trkpt><trkpt lat="41.38904194608" lon="19.82028929880425"><ele>101.75</ele><time>2026-04-29T11:49:39.001Z</time></trkpt><trkpt lat="41.389142678585195" lon="19.820361868003687"><ele>101.5</ele><time>2026-04-29T11:49:40.001Z</time></trkpt><trkpt lat="41.389261673976144" lon="19.82042784451041"><ele>101.25</ele><time>2026-04-29T11:49:41.001Z</time></trkpt><trkpt lat="41.38938046779564" lon="19.820504223694304"><ele>101.0</ele><time>2026-04-29T11:49:42.001Z</time></trkpt><trkpt lat="41.38947786386655" lon="19.82059791323688"><ele>101.0</ele><time>2026-04-29T11:49:43.001Z</time></trkpt><trkpt lat="41.38955828821873" lon="19.820713360046835"><ele>101.0</ele><time>2026-04-29T11:49:44.001Z</time></trkpt><trkpt lat="41.38960183320069" lon="19.820862972515844"><ele>101.0</ele><time>2026-04-29T11:49:45.001Z</time></trkpt><trkpt lat="41.38967162608771" lon="19.820997020366015"><ele>101.0</ele><time>2026-04-29T11:49:46.001Z</time></trkpt><trkpt lat="41.38972856155158" lon="19.821147563074618"><ele>101.19999999999999</ele><time>2026-04-29T11:49:47.001Z</time></trkpt><trkpt lat="41.389793992063915" lon="19.821292697803194"><ele>101.39999999999999</ele><time>2026-04-29T11:49:48.001Z</time></trkpt><trkpt lat="41.38984952932554" lon="19.82142369539135"><ele>101.6</ele><time>2026-04-29T11:49:49.001Z</time></trkpt><trkpt lat="41.38991056084203" lon="19.821531516625573"><ele>101.8</ele><time>2026-04-29T11:49:50.001Z</time></trkpt><trkpt lat="41.389983853562434" lon="19.821595593444233"><ele>102.0</ele><time>2026-04-29T11:49:51.001Z</time></trkpt><trkpt lat="41.39005599327612" lon="19.821669377317466"><ele>102.0</ele><time>2026-04-29T11:49:52.001Z</time></trkpt><trkpt lat="41.39017633808672" lon="19.82161063095343"><ele>102.0</ele><time>2026-04-29T11:49:53.001Z</time></trkpt><trkpt lat="41.39028338156724" lon="19.821588018662"><ele>102.0</ele><time>2026-04-29T11:49:54.001Z</time></trkpt><trkpt lat="41.390399413083244" lon="19.821575033880933"><ele>102.0</ele><time>2026-04-29T11:49:55.001Z</time></trkpt><trkpt lat="41.39052285503376" lon="19.82159232743764"><ele>102.5</ele><time>2026-04-29T11:49:56.001Z</time></trkpt><trkpt lat="41.39063911409664" lon="19.821684962295567"><ele>103.0</ele><time>2026-04-29T11:49:57.001Z</time></trkpt><trkpt lat="41.39075314000823" lon="19.821790809610356"><ele>103.5</ele><time>2026-04-29T11:49:58.001Z</time></trkpt><trkpt lat="41.39086978773755" lon="19.821883466515096"><ele>104.0</ele><time>2026-04-29T11:49:59.001Z</time></trkpt><trkpt lat="41.390964964897485" lon="19.82198950827284"><ele>104.0</ele><time>2026-04-29T11:50:00.001Z</time></trkpt><trkpt lat="41.391062319879154" lon="19.82207426524259"><ele>104.0</ele><time>2026-04-29T11:50:01.001Z</time></trkpt><trkpt lat="41.39115628626576" lon="19.822184900573006"><ele>104.0</ele><time>2026-04-29T11:50:02.001Z</time></trkpt><trkpt lat="41.39124695504133" lon="19.822317414977878"><ele>104.0</ele><time>2026-04-29T11:50:03.001Z</time></trkpt><trkpt lat="41.391303598197894" lon="19.8224821663756"><ele>104.0</ele><time>2026-04-29T11:50:04.001Z</time></trkpt><trkpt lat="41.3913488909088" lon="19.82263750425377"><ele>104.0</ele><time>2026-04-29T11:50:05.001Z</time></trkpt><trkpt lat="41.391379521082825" lon="19.822780589145818"><ele>104.0</ele><time>2026-04-29T11:50:06.001Z</time></trkpt><trkpt lat="41.3914110757803" lon="19.8229329480135"><ele>104.0</ele><time>2026-04-29T11:50:07.001Z</time></trkpt><trkpt lat="41.39144106523229" lon="19.823091723245177"><ele>104.0</ele><time>2026-04-29T11:50:08.001Z</time></trkpt><trkpt lat="41.391469159746514" lon="19.823244583780063"><ele>104.0</ele><time>2026-04-29T11:50:09.001Z</time></trkpt><trkpt lat="41.39148344625249" lon="19.823375082601554"><ele>104.0</ele><time>2026-04-29T11:50:10.001Z</time></trkpt><trkpt lat="41.391478882355706" lon="19.82350711620371"><ele>104.0</ele><time>2026-04-29T11:50:11.001Z</time></trkpt><trkpt lat="41.39145477430707" lon="19.823635709141488"><ele>104.0</ele><time>2026-04-29T11:50:12.001Z</time></trkpt><trkpt lat="41.391418396280656" lon="19.823747455792617"><ele>104.4</ele><time>2026-04-29T11:50:13.001Z</time></trkpt><trkpt lat="41.39138396168548" lon="19.823870827428582"><ele>104.80000000000001</ele><time>2026-04-29T11:50:14.001Z</time></trkpt><trkpt lat="41.39134661802649" lon="19.82400519432897"><ele>105.19999999999999</ele><time>2026-04-29T11:50:15.001Z</time></trkpt><trkpt lat="41.39130720735756" lon="19.824147116415848"><ele>105.6</ele><time>2026-04-29T11:50:16.001Z</time></trkpt><trkpt lat="41.39127644331918" lon="19.8242827349161"><ele>106.0</ele><time>2026-04-29T11:50:17.001Z</time></trkpt><trkpt lat="41.3912749254291" lon="19.824433754492727"><ele>106.50000000000001</ele><time>2026-04-29T11:50:18.001Z</time></trkpt><trkpt lat="41.391249658322565" lon="19.824569620638933"><ele>107.0</ele><time>2026-04-29T11:50:19.001Z</time></trkpt><trkpt lat="41.391256957719634" lon="19.82468952383356"><ele>107.5</ele><time>2026-04-29T11:50:20.001Z</time></trkpt><trkpt lat="41.391257141176766" lon="19.82479517685705"><ele>108.0</ele><time>2026-04-29T11:50:21.001Z</time></trkpt><trkpt lat="41.39125799598584" lon="19.82490091358492"><ele>108.50000000000001</ele><time>2026-04-29T11:50:23.001Z</time></trkpt><trkpt lat="41.39125387748747" lon="19.825009486531147"><ele>109.0</ele><time>2026-04-29T11:50:25.001Z</time></trkpt><trkpt lat="41.39124491211042" lon="19.825130320298275"><ele>109.50000000000001</ele><time>2026-04-29T11:50:27.001Z</time></trkpt><trkpt lat="41.39121679563947" lon="19.82528929143342"><ele>110.0</ele><time>2026-04-29T11:50:29.001Z</time></trkpt><trkpt lat="41.39120440618922" lon="19.825401372731427"><ele>110.5</ele><time>2026-04-29T11:50:30.001Z</time></trkpt><trkpt lat="41.39119391415201" lon="19.825495477422"><ele>111.0</ele><time>2026-04-29T11:50:31.001Z</time></trkpt><trkpt lat="41.391180394892274" lon="19.825628653487403"><ele>111.50000000000001</ele><time>2026-04-29T11:50:33.001Z</time></trkpt><trkpt lat="41.391171864885486" lon="19.825712681629163"><ele>112.0</ele><time>2026-04-29T11:50:34.001Z</time></trkpt><trkpt lat="41.39115891319906" lon="19.825840268565663"><ele>112.16666666666667</ele><time>2026-04-29T11:50:36.001Z</time></trkpt><trkpt lat="41.391242072775896" lon="19.82599807636671"><ele>112.33333333333334</ele><time>2026-04-29T11:50:38.001Z</time></trkpt><trkpt lat="41.39128282996176" lon="19.82607876153567"><ele>112.5</ele><time>2026-04-29T11:50:39.001Z</time></trkpt><trkpt lat="41.39134210966707" lon="19.826159401277867"><ele>112.66666666666666</ele><time>2026-04-29T11:50:40.001Z</time></trkpt><trkpt lat="41.391390956019514" lon="19.82621423397715"><ele>112.83333333333333</ele><time>2026-04-29T11:50:41.001Z</time></trkpt><trkpt lat="41.3914448215086" lon="19.826263979938208"><ele>113.0</ele><time>2026-04-29T11:50:43.001Z</time></trkpt><trkpt lat="41.39151550441781" lon="19.82635662476959"><ele>113.16666666666666</ele><time>2026-04-29T11:50:45.001Z</time></trkpt><trkpt lat="41.39156050713645" lon="19.82642515802868"><ele>113.33333333333333</ele><time>2026-04-29T11:50:46.001Z</time></trkpt><trkpt lat="41.391629979299445" lon="19.826517067514835"><ele>113.5</ele><time>2026-04-29T11:50:48.001Z</time></trkpt><trkpt lat="41.39171744853243" lon="19.826634854166333"><ele>113.66666666666666</ele><time>2026-04-29T11:50:50.001Z</time></trkpt><trkpt lat="41.391762698901935" lon="19.82669939874285"><ele>113.83333333333333</ele><time>2026-04-29T11:50:51.001Z</time></trkpt><trkpt lat="41.391787897370385" lon="19.826793499421715"><ele>114.0</ele><time>2026-04-29T11:50:52.001Z</time></trkpt><trkpt lat="41.39182023607425" lon="19.82689062545844"><ele>114.0</ele><time>2026-04-29T11:50:53.001Z</time></trkpt><trkpt lat="41.39185923597228" lon="19.82701600729221"><ele>114.0</ele><time>2026-04-29T11:50:54.001Z</time></trkpt><trkpt lat="41.391861598668925" lon="19.82717944815118"><ele>114.0</ele><time>2026-04-29T11:50:55.001Z</time></trkpt><trkpt lat="41.39188947486613" lon="19.827403320994556"><ele>114.0</ele><time>2026-04-29T11:50:56.001Z</time></trkpt><trkpt lat="41.39192559595519" lon="19.82769340828591"><ele>116.33333333333334</ele><time>2026-04-29T11:50:57.001Z</time></trkpt><trkpt lat="41.39197869091782" lon="19.82800760326921"><ele>118.66666666666667</ele><time>2026-04-29T11:50:58.001Z</time></trkpt><trkpt lat="41.392010934066064" lon="19.828266423380832"><ele>121.0</ele><time>2026-04-29T11:50:59.001Z</time></trkpt><trkpt lat="41.39203729615232" lon="19.828481412651787"><ele>124.0</ele><time>2026-04-29T11:51:00.001Z</time></trkpt><trkpt lat="41.39206537489886" lon="19.828674024141428"><ele>127.0</ele><time>2026-04-29T11:51:01.001Z</time></trkpt><trkpt lat="41.39210484584734" lon="19.828835728687313"><ele>130.0</ele><time>2026-04-29T11:51:02.001Z</time></trkpt><trkpt lat="41.3921566088606" lon="19.829002357364025"><ele>133.0</ele><time>2026-04-29T11:51:03.001Z</time></trkpt><trkpt lat="41.392166794927604" lon="19.829230886262483"><ele>131.5</ele><time>2026-04-29T11:51:04.001Z</time></trkpt><trkpt lat="41.392317641888845" lon="19.829391149024936"><ele>130.0</ele><time>2026-04-29T11:51:05.001Z</time></trkpt><trkpt lat="41.39237485257502" lon="19.8295360095804"><ele>128.5</ele><time>2026-04-29T11:51:06Z</time></trkpt><trkpt lat="41.39243510487019" lon="19.82965017474554"><ele>127.0</ele><time>2026-04-29T11:51:07Z</time></trkpt><trkpt lat="41.39251988112436" lon="19.829752944470005"><ele>127.0</ele><time>2026-04-29T11:51:08Z</time></trkpt><trkpt lat="41.39263825611235" lon="19.82983679365919"><ele>127.0</ele><time>2026-04-29T11:51:09Z</time></trkpt><trkpt lat="41.39278633922219" lon="19.829887299874915"><ele>127.0</ele><time>2026-04-29T11:51:10Z</time></trkpt><trkpt lat="41.392951589810934" lon="19.829909465534595"><ele>126.33333333333334</ele><time>2026-04-29T11:51:11Z</time></trkpt><trkpt lat="41.39312701110349" lon="19.829908340326263"><ele>125.66666666666666</ele><time>2026-04-29T11:51:12Z</time></trkpt><trkpt lat="41.393306247342764" lon="19.829910723489686"><ele>125.0</ele><time>2026-04-29T11:51:13Z</time></trkpt><trkpt lat="41.39346402690705" lon="19.829928562330416"><ele>125.0</ele><time>2026-04-29T11:51:14Z</time></trkpt><trkpt lat="41.39361408781638" lon="19.829962587542962"><ele>125.0</ele><time>2026-04-29T11:51:15Z</time></trkpt><trkpt lat="41.393770172170754" lon="19.83002226075639"><ele>125.0</ele><time>2026-04-29T11:51:16Z</time></trkpt><trkpt lat="41.3939164854582" lon="19.830135446948358"><ele>128.33333333333331</ele><time>2026-04-29T11:51:17Z</time></trkpt><trkpt lat="41.394073516539606" lon="19.830242479402507"><ele>131.66666666666666</ele><time>2026-04-29T11:51:18Z</time></trkpt><trkpt lat="41.39423048032264" lon="19.8303502056889"><ele>135.0</ele><time>2026-04-29T11:51:19Z</time></trkpt><trkpt lat="41.39439603416034" lon="19.83045150305861"><ele>135.0</ele><time>2026-04-29T11:51:20Z</time></trkpt><trkpt lat="41.39455161571469" lon="19.8305704290754"><ele>135.0</ele><time>2026-04-29T11:51:21Z</time></trkpt><trkpt lat="41.39470135079029" lon="19.83069189354882"><ele>135.0</ele><time>2026-04-29T11:51:22Z</time></trkpt><trkpt lat="41.39483366523974" lon="19.830796659076103"><ele>132.25</ele><time>2026-04-29T11:51:23Z</time></trkpt><trkpt lat="41.394958443042995" lon="19.83087315552237"><ele>129.5</ele><time>2026-04-29T11:51:24Z</time></trkpt><trkpt lat="41.395087515703985" lon="19.83093589069611"><ele>126.75</ele><time>2026-04-29T11:51:25Z</time></trkpt><trkpt lat="41.3952216430004" lon="19.830969402436914"><ele>124.0</ele><time>2026-04-29T11:51:26Z</time></trkpt><trkpt lat="41.39535351594701" lon="19.83095694107504"><ele>124.0</ele><time>2026-04-29T11:51:27Z</time></trkpt><trkpt lat="41.395499613284045" lon="19.830904583072645"><ele>124.0</ele><time>2026-04-29T11:51:28Z</time></trkpt><trkpt lat="41.39566059915264" lon="19.83083564915268"><ele>124.0</ele><time>2026-04-29T11:51:29Z</time></trkpt><trkpt lat="41.39582026847365" lon="19.830776556959165"><ele>123.25</ele><time>2026-04-29T11:51:30Z</time></trkpt><trkpt lat="41.39596234276456" lon="19.83073376456367"><ele>122.5</ele><time>2026-04-29T11:51:31Z</time></trkpt><trkpt lat="41.39609178341709" lon="19.830697916656405"><ele>121.75</ele><time>2026-04-29T11:51:32Z</time></trkpt><trkpt lat="41.396229318242064" lon="19.830657771732014"><ele>121.0</ele><time>2026-04-29T11:51:33Z</time></trkpt><trkpt lat="41.39637366419839" lon="19.83060288350189"><ele>119.75</ele><time>2026-04-29T11:51:34Z</time></trkpt><trkpt lat="41.39650752971821" lon="19.83054948653435"><ele>118.5</ele><time>2026-04-29T11:51:35Z</time></trkpt><trkpt lat="41.39663191079445" lon="19.830500553125916"><ele>117.25</ele><time>2026-04-29T11:51:36Z</time></trkpt><trkpt lat="41.396751477159256" lon="19.830456958797125"><ele>116.0</ele><time>2026-04-29T11:51:37Z</time></trkpt><trkpt lat="41.39686279306612" lon="19.83042735854405"><ele>116.0</ele><time>2026-04-29T11:51:38Z</time></trkpt><trkpt lat="41.39696138186162" lon="19.83040588114708"><ele>116.0</ele><time>2026-04-29T11:51:39Z</time></trkpt><trkpt lat="41.39704821633358" lon="19.83038711036005"><ele>116.0</ele><time>2026-04-29T11:51:40Z</time></trkpt><trkpt lat="41.39714749304079" lon="19.830367122438968"><ele>116.0</ele><time>2026-04-29T11:51:41Z</time></trkpt><trkpt lat="41.3972598399349" lon="19.830341493152247"><ele>116.0</ele><time>2026-04-29T11:51:42Z</time></trkpt><trkpt lat="41.39736569453223" lon="19.830317369548244"><ele>116.33333333333333</ele><time>2026-04-29T11:51:43Z</time></trkpt><trkpt lat="41.39744856761293" lon="19.830326415470804"><ele>116.66666666666666</ele><time>2026-04-29T11:51:44Z</time></trkpt><trkpt lat="41.39751915372163" lon="19.830435887305374"><ele>117.0</ele><time>2026-04-29T11:51:46Z</time></trkpt><trkpt lat="41.397521341646744" lon="19.830520499107074"><ele>117.33333333333334</ele><time>2026-04-29T11:51:47Z</time></trkpt><trkpt lat="41.39750746420909" lon="19.83062892299291"><ele>117.66666666666667</ele><time>2026-04-29T11:51:48Z</time></trkpt><trkpt lat="41.397495050464116" lon="19.83076387639586"><ele>118.0</ele><time>2026-04-29T11:51:49Z</time></trkpt><trkpt lat="41.39747709097359" lon="19.830921265241287"><ele>118.25</ele><time>2026-04-29T11:51:50Z</time></trkpt><trkpt lat="41.39749585318505" lon="19.83108838221751"><ele>118.5</ele><time>2026-04-29T11:51:51Z</time></trkpt><trkpt lat="41.39755855898331" lon="19.831232553799275"><ele>118.75</ele><time>2026-04-29T11:51:52Z</time></trkpt><trkpt lat="41.39762397803205" lon="19.83136204290117"><ele>119.0</ele><time>2026-04-29T11:51:53Z</time></trkpt><trkpt lat="41.397688536187125" lon="19.83149920598459"><ele>119.0</ele><time>2026-04-29T11:51:54Z</time></trkpt><trkpt lat="41.39778865736333" lon="19.831620737525505"><ele>119.0</ele><time>2026-04-29T11:51:55Z</time></trkpt><trkpt lat="41.39789525964038" lon="19.831755863925775"><ele>119.0</ele><time>2026-04-29T11:51:56Z</time></trkpt><trkpt lat="41.39801700307447" lon="19.831909622477674"><ele>120.33333333333333</ele><time>2026-04-29T11:51:57Z</time></trkpt><trkpt lat="41.39818385069371" lon="19.83205706089874"><ele>121.66666666666666</ele><time>2026-04-29T11:51:58Z</time></trkpt><trkpt lat="41.39837719132651" lon="19.832226220952972"><ele>123.0</ele><time>2026-04-29T11:51:59Z</time></trkpt><trkpt lat="41.398593024473804" lon="19.832405252691082"><ele>123.0</ele><time>2026-04-29T11:52:00Z</time></trkpt><trkpt lat="41.39876742214734" lon="19.832554188899937"><ele>123.0</ele><time>2026-04-29T11:52:01Z</time></trkpt><trkpt lat="41.398890455482444" lon="19.832659402509677"><ele>123.0</ele><time>2026-04-29T11:52:02Z</time></trkpt><trkpt lat="41.398984230787676" lon="19.832740268442638"><ele>123.80000000000001</ele><time>2026-04-29T11:52:03Z</time></trkpt><trkpt lat="41.39904414042279" lon="19.832792872699134"><ele>124.60000000000001</ele><time>2026-04-29T11:52:04Z</time></trkpt><trkpt lat="41.399107765438096" lon="19.832856149083234"><ele>125.39999999999999</ele><time>2026-04-29T11:52:05Z</time></trkpt><trkpt lat="41.39918189666055" lon="19.832917147951164"><ele>126.19999999999999</ele><time>2026-04-29T11:52:06Z</time></trkpt><trkpt lat="41.399244339896896" lon="19.833016305706472"><ele>127.0</ele><time>2026-04-29T11:52:07Z</time></trkpt><trkpt lat="41.39934474571448" lon="19.833118077693136"><ele>127.0</ele><time>2026-04-29T11:52:08Z</time></trkpt><trkpt lat="41.39944160769562" lon="19.83326690692558"><ele>127.0</ele><time>2026-04-29T11:52:09Z</time></trkpt><trkpt lat="41.399554297920425" lon="19.833422884739687"><ele>127.0</ele><time>2026-04-29T11:52:10Z</time></trkpt><trkpt lat="41.39967058434815" lon="19.83359029999738"><ele>126.33333333333334</ele><time>2026-04-29T11:52:11Z</time></trkpt><trkpt lat="41.39976735742613" lon="19.83374951066599"><ele>125.66666666666666</ele><time>2026-04-29T11:52:12Z</time></trkpt><trkpt lat="41.399846645551236" lon="19.83391311794609"><ele>125.0</ele><time>2026-04-29T11:52:13Z</time></trkpt><trkpt lat="41.39992087216426" lon="19.834095539170747"><ele>125.0</ele><time>2026-04-29T11:52:14Z</time></trkpt><trkpt lat="41.39999031155765" lon="19.83427120932435"><ele>125.0</ele><time>2026-04-29T11:52:15Z</time></trkpt><trkpt lat="41.40005938410647" lon="19.834411312591865"><ele>125.0</ele><time>2026-04-29T11:52:16Z</time></trkpt><trkpt lat="41.40013552164445" lon="19.834507146706347"><ele>125.0</ele><time>2026-04-29T11:52:17Z</time></trkpt><trkpt lat="41.40022191677865" lon="19.83455438517661"><ele>126.5</ele><time>2026-04-29T11:52:18Z</time></trkpt><trkpt lat="41.40031986195109" lon="19.834554797014267"><ele>128.0</ele><time>2026-04-29T11:52:19Z</time></trkpt><trkpt lat="41.400435283777284" lon="19.834519319193653"><ele>129.5</ele><time>2026-04-29T11:52:20Z</time></trkpt><trkpt lat="41.40055777096981" lon="19.83445429015482"><ele>131.0</ele><time>2026-04-29T11:52:21Z</time></trkpt><trkpt lat="41.40067943309877" lon="19.83436734837615"><ele>130.0</ele><time>2026-04-29T11:52:22Z</time></trkpt><trkpt lat="41.400799363950455" lon="19.83427099768395"><ele>129.0</ele><time>2026-04-29T11:52:23Z</time></trkpt><trkpt lat="41.40090460094427" lon="19.8341919415796"><ele>128.0</ele><time>2026-04-29T11:52:24Z</time></trkpt><trkpt lat="41.40099295089585" lon="19.83413526595056"><ele>127.0</ele><time>2026-04-29T11:52:25Z</time></trkpt><trkpt lat="41.40108293468416" lon="19.834100559976843"><ele>127.0</ele><time>2026-04-29T11:52:26Z</time></trkpt><trkpt lat="41.401184044079685" lon="19.834079510964735"><ele>126.99999999999999</ele><time>2026-04-29T11:52:27Z</time></trkpt><trkpt lat="41.4012876273236" lon="19.834081470658784"><ele>126.99999999999999</ele><time>2026-04-29T11:52:28Z</time></trkpt><trkpt lat="41.40138843044557" lon="19.834100568401766"><ele>127.0</ele><time>2026-04-29T11:52:29.001Z</time></trkpt><trkpt lat="41.401487610937856" lon="19.834114308430145"><ele>127.0</ele><time>2026-04-29T11:52:30.001Z</time></trkpt><trkpt lat="41.401580746209795" lon="19.834117207957323"><ele>127.83333333333334</ele><time>2026-04-29T11:52:31.001Z</time></trkpt><trkpt lat="41.40166065781667" lon="19.83411258011805"><ele>128.66666666666669</ele><time>2026-04-29T11:52:32.001Z</time></trkpt><trkpt lat="41.401724718328005" lon="19.83411701624174"><ele>129.5</ele><time>2026-04-29T11:52:33.001Z</time></trkpt><trkpt lat="41.40179909560612" lon="19.834123473773943"><ele>130.33333333333334</ele><time>2026-04-29T11:52:34.001Z</time></trkpt><trkpt lat="41.401917338360796" lon="19.834130576642117"><ele>131.16666666666666</ele><time>2026-04-29T11:52:36.001Z</time></trkpt><trkpt lat="41.40198113338672" lon="19.8341241082698"><ele>132.0</ele><time>2026-04-29T11:52:37.001Z</time></trkpt><trkpt lat="41.40204382513914" lon="19.834144756444164"><ele>132.0</ele><time>2026-04-29T11:52:38.001Z</time></trkpt><trkpt lat="41.40211314295465" lon="19.834160873265567"><ele>132.0</ele><time>2026-04-29T11:52:39.001Z</time></trkpt><trkpt lat="41.402191604179784" lon="19.83418241750787"><ele>132.0</ele><time>2026-04-29T11:52:40.001Z</time></trkpt><trkpt lat="41.40228166544472" lon="19.834209031404338"><ele>132.0</ele><time>2026-04-29T11:52:41.001Z</time></trkpt><trkpt lat="41.402370766955144" lon="19.83424381594823"><ele>132.0</ele><time>2026-04-29T11:52:42.001Z</time></trkpt><trkpt lat="41.40244244947301" lon="19.834269492936354"><ele>132.0</ele><time>2026-04-29T11:52:43.001Z</time></trkpt><trkpt lat="41.40252129046325" lon="19.834273280332813"><ele>131.83333333333334</ele><time>2026-04-29T11:52:44.001Z</time></trkpt><trkpt lat="41.40261379885393" lon="19.834306706903085"><ele>131.66666666666666</ele><time>2026-04-29T11:52:45.001Z</time></trkpt><trkpt lat="41.40270449967824" lon="19.834320231872894"><ele>131.5</ele><time>2026-04-29T11:52:46.001Z</time></trkpt><trkpt lat="41.402792139193224" lon="19.8343115416409"><ele>131.33333333333331</ele><time>2026-04-29T11:52:47.001Z</time></trkpt><trkpt lat="41.40287124838105" lon="19.83430273238371"><ele>131.16666666666666</ele><time>2026-04-29T11:52:48.001Z</time></trkpt><trkpt lat="41.402943132066675" lon="19.834294783099615"><ele>131.0</ele><time>2026-04-29T11:52:49.001Z</time></trkpt><trkpt lat="41.40302713783928" lon="19.834282446592585"><ele>131.0</ele><time>2026-04-29T11:52:50.001Z</time></trkpt><trkpt lat="41.40311049069487" lon="19.83427440488171"><ele>131.0</ele><time>2026-04-29T11:52:51.001Z</time></trkpt><trkpt lat="41.40323730599472" lon="19.834251929530634"><ele>131.0</ele><time>2026-04-29T11:52:53.001Z</time></trkpt><trkpt lat="41.403302888411446" lon="19.83423017716105"><ele>131.0</ele><time>2026-04-29T11:52:54.001Z</time></trkpt><trkpt lat="41.403375195871426" lon="19.83420391044846"><ele>131.0</ele><time>2026-04-29T11:52:55.001Z</time></trkpt><trkpt lat="41.40345933108496" lon="19.834177946109833"><ele>131.0</ele><time>2026-04-29T11:52:56.001Z</time></trkpt><trkpt lat="41.40355173109217" lon="19.834177946464955"><ele>131.0</ele><time>2026-04-29T11:52:57.001Z</time></trkpt><trkpt lat="41.40364573770562" lon="19.834170136678054"><ele>131.0</ele><time>2026-04-29T11:52:58.001Z</time></trkpt><trkpt lat="41.4037552847398" lon="19.834171235587245"><ele>131.0</ele><time>2026-04-29T11:52:59.001Z</time></trkpt><trkpt lat="41.40386343834333" lon="19.834159449613885"><ele>131.0</ele><time>2026-04-29T11:53:00.001Z</time></trkpt><trkpt lat="41.40396749946124" lon="19.834178361288995"><ele>131.0</ele><time>2026-04-29T11:53:01.001Z</time></trkpt><trkpt lat="41.404068562914375" lon="19.83418469008577"><ele>131.6</ele><time>2026-04-29T11:53:02.001Z</time></trkpt><trkpt lat="41.404171478902526" lon="19.834177931207304"><ele>132.2</ele><time>2026-04-29T11:53:03.001Z</time></trkpt><trkpt lat="41.40428701316757" lon="19.834171233110116"><ele>132.8</ele><time>2026-04-29T11:53:04.001Z</time></trkpt><trkpt lat="41.40439501609838" lon="19.834157158406445"><ele>133.4</ele><time>2026-04-29T11:53:05.001Z</time></trkpt><trkpt lat="41.40448915012909" lon="19.83413911215045"><ele>134.0</ele><time>2026-04-29T11:53:06.001Z</time></trkpt><trkpt lat="41.40458312326592" lon="19.83411959897732"><ele>134.6</ele><time>2026-04-29T11:53:07.001Z</time></trkpt><trkpt lat="41.404688699917656" lon="19.83409247974112"><ele>135.2</ele><time>2026-04-29T11:53:08.001Z</time></trkpt><trkpt lat="41.404790408181256" lon="19.834039931027615"><ele>135.79999999999998</ele><time>2026-04-29T11:53:09.001Z</time></trkpt><trkpt lat="41.40487915557629" lon="19.833984910932617"><ele>136.4</ele><time>2026-04-29T11:53:10.001Z</time></trkpt><trkpt lat="41.40496427597" lon="19.83395537247396"><ele>137.0</ele><time>2026-04-29T11:53:11.001Z</time></trkpt><trkpt lat="41.40506275796602" lon="19.8339444779727"><ele>137.0</ele><time>2026-04-29T11:53:12Z</time></trkpt><trkpt lat="41.40518018182457" lon="19.8339286473384"><ele>137.0</ele><time>2026-04-29T11:53:13Z</time></trkpt><trkpt lat="41.40527394651884" lon="19.833913052754852"><ele>137.0</ele><time>2026-04-29T11:53:14Z</time></trkpt><trkpt lat="41.4053573087821" lon="19.833896526161933"><ele>137.0</ele><time>2026-04-29T11:53:15Z</time></trkpt><trkpt lat="41.40545045761537" lon="19.83386307836941"><ele>137.0</ele><time>2026-04-29T11:53:16Z</time></trkpt><trkpt lat="41.40554838275228" lon="19.833824965442496"><ele>137.2</ele><time>2026-04-29T11:53:17Z</time></trkpt><trkpt lat="41.40564244000082" lon="19.83379386846631"><ele>137.39999999999998</ele><time>2026-04-29T11:53:18Z</time></trkpt><trkpt lat="41.4057420530201" lon="19.83376428191842"><ele>137.60000000000002</ele><time>2026-04-29T11:53:19Z</time></trkpt><trkpt lat="41.40585024047547" lon="19.8337322258376"><ele>137.8</ele><time>2026-04-29T11:53:20Z</time></trkpt><trkpt lat="41.40594467329953" lon="19.83371087588927"><ele>138.0</ele><time>2026-04-29T11:53:21Z</time></trkpt><trkpt lat="41.406023636726644" lon="19.833696470382915"><ele>138.0</ele><time>2026-04-29T11:53:22Z</time></trkpt><trkpt lat="41.40609390487517" lon="19.83367710816091"><ele>138.0</ele><time>2026-04-29T11:53:23Z</time></trkpt><trkpt lat="41.40615942281331" lon="19.83366062575954"><ele>138.0</ele><time>2026-04-29T11:53:24Z</time></trkpt><trkpt lat="41.406297939774994" lon="19.833614957124013"><ele>138.0</ele><time>2026-04-29T11:53:26Z</time></trkpt><trkpt lat="41.40639547782835" lon="19.833578169328646"><ele>138.0</ele><time>2026-04-29T11:53:27Z</time></trkpt><trkpt lat="41.40647415911883" lon="19.833550369682804"><ele>139.0</ele><time>2026-04-29T11:53:28Z</time></trkpt><trkpt lat="41.406549229547046" lon="19.833528954133637"><ele>140.0</ele><time>2026-04-29T11:53:29Z</time></trkpt><trkpt lat="41.40663057269323" lon="19.83350483843359"><ele>141.0</ele><time>2026-04-29T11:53:30Z</time></trkpt><trkpt lat="41.4067265979062" lon="19.833468941162444"><ele>142.0</ele><time>2026-04-29T11:53:31Z</time></trkpt><trkpt lat="41.40681789580902" lon="19.833474301092302"><ele>143.0</ele><time>2026-04-29T11:53:32Z</time></trkpt><trkpt lat="41.406914435986" lon="19.833439805025353"><ele>140.20000000000002</ele><time>2026-04-29T11:53:33Z</time></trkpt><trkpt lat="41.40701238571549" lon="19.833444309771473"><ele>137.4</ele><time>2026-04-29T11:53:34Z</time></trkpt><trkpt lat="41.40712360087409" lon="19.833438915010063"><ele>134.60000000000002</ele><time>2026-04-29T11:53:35Z</time></trkpt><trkpt lat="41.407235966392484" lon="19.833426128406366"><ele>131.8</ele><time>2026-04-29T11:53:36Z</time></trkpt><trkpt lat="41.40732763292737" lon="19.833410995159966"><ele>129.0</ele><time>2026-04-29T11:53:37Z</time></trkpt><trkpt lat="41.40741161186399" lon="19.833399128013898"><ele>129.0</ele><time>2026-04-29T11:53:38Z</time></trkpt><trkpt lat="41.407479723236236" lon="19.833389397485636"><ele>129.0</ele><time>2026-04-29T11:53:39Z</time></trkpt><trkpt lat="41.40755346833909" lon="19.833396148357824"><ele>129.0</ele><time>2026-04-29T11:53:40Z</time></trkpt><trkpt lat="41.407615317412656" lon="19.833423278197028"><ele>129.0</ele><time>2026-04-29T11:53:41Z</time></trkpt><trkpt lat="41.40769635295377" lon="19.83353435068073"><ele>129.0</ele><time>2026-04-29T11:53:43Z</time></trkpt><trkpt lat="41.40771467221576" lon="19.83363921131788"><ele>129.0</ele><time>2026-04-29T11:53:44Z</time></trkpt><trkpt lat="41.407768767270944" lon="19.833768459039693"><ele>130.2</ele><time>2026-04-29T11:53:45Z</time></trkpt><trkpt lat="41.40782953048645" lon="19.833867493766764"><ele>131.4</ele><time>2026-04-29T11:53:46Z</time></trkpt><trkpt lat="41.40790435159362" lon="19.833924842922368"><ele>132.6</ele><time>2026-04-29T11:53:47Z</time></trkpt><trkpt lat="41.40796771679419" lon="19.833990900698232"><ele>133.8</ele><time>2026-04-29T11:53:48Z</time></trkpt><trkpt lat="41.40805383035396" lon="19.834051995642177"><ele>135.0</ele><time>2026-04-29T11:53:49Z</time></trkpt><trkpt lat="41.40814834924843" lon="19.834101750634634"><ele>135.0</ele><time>2026-04-29T11:53:50Z</time></trkpt><trkpt lat="41.408224336606615" lon="19.8341366648219"><ele>135.0</ele><time>2026-04-29T11:53:51Z</time></trkpt><trkpt lat="41.40828899733479" lon="19.83418997976797"><ele>135.0</ele><time>2026-04-29T11:53:52Z</time></trkpt><trkpt lat="41.40835904664463" lon="19.83426711453968"><ele>135.0</ele><time>2026-04-29T11:53:53Z</time></trkpt><trkpt lat="41.40841849877746" lon="19.83435149539888"><ele>135.0</ele><time>2026-04-29T11:53:54Z</time></trkpt><trkpt lat="41.40847330008513" lon="19.834419555658673"><ele>135.0</ele><time>2026-04-29T11:53:55Z</time></trkpt><trkpt lat="41.408588288797404" lon="19.834501252946637"><ele>134.4</ele><time>2026-04-29T11:53:57Z</time></trkpt><trkpt lat="41.40865814343604" lon="19.834528014743046"><ele>133.8</ele><time>2026-04-29T11:53:58Z</time></trkpt><trkpt lat="41.408765842342135" lon="19.83446076348704"><ele>133.2</ele><time>2026-04-29T11:53:59Z</time></trkpt><trkpt lat="41.408859032266044" lon="19.834413000462742"><ele>132.6</ele><time>2026-04-29T11:54:00Z</time></trkpt><trkpt lat="41.40892392491202" lon="19.834375733660337"><ele>132.0</ele><time>2026-04-29T11:54:01Z</time></trkpt><trkpt lat="41.409028022670135" lon="19.834315703153866"><ele>132.0</ele><time>2026-04-29T11:54:03Z</time></trkpt><trkpt lat="41.40911593298707" lon="19.8342714186545"><ele>132.0</ele><time>2026-04-29T11:54:05Z</time></trkpt><trkpt lat="41.40918077314194" lon="19.834290358207646"><ele>132.0</ele><time>2026-04-29T11:54:07Z</time></trkpt><trkpt lat="41.40924756390783" lon="19.834348404238305"><ele>132.0</ele><time>2026-04-29T11:54:11Z</time></trkpt><trkpt lat="41.40930433937743" lon="19.83446413235826"><ele>132.0</ele><time>2026-04-29T11:54:14Z</time></trkpt><trkpt lat="41.409357499746314" lon="19.834553068897463"><ele>132.0</ele><time>2026-04-29T11:54:15Z</time></trkpt><trkpt lat="41.40943404945669" lon="19.834622329189067"><ele>132.0</ele><time>2026-04-29T11:54:16Z</time></trkpt><trkpt lat="41.40951851882558" lon="19.83468146067895"><ele>132.0</ele><time>2026-04-29T11:54:17Z</time></trkpt><trkpt lat="41.409589088987566" lon="19.834728365236316"><ele>132.0</ele><time>2026-04-29T11:54:18Z</time></trkpt><trkpt lat="41.40965756247607" lon="19.834770534997105"><ele>132.0</ele><time>2026-04-29T11:54:19Z</time></trkpt><trkpt lat="41.40973403776342" lon="19.834851465181604"><ele>132.0</ele><time>2026-04-29T11:54:20Z</time></trkpt><trkpt lat="41.40980900267206" lon="19.834905971378674"><ele>132.0</ele><time>2026-04-29T11:54:21Z</time></trkpt><trkpt lat="41.40988219009636" lon="19.834958412716773"><ele>131.0</ele><time>2026-04-29T11:54:22Z</time></trkpt><trkpt lat="41.40996423993397" lon="19.834998850776476"><ele>130.0</ele><time>2026-04-29T11:54:23Z</time></trkpt><trkpt lat="41.410054549719995" lon="19.83507055751655"><ele>129.0</ele><time>2026-04-29T11:54:24Z</time></trkpt><trkpt lat="41.41014427495342" lon="19.83514083503132"><ele>128.0</ele><time>2026-04-29T11:54:25Z</time></trkpt><trkpt lat="41.410247162551975" lon="19.835229034412798"><ele>127.0</ele><time>2026-04-29T11:54:26Z</time></trkpt><trkpt lat="41.410354882610555" lon="19.835325521004833"><ele>127.75</ele><time>2026-04-29T11:54:27Z</time></trkpt><trkpt lat="41.41046260986045" lon="19.835410805631064"><ele>128.5</ele><time>2026-04-29T11:54:28Z</time></trkpt><trkpt lat="41.41055719112329" lon="19.8354900990077"><ele>129.25</ele><time>2026-04-29T11:54:29Z</time></trkpt><trkpt lat="41.410669866020484" lon="19.835585179988296"><ele>130.0</ele><time>2026-04-29T11:54:30Z</time></trkpt><trkpt lat="41.410784854810906" lon="19.83570354867232"><ele>130.0</ele><time>2026-04-29T11:54:31Z</time></trkpt><trkpt lat="41.41087791442515" lon="19.835803316950923"><ele>130.0</ele><time>2026-04-29T11:54:32Z</time></trkpt><trkpt lat="41.410957446944636" lon="19.835869993179287"><ele>130.0</ele><time>2026-04-29T11:54:33Z</time></trkpt><trkpt lat="41.41102171312679" lon="19.835928469954897"><ele>130.0</ele><time>2026-04-29T11:54:34Z</time></trkpt><trkpt lat="41.41112193308862" lon="19.836022174172353"><ele>130.0</ele><time>2026-04-29T11:54:36Z</time></trkpt><trkpt lat="41.41122352202732" lon="19.836099205666045"><ele>131.33333333333334</ele><time>2026-04-29T11:54:38Z</time></trkpt><trkpt lat="41.41131052900535" lon="19.836143394498876"><ele>132.66666666666669</ele><time>2026-04-29T11:54:40Z</time></trkpt><trkpt lat="41.41137449214765" lon="19.836181616825147"><ele>134.0</ele><time>2026-04-29T11:54:42Z</time></trkpt><trkpt lat="41.41143512570497" lon="19.836211942039732"><ele>135.33333333333334</ele><time>2026-04-29T11:54:44.001Z</time></trkpt><trkpt lat="41.41153730588373" lon="19.83624062454557"><ele>136.66666666666666</ele><time>2026-04-29T11:54:46.001Z</time></trkpt><trkpt lat="41.41161234285872" lon="19.83626548679536"><ele>138.0</ele><time>2026-04-29T11:54:48.001Z</time></trkpt><trkpt lat="41.41169004806936" lon="19.83628582586687"><ele>138.0</ele><time>2026-04-29T11:54:50.001Z</time></trkpt><trkpt lat="41.41176962860753" lon="19.836332377943844"><ele>138.0</ele><time>2026-04-29T11:54:52.001Z</time></trkpt><trkpt lat="41.411862141258965" lon="19.836385488466043"><ele>138.0</ele><time>2026-04-29T11:54:54.001Z</time></trkpt><trkpt lat="41.41192591448463" lon="19.83642491190687"><ele>138.0</ele><time>2026-04-29T11:54:55.001Z</time></trkpt><trkpt lat="41.41199259877517" lon="19.83646620459932"><ele>138.0</ele><time>2026-04-29T11:54:56.001Z</time></trkpt><trkpt lat="41.41208164649863" lon="19.8365219936983"><ele>138.0</ele><time>2026-04-29T11:54:57.001Z</time></trkpt><trkpt lat="41.41218630615334" lon="19.836565623502874"><ele>137.8</ele><time>2026-04-29T11:54:58.001Z</time></trkpt><trkpt lat="41.412278975175404" lon="19.836638727002452"><ele>137.60000000000002</ele><time>2026-04-29T11:54:59.001Z</time></trkpt><trkpt lat="41.41237193827262" lon="19.836710273014553"><ele>137.39999999999998</ele><time>2026-04-29T11:55:00.001Z</time></trkpt><trkpt lat="41.4124390119252" lon="19.83677540871394"><ele>137.2</ele><time>2026-04-29T11:55:01.001Z</time></trkpt><trkpt lat="41.412508565279495" lon="19.83684855038604"><ele>137.0</ele><time>2026-04-29T11:55:02.001Z</time></trkpt><trkpt lat="41.41259234310007" lon="19.83692905842539"><ele>139.2</ele><time>2026-04-29T11:55:03.001Z</time></trkpt><trkpt lat="41.412656188576214" lon="19.837030750184958"><ele>141.39999999999998</ele><time>2026-04-29T11:55:04.001Z</time></trkpt><trkpt lat="41.41272305099176" lon="19.83712391488746"><ele>143.60000000000002</ele><time>2026-04-29T11:55:05.001Z</time></trkpt><trkpt lat="41.41279551119095" lon="19.837210541170258"><ele>145.8</ele><time>2026-04-29T11:55:06.001Z</time></trkpt><trkpt lat="41.41285951041249" lon="19.837287052418024"><ele>148.0</ele><time>2026-04-29T11:55:07.001Z</time></trkpt><trkpt lat="41.41293376591304" lon="19.83731926765005"><ele>148.20000000000002</ele><time>2026-04-29T11:55:08.001Z</time></trkpt><trkpt lat="41.412996275841635" lon="19.837382457432017"><ele>148.4</ele><time>2026-04-29T11:55:09.001Z</time></trkpt><trkpt lat="41.41308989702875" lon="19.837465791201865"><ele>148.60000000000002</ele><time>2026-04-29T11:55:11.001Z</time></trkpt><trkpt lat="41.41316446919234" lon="19.837565570484397"><ele>148.8</ele><time>2026-04-29T11:55:13.001Z</time></trkpt><trkpt lat="41.41323592586587" lon="19.837616135548743"><ele>149.0</ele><time>2026-04-29T11:55:15.001Z</time></trkpt><trkpt lat="41.41329574480084" lon="19.837687400792646"><ele>149.0</ele><time>2026-04-29T11:55:17.001Z</time></trkpt><trkpt lat="41.413344519731204" lon="19.83774554083364"><ele>149.0</ele><time>2026-04-29T11:55:19Z</time></trkpt><trkpt lat="41.413398715419135" lon="19.83782985639752"><ele>149.0</ele><time>2026-04-29T11:55:21Z</time></trkpt><trkpt lat="41.41345658203712" lon="19.83789726442213"><ele>149.0</ele><time>2026-04-29T11:55:22Z</time></trkpt><trkpt lat="41.41353626493439" lon="19.837992211209457"><ele>149.0</ele><time>2026-04-29T11:55:23Z</time></trkpt><trkpt lat="41.41362198518626" lon="19.83808239161571"><ele>149.0</ele><time>2026-04-29T11:55:24Z</time></trkpt><trkpt lat="41.41369771254549" lon="19.838184597162144"><ele>149.0</ele><time>2026-04-29T11:55:25Z</time></trkpt><trkpt lat="41.41377222876231" lon="19.83828143183815"><ele>149.0</ele><time>2026-04-29T11:55:26Z</time></trkpt><trkpt lat="41.413858331445105" lon="19.838386280715092"><ele>149.0</ele><time>2026-04-29T11:55:27Z</time></trkpt><trkpt lat="41.41394729399966" lon="19.838468977306835"><ele>149.0</ele><time>2026-04-29T11:55:28Z</time></trkpt><trkpt lat="41.41403854671374" lon="19.838529410621664"><ele>149.0</ele><time>2026-04-29T11:55:29Z</time></trkpt><trkpt lat="41.414129590277334" lon="19.838592925220258"><ele>150.0</ele><time>2026-04-29T11:55:30Z</time></trkpt><trkpt lat="41.4142131570075" lon="19.838650296611164"><ele>151.0</ele><time>2026-04-29T11:55:31Z</time></trkpt><trkpt lat="41.41429265475967" lon="19.838712832024957"><ele>152.0</ele><time>2026-04-29T11:55:32Z</time></trkpt><trkpt lat="41.41438212172279" lon="19.838790724519868"><ele>153.0</ele><time>2026-04-29T11:55:33Z</time></trkpt><trkpt lat="41.41446323131184" lon="19.838874497075356"><ele>154.0</ele><time>2026-04-29T11:55:34Z</time></trkpt><trkpt lat="41.41451838004317" lon="19.838967605987367"><ele>154.0</ele><time>2026-04-29T11:55:35Z</time></trkpt><trkpt lat="41.41459375059774" lon="19.83906090120685"><ele>154.0</ele><time>2026-04-29T11:55:36Z</time></trkpt><trkpt lat="41.41464632613615" lon="19.839123417950663"><ele>154.0</ele><time>2026-04-29T11:55:37Z</time></trkpt><trkpt lat="41.41469869157089" lon="19.839186309040162"><ele>154.0</ele><time>2026-04-29T11:55:38Z</time></trkpt><trkpt lat="41.414758289296195" lon="19.83926773364749"><ele>154.0</ele><time>2026-04-29T11:55:39Z</time></trkpt><trkpt lat="41.414810677953454" lon="19.839343086648228"><ele>154.0</ele><time>2026-04-29T11:55:40Z</time></trkpt><trkpt lat="41.4148296048065" lon="19.839441576895965"><ele>153.8</ele><time>2026-04-29T11:55:41Z</time></trkpt><trkpt lat="41.414848399687166" lon="19.839538786086656"><ele>153.60000000000002</ele><time>2026-04-29T11:55:42Z</time></trkpt><trkpt lat="41.41487484355674" lon="19.839657758179833"><ele>153.4</ele><time>2026-04-29T11:55:43Z</time></trkpt><trkpt lat="41.41492010018893" lon="19.839779780089106"><ele>153.20000000000002</ele><time>2026-04-29T11:55:44Z</time></trkpt><trkpt lat="41.41494980214326" lon="19.839916726452095"><ele>153.0</ele><time>2026-04-29T11:55:45Z</time></trkpt><trkpt lat="41.41496468199295" lon="19.840034248491026"><ele>153.0</ele><time>2026-04-29T11:55:46Z</time></trkpt><trkpt lat="41.41498660212802" lon="19.840126863264334"><ele>153.0</ele><time>2026-04-29T11:55:47Z</time></trkpt><trkpt lat="41.415010713475915" lon="19.840224446027168"><ele>153.0</ele><time>2026-04-29T11:55:48Z</time></trkpt><trkpt lat="41.41505991907485" lon="19.840317369645067"><ele>153.0</ele><time>2026-04-29T11:55:49Z</time></trkpt><trkpt lat="41.415085878422815" lon="19.8403960803111"><ele>153.0</ele><time>2026-04-29T11:55:50Z</time></trkpt><trkpt lat="41.41513278887967" lon="19.840458257274822"><ele>153.0</ele><time>2026-04-29T11:55:51Z</time></trkpt><trkpt lat="41.41519673922812" lon="19.840481176864483"><ele>153.0</ele><time>2026-04-29T11:55:52Z</time></trkpt><trkpt lat="41.41526709810831" lon="19.840472600384558"><ele>153.33333333333334</ele><time>2026-04-29T11:55:53Z</time></trkpt><trkpt lat="41.41533671716375" lon="19.840447256571366"><ele>153.66666666666666</ele><time>2026-04-29T11:55:54Z</time></trkpt><trkpt lat="41.41540160070937" lon="19.840427382972905"><ele>154.0</ele><time>2026-04-29T11:55:55Z</time></trkpt><trkpt lat="41.415468770747815" lon="19.84043500143935"><ele>154.33333333333331</ele><time>2026-04-29T11:55:56Z</time></trkpt><trkpt lat="41.415543420731446" lon="19.840441705040405"><ele>154.66666666666666</ele><time>2026-04-29T11:55:58Z</time></trkpt><trkpt lat="41.41562237448779" lon="19.84045000944447"><ele>155.0</ele><time>2026-04-29T11:56:00Z</time></trkpt><trkpt lat="41.41573316949078" lon="19.840524022736844"><ele>155.0</ele><time>2026-04-29T11:56:02Z</time></trkpt><trkpt lat="41.415853257346214" lon="19.8405923283031"><ele>155.0</ele><time>2026-04-29T11:56:04Z</time></trkpt><trkpt lat="41.41592233148921" lon="19.84062816575712"><ele>155.0</ele><time>2026-04-29T11:56:05Z</time></trkpt><trkpt lat="41.41598174770632" lon="19.840695359480595"><ele>155.0</ele><time>2026-04-29T11:56:06Z</time></trkpt><trkpt lat="41.416026186292406" lon="19.84077477707517"><ele>155.0</ele><time>2026-04-29T11:56:07Z</time></trkpt><trkpt lat="41.41609217964808" lon="19.840871621280076"><ele>155.0</ele><time>2026-04-29T11:56:08Z</time></trkpt><trkpt lat="41.416160685954885" lon="19.840967243095896"><ele>155.0</ele><time>2026-04-29T11:56:09Z</time></trkpt><trkpt lat="41.41622988820644" lon="19.841080091475366"><ele>155.0</ele><time>2026-04-29T11:56:10Z</time></trkpt><trkpt lat="41.416277454746144" lon="19.841190317087033"><ele>155.0</ele><time>2026-04-29T11:56:11Z</time></trkpt><trkpt lat="41.416318295215675" lon="19.84129909293072"><ele>155.0</ele><time>2026-04-29T11:56:12Z</time></trkpt><trkpt lat="41.41637316477344" lon="19.841408227358873"><ele>155.0</ele><time>2026-04-29T11:56:13Z</time></trkpt><trkpt lat="41.41645524012392" lon="19.841504039785065"><ele>155.0</ele><time>2026-04-29T11:56:14Z</time></trkpt><trkpt lat="41.416557666102925" lon="19.84157943997793"><ele>155.0</ele><time>2026-04-29T11:56:15Z</time></trkpt><trkpt lat="41.416666231268124" lon="19.84165763535916"><ele>155.0</ele><time>2026-04-29T11:56:16Z</time></trkpt><trkpt lat="41.4167617712585" lon="19.841744026070096"><ele>156.4</ele><time>2026-04-29T11:56:17Z</time></trkpt><trkpt lat="41.41685540266853" lon="19.841828555289453"><ele>157.8</ele><time>2026-04-29T11:56:18Z</time></trkpt><trkpt lat="41.41695129334965" lon="19.841897992481567"><ele>159.2</ele><time>2026-04-29T11:56:19Z</time></trkpt><trkpt lat="41.41705588890444" lon="19.841959464888316"><ele>160.6</ele><time>2026-04-29T11:56:20Z</time></trkpt><trkpt lat="41.41715334407497" lon="19.84203171405126"><ele>162.0</ele><time>2026-04-29T11:56:21Z</time></trkpt><trkpt lat="41.4172164307145" lon="19.8421254431542"><ele>162.0</ele><time>2026-04-29T11:56:22Z</time></trkpt><trkpt lat="41.41729647624502" lon="19.842165204009394"><ele>162.0</ele><time>2026-04-29T11:56:23Z</time></trkpt><trkpt lat="41.41737605855832" lon="19.842224559399956"><ele>162.0</ele><time>2026-04-29T11:56:24Z</time></trkpt><trkpt lat="41.41745416847196" lon="19.8422701816265"><ele>162.0</ele><time>2026-04-29T11:56:25Z</time></trkpt><trkpt lat="41.41754696267088" lon="19.842321700346854"><ele>162.0</ele><time>2026-04-29T11:56:26Z</time></trkpt><trkpt lat="41.4176308311833" lon="19.842358993104195"><ele>162.0</ele><time>2026-04-29T11:56:27Z</time></trkpt><trkpt lat="41.417711417512606" lon="19.842400130266505"><ele>162.0</ele><time>2026-04-29T11:56:28Z</time></trkpt><trkpt lat="41.41777458755986" lon="19.842518376989585"><ele>162.0</ele><time>2026-04-29T11:56:29Z</time></trkpt><trkpt lat="41.41785784464213" lon="19.8425414751837"><ele>162.0</ele><time>2026-04-29T11:56:30Z</time></trkpt><trkpt lat="41.41792015586265" lon="19.84255876229056"><ele>162.0</ele><time>2026-04-29T11:56:31Z</time></trkpt><trkpt lat="41.418002895434796" lon="19.842471969709337"><ele>162.0</ele><time>2026-04-29T11:56:32Z</time></trkpt><trkpt lat="41.418085502186244" lon="19.8424065254066"><ele>159.6</ele><time>2026-04-29T11:56:33Z</time></trkpt><trkpt lat="41.41817525078047" lon="19.84232315735165"><ele>157.2</ele><time>2026-04-29T11:56:34Z</time></trkpt><trkpt lat="41.41824535099784" lon="19.84227297093866"><ele>154.8</ele><time>2026-04-29T11:56:35Z</time></trkpt><trkpt lat="41.41836940551615" lon="19.842265212744433"><ele>152.4</ele><time>2026-04-29T11:56:37Z</time></trkpt><trkpt lat="41.418439478918415" lon="19.842306454485996"><ele>150.0</ele><time>2026-04-29T11:56:38Z</time></trkpt><trkpt lat="41.41849006616256" lon="19.842414926864862"><ele>150.0</ele><time>2026-04-29T11:56:39Z</time></trkpt><trkpt lat="41.41855483361089" lon="19.84251481620566"><ele>150.0</ele><time>2026-04-29T11:56:40Z</time></trkpt><trkpt lat="41.418626511417116" lon="19.84260279290113"><ele>150.0</ele><time>2026-04-29T11:56:41Z</time></trkpt><trkpt lat="41.418674729499614" lon="19.84269284162677"><ele>150.0</ele><time>2026-04-29T11:56:42Z</time></trkpt><trkpt lat="41.41874444358029" lon="19.842813353890982"><ele>150.0</ele><time>2026-04-29T11:56:44Z</time></trkpt><trkpt lat="41.418822187236046" lon="19.842942008761213"><ele>150.66666666666666</ele><time>2026-04-29T11:56:46.001Z</time></trkpt><trkpt lat="41.418867308391164" lon="19.843021554134584"><ele>151.33333333333334</ele><time>2026-04-29T11:56:47.001Z</time></trkpt><trkpt lat="41.41891583308135" lon="19.84310140579517"><ele>152.0</ele><time>2026-04-29T11:56:48.001Z</time></trkpt><trkpt lat="41.41896468484042" lon="19.84316004137447"><ele>152.66666666666669</ele><time>2026-04-29T11:56:49.001Z</time></trkpt><trkpt lat="41.41902975131489" lon="19.843216469123586"><ele>153.33333333333334</ele><time>2026-04-29T11:56:50.001Z</time></trkpt><trkpt lat="41.41911253629276" lon="19.8432608750172"><ele>154.0</ele><time>2026-04-29T11:56:51.001Z</time></trkpt><trkpt lat="41.41921021757143" lon="19.843284830134994"><ele>154.0</ele><time>2026-04-29T11:56:52.001Z</time></trkpt><trkpt lat="41.419306565246735" lon="19.843304051253593"><ele>154.0</ele><time>2026-04-29T11:56:53.001Z</time></trkpt><trkpt lat="41.419384403104324" lon="19.84332631064692"><ele>154.0</ele><time>2026-04-29T11:56:54.001Z</time></trkpt><trkpt lat="41.419446481601014" lon="19.84335596001707"><ele>154.0</ele><time>2026-04-29T11:56:55.001Z</time></trkpt><trkpt lat="41.41950638696413" lon="19.843395960938242"><ele>154.0</ele><time>2026-04-29T11:56:56.001Z</time></trkpt><trkpt lat="41.419593642597604" lon="19.843470582108466"><ele>154.0</ele><time>2026-04-29T11:56:57.001Z</time></trkpt><trkpt lat="41.41967047773559" lon="19.843542956015785"><ele>153.83333333333334</ele><time>2026-04-29T11:56:58.001Z</time></trkpt><trkpt lat="41.419739385828436" lon="19.843607018045315"><ele>153.66666666666669</ele><time>2026-04-29T11:56:59.001Z</time></trkpt><trkpt lat="41.41979741781152" lon="19.843665866062377"><ele>153.5</ele><time>2026-04-29T11:57:00.001Z</time></trkpt><trkpt lat="41.41986785058971" lon="19.843729985267263"><ele>153.33333333333334</ele><time>2026-04-29T11:57:01.001Z</time></trkpt><trkpt lat="41.41991985814657" lon="19.84382694528484"><ele>153.16666666666666</ele><time>2026-04-29T11:57:02.001Z</time></trkpt><trkpt lat="41.41998089647605" lon="19.843883399604966"><ele>153.0</ele><time>2026-04-29T11:57:03.001Z</time></trkpt><trkpt lat="41.42002367389266" lon="19.84396776944166"><ele>153.0</ele><time>2026-04-29T11:57:04.001Z</time></trkpt><trkpt lat="41.4200708709579" lon="19.844047772942965"><ele>153.0</ele><time>2026-04-29T11:57:05.001Z</time></trkpt><trkpt lat="41.42013112101078" lon="19.844118541812897"><ele>153.0</ele><time>2026-04-29T11:57:06.001Z</time></trkpt><trkpt lat="41.420179449750506" lon="19.844180067281002"><ele>153.0</ele><time>2026-04-29T11:57:07.001Z</time></trkpt><trkpt lat="41.42025650472767" lon="19.84420882154944"><ele>153.0</ele><time>2026-04-29T11:57:08.001Z</time></trkpt><trkpt lat="41.420352234192364" lon="19.84420503885271"><ele>153.0</ele><time>2026-04-29T11:57:09.001Z</time></trkpt><trkpt lat="41.42043824559729" lon="19.8442043086182"><ele>153.0</ele><time>2026-04-29T11:57:10.001Z</time></trkpt><trkpt lat="41.420526626389794" lon="19.8441939340394"><ele>153.0</ele><time>2026-04-29T11:57:11.001Z</time></trkpt><trkpt lat="41.4206155704515" lon="19.84419464884361"><ele>153.0</ele><time>2026-04-29T11:57:12.001Z</time></trkpt><trkpt lat="41.420683068998365" lon="19.844212130549952"><ele>153.0</ele><time>2026-04-29T11:57:13.001Z</time></trkpt><trkpt lat="41.420801362301205" lon="19.844298187196866"><ele>153.0</ele><time>2026-04-29T11:57:15.001Z</time></trkpt><trkpt lat="41.420851309098445" lon="19.844405565959654"><ele>153.0</ele><time>2026-04-29T11:57:16.001Z</time></trkpt><trkpt lat="41.420882624335" lon="19.844535439615804"><ele>153.0</ele><time>2026-04-29T11:57:17.001Z</time></trkpt><trkpt lat="41.42095630936074" lon="19.844657939162786"><ele>153.0</ele><time>2026-04-29T11:57:18.001Z</time></trkpt><trkpt lat="41.421035647481375" lon="19.844773908265736"><ele>153.0</ele><time>2026-04-29T11:57:19.001Z</time></trkpt><trkpt lat="41.42111199546273" lon="19.84489807294304"><ele>153.0</ele><time>2026-04-29T11:57:20.001Z</time></trkpt><trkpt lat="41.42118641295411" lon="19.845032538233173"><ele>153.0</ele><time>2026-04-29T11:57:21.001Z</time></trkpt><trkpt lat="41.42128878268666" lon="19.845151237993136"><ele>153.0</ele><time>2026-04-29T11:57:22.001Z</time></trkpt><trkpt lat="41.421383238557894" lon="19.845266674763664"><ele>153.0</ele><time>2026-04-29T11:57:23.001Z</time></trkpt><trkpt lat="41.421476761198335" lon="19.845383097567886"><ele>153.20000000000002</ele><time>2026-04-29T11:57:24Z</time></trkpt><trkpt lat="41.4215241185393" lon="19.845500048056476"><ele>153.4</ele><time>2026-04-29T11:57:25Z</time></trkpt><trkpt lat="41.42160144442343" lon="19.84561087734702"><ele>153.60000000000002</ele><time>2026-04-29T11:57:26Z</time></trkpt><trkpt lat="41.42164987208021" lon="19.845745946161877"><ele>153.8</ele><time>2026-04-29T11:57:27Z</time></trkpt><trkpt lat="41.4217270581501" lon="19.845841157169986"><ele>154.0</ele><time>2026-04-29T11:57:28Z</time></trkpt><trkpt lat="41.42178049649011" lon="19.845966835470485"><ele>154.0</ele><time>2026-04-29T11:57:29Z</time></trkpt><trkpt lat="41.421851450058234" lon="19.8460868504742"><ele>154.0</ele><time>2026-04-29T11:57:30Z</time></trkpt><trkpt lat="41.421894942795674" lon="19.846186868838938"><ele>154.0</ele><time>2026-04-29T11:57:31Z</time></trkpt><trkpt lat="41.421928227669945" lon="19.84626666409743"><ele>154.0</ele><time>2026-04-29T11:57:32Z</time></trkpt><trkpt lat="41.42197744905241" lon="19.846374444633653"><ele>154.0</ele><time>2026-04-29T11:57:33Z</time></trkpt><trkpt lat="41.422008402159" lon="19.846489577136477"><ele>154.0</ele><time>2026-04-29T11:57:34Z</time></trkpt><trkpt lat="41.422046712287" lon="19.846634541210275"><ele>154.0</ele><time>2026-04-29T11:57:35Z</time></trkpt><trkpt lat="41.42211363354647" lon="19.84676999838084"><ele>154.0</ele><time>2026-04-29T11:57:36Z</time></trkpt><trkpt lat="41.42218145392655" lon="19.84688279779444"><ele>154.0</ele><time>2026-04-29T11:57:37Z</time></trkpt><trkpt lat="41.422230610970175" lon="19.846995189522726"><ele>154.0</ele><time>2026-04-29T11:57:38Z</time></trkpt><trkpt lat="41.422269568831" lon="19.847117187988506"><ele>153.6</ele><time>2026-04-29T11:57:39Z</time></trkpt><trkpt lat="41.42230782531972" lon="19.847251267021335"><ele>153.2</ele><time>2026-04-29T11:57:40Z</time></trkpt><trkpt lat="41.42233825376919" lon="19.847369097158523"><ele>152.79999999999998</ele><time>2026-04-29T11:57:41Z</time></trkpt><trkpt lat="41.42237679770717" lon="19.84748556070951"><ele>152.4</ele><time>2026-04-29T11:57:42Z</time></trkpt><trkpt lat="41.42243508132279" lon="19.847604799330586"><ele>152.0</ele><time>2026-04-29T11:57:43Z</time></trkpt><trkpt lat="41.42250550940506" lon="19.847717380457624"><ele>152.0</ele><time>2026-04-29T11:57:44Z</time></trkpt><trkpt lat="41.422566599195115" lon="19.84780649913255"><ele>152.0</ele><time>2026-04-29T11:57:45Z</time></trkpt><trkpt lat="41.42261688225566" lon="19.84788679650457"><ele>152.0</ele><time>2026-04-29T11:57:46Z</time></trkpt><trkpt lat="41.4226612687983" lon="19.84796361239009"><ele>152.0</ele><time>2026-04-29T11:57:47Z</time></trkpt><trkpt lat="41.422702071397104" lon="19.848033968809098"><ele>152.0</ele><time>2026-04-29T11:57:48Z</time></trkpt><trkpt lat="41.422745173398" lon="19.848112167567198"><ele>152.0</ele><time>2026-04-29T11:57:49Z</time></trkpt><trkpt lat="41.42278137662306" lon="19.848190937777275"><ele>152.0</ele><time>2026-04-29T11:57:50Z</time></trkpt><trkpt lat="41.422813587512984" lon="19.848264535714783"><ele>152.0</ele><time>2026-04-29T11:57:51Z</time></trkpt><trkpt lat="41.42284857165724" lon="19.848340642534144"><ele>152.0</ele><time>2026-04-29T11:57:52Z</time></trkpt><trkpt lat="41.422880363717226" lon="19.84845938544702"><ele>152.0</ele><time>2026-04-29T11:57:54Z</time></trkpt><trkpt lat="41.42291836970237" lon="19.84860749441334"><ele>152.0</ele><time>2026-04-29T11:57:56Z</time></trkpt><trkpt lat="41.42299977430809" lon="19.84871037977045"><ele>153.6</ele><time>2026-04-29T11:57:58Z</time></trkpt><trkpt lat="41.42310785382207" lon="19.84880191517178"><ele>155.2</ele><time>2026-04-29T11:58:00Z</time></trkpt><trkpt lat="41.42316910556943" lon="19.848842761914035"><ele>156.8</ele><time>2026-04-29T11:58:01Z</time></trkpt><trkpt lat="41.42324501256795" lon="19.848905264228517"><ele>158.4</ele><time>2026-04-29T11:58:03Z</time></trkpt><trkpt lat="41.42332344371048" lon="19.84895562389056"><ele>160.0</ele><time>2026-04-29T11:58:05Z</time></trkpt><trkpt lat="41.423396565698525" lon="19.849051540065748"><ele>160.0</ele><time>2026-04-29T11:58:07Z</time></trkpt><trkpt lat="41.42344780107443" lon="19.84914687158772"><ele>160.0</ele><time>2026-04-29T11:58:09Z</time></trkpt><trkpt lat="41.4235085825302" lon="19.849247491142524"><ele>160.0</ele><time>2026-04-29T11:58:11Z</time></trkpt><trkpt lat="41.42354695426861" lon="19.84931552374684"><ele>160.0</ele><time>2026-04-29T11:58:12Z</time></trkpt><trkpt lat="41.423622243766005" lon="19.849363590748272"><ele>160.0</ele><time>2026-04-29T11:58:15Z</time></trkpt><trkpt lat="41.4237082181828" lon="19.849399574831658"><ele>160.0</ele><time>2026-04-29T11:58:17Z</time></trkpt><trkpt lat="41.4237705158196" lon="19.849421797160616"><ele>161.0</ele><time>2026-04-29T11:58:18Z</time></trkpt><trkpt lat="41.423881347855676" lon="19.84947080959793"><ele>162.0</ele><time>2026-04-29T11:58:20Z</time></trkpt><trkpt lat="41.42400319349669" lon="19.84952129364097"><ele>163.0</ele><time>2026-04-29T11:58:22Z</time></trkpt><trkpt lat="41.42406458520065" lon="19.84955417917549"><ele>164.0</ele><time>2026-04-29T11:58:23Z</time></trkpt><trkpt lat="41.42413411769589" lon="19.84959260841888"><ele>165.0</ele><time>2026-04-29T11:58:24Z</time></trkpt><trkpt lat="41.42420514099284" lon="19.849628715675074"><ele>165.0</ele><time>2026-04-29T11:58:25Z</time></trkpt><trkpt lat="41.4243047921618" lon="19.849721811600823"><ele>165.0</ele><time>2026-04-29T11:58:27Z</time></trkpt><trkpt lat="41.42437402104456" lon="19.849791770869167"><ele>165.0</ele><time>2026-04-29T11:58:28Z</time></trkpt><trkpt lat="41.42444246289624" lon="19.84988184995119"><ele>165.0</ele><time>2026-04-29T11:58:29Z</time></trkpt><trkpt lat="41.42451594929796" lon="19.84998562814578"><ele>165.0</ele><time>2026-04-29T11:58:30Z</time></trkpt><trkpt lat="41.42459010006993" lon="19.850101784173575"><ele>164.2</ele><time>2026-04-29T11:58:31Z</time></trkpt><trkpt lat="41.424620503881634" lon="19.850207111928366"><ele>163.4</ele><time>2026-04-29T11:58:32Z</time></trkpt><trkpt lat="41.42465923070624" lon="19.850326221893027"><ele>162.60000000000002</ele><time>2026-04-29T11:58:33Z</time></trkpt><trkpt lat="41.42468326273679" lon="19.85044545926311"><ele>161.8</ele><time>2026-04-29T11:58:34Z</time></trkpt><trkpt lat="41.42470409908447" lon="19.850538652537832"><ele>161.0</ele><time>2026-04-29T11:58:35Z</time></trkpt><trkpt lat="41.424729061764225" lon="19.850709433832282"><ele>161.0</ele><time>2026-04-29T11:58:37Z</time></trkpt><trkpt lat="41.424735261431536" lon="19.850809288928886"><ele>161.0</ele><time>2026-04-29T11:58:38Z</time></trkpt><trkpt lat="41.42474091024584" lon="19.850940854901168"><ele>161.0</ele><time>2026-04-29T11:58:40Z</time></trkpt><trkpt lat="41.424754198627596" lon="19.85106388970792"><ele>161.0</ele><time>2026-04-29T11:58:42Z</time></trkpt><trkpt lat="41.42478161215731" lon="19.851178137848628"><ele>161.0</ele><time>2026-04-29T11:58:44Z</time></trkpt><trkpt lat="41.424811027479365" lon="19.85127794618039"><ele>161.0</ele><time>2026-04-29T11:58:46Z</time></trkpt><trkpt lat="41.424839977801184" lon="19.851382576213982"><ele>161.66666666666666</ele><time>2026-04-29T11:58:48Z</time></trkpt><trkpt lat="41.42485825091179" lon="19.8514771058683"><ele>162.33333333333331</ele><time>2026-04-29T11:58:50Z</time></trkpt><trkpt lat="41.424870374803575" lon="19.851590778600563"><ele>163.0</ele><time>2026-04-29T11:58:53Z</time></trkpt><trkpt lat="41.424922721863005" lon="19.851683073411955"><ele>163.66666666666666</ele><time>2026-04-29T11:58:56Z</time></trkpt><trkpt lat="41.42496803882545" lon="19.85178541069907"><ele>164.33333333333334</ele><time>2026-04-29T11:58:59Z</time></trkpt><trkpt lat="41.425012282620045" lon="19.85186236232564"><ele>165.0</ele><time>2026-04-29T11:59:02Z</time></trkpt><trkpt lat="41.425033388874596" lon="19.851944411305258"><ele>167.66666666666666</ele><time>2026-04-29T11:59:04Z</time></trkpt><trkpt lat="41.425080230304786" lon="19.852018393552896"><ele>170.33333333333334</ele><time>2026-04-29T11:59:05Z</time></trkpt><trkpt lat="41.42513032130866" lon="19.85208916572043"><ele>173.0</ele><time>2026-04-29T11:59:06Z</time></trkpt><trkpt lat="41.42523857220078" lon="19.852125901822472"><ele>175.66666666666669</ele><time>2026-04-29T11:59:07Z</time></trkpt><trkpt lat="41.42529820940028" lon="19.852191463795414"><ele>178.33333333333334</ele><time>2026-04-29T11:59:08Z</time></trkpt><trkpt lat="41.42537888087589" lon="19.852251068335857"><ele>181.0</ele><time>2026-04-29T11:59:10Z</time></trkpt><trkpt lat="41.42547696644791" lon="19.852312458111275"><ele>179.20000000000002</ele><time>2026-04-29T11:59:13Z</time></trkpt><trkpt lat="41.425549042657174" lon="19.852365404924825"><ele>177.4</ele><time>2026-04-29T11:59:14Z</time></trkpt><trkpt lat="41.425626519100454" lon="19.852430823774295"><ele>175.6</ele><time>2026-04-29T11:59:15Z</time></trkpt><trkpt lat="41.42570549900942" lon="19.85251450686005"><ele>173.8</ele><time>2026-04-29T11:59:16Z</time></trkpt><trkpt lat="41.42579888881074" lon="19.852589891208478"><ele>172.0</ele><time>2026-04-29T11:59:17Z</time></trkpt><trkpt lat="41.42588419578495" lon="19.85264923144717"><ele>172.0</ele><time>2026-04-29T11:59:18Z</time></trkpt><trkpt lat="41.42595368849214" lon="19.852717962842643"><ele>172.0</ele><time>2026-04-29T11:59:19Z</time></trkpt><trkpt lat="41.426036201824424" lon="19.852782272733155"><ele>172.0</ele><time>2026-04-29T11:59:20Z</time></trkpt><trkpt lat="41.426082145524276" lon="19.852916184435337"><ele>172.0</ele><time>2026-04-29T11:59:21Z</time></trkpt><trkpt lat="41.42620550318997" lon="19.852847022798105"><ele>172.0</ele><time>2026-04-29T11:59:22Z</time></trkpt><trkpt lat="41.42628603465753" lon="19.852849077327683"><ele>169.8</ele><time>2026-04-29T11:59:23Z</time></trkpt><trkpt lat="41.42637731635958" lon="19.852837106427316"><ele>167.6</ele><time>2026-04-29T11:59:24Z</time></trkpt><trkpt lat="41.42646433354647" lon="19.852822119075732"><ele>165.4</ele><time>2026-04-29T11:59:25Z</time></trkpt><trkpt lat="41.426556120330275" lon="19.852820335866994"><ele>163.20000000000002</ele><time>2026-04-29T11:59:26Z</time></trkpt><trkpt lat="41.42665489032264" lon="19.8528291145616"><ele>161.0</ele><time>2026-04-29T11:59:28Z</time></trkpt><trkpt lat="41.426700794927456" lon="19.852918442699377"><ele>161.0</ele><time>2026-04-29T11:59:30Z</time></trkpt><trkpt lat="41.42670072152267" lon="19.85301151906309"><ele>161.0</ele><time>2026-04-29T11:59:31Z</time></trkpt><trkpt lat="41.4267289835339" lon="19.85312381958477"><ele>161.0</ele><time>2026-04-29T11:59:32Z</time></trkpt><trkpt lat="41.426742342516874" lon="19.85326778821214"><ele>161.0</ele><time>2026-04-29T11:59:33Z</time></trkpt><trkpt lat="41.42676258786054" lon="19.85339695585302"><ele>161.0</ele><time>2026-04-29T11:59:34Z</time></trkpt><trkpt lat="41.42679174249938" lon="19.8535242816124"><ele>161.0</ele><time>2026-04-29T11:59:35Z</time></trkpt><trkpt lat="41.42681472719319" lon="19.853655932765815"><ele>161.0</ele><time>2026-04-29T11:59:36Z</time></trkpt><trkpt lat="41.426831516883915" lon="19.853792915095404"><ele>161.0</ele><time>2026-04-29T11:59:37Z</time></trkpt><trkpt lat="41.42684119869271" lon="19.853928075342868"><ele>161.0</ele><time>2026-04-29T11:59:38Z</time></trkpt><trkpt lat="41.42684638204769" lon="19.854028052538514"><ele>161.0</ele><time>2026-04-29T11:59:39Z</time></trkpt><trkpt lat="41.426843016241094" lon="19.85413026330624"><ele>161.0</ele><time>2026-04-29T11:59:40Z</time></trkpt><trkpt lat="41.42685233670502" lon="19.854241458232167"><ele>161.0</ele><time>2026-04-29T11:59:41Z</time></trkpt><trkpt lat="41.42687814230121" lon="19.854349807915426"><ele>161.0</ele><time>2026-04-29T11:59:42Z</time></trkpt><trkpt lat="41.42691837039222" lon="19.854433940210505"><ele>161.0</ele><time>2026-04-29T11:59:43Z</time></trkpt><trkpt lat="41.4269807463343" lon="19.854518688401804"><ele>161.0</ele><time>2026-04-29T11:59:44Z</time></trkpt><trkpt lat="41.42704967522542" lon="19.854583729397053"><ele>161.0</ele><time>2026-04-29T11:59:45Z</time></trkpt><trkpt lat="41.42711285246021" lon="19.854644954597752"><ele>163.8</ele><time>2026-04-29T11:59:46Z</time></trkpt><trkpt lat="41.42717840238657" lon="19.85471561226956"><ele>166.60000000000002</ele><time>2026-04-29T11:59:47Z</time></trkpt><trkpt lat="41.42722500812784" lon="19.85484322162054"><ele>169.4</ele><time>2026-04-29T11:59:49Z</time></trkpt><trkpt lat="41.42722852248327" lon="19.85495004560752"><ele>172.2</ele><time>2026-04-29T11:59:51Z</time></trkpt><trkpt lat="41.42725122081532" lon="19.855032277001932"><ele>175.0</ele><time>2026-04-29T11:59:59Z</time></trkpt><trkpt lat="41.42731878043566" lon="19.85515667447212"><ele>175.0</ele><time>2026-04-29T12:00:01Z</time></trkpt><trkpt lat="41.427364740015044" lon="19.855243208368023"><ele>175.0</ele><time>2026-04-29T12:00:02Z</time></trkpt><trkpt lat="41.427411708068135" lon="19.85533798088914"><ele>175.0</ele><time>2026-04-29T12:00:03Z</time></trkpt><trkpt lat="41.42746866471825" lon="19.855456524379928"><ele>175.0</ele><time>2026-04-29T12:00:04Z</time></trkpt><trkpt lat="41.427529091593314" lon="19.855579800879234"><ele>175.0</ele><time>2026-04-29T12:00:05Z</time></trkpt><trkpt lat="41.42758048858194" lon="19.855670871996953"><ele>175.0</ele><time>2026-04-29T12:00:06Z</time></trkpt><trkpt lat="41.42764593589059" lon="19.855754616976103"><ele>175.0</ele><time>2026-04-29T12:00:07Z</time></trkpt><trkpt lat="41.42772041812539" lon="19.855840713938772"><ele>175.0</ele><time>2026-04-29T12:00:08Z</time></trkpt><trkpt lat="41.4277938642993" lon="19.855914137426723"><ele>175.0</ele><time>2026-04-29T12:00:09Z</time></trkpt><trkpt lat="41.42785747838801" lon="19.85596460406777"><ele>175.0</ele><time>2026-04-29T12:00:10Z</time></trkpt><trkpt lat="41.42792213323454" lon="19.856009590865945"><ele>175.0</ele><time>2026-04-29T12:00:11Z</time></trkpt><trkpt lat="41.42799418786379" lon="19.85603734139632"><ele>175.0</ele><time>2026-04-29T12:00:12Z</time></trkpt><trkpt lat="41.428081277273215" lon="19.856055757434593"><ele>175.0</ele><time>2026-04-29T12:00:13Z</time></trkpt><trkpt lat="41.42815359485062" lon="19.856057373656313"><ele>175.0</ele><time>2026-04-29T12:00:14Z</time></trkpt><trkpt lat="41.42822740686652" lon="19.856077867482952"><ele>175.0</ele><time>2026-04-29T12:00:15Z</time></trkpt><trkpt lat="41.428315052282606" lon="19.85610906505971"><ele>175.0</ele><time>2026-04-29T12:00:16Z</time></trkpt><trkpt lat="41.42841110025297" lon="19.85614824255704"><ele>175.0</ele><time>2026-04-29T12:00:17Z</time></trkpt><trkpt lat="41.428492046775105" lon="19.856244805576672"><ele>175.0</ele><time>2026-04-29T12:00:18Z</time></trkpt><trkpt lat="41.42858662898109" lon="19.856294833793125"><ele>175.0</ele><time>2026-04-29T12:00:19Z</time></trkpt><trkpt lat="41.42868058012073" lon="19.856374619565514"><ele>175.0</ele><time>2026-04-29T12:00:20Z</time></trkpt><trkpt lat="41.42877956271745" lon="19.856451057844783"><ele>175.0</ele><time>2026-04-29T12:00:21Z</time></trkpt><trkpt lat="41.42887726380193" lon="19.85654490137383"><ele>175.0</ele><time>2026-04-29T12:00:22Z</time></trkpt><trkpt lat="41.42897978905665" lon="19.856656794499255"><ele>175.0</ele><time>2026-04-29T12:00:23Z</time></trkpt><trkpt lat="41.42907321061568" lon="19.856770472202765"><ele>175.0</ele><time>2026-04-29T12:00:24Z</time></trkpt><trkpt lat="41.42914289257586" lon="19.85688446409403"><ele>175.0</ele><time>2026-04-29T12:00:25Z</time></trkpt><trkpt lat="41.42917470694934" lon="19.857031743424017"><ele>175.0</ele><time>2026-04-29T12:00:26Z</time></trkpt><trkpt lat="41.429253756747805" lon="19.857148047271444"><ele>175.0</ele><time>2026-04-29T12:00:27Z</time></trkpt><trkpt lat="41.429334480382195" lon="19.857276642608504"><ele>175.0</ele><time>2026-04-29T12:00:28Z</time></trkpt><trkpt lat="41.42939619902936" lon="19.857416972358656"><ele>175.0</ele><time>2026-04-29T12:00:29Z</time></trkpt><trkpt lat="41.429461310350746" lon="19.857521586888364"><ele>175.0</ele><time>2026-04-29T12:00:30Z</time></trkpt><trkpt lat="41.42954481842616" lon="19.85759786692427"><ele>175.0</ele><time>2026-04-29T12:00:31Z</time></trkpt><trkpt lat="41.42964622238769" lon="19.857686817689817"><ele>175.0</ele><time>2026-04-29T12:00:32Z</time></trkpt><trkpt lat="41.429739008080176" lon="19.85777742915659"><ele>175.0</ele><time>2026-04-29T12:00:33Z</time></trkpt><trkpt lat="41.4298065733913" lon="19.8578985247888"><ele>175.0</ele><time>2026-04-29T12:00:34Z</time></trkpt><trkpt lat="41.429835756739614" lon="19.858056642717504"><ele>175.0</ele><time>2026-04-29T12:00:35Z</time></trkpt><trkpt lat="41.429913313394074" lon="19.85818011656883"><ele>175.0</ele><time>2026-04-29T12:00:36Z</time></trkpt><trkpt lat="41.42998278249091" lon="19.85829176871364"><ele>175.0</ele><time>2026-04-29T12:00:37Z</time></trkpt><trkpt lat="41.43005328476344" lon="19.858375893333996"><ele>175.0</ele><time>2026-04-29T12:00:38Z</time></trkpt><trkpt lat="41.43011359947956" lon="19.858469255051038"><ele>175.0</ele><time>2026-04-29T12:00:39Z</time></trkpt><trkpt lat="41.43015815472159" lon="19.858585038781147"><ele>175.0</ele><time>2026-04-29T12:00:40Z</time></trkpt><trkpt lat="41.430178195738485" lon="19.858705213000604"><ele>175.0</ele><time>2026-04-29T12:00:41Z</time></trkpt><trkpt lat="41.430194092757965" lon="19.858824943698842"><ele>175.0</ele><time>2026-04-29T12:00:42Z</time></trkpt><trkpt lat="41.43022527139775" lon="19.858913880220456"><ele>175.0</ele><time>2026-04-29T12:00:43Z</time></trkpt><trkpt lat="41.4302767802275" lon="19.85899598732306"><ele>175.0</ele><time>2026-04-29T12:00:44Z</time></trkpt><trkpt lat="41.43038705509666" lon="19.85903973099675"><ele>175.0</ele><time>2026-04-29T12:00:45Z</time></trkpt><trkpt lat="41.43049505724629" lon="19.85911750980198"><ele>175.0</ele><time>2026-04-29T12:00:46Z</time></trkpt><trkpt lat="41.43060882554785" lon="19.859211265484802"><ele>175.0</ele><time>2026-04-29T12:00:47Z</time></trkpt><trkpt lat="41.43072399033438" lon="19.859321226544534"><ele>175.0</ele><time>2026-04-29T12:00:48Z</time></trkpt><trkpt lat="41.43081170152343" lon="19.859420083257746"><ele>175.0</ele><time>2026-04-29T12:00:49Z</time></trkpt><trkpt lat="41.43087749794918" lon="19.859491547270306"><ele>175.0</ele><time>2026-04-29T12:00:50Z</time></trkpt><trkpt lat="41.43095414975669" lon="19.859543214715387"><ele>175.0</ele><time>2026-04-29T12:00:51Z</time></trkpt><trkpt lat="41.431047814918294" lon="19.8595799791577"><ele>175.0</ele><time>2026-04-29T12:00:52Z</time></trkpt><trkpt lat="41.431156152910376" lon="19.859601425543282"><ele>175.0</ele><time>2026-04-29T12:00:53Z</time></trkpt><trkpt lat="41.4312734008068" lon="19.859614405378444"><ele>175.0</ele><time>2026-04-29T12:00:54Z</time></trkpt><trkpt lat="41.431400145011885" lon="19.85962153480728"><ele>175.0</ele><time>2026-04-29T12:00:55Z</time></trkpt><trkpt lat="41.43153625908066" lon="19.85963072097073"><ele>175.0</ele><time>2026-04-29T12:00:56Z</time></trkpt><trkpt lat="41.43167503746595" lon="19.859662558964995"><ele>175.0</ele><time>2026-04-29T12:00:57Z</time></trkpt><trkpt lat="41.43181503804191" lon="19.859714592972278"><ele>175.0</ele><time>2026-04-29T12:00:58Z</time></trkpt><trkpt lat="41.43196149581655" lon="19.859763051402503"><ele>175.0</ele><time>2026-04-29T12:00:59Z</time></trkpt><trkpt lat="41.43211602068698" lon="19.859817640935017"><ele>175.0</ele><time>2026-04-29T12:01:00Z</time></trkpt><trkpt lat="41.43227267009432" lon="19.85988667263291"><ele>175.0</ele><time>2026-04-29T12:01:01Z</time></trkpt><trkpt lat="41.43243642742933" lon="19.85995097305794"><ele>175.0</ele><time>2026-04-29T12:01:02Z</time></trkpt><trkpt lat="41.432600280400706" lon="19.860001344736848"><ele>175.0</ele><time>2026-04-29T12:01:03Z</time></trkpt><trkpt lat="41.43274069611825" lon="19.860038465182814"><ele>175.0</ele><time>2026-04-29T12:01:04Z</time></trkpt><trkpt lat="41.43286584643679" lon="19.860076426179862"><ele>175.0</ele><time>2026-04-29T12:01:05Z</time></trkpt><trkpt lat="41.43297450343862" lon="19.86011739311242"><ele>175.0</ele><time>2026-04-29T12:01:06Z</time></trkpt><trkpt lat="41.433065569549385" lon="19.860152245961732"><ele>175.0</ele><time>2026-04-29T12:01:07Z</time></trkpt><trkpt lat="41.43314303239715" lon="19.86018081467377"><ele>175.0</ele><time>2026-04-29T12:01:08Z</time></trkpt><trkpt lat="41.433209808482445" lon="19.860209167228085"><ele>175.0</ele><time>2026-04-29T12:01:10Z</time></trkpt><trkpt lat="41.43327379934391" lon="19.86022371514511"><ele>175.0</ele><time>2026-04-29T12:01:12Z</time></trkpt><trkpt lat="41.43335042096544" lon="19.860257805083926"><ele>175.0</ele><time>2026-04-29T12:01:13Z</time></trkpt><trkpt lat="41.43344231831321" lon="19.86031109578466"><ele>175.0</ele><time>2026-04-29T12:01:14Z</time></trkpt><trkpt lat="41.43352049645493" lon="19.860368393582245"><ele>175.0</ele><time>2026-04-29T12:01:15Z</time></trkpt><trkpt lat="41.4335980030347" lon="19.860340698942966"><ele>175.0</ele><time>2026-04-29T12:01:16Z</time></trkpt><trkpt lat="41.43368027846331" lon="19.860341363485702"><ele>175.0</ele><time>2026-04-29T12:01:17Z</time></trkpt><trkpt lat="41.43375147435317" lon="19.860371736624142"><ele>175.0</ele><time>2026-04-29T12:01:18Z</time></trkpt><trkpt lat="41.433807620884174" lon="19.860433368892135"><ele>175.0</ele><time>2026-04-29T12:01:19Z</time></trkpt><trkpt lat="41.43386729250534" lon="19.8605043514341"><ele>175.0</ele><time>2026-04-29T12:01:20Z</time></trkpt><trkpt lat="41.43394518913817" lon="19.860555665251248"><ele>175.0</ele><time>2026-04-29T12:01:21Z</time></trkpt><trkpt lat="41.43403599320013" lon="19.86059158544514"><ele>175.0</ele><time>2026-04-29T12:01:22Z</time></trkpt><trkpt lat="41.43411821365654" lon="19.860605487404403"><ele>175.0</ele><time>2026-04-29T12:01:23Z</time></trkpt><trkpt lat="41.43419214537975" lon="19.86060357627543"><ele>175.0</ele><time>2026-04-29T12:01:24Z</time></trkpt><trkpt lat="41.434291137787994" lon="19.860689072757477"><ele>175.0</ele><time>2026-04-29T12:01:26Z</time></trkpt><trkpt lat="41.434328652465034" lon="19.860770611284284"><ele>175.0</ele><time>2026-04-29T12:01:27Z</time></trkpt><trkpt lat="41.43437556569128" lon="19.860848596852758"><ele>175.0</ele><time>2026-04-29T12:01:28Z</time></trkpt><trkpt lat="41.43443677850204" lon="19.860903647887746"><ele>175.0</ele><time>2026-04-29T12:01:29Z</time></trkpt><trkpt lat="41.43452030584221" lon="19.86094047455105"><ele>195.0</ele><time>2026-04-29T12:01:30Z</time></trkpt><trkpt lat="41.43462537652557" lon="19.86096960161826"><ele>215.0</ele><time>2026-04-29T12:01:31Z</time></trkpt><trkpt lat="41.4347491759851" lon="19.86100800597872"><ele>235.0</ele><time>2026-04-29T12:01:32Z</time></trkpt><trkpt lat="41.43488122649381" lon="19.861072167533184"><ele>255.0</ele><time>2026-04-29T12:01:33Z</time></trkpt><trkpt lat="41.43499440206677" lon="19.861159508636128"><ele>255.0</ele><time>2026-04-29T12:01:34Z</time></trkpt><trkpt lat="41.43510994008965" lon="19.861260556209974"><ele>255.0</ele><time>2026-04-29T12:01:35Z</time></trkpt><trkpt lat="41.43523865053843" lon="19.86136029841828"><ele>255.0</ele><time>2026-04-29T12:01:36Z</time></trkpt><trkpt lat="41.435381694002295" lon="19.86145396666857"><ele>255.0</ele><time>2026-04-29T12:01:37Z</time></trkpt><trkpt lat="41.435530932944005" lon="19.861532806842984"><ele>255.0</ele><time>2026-04-29T12:01:38Z</time></trkpt><trkpt lat="41.435685140671" lon="19.861598124951986"><ele>255.0</ele><time>2026-04-29T12:01:39Z</time></trkpt><trkpt lat="41.43583717541922" lon="19.861661044392726"><ele>255.0</ele><time>2026-04-29T12:01:40Z</time></trkpt><trkpt lat="41.43596575234304" lon="19.861710264312578"><ele>250.75</ele><time>2026-04-29T12:01:41Z</time></trkpt><trkpt lat="41.43607292079374" lon="19.861756895295155"><ele>246.5</ele><time>2026-04-29T12:01:42Z</time></trkpt><trkpt lat="41.436171875080376" lon="19.86181238278441"><ele>242.25</ele><time>2026-04-29T12:01:43Z</time></trkpt><trkpt lat="41.4362869054031" lon="19.861873558411244"><ele>238.0</ele><time>2026-04-29T12:01:44Z</time></trkpt><trkpt lat="41.436414923860774" lon="19.86190764281896"><ele>238.0</ele><time>2026-04-29T12:01:45Z</time></trkpt><trkpt lat="41.43652784361734" lon="19.86194592808044"><ele>238.0</ele><time>2026-04-29T12:01:46Z</time></trkpt><trkpt lat="41.43663874670038" lon="19.861983103734218"><ele>238.0</ele><time>2026-04-29T12:01:47Z</time></trkpt><trkpt lat="41.43675171340799" lon="19.862018960408644"><ele>238.0</ele><time>2026-04-29T12:01:48Z</time></trkpt><trkpt lat="41.43687978513003" lon="19.862025854950605"><ele>238.0</ele><time>2026-04-29T12:01:49Z</time></trkpt><trkpt lat="41.4370187415556" lon="19.862038970825356"><ele>238.0</ele><time>2026-04-29T12:01:50Z</time></trkpt><trkpt lat="41.437159158182816" lon="19.862059362031747"><ele>238.0</ele><time>2026-04-29T12:01:51Z</time></trkpt><trkpt lat="41.43730122444355" lon="19.86209015172426"><ele>238.0</ele><time>2026-04-29T12:01:52Z</time></trkpt><trkpt lat="41.437436078175566" lon="19.862134784180483"><ele>236.0</ele><time>2026-04-29T12:01:53Z</time></trkpt><trkpt lat="41.43757337239038" lon="19.862191066146824"><ele>234.0</ele><time>2026-04-29T12:01:54Z</time></trkpt><trkpt lat="41.437709601099264" lon="19.86224918094266"><ele>232.0</ele><time>2026-04-29T12:01:55Z</time></trkpt><trkpt lat="41.437844299798" lon="19.86229351205202"><ele>230.0</ele><time>2026-04-29T12:01:56Z</time></trkpt><trkpt lat="41.43798551031" lon="19.862316251228417"><ele>230.0</ele><time>2026-04-29T12:01:57Z</time></trkpt><trkpt lat="41.43812126369663" lon="19.86235859361963"><ele>230.0</ele><time>2026-04-29T12:01:58Z</time></trkpt><trkpt lat="41.4382569358268" lon="19.86237647768456"><ele>230.0</ele><time>2026-04-29T12:01:59Z</time></trkpt><trkpt lat="41.43837678811558" lon="19.862378577117145"><ele>230.0</ele><time>2026-04-29T12:02:00Z</time></trkpt><trkpt lat="41.43847683436647" lon="19.86239409863525"><ele>230.0</ele><time>2026-04-29T12:02:01Z</time></trkpt><trkpt lat="41.43856338681129" lon="19.862417130495523"><ele>230.0</ele><time>2026-04-29T12:02:02Z</time></trkpt><trkpt lat="41.43862224894365" lon="19.862532479335425"><ele>230.0</ele><time>2026-04-29T12:02:03Z</time></trkpt><trkpt lat="41.43869589178879" lon="19.862568610366772"><ele>230.0</ele><time>2026-04-29T12:02:04Z</time></trkpt><trkpt lat="41.43878616006854" lon="19.862585792382554"><ele>230.0</ele><time>2026-04-29T12:02:05Z</time></trkpt><trkpt lat="41.438868597579415" lon="19.862623576187357"><ele>237.0</ele><time>2026-04-29T12:02:06Z</time></trkpt><trkpt lat="41.43896941789589" lon="19.862607723682068"><ele>244.0</ele><time>2026-04-29T12:02:07Z</time></trkpt><trkpt lat="41.439077855286044" lon="19.86261987041659"><ele>251.0</ele><time>2026-04-29T12:02:08Z</time></trkpt><trkpt lat="41.4391642783594" lon="19.86269432431044"><ele>258.0</ele><time>2026-04-29T12:02:09Z</time></trkpt><trkpt lat="41.43926734303517" lon="19.862752634670166"><ele>265.0</ele><time>2026-04-29T12:02:10Z</time></trkpt><trkpt lat="41.43937124885812" lon="19.86281384598093"><ele>265.0</ele><time>2026-04-29T12:02:11Z</time></trkpt><trkpt lat="41.43947854468488" lon="19.862888679753176"><ele>265.0</ele><time>2026-04-29T12:02:12Z</time></trkpt><trkpt lat="41.439581948211845" lon="19.86295826193834"><ele>265.0</ele><time>2026-04-29T12:02:13Z</time></trkpt><trkpt lat="41.43968773717496" lon="19.863057873506936"><ele>265.0</ele><time>2026-04-29T12:02:14Z</time></trkpt><trkpt lat="41.43979857140031" lon="19.863142584556876"><ele>255.75</ele><time>2026-04-29T12:02:15Z</time></trkpt><trkpt lat="41.43989486839302" lon="19.86323033079582"><ele>246.5</ele><time>2026-04-29T12:02:16Z</time></trkpt><trkpt lat="41.44000381215998" lon="19.863308634507572"><ele>237.25</ele><time>2026-04-29T12:02:17Z</time></trkpt><trkpt lat="41.44011983027137" lon="19.86338441572482"><ele>228.0</ele><time>2026-04-29T12:02:18Z</time></trkpt><trkpt lat="41.44023051466891" lon="19.86343566305494"><ele>234.75</ele><time>2026-04-29T12:02:19Z</time></trkpt><trkpt lat="41.440343816914435" lon="19.863462458119965"><ele>241.5</ele><time>2026-04-29T12:02:20Z</time></trkpt><trkpt lat="41.440454506584985" lon="19.863526809085897"><ele>248.25</ele><time>2026-04-29T12:02:21Z</time></trkpt><trkpt lat="41.44058056496366" lon="19.863549039666257"><ele>255.0</ele><time>2026-04-29T12:02:22Z</time></trkpt><trkpt lat="41.4406768189237" lon="19.86355474709152"><ele>255.0</ele><time>2026-04-29T12:02:23Z</time></trkpt><trkpt lat="41.440768569587945" lon="19.863547121679574"><ele>255.0</ele><time>2026-04-29T12:02:24Z</time></trkpt><trkpt lat="41.440853685232895" lon="19.863527599606442"><ele>255.0</ele><time>2026-04-29T12:02:25Z</time></trkpt><trkpt lat="41.440955190618375" lon="19.8634747459077"><ele>255.0</ele><time>2026-04-29T12:02:26Z</time></trkpt><trkpt lat="41.441046005790895" lon="19.863421604860775"><ele>255.0</ele><time>2026-04-29T12:02:27Z</time></trkpt><trkpt lat="41.44111432159196" lon="19.86342252453216"><ele>256.0</ele><time>2026-04-29T12:02:28Z</time></trkpt><trkpt lat="41.44120824329317" lon="19.86341892241765"><ele>257.0</ele><time>2026-04-29T12:02:29Z</time></trkpt><trkpt lat="41.44130361307369" lon="19.8634297954952"><ele>258.0</ele><time>2026-04-29T12:02:30Z</time></trkpt><trkpt lat="41.44141627340163" lon="19.863441222298764"><ele>259.0</ele><time>2026-04-29T12:02:31Z</time></trkpt><trkpt lat="41.44153772254984" lon="19.86346147718301"><ele>260.0</ele><time>2026-04-29T12:02:32Z</time></trkpt><trkpt lat="41.441650473872855" lon="19.863489303321945"><ele>260.0</ele><time>2026-04-29T12:02:33Z</time></trkpt><trkpt lat="41.44173471374902" lon="19.863506191723083"><ele>260.0</ele><time>2026-04-29T12:02:34Z</time></trkpt><trkpt lat="41.4417992050661" lon="19.86353150985903"><ele>260.0</ele><time>2026-04-29T12:02:35Z</time></trkpt><trkpt lat="41.4418693330712" lon="19.86357003964509"><ele>260.0</ele><time>2026-04-29T12:02:36Z</time></trkpt><trkpt lat="41.44191652479609" lon="19.863688306228887"><ele>260.0</ele><time>2026-04-29T12:02:37Z</time></trkpt><trkpt lat="41.4419844624591" lon="19.86382400660866"><ele>260.0</ele><time>2026-04-29T12:02:38Z</time></trkpt><trkpt lat="41.442051418947536" lon="19.863955134427542"><ele>260.0</ele><time>2026-04-29T12:02:39Z</time></trkpt><trkpt lat="41.44211054054257" lon="19.86403609738905"><ele>260.0</ele><time>2026-04-29T12:02:40Z</time></trkpt><trkpt lat="41.442150050907735" lon="19.8641090326341"><ele>260.0</ele><time>2026-04-29T12:02:41Z</time></trkpt><trkpt lat="41.4422029984101" lon="19.864201269761434"><ele>260.0</ele><time>2026-04-29T12:02:42Z</time></trkpt><trkpt lat="41.442291512919226" lon="19.864247148101832"><ele>259.8</ele><time>2026-04-29T12:02:43Z</time></trkpt><trkpt lat="41.44236342468044" lon="19.86427465620689"><ele>259.6</ele><time>2026-04-29T12:02:44Z</time></trkpt><trkpt lat="41.442447609129665" lon="19.86426373834783"><ele>259.4</ele><time>2026-04-29T12:02:45Z</time></trkpt><trkpt lat="41.442549195532294" lon="19.864231615124055"><ele>259.2</ele><time>2026-04-29T12:02:46Z</time></trkpt><trkpt lat="41.44265771849275" lon="19.864193174512003"><ele>259.0</ele><time>2026-04-29T12:02:47Z</time></trkpt><trkpt lat="41.442775372037765" lon="19.86416926140002"><ele>259.0</ele><time>2026-04-29T12:02:48Z</time></trkpt><trkpt lat="41.442895279982764" lon="19.86416529650868"><ele>259.0</ele><time>2026-04-29T12:02:49Z</time></trkpt><trkpt lat="41.44301363881337" lon="19.864127869673773"><ele>259.0</ele><time>2026-04-29T12:02:50Z</time></trkpt><trkpt lat="41.443130232343115" lon="19.86408823500021"><ele>259.0</ele><time>2026-04-29T12:02:51Z</time></trkpt><trkpt lat="41.44323223345115" lon="19.864054293037096"><ele>259.8</ele><time>2026-04-29T12:02:52Z</time></trkpt><trkpt lat="41.443293695789244" lon="19.86394499340213"><ele>260.59999999999997</ele><time>2026-04-29T12:02:53Z</time></trkpt><trkpt lat="41.44338654223048" lon="19.86389816446259"><ele>261.4</ele><time>2026-04-29T12:02:54Z</time></trkpt><trkpt lat="41.44350151728383" lon="19.86386923806364"><ele>262.2</ele><time>2026-04-29T12:02:55Z</time></trkpt><trkpt lat="41.44359408676411" lon="19.863871285419368"><ele>263.0</ele><time>2026-04-29T12:02:56Z</time></trkpt><trkpt lat="41.443698905688755" lon="19.863875097478324"><ele>263.0</ele><time>2026-04-29T12:02:57Z</time></trkpt><trkpt lat="41.44381954606971" lon="19.863933472195146"><ele>263.0</ele><time>2026-04-29T12:02:58Z</time></trkpt><trkpt lat="41.443920433883335" lon="19.86397180462413"><ele>263.0</ele><time>2026-04-29T12:02:59Z</time></trkpt><trkpt lat="41.4440137071604" lon="19.86405000847212"><ele>263.0</ele><time>2026-04-29T12:03:00Z</time></trkpt><trkpt lat="41.44409312875359" lon="19.86410841917212"><ele>263.0</ele><time>2026-04-29T12:03:01Z</time></trkpt><trkpt lat="41.444181973325605" lon="19.864178280826867"><ele>266.25</ele><time>2026-04-29T12:03:02Z</time></trkpt><trkpt lat="41.44427450498658" lon="19.86424266494963"><ele>269.5</ele><time>2026-04-29T12:03:03Z</time></trkpt><trkpt lat="41.444367806335684" lon="19.864345034167105"><ele>272.75</ele><time>2026-04-29T12:03:04Z</time></trkpt><trkpt lat="41.444461501330956" lon="19.86444961541943"><ele>276.0</ele><time>2026-04-29T12:03:05Z</time></trkpt><trkpt lat="41.44454370882872" lon="19.864541087252423"><ele>276.0</ele><time>2026-04-29T12:03:06Z</time></trkpt><trkpt lat="41.444608453811384" lon="19.86461225833698"><ele>276.0</ele><time>2026-04-29T12:03:07Z</time></trkpt><trkpt lat="41.44472711368279" lon="19.86459590614998"><ele>276.0</ele><time>2026-04-29T12:03:08Z</time></trkpt><trkpt lat="41.4448167482091" lon="19.86461396611487"><ele>276.0</ele><time>2026-04-29T12:03:09Z</time></trkpt><trkpt lat="41.444892858684355" lon="19.86464241147286"><ele>276.0</ele><time>2026-04-29T12:03:10Z</time></trkpt><trkpt lat="41.44494400217822" lon="19.864726719545025"><ele>276.0</ele><time>2026-04-29T12:03:11Z</time></trkpt><trkpt lat="41.445013671702014" lon="19.864802322888846"><ele>276.0</ele><time>2026-04-29T12:03:12Z</time></trkpt><trkpt lat="41.44509903900729" lon="19.864873138173945"><ele>276.0</ele><time>2026-04-29T12:03:13Z</time></trkpt><trkpt lat="41.44512102555206" lon="19.86497745315673"><ele>276.0</ele><time>2026-04-29T12:03:14Z</time></trkpt><trkpt lat="41.445109432612185" lon="19.86509485280691"><ele>276.0</ele><time>2026-04-29T12:03:16Z</time></trkpt><trkpt lat="41.4450287830115" lon="19.865181385539735"><ele>276.0</ele><time>2026-04-29T12:03:18.001Z</time></trkpt><trkpt lat="41.44496264717531" lon="19.865179326732836"><ele>276.0</ele><time>2026-04-29T12:03:19.001Z</time></trkpt><trkpt lat="41.44488514786761" lon="19.86525319153485"><ele>276.0</ele><time>2026-04-29T12:03:20.001Z</time></trkpt><trkpt lat="41.4448269935686" lon="19.865350984364945"><ele>276.0</ele><time>2026-04-29T12:03:21.001Z</time></trkpt><trkpt lat="41.44475864088771" lon="19.865441074403662"><ele>276.0</ele><time>2026-04-29T12:03:22.001Z</time></trkpt><trkpt lat="41.444711951716926" lon="19.865561839697996"><ele>280.0</ele><time>2026-04-29T12:03:23.001Z</time></trkpt><trkpt lat="41.44467247003289" lon="19.86567630728794"><ele>284.0</ele><time>2026-04-29T12:03:24.001Z</time></trkpt><trkpt lat="41.444635156715705" lon="19.86576968331391"><ele>288.0</ele><time>2026-04-29T12:03:25.001Z</time></trkpt><trkpt lat="41.44455601294212" lon="19.865850000295957"><ele>292.0</ele><time>2026-04-29T12:03:27.001Z</time></trkpt><trkpt lat="41.44453201486744" lon="19.865948060936944"><ele>296.0</ele><time>2026-04-29T12:03:29.001Z</time></trkpt><trkpt lat="41.44462559156762" lon="19.86605220669011"><ele>296.0</ele><time>2026-04-29T12:03:31.001Z</time></trkpt><trkpt lat="41.444700628696886" lon="19.86597588603399"><ele>296.0</ele><time>2026-04-29T12:03:32.001Z</time></trkpt><trkpt lat="41.44474728774028" lon="19.865916162206616"><ele>296.0</ele><time>2026-04-29T12:03:33.001Z</time></trkpt><trkpt lat="41.444823253577006" lon="19.865804480448716"><ele>296.0</ele><time>2026-04-29T12:03:35.001Z</time></trkpt><trkpt lat="41.44491454240738" lon="19.865695003772913"><ele>296.0</ele><time>2026-04-29T12:03:37.001Z</time></trkpt><trkpt lat="41.44502367487466" lon="19.865628629116483"><ele>296.0</ele><time>2026-04-29T12:03:39.001Z</time></trkpt><trkpt lat="41.44514303875361" lon="19.865655070667938"><ele>296.0</ele><time>2026-04-29T12:03:41.001Z</time></trkpt><trkpt lat="41.44520959404354" lon="19.86568884906232"><ele>296.0</ele><time>2026-04-29T12:03:42Z</time></trkpt><trkpt lat="41.44528462003681" lon="19.865709945798468"><ele>296.0</ele><time>2026-04-29T12:03:43Z</time></trkpt><trkpt lat="41.445368619514625" lon="19.865712106973042"><ele>296.0</ele><time>2026-04-29T12:03:44Z</time></trkpt><trkpt lat="41.445453152255745" lon="19.865691947272804"><ele>296.0</ele><time>2026-04-29T12:03:45Z</time></trkpt><trkpt lat="41.445532946261075" lon="19.865646763089288"><ele>296.0</ele><time>2026-04-29T12:03:46Z</time></trkpt><trkpt lat="41.44559932431438" lon="19.86561372835479"><ele>296.0</ele><time>2026-04-29T12:03:47Z</time></trkpt><trkpt lat="41.445658041574525" lon="19.865737364323106"><ele>296.0</ele><time>2026-04-29T12:03:49Z</time></trkpt><trkpt lat="41.4456733254428" lon="19.86582539848382"><ele>296.0</ele><time>2026-04-29T12:03:50Z</time></trkpt><trkpt lat="41.445675554478704" lon="19.86593059019697"><ele>296.0</ele><time>2026-04-29T12:03:51Z</time></trkpt><trkpt lat="41.44564257097819" lon="19.8660064864562"><ele>296.0</ele><time>2026-04-29T12:03:52Z</time></trkpt><trkpt lat="41.445539999270224" lon="19.866065826605247"><ele>296.0</ele><time>2026-04-29T12:03:54Z</time></trkpt><trkpt lat="41.44536932289403" lon="19.866111050894737"><ele>296.0</ele><time>2026-04-29T12:03:56Z</time></trkpt><trkpt lat="41.445261344364205" lon="19.86613760780798"><ele>296.0</ele><time>2026-04-29T12:03:57Z</time></trkpt><trkpt lat="41.44514324838142" lon="19.866167487460846"><ele>296.0</ele><time>2026-04-29T12:03:58Z</time></trkpt><trkpt lat="41.445038397268625" lon="19.866216887845013"><ele>296.0</ele><time>2026-04-29T12:03:59Z</time></trkpt><trkpt lat="41.44496352921277" lon="19.86621688786981"><ele>296.0</ele><time>2026-04-29T12:04:00Z</time></trkpt><trkpt lat="41.44487613311426" lon="19.866253600799812"><ele>296.0</ele><time>2026-04-29T12:04:02Z</time></trkpt><trkpt lat="41.44493798359094" lon="19.8664932330866"><ele>296.0</ele><time>2026-04-29T12:04:05Z</time></trkpt><trkpt lat="41.44507035924831" lon="19.866470733879783"><ele>296.0</ele><time>2026-04-29T12:04:06Z</time></trkpt><trkpt lat="41.44516226516071" lon="19.866462664457252"><ele>296.0</ele><time>2026-04-29T12:04:07Z</time></trkpt><trkpt lat="41.44526468399748" lon="19.86645299737495"><ele>296.0</ele><time>2026-04-29T12:04:08Z</time></trkpt><trkpt lat="41.445366804393466" lon="19.866442787936514"><ele>296.0</ele><time>2026-04-29T12:04:09Z</time></trkpt><trkpt lat="41.445442249220484" lon="19.86643551361751"><ele>296.0</ele><time>2026-04-29T12:04:10Z</time></trkpt><trkpt lat="41.44550650419738" lon="19.86642952554789"><ele>296.0</ele><time>2026-04-29T12:04:11Z</time></trkpt><trkpt lat="41.44561028047117" lon="19.8664198543958"><ele>296.0</ele><time>2026-04-29T12:04:13Z</time></trkpt><trkpt lat="41.44570566370123" lon="19.86639212715497"><ele>296.0</ele><time>2026-04-29T12:04:15Z</time></trkpt><trkpt lat="41.44581682499276" lon="19.866393269184126"><ele>296.0</ele><time>2026-04-29T12:04:17Z</time></trkpt><trkpt lat="41.44591507746514" lon="19.86640567678917"><ele>296.0</ele><time>2026-04-29T12:04:19Z</time></trkpt><trkpt lat="41.445972391712516" lon="19.866440968764394"><ele>296.0</ele><time>2026-04-29T12:04:21Z</time></trkpt><trkpt lat="41.44599402212429" lon="19.866536424448054"><ele>296.0</ele><time>2026-04-29T12:04:23Z</time></trkpt><trkpt lat="41.44607345677404" lon="19.866599161399193"><ele>301.20000000000005</ele><time>2026-04-29T12:04:25Z</time></trkpt><trkpt lat="41.44615727427434" lon="19.86673231487001"><ele>306.40000000000003</ele><time>2026-04-29T12:04:27Z</time></trkpt><trkpt lat="41.44621763612859" lon="19.866786767627993"><ele>311.6</ele><time>2026-04-29T12:04:28Z</time></trkpt><trkpt lat="41.446285992620986" lon="19.866848061869945"><ele>316.8</ele><time>2026-04-29T12:04:29Z</time></trkpt><trkpt lat="41.446356891918704" lon="19.866911636218973"><ele>322.0</ele><time>2026-04-29T12:04:30Z</time></trkpt><trkpt lat="41.44642038453582" lon="19.866978941349473"><ele>324.0</ele><time>2026-04-29T12:04:31Z</time></trkpt><trkpt lat="41.44649109020589" lon="19.867081915000348"><ele>326.0</ele><time>2026-04-29T12:04:33Z</time></trkpt><trkpt lat="41.44649457282435" lon="19.86721236471895"><ele>328.0</ele><time>2026-04-29T12:04:36Z</time></trkpt><trkpt lat="41.446484446697376" lon="19.86737758053163"><ele>330.0</ele><time>2026-04-29T12:04:38Z</time></trkpt><trkpt lat="41.44647887883132" lon="19.86746842470024"><ele>332.0</ele><time>2026-04-29T12:04:39Z</time></trkpt><trkpt lat="41.44647886689225" lon="19.86756881823033"><ele>331.5</ele><time>2026-04-29T12:04:40Z</time></trkpt><trkpt lat="41.446531066110744" lon="19.867674401836744"><ele>331.0</ele><time>2026-04-29T12:04:42Z</time></trkpt><trkpt lat="41.44661697416108" lon="19.867778817777896"><ele>330.5</ele><time>2026-04-29T12:04:44Z</time></trkpt><trkpt lat="41.44665791309167" lon="19.867846796137762"><ele>330.0</ele><time>2026-04-29T12:04:45Z</time></trkpt><trkpt lat="41.44669970571883" lon="19.86792814734852"><ele>329.5</ele><time>2026-04-29T12:04:46Z</time></trkpt><trkpt lat="41.44672758060011" lon="19.86801107722374"><ele>329.0</ele><time>2026-04-29T12:04:47Z</time></trkpt><trkpt lat="41.44669431134497" lon="19.86818792509102"><ele>329.0</ele><time>2026-04-29T12:04:49Z</time></trkpt><trkpt lat="41.44668879667492" lon="19.86827793659202"><ele>329.0</ele><time>2026-04-29T12:04:50Z</time></trkpt><trkpt lat="41.4466830435934" lon="19.868370207363128"><ele>329.0</ele><time>2026-04-29T12:04:52Z</time></trkpt><trkpt lat="41.44671285187989" lon="19.8684817926463"><ele>329.0</ele><time>2026-04-29T12:04:54Z</time></trkpt><trkpt lat="41.44681010511021" lon="19.86848991059867"><ele>329.0</ele><time>2026-04-29T12:04:56Z</time></trkpt><trkpt lat="41.446854505023445" lon="19.868364621382614"><ele>329.0</ele><time>2026-04-29T12:04:58Z</time></trkpt><trkpt lat="41.446800849833785" lon="19.868233991426557"><ele>329.0</ele><time>2026-04-29T12:05:00Z</time></trkpt><trkpt lat="41.44681783960331" lon="19.868108540524894"><ele>329.0</ele><time>2026-04-29T12:05:02Z</time></trkpt><trkpt lat="41.44687704868891" lon="19.867973060637745"><ele>329.0</ele><time>2026-04-29T12:05:04Z</time></trkpt><trkpt lat="41.446938178263544" lon="19.867855600859"><ele>329.0</ele><time>2026-04-29T12:05:06Z</time></trkpt><trkpt lat="41.44693047638456" lon="19.867716713418307"><ele>329.0</ele><time>2026-04-29T12:05:08Z</time></trkpt><trkpt lat="41.446919412003425" lon="19.86760384498599"><ele>329.0</ele><time>2026-04-29T12:05:11Z</time></trkpt><trkpt lat="41.44696803579109" lon="19.8675496813844"><ele>329.0</ele><time>2026-04-29T12:05:14Z</time></trkpt><trkpt lat="41.447031754919266" lon="19.867591688334524"><ele>329.0</ele><time>2026-04-29T12:05:46Z</time></trkpt><trkpt lat="41.44704381709691" lon="19.86768216191022"><ele>329.0</ele><time>2026-04-29T12:05:48Z</time></trkpt><trkpt lat="41.44705674363515" lon="19.867824205977204"><ele>329.0</ele><time>2026-04-29T12:05:50Z</time></trkpt><trkpt lat="41.447048312012996" lon="19.867928465000293"><ele>329.0</ele><time>2026-04-29T12:05:52Z</time></trkpt><trkpt lat="41.44702717138806" lon="19.86804159823615"><ele>329.0</ele><time>2026-04-29T12:05:54Z</time></trkpt><trkpt lat="41.44702931687936" lon="19.868127131936852"><ele>329.0</ele><time>2026-04-29T12:05:57Z</time></trkpt><trkpt lat="41.44702489863527" lon="19.86826611851988"><ele>329.0</ele><time>2026-04-29T12:05:59Z</time></trkpt><trkpt lat="41.44707396786622" lon="19.86833667097692"><ele>329.0</ele><time>2026-04-29T12:06:00Z</time></trkpt><trkpt lat="41.447103561723274" lon="19.868414913605235"><ele>329.0</ele><time>2026-04-29T12:06:01Z</time></trkpt><trkpt lat="41.44716605089763" lon="19.86848976129163"><ele>329.0</ele><time>2026-04-29T12:06:03Z</time></trkpt><trkpt lat="41.44723566694596" lon="19.86847067261291"><ele>333.79999999999995</ele><time>2026-04-29T12:06:05Z</time></trkpt><trkpt lat="41.44728281838594" lon="19.868323287279697"><ele>338.59999999999997</ele><time>2026-04-29T12:06:08Z</time></trkpt><trkpt lat="41.447246232201366" lon="19.868254075271945"><ele>343.4</ele><time>2026-04-29T12:06:09Z</time></trkpt><trkpt lat="41.44720779769578" lon="19.868113851266056"><ele>348.2</ele><time>2026-04-29T12:06:11Z</time></trkpt><trkpt lat="41.44723686632432" lon="19.8680284849096"><ele>353.0</ele><time>2026-04-29T12:06:14Z</time></trkpt><trkpt lat="41.43862224894365" lon="19.862532479335425"><ele>335.4</ele><time>2026-04-29T12:02:03Z</time></trkpt><trkpt lat="41.43869589178879" lon="19.862568610366772"><ele>317.79999999999995</ele><time>2026-04-29T12:02:04Z</time></trkpt><trkpt lat="41.43878616006854" lon="19.862585792382554"><ele>300.2</ele><time>2026-04-29T12:02:05Z</time></trkpt><trkpt lat="41.438868597579415" lon="19.862623576187357"><ele>282.6</ele><time>2026-04-29T12:02:06Z</time></trkpt><trkpt lat="41.43896941789589" lon="19.862607723682068"><ele>265.0</ele><time>2026-04-29T12:02:07Z</time></trkpt><trkpt lat="41.439077855286044" lon="19.86261987041659"><ele>265.0</ele><time>2026-04-29T12:02:08Z</time></trkpt><trkpt lat="41.4391642783594" lon="19.86269432431044"><ele>265.0</ele><time>2026-04-29T12:02:09Z</time></trkpt><trkpt lat="41.43926734303517" lon="19.862752634670166"><ele>265.0</ele><time>2026-04-29T12:02:10Z</time></trkpt><trkpt lat="41.43937124885812" lon="19.86281384598093"><ele>265.0</ele><time>2026-04-29T12:02:11Z</time></trkpt><trkpt lat="41.43947854468488" lon="19.862888679753176"><ele>265.0</ele><time>2026-04-29T12:02:12Z</time></trkpt><trkpt lat="41.439581948211845" lon="19.86295826193834"><ele>255.75</ele><time>2026-04-29T12:02:13Z</time></trkpt><trkpt lat="41.43968773717496" lon="19.863057873506936"><ele>246.5</ele><time>2026-04-29T12:02:14Z</time></trkpt><trkpt lat="41.43979857140031" lon="19.863142584556876"><ele>237.25</ele><time>2026-04-29T12:02:15Z</time></trkpt><trkpt lat="41.43989486839302" lon="19.86323033079582"><ele>228.0</ele><time>2026-04-29T12:02:16Z</time></trkpt><trkpt lat="41.44000381215998" lon="19.863308634507572"><ele>228.0</ele><time>2026-04-29T12:02:17Z</time></trkpt><trkpt lat="41.44011983027137" lon="19.86338441572482"><ele>228.0</ele><time>2026-04-29T12:02:18Z</time></trkpt><trkpt lat="41.44023051466891" lon="19.86343566305494"><ele>228.0</ele><time>2026-04-29T12:02:19Z</time></trkpt><trkpt lat="41.440343816914435" lon="19.863462458119965"><ele>228.0</ele><time>2026-04-29T12:02:20Z</time></trkpt><trkpt lat="41.440454506584985" lon="19.863526809085897"><ele>233.4</ele><time>2026-04-29T12:02:21Z</time></trkpt><trkpt lat="41.44058056496366" lon="19.863549039666257"><ele>238.8</ele><time>2026-04-29T12:02:22Z</time></trkpt><trkpt lat="41.4406768189237" lon="19.86355474709152"><ele>244.2</ele><time>2026-04-29T12:02:23Z</time></trkpt><trkpt lat="41.440768569587945" lon="19.863547121679574"><ele>249.6</ele><time>2026-04-29T12:02:24Z</time></trkpt><trkpt lat="41.440853685232895" lon="19.863527599606442"><ele>255.0</ele><time>2026-04-29T12:02:25Z</time></trkpt><trkpt lat="41.440955190618375" lon="19.8634747459077"><ele>257.6</ele><time>2026-04-29T12:02:26Z</time></trkpt><trkpt lat="41.441046005790895" lon="19.863421604860775"><ele>260.2</ele><time>2026-04-29T12:02:27Z</time></trkpt><trkpt lat="41.44111432159196" lon="19.86342252453216"><ele>262.8</ele><time>2026-04-29T12:02:28Z</time></trkpt><trkpt lat="41.44120824329317" lon="19.86341892241765"><ele>265.4</ele><time>2026-04-29T12:02:29Z</time></trkpt><trkpt lat="41.44130361307369" lon="19.8634297954952"><ele>268.0</ele><time>2026-04-29T12:02:30Z</time></trkpt><trkpt lat="41.44141627340163" lon="19.863441222298764"><ele>266.4</ele><time>2026-04-29T12:02:31Z</time></trkpt><trkpt lat="41.44153772254984" lon="19.86346147718301"><ele>264.8</ele><time>2026-04-29T12:02:32Z</time></trkpt><trkpt lat="41.441650473872855" lon="19.863489303321945"><ele>263.2</ele><time>2026-04-29T12:02:33Z</time></trkpt><trkpt lat="41.44173471374902" lon="19.863506191723083"><ele>261.6</ele><time>2026-04-29T12:02:34Z</time></trkpt><trkpt lat="41.4417992050661" lon="19.86353150985903"><ele>260.0</ele><time>2026-04-29T12:02:35Z</time></trkpt><trkpt lat="41.4418693330712" lon="19.86357003964509"><ele>260.0</ele><time>2026-04-29T12:02:36Z</time></trkpt><trkpt lat="41.44191652479609" lon="19.863688306228887"><ele>260.0</ele><time>2026-04-29T12:02:37Z</time></trkpt><trkpt lat="41.4419844624591" lon="19.86382400660866"><ele>260.0</ele><time>2026-04-29T12:02:38Z</time></trkpt><trkpt lat="41.442051418947536" lon="19.863955134427542"><ele>260.0</ele><time>2026-04-29T12:02:39Z</time></trkpt><trkpt lat="41.44211054054257" lon="19.86403609738905"><ele>260.0</ele><time>2026-04-29T12:02:40Z</time></trkpt><trkpt lat="41.442150050907735" lon="19.8641090326341"><ele>259.83333333333337</ele><time>2026-04-29T12:02:41Z</time></trkpt><trkpt lat="41.4422029984101" lon="19.864201269761434"><ele>259.6666666666667</ele><time>2026-04-29T12:02:42Z</time></trkpt><trkpt lat="41.442291512919226" lon="19.864247148101832"><ele>259.5</ele><time>2026-04-29T12:02:43Z</time></trkpt><trkpt lat="41.44236342468044" lon="19.86427465620689"><ele>259.3333333333333</ele><time>2026-04-29T12:02:44Z</time></trkpt><trkpt lat="41.442447609129665" lon="19.86426373834783"><ele>259.16666666666663</ele><time>2026-04-29T12:02:45Z</time></trkpt><trkpt lat="41.442549195532294" lon="19.864231615124055"><ele>259.0</ele><time>2026-04-29T12:02:46Z</time></trkpt><trkpt lat="41.44265771849275" lon="19.864193174512003"><ele>259.0</ele><time>2026-04-29T12:02:47Z</time></trkpt><trkpt lat="41.442775372037765" lon="19.86416926140002"><ele>259.0</ele><time>2026-04-29T12:02:48Z</time></trkpt><trkpt lat="41.442895279982764" lon="19.86416529650868"><ele>259.0</ele><time>2026-04-29T12:02:49Z</time></trkpt><trkpt lat="41.44301363881337" lon="19.864127869673773"><ele>259.0</ele><time>2026-04-29T12:02:50Z</time></trkpt><trkpt lat="41.443130232343115" lon="19.86408823500021"><ele>259.8</ele><time>2026-04-29T12:02:51Z</time></trkpt><trkpt lat="41.44323223345115" lon="19.864054293037096"><ele>260.59999999999997</ele><time>2026-04-29T12:02:52Z</time></trkpt><trkpt lat="41.443293695789244" lon="19.86394499340213"><ele>261.4</ele><time>2026-04-29T12:02:53Z</time></trkpt><trkpt lat="41.44338654223048" lon="19.86389816446259"><ele>262.2</ele><time>2026-04-29T12:02:54Z</time></trkpt><trkpt lat="41.44350151728383" lon="19.86386923806364"><ele>263.0</ele><time>2026-04-29T12:02:55Z</time></trkpt><trkpt lat="41.44359408676411" lon="19.863871285419368"><ele>263.0</ele><time>2026-04-29T12:02:56Z</time></trkpt><trkpt lat="41.443698905688755" lon="19.863875097478324"><ele>263.0</ele><time>2026-04-29T12:02:57Z</time></trkpt><trkpt lat="41.44381954606971" lon="19.863933472195146"><ele>263.0</ele><time>2026-04-29T12:02:58Z</time></trkpt><trkpt lat="41.443920433883335" lon="19.86397180462413"><ele>263.0</ele><time>2026-04-29T12:02:59Z</time></trkpt><trkpt lat="41.4440137071604" lon="19.86405000847212"><ele>263.0</ele><time>2026-04-29T12:03:00Z</time></trkpt><trkpt lat="41.44409312875359" lon="19.86410841917212"><ele>266.25</ele><time>2026-04-29T12:03:01Z</time></trkpt><trkpt lat="41.444181973325605" lon="19.864178280826867"><ele>269.5</ele><time>2026-04-29T12:03:02Z</time></trkpt><trkpt lat="41.44427450498658" lon="19.86424266494963"><ele>272.75</ele><time>2026-04-29T12:03:03Z</time></trkpt><trkpt lat="41.444367806335684" lon="19.864345034167105"><ele>276.0</ele><time>2026-04-29T12:03:04Z</time></trkpt><trkpt lat="41.444461501330956" lon="19.86444961541943"><ele>276.0</ele><time>2026-04-29T12:03:05Z</time></trkpt><trkpt lat="41.44454370882872" lon="19.864541087252423"><ele>276.0</ele><time>2026-04-29T12:03:06Z</time></trkpt><trkpt lat="41.444608453811384" lon="19.86461225833698"><ele>276.0</ele><time>2026-04-29T12:03:07Z</time></trkpt><trkpt lat="41.44472711368279" lon="19.86459590614998"><ele>276.0</ele><time>2026-04-29T12:03:08Z</time></trkpt><trkpt lat="41.4448167482091" lon="19.86461396611487"><ele>276.0</ele><time>2026-04-29T12:03:09Z</time></trkpt><trkpt lat="41.444892858684355" lon="19.86464241147286"><ele>276.0</ele><time>2026-04-29T12:03:10Z</time></trkpt><trkpt lat="41.44494400217822" lon="19.864726719545025"><ele>276.0</ele><time>2026-04-29T12:03:11Z</time></trkpt><trkpt lat="41.445013671702014" lon="19.864802322888846"><ele>276.0</ele><time>2026-04-29T12:03:12Z</time></trkpt><trkpt lat="41.44509903900729" lon="19.864873138173945"><ele>276.0</ele><time>2026-04-29T12:03:13Z</time></trkpt><trkpt lat="41.44512102555206" lon="19.86497745315673"><ele>276.0</ele><time>2026-04-29T12:03:14Z</time></trkpt><trkpt lat="41.445109432612185" lon="19.86509485280691"><ele>276.0</ele><time>2026-04-29T12:03:16Z</time></trkpt><trkpt lat="41.4450287830115" lon="19.865181385539735"><ele>276.0</ele><time>2026-04-29T12:03:18.001Z</time></trkpt><trkpt lat="41.44496264717531" lon="19.865179326732836"><ele>276.0</ele><time>2026-04-29T12:03:19.001Z</time></trkpt><trkpt lat="41.44488514786761" lon="19.86525319153485"><ele>276.0</ele><time>2026-04-29T12:03:20.001Z</time></trkpt><trkpt lat="41.4448269935686" lon="19.865350984364945"><ele>276.0</ele><time>2026-04-29T12:03:21.001Z</time></trkpt><trkpt lat="41.44475864088771" lon="19.865441074403662"><ele>276.0</ele><time>2026-04-29T12:03:22.001Z</time></trkpt><trkpt lat="41.444711951716926" lon="19.865561839697996"><ele>280.0</ele><time>2026-04-29T12:03:23.001Z</time></trkpt><trkpt lat="41.44467247003289" lon="19.86567630728794"><ele>284.0</ele><time>2026-04-29T12:03:24.001Z</time></trkpt><trkpt lat="41.444635156715705" lon="19.86576968331391"><ele>288.0</ele><time>2026-04-29T12:03:25.001Z</time></trkpt><trkpt lat="41.44455601294212" lon="19.865850000295957"><ele>292.0</ele><time>2026-04-29T12:03:27.001Z</time></trkpt><trkpt lat="41.44453201486744" lon="19.865948060936944"><ele>296.0</ele><time>2026-04-29T12:03:29.001Z</time></trkpt><trkpt lat="41.44462559156762" lon="19.86605220669011"><ele>296.0</ele><time>2026-04-29T12:03:31.001Z</time></trkpt><trkpt lat="41.444700628696886" lon="19.86597588603399"><ele>296.0</ele><time>2026-04-29T12:03:32.001Z</time></trkpt><trkpt lat="41.44474728774028" lon="19.865916162206616"><ele>296.0</ele><time>2026-04-29T12:03:33.001Z</time></trkpt><trkpt lat="41.444823253577006" lon="19.865804480448716"><ele>296.0</ele><time>2026-04-29T12:03:35.001Z</time></trkpt><trkpt lat="41.44491454240738" lon="19.865695003772913"><ele>296.0</ele><time>2026-04-29T12:03:37.001Z</time></trkpt><trkpt lat="41.44502367487466" lon="19.865628629116483"><ele>296.0</ele><time>2026-04-29T12:03:39.001Z</time></trkpt><trkpt lat="41.44514303875361" lon="19.865655070667938"><ele>296.0</ele><time>2026-04-29T12:03:41.001Z</time></trkpt><trkpt lat="41.44520959404354" lon="19.86568884906232"><ele>296.0</ele><time>2026-04-29T12:03:42Z</time></trkpt><trkpt lat="41.44528462003681" lon="19.865709945798468"><ele>296.0</ele><time>2026-04-29T12:03:43Z</time></trkpt><trkpt lat="41.445368619514625" lon="19.865712106973042"><ele>296.0</ele><time>2026-04-29T12:03:44Z</time></trkpt><trkpt lat="41.445453152255745" lon="19.865691947272804"><ele>296.0</ele><time>2026-04-29T12:03:45Z</time></trkpt><trkpt lat="41.445532946261075" lon="19.865646763089288"><ele>296.0</ele><time>2026-04-29T12:03:46Z</time></trkpt><trkpt lat="41.44559932431438" lon="19.86561372835479"><ele>296.0</ele><time>2026-04-29T12:03:47Z</time></trkpt><trkpt lat="41.445658041574525" lon="19.865737364323106"><ele>296.0</ele><time>2026-04-29T12:03:49Z</time></trkpt><trkpt lat="41.4456733254428" lon="19.86582539848382"><ele>296.0</ele><time>2026-04-29T12:03:50Z</time></trkpt><trkpt lat="41.445675554478704" lon="19.86593059019697"><ele>296.0</ele><time>2026-04-29T12:03:51Z</time></trkpt><trkpt lat="41.44564257097819" lon="19.8660064864562"><ele>296.0</ele><time>2026-04-29T12:03:52Z</time></trkpt><trkpt lat="41.445539999270224" lon="19.866065826605247"><ele>296.0</ele><time>2026-04-29T12:03:54Z</time></trkpt><trkpt lat="41.44536932289403" lon="19.866111050894737"><ele>296.0</ele><time>2026-04-29T12:03:56Z</time></trkpt><trkpt lat="41.445261344364205" lon="19.86613760780798"><ele>296.0</ele><time>2026-04-29T12:03:57Z</time></trkpt><trkpt lat="41.44514324838142" lon="19.866167487460846"><ele>296.0</ele><time>2026-04-29T12:03:58Z</time></trkpt><trkpt lat="41.445038397268625" lon="19.866216887845013"><ele>296.0</ele><time>2026-04-29T12:03:59Z</time></trkpt><trkpt lat="41.44496352921277" lon="19.86621688786981"><ele>296.0</ele><time>2026-04-29T12:04:00Z</time></trkpt><trkpt lat="41.44487613311426" lon="19.866253600799812"><ele>296.0</ele><time>2026-04-29T12:04:02Z</time></trkpt><trkpt lat="41.44493798359094" lon="19.8664932330866"><ele>296.0</ele><time>2026-04-29T12:04:05Z</time></trkpt><trkpt lat="41.44507035924831" lon="19.866470733879783"><ele>296.0</ele><time>2026-04-29T12:04:06Z</time></trkpt><trkpt lat="41.44516226516071" lon="19.866462664457252"><ele>296.0</ele><time>2026-04-29T12:04:07Z</time></trkpt><trkpt lat="41.44526468399748" lon="19.86645299737495"><ele>296.0</ele><time>2026-04-29T12:04:08Z</time></trkpt><trkpt lat="41.445366804393466" lon="19.866442787936514"><ele>296.0</ele><time>2026-04-29T12:04:09Z</time></trkpt><trkpt lat="41.445442249220484" lon="19.86643551361751"><ele>296.0</ele><time>2026-04-29T12:04:10Z</time></trkpt><trkpt lat="41.44550650419738" lon="19.86642952554789"><ele>296.0</ele><time>2026-04-29T12:04:11Z</time></trkpt><trkpt lat="41.44561028047117" lon="19.8664198543958"><ele>296.0</ele><time>2026-04-29T12:04:13Z</time></trkpt><trkpt lat="41.44570566370123" lon="19.86639212715497"><ele>296.0</ele><time>2026-04-29T12:04:15Z</time></trkpt><trkpt lat="41.44581682499276" lon="19.866393269184126"><ele>296.0</ele><time>2026-04-29T12:04:17Z</time></trkpt><trkpt lat="41.44591507746514" lon="19.86640567678917"><ele>296.0</ele><time>2026-04-29T12:04:19Z</time></trkpt><trkpt lat="41.445972391712516" lon="19.866440968764394"><ele>296.0</ele><time>2026-04-29T12:04:21Z</time></trkpt><trkpt lat="41.44599402212429" lon="19.866536424448054"><ele>296.0</ele><time>2026-04-29T12:04:23Z</time></trkpt><trkpt lat="41.44607345677404" lon="19.866599161399193"><ele>301.20000000000005</ele><time>2026-04-29T12:04:25Z</time></trkpt><trkpt lat="41.44615727427434" lon="19.86673231487001"><ele>306.40000000000003</ele><time>2026-04-29T12:04:27Z</time></trkpt><trkpt lat="41.44621763612859" lon="19.866786767627993"><ele>311.6</ele><time>2026-04-29T12:04:28Z</time></trkpt><trkpt lat="41.446285992620986" lon="19.866848061869945"><ele>316.8</ele><time>2026-04-29T12:04:29Z</time></trkpt><trkpt lat="41.446356891918704" lon="19.866911636218973"><ele>322.0</ele><time>2026-04-29T12:04:30Z</time></trkpt><trkpt lat="41.44642038453582" lon="19.866978941349473"><ele>324.0</ele><time>2026-04-29T12:04:31Z</time></trkpt><trkpt lat="41.44649109020589" lon="19.867081915000348"><ele>326.0</ele><time>2026-04-29T12:04:33Z</time></trkpt><trkpt lat="41.44649457282435" lon="19.86721236471895"><ele>328.0</ele><time>2026-04-29T12:04:36Z</time></trkpt><trkpt lat="41.446484446697376" lon="19.86737758053163"><ele>330.0</ele><time>2026-04-29T12:04:38Z</time></trkpt><trkpt lat="41.44647887883132" lon="19.86746842470024"><ele>332.0</ele><time>2026-04-29T12:04:39Z</time></trkpt><trkpt lat="41.44647886689225" lon="19.86756881823033"><ele>331.5</ele><time>2026-04-29T12:04:40Z</time></trkpt><trkpt lat="41.446531066110744" lon="19.867674401836744"><ele>331.0</ele><time>2026-04-29T12:04:42Z</time></trkpt><trkpt lat="41.44661697416108" lon="19.867778817777896"><ele>330.5</ele><time>2026-04-29T12:04:44Z</time></trkpt><trkpt lat="41.44665791309167" lon="19.867846796137762"><ele>330.0</ele><time>2026-04-29T12:04:45Z</time></trkpt><trkpt lat="41.44669970571883" lon="19.86792814734852"><ele>329.5</ele><time>2026-04-29T12:04:46Z</time></trkpt><trkpt lat="41.44672758060011" lon="19.86801107722374"><ele>329.0</ele><time>2026-04-29T12:04:47Z</time></trkpt><trkpt lat="41.44669431134497" lon="19.86818792509102"><ele>329.0</ele><time>2026-04-29T12:04:49Z</time></trkpt><trkpt lat="41.44668879667492" lon="19.86827793659202"><ele>329.0</ele><time>2026-04-29T12:04:50Z</time></trkpt><trkpt lat="41.4466830435934" lon="19.868370207363128"><ele>329.0</ele><time>2026-04-29T12:04:52Z</time></trkpt><trkpt lat="41.44671285187989" lon="19.8684817926463"><ele>329.0</ele><time>2026-04-29T12:04:54Z</time></trkpt><trkpt lat="41.44681010511021" lon="19.86848991059867"><ele>329.0</ele><time>2026-04-29T12:04:56Z</time></trkpt><trkpt lat="41.446854505023445" lon="19.868364621382614"><ele>329.0</ele><time>2026-04-29T12:04:58Z</time></trkpt><trkpt lat="41.446800849833785" lon="19.868233991426557"><ele>329.0</ele><time>2026-04-29T12:05:00Z</time></trkpt><trkpt lat="41.44681783960331" lon="19.868108540524894"><ele>329.0</ele><time>2026-04-29T12:05:02Z</time></trkpt><trkpt lat="41.44687704868891" lon="19.867973060637745"><ele>329.0</ele><time>2026-04-29T12:05:04Z</time></trkpt><trkpt lat="41.446938178263544" lon="19.867855600859"><ele>329.0</ele><time>2026-04-29T12:05:06Z</time></trkpt><trkpt lat="41.44693047638456" lon="19.867716713418307"><ele>329.0</ele><time>2026-04-29T12:05:08Z</time></trkpt><trkpt lat="41.446919412003425" lon="19.86760384498599"><ele>329.0</ele><time>2026-04-29T12:05:11Z</time></trkpt><trkpt lat="41.44696803579109" lon="19.8675496813844"><ele>329.0</ele><time>2026-04-29T12:05:14Z</time></trkpt><trkpt lat="41.447031754919266" lon="19.867591688334524"><ele>329.0</ele><time>2026-04-29T12:05:46Z</time></trkpt><trkpt lat="41.44704381709691" lon="19.86768216191022"><ele>329.0</ele><time>2026-04-29T12:05:48Z</time></trkpt><trkpt lat="41.44705674363515" lon="19.867824205977204"><ele>329.0</ele><time>2026-04-29T12:05:50Z</time></trkpt><trkpt lat="41.447048312012996" lon="19.867928465000293"><ele>329.0</ele><time>2026-04-29T12:05:52Z</time></trkpt><trkpt lat="41.44702717138806" lon="19.86804159823615"><ele>329.0</ele><time>2026-04-29T12:05:54Z</time></trkpt><trkpt lat="41.44702931687936" lon="19.868127131936852"><ele>329.0</ele><time>2026-04-29T12:05:57Z</time></trkpt><trkpt lat="41.44702489863527" lon="19.86826611851988"><ele>329.0</ele><time>2026-04-29T12:05:59Z</time></trkpt><trkpt lat="41.44707396786622" lon="19.86833667097692"><ele>329.0</ele><time>2026-04-29T12:06:00Z</time></trkpt><trkpt lat="41.447103561723274" lon="19.868414913605235"><ele>329.0</ele><time>2026-04-29T12:06:01Z</time></trkpt><trkpt lat="41.44716605089763" lon="19.86848976129163"><ele>329.0</ele><time>2026-04-29T12:06:03Z</time></trkpt><trkpt lat="41.44723566694596" lon="19.86847067261291"><ele>333.0</ele><time>2026-04-29T12:06:05Z</time></trkpt><trkpt lat="41.44728281838594" lon="19.868323287279697"><ele>337.0</ele><time>2026-04-29T12:06:08Z</time></trkpt><trkpt lat="41.447246232201366" lon="19.868254075271945"><ele>341.0</ele><time>2026-04-29T12:06:09Z</time></trkpt><trkpt lat="41.44720779769578" lon="19.868113851266056"><ele>345.0</ele><time>2026-04-29T12:06:11Z</time></trkpt><trkpt lat="41.44723686632432" lon="19.8680284849096"><ele>349.0</ele><time>2026-04-29T12:06:14Z</time></trkpt><trkpt lat="41.447277477801606" lon="19.86793621263356"><ele>353.0</ele><time>2026-04-29T12:06:23Z</time></trkpt><trkpt lat="41.44733065408804" lon="19.867810187962018"><ele>353.0</ele><time>2026-04-29T12:07:48Z</time></trkpt><trkpt lat="41.44738470202993" lon="19.86763504883282"><ele>353.0</ele><time>2026-04-29T12:07:50Z</time></trkpt><trkpt lat="41.447374476525745" lon="19.867508561992416"><ele>353.0</ele><time>2026-04-29T12:07:51Z</time></trkpt><trkpt lat="41.4473662031834" lon="19.867408939735114"><ele>353.0</ele><time>2026-04-29T12:07:52Z</time></trkpt><trkpt lat="41.4473722279286" lon="19.86730472380766"><ele>353.0</ele><time>2026-04-29T12:07:53Z</time></trkpt><trkpt lat="41.44736600750034" lon="19.867193092990444"><ele>357.0</ele><time>2026-04-29T12:07:54Z</time></trkpt><trkpt lat="41.44733200088689" lon="19.86709750559608"><ele>361.0</ele><time>2026-04-29T12:07:55Z</time></trkpt><trkpt lat="41.447312360064224" lon="19.866978720948804"><ele>365.0</ele><time>2026-04-29T12:07:57Z</time></trkpt><trkpt lat="41.44744535672344" lon="19.867039683426956"><ele>369.0</ele><time>2026-04-29T12:08:02Z</time></trkpt><trkpt lat="41.447522057530065" lon="19.867214702176202"><ele>369.0</ele><time>2026-04-29T12:08:04Z</time></trkpt><trkpt lat="41.447557295119346" lon="19.86734848626866"><ele>369.0</ele><time>2026-04-29T12:08:05Z</time></trkpt><trkpt lat="41.447566427393106" lon="19.86747653763021"><ele>369.0</ele><time>2026-04-29T12:08:06Z</time></trkpt><trkpt lat="41.447619159619" lon="19.867574474424387"><ele>369.0</ele><time>2026-04-29T12:08:07Z</time></trkpt><trkpt lat="41.44766155503419" lon="19.86765277384026"><ele>369.0</ele><time>2026-04-29T12:08:08Z</time></trkpt><trkpt lat="41.447695027464526" lon="19.867724028710818"><ele>369.0</ele><time>2026-04-29T12:08:09Z</time></trkpt><trkpt lat="41.447758035977955" lon="19.86781044646952"><ele>369.0</ele><time>2026-04-29T12:08:10Z</time></trkpt><trkpt lat="41.44783674127573" lon="19.86786551908056"><ele>369.0</ele><time>2026-04-29T12:08:12Z</time></trkpt><trkpt lat="41.447891337121604" lon="19.86779314050761"><ele>369.0</ele><time>2026-04-29T12:08:14Z</time></trkpt><trkpt lat="41.44788448209997" lon="19.8677041243527"><ele>369.0</ele><time>2026-04-29T12:08:16Z</time></trkpt><trkpt lat="41.44779515245302" lon="19.867589766627777"><ele>369.0</ele><time>2026-04-29T12:08:18Z</time></trkpt><trkpt lat="41.44774366014197" lon="19.867484988396065"><ele>369.0</ele><time>2026-04-29T12:08:20Z</time></trkpt><trkpt lat="41.447774814208024" lon="19.867359604361752"><ele>369.0</ele><time>2026-04-29T12:08:22Z</time></trkpt><trkpt lat="41.44778717857207" lon="19.867217853946954"><ele>369.0</ele><time>2026-04-29T12:08:24Z</time></trkpt><trkpt lat="41.44782223613054" lon="19.86707847520993"><ele>369.0</ele><time>2026-04-29T12:08:26Z</time></trkpt><trkpt lat="41.4478281643102" lon="19.866940920545726"><ele>369.0</ele><time>2026-04-29T12:08:28Z</time></trkpt><trkpt lat="41.447780747093425" lon="19.866805435838437"><ele>371.0</ele><time>2026-04-29T12:08:30Z</time></trkpt><trkpt lat="41.447713399719966" lon="19.866711787698183"><ele>373.0</ele><time>2026-04-29T12:08:32Z</time></trkpt><trkpt lat="41.44766447137035" lon="19.866623931695873"><ele>375.0</ele><time>2026-04-29T12:08:34Z</time></trkpt><trkpt lat="41.44771583750356" lon="19.866542601101806"><ele>377.0</ele><time>2026-04-29T12:08:37Z</time></trkpt><trkpt lat="41.447791003279356" lon="19.866639611949243"><ele>379.0</ele><time>2026-04-29T12:08:41Z</time></trkpt><trkpt lat="41.447877391836116" lon="19.866740844250355"><ele>380.79999999999995</ele><time>2026-04-29T12:08:43Z</time></trkpt><trkpt lat="41.44797697857269" lon="19.86682701648375"><ele>382.59999999999997</ele><time>2026-04-29T12:08:45Z</time></trkpt><trkpt lat="41.44798186709316" lon="19.866921030361038"><ele>384.4</ele><time>2026-04-29T12:08:46Z</time></trkpt><trkpt lat="41.44798847360889" lon="19.867092076906097"><ele>386.2</ele><time>2026-04-29T12:08:48Z</time></trkpt><trkpt lat="41.447999380742345" lon="19.867188215263955"><ele>388.0</ele><time>2026-04-29T12:08:49Z</time></trkpt><trkpt lat="41.44806998443101" lon="19.867249494366316"><ele>388.0</ele><time>2026-04-29T12:08:51Z</time></trkpt><trkpt lat="41.448137997459234" lon="19.867178316229875"><ele>388.0</ele><time>2026-04-29T12:08:53Z</time></trkpt><trkpt lat="41.448151388752294" lon="19.86704456921647"><ele>388.0</ele><time>2026-04-29T12:08:56Z</time></trkpt><trkpt lat="41.44817326382397" lon="19.866899594605826"><ele>388.0</ele><time>2026-04-29T12:08:58Z</time></trkpt><trkpt lat="41.448187942230824" lon="19.86681741153954"><ele>388.0</ele><time>2026-04-29T12:08:59Z</time></trkpt><trkpt lat="41.44816028124506" lon="19.8666496845237"><ele>392.4</ele><time>2026-04-29T12:09:01Z</time></trkpt><trkpt lat="41.44811245475017" lon="19.866504550180043"><ele>396.79999999999995</ele><time>2026-04-29T12:09:03Z</time></trkpt><trkpt lat="41.4480704763843" lon="19.86637351268869"><ele>401.2</ele><time>2026-04-29T12:09:05Z</time></trkpt><trkpt lat="41.44803711093676" lon="19.86628713251158"><ele>405.6</ele><time>2026-04-29T12:09:07Z</time></trkpt><trkpt lat="41.44801580414139" lon="19.866194939557708"><ele>410.0</ele><time>2026-04-29T12:09:09Z</time></trkpt><trkpt lat="41.44810490120872" lon="19.8661203147552"><ele>409.99999999999994</ele><time>2026-04-29T12:18:48.001Z</time></trkpt><trkpt lat="41.44817329796709" lon="19.866166541334074"><ele>410.0</ele><time>2026-04-29T12:18:51.001Z</time></trkpt><trkpt lat="41.44822024887733" lon="19.866309154835438"><ele>410.0</ele><time>2026-04-29T12:18:53.001Z</time></trkpt><trkpt lat="41.44826504055779" lon="19.866384382912948"><ele>410.0</ele><time>2026-04-29T12:18:54.001Z</time></trkpt><trkpt lat="41.4483227089246" lon="19.866421543342568"><ele>409.99999999999994</ele><time>2026-04-29T12:18:55.001Z</time></trkpt><trkpt lat="41.44839229344506" lon="19.866448795692683"><ele>410.0</ele><time>2026-04-29T12:18:56.001Z</time></trkpt><trkpt lat="41.448516796019995" lon="19.866490872791694"><ele>410.0</ele><time>2026-04-29T12:18:58.001Z</time></trkpt><trkpt lat="41.44861548648825" lon="19.86654336975388"><ele>410.0</ele><time>2026-04-29T12:19:00.001Z</time></trkpt><trkpt lat="41.44869752188564" lon="19.866625050917946"><ele>410.0</ele><time>2026-04-29T12:19:02.001Z</time></trkpt><trkpt lat="41.44876343996457" lon="19.866685446864576"><ele>410.0</ele><time>2026-04-29T12:19:04.001Z</time></trkpt><trkpt lat="41.44882721693096" lon="19.866651234440017"><ele>410.0</ele><time>2026-04-29T12:19:06.001Z</time></trkpt><trkpt lat="41.44885279173166" lon="19.866499270423002"><ele>412.25</ele><time>2026-04-29T12:19:17.001Z</time></trkpt><trkpt lat="41.44884200289549" lon="19.866365623091095"><ele>414.5</ele><time>2026-04-29T12:19:19.001Z</time></trkpt><trkpt lat="41.448890991937496" lon="19.866230882731134"><ele>416.75</ele><time>2026-04-29T12:19:23.001Z</time></trkpt><trkpt lat="41.44881448469838" lon="19.866336454388133"><ele>419.0</ele><time>2026-04-29T12:19:26.001Z</time></trkpt><trkpt lat="41.44908022412418" lon="19.866305749513405"><ele>419.0</ele><time>2026-04-29T12:20:14Z</time></trkpt><trkpt lat="41.44915274463779" lon="19.866426486025293"><ele>419.0</ele><time>2026-04-29T12:20:16Z</time></trkpt><trkpt lat="41.44921077988669" lon="19.86646229713456"><ele>419.0</ele><time>2026-04-29T12:20:18Z</time></trkpt><trkpt lat="41.449306062345606" lon="19.866467912164318"><ele>419.0</ele><time>2026-04-29T12:20:20Z</time></trkpt><trkpt lat="41.44943225116446" lon="19.86642494690451"><ele>419.0</ele><time>2026-04-29T12:20:22Z</time></trkpt><trkpt lat="41.449508700490085" lon="19.86639187798732"><ele>418.99999999999994</ele><time>2026-04-29T12:20:23Z</time></trkpt><trkpt lat="41.44959067199478" lon="19.8663635639677"><ele>419.0</ele><time>2026-04-29T12:20:24Z</time></trkpt><trkpt lat="41.44966432715951" lon="19.866367325012003"><ele>419.0</ele><time>2026-04-29T12:20:25Z</time></trkpt><trkpt lat="41.44972448955626" lon="19.866337274490913"><ele>419.0</ele><time>2026-04-29T12:20:26Z</time></trkpt><trkpt lat="41.44985701880726" lon="19.866341748376364"><ele>418.99999999999994</ele><time>2026-04-29T12:20:28Z</time></trkpt><trkpt lat="41.44992223662458" lon="19.866368006885523"><ele>419.0</ele><time>2026-04-29T12:20:29Z</time></trkpt><trkpt lat="41.45002252297957" lon="19.866309442178657"><ele>419.8333333333333</ele><time>2026-04-29T12:20:31Z</time></trkpt><trkpt lat="41.450142462674535" lon="19.86626323493836"><ele>420.66666666666663</ele><time>2026-04-29T12:20:33Z</time></trkpt><trkpt lat="41.450229235437924" lon="19.86623820225865"><ele>421.5</ele><time>2026-04-29T12:20:34Z</time></trkpt><trkpt lat="41.4502985177382" lon="19.866264461376428"><ele>422.33333333333337</ele><time>2026-04-29T12:20:35Z</time></trkpt><trkpt lat="41.45037048890687" lon="19.866289776845257"><ele>423.1666666666667</ele><time>2026-04-29T12:20:36Z</time></trkpt><trkpt lat="41.4504494045734" lon="19.866275944060945"><ele>424.0</ele><time>2026-04-29T12:20:37Z</time></trkpt><trkpt lat="41.450522836448044" lon="19.866266016410712"><ele>428.0</ele><time>2026-04-29T12:20:38Z</time></trkpt><trkpt lat="41.450600725072846" lon="19.86625548624388"><ele>432.0</ele><time>2026-04-29T12:20:39Z</time></trkpt><trkpt lat="41.45068572227906" lon="19.866206471737502"><ele>436.0</ele><time>2026-04-29T12:20:40Z</time></trkpt><trkpt lat="41.45076059156481" lon="19.866180952370183"><ele>440.0</ele><time>2026-04-29T12:20:41Z</time></trkpt><trkpt lat="41.450872805898754" lon="19.866191438467872"><ele>444.0</ele><time>2026-04-29T12:20:43Z</time></trkpt><trkpt lat="41.45085241759888" lon="19.866424269687514"><ele>444.0</ele><time>2026-04-29T12:20:46Z</time></trkpt><trkpt lat="41.45085124389674" lon="19.866534667896996"><ele>444.0</ele><time>2026-04-29T12:20:47Z</time></trkpt><trkpt lat="41.45086128031895" lon="19.866668883044248"><ele>444.0</ele><time>2026-04-29T12:20:48Z</time></trkpt><trkpt lat="41.450883038676125" lon="19.86678945788949"><ele>444.0</ele><time>2026-04-29T12:20:49Z</time></trkpt><trkpt lat="41.450931234214536" lon="19.86685794302177"><ele>444.0</ele><time>2026-04-29T12:20:50Z</time></trkpt><trkpt lat="41.451021567381204" lon="19.866960159768084"><ele>443.0</ele><time>2026-04-29T12:20:52Z</time></trkpt><trkpt lat="41.45112993026547" lon="19.866926362683508"><ele>442.0</ele><time>2026-04-29T12:20:53Z</time></trkpt><trkpt lat="41.451227707557834" lon="19.86692393429269"><ele>441.0</ele><time>2026-04-29T12:20:54Z</time></trkpt><trkpt lat="41.45133554915023" lon="19.866930976975887"><ele>440.0</ele><time>2026-04-29T12:20:55Z</time></trkpt><trkpt lat="41.45143979937522" lon="19.86692714351203"><ele>439.0</ele><time>2026-04-29T12:20:56Z</time></trkpt><trkpt lat="41.45155022577837" lon="19.866932262260274"><ele>439.0</ele><time>2026-04-29T12:20:57Z</time></trkpt><trkpt lat="41.451662639261876" lon="19.86692098687645"><ele>439.0</ele><time>2026-04-29T12:20:58Z</time></trkpt><trkpt lat="41.45177132957947" lon="19.866907314589398"><ele>439.0</ele><time>2026-04-29T12:20:59Z</time></trkpt><trkpt lat="41.451851903986274" lon="19.866901442727315"><ele>439.0</ele><time>2026-04-29T12:21:00Z</time></trkpt><trkpt lat="41.451921550650084" lon="19.8668989543762"><ele>439.0</ele><time>2026-04-29T12:21:01Z</time></trkpt><trkpt lat="41.452007707641826" lon="19.86690576177046"><ele>439.00000000000006</ele><time>2026-04-29T12:21:02Z</time></trkpt><trkpt lat="41.452098888879696" lon="19.866890090610863"><ele>439.0</ele><time>2026-04-29T12:21:03Z</time></trkpt><trkpt lat="41.45217344840395" lon="19.866859560274847"><ele>439.0</ele><time>2026-04-29T12:21:04Z</time></trkpt><trkpt lat="41.45223871653623" lon="19.866847799227354"><ele>439.0</ele><time>2026-04-29T12:21:05Z</time></trkpt><trkpt lat="41.45229594665777" lon="19.86689457472705"><ele>439.00000000000006</ele><time>2026-04-29T12:21:06Z</time></trkpt><trkpt lat="41.45237659076927" lon="19.86693162932188"><ele>439.0</ele><time>2026-04-29T12:21:07Z</time></trkpt><trkpt lat="41.45247280235596" lon="19.866943607847695"><ele>439.6</ele><time>2026-04-29T12:21:08Z</time></trkpt><trkpt lat="41.452575135455504" lon="19.866980486445062"><ele>440.2</ele><time>2026-04-29T12:21:09Z</time></trkpt><trkpt lat="41.45268328806746" lon="19.86701567125666"><ele>440.80000000000007</ele><time>2026-04-29T12:21:10Z</time></trkpt><trkpt lat="41.452800623587216" lon="19.86705343462809"><ele>441.40000000000003</ele><time>2026-04-29T12:21:11Z</time></trkpt><trkpt lat="41.45290589339534" lon="19.867082610087046"><ele>442.0</ele><time>2026-04-29T12:21:12Z</time></trkpt><trkpt lat="41.45299416084184" lon="19.86710032039916"><ele>443.8</ele><time>2026-04-29T12:21:13Z</time></trkpt><trkpt lat="41.45308252426193" lon="19.867111426267773"><ele>445.6</ele><time>2026-04-29T12:21:14Z</time></trkpt><trkpt lat="41.453183509209566" lon="19.86709565678997"><ele>447.40000000000003</ele><time>2026-04-29T12:21:15Z</time></trkpt><trkpt lat="41.4532828641016" lon="19.867079320180018"><ele>449.20000000000005</ele><time>2026-04-29T12:21:16Z</time></trkpt><trkpt lat="41.45338456077481" lon="19.86707753136003"><ele>451.0</ele><time>2026-04-29T12:21:17Z</time></trkpt><trkpt lat="41.45347788835629" lon="19.86707497977857"><ele>451.0</ele><time>2026-04-29T12:21:18Z</time></trkpt><trkpt lat="41.453555494241975" lon="19.86706414871124"><ele>451.0</ele><time>2026-04-29T12:21:19Z</time></trkpt><trkpt lat="41.45362548552265" lon="19.86704185891369"><ele>451.0</ele><time>2026-04-29T12:21:20Z</time></trkpt><trkpt lat="41.45368822439875" lon="19.86699827876238"><ele>451.0</ele><time>2026-04-29T12:21:21Z</time></trkpt><trkpt lat="41.45374461470767" lon="19.866933224780084"><ele>451.0</ele><time>2026-04-29T12:21:22Z</time></trkpt><trkpt lat="41.4537924640032" lon="19.86685163195169"><ele>451.0</ele><time>2026-04-29T12:21:23Z</time></trkpt><trkpt lat="41.45384369317447" lon="19.866791171477384"><ele>451.0</ele><time>2026-04-29T12:21:24Z</time></trkpt><trkpt lat="41.45396518291853" lon="19.866782692360438"><ele>451.83333333333337</ele><time>2026-04-29T12:21:26Z</time></trkpt><trkpt lat="41.45405805493623" lon="19.86678860432671"><ele>452.6666666666667</ele><time>2026-04-29T12:21:27Z</time></trkpt><trkpt lat="41.45415955862058" lon="19.866782974716962"><ele>453.5</ele><time>2026-04-29T12:21:28Z</time></trkpt><trkpt lat="41.4542388720813" lon="19.86676239711549"><ele>454.33333333333337</ele><time>2026-04-29T12:21:29Z</time></trkpt><trkpt lat="41.45431245268363" lon="19.866733150566137"><ele>455.1666666666667</ele><time>2026-04-29T12:21:30Z</time></trkpt><trkpt lat="41.45436963607199" lon="19.86668282146711"><ele>456.0</ele><time>2026-04-29T12:21:31Z</time></trkpt><trkpt lat="41.454411970616476" lon="19.866611593150335"><ele>459.0</ele><time>2026-04-29T12:21:32Z</time></trkpt><trkpt lat="41.45450327813716" lon="19.86655363243645"><ele>462.0</ele><time>2026-04-29T12:21:34Z</time></trkpt><trkpt lat="41.45457463589183" lon="19.86656789848448"><ele>465.0</ele><time>2026-04-29T12:21:35Z</time></trkpt><trkpt lat="41.45465256963775" lon="19.866582357002024"><ele>468.0</ele><time>2026-04-29T12:21:36Z</time></trkpt><trkpt lat="41.4547357819337" lon="19.86661745940765"><ele>471.0</ele><time>2026-04-29T12:21:37Z</time></trkpt><trkpt lat="41.45482812574686" lon="19.866638518689005"><ele>474.0</ele><time>2026-04-29T12:21:38Z</time></trkpt><trkpt lat="41.45490264230882" lon="19.866649281287817"><ele>474.0</ele><time>2026-04-29T12:21:39Z</time></trkpt><trkpt lat="41.45497217614615" lon="19.866662522097428"><ele>474.0</ele><time>2026-04-29T12:21:40Z</time></trkpt><trkpt lat="41.455048607771744" lon="19.866578129698805"><ele>474.0</ele><time>2026-04-29T12:21:41Z</time></trkpt><trkpt lat="41.45511175638222" lon="19.866502067753164"><ele>474.0</ele><time>2026-04-29T12:21:42Z</time></trkpt><trkpt lat="41.45517488404492" lon="19.866424650230375"><ele>474.0</ele><time>2026-04-29T12:21:43Z</time></trkpt><trkpt lat="41.45527955071313" lon="19.866388660757337"><ele>474.0</ele><time>2026-04-29T12:21:45Z</time></trkpt><trkpt lat="41.455405923801464" lon="19.866475432403394"><ele>473.79999999999995</ele><time>2026-04-29T12:21:47Z</time></trkpt><trkpt lat="41.45550830248334" lon="19.866483418092887"><ele>473.59999999999997</ele><time>2026-04-29T12:21:48Z</time></trkpt><trkpt lat="41.455597085310814" lon="19.866482740492536"><ele>473.4</ele><time>2026-04-29T12:21:49Z</time></trkpt><trkpt lat="41.45568050921349" lon="19.866447677971173"><ele>473.2</ele><time>2026-04-29T12:21:50Z</time></trkpt><trkpt lat="41.45576199602192" lon="19.86639591473186"><ele>473.0</ele><time>2026-04-29T12:21:51Z</time></trkpt><trkpt lat="41.4558403911523" lon="19.8663412708105"><ele>472.99999999999994</ele><time>2026-04-29T12:21:52Z</time></trkpt><trkpt lat="41.45590342197488" lon="19.866306292219825"><ele>473.0</ele><time>2026-04-29T12:21:53Z</time></trkpt><trkpt lat="41.45595000209663" lon="19.866209305212138"><ele>473.0</ele><time>2026-04-29T12:21:54Z</time></trkpt><trkpt lat="41.45600701882767" lon="19.86611899234081"><ele>473.0</ele><time>2026-04-29T12:21:55Z</time></trkpt><trkpt lat="41.45608352815205" lon="19.866056678267917"><ele>472.99999999999994</ele><time>2026-04-29T12:21:56Z</time></trkpt><trkpt lat="41.4561573884723" lon="19.865981550789396"><ele>473.0</ele><time>2026-04-29T12:21:57Z</time></trkpt><trkpt lat="41.45623437782676" lon="19.865906726716435"><ele>475.2</ele><time>2026-04-29T12:21:58Z</time></trkpt><trkpt lat="41.45631888894637" lon="19.865843559588882"><ele>477.4</ele><time>2026-04-29T12:21:59Z</time></trkpt><trkpt lat="41.45640233236119" lon="19.865772090784066"><ele>479.59999999999997</ele><time>2026-04-29T12:22:00Z</time></trkpt><trkpt lat="41.45647577213304" lon="19.865702374806805"><ele>481.79999999999995</ele><time>2026-04-29T12:22:01Z</time></trkpt><trkpt lat="41.45654416224339" lon="19.86563723379136"><ele>484.0</ele><time>2026-04-29T12:22:02Z</time></trkpt><trkpt lat="41.45661276187579" lon="19.8655601580483"><ele>484.0</ele><time>2026-04-29T12:22:03Z</time></trkpt><trkpt lat="41.456666540296936" lon="19.865473888093298"><ele>483.99999999999994</ele><time>2026-04-29T12:22:04Z</time></trkpt><trkpt lat="41.45671585701699" lon="19.865390340052144"><ele>484.0</ele><time>2026-04-29T12:22:05Z</time></trkpt><trkpt lat="41.45677559063062" lon="19.865335263874396"><ele>484.0</ele><time>2026-04-29T12:22:06Z</time></trkpt><trkpt lat="41.45684040896951" lon="19.86530262746312"><ele>483.99999999999994</ele><time>2026-04-29T12:22:07Z</time></trkpt><trkpt lat="41.45690339244467" lon="19.86529122798309"><ele>484.0</ele><time>2026-04-29T12:22:08Z</time></trkpt><trkpt lat="41.45696129742005" lon="19.86533189051769"><ele>484.0</ele><time>2026-04-29T12:22:09Z</time></trkpt><trkpt lat="41.45703786195281" lon="19.865309200207175"><ele>484.6</ele><time>2026-04-29T12:22:10Z</time></trkpt><trkpt lat="41.457131379248544" lon="19.86529986238708"><ele>485.2</ele><time>2026-04-29T12:22:11Z</time></trkpt><trkpt lat="41.45722835317088" lon="19.865270047887424"><ele>485.80000000000007</ele><time>2026-04-29T12:22:12Z</time></trkpt><trkpt lat="41.45733597555576" lon="19.865250971442745"><ele>486.40000000000003</ele><time>2026-04-29T12:22:13Z</time></trkpt><trkpt lat="41.45744274979572" lon="19.865246138583114"><ele>487.0</ele><time>2026-04-29T12:22:14Z</time></trkpt><trkpt lat="41.45753160821208" lon="19.86523536921993"><ele>487.00000000000006</ele><time>2026-04-29T12:22:15Z</time></trkpt><trkpt lat="41.457606982684986" lon="19.86523245285258"><ele>487.0</ele><time>2026-04-29T12:22:16Z</time></trkpt><trkpt lat="41.45767920461307" lon="19.86526039296838"><ele>487.0</ele><time>2026-04-29T12:22:17Z</time></trkpt><trkpt lat="41.45774936001413" lon="19.865315479548386"><ele>487.0</ele><time>2026-04-29T12:22:18Z</time></trkpt><trkpt lat="41.457829667076226" lon="19.86535846724798"><ele>487.00000000000006</ele><time>2026-04-29T12:22:19Z</time></trkpt><trkpt lat="41.45791860676623" lon="19.865383362391224"><ele>487.0</ele><time>2026-04-29T12:22:20Z</time></trkpt><trkpt lat="41.45801182641367" lon="19.865376495670866"><ele>488.6</ele><time>2026-04-29T12:22:21Z</time></trkpt><trkpt lat="41.45811322633199" lon="19.865382675656992"><ele>490.20000000000005</ele><time>2026-04-29T12:22:22Z</time></trkpt><trkpt lat="41.4582161744177" lon="19.865395096025054"><ele>491.8</ele><time>2026-04-29T12:22:23Z</time></trkpt><trkpt lat="41.45831497670489" lon="19.865387555171672"><ele>493.4</ele><time>2026-04-29T12:22:24Z</time></trkpt><trkpt lat="41.45840223195511" lon="19.865375465379127"><ele>495.0</ele><time>2026-04-29T12:22:25Z</time></trkpt><trkpt lat="41.458487988538586" lon="19.865356646657993"><ele>495.0</ele><time>2026-04-29T12:22:26Z</time></trkpt><trkpt lat="41.45857309649978" lon="19.86531431778633"><ele>495.0</ele><time>2026-04-29T12:22:27Z</time></trkpt><trkpt lat="41.45866158775671" lon="19.865269140721754"><ele>495.0</ele><time>2026-04-29T12:22:28Z</time></trkpt><trkpt lat="41.45875710375863" lon="19.86525289904035"><ele>495.0</ele><time>2026-04-29T12:22:29Z</time></trkpt><trkpt lat="41.45884275487652" lon="19.865263241568993"><ele>495.0</ele><time>2026-04-29T12:22:30Z</time></trkpt><trkpt lat="41.45890978015199" lon="19.865336847666452"><ele>496.4</ele><time>2026-04-29T12:22:31Z</time></trkpt><trkpt lat="41.459025341042405" lon="19.86538778467582"><ele>497.8</ele><time>2026-04-29T12:22:33Z</time></trkpt><trkpt lat="41.459105494654096" lon="19.865331860970613"><ele>499.20000000000005</ele><time>2026-04-29T12:22:35Z</time></trkpt><trkpt lat="41.45916934075295" lon="19.865197458403877"><ele>500.6</ele><time>2026-04-29T12:22:37Z</time></trkpt><trkpt lat="41.459183905014505" lon="19.86510705613812"><ele>502.0</ele><time>2026-04-29T12:22:38Z</time></trkpt><trkpt lat="41.45920189885892" lon="19.86500085290681"><ele>505.8</ele><time>2026-04-29T12:22:39Z</time></trkpt><trkpt lat="41.459228935740114" lon="19.86489319494665"><ele>509.6</ele><time>2026-04-29T12:22:40Z</time></trkpt><trkpt lat="41.45926175584397" lon="19.8647933230868"><ele>513.4000000000001</ele><time>2026-04-29T12:22:41Z</time></trkpt><trkpt lat="41.45930269572792" lon="19.86470546466208"><ele>517.2</ele><time>2026-04-29T12:22:42Z</time></trkpt><trkpt lat="41.45937711506478" lon="19.86460979400815"><ele>521.0</ele><time>2026-04-29T12:22:44Z</time></trkpt><trkpt lat="41.459510981652286" lon="19.864564668997044"><ele>521.0</ele><time>2026-04-29T12:22:46Z</time></trkpt><trkpt lat="41.45959035630557" lon="19.864527237767547"><ele>521.0</ele><time>2026-04-29T12:22:47Z</time></trkpt><trkpt lat="41.45967810705705" lon="19.864485207891132"><ele>521.0</ele><time>2026-04-29T12:22:48Z</time></trkpt><trkpt lat="41.45976482200614" lon="19.86443213450856"><ele>521.0</ele><time>2026-04-29T12:22:49Z</time></trkpt><trkpt lat="41.459866148720586" lon="19.86440311540506"><ele>521.0</ele><time>2026-04-29T12:22:50Z</time></trkpt><trkpt lat="41.45995544536094" lon="19.864337522543245"><ele>520.3333333333333</ele><time>2026-04-29T12:22:51Z</time></trkpt><trkpt lat="41.4600411530621" lon="19.86430948630443"><ele>519.6666666666666</ele><time>2026-04-29T12:22:52Z</time></trkpt><trkpt lat="41.460112243383655" lon="19.864277255796967"><ele>519.0</ele><time>2026-04-29T12:22:53Z</time></trkpt><trkpt lat="41.46019502980152" lon="19.86427622754991"><ele>518.3333333333334</ele><time>2026-04-29T12:22:54Z</time></trkpt><trkpt lat="41.46027182121776" lon="19.86423634445147"><ele>517.6666666666667</ele><time>2026-04-29T12:22:55Z</time></trkpt><trkpt lat="41.46034505231246" lon="19.8642887750639"><ele>517.0</ele><time>2026-04-29T12:22:56Z</time></trkpt><trkpt lat="41.46042305640167" lon="19.8642968134593"><ele>518.0</ele><time>2026-04-29T12:22:57Z</time></trkpt><trkpt lat="41.46050056531744" lon="19.864325133994022"><ele>519.0</ele><time>2026-04-29T12:22:58Z</time></trkpt><trkpt lat="41.46056165923544" lon="19.864385895156687"><ele>520.0</ele><time>2026-04-29T12:22:59Z</time></trkpt><trkpt lat="41.46061779752859" lon="19.864457012884273"><ele>521.0</ele><time>2026-04-29T12:23:00Z</time></trkpt><trkpt lat="41.46068901114696" lon="19.864523427426395"><ele>522.0</ele><time>2026-04-29T12:23:01Z</time></trkpt><trkpt lat="41.46076647426994" lon="19.864545795811377"><ele>523.0</ele><time>2026-04-29T12:23:02Z</time></trkpt><trkpt lat="41.460830699609296" lon="19.864597717816046"><ele>523.0</ele><time>2026-04-29T12:23:03Z</time></trkpt><trkpt lat="41.46090341312653" lon="19.86465656544574"><ele>523.0</ele><time>2026-04-29T12:23:04Z</time></trkpt><trkpt lat="41.46097617375718" lon="19.86470866410155"><ele>523.0</ele><time>2026-04-29T12:23:05Z</time></trkpt><trkpt lat="41.46104684303791" lon="19.864766034435032"><ele>523.0</ele><time>2026-04-29T12:23:06Z</time></trkpt><trkpt lat="41.46110617348097" lon="19.864829163461923"><ele>523.0</ele><time>2026-04-29T12:23:07Z</time></trkpt><trkpt lat="41.46119540168282" lon="19.864934423489323"><ele>523.0</ele><time>2026-04-29T12:23:09Z</time></trkpt><trkpt lat="41.461258790724706" lon="19.864970725802188"><ele>524.8</ele><time>2026-04-29T12:23:10Z</time></trkpt><trkpt lat="41.46132434129248" lon="19.864982142527882"><ele>526.5999999999999</ele><time>2026-04-29T12:23:11Z</time></trkpt><trkpt lat="41.461405853420345" lon="19.86498270931954"><ele>528.4000000000001</ele><time>2026-04-29T12:23:12Z</time></trkpt><trkpt lat="41.46150948319431" lon="19.864986744150666"><ele>530.2</ele><time>2026-04-29T12:23:13Z</time></trkpt><trkpt lat="41.461618159779526" lon="19.86501877255196"><ele>532.0</ele><time>2026-04-29T12:23:14Z</time></trkpt><trkpt lat="41.461714119100016" lon="19.865059920769216"><ele>532.0</ele><time>2026-04-29T12:23:15Z</time></trkpt><trkpt lat="41.46179689203799" lon="19.865090215670147"><ele>532.0</ele><time>2026-04-29T12:23:16Z</time></trkpt><trkpt lat="41.46187205567377" lon="19.86511149628974"><ele>532.0</ele><time>2026-04-29T12:23:17Z</time></trkpt><trkpt lat="41.46195358577022" lon="19.865110852479937"><ele>532.0</ele><time>2026-04-29T12:23:18Z</time></trkpt><trkpt lat="41.46204172945962" lon="19.865086302234484"><ele>532.0</ele><time>2026-04-29T12:23:19Z</time></trkpt><trkpt lat="41.462112770945" lon="19.865058248632536"><ele>532.0</ele><time>2026-04-29T12:23:20Z</time></trkpt><trkpt lat="41.46217943141077" lon="19.86504510985987"><ele>532.5714285714286</ele><time>2026-04-29T12:23:21Z</time></trkpt><trkpt lat="41.46225839618574" lon="19.865055570917605"><ele>533.1428571428571</ele><time>2026-04-29T12:23:22Z</time></trkpt><trkpt lat="41.46234013137825" lon="19.865091878840534"><ele>533.7142857142858</ele><time>2026-04-29T12:23:23Z</time></trkpt><trkpt lat="41.46241961259057" lon="19.86509165725272"><ele>534.2857142857142</ele><time>2026-04-29T12:23:24Z</time></trkpt><trkpt lat="41.46248739861313" lon="19.865076909610263"><ele>534.8571428571429</ele><time>2026-04-29T12:23:25Z</time></trkpt><trkpt lat="41.46255233160679" lon="19.865077901882486"><ele>535.4285714285714</ele><time>2026-04-29T12:23:26Z</time></trkpt><trkpt lat="41.462614574573564" lon="19.86510899451594"><ele>536.0</ele><time>2026-04-29T12:23:27Z</time></trkpt><trkpt lat="41.462705907911236" lon="19.865155951870502"><ele>536.0</ele><time>2026-04-29T12:23:29Z</time></trkpt><trkpt lat="41.462816303784024" lon="19.865075007262185"><ele>536.0</ele><time>2026-04-29T12:23:31Z</time></trkpt><trkpt lat="41.46287390309781" lon="19.86498250636563"><ele>536.0</ele><time>2026-04-29T12:23:32Z</time></trkpt><trkpt lat="41.46291974488403" lon="19.86488793398102"><ele>536.0</ele><time>2026-04-29T12:23:33Z</time></trkpt><trkpt lat="41.46298194898775" lon="19.86480623814193"><ele>536.0</ele><time>2026-04-29T12:23:34Z</time></trkpt><trkpt lat="41.463065016958446" lon="19.86475313571657"><ele>532.4</ele><time>2026-04-29T12:23:35Z</time></trkpt><trkpt lat="41.46315657130324" lon="19.86469937614713"><ele>528.8</ele><time>2026-04-29T12:23:36Z</time></trkpt><trkpt lat="41.46325207926605" lon="19.864625370951092"><ele>525.1999999999999</ele><time>2026-04-29T12:23:37Z</time></trkpt><trkpt lat="41.46334226619644" lon="19.864542092294606"><ele>521.6</ele><time>2026-04-29T12:23:38Z</time></trkpt><trkpt lat="41.46341235298199" lon="19.86447361751281"><ele>518.0</ele><time>2026-04-29T12:23:39Z</time></trkpt><trkpt lat="41.46347745944375" lon="19.86443220627031"><ele>518.0</ele><time>2026-04-29T12:23:40Z</time></trkpt><trkpt lat="41.46353159242445" lon="19.864388613660825"><ele>518.0</ele><time>2026-04-29T12:23:41Z</time></trkpt><trkpt lat="41.46357119920836" lon="19.86430646378444"><ele>518.0</ele><time>2026-04-29T12:23:42Z</time></trkpt><trkpt lat="41.463596553376874" lon="19.8641967505284"><ele>518.0</ele><time>2026-04-29T12:23:43Z</time></trkpt><trkpt lat="41.46361810454478" lon="19.864089932043505"><ele>518.0</ele><time>2026-04-29T12:23:44Z</time></trkpt><trkpt lat="41.4636643338207" lon="19.86401244619765"><ele>518.0</ele><time>2026-04-29T12:23:45Z</time></trkpt><trkpt lat="41.46369125964537" lon="19.863914777238342"><ele>517.8</ele><time>2026-04-29T12:23:46Z</time></trkpt><trkpt lat="41.463741381022295" lon="19.863849057948244"><ele>517.5999999999999</ele><time>2026-04-29T12:23:47Z</time></trkpt><trkpt lat="41.46380638003003" lon="19.863781492377488"><ele>517.4000000000001</ele><time>2026-04-29T12:23:48Z</time></trkpt><trkpt lat="41.463894683890956" lon="19.863680886430004"><ele>517.2</ele><time>2026-04-29T12:23:49Z</time></trkpt><trkpt lat="41.46398120465278" lon="19.863590332902206"><ele>517.0</ele><time>2026-04-29T12:23:50Z</time></trkpt><trkpt lat="41.46406944799571" lon="19.863508228430394"><ele>520.0</ele><time>2026-04-29T12:23:51Z</time></trkpt><trkpt lat="41.46414234241406" lon="19.8634451705167"><ele>523.0</ele><time>2026-04-29T12:23:52Z</time></trkpt><trkpt lat="41.464221545832785" lon="19.86344579189902"><ele>526.0</ele><time>2026-04-29T12:23:53Z</time></trkpt><trkpt lat="41.464301140374815" lon="19.863410175922894"><ele>529.0</ele><time>2026-04-29T12:23:54Z</time></trkpt><trkpt lat="41.46437515592203" lon="19.863392639779793"><ele>532.0</ele><time>2026-04-29T12:23:55Z</time></trkpt><trkpt lat="41.464453297681494" lon="19.86326957707433"><ele>535.0</ele><time>2026-04-29T12:23:57Z</time></trkpt><trkpt lat="41.46446491537523" lon="19.863162094755182"><ele>535.0</ele><time>2026-04-29T12:23:58Z</time></trkpt><trkpt lat="41.46448550155084" lon="19.863030060149445"><ele>535.0</ele><time>2026-04-29T12:23:59Z</time></trkpt><trkpt lat="41.464557136387526" lon="19.862950346563373"><ele>535.0</ele><time>2026-04-29T12:24:00Z</time></trkpt><trkpt lat="41.46458806845904" lon="19.862863511563457"><ele>535.0</ele><time>2026-04-29T12:24:01Z</time></trkpt><trkpt lat="41.46461711695906" lon="19.862750163357024"><ele>535.0</ele><time>2026-04-29T12:24:02Z</time></trkpt><trkpt lat="41.46463063798028" lon="19.862620741195215"><ele>531.5</ele><time>2026-04-29T12:24:03Z</time></trkpt><trkpt lat="41.46465064514639" lon="19.862488470896327"><ele>528.0</ele><time>2026-04-29T12:24:04Z</time></trkpt><trkpt lat="41.464666915308456" lon="19.86238098017799"><ele>524.5</ele><time>2026-04-29T12:24:05Z</time></trkpt><trkpt lat="41.46470237909235" lon="19.862283803206903"><ele>521.0</ele><time>2026-04-29T12:24:06Z</time></trkpt><trkpt lat="41.46472544157593" lon="19.862172893053952"><ele>517.5</ele><time>2026-04-29T12:24:07Z</time></trkpt><trkpt lat="41.464766296578645" lon="19.862069816842542"><ele>514.0</ele><time>2026-04-29T12:24:08Z</time></trkpt><trkpt lat="41.46480810120785" lon="19.86197053074277"><ele>514.0</ele><time>2026-04-29T12:24:09Z</time></trkpt><trkpt lat="41.46487073407814" lon="19.86191213382309"><ele>514.0</ele><time>2026-04-29T12:24:10Z</time></trkpt><trkpt lat="41.464919407389324" lon="19.86184675281894"><ele>514.0</ele><time>2026-04-29T12:24:11Z</time></trkpt><trkpt lat="41.46501387896675" lon="19.861835794330226"><ele>514.0</ele><time>2026-04-29T12:24:12Z</time></trkpt><trkpt lat="41.46509679970171" lon="19.861788326317665"><ele>514.0</ele><time>2026-04-29T12:24:13Z</time></trkpt><trkpt lat="41.465167693070974" lon="19.861726714342137"><ele>514.0</ele><time>2026-04-29T12:24:14Z</time></trkpt><trkpt lat="41.46524025415364" lon="19.86166214898311"><ele>514.8</ele><time>2026-04-29T12:24:15Z</time></trkpt><trkpt lat="41.46530439322741" lon="19.86159099281243"><ele>515.5999999999999</ele><time>2026-04-29T12:24:16Z</time></trkpt><trkpt lat="41.46534928774463" lon="19.861490190821364"><ele>516.4</ele><time>2026-04-29T12:24:17Z</time></trkpt><trkpt lat="41.46542622302331" lon="19.861421414503063"><ele>517.1999999999999</ele><time>2026-04-29T12:24:18Z</time></trkpt><trkpt lat="41.465493741992056" lon="19.86139124672901"><ele>518.0</ele><time>2026-04-29T12:24:19Z</time></trkpt><trkpt lat="41.46563493358591" lon="19.861383507868155"><ele>518.0</ele><time>2026-04-29T12:24:21Z</time></trkpt><trkpt lat="41.46570096516142" lon="19.861388739103"><ele>518.0</ele><time>2026-04-29T12:24:22Z</time></trkpt><trkpt lat="41.46578808091156" lon="19.861325913619737"><ele>518.0</ele><time>2026-04-29T12:24:24Z</time></trkpt><trkpt lat="41.46586509790461" lon="19.861164913598664"><ele>518.0</ele><time>2026-04-29T12:24:26Z</time></trkpt><trkpt lat="41.465916653225" lon="19.86111290684396"><ele>518.0</ele><time>2026-04-29T12:24:27Z</time></trkpt><trkpt lat="41.465986220120776" lon="19.861068538110416"><ele>518.0</ele><time>2026-04-29T12:24:28Z</time></trkpt><trkpt lat="41.46607794971701" lon="19.861005897714875"><ele>518.0</ele><time>2026-04-29T12:24:29Z</time></trkpt><trkpt lat="41.46615144441685" lon="19.86095189663358"><ele>518.0</ele><time>2026-04-29T12:24:30Z</time></trkpt><trkpt lat="41.466227305364484" lon="19.86092577810019"><ele>518.0</ele><time>2026-04-29T12:24:31Z</time></trkpt><trkpt lat="41.46631394423321" lon="19.860894042079423"><ele>518.0</ele><time>2026-04-29T12:24:32Z</time></trkpt><trkpt lat="41.46640354583952" lon="19.860856647027145"><ele>518.0</ele><time>2026-04-29T12:24:33Z</time></trkpt><trkpt lat="41.46648970062531" lon="19.860820601062937"><ele>520.8</ele><time>2026-04-29T12:24:34Z</time></trkpt><trkpt lat="41.46655237600439" lon="19.8607943785253"><ele>523.5999999999999</ele><time>2026-04-29T12:24:35Z</time></trkpt><trkpt lat="41.46663061776163" lon="19.860747584381198"><ele>526.4000000000001</ele><time>2026-04-29T12:24:36Z</time></trkpt><trkpt lat="41.46668296716381" lon="19.860698233493284"><ele>529.2</ele><time>2026-04-29T12:24:37Z</time></trkpt><trkpt lat="41.46687605398675" lon="19.86076549001318"><ele>532.0</ele><time>2026-04-29T12:24:39Z</time></trkpt><trkpt lat="41.4669627264222" lon="19.86045308215669"><ele>532.0</ele><time>2026-04-29T12:24:41Z</time></trkpt><trkpt lat="41.46702995213308" lon="19.860361070431917"><ele>532.0</ele><time>2026-04-29T12:24:42Z</time></trkpt><trkpt lat="41.46708950184296" lon="19.860256030284713"><ele>532.0</ele><time>2026-04-29T12:24:43Z</time></trkpt><trkpt lat="41.467169789679154" lon="19.86016178001476"><ele>532.0</ele><time>2026-04-29T12:24:44Z</time></trkpt><trkpt lat="41.46724584925071" lon="19.860072519384595"><ele>532.0</ele><time>2026-04-29T12:24:45Z</time></trkpt><trkpt lat="41.467318523958504" lon="19.860015628405172"><ele>532.0</ele><time>2026-04-29T12:24:46Z</time></trkpt><trkpt lat="41.46738159808728" lon="19.859975289065016"><ele>532.0</ele><time>2026-04-29T12:24:47Z</time></trkpt><trkpt lat="41.46743116248839" lon="19.859915156560128"><ele>532.0</ele><time>2026-04-29T12:24:48Z</time></trkpt><trkpt lat="41.467465868817634" lon="19.85984196271605"><ele>532.0</ele><time>2026-04-29T12:24:49Z</time></trkpt><trkpt lat="41.46752896418107" lon="19.85973257886495"><ele>532.0</ele><time>2026-04-29T12:24:50Z</time></trkpt><trkpt lat="41.46759981034153" lon="19.859618154077253"><ele>532.0</ele><time>2026-04-29T12:24:51Z</time></trkpt><trkpt lat="41.46768312672594" lon="19.85953594810227"><ele>532.0</ele><time>2026-04-29T12:24:52Z</time></trkpt><trkpt lat="41.46777062028942" lon="19.859470980377743"><ele>532.0</ele><time>2026-04-29T12:24:53Z</time></trkpt><trkpt lat="41.467851108773225" lon="19.859416811520372"><ele>532.0</ele><time>2026-04-29T12:24:54Z</time></trkpt><trkpt lat="41.46790532883868" lon="19.859356970491557"><ele>532.0</ele><time>2026-04-29T12:24:55Z</time></trkpt><trkpt lat="41.46795411993466" lon="19.85928271716714"><ele>532.0</ele><time>2026-04-29T12:24:56Z</time></trkpt><trkpt lat="41.46798987641682" lon="19.859210924617845"><ele>532.0</ele><time>2026-04-29T12:24:57Z</time></trkpt><trkpt lat="41.46802199875965" lon="19.85912642224378"><ele>532.0</ele><time>2026-04-29T12:24:58Z</time></trkpt><trkpt lat="41.46806287203826" lon="19.8590279929257"><ele>532.0</ele><time>2026-04-29T12:24:59Z</time></trkpt><trkpt lat="41.46812110907308" lon="19.858919770521574"><ele>532.0</ele><time>2026-04-29T12:25:00Z</time></trkpt><trkpt lat="41.46818520607243" lon="19.85884135646592"><ele>532.0</ele><time>2026-04-29T12:25:01Z</time></trkpt><trkpt lat="41.46824122274977" lon="19.858769729904203"><ele>532.0</ele><time>2026-04-29T12:25:02Z</time></trkpt><trkpt lat="41.468296821399775" lon="19.858681923659123"><ele>532.0</ele><time>2026-04-29T12:25:03Z</time></trkpt><trkpt lat="41.468345933502356" lon="19.858596635805796"><ele>532.0</ele><time>2026-04-29T12:25:04Z</time></trkpt><trkpt lat="41.468387939452406" lon="19.858506576865523"><ele>532.0</ele><time>2026-04-29T12:25:05Z</time></trkpt><trkpt lat="41.46841537554617" lon="19.858413496515592"><ele>532.0</ele><time>2026-04-29T12:25:06Z</time></trkpt><trkpt lat="41.468428459831365" lon="19.858323347736643"><ele>532.0</ele><time>2026-04-29T12:25:07Z</time></trkpt><trkpt lat="41.46843321617906" lon="19.858222146410913"><ele>532.0</ele><time>2026-04-29T12:25:08Z</time></trkpt><trkpt lat="41.46844775520101" lon="19.85810367176789"><ele>532.0</ele><time>2026-04-29T12:25:09Z</time></trkpt><trkpt lat="41.46847643138938" lon="19.858000096686308"><ele>535.0</ele><time>2026-04-29T12:25:10Z</time></trkpt><trkpt lat="41.46855018454407" lon="19.85787457625124"><ele>538.0</ele><time>2026-04-29T12:25:12Z</time></trkpt><trkpt lat="41.46861921860457" lon="19.857796482706995"><ele>541.0</ele><time>2026-04-29T12:25:13Z</time></trkpt><trkpt lat="41.46868843526579" lon="19.857736720590783"><ele>544.0</ele><time>2026-04-29T12:25:14Z</time></trkpt><trkpt lat="41.46875898161274" lon="19.857682902293725"><ele>547.0</ele><time>2026-04-29T12:25:15Z</time></trkpt><trkpt lat="41.46887271486502" lon="19.857653721601697"><ele>547.0</ele><time>2026-04-29T12:25:17Z</time></trkpt><trkpt lat="41.46893573560685" lon="19.85767094859059"><ele>547.0</ele><time>2026-04-29T12:25:18Z</time></trkpt><trkpt lat="41.468999195415876" lon="19.85770716890868"><ele>547.0</ele><time>2026-04-29T12:25:19Z</time></trkpt><trkpt lat="41.46906361394487" lon="19.85785588917849"><ele>547.0</ele><time>2026-04-29T12:25:21Z</time></trkpt><trkpt lat="41.469179848738385" lon="19.857908251225318"><ele>547.0</ele><time>2026-04-29T12:25:23Z</time></trkpt><trkpt lat="41.4692557443607" lon="19.85788106582865"><ele>547.0</ele><time>2026-04-29T12:25:24Z</time></trkpt><trkpt lat="41.469346972866084" lon="19.85784486715848"><ele>547.0</ele><time>2026-04-29T12:25:25Z</time></trkpt><trkpt lat="41.469442384729895" lon="19.85782378215717"><ele>547.0</ele><time>2026-04-29T12:25:26Z</time></trkpt><trkpt lat="41.46951557474941" lon="19.85783805002033"><ele>547.0</ele><time>2026-04-29T12:25:27Z</time></trkpt><trkpt lat="41.46958135277212" lon="19.857879783087235"><ele>547.0</ele><time>2026-04-29T12:25:28Z</time></trkpt><trkpt lat="41.469658292904555" lon="19.857931026728235"><ele>547.0</ele><time>2026-04-29T12:25:29Z</time></trkpt><trkpt lat="41.469737118310675" lon="19.857968774181586"><ele>548.8000000000001</ele><time>2026-04-29T12:25:30Z</time></trkpt><trkpt lat="41.46981281001242" lon="19.8579872983456"><ele>550.6</ele><time>2026-04-29T12:25:31Z</time></trkpt><trkpt lat="41.46989591138368" lon="19.857921356340967"><ele>552.4000000000001</ele><time>2026-04-29T12:25:33Z</time></trkpt><trkpt lat="41.46999803054298" lon="19.857802250667614"><ele>554.2</ele><time>2026-04-29T12:25:35Z</time></trkpt><trkpt lat="41.470077456505535" lon="19.857754128115687"><ele>556.0</ele><time>2026-04-29T12:25:36Z</time></trkpt><trkpt lat="41.47015371833835" lon="19.8577225430273"><ele>556.0</ele><time>2026-04-29T12:25:37Z</time></trkpt><trkpt lat="41.47024190039374" lon="19.857684164447612"><ele>556.0</ele><time>2026-04-29T12:25:38Z</time></trkpt><trkpt lat="41.47032961422086" lon="19.857645126359603"><ele>556.0</ele><time>2026-04-29T12:25:39Z</time></trkpt><trkpt lat="41.47041982558736" lon="19.8576210125612"><ele>556.0</ele><time>2026-04-29T12:25:40Z</time></trkpt><trkpt lat="41.47052235388215" lon="19.85760437608043"><ele>556.0</ele><time>2026-04-29T12:25:41Z</time></trkpt><trkpt lat="41.47060326888277" lon="19.857583600775317"><ele>561.0</ele><time>2026-04-29T12:25:42Z</time></trkpt><trkpt lat="41.47069880144047" lon="19.857473241157233"><ele>566.0</ele><time>2026-04-29T12:25:44Z</time></trkpt><trkpt lat="41.47072535096125" lon="19.8573789758527"><ele>571.0</ele><time>2026-04-29T12:25:45Z</time></trkpt><trkpt lat="41.47077382632295" lon="19.857265217839544"><ele>576.0</ele><time>2026-04-29T12:25:46Z</time></trkpt><trkpt lat="41.47084365183341" lon="19.857157245543302"><ele>581.0</ele><time>2026-04-29T12:25:47Z</time></trkpt><trkpt lat="41.47094225083054" lon="19.85710638594633"><ele>581.0</ele><time>2026-04-29T12:25:48Z</time></trkpt><trkpt lat="41.471016219166" lon="19.857038051583388"><ele>581.0</ele><time>2026-04-29T12:25:49Z</time></trkpt><trkpt lat="41.471100904785295" lon="19.856929170469623"><ele>581.0</ele><time>2026-04-29T12:25:50Z</time></trkpt><trkpt lat="41.47119054858057" lon="19.85682750948921"><ele>581.0</ele><time>2026-04-29T12:25:51Z</time></trkpt><trkpt lat="41.471246289426595" lon="19.856718794572583"><ele>581.0</ele><time>2026-04-29T12:25:52Z</time></trkpt><trkpt lat="41.47129732573476" lon="19.856611974212658"><ele>582.0</ele><time>2026-04-29T12:25:53Z</time></trkpt><trkpt lat="41.47137281445627" lon="19.85650420608751"><ele>583.0</ele><time>2026-04-29T12:25:54Z</time></trkpt><trkpt lat="41.47144695924811" lon="19.856419929697232"><ele>584.0</ele><time>2026-04-29T12:25:55Z</time></trkpt><trkpt lat="41.471522143420835" lon="19.8563245127824"><ele>585.0</ele><time>2026-04-29T12:25:56Z</time></trkpt><trkpt lat="41.47159515715915" lon="19.856240303317833"><ele>586.0</ele><time>2026-04-29T12:25:57Z</time></trkpt><trkpt lat="41.47165676013276" lon="19.85615974018764"><ele>586.0</ele><time>2026-04-29T12:25:58Z</time></trkpt><trkpt lat="41.47172092934385" lon="19.85606987017056"><ele>586.0</ele><time>2026-04-29T12:25:59Z</time></trkpt><trkpt lat="41.471768011796485" lon="19.85598798581425"><ele>586.0</ele><time>2026-04-29T12:26:00Z</time></trkpt><trkpt lat="41.47180749968913" lon="19.85589490997063"><ele>586.0</ele><time>2026-04-29T12:26:01Z</time></trkpt><trkpt lat="41.47185294466923" lon="19.85580837657951"><ele>586.0</ele><time>2026-04-29T12:26:02Z</time></trkpt><trkpt lat="41.471903222658625" lon="19.855755629722267"><ele>586.0</ele><time>2026-04-29T12:26:03Z</time></trkpt><trkpt lat="41.47196547152244" lon="19.855735910484405"><ele>586.0</ele><time>2026-04-29T12:26:04Z</time></trkpt><trkpt lat="41.4720338417384" lon="19.855741535583945"><ele>586.0</ele><time>2026-04-29T12:26:05Z</time></trkpt><trkpt lat="41.472121173894465" lon="19.855768137750857"><ele>586.0</ele><time>2026-04-29T12:26:06Z</time></trkpt><trkpt lat="41.47222894589509" lon="19.85581584446993"><ele>586.0</ele><time>2026-04-29T12:26:07Z</time></trkpt><trkpt lat="41.4723231144612" lon="19.85585317436608"><ele>586.0</ele><time>2026-04-29T12:26:08Z</time></trkpt><trkpt lat="41.47239217577935" lon="19.85585869084604"><ele>586.0</ele><time>2026-04-29T12:26:09Z</time></trkpt><trkpt lat="41.47250177620924" lon="19.855770844287882"><ele>586.0</ele><time>2026-04-29T12:26:11Z</time></trkpt><trkpt lat="41.47259682816768" lon="19.85570000677527"><ele>586.0</ele><time>2026-04-29T12:26:12Z</time></trkpt><trkpt lat="41.47269450306205" lon="19.855631441443634"><ele>586.0</ele><time>2026-04-29T12:26:13Z</time></trkpt><trkpt lat="41.47278268034733" lon="19.855590988918305"><ele>586.0</ele><time>2026-04-29T12:26:14Z</time></trkpt><trkpt lat="41.472874515738766" lon="19.855604714598982"><ele>586.0</ele><time>2026-04-29T12:26:15Z</time></trkpt><trkpt lat="41.47296963732489" lon="19.85560366871725"><ele>586.3333333333334</ele><time>2026-04-29T12:26:16Z</time></trkpt><trkpt lat="41.47305986519508" lon="19.855651837620552"><ele>586.6666666666667</ele><time>2026-04-29T12:26:17Z</time></trkpt><trkpt lat="41.47314347353599" lon="19.855694984474574"><ele>587.0</ele><time>2026-04-29T12:26:18Z</time></trkpt><trkpt lat="41.47322094654706" lon="19.855703891363955"><ele>587.3333333333334</ele><time>2026-04-29T12:26:19Z</time></trkpt><trkpt lat="41.47328923924414" lon="19.855678350372358"><ele>587.6666666666666</ele><time>2026-04-29T12:26:20Z</time></trkpt><trkpt lat="41.47338347760684" lon="19.855632395415746"><ele>588.0</ele><time>2026-04-29T12:26:21Z</time></trkpt><trkpt lat="41.473471102519234" lon="19.855608639769905"><ele>588.0</ele><time>2026-04-29T12:26:22Z</time></trkpt><trkpt lat="41.47358295835231" lon="19.855621763593614"><ele>588.0</ele><time>2026-04-29T12:26:23Z</time></trkpt><trkpt lat="41.47370377541355" lon="19.85563063313291"><ele>588.0</ele><time>2026-04-29T12:26:24Z</time></trkpt><trkpt lat="41.47382071409773" lon="19.855605219317045"><ele>588.0</ele><time>2026-04-29T12:26:25Z</time></trkpt><trkpt lat="41.47391755877911" lon="19.855560149948467"><ele>587.5</ele><time>2026-04-29T12:26:26Z</time></trkpt><trkpt lat="41.474011728629634" lon="19.855499445593146"><ele>587.0</ele><time>2026-04-29T12:26:27Z</time></trkpt><trkpt lat="41.47408712639112" lon="19.85542644078553"><ele>586.5</ele><time>2026-04-29T12:26:28Z</time></trkpt><trkpt lat="41.47413786777757" lon="19.8553626827025"><ele>586.0</ele><time>2026-04-29T12:26:29Z</time></trkpt><trkpt lat="41.474188114102944" lon="19.855287682942357"><ele>585.5</ele><time>2026-04-29T12:26:30Z</time></trkpt><trkpt lat="41.47424029244316" lon="19.85518019162578"><ele>585.0</ele><time>2026-04-29T12:26:31Z</time></trkpt><trkpt lat="41.47430293307448" lon="19.855058203016952"><ele>585.8333333333334</ele><time>2026-04-29T12:26:32Z</time></trkpt><trkpt lat="41.474353303237294" lon="19.854970816588672"><ele>586.6666666666666</ele><time>2026-04-29T12:26:33Z</time></trkpt><trkpt lat="41.47441456321921" lon="19.854880402249414"><ele>587.5</ele><time>2026-04-29T12:26:34Z</time></trkpt><trkpt lat="41.47447839331915" lon="19.85480853973442"><ele>588.3333333333333</ele><time>2026-04-29T12:26:35Z</time></trkpt><trkpt lat="41.474543312739215" lon="19.85472468455536"><ele>589.1666666666666</ele><time>2026-04-29T12:26:36Z</time></trkpt><trkpt lat="41.47460610052894" lon="19.854621929834558"><ele>590.0</ele><time>2026-04-29T12:26:37Z</time></trkpt><trkpt lat="41.474677311792206" lon="19.85451427217311"><ele>590.0</ele><time>2026-04-29T12:26:38Z</time></trkpt><trkpt lat="41.474736168762" lon="19.85444872024207"><ele>590.0</ele><time>2026-04-29T12:26:39Z</time></trkpt><trkpt lat="41.47479640570229" lon="19.854372840259288"><ele>590.0</ele><time>2026-04-29T12:26:40Z</time></trkpt><trkpt lat="41.47484042465546" lon="19.85427787310056"><ele>590.0</ele><time>2026-04-29T12:26:41Z</time></trkpt><trkpt lat="41.47487846334747" lon="19.854175207375935"><ele>590.0</ele><time>2026-04-29T12:26:42Z</time></trkpt><trkpt lat="41.47489958557653" lon="19.854071544553115"><ele>590.0</ele><time>2026-04-29T12:26:43Z</time></trkpt><trkpt lat="41.474927523499744" lon="19.85397011954824"><ele>592.2</ele><time>2026-04-29T12:26:44Z</time></trkpt><trkpt lat="41.4749685844557" lon="19.853860123002015"><ele>594.4</ele><time>2026-04-29T12:26:45Z</time></trkpt><trkpt lat="41.475017105176704" lon="19.85376438876619"><ele>596.6</ele><time>2026-04-29T12:26:46Z</time></trkpt><trkpt lat="41.47506967941228" lon="19.85369077922801"><ele>598.8</ele><time>2026-04-29T12:26:47Z</time></trkpt><trkpt lat="41.47513354614178" lon="19.853651391797"><ele>601.0</ele><time>2026-04-29T12:26:48Z</time></trkpt><trkpt lat="41.47526658150301" lon="19.853612277269153"><ele>601.0</ele><time>2026-04-29T12:26:50Z</time></trkpt><trkpt lat="41.47534216529787" lon="19.853638524476615"><ele>601.0</ele><time>2026-04-29T12:26:51Z</time></trkpt><trkpt lat="41.47545804619862" lon="19.853626606968707"><ele>601.0</ele><time>2026-04-29T12:26:53Z</time></trkpt><trkpt lat="41.47554261680415" lon="19.853568327786682"><ele>601.0</ele><time>2026-04-29T12:26:55Z</time></trkpt><trkpt lat="41.475603699530204" lon="19.853547207455094"><ele>601.0</ele><time>2026-04-29T12:26:56Z</time></trkpt><trkpt lat="41.475647719560925" lon="19.853459778592526"><ele>601.0</ele><time>2026-04-29T12:26:57Z</time></trkpt><trkpt lat="41.47569407895059" lon="19.85338087518481"><ele>600.1666666666667</ele><time>2026-04-29T12:26:58Z</time></trkpt><trkpt lat="41.47573898950902" lon="19.853307376484388"><ele>599.3333333333334</ele><time>2026-04-29T12:26:59Z</time></trkpt><trkpt lat="41.47578711390703" lon="19.853230239329523"><ele>598.5</ele><time>2026-04-29T12:27:00Z</time></trkpt><trkpt lat="41.47584102176297" lon="19.85312422574685"><ele>597.6666666666666</ele><time>2026-04-29T12:27:01Z</time></trkpt><trkpt lat="41.47589121621997" lon="19.853010816618262"><ele>596.8333333333333</ele><time>2026-04-29T12:27:02Z</time></trkpt><trkpt lat="41.47592480198222" lon="19.852916635305547"><ele>596.0</ele><time>2026-04-29T12:27:03Z</time></trkpt><trkpt lat="41.47595135167654" lon="19.852821392819823"><ele>596.0</ele><time>2026-04-29T12:27:04Z</time></trkpt><trkpt lat="41.475986268700986" lon="19.852709635698293"><ele>596.0</ele><time>2026-04-29T12:27:05Z</time></trkpt><trkpt lat="41.47605107413101" lon="19.852597578696678"><ele>596.0</ele><time>2026-04-29T12:27:06Z</time></trkpt><trkpt lat="41.476102512464585" lon="19.852466717658285"><ele>596.0</ele><time>2026-04-29T12:27:07Z</time></trkpt><trkpt lat="41.476142185718395" lon="19.85236773113166"><ele>596.0</ele><time>2026-04-29T12:27:08Z</time></trkpt><trkpt lat="41.47617109110262" lon="19.85225749442228"><ele>594.1666666666666</ele><time>2026-04-29T12:27:09Z</time></trkpt><trkpt lat="41.47622892657584" lon="19.85216902399956"><ele>592.3333333333333</ele><time>2026-04-29T12:27:10Z</time></trkpt><trkpt lat="41.476270816305096" lon="19.85207936039515"><ele>590.5</ele><time>2026-04-29T12:27:11Z</time></trkpt><trkpt lat="41.47633739465886" lon="19.852025553164292"><ele>588.6666666666666</ele><time>2026-04-29T12:27:12Z</time></trkpt><trkpt lat="41.476418801010155" lon="19.851969669995995"><ele>586.8333333333334</ele><time>2026-04-29T12:27:13Z</time></trkpt><trkpt lat="41.476504900549806" lon="19.851910854127595"><ele>585.0</ele><time>2026-04-29T12:27:14Z</time></trkpt><trkpt lat="41.476591038884685" lon="19.851856372862926"><ele>585.0</ele><time>2026-04-29T12:27:15Z</time></trkpt><trkpt lat="41.47667283015646" lon="19.851791342233646"><ele>585.0</ele><time>2026-04-29T12:27:16Z</time></trkpt><trkpt lat="41.47674456714815" lon="19.85172055576864"><ele>585.0</ele><time>2026-04-29T12:27:17Z</time></trkpt><trkpt lat="41.47683278362503" lon="19.851654939470812"><ele>585.0</ele><time>2026-04-29T12:27:18Z</time></trkpt><trkpt lat="41.47691577382908" lon="19.85161296221108"><ele>585.0</ele><time>2026-04-29T12:27:19Z</time></trkpt><trkpt lat="41.47698969137307" lon="19.85153853537398"><ele>586.6666666666666</ele><time>2026-04-29T12:27:21Z</time></trkpt><trkpt lat="41.47701679588016" lon="19.85141951249518"><ele>588.3333333333334</ele><time>2026-04-29T12:27:23Z</time></trkpt><trkpt lat="41.47701604665945" lon="19.851313197084608"><ele>590.0</ele><time>2026-04-29T12:27:25Z</time></trkpt><trkpt lat="41.477083833496415" lon="19.85119860536174"><ele>591.6666666666667</ele><time>2026-04-29T12:27:27Z</time></trkpt><trkpt lat="41.477131235626096" lon="19.851142506715245"><ele>593.3333333333334</ele><time>2026-04-29T12:27:28Z</time></trkpt><trkpt lat="41.47718709585982" lon="19.851082313784904"><ele>595.0</ele><time>2026-04-29T12:27:29Z</time></trkpt><trkpt lat="41.47724524714055" lon="19.851024202624078"><ele>599.6666666666667</ele><time>2026-04-29T12:27:30Z</time></trkpt><trkpt lat="41.477312330248104" lon="19.850957012502988"><ele>604.3333333333334</ele><time>2026-04-29T12:27:31Z</time></trkpt><trkpt lat="41.47738331008605" lon="19.850880050649174"><ele>609.0</ele><time>2026-04-29T12:27:32Z</time></trkpt><trkpt lat="41.477445885157856" lon="19.850818827050134"><ele>613.6666666666666</ele><time>2026-04-29T12:27:33Z</time></trkpt><trkpt lat="41.47750119767218" lon="19.850753192670794"><ele>618.3333333333333</ele><time>2026-04-29T12:27:34Z</time></trkpt><trkpt lat="41.477573172437715" lon="19.85069769990656"><ele>623.0</ele><time>2026-04-29T12:27:35Z</time></trkpt><trkpt lat="41.477641896304476" lon="19.850716000549145"><ele>623.0</ele><time>2026-04-29T12:27:36Z</time></trkpt><trkpt lat="41.47770991528537" lon="19.85070274107278"><ele>623.0</ele><time>2026-04-29T12:27:37Z</time></trkpt><trkpt lat="41.47779061981018" lon="19.850764877635225"><ele>623.0</ele><time>2026-04-29T12:27:38Z</time></trkpt><trkpt lat="41.477852250009285" lon="19.85080076956072"><ele>623.0</ele><time>2026-04-29T12:27:39Z</time></trkpt><trkpt lat="41.47795692200068" lon="19.85088518229363"><ele>623.0</ele><time>2026-04-29T12:27:41Z</time></trkpt><trkpt lat="41.47800809469378" lon="19.850939140909055"><ele>623.0</ele><time>2026-04-29T12:27:42Z</time></trkpt><trkpt lat="41.478096826975516" lon="19.85101217187657"><ele>619.6666666666666</ele><time>2026-04-29T12:27:43Z</time></trkpt><trkpt lat="41.47817148546453" lon="19.851124791731184"><ele>616.3333333333333</ele><time>2026-04-29T12:27:44Z</time></trkpt><trkpt lat="41.478244674821404" lon="19.85120742512719"><ele>613.0</ele><time>2026-04-29T12:27:45Z</time></trkpt><trkpt lat="41.478293996455676" lon="19.851308228643195"><ele>609.6666666666666</ele><time>2026-04-29T12:27:46Z</time></trkpt><trkpt lat="41.47834009254725" lon="19.851396092863435"><ele>606.3333333333334</ele><time>2026-04-29T12:27:47Z</time></trkpt><trkpt lat="41.478386450070296" lon="19.851466231550212"><ele>603.0</ele><time>2026-04-29T12:27:48Z</time></trkpt><trkpt lat="41.478440618611366" lon="19.851517645368357"><ele>603.0</ele><time>2026-04-29T12:27:49Z</time></trkpt><trkpt lat="41.478490412636795" lon="19.851571014143556"><ele>603.0</ele><time>2026-04-29T12:27:50Z</time></trkpt><trkpt lat="41.47860622803047" lon="19.851604919295262"><ele>603.0</ele><time>2026-04-29T12:27:52Z</time></trkpt><trkpt lat="41.478651300657965" lon="19.85152290134973"><ele>603.0</ele><time>2026-04-29T12:27:53Z</time></trkpt><trkpt lat="41.47866513739364" lon="19.851334036710387"><ele>603.0</ele><time>2026-04-29T12:27:55Z</time></trkpt><trkpt lat="41.47867511989715" lon="19.85120084439046"><ele>603.0</ele><time>2026-04-29T12:27:56Z</time></trkpt><trkpt lat="41.47867776744302" lon="19.851068078377033"><ele>603.0</ele><time>2026-04-29T12:27:57Z</time></trkpt><trkpt lat="41.47867593523741" lon="19.850974584920202"><ele>603.0</ele><time>2026-04-29T12:27:58Z</time></trkpt><trkpt lat="41.47875131801427" lon="19.850859955134457"><ele>603.0</ele><time>2026-04-29T12:28:00Z</time></trkpt><trkpt lat="41.47881456221963" lon="19.850827217044124"><ele>603.0</ele><time>2026-04-29T12:28:01Z</time></trkpt><trkpt lat="41.478908342842885" lon="19.850822262427766"><ele>603.0</ele><time>2026-04-29T12:28:02Z</time></trkpt><trkpt lat="41.47898179029748" lon="19.85070663397544"><ele>608.4</ele><time>2026-04-29T12:28:03Z</time></trkpt><trkpt lat="41.479042870639255" lon="19.850626750060577"><ele>613.8</ele><time>2026-04-29T12:28:04Z</time></trkpt><trkpt lat="41.47912867373062" lon="19.85059315827879"><ele>619.2</ele><time>2026-04-29T12:28:06Z</time></trkpt><trkpt lat="41.479251098550165" lon="19.850648922619147"><ele>624.6</ele><time>2026-04-29T12:28:08Z</time></trkpt><trkpt lat="41.47933678942153" lon="19.850686654773867"><ele>630.0</ele><time>2026-04-29T12:28:09Z</time></trkpt><trkpt lat="41.479421252156705" lon="19.850690109861613"><ele>630.0</ele><time>2026-04-29T12:28:10Z</time></trkpt><trkpt lat="41.47950752644822" lon="19.850663235654146"><ele>630.0</ele><time>2026-04-29T12:28:11Z</time></trkpt><trkpt lat="41.47960334026655" lon="19.850615999243317"><ele>630.0</ele><time>2026-04-29T12:28:12Z</time></trkpt><trkpt lat="41.47966261695305" lon="19.85056032656569"><ele>630.0</ele><time>2026-04-29T12:28:13Z</time></trkpt><trkpt lat="41.47975487286209" lon="19.850503568295533"><ele>630.0</ele><time>2026-04-29T12:28:15Z</time></trkpt><trkpt lat="41.47980024402024" lon="19.85042299810361"><ele>630.0</ele><time>2026-04-29T12:28:16Z</time></trkpt><trkpt lat="41.479828207787904" lon="19.850331330653944"><ele>628.1666666666666</ele><time>2026-04-29T12:28:17Z</time></trkpt><trkpt lat="41.47984199507137" lon="19.85023609943264"><ele>626.3333333333334</ele><time>2026-04-29T12:28:18Z</time></trkpt><trkpt lat="41.47991066585847" lon="19.850138615393696"><ele>624.5</ele><time>2026-04-29T12:28:20Z</time></trkpt><trkpt lat="41.47999126896748" lon="19.850245825159632"><ele>622.6666666666667</ele><time>2026-04-29T12:28:22Z</time></trkpt><trkpt lat="41.48006130866059" lon="19.850283868822718"><ele>620.8333333333334</ele><time>2026-04-29T12:28:23Z</time></trkpt><trkpt lat="41.48014098978516" lon="19.850306428287404"><ele>619.0</ele><time>2026-04-29T12:28:24Z</time></trkpt><trkpt lat="41.48021951971647" lon="19.850324001821363"><ele>619.0</ele><time>2026-04-29T12:28:25Z</time></trkpt><trkpt lat="41.48029345229273" lon="19.850350023498272"><ele>619.0</ele><time>2026-04-29T12:28:26Z</time></trkpt><trkpt lat="41.4803635383169" lon="19.850329732726237"><ele>619.0</ele><time>2026-04-29T12:28:27Z</time></trkpt><trkpt lat="41.48043455068042" lon="19.850290976878064"><ele>619.0</ele><time>2026-04-29T12:28:28Z</time></trkpt><trkpt lat="41.48052052427209" lon="19.850256169110803"><ele>619.0</ele><time>2026-04-29T12:28:29Z</time></trkpt><trkpt lat="41.48058768065578" lon="19.850309029496923"><ele>619.0</ele><time>2026-04-29T12:28:30Z</time></trkpt><trkpt lat="41.48065657494548" lon="19.85031011444552"><ele>617.2</ele><time>2026-04-29T12:28:31Z</time></trkpt><trkpt lat="41.48074454004699" lon="19.850270763816354"><ele>615.4</ele><time>2026-04-29T12:28:33Z</time></trkpt><trkpt lat="41.48080003357211" lon="19.850206425365872"><ele>613.6</ele><time>2026-04-29T12:28:34Z</time></trkpt><trkpt lat="41.480863286044936" lon="19.85011509994488"><ele>611.8</ele><time>2026-04-29T12:28:35Z</time></trkpt><trkpt lat="41.480936036417845" lon="19.85002782052172"><ele>610.0</ele><time>2026-04-29T12:28:36Z</time></trkpt><trkpt lat="41.481028982669514" lon="19.84995000840138"><ele>611.4</ele><time>2026-04-29T12:28:37Z</time></trkpt><trkpt lat="41.48112420885527" lon="19.849884936843683"><ele>612.8</ele><time>2026-04-29T12:28:38Z</time></trkpt><trkpt lat="41.48122946104773" lon="19.84983134115598"><ele>614.2</ele><time>2026-04-29T12:28:39Z</time></trkpt><trkpt lat="41.48133291299756" lon="19.84978881383809"><ele>615.6</ele><time>2026-04-29T12:28:40Z</time></trkpt><trkpt lat="41.48142547111445" lon="19.849746900584073"><ele>617.0</ele><time>2026-04-29T12:28:41Z</time></trkpt><trkpt lat="41.481528740174866" lon="19.84969825192259"><ele>617.0</ele><time>2026-04-29T12:28:42Z</time></trkpt><trkpt lat="41.48161615866087" lon="19.84965854540944"><ele>617.0</ele><time>2026-04-29T12:28:43Z</time></trkpt><trkpt lat="41.48167949750189" lon="19.849626054309766"><ele>617.0</ele><time>2026-04-29T12:28:44Z</time></trkpt><trkpt lat="41.48173173104636" lon="19.84957218954194"><ele>617.0</ele><time>2026-04-29T12:28:45Z</time></trkpt><trkpt lat="41.48177746647144" lon="19.849482725309862"><ele>617.0</ele><time>2026-04-29T12:28:46Z</time></trkpt><trkpt lat="41.481817185870575" lon="19.84936465216813"><ele>617.0</ele><time>2026-04-29T12:28:47Z</time></trkpt><trkpt lat="41.48186363799362" lon="19.84923869346075"><ele>618.4</ele><time>2026-04-29T12:28:48Z</time></trkpt><trkpt lat="41.48189027377391" lon="19.849146637057558"><ele>619.8000000000001</ele><time>2026-04-29T12:28:49Z</time></trkpt><trkpt lat="41.48193507438224" lon="19.849010426541877"><ele>621.2</ele><time>2026-04-29T12:28:51Z</time></trkpt><trkpt lat="41.4820247116175" lon="19.848978775885843"><ele>622.6</ele><time>2026-04-29T12:28:53Z</time></trkpt><trkpt lat="41.48211582006732" lon="19.84891876553015"><ele>624.0</ele><time>2026-04-29T12:28:54Z</time></trkpt><trkpt lat="41.48221989558372" lon="19.84888978883807"><ele>624.0</ele><time>2026-04-29T12:28:55Z</time></trkpt><trkpt lat="41.4823113581556" lon="19.848878315268358"><ele>624.0</ele><time>2026-04-29T12:28:56Z</time></trkpt><trkpt lat="41.482383631678886" lon="19.848943791781643"><ele>624.0</ele><time>2026-04-29T12:28:57Z</time></trkpt><trkpt lat="41.48247543368535" lon="19.848966194835782"><ele>624.0</ele><time>2026-04-29T12:28:58Z</time></trkpt><trkpt lat="41.482552762190224" lon="19.849034437362345"><ele>624.0</ele><time>2026-04-29T12:28:59Z</time></trkpt><trkpt lat="41.48263541044276" lon="19.849096739643162"><ele>624.0</ele><time>2026-04-29T12:29:00Z</time></trkpt><trkpt lat="41.482713816141526" lon="19.84913580560383"><ele>624.0</ele><time>2026-04-29T12:29:01Z</time></trkpt><trkpt lat="41.48280745911379" lon="19.849149931514248"><ele>624.0</ele><time>2026-04-29T12:29:02Z</time></trkpt><trkpt lat="41.48290988730075" lon="19.849151637740725"><ele>624.0</ele><time>2026-04-29T12:29:03Z</time></trkpt><trkpt lat="41.48299121070638" lon="19.849159737895878"><ele>624.0</ele><time>2026-04-29T12:29:04Z</time></trkpt><trkpt lat="41.483070292961614" lon="19.84918595408429"><ele>624.0</ele><time>2026-04-29T12:29:05Z</time></trkpt><trkpt lat="41.48314494591928" lon="19.849195024855508"><ele>625.2</ele><time>2026-04-29T12:29:06Z</time></trkpt><trkpt lat="41.48323148062046" lon="19.8492137870354"><ele>626.4</ele><time>2026-04-29T12:29:07Z</time></trkpt><trkpt lat="41.48336272169493" lon="19.849241753322993"><ele>627.6</ele><time>2026-04-29T12:29:09Z</time></trkpt><trkpt lat="41.48342653148204" lon="19.8491976068608"><ele>628.8</ele><time>2026-04-29T12:29:10Z</time></trkpt><trkpt lat="41.48348649716421" lon="19.849115416265512"><ele>630.0</ele><time>2026-04-29T12:29:11Z</time></trkpt><trkpt lat="41.48355516708132" lon="19.849011930430244"><ele>630.0</ele><time>2026-04-29T12:29:12Z</time></trkpt><trkpt lat="41.48362674900798" lon="19.84891820928722"><ele>630.0</ele><time>2026-04-29T12:29:13Z</time></trkpt><trkpt lat="41.48370414534811" lon="19.848864781988265"><ele>630.0</ele><time>2026-04-29T12:29:14Z</time></trkpt><trkpt lat="41.483767944245436" lon="19.848787706329954"><ele>630.0</ele><time>2026-04-29T12:29:15Z</time></trkpt><trkpt lat="41.483816631515325" lon="19.848711172920197"><ele>630.0</ele><time>2026-04-29T12:29:16Z</time></trkpt><trkpt lat="41.48384155933272" lon="19.84861825527657"><ele>630.0</ele><time>2026-04-29T12:29:17Z</time></trkpt><trkpt lat="41.48397978613892" lon="19.848559397548122"><ele>631.4</ele><time>2026-04-29T12:29:19Z</time></trkpt><trkpt lat="41.48406636970019" lon="19.848510103536803"><ele>632.8</ele><time>2026-04-29T12:29:20Z</time></trkpt><trkpt lat="41.48416717056526" lon="19.848455701905365"><ele>634.2</ele><time>2026-04-29T12:29:21Z</time></trkpt><trkpt lat="41.48426623929632" lon="19.848386934470632"><ele>635.6</ele><time>2026-04-29T12:29:22Z</time></trkpt><trkpt lat="41.484366722956814" lon="19.848336498660213"><ele>637.0</ele><time>2026-04-29T12:29:23Z</time></trkpt><trkpt lat="41.48443798746353" lon="19.848278248505892"><ele>637.0</ele><time>2026-04-29T12:29:24Z</time></trkpt><trkpt lat="41.48450693881358" lon="19.848125495744856"><ele>637.0</ele><time>2026-04-29T12:29:26Z</time></trkpt><trkpt lat="41.484529889774926" lon="19.84802351000656"><ele>637.0</ele><time>2026-04-29T12:29:27Z</time></trkpt><trkpt lat="41.48456318736684" lon="19.84794100714736"><ele>637.0</ele><time>2026-04-29T12:29:28Z</time></trkpt><trkpt lat="41.484621281243825" lon="19.847874053137886"><ele>637.0</ele><time>2026-04-29T12:29:29Z</time></trkpt><trkpt lat="41.48470219078695" lon="19.847859785867502"><ele>637.0</ele><time>2026-04-29T12:29:30Z</time></trkpt><trkpt lat="41.48477198773762" lon="19.84779562488258"><ele>635.3333333333334</ele><time>2026-04-29T12:29:31Z</time></trkpt><trkpt lat="41.48484403222336" lon="19.847792506266515"><ele>633.6666666666667</ele><time>2026-04-29T12:29:32Z</time></trkpt><trkpt lat="41.48497031440889" lon="19.84777601379323"><ele>632.0</ele><time>2026-04-29T12:29:34Z</time></trkpt><trkpt lat="41.48505594031274" lon="19.84774395115081"><ele>630.3333333333334</ele><time>2026-04-29T12:29:35Z</time></trkpt><trkpt lat="41.48514018897175" lon="19.847737516043388"><ele>628.6666666666666</ele><time>2026-04-29T12:29:36Z</time></trkpt><trkpt lat="41.48521504417663" lon="19.84772168799888"><ele>627.0</ele><time>2026-04-29T12:29:37Z</time></trkpt><trkpt lat="41.485274308634224" lon="19.847692742987043"><ele>627.0</ele><time>2026-04-29T12:29:38Z</time></trkpt><trkpt lat="41.48533743315421" lon="19.84765572288706"><ele>627.0</ele><time>2026-04-29T12:29:39Z</time></trkpt><trkpt lat="41.48540375736883" lon="19.847637970822532"><ele>627.0</ele><time>2026-04-29T12:29:40Z</time></trkpt><trkpt lat="41.48548062393169" lon="19.847607566178965"><ele>627.0</ele><time>2026-04-29T12:29:41Z</time></trkpt><trkpt lat="41.48556033503541" lon="19.847560484815236"><ele>627.0</ele><time>2026-04-29T12:29:42Z</time></trkpt><trkpt lat="41.485642381577186" lon="19.84754037951143"><ele>627.0</ele><time>2026-04-29T12:29:43Z</time></trkpt><trkpt lat="41.48571240306492" lon="19.847540602224623"><ele>628.0</ele><time>2026-04-29T12:29:44Z</time></trkpt><trkpt lat="41.485787848191016" lon="19.847533316320376"><ele>629.0</ele><time>2026-04-29T12:29:45Z</time></trkpt><trkpt lat="41.48586720656109" lon="19.847541773016435"><ele>630.0</ele><time>2026-04-29T12:29:46Z</time></trkpt><trkpt lat="41.48594098181279" lon="19.847541864865004"><ele>631.0</ele><time>2026-04-29T12:29:47Z</time></trkpt><trkpt lat="41.48601569346367" lon="19.847530436802895"><ele>632.0</ele><time>2026-04-29T12:29:48Z</time></trkpt><trkpt lat="41.48608875395859" lon="19.84750654478972"><ele>633.0</ele><time>2026-04-29T12:29:49Z</time></trkpt><trkpt lat="41.486153998210014" lon="19.847491053234467"><ele>634.0</ele><time>2026-04-29T12:29:50Z</time></trkpt><trkpt lat="41.48623208125249" lon="19.847482900807247"><ele>633.0</ele><time>2026-04-29T12:29:51Z</time></trkpt><trkpt lat="41.48631542173388" lon="19.84747523554095"><ele>632.0</ele><time>2026-04-29T12:29:52Z</time></trkpt><trkpt lat="41.48639444155045" lon="19.847466877881157"><ele>631.0</ele><time>2026-04-29T12:29:53Z</time></trkpt><trkpt lat="41.48647655557468" lon="19.84745314136642"><ele>630.0</ele><time>2026-04-29T12:29:54Z</time></trkpt><trkpt lat="41.48655705530795" lon="19.847435732654727"><ele>629.0</ele><time>2026-04-29T12:29:55Z</time></trkpt><trkpt lat="41.486625107170475" lon="19.847424270523515"><ele>628.0</ele><time>2026-04-29T12:29:56Z</time></trkpt><trkpt lat="41.48670787828704" lon="19.847412674489266"><ele>628.0</ele><time>2026-04-29T12:29:57Z</time></trkpt><trkpt lat="41.48679751973417" lon="19.84739160935653"><ele>628.0</ele><time>2026-04-29T12:29:58Z</time></trkpt><trkpt lat="41.48686859581342" lon="19.847360596951493"><ele>628.0</ele><time>2026-04-29T12:29:59Z</time></trkpt><trkpt lat="41.48692410272848" lon="19.847317994357432"><ele>628.0</ele><time>2026-04-29T12:30:00Z</time></trkpt><trkpt lat="41.48698260064216" lon="19.84727126129149"><ele>628.0</ele><time>2026-04-29T12:30:01Z</time></trkpt><trkpt lat="41.48707778427211" lon="19.847283978919176"><ele>628.0</ele><time>2026-04-29T12:30:03Z</time></trkpt><trkpt lat="41.48714161022621" lon="19.847344652131845"><ele>628.6</ele><time>2026-04-29T12:30:04Z</time></trkpt><trkpt lat="41.4872069995727" lon="19.847378775832876"><ele>629.1999999999999</ele><time>2026-04-29T12:30:05Z</time></trkpt><trkpt lat="41.487290476982885" lon="19.84731638291749"><ele>629.8</ele><time>2026-04-29T12:30:06Z</time></trkpt><trkpt lat="41.487425572523534" lon="19.84728618711304"><ele>630.4</ele><time>2026-04-29T12:30:08Z</time></trkpt><trkpt lat="41.487502181162526" lon="19.84731279015202"><ele>631.0</ele><time>2026-04-29T12:30:09Z</time></trkpt><trkpt lat="41.487542410454466" lon="19.847388649044763"><ele>631.0</ele><time>2026-04-29T12:30:10Z</time></trkpt><trkpt lat="41.48758858686884" lon="19.847455851494125"><ele>631.0</ele><time>2026-04-29T12:30:11Z</time></trkpt><trkpt lat="41.48764342874031" lon="19.84751750454698"><ele>631.0</ele><time>2026-04-29T12:30:12Z</time></trkpt><trkpt lat="41.48770886015672" lon="19.84755666161757"><ele>631.0</ele><time>2026-04-29T12:30:13Z</time></trkpt><trkpt lat="41.48775486560795" lon="19.847628816218908"><ele>631.0</ele><time>2026-04-29T12:30:14Z</time></trkpt><trkpt lat="41.48780738485007" lon="19.847680900243514"><ele>631.0</ele><time>2026-04-29T12:30:15Z</time></trkpt><trkpt lat="41.48789919397555" lon="19.84774996052932"><ele>629.2</ele><time>2026-04-29T12:30:17Z</time></trkpt><trkpt lat="41.48800620399953" lon="19.84774682274521"><ele>627.4000000000001</ele><time>2026-04-29T12:30:19Z</time></trkpt><trkpt lat="41.48811188083224" lon="19.847783603004725"><ele>625.6</ele><time>2026-04-29T12:30:21Z</time></trkpt><trkpt lat="41.48817537587611" lon="19.847810271816186"><ele>623.8000000000001</ele><time>2026-04-29T12:30:22Z</time></trkpt><trkpt lat="41.48828060109114" lon="19.847871645139946"><ele>622.0</ele><time>2026-04-29T12:30:24Z</time></trkpt><trkpt lat="41.4883899413767" lon="19.847931783176154"><ele>622.0</ele><time>2026-04-29T12:30:26Z</time></trkpt><trkpt lat="41.48846831681901" lon="19.848010349557963"><ele>622.0</ele><time>2026-04-29T12:30:28Z</time></trkpt><trkpt lat="41.48851194449239" lon="19.84812759488661"><ele>622.0</ele><time>2026-04-29T12:30:30Z</time></trkpt><trkpt lat="41.488540206703064" lon="19.848235268155843"><ele>622.0</ele><time>2026-04-29T12:30:32Z</time></trkpt><trkpt lat="41.48857988368372" lon="19.84832542696646"><ele>622.0</ele><time>2026-04-29T12:30:34Z</time></trkpt><trkpt lat="41.48861037899583" lon="19.848416251368278"><ele>622.0</ele><time>2026-04-29T12:30:36Z</time></trkpt><trkpt lat="41.48867959151952" lon="19.848414393320567"><ele>620.4</ele><time>2026-04-29T12:30:37Z</time></trkpt><trkpt lat="41.4887738313711" lon="19.848481652560857"><ele>618.8000000000001</ele><time>2026-04-29T12:30:39Z</time></trkpt><trkpt lat="41.488867760516065" lon="19.84851693693928"><ele>617.2</ele><time>2026-04-29T12:30:41Z</time></trkpt><trkpt lat="41.48897048725762" lon="19.848596718263916"><ele>615.6</ele><time>2026-04-29T12:30:43Z</time></trkpt><trkpt lat="41.48899627229311" lon="19.848696512699206"><ele>614.0</ele><time>2026-04-29T12:30:44Z</time></trkpt><trkpt lat="41.489038449470854" lon="19.848773377210183"><ele>614.0</ele><time>2026-04-29T12:30:45Z</time></trkpt><trkpt lat="41.489120609505385" lon="19.848909772992755"><ele>614.0</ele><time>2026-04-29T12:30:47Z</time></trkpt><trkpt lat="41.489172143963096" lon="19.848960863635384"><ele>614.0</ele><time>2026-04-29T12:30:48Z</time></trkpt><trkpt lat="41.48923324729234" lon="19.84898388185145"><ele>614.0</ele><time>2026-04-29T12:30:49Z</time></trkpt><trkpt lat="41.48929721131376" lon="19.848988140396944"><ele>614.0</ele><time>2026-04-29T12:30:50Z</time></trkpt><trkpt lat="41.48936450108986" lon="19.848989459592136"><ele>614.0</ele><time>2026-04-29T12:30:51Z</time></trkpt><trkpt lat="41.48946200679582" lon="19.8490658764832"><ele>614.0</ele><time>2026-04-29T12:30:53Z</time></trkpt><trkpt lat="41.489522828744384" lon="19.849103992495877"><ele>614.0</ele><time>2026-04-29T12:30:54Z</time></trkpt><trkpt lat="41.48956841474962" lon="19.849184021790784"><ele>614.0</ele><time>2026-04-29T12:30:55Z</time></trkpt><trkpt lat="41.48960590697252" lon="19.849253935348898"><ele>614.0</ele><time>2026-04-29T12:30:56Z</time></trkpt><trkpt lat="41.48962164404765" lon="19.849339537587177"><ele>614.0</ele><time>2026-04-29T12:30:57Z</time></trkpt><trkpt lat="41.489602100413705" lon="19.849456169433537"><ele>614.0</ele><time>2026-04-29T12:30:58Z</time></trkpt><trkpt lat="41.48967351634241" lon="19.8495884321539"><ele>613.3333333333333</ele><time>2026-04-29T12:31:00Z</time></trkpt><trkpt lat="41.4897441486071" lon="19.849635765495766"><ele>612.6666666666666</ele><time>2026-04-29T12:31:01Z</time></trkpt><trkpt lat="41.489837197338815" lon="19.8496715597476"><ele>612.0</ele><time>2026-04-29T12:31:02Z</time></trkpt><trkpt lat="41.489915697765056" lon="19.849692002056706"><ele>611.3333333333334</ele><time>2026-04-29T12:31:03Z</time></trkpt><trkpt lat="41.48997929917541" lon="19.84971393874839"><ele>610.6666666666667</ele><time>2026-04-29T12:31:04Z</time></trkpt><trkpt lat="41.49007943374454" lon="19.84978605712938"><ele>610.0</ele><time>2026-04-29T12:31:06Z</time></trkpt><trkpt lat="41.49009796480652" lon="19.849893896705094"><ele>610.0</ele><time>2026-04-29T12:31:07Z</time></trkpt><trkpt lat="41.49013906643522" lon="19.85001770587701"><ele>610.0</ele><time>2026-04-29T12:31:08Z</time></trkpt><trkpt lat="41.49018423505879" lon="19.85011947660411"><ele>610.0</ele><time>2026-04-29T12:31:09Z</time></trkpt><trkpt lat="41.49026897900954" lon="19.85018196841138"><ele>610.0</ele><time>2026-04-29T12:31:10Z</time></trkpt><trkpt lat="41.490353090270574" lon="19.850171644434667"><ele>610.0</ele><time>2026-04-29T12:31:11Z</time></trkpt><trkpt lat="41.49041972527919" lon="19.850174023009306"><ele>610.0</ele><time>2026-04-29T12:31:12Z</time></trkpt><trkpt lat="41.490498982713866" lon="19.85016245184653"><ele>609.1428571428572</ele><time>2026-04-29T12:31:13Z</time></trkpt><trkpt lat="41.49056530765918" lon="19.850145018768046"><ele>608.2857142857142</ele><time>2026-04-29T12:31:14Z</time></trkpt><trkpt lat="41.49062719058096" lon="19.850179026984524"><ele>607.4285714285714</ele><time>2026-04-29T12:31:15Z</time></trkpt><trkpt lat="41.4906957291181" lon="19.85021448923163"><ele>606.5714285714287</ele><time>2026-04-29T12:31:16Z</time></trkpt><trkpt lat="41.49075687161086" lon="19.85024158789454"><ele>605.7142857142858</ele><time>2026-04-29T12:31:17Z</time></trkpt><trkpt lat="41.49078390891292" lon="19.850342018503735"><ele>604.8571428571429</ele><time>2026-04-29T12:31:18Z</time></trkpt><trkpt lat="41.490829090392246" lon="19.850455572318847"><ele>604.0</ele><time>2026-04-29T12:31:19Z</time></trkpt><trkpt lat="41.49089201958512" lon="19.850573068706662"><ele>604.0</ele><time>2026-04-29T12:31:20Z</time></trkpt><trkpt lat="41.49096423290227" lon="19.85067213282555"><ele>604.0</ele><time>2026-04-29T12:31:21Z</time></trkpt><trkpt lat="41.49102410651504" lon="19.85075099394689"><ele>604.0</ele><time>2026-04-29T12:31:22Z</time></trkpt><trkpt lat="41.49108473894182" lon="19.850819221193923"><ele>604.0</ele><time>2026-04-29T12:31:23Z</time></trkpt><trkpt lat="41.49115397186062" lon="19.85087975768488"><ele>604.0</ele><time>2026-04-29T12:31:24Z</time></trkpt><trkpt lat="41.49120963002607" lon="19.85102202897279"><ele>604.6666666666667</ele><time>2026-04-29T12:31:26Z</time></trkpt><trkpt lat="41.49117424872006" lon="19.851149430856854"><ele>605.3333333333334</ele><time>2026-04-29T12:31:27Z</time></trkpt><trkpt lat="41.491177508467864" lon="19.851272849679287"><ele>606.0</ele><time>2026-04-29T12:31:28Z</time></trkpt><trkpt lat="41.491137108624834" lon="19.85138022037302"><ele>606.6666666666666</ele><time>2026-04-29T12:31:29Z</time></trkpt><trkpt lat="41.4911227488089" lon="19.851476561622707"><ele>607.3333333333333</ele><time>2026-04-29T12:31:30Z</time></trkpt><trkpt lat="41.49110803874042" lon="19.851575252614488"><ele>608.0</ele><time>2026-04-29T12:31:31Z</time></trkpt><trkpt lat="41.49116283099265" lon="19.85171279991192"><ele>604.8</ele><time>2026-04-29T12:31:32Z</time></trkpt><trkpt lat="41.491177489919146" lon="19.851837063061744"><ele>601.5999999999999</ele><time>2026-04-29T12:31:33Z</time></trkpt><trkpt lat="41.49115881362945" lon="19.85193471652146"><ele>598.4000000000001</ele><time>2026-04-29T12:31:34Z</time></trkpt><trkpt lat="41.49118673158106" lon="19.852015004630857"><ele>595.2</ele><time>2026-04-29T12:31:35Z</time></trkpt><trkpt lat="41.4912193577872" lon="19.85216592634007"><ele>592.0</ele><time>2026-04-29T12:31:37Z</time></trkpt><trkpt lat="41.49119054892058" lon="19.852296138475303"><ele>592.0</ele><time>2026-04-29T12:31:39Z</time></trkpt><trkpt lat="41.49114527100246" lon="19.852359833199678"><ele>592.0</ele><time>2026-04-29T12:31:40Z</time></trkpt><trkpt lat="41.491099029679134" lon="19.852420510065535"><ele>592.0</ele><time>2026-04-29T12:31:41Z</time></trkpt><trkpt lat="41.49101953041123" lon="19.85245877660368"><ele>592.0</ele><time>2026-04-29T12:31:43Z</time></trkpt><trkpt lat="41.490946150499184" lon="19.85239084834712"><ele>592.0</ele><time>2026-04-29T12:31:45Z</time></trkpt><trkpt lat="41.490863271793415" lon="19.852370222764687"><ele>592.0</ele><time>2026-04-29T12:31:46Z</time></trkpt><trkpt lat="41.49076028386459" lon="19.852347384011278"><ele>592.0</ele><time>2026-04-29T12:31:47Z</time></trkpt><trkpt lat="41.49067275679224" lon="19.852363879773055"><ele>592.0</ele><time>2026-04-29T12:31:48Z</time></trkpt><trkpt lat="41.49059829406042" lon="19.852373331325264"><ele>592.0</ele><time>2026-04-29T12:31:49Z</time></trkpt><trkpt lat="41.49053831211935" lon="19.852336614276073"><ele>592.0</ele><time>2026-04-29T12:31:50Z</time></trkpt><trkpt lat="41.49043921882283" lon="19.85233277406446"><ele>592.0</ele><time>2026-04-29T12:31:52Z</time></trkpt><trkpt lat="41.4903832010132" lon="19.852459613946706"><ele>592.0</ele><time>2026-04-29T12:31:54Z</time></trkpt><trkpt lat="41.490413174683674" lon="19.852543962089097"><ele>592.0</ele><time>2026-04-29T12:31:55Z</time></trkpt><trkpt lat="41.490521147723456" lon="19.852578097735506"><ele>592.0</ele><time>2026-04-29T12:31:57Z</time></trkpt><trkpt lat="41.490642457986404" lon="19.852563846838635"><ele>592.0</ele><time>2026-04-29T12:31:59Z</time></trkpt><trkpt lat="41.4907221268261" lon="19.852591495599018"><ele>592.0</ele><time>2026-04-29T12:32:00Z</time></trkpt><trkpt lat="41.49079768739604" lon="19.852647122766605"><ele>592.0</ele><time>2026-04-29T12:32:01Z</time></trkpt><trkpt lat="41.4908841488226" lon="19.852715650100787"><ele>589.0</ele><time>2026-04-29T12:32:02Z</time></trkpt><trkpt lat="41.49094629681764" lon="19.852770826074018"><ele>586.0</ele><time>2026-04-29T12:32:03Z</time></trkpt><trkpt lat="41.49101085926433" lon="19.852830403645548"><ele>583.0</ele><time>2026-04-29T12:32:04Z</time></trkpt><trkpt lat="41.491063993982266" lon="19.852901627723135"><ele>580.0</ele><time>2026-04-29T12:32:05Z</time></trkpt><trkpt lat="41.49110196059566" lon="19.852982034898147"><ele>577.0</ele><time>2026-04-29T12:32:06Z</time></trkpt><trkpt lat="41.49109324812375" lon="19.8530706976446"><ele>574.0</ele><time>2026-04-29T12:32:07Z</time></trkpt><trkpt lat="41.49105799810301" lon="19.853191447323415"><ele>574.0</ele><time>2026-04-29T12:32:09Z</time></trkpt><trkpt lat="41.49106692944683" lon="19.853320648465207"><ele>574.0</ele><time>2026-04-29T12:32:11Z</time></trkpt><trkpt lat="41.491153151857056" lon="19.853412991931567"><ele>574.0</ele><time>2026-04-29T12:32:13Z</time></trkpt><trkpt lat="41.491225130270706" lon="19.853437449115344"><ele>574.0</ele><time>2026-04-29T12:32:14Z</time></trkpt><trkpt lat="41.49131690430362" lon="19.853454818924178"><ele>574.0</ele><time>2026-04-29T12:32:15Z</time></trkpt><trkpt lat="41.49141512225396" lon="19.853462031547892"><ele>571.8</ele><time>2026-04-29T12:32:16Z</time></trkpt><trkpt lat="41.491497048519484" lon="19.853476528669706"><ele>569.5999999999999</ele><time>2026-04-29T12:32:17Z</time></trkpt><trkpt lat="41.491578240871476" lon="19.853515984789954"><ele>567.4</ele><time>2026-04-29T12:32:18Z</time></trkpt><trkpt lat="41.491668583894736" lon="19.85357581691629"><ele>565.1999999999999</ele><time>2026-04-29T12:32:19Z</time></trkpt><trkpt lat="41.49175945582126" lon="19.853672347922224"><ele>563.0</ele><time>2026-04-29T12:32:20Z</time></trkpt><trkpt lat="41.491851315657875" lon="19.853784120414176"><ele>563.0</ele><time>2026-04-29T12:32:21Z</time></trkpt><trkpt lat="41.49195096484784" lon="19.853847009363594"><ele>563.0</ele><time>2026-04-29T12:32:22Z</time></trkpt><trkpt lat="41.49201862636075" lon="19.853905843279296"><ele>563.0</ele><time>2026-04-29T12:32:23Z</time></trkpt><trkpt lat="41.49209924161061" lon="19.853934221624332"><ele>563.0</ele><time>2026-04-29T12:32:24Z</time></trkpt><trkpt lat="41.492198636069965" lon="19.853945255435516"><ele>563.0</ele><time>2026-04-29T12:32:25Z</time></trkpt><trkpt lat="41.492312091231824" lon="19.853938740847283"><ele>562.75</ele><time>2026-04-29T12:32:26Z</time></trkpt><trkpt lat="41.49243668311238" lon="19.853925364244382"><ele>562.5</ele><time>2026-04-29T12:32:27Z</time></trkpt><trkpt lat="41.49256705199374" lon="19.853915956982267"><ele>562.25</ele><time>2026-04-29T12:32:28Z</time></trkpt><trkpt lat="41.49267820234504" lon="19.853905885696697"><ele>562.0</ele><time>2026-04-29T12:32:29Z</time></trkpt><trkpt lat="41.49278882296323" lon="19.853912087944313"><ele>562.0</ele><time>2026-04-29T12:32:30Z</time></trkpt><trkpt lat="41.49288595003476" lon="19.853934388664126"><ele>562.0</ele><time>2026-04-29T12:32:31Z</time></trkpt><trkpt lat="41.492980905393814" lon="19.85394528008987"><ele>562.0</ele><time>2026-04-29T12:32:32Z</time></trkpt><trkpt lat="41.49308255951589" lon="19.853924057802722"><ele>562.0</ele><time>2026-04-29T12:32:33Z</time></trkpt><trkpt lat="41.49316175929472" lon="19.85387839140544"><ele>562.0</ele><time>2026-04-29T12:32:34Z</time></trkpt><trkpt lat="41.493230184054845" lon="19.853847842319258"><ele>562.4</ele><time>2026-04-29T12:32:35Z</time></trkpt><trkpt lat="41.49330953679951" lon="19.853884964746364"><ele>562.8000000000001</ele><time>2026-04-29T12:32:36Z</time></trkpt><trkpt lat="41.49338239567636" lon="19.853959548244415"><ele>563.2</ele><time>2026-04-29T12:32:37Z</time></trkpt><trkpt lat="41.49350284788002" lon="19.85403378861991"><ele>563.6</ele><time>2026-04-29T12:32:38Z</time></trkpt><trkpt lat="41.493636555398105" lon="19.854071317263116"><ele>564.0</ele><time>2026-04-29T12:32:39Z</time></trkpt><trkpt lat="41.49373343293104" lon="19.85410798001173"><ele>564.6</ele><time>2026-04-29T12:32:40Z</time></trkpt><trkpt lat="41.493802542190956" lon="19.854160502049844"><ele>565.2</ele><time>2026-04-29T12:32:41Z</time></trkpt><trkpt lat="41.4939227327472" lon="19.854273461194715"><ele>565.8000000000001</ele><time>2026-04-29T12:32:43Z</time></trkpt><trkpt lat="41.49402385315411" lon="19.854311626654958"><ele>566.4</ele><time>2026-04-29T12:32:44Z</time></trkpt><trkpt lat="41.49413308442953" lon="19.85436652614779"><ele>567.0</ele><time>2026-04-29T12:32:45Z</time></trkpt><trkpt lat="41.49424498297248" lon="19.854412300555477"><ele>567.8000000000001</ele><time>2026-04-29T12:32:46Z</time></trkpt><trkpt lat="41.494336198067515" lon="19.854451806332303"><ele>568.6</ele><time>2026-04-29T12:32:47Z</time></trkpt><trkpt lat="41.49442032372961" lon="19.854488681659657"><ele>569.4000000000001</ele><time>2026-04-29T12:32:48Z</time></trkpt><trkpt lat="41.494478620448284" lon="19.85453825396793"><ele>570.2</ele><time>2026-04-29T12:32:49Z</time></trkpt><trkpt lat="41.494592712535486" lon="19.8546322069915"><ele>571.0</ele><time>2026-04-29T12:32:51Z</time></trkpt><trkpt lat="41.49466716678788" lon="19.85472170022624"><ele>571.0</ele><time>2026-04-29T12:32:52Z</time></trkpt><trkpt lat="41.49479450259136" lon="19.85479215334834"><ele>571.0</ele><time>2026-04-29T12:32:53Z</time></trkpt><trkpt lat="41.49488009232024" lon="19.854855958549674"><ele>571.0</ele><time>2026-04-29T12:32:54Z</time></trkpt><trkpt lat="41.49494958486008" lon="19.854936491792422"><ele>571.0</ele><time>2026-04-29T12:32:55Z</time></trkpt><trkpt lat="41.49502529711956" lon="19.855027342817746"><ele>571.0</ele><time>2026-04-29T12:32:57Z</time></trkpt><trkpt lat="41.49498056394522" lon="19.855147113728442"><ele>570.1666666666667</ele><time>2026-04-29T12:32:58Z</time></trkpt><trkpt lat="41.49499997987992" lon="19.855235733514238"><ele>569.3333333333334</ele><time>2026-04-29T12:32:59Z</time></trkpt><trkpt lat="41.49505928771258" lon="19.85531464978922"><ele>568.5</ele><time>2026-04-29T12:33:00Z</time></trkpt><trkpt lat="41.49509842869999" lon="19.85542025064182"><ele>567.6666666666666</ele><time>2026-04-29T12:33:01Z</time></trkpt><trkpt lat="41.495182355905214" lon="19.855491895994117"><ele>566.8333333333333</ele><time>2026-04-29T12:33:02Z</time></trkpt><trkpt lat="41.49524165508131" lon="19.855546037076362"><ele>566.0</ele><time>2026-04-29T12:33:03Z</time></trkpt><trkpt lat="41.49524689789182" lon="19.855706837308492"><ele>566.0</ele><time>2026-04-29T12:33:05Z</time></trkpt><trkpt lat="41.49522600709755" lon="19.855830248581707"><ele>566.0</ele><time>2026-04-29T12:33:06Z</time></trkpt><trkpt lat="41.49521001173324" lon="19.85598912476678"><ele>566.0</ele><time>2026-04-29T12:33:07Z</time></trkpt><trkpt lat="41.49516640879242" lon="19.856165903986355"><ele>566.0</ele><time>2026-04-29T12:33:08Z</time></trkpt><trkpt lat="41.49514231703274" lon="19.85632856599188"><ele>568.6</ele><time>2026-04-29T12:33:09Z</time></trkpt><trkpt lat="41.49516001260512" lon="19.856472921257097"><ele>571.2</ele><time>2026-04-29T12:33:10Z</time></trkpt><trkpt lat="41.495139992992456" lon="19.856612247541452"><ele>573.8</ele><time>2026-04-29T12:33:11Z</time></trkpt><trkpt lat="41.49512078937694" lon="19.856738742852826"><ele>576.4</ele><time>2026-04-29T12:33:12Z</time></trkpt><trkpt lat="41.495100132757024" lon="19.856859693250133"><ele>579.0</ele><time>2026-04-29T12:33:13Z</time></trkpt><trkpt lat="41.49508308356232" lon="19.856960770478207"><ele>580.5</ele><time>2026-04-29T12:33:14Z</time></trkpt><trkpt lat="41.49510812269875" lon="19.857042135163304"><ele>582.0</ele><time>2026-04-29T12:33:15Z</time></trkpt><trkpt lat="41.49514593472707" lon="19.857111858691816"><ele>583.5</ele><time>2026-04-29T12:33:16Z</time></trkpt><trkpt lat="41.49519979421479" lon="19.857172285890044"><ele>585.0</ele><time>2026-04-29T12:33:17Z</time></trkpt><trkpt lat="41.495264506150825" lon="19.857242905239584"><ele>586.5</ele><time>2026-04-29T12:33:18Z</time></trkpt><trkpt lat="41.49529875140871" lon="19.857343261502972"><ele>588.0</ele><time>2026-04-29T12:33:19Z</time></trkpt><trkpt lat="41.49530796725142" lon="19.85750946279898"><ele>587.1999999999999</ele><time>2026-04-29T12:33:21Z</time></trkpt><trkpt lat="41.49531792570181" lon="19.85764443333821"><ele>586.4</ele><time>2026-04-29T12:33:22Z</time></trkpt><trkpt lat="41.49533664171984" lon="19.857815157923692"><ele>585.5999999999999</ele><time>2026-04-29T12:33:23Z</time></trkpt><trkpt lat="41.495338231180035" lon="19.857969071497315"><ele>584.8</ele><time>2026-04-29T12:33:24Z</time></trkpt><trkpt lat="41.49533539636942" lon="19.85809640746539"><ele>584.0</ele><time>2026-04-29T12:33:25Z</time></trkpt><trkpt lat="41.495371711687135" lon="19.858207822534958"><ele>585.6</ele><time>2026-04-29T12:33:27Z</time></trkpt><trkpt lat="41.49548092715521" lon="19.858251219054566"><ele>587.2</ele><time>2026-04-29T12:33:29Z</time></trkpt><trkpt lat="41.4955679296765" lon="19.858264939323966"><ele>588.8000000000001</ele><time>2026-04-29T12:33:30Z</time></trkpt><trkpt lat="41.49564212873331" lon="19.85831609475946"><ele>590.4</ele><time>2026-04-29T12:33:31Z</time></trkpt><trkpt lat="41.49573370247504" lon="19.85835242762241"><ele>592.0</ele><time>2026-04-29T12:33:32Z</time></trkpt><trkpt lat="41.49582671070242" lon="19.858406377341733"><ele>592.0</ele><time>2026-04-29T12:33:33Z</time></trkpt><trkpt lat="41.49590750786051" lon="19.858417561443616"><ele>592.0</ele><time>2026-04-29T12:33:34Z</time></trkpt><trkpt lat="41.495981395526535" lon="19.858378084098888"><ele>592.0</ele><time>2026-04-29T12:33:35Z</time></trkpt><trkpt lat="41.49605863463111" lon="19.858347946576323"><ele>592.0</ele><time>2026-04-29T12:33:36Z</time></trkpt><trkpt lat="41.49612199205718" lon="19.85840664940896"><ele>592.0</ele><time>2026-04-29T12:33:38Z</time></trkpt><trkpt lat="41.49620276571797" lon="19.85846646189829"><ele>592.0</ele><time>2026-04-29T12:33:40Z</time></trkpt><trkpt lat="41.49620875720704" lon="19.85855209967386"><ele>595.0</ele><time>2026-04-29T12:33:41Z</time></trkpt><trkpt lat="41.49627962807015" lon="19.858659346354532"><ele>598.0</ele><time>2026-04-29T12:33:43Z</time></trkpt><trkpt lat="41.49638840249875" lon="19.858669895310065"><ele>601.0</ele><time>2026-04-29T12:33:45Z</time></trkpt><trkpt lat="41.49647776379651" lon="19.858648431416068"><ele>604.0</ele><time>2026-04-29T12:33:47Z</time></trkpt><trkpt lat="41.496554322251534" lon="19.858619940275343"><ele>607.0</ele><time>2026-04-29T12:33:49Z</time></trkpt><trkpt lat="41.49663389040951" lon="19.858646789499247"><ele>607.0</ele><time>2026-04-29T12:33:51Z</time></trkpt><trkpt lat="41.4967058910444" lon="19.858755728817144"><ele>607.0</ele><time>2026-04-29T12:33:53Z</time></trkpt><trkpt lat="41.49671237197299" lon="19.858877376463294"><ele>607.0</ele><time>2026-04-29T12:33:55Z</time></trkpt><trkpt lat="41.49671797254346" lon="19.858968299895114"><ele>607.0</ele><time>2026-04-29T12:33:56Z</time></trkpt><trkpt lat="41.4967371349509" lon="19.859067623526542"><ele>607.0</ele><time>2026-04-29T12:33:57Z</time></trkpt><trkpt lat="41.49675634020974" lon="19.859167169096693"><ele>607.0</ele><time>2026-04-29T12:33:58Z</time></trkpt><trkpt lat="41.496735917582406" lon="19.85932027855461"><ele>607.8000000000001</ele><time>2026-04-29T12:34:00Z</time></trkpt><trkpt lat="41.496624516653206" lon="19.859423762214544"><ele>608.6</ele><time>2026-04-29T12:34:02Z</time></trkpt><trkpt lat="41.496589711524436" lon="19.8595019187127"><ele>609.4000000000001</ele><time>2026-04-29T12:34:03Z</time></trkpt><trkpt lat="41.49660439696176" lon="19.859662093157382"><ele>610.2</ele><time>2026-04-29T12:34:05Z</time></trkpt><trkpt lat="41.49664379337836" lon="19.85978211933614"><ele>611.0</ele><time>2026-04-29T12:34:07Z</time></trkpt><trkpt lat="41.49658709136521" lon="19.859820038316645"><ele>611.0</ele><time>2026-04-29T12:34:09Z</time></trkpt><trkpt lat="41.496524079631456" lon="19.85977868147252"><ele>611.0</ele><time>2026-04-29T12:34:12Z</time></trkpt><trkpt lat="41.496515739573454" lon="19.85968817545117"><ele>611.0</ele><time>2026-04-29T12:34:13Z</time></trkpt><trkpt lat="41.49647878226007" lon="19.859616240912448"><ele>611.0</ele><time>2026-04-29T12:34:14Z</time></trkpt><trkpt lat="41.49642968474164" lon="19.859482545161672"><ele>611.0</ele><time>2026-04-29T12:34:16Z</time></trkpt><trkpt lat="41.49639964843085" lon="19.85933769047309"><ele>611.0</ele><time>2026-04-29T12:34:18Z</time></trkpt><trkpt lat="41.49640231488702" lon="19.859222084697773"><ele>610.2</ele><time>2026-04-29T12:34:20Z</time></trkpt><trkpt lat="41.49641496022321" lon="19.859099991324257"><ele>609.4000000000001</ele><time>2026-04-29T12:34:22Z</time></trkpt><trkpt lat="41.49633311280241" lon="19.8590393194183"><ele>608.6</ele><time>2026-04-29T12:34:24Z</time></trkpt><trkpt lat="41.49626397595801" lon="19.859121772073866"><ele>607.8000000000001</ele><time>2026-04-29T12:34:26Z</time></trkpt><trkpt lat="41.49623788030675" lon="19.859265690685806"><ele>607.0</ele><time>2026-04-29T12:34:28Z</time></trkpt><trkpt lat="41.49620509620964" lon="19.859414744778814"><ele>607.8000000000001</ele><time>2026-04-29T12:34:30Z</time></trkpt><trkpt lat="41.49625835903587" lon="19.859576955126116"><ele>608.6</ele><time>2026-04-29T12:34:32Z</time></trkpt><trkpt lat="41.49628025636002" lon="19.859674856703716"><ele>609.4000000000001</ele><time>2026-04-29T12:34:33Z</time></trkpt><trkpt lat="41.496276101351725" lon="19.859785872235303"><ele>610.2</ele><time>2026-04-29T12:34:34Z</time></trkpt><trkpt lat="41.496305937277754" lon="19.8598995878956"><ele>611.0</ele><time>2026-04-29T12:34:35Z</time></trkpt><trkpt lat="41.49633229029281" lon="19.860001422229566"><ele>613.2</ele><time>2026-04-29T12:34:36Z</time></trkpt><trkpt lat="41.496382245584144" lon="19.860148171012366"><ele>615.4000000000001</ele><time>2026-04-29T12:34:38Z</time></trkpt><trkpt lat="41.496473271638244" lon="19.86019205387246"><ele>617.6</ele><time>2026-04-29T12:34:39Z</time></trkpt><trkpt lat="41.49653375544281" lon="19.860329030984534"><ele>619.8000000000001</ele><time>2026-04-29T12:34:41Z</time></trkpt><trkpt lat="41.49650543218459" lon="19.860449647975088"><ele>622.0</ele><time>2026-04-29T12:34:43Z</time></trkpt><trkpt lat="41.496490911295076" lon="19.86056507233418"><ele>622.0</ele><time>2026-04-29T12:34:44Z</time></trkpt><trkpt lat="41.496496303320114" lon="19.860699797553185"><ele>622.0</ele><time>2026-04-29T12:34:45Z</time></trkpt><trkpt lat="41.49654782299294" lon="19.860788542523036"><ele>622.0</ele><time>2026-04-29T12:34:46Z</time></trkpt><trkpt lat="41.49660768404642" lon="19.860840545992883"><ele>622.0</ele><time>2026-04-29T12:34:47Z</time></trkpt><trkpt lat="41.496665340492896" lon="19.860877894381307"><ele>622.0</ele><time>2026-04-29T12:34:48Z</time></trkpt><trkpt lat="41.49670078139199" lon="19.860960751292893"><ele>622.0</ele><time>2026-04-29T12:34:49Z</time></trkpt><trkpt lat="41.49667916358255" lon="19.861087431411303"><ele>624.0</ele><time>2026-04-29T12:34:51Z</time></trkpt><trkpt lat="41.49662761827828" lon="19.86116601626124"><ele>626.0</ele><time>2026-04-29T12:34:52Z</time></trkpt><trkpt lat="41.49660034594938" lon="19.861288709707956"><ele>628.0</ele><time>2026-04-29T12:34:53Z</time></trkpt><trkpt lat="41.496552243070916" lon="19.861422814077066"><ele>630.0</ele><time>2026-04-29T12:34:54Z</time></trkpt><trkpt lat="41.49649398435713" lon="19.861471749447052"><ele>632.0</ele><time>2026-04-29T12:34:55Z</time></trkpt><trkpt lat="41.49640222259133" lon="19.861577080102624"><ele>632.0</ele><time>2026-04-29T12:34:57Z</time></trkpt><trkpt lat="41.496381444754334" lon="19.86167195198347"><ele>632.0</ele><time>2026-04-29T12:34:59Z</time></trkpt><trkpt lat="41.496435429568926" lon="19.861741201565845"><ele>632.0</ele><time>2026-04-29T12:35:01Z</time></trkpt><trkpt lat="41.49648475268368" lon="19.861806867103486"><ele>632.0</ele><time>2026-04-29T12:35:04Z</time></trkpt><trkpt lat="41.496569933329695" lon="19.86193394324895"><ele>632.0</ele><time>2026-04-29T12:35:12Z</time></trkpt><trkpt lat="41.496658303809276" lon="19.862018102290733"><ele>633.1666666666666</ele><time>2026-04-29T12:35:14Z</time></trkpt><trkpt lat="41.496728068190954" lon="19.86207707144423"><ele>634.3333333333333</ele><time>2026-04-29T12:35:16Z</time></trkpt><trkpt lat="41.49675911609586" lon="19.86219937450768"><ele>635.5</ele><time>2026-04-29T12:35:18Z</time></trkpt><trkpt lat="41.49672044453357" lon="19.862279337418556"><ele>636.6666666666666</ele><time>2026-04-29T12:35:19Z</time></trkpt><trkpt lat="41.49670169262373" lon="19.862405797862017"><ele>637.8333333333334</ele><time>2026-04-29T12:35:21Z</time></trkpt><trkpt lat="41.49674550579421" lon="19.86250584461989"><ele>639.0</ele><time>2026-04-29T12:35:23Z</time></trkpt><trkpt lat="41.49688729616721" lon="19.862526795280417"><ele>639.0000000000001</ele><time>2026-04-29T12:35:25Z</time></trkpt><trkpt lat="41.49695516983776" lon="19.86256500726582"><ele>639.0</ele><time>2026-04-29T12:35:26Z</time></trkpt><trkpt lat="41.497025142515255" lon="19.862596192837593"><ele>639.0</ele><time>2026-04-29T12:35:27Z</time></trkpt><trkpt lat="41.497076371213836" lon="19.86265853534467"><ele>639.0</ele><time>2026-04-29T12:35:28Z</time></trkpt><trkpt lat="41.497119558881394" lon="19.8627214422358"><ele>639.0</ele><time>2026-04-29T12:35:29Z</time></trkpt><trkpt lat="41.49715736127985" lon="19.862797927113288"><ele>639.0000000000001</ele><time>2026-04-29T12:35:30Z</time></trkpt><trkpt lat="41.4972356847331" lon="19.862807171698904"><ele>639.0</ele><time>2026-04-29T12:35:31Z</time></trkpt><trkpt lat="41.497303508463546" lon="19.86280300789094"><ele>640.5</ele><time>2026-04-29T12:35:32Z</time></trkpt><trkpt lat="41.497387830678505" lon="19.862777063792695"><ele>642.0</ele><time>2026-04-29T12:35:33Z</time></trkpt><trkpt lat="41.49747701480937" lon="19.862741669013158"><ele>643.5</ele><time>2026-04-29T12:35:34Z</time></trkpt><trkpt lat="41.49756108865921" lon="19.86272574704939"><ele>645.0</ele><time>2026-04-29T12:35:35Z</time></trkpt><trkpt lat="41.49763458147115" lon="19.862714630334985"><ele>646.5</ele><time>2026-04-29T12:35:36Z</time></trkpt><trkpt lat="41.497714272592155" lon="19.862692213005843"><ele>648.0</ele><time>2026-04-29T12:35:37Z</time></trkpt><trkpt lat="41.49780811340548" lon="19.862658642069274"><ele>648.0</ele><time>2026-04-29T12:35:38Z</time></trkpt><trkpt lat="41.497885429236185" lon="19.862619597060498"><ele>648.0</ele><time>2026-04-29T12:35:39Z</time></trkpt><trkpt lat="41.49796052845052" lon="19.862579687269587"><ele>648.0</ele><time>2026-04-29T12:35:40Z</time></trkpt><trkpt lat="41.49802454039827" lon="19.86253096014337"><ele>648.0</ele><time>2026-04-29T12:35:41Z</time></trkpt><trkpt lat="41.498086195679704" lon="19.862479838237004"><ele>648.0</ele><time>2026-04-29T12:35:42Z</time></trkpt><trkpt lat="41.4981564440476" lon="19.86243007408739"><ele>648.0</ele><time>2026-04-29T12:35:43Z</time></trkpt><trkpt lat="41.49822177135467" lon="19.862391563353558"><ele>642.8333333333334</ele><time>2026-04-29T12:35:44Z</time></trkpt><trkpt lat="41.49829566152287" lon="19.862375143844208"><ele>637.6666666666666</ele><time>2026-04-29T12:35:45Z</time></trkpt><trkpt lat="41.498357338297225" lon="19.86234274307688"><ele>632.5</ele><time>2026-04-29T12:35:46Z</time></trkpt><trkpt lat="41.498411953418376" lon="19.862293809457224"><ele>627.3333333333333</ele><time>2026-04-29T12:35:47Z</time></trkpt><trkpt lat="41.49847310351579" lon="19.862266134311664"><ele>622.1666666666666</ele><time>2026-04-29T12:35:48Z</time></trkpt><trkpt lat="41.49858483423933" lon="19.862204496530456"><ele>617.0</ele><time>2026-04-29T12:35:50Z</time></trkpt><trkpt lat="41.49869409498409" lon="19.86225286455431"><ele>617.6666666666666</ele><time>2026-04-29T12:35:52Z</time></trkpt><trkpt lat="41.49875258821264" lon="19.862336948761453"><ele>618.3333333333333</ele><time>2026-04-29T12:35:53Z</time></trkpt><trkpt lat="41.49881085957484" lon="19.86242098626545"><ele>619.0</ele><time>2026-04-29T12:35:54Z</time></trkpt><trkpt lat="41.4988704375362" lon="19.862498729609385"><ele>619.6666666666666</ele><time>2026-04-29T12:35:55Z</time></trkpt><trkpt lat="41.49887720284046" lon="19.862592115700195"><ele>620.3333333333334</ele><time>2026-04-29T12:35:56Z</time></trkpt><trkpt lat="41.49893316898676" lon="19.86270149182493"><ele>621.0</ele><time>2026-04-29T12:35:58Z</time></trkpt><trkpt lat="41.49899461940162" lon="19.862725722181697"><ele>621.0</ele><time>2026-04-29T12:35:59Z</time></trkpt><trkpt lat="41.49908058505593" lon="19.862718656732905"><ele>621.0</ele><time>2026-04-29T12:36:00Z</time></trkpt><trkpt lat="41.49914411782229" lon="19.862706062657214"><ele>621.0</ele><time>2026-04-29T12:36:01Z</time></trkpt><trkpt lat="41.499189325342634" lon="19.862773121857977"><ele>621.0</ele><time>2026-04-29T12:36:02Z</time></trkpt><trkpt lat="41.49924089545811" lon="19.862827265488527"><ele>621.0</ele><time>2026-04-29T12:36:03Z</time></trkpt><trkpt lat="41.499356692326366" lon="19.862800771295298"><ele>621.0</ele><time>2026-04-29T12:36:05Z</time></trkpt><trkpt lat="41.499390227701284" lon="19.8627064552584"><ele>621.0</ele><time>2026-04-29T12:36:06Z</time></trkpt><trkpt lat="41.49944881074732" lon="19.862666318437935"><ele>621.0</ele><time>2026-04-29T12:36:07Z</time></trkpt><trkpt lat="41.499537795256565" lon="19.862646299745474"><ele>621.0</ele><time>2026-04-29T12:36:09Z</time></trkpt><trkpt lat="41.49962155468712" lon="19.862728256127966"><ele>621.0</ele><time>2026-04-29T12:36:11Z</time></trkpt><trkpt lat="41.499626710317344" lon="19.8629071604749"><ele>621.0</ele><time>2026-04-29T12:36:13Z</time></trkpt><trkpt lat="41.49962773326827" lon="19.86300253874552"><ele>618.0</ele><time>2026-04-29T12:36:14Z</time></trkpt><trkpt lat="41.499630615494254" lon="19.863095391596357"><ele>615.0</ele><time>2026-04-29T12:36:15Z</time></trkpt><trkpt lat="41.49965893391171" lon="19.863187848034208"><ele>612.0</ele><time>2026-04-29T12:36:16Z</time></trkpt><trkpt lat="41.499726808013556" lon="19.863317086661876"><ele>609.0</ele><time>2026-04-29T12:36:18Z</time></trkpt><trkpt lat="41.49982127031611" lon="19.863321044083154"><ele>606.0</ele><time>2026-04-29T12:36:19Z</time></trkpt><trkpt lat="41.49989525712729" lon="19.86333273946286"><ele>603.0</ele><time>2026-04-29T12:36:20Z</time></trkpt><trkpt lat="41.49998970420058" lon="19.86334372280343"><ele>603.0</ele><time>2026-04-29T12:36:21Z</time></trkpt><trkpt lat="41.50006884479867" lon="19.863349851296423"><ele>603.0</ele><time>2026-04-29T12:36:22Z</time></trkpt><trkpt lat="41.50018378899887" lon="19.863404815173368"><ele>603.0</ele><time>2026-04-29T12:36:24Z</time></trkpt><trkpt lat="41.5002032028164" lon="19.863511659491014"><ele>603.0</ele><time>2026-04-29T12:36:25Z</time></trkpt><trkpt lat="41.50025468872708" lon="19.863582960118276"><ele>603.0</ele><time>2026-04-29T12:36:26Z</time></trkpt><trkpt lat="41.500316042129164" lon="19.863635662155662"><ele>603.0</ele><time>2026-04-29T12:36:27Z</time></trkpt><trkpt lat="41.500391920033664" lon="19.863676137060658"><ele>604.5</ele><time>2026-04-29T12:36:28Z</time></trkpt><trkpt lat="41.50048136233851" lon="19.86371590700573"><ele>606.0</ele><time>2026-04-29T12:36:29Z</time></trkpt><trkpt lat="41.50057218169849" lon="19.863754900317222"><ele>607.5</ele><time>2026-04-29T12:36:30Z</time></trkpt><trkpt lat="41.50064093121923" lon="19.86381963227015"><ele>609.0</ele><time>2026-04-29T12:36:31Z</time></trkpt><trkpt lat="41.50070153678493" lon="19.863881204420643"><ele>610.5</ele><time>2026-04-29T12:36:32Z</time></trkpt><trkpt lat="41.50078210229628" lon="19.863898432097614"><ele>612.0</ele><time>2026-04-29T12:36:33Z</time></trkpt><trkpt lat="41.50084693956553" lon="19.863909241596517"><ele>612.0</ele><time>2026-04-29T12:36:34Z</time></trkpt><trkpt lat="41.50090979063701" lon="19.863936313254015"><ele>612.0</ele><time>2026-04-29T12:36:35Z</time></trkpt><trkpt lat="41.50095555242188" lon="19.864012314177074"><ele>612.0</ele><time>2026-04-29T12:36:36Z</time></trkpt><trkpt lat="41.501061706541016" lon="19.864011703763783"><ele>612.0</ele><time>2026-04-29T12:36:38Z</time></trkpt><trkpt lat="41.50110602275205" lon="19.863922325561017"><ele>612.0</ele><time>2026-04-29T12:36:39Z</time></trkpt><trkpt lat="41.501153925086115" lon="19.86384938128068"><ele>612.0</ele><time>2026-04-29T12:36:40Z</time></trkpt><trkpt lat="41.50122254435309" lon="19.86377453942667"><ele>611.0</ele><time>2026-04-29T12:36:41Z</time></trkpt><trkpt lat="41.50128769362548" lon="19.863700512857964"><ele>610.0</ele><time>2026-04-29T12:36:42Z</time></trkpt><trkpt lat="41.50134694854924" lon="19.863667494114473"><ele>609.0</ele><time>2026-04-29T12:36:43Z</time></trkpt><trkpt lat="41.50147582390704" lon="19.863687024683635"><ele>608.0</ele><time>2026-04-29T12:36:45Z</time></trkpt><trkpt lat="41.50155233047198" lon="19.863699857298055"><ele>607.0</ele><time>2026-04-29T12:36:46Z</time></trkpt><trkpt lat="41.501683117869845" lon="19.86373762421938"><ele>607.0</ele><time>2026-04-29T12:36:48Z</time></trkpt><trkpt lat="41.501734050763666" lon="19.863812794661037"><ele>607.0</ele><time>2026-04-29T12:36:49Z</time></trkpt><trkpt lat="41.50175747736491" lon="19.863933810444124"><ele>607.0</ele><time>2026-04-29T12:36:50Z</time></trkpt><trkpt lat="41.50183269343202" lon="19.864002347930487"><ele>607.0</ele><time>2026-04-29T12:36:51Z</time></trkpt><trkpt lat="41.50189269081799" lon="19.864086090453295"><ele>607.0</ele><time>2026-04-29T12:36:52Z</time></trkpt><trkpt lat="41.50196130494819" lon="19.864140323081735"><ele>607.0</ele><time>2026-04-29T12:36:53Z</time></trkpt><trkpt lat="41.50202155782784" lon="19.864229014045385"><ele>607.6666666666667</ele><time>2026-04-29T12:36:54Z</time></trkpt><trkpt lat="41.50207095081567" lon="19.864313256388844"><ele>608.3333333333334</ele><time>2026-04-29T12:36:55Z</time></trkpt><trkpt lat="41.502141047510214" lon="19.86438814636904"><ele>609.0</ele><time>2026-04-29T12:36:56Z</time></trkpt><trkpt lat="41.502186154084896" lon="19.86447688666231"><ele>609.6666666666666</ele><time>2026-04-29T12:36:57Z</time></trkpt><trkpt lat="41.50223046251815" lon="19.864556198077786"><ele>610.3333333333333</ele><time>2026-04-29T12:36:58Z</time></trkpt><trkpt lat="41.502287363957954" lon="19.864623204907936"><ele>611.0</ele><time>2026-04-29T12:36:59Z</time></trkpt><trkpt lat="41.502337240539944" lon="19.864681980413483"><ele>611.0</ele><time>2026-04-29T12:37:00Z</time></trkpt><trkpt lat="41.50243755261408" lon="19.86475889739465"><ele>611.0</ele><time>2026-04-29T12:37:02Z</time></trkpt><trkpt lat="41.50249803285498" lon="19.864719754834976"><ele>611.0</ele><time>2026-04-29T12:37:03Z</time></trkpt><trkpt lat="41.5025685276627" lon="19.864732521773497"><ele>611.0</ele><time>2026-04-29T12:37:04Z</time></trkpt><trkpt lat="41.502629546341694" lon="19.864781982041926"><ele>611.0</ele><time>2026-04-29T12:37:05Z</time></trkpt><trkpt lat="41.502658142827336" lon="19.86489454045561"><ele>611.0</ele><time>2026-04-29T12:37:06Z</time></trkpt><trkpt lat="41.50271666784194" lon="19.864999707549703"><ele>611.0</ele><time>2026-04-29T12:37:07Z</time></trkpt><trkpt lat="41.502814744124" lon="19.86501277829095"><ele>611.0</ele><time>2026-04-29T12:37:08Z</time></trkpt><trkpt lat="41.5028851668411" lon="19.86498413269701"><ele>611.0</ele><time>2026-04-29T12:37:09Z</time></trkpt><trkpt lat="41.5029872540841" lon="19.865061032235662"><ele>611.0</ele><time>2026-04-29T12:37:11Z</time></trkpt><trkpt lat="41.50301526850643" lon="19.865177359752764"><ele>611.0</ele><time>2026-04-29T12:37:13Z</time></trkpt><trkpt lat="41.50304065837362" lon="19.865254975064673"><ele>611.0</ele><time>2026-04-29T12:37:14Z</time></trkpt><trkpt lat="41.50307025994718" lon="19.865349339075507"><ele>613.0</ele><time>2026-04-29T12:37:15Z</time></trkpt><trkpt lat="41.50317348083447" lon="19.86535516619655"><ele>615.0</ele><time>2026-04-29T12:37:16Z</time></trkpt><trkpt lat="41.50326247781476" lon="19.865377727580185"><ele>617.0</ele><time>2026-04-29T12:37:17Z</time></trkpt><trkpt lat="41.50335203916665" lon="19.865407412062364"><ele>619.0</ele><time>2026-04-29T12:37:18Z</time></trkpt><trkpt lat="41.50344666420903" lon="19.86545622261063"><ele>621.0</ele><time>2026-04-29T12:37:19Z</time></trkpt><trkpt lat="41.5034943727898" lon="19.865533309680686"><ele>621.0</ele><time>2026-04-29T12:37:20Z</time></trkpt><trkpt lat="41.50355990436084" lon="19.86557478358536"><ele>621.0</ele><time>2026-04-29T12:37:21Z</time></trkpt><trkpt lat="41.50362523764254" lon="19.86556734701783"><ele>621.0</ele><time>2026-04-29T12:37:22Z</time></trkpt><trkpt lat="41.50373771351645" lon="19.86551780137034"><ele>621.0</ele><time>2026-04-29T12:37:24Z</time></trkpt><trkpt lat="41.503822595424126" lon="19.865455481991745"><ele>621.0</ele><time>2026-04-29T12:37:25Z</time></trkpt><trkpt lat="41.50392067018257" lon="19.86539256523857"><ele>620.6</ele><time>2026-04-29T12:37:26Z</time></trkpt><trkpt lat="41.50400868618806" lon="19.865355161514582"><ele>620.2</ele><time>2026-04-29T12:37:27Z</time></trkpt><trkpt lat="41.50410883472847" lon="19.865324008440624"><ele>619.8</ele><time>2026-04-29T12:37:28Z</time></trkpt><trkpt lat="41.50421421758185" lon="19.865295558620826"><ele>619.4</ele><time>2026-04-29T12:37:29Z</time></trkpt><trkpt lat="41.50429583925884" lon="19.86527475803368"><ele>619.0</ele><time>2026-04-29T12:37:30Z</time></trkpt><trkpt lat="41.5043626816593" lon="19.86525871319196"><ele>619.0</ele><time>2026-04-29T12:37:31Z</time></trkpt><trkpt lat="41.504468368413896" lon="19.86526233568329"><ele>619.0</ele><time>2026-04-29T12:37:33Z</time></trkpt><trkpt lat="41.504501257580024" lon="19.865378707441327"><ele>619.0</ele><time>2026-04-29T12:37:35Z</time></trkpt><trkpt lat="41.50453360360415" lon="19.86553125429393"><ele>619.0</ele><time>2026-04-29T12:37:37Z</time></trkpt><trkpt lat="41.50464251370159" lon="19.865563411921944"><ele>619.0</ele><time>2026-04-29T12:37:39Z</time></trkpt><trkpt lat="41.5047076576821" lon="19.86555248208047"><ele>619.1666666666667</ele><time>2026-04-29T12:37:40Z</time></trkpt><trkpt lat="41.504796870468624" lon="19.86557826568151"><ele>619.3333333333334</ele><time>2026-04-29T12:37:42Z</time></trkpt><trkpt lat="41.50481626103773" lon="19.865686282112648"><ele>619.5</ele><time>2026-04-29T12:37:43Z</time></trkpt><trkpt lat="41.50487066898512" lon="19.865757514117423"><ele>619.6666666666666</ele><time>2026-04-29T12:37:44Z</time></trkpt><trkpt lat="41.50494670264426" lon="19.865811550136634"><ele>619.8333333333333</ele><time>2026-04-29T12:37:45Z</time></trkpt><trkpt lat="41.504982981480474" lon="19.865921676501703"><ele>620.0</ele><time>2026-04-29T12:37:47Z</time></trkpt><trkpt lat="41.50500986363455" lon="19.866064806303545"><ele>620.0</ele><time>2026-04-29T12:37:49Z</time></trkpt><trkpt lat="41.50503685850562" lon="19.866147197502347"><ele>620.0</ele><time>2026-04-29T12:37:50Z</time></trkpt><trkpt lat="41.505107850546196" lon="19.866231238225772"><ele>620.0</ele><time>2026-04-29T12:37:51Z</time></trkpt><trkpt lat="41.50512448665854" lon="19.86635685146236"><ele>620.0</ele><time>2026-04-29T12:37:52Z</time></trkpt><trkpt lat="41.505157135450645" lon="19.86646593192883"><ele>620.0</ele><time>2026-04-29T12:37:53Z</time></trkpt><trkpt lat="41.505191497939954" lon="19.86655351465873"><ele>620.0</ele><time>2026-04-29T12:37:54Z</time></trkpt><trkpt lat="41.50522648925147" lon="19.86664795623744"><ele>620.0</ele><time>2026-04-29T12:37:56Z</time></trkpt><trkpt lat="41.50527568948201" lon="19.866745380328396"><ele>620.0</ele><time>2026-04-29T12:37:58Z</time></trkpt><trkpt lat="41.50531202027457" lon="19.866817169816073"><ele>620.0</ele><time>2026-04-29T12:38:00Z</time></trkpt><trkpt lat="41.50538659338385" lon="19.866791160594936"><ele>620.0</ele><time>2026-04-29T12:38:01Z</time></trkpt><trkpt lat="41.50547339558052" lon="19.866738193857792"><ele>620.0</ele><time>2026-04-29T12:38:02Z</time></trkpt><trkpt lat="41.50553788245428" lon="19.866698254250192"><ele>620.0</ele><time>2026-04-29T12:38:03Z</time></trkpt><trkpt lat="41.50564735459082" lon="19.86666251387901"><ele>618.1666666666666</ele><time>2026-04-29T12:38:05Z</time></trkpt><trkpt lat="41.5057103423156" lon="19.866683379102927"><ele>616.3333333333333</ele><time>2026-04-29T12:38:06Z</time></trkpt><trkpt lat="41.50577949647451" lon="19.866728902970312"><ele>614.5</ele><time>2026-04-29T12:38:07Z</time></trkpt><trkpt lat="41.50585368841875" lon="19.866762559406155"><ele>612.6666666666666</ele><time>2026-04-29T12:38:08Z</time></trkpt><trkpt lat="41.5059318873775" lon="19.86674171264301"><ele>610.8333333333334</ele><time>2026-04-29T12:38:09Z</time></trkpt><trkpt lat="41.50602038313018" lon="19.86670212267743"><ele>609.0</ele><time>2026-04-29T12:38:10Z</time></trkpt><trkpt lat="41.50609647767384" lon="19.866650940292146"><ele>609.0</ele><time>2026-04-29T12:38:11Z</time></trkpt><trkpt lat="41.50616281711569" lon="19.866627205757194"><ele>609.0</ele><time>2026-04-29T12:38:12Z</time></trkpt><trkpt lat="41.506233737511586" lon="19.866610653973005"><ele>609.0</ele><time>2026-04-29T12:38:13Z</time></trkpt><trkpt lat="41.50629596236009" lon="19.866596253089917"><ele>609.0</ele><time>2026-04-29T12:38:14Z</time></trkpt><trkpt lat="41.50639295914529" lon="19.86661720126726"><ele>609.0</ele><time>2026-04-29T12:38:16Z</time></trkpt><trkpt lat="41.50644322682393" lon="19.86673685435114"><ele>609.0</ele><time>2026-04-29T12:38:18Z</time></trkpt><trkpt lat="41.506473685911814" lon="19.86682070516734"><ele>609.8571428571429</ele><time>2026-04-29T12:38:19Z</time></trkpt><trkpt lat="41.50649967258906" lon="19.866902127695518"><ele>610.7142857142858</ele><time>2026-04-29T12:38:20Z</time></trkpt><trkpt lat="41.50652126681441" lon="19.8669893419689"><ele>611.5714285714286</ele><time>2026-04-29T12:38:21Z</time></trkpt><trkpt lat="41.506544720219665" lon="19.867086897272788"><ele>612.4285714285714</ele><time>2026-04-29T12:38:22Z</time></trkpt><trkpt lat="41.50660568110707" lon="19.86715463526024"><ele>613.2857142857143</ele><time>2026-04-29T12:38:23Z</time></trkpt><trkpt lat="41.50663033052419" lon="19.86723638155544"><ele>614.1428571428571</ele><time>2026-04-29T12:38:24Z</time></trkpt><trkpt lat="41.506664020369676" lon="19.86731204076376"><ele>615.0</ele><time>2026-04-29T12:38:25Z</time></trkpt><trkpt lat="41.50668273930646" lon="19.867402954922788"><ele>615.0</ele><time>2026-04-29T12:38:26Z</time></trkpt><trkpt lat="41.506709571501005" lon="19.867514066190672"><ele>615.0</ele><time>2026-04-29T12:38:27Z</time></trkpt><trkpt lat="41.50674101285462" lon="19.86763969089099"><ele>615.0</ele><time>2026-04-29T12:38:28Z</time></trkpt><trkpt lat="41.50677102683163" lon="19.86776749897387"><ele>615.0</ele><time>2026-04-29T12:38:29Z</time></trkpt><trkpt lat="41.50682558575506" lon="19.8678941533359"><ele>615.0</ele><time>2026-04-29T12:38:30Z</time></trkpt><trkpt lat="41.5068841326747" lon="19.867978529248774"><ele>615.3333333333334</ele><time>2026-04-29T12:38:31Z</time></trkpt><trkpt lat="41.50694368466094" lon="19.868086862447836"><ele>615.6666666666666</ele><time>2026-04-29T12:38:32Z</time></trkpt><trkpt lat="41.50701144461251" lon="19.868188463570657"><ele>616.0</ele><time>2026-04-29T12:38:33Z</time></trkpt><trkpt lat="41.50706885017597" lon="19.868271874297623"><ele>616.3333333333333</ele><time>2026-04-29T12:38:34Z</time></trkpt><trkpt lat="41.5071247302806" lon="19.868354819205923"><ele>616.6666666666666</ele><time>2026-04-29T12:38:35Z</time></trkpt><trkpt lat="41.50716351906425" lon="19.8684451579236"><ele>617.0</ele><time>2026-04-29T12:38:36Z</time></trkpt><trkpt lat="41.507206279178796" lon="19.868514806909392"><ele>617.0</ele><time>2026-04-29T12:38:37Z</time></trkpt><trkpt lat="41.5072514442763" lon="19.86857762232975"><ele>617.0</ele><time>2026-04-29T12:38:38Z</time></trkpt><trkpt lat="41.507257716236865" lon="19.8686824965229"><ele>617.0</ele><time>2026-04-29T12:38:39Z</time></trkpt><trkpt lat="41.507280744091574" lon="19.86879075216936"><ele>617.0</ele><time>2026-04-29T12:38:40Z</time></trkpt><trkpt lat="41.50731092066733" lon="19.868886874920364"><ele>617.0</ele><time>2026-04-29T12:38:41Z</time></trkpt><trkpt lat="41.507343238932144" lon="19.868962069117124"><ele>617.0</ele><time>2026-04-29T12:38:42Z</time></trkpt><trkpt lat="41.50739889930031" lon="19.869018183943684"><ele>617.0</ele><time>2026-04-29T12:38:43Z</time></trkpt><trkpt lat="41.507486793149866" lon="19.869128264088406"><ele>617.0</ele><time>2026-04-29T12:38:45Z</time></trkpt><trkpt lat="41.50752694079135" lon="19.869220271675093"><ele>617.0</ele><time>2026-04-29T12:38:46Z</time></trkpt><trkpt lat="41.50756635763369" lon="19.869359990407677"><ele>617.0</ele><time>2026-04-29T12:38:48Z</time></trkpt><trkpt lat="41.507596122822136" lon="19.869448543514242"><ele>617.0</ele><time>2026-04-29T12:38:49Z</time></trkpt><trkpt lat="41.507616658918" lon="19.869559069027087"><ele>617.0</ele><time>2026-04-29T12:38:50Z</time></trkpt><trkpt lat="41.50764566557375" lon="19.86967530830674"><ele>617.0</ele><time>2026-04-29T12:38:51Z</time></trkpt><trkpt lat="41.507638697717915" lon="19.86979086088089"><ele>618.5</ele><time>2026-04-29T12:38:52Z</time></trkpt><trkpt lat="41.50764144814077" lon="19.869904270011176"><ele>620.0</ele><time>2026-04-29T12:38:53Z</time></trkpt><trkpt lat="41.50764068291047" lon="19.870020737934386"><ele>621.5</ele><time>2026-04-29T12:38:54Z</time></trkpt><trkpt lat="41.50763996118715" lon="19.870130584444286"><ele>623.0</ele><time>2026-04-29T12:38:55Z</time></trkpt><trkpt lat="41.507639544505174" lon="19.870242246704354"><ele>624.5</ele><time>2026-04-29T12:38:56Z</time></trkpt><trkpt lat="41.50763954450568" lon="19.870361718138277"><ele>626.0</ele><time>2026-04-29T12:38:57Z</time></trkpt><trkpt lat="41.50774320065801" lon="19.870457143960856"><ele>627.8333333333333</ele><time>2026-04-29T12:38:58Z</time></trkpt><trkpt lat="41.50780096288411" lon="19.870543059086817"><ele>629.6666666666666</ele><time>2026-04-29T12:38:59Z</time></trkpt><trkpt lat="41.50780147099462" lon="19.870670000536492"><ele>631.5</ele><time>2026-04-29T12:39:00Z</time></trkpt><trkpt lat="41.50783205752471" lon="19.87076218064394"><ele>633.3333333333334</ele><time>2026-04-29T12:39:01Z</time></trkpt><trkpt lat="41.50787217260284" lon="19.87086121992435"><ele>635.1666666666667</ele><time>2026-04-29T12:39:02Z</time></trkpt><trkpt lat="41.50792737467164" lon="19.87096654709602"><ele>637.0</ele><time>2026-04-29T12:39:03Z</time></trkpt><trkpt lat="41.50794117120519" lon="19.871066485894453"><ele>632.3333333333334</ele><time>2026-04-29T12:39:04Z</time></trkpt><trkpt lat="41.50796639058675" lon="19.871151834051215"><ele>627.6666666666667</ele><time>2026-04-29T12:39:05Z</time></trkpt><trkpt lat="41.50804120539066" lon="19.871220737605015"><ele>623.0</ele><time>2026-04-29T12:39:06Z</time></trkpt><trkpt lat="41.50809521520046" lon="19.87128299859927"><ele>618.3333333333334</ele><time>2026-04-29T12:39:07Z</time></trkpt><trkpt lat="41.50816203080346" lon="19.871371331095702"><ele>613.6666666666666</ele><time>2026-04-29T12:39:08Z</time></trkpt><trkpt lat="41.508220364033164" lon="19.871456890012183"><ele>609.0</ele><time>2026-04-29T12:39:09Z</time></trkpt><trkpt lat="41.50825736141737" lon="19.87153037079448"><ele>609.0</ele><time>2026-04-29T12:39:10Z</time></trkpt><trkpt lat="41.508302259962825" lon="19.871602371179147"><ele>609.0</ele><time>2026-04-29T12:39:11Z</time></trkpt><trkpt lat="41.508342932292194" lon="19.871674700371585"><ele>609.0</ele><time>2026-04-29T12:39:12Z</time></trkpt><trkpt lat="41.508386209068284" lon="19.87181523725034"><ele>609.0</ele><time>2026-04-29T12:39:14Z</time></trkpt><trkpt lat="41.50838783643611" lon="19.871929867852"><ele>609.0</ele><time>2026-04-29T12:39:15Z</time></trkpt><trkpt lat="41.50840009172519" lon="19.872062891119057"><ele>609.0</ele><time>2026-04-29T12:39:16Z</time></trkpt><trkpt lat="41.50841144184871" lon="19.87216918135853"><ele>609.0</ele><time>2026-04-29T12:39:17Z</time></trkpt><trkpt lat="41.508455182329925" lon="19.87225540621746"><ele>609.0</ele><time>2026-04-29T12:39:18Z</time></trkpt><trkpt lat="41.508491706813494" lon="19.87237787760583"><ele>609.0</ele><time>2026-04-29T12:39:20Z</time></trkpt><trkpt lat="41.508460508769375" lon="19.872551722928115"><ele>609.0</ele><time>2026-04-29T12:39:22Z</time></trkpt><trkpt lat="41.50844757893175" lon="19.872676674935835"><ele>609.0</ele><time>2026-04-29T12:39:23Z</time></trkpt><trkpt lat="41.50843303235265" lon="19.87277879661579"><ele>609.0</ele><time>2026-04-29T12:39:24Z</time></trkpt><trkpt lat="41.50842844748912" lon="19.87289825177113"><ele>609.0</ele><time>2026-04-29T12:39:25Z</time></trkpt><trkpt lat="41.50842330370583" lon="19.873018435928977"><ele>609.0</ele><time>2026-04-29T12:39:26Z</time></trkpt><trkpt lat="41.508425111468256" lon="19.873121477527583"><ele>609.0</ele><time>2026-04-29T12:39:27Z</time></trkpt><trkpt lat="41.508425010644196" lon="19.873230057334975"><ele>609.0</ele><time>2026-04-29T12:39:28Z</time></trkpt><trkpt lat="41.50842305871646" lon="19.873335656527072"><ele>609.0</ele><time>2026-04-29T12:39:29Z</time></trkpt><trkpt lat="41.508455248301054" lon="19.873431178566737"><ele>609.0</ele><time>2026-04-29T12:39:30Z</time></trkpt><trkpt lat="41.50845445711298" lon="19.873523851469265"><ele>609.0</ele><time>2026-04-29T12:39:31Z</time></trkpt><trkpt lat="41.50846293845734" lon="19.873613872633214"><ele>609.0</ele><time>2026-04-29T12:39:32Z</time></trkpt><trkpt lat="41.508468314467805" lon="19.873721118612902"><ele>609.0</ele><time>2026-04-29T12:39:33Z</time></trkpt><trkpt lat="41.508466489796646" lon="19.873830025660176"><ele>609.0</ele><time>2026-04-29T12:39:34Z</time></trkpt><trkpt lat="41.508461754363864" lon="19.87391739377817"><ele>609.0</ele><time>2026-04-29T12:39:35Z</time></trkpt><trkpt lat="41.50842657611654" lon="19.874022433169863"><ele>609.0</ele><time>2026-04-29T12:39:37Z</time></trkpt><trkpt lat="41.5083823395832" lon="19.87412539838063"><ele>609.0</ele><time>2026-04-29T12:39:39Z</time></trkpt><trkpt lat="41.50832515629001" lon="19.874219511089876"><ele>609.0</ele><time>2026-04-29T12:39:41Z</time></trkpt><trkpt lat="41.50839095938548" lon="19.874266221862626"><ele>609.0</ele><time>2026-04-29T12:39:43Z</time></trkpt><trkpt lat="41.5085198120734" lon="19.87434116068512"><ele>609.0</ele><time>2026-04-29T12:39:45Z</time></trkpt><trkpt lat="41.508572634095394" lon="19.874427993783893"><ele>610.4</ele><time>2026-04-29T12:39:46Z</time></trkpt><trkpt lat="41.50853420848021" lon="19.874542643297566"><ele>611.8</ele><time>2026-04-29T12:39:47Z</time></trkpt><trkpt lat="41.50853154444466" lon="19.874685857550368"><ele>613.2</ele><time>2026-04-29T12:39:49Z</time></trkpt><trkpt lat="41.50854308069392" lon="19.87476888581384"><ele>614.6</ele><time>2026-04-29T12:39:50Z</time></trkpt><trkpt lat="41.50859390705887" lon="19.87492040179935"><ele>616.0</ele><time>2026-04-29T12:39:53Z</time></trkpt><trkpt lat="41.50871773572253" lon="19.874987988345165"><ele>616.0</ele><time>2026-04-29T12:39:55Z</time></trkpt><trkpt lat="41.50885254705816" lon="19.8748941024487"><ele>616.0</ele><time>2026-04-29T12:40:00Z</time></trkpt><trkpt lat="41.50887357706553" lon="19.874798889378088"><ele>616.0</ele><time>2026-04-29T12:40:20Z</time></trkpt><trkpt lat="41.508813914740465" lon="19.874908476089626"><ele>616.0</ele><time>2026-04-29T12:40:35Z</time></trkpt><trkpt lat="41.50856157219066" lon="19.874801679908114"><ele>616.0</ele><time>2026-04-29T12:41:00Z</time></trkpt><trkpt lat="41.50855212411226" lon="19.87470463388038"><ele>616.0</ele><time>2026-04-29T12:41:02Z</time></trkpt><trkpt lat="41.50856404884971" lon="19.87462002214787"><ele>616.0</ele><time>2026-04-29T12:41:04Z</time></trkpt><trkpt lat="41.508548255950195" lon="19.874713466828343"><ele>616.0</ele><time>2026-04-29T12:41:21Z</time></trkpt><trkpt lat="41.50857714944968" lon="19.87481619874524"><ele>616.0</ele><time>2026-04-29T12:41:24Z</time></trkpt><trkpt lat="41.508648403561246" lon="19.874846741369463"><ele>616.0</ele><time>2026-04-29T12:41:58Z</time></trkpt><trkpt lat="41.50871180075005" lon="19.874849955363224"><ele>616.0</ele><time>2026-04-29T12:42:00Z</time></trkpt><trkpt lat="41.50880873328576" lon="19.874837708084332"><ele>615.3333333333334</ele><time>2026-04-29T12:42:02Z</time></trkpt><trkpt lat="41.50886371211583" lon="19.874782799048084"><ele>614.6666666666667</ele><time>2026-04-29T12:42:04Z</time></trkpt><trkpt lat="41.50890033941292" lon="19.874692581409537"><ele>614.0</ele><time>2026-04-29T12:42:05Z</time></trkpt><trkpt lat="41.50891863771949" lon="19.87459736202658"><ele>613.3333333333334</ele><time>2026-04-29T12:42:06Z</time></trkpt><trkpt lat="41.508938453743085" lon="19.87451420075798"><ele>612.6666666666666</ele><time>2026-04-29T12:42:07Z</time></trkpt><trkpt lat="41.509005325902066" lon="19.874441007036353"><ele>612.0</ele><time>2026-04-29T12:42:09Z</time></trkpt><trkpt lat="41.509111254651565" lon="19.874391555871355"><ele>612.0</ele><time>2026-04-29T12:42:11Z</time></trkpt><trkpt lat="41.50918804515629" lon="19.874307417516007"><ele>612.0</ele><time>2026-04-29T12:42:13Z</time></trkpt><trkpt lat="41.509209077663364" lon="19.874223779424486"><ele>612.0</ele><time>2026-04-29T12:42:15Z</time></trkpt><trkpt lat="41.50922541423275" lon="19.87406158507973"><ele>612.0</ele><time>2026-04-29T12:42:17Z</time></trkpt><trkpt lat="41.50925498784349" lon="19.873930293066028"><ele>612.0</ele><time>2026-04-29T12:42:19Z</time></trkpt><trkpt lat="41.509342656621634" lon="19.87384270471011"><ele>611.8333333333334</ele><time>2026-04-29T12:42:21Z</time></trkpt><trkpt lat="41.509396576443045" lon="19.87379502262193"><ele>611.6666666666666</ele><time>2026-04-29T12:42:22Z</time></trkpt><trkpt lat="41.50945090645166" lon="19.873735077104016"><ele>611.5</ele><time>2026-04-29T12:42:23Z</time></trkpt><trkpt lat="41.50950635429314" lon="19.873656835132422"><ele>611.3333333333333</ele><time>2026-04-29T12:42:24Z</time></trkpt><trkpt lat="41.50955602555388" lon="19.873572407306323"><ele>611.1666666666666</ele><time>2026-04-29T12:42:25Z</time></trkpt><trkpt lat="41.50962371323697" lon="19.873444388875065"><ele>611.0</ele><time>2026-04-29T12:42:27Z</time></trkpt><trkpt lat="41.509677024561235" lon="19.873365688789278"><ele>611.0</ele><time>2026-04-29T12:42:28Z</time></trkpt><trkpt lat="41.50973587308797" lon="19.873299741785026"><ele>611.0</ele><time>2026-04-29T12:42:29Z</time></trkpt><trkpt lat="41.509840552872284" lon="19.873237729555242"><ele>611.0</ele><time>2026-04-29T12:42:31Z</time></trkpt><trkpt lat="41.509908540196484" lon="19.87321944330794"><ele>611.0</ele><time>2026-04-29T12:42:32Z</time></trkpt><trkpt lat="41.509980851211445" lon="19.873199761627028"><ele>611.0</ele><time>2026-04-29T12:42:33Z</time></trkpt><trkpt lat="41.510051574978625" lon="19.87315535050362"><ele>611.0</ele><time>2026-04-29T12:42:34Z</time></trkpt><trkpt lat="41.51011075386961" lon="19.873080621587174"><ele>611.0</ele><time>2026-04-29T12:42:35Z</time></trkpt><trkpt lat="41.51014917058096" lon="19.87301150131974"><ele>611.0</ele><time>2026-04-29T12:42:36Z</time></trkpt><trkpt lat="41.51022974072992" lon="19.872923332318262"><ele>611.0</ele><time>2026-04-29T12:42:38Z</time></trkpt><trkpt lat="41.510335081580905" lon="19.872860064763046"><ele>611.0</ele><time>2026-04-29T12:42:40Z</time></trkpt><trkpt lat="41.510442659696885" lon="19.872883341427926"><ele>611.0</ele><time>2026-04-29T12:42:42Z</time></trkpt><trkpt lat="41.51054577987308" lon="19.872954276062323"><ele>616.1666666666666</ele><time>2026-04-29T12:42:44Z</time></trkpt><trkpt lat="41.51060267960568" lon="19.8729952845435"><ele>621.3333333333333</ele><time>2026-04-29T12:42:45Z</time></trkpt><trkpt lat="41.51066160393697" lon="19.873037753716368"><ele>626.5</ele><time>2026-04-29T12:42:46Z</time></trkpt><trkpt lat="41.51072709965961" lon="19.873040091189473"><ele>631.6666666666666</ele><time>2026-04-29T12:42:47Z</time></trkpt><trkpt lat="41.51083141551548" lon="19.873057260044813"><ele>636.8333333333334</ele><time>2026-04-29T12:42:49Z</time></trkpt><trkpt lat="41.510928244710506" lon="19.873062685313993"><ele>642.0</ele><time>2026-04-29T12:42:51Z</time></trkpt><trkpt lat="41.511001723847656" lon="19.87305049963144"><ele>642.0</ele><time>2026-04-29T12:42:53Z</time></trkpt><trkpt lat="41.511089362197154" lon="19.87301941777742"><ele>642.0</ele><time>2026-04-29T12:42:56Z</time></trkpt><trkpt lat="41.511161434714836" lon="19.8729723371101"><ele>642.0</ele><time>2026-04-29T12:42:59Z</time></trkpt><trkpt lat="41.51120400119934" lon="19.87288744889503"><ele>642.0</ele><time>2026-04-29T12:43:01Z</time></trkpt><trkpt lat="41.51124299838552" lon="19.8727860481977"><ele>642.0</ele><time>2026-04-29T12:43:03Z</time></trkpt><trkpt lat="41.511170761398404" lon="19.87268361165664"><ele>642.0</ele><time>2026-04-29T12:43:05Z</time></trkpt><trkpt lat="41.511080553116365" lon="19.872605672646365"><ele>637.6666666666666</ele><time>2026-04-29T12:43:07Z</time></trkpt><trkpt lat="41.5110308819223" lon="19.87254930225668"><ele>633.3333333333334</ele><time>2026-04-29T12:43:08Z</time></trkpt><trkpt lat="41.511000947781525" lon="19.87247330291609"><ele>629.0</ele><time>2026-04-29T12:43:09Z</time></trkpt><trkpt lat="41.51097279939578" lon="19.872387817314365"><ele>624.6666666666667</ele><time>2026-04-29T12:43:10Z</time></trkpt><trkpt lat="41.51091542769014" lon="19.87230139422909"><ele>620.3333333333334</ele><time>2026-04-29T12:43:11Z</time></trkpt><trkpt lat="41.510865155355006" lon="19.872201133491007"><ele>616.0</ele><time>2026-04-29T12:43:12Z</time></trkpt><trkpt lat="41.51080989849172" lon="19.87210810877579"><ele>616.0</ele><time>2026-04-29T12:43:13Z</time></trkpt><trkpt lat="41.51075435267784" lon="19.872012728446183"><ele>616.0</ele><time>2026-04-29T12:43:14Z</time></trkpt><trkpt lat="41.51067269637278" lon="19.871891496471658"><ele>616.0</ele><time>2026-04-29T12:43:16Z</time></trkpt><trkpt lat="41.5106175409764" lon="19.871765444777953"><ele>616.0</ele><time>2026-04-29T12:43:18Z</time></trkpt><trkpt lat="41.51063655784281" lon="19.871623094874945"><ele>616.0</ele><time>2026-04-29T12:43:20Z</time></trkpt><trkpt lat="41.510637674250724" lon="19.871520350389424"><ele>617.3333333333334</ele><time>2026-04-29T12:43:21Z</time></trkpt><trkpt lat="41.51068203964224" lon="19.871424685301257"><ele>618.6666666666667</ele><time>2026-04-29T12:43:22Z</time></trkpt><trkpt lat="41.51071388796305" lon="19.871312073726756"><ele>620.0</ele><time>2026-04-29T12:43:23Z</time></trkpt><trkpt lat="41.51071723529082" lon="19.871197532765834"><ele>621.3333333333334</ele><time>2026-04-29T12:43:24Z</time></trkpt><trkpt lat="41.510720413601064" lon="19.871085388961856"><ele>622.6666666666666</ele><time>2026-04-29T12:43:25Z</time></trkpt><trkpt lat="41.510752734774314" lon="19.871002485442105"><ele>624.0</ele><time>2026-04-29T12:43:26Z</time></trkpt><trkpt lat="41.510840304036755" lon="19.870871066682508"><ele>624.2</ele><time>2026-04-29T12:43:28Z</time></trkpt><trkpt lat="41.510904717210465" lon="19.870805125083926"><ele>624.4</ele><time>2026-04-29T12:43:29Z</time></trkpt><trkpt lat="41.51095802112526" lon="19.87075332202228"><ele>624.6</ele><time>2026-04-29T12:43:30Z</time></trkpt><trkpt lat="41.51098877585022" lon="19.870617790021413"><ele>624.8</ele><time>2026-04-29T12:43:32Z</time></trkpt><trkpt lat="41.510907187237564" lon="19.870473773696684"><ele>625.0</ele><time>2026-04-29T12:43:34Z</time></trkpt><trkpt lat="41.51083834441161" lon="19.870470653814724"><ele>625.0</ele><time>2026-04-29T12:43:35Z</time></trkpt><trkpt lat="41.51072384183401" lon="19.87037139826318"><ele>625.0</ele><time>2026-04-29T12:43:37Z</time></trkpt><trkpt lat="41.51067610779757" lon="19.87029665640802"><ele>625.0</ele><time>2026-04-29T12:43:38Z</time></trkpt><trkpt lat="41.51067003150815" lon="19.870196956699242"><ele>625.0</ele><time>2026-04-29T12:43:39Z</time></trkpt><trkpt lat="41.510720417146736" lon="19.87009684165816"><ele>625.0</ele><time>2026-04-29T12:43:40Z</time></trkpt><trkpt lat="41.51075300118169" lon="19.869990155274902"><ele>625.6</ele><time>2026-04-29T12:43:41Z</time></trkpt><trkpt lat="41.51080075837077" lon="19.869892742237035"><ele>626.2</ele><time>2026-04-29T12:43:42Z</time></trkpt><trkpt lat="41.51083360767962" lon="19.86977544146117"><ele>626.8</ele><time>2026-04-29T12:43:43Z</time></trkpt><trkpt lat="41.51084799345531" lon="19.869657533153276"><ele>627.4</ele><time>2026-04-29T12:43:44Z</time></trkpt><trkpt lat="41.510860590928914" lon="19.869503053405758"><ele>628.0</ele><time>2026-04-29T12:43:45Z</time></trkpt><trkpt lat="41.51086831463133" lon="19.86936375905709"><ele>629.1666666666667</ele><time>2026-04-29T12:43:46Z</time></trkpt><trkpt lat="41.51088685585049" lon="19.869252350940787"><ele>630.3333333333334</ele><time>2026-04-29T12:43:47Z</time></trkpt><trkpt lat="41.51092586122341" lon="19.869139212324153"><ele>631.5</ele><time>2026-04-29T12:43:48Z</time></trkpt><trkpt lat="41.5110012822059" lon="19.869038603291337"><ele>632.6666666666666</ele><time>2026-04-29T12:43:49Z</time></trkpt><trkpt lat="41.5110433747002" lon="19.868944097816087"><ele>633.8333333333333</ele><time>2026-04-29T12:43:50Z</time></trkpt><trkpt lat="41.511072197471265" lon="19.86885548087054"><ele>635.0</ele><time>2026-04-29T12:43:51Z</time></trkpt><trkpt lat="41.511075830514265" lon="19.868746289042498"><ele>635.0</ele><time>2026-04-29T12:43:52Z</time></trkpt><trkpt lat="41.511085013674716" lon="19.868638568220263"><ele>635.0</ele><time>2026-04-29T12:43:53Z</time></trkpt><trkpt lat="41.51114546437787" lon="19.868582951757432"><ele>635.0</ele><time>2026-04-29T12:43:54Z</time></trkpt><trkpt lat="41.51123074163786" lon="19.86845931209816"><ele>635.0</ele><time>2026-04-29T12:43:56Z</time></trkpt><trkpt lat="41.51128494224269" lon="19.86839542159479"><ele>635.0</ele><time>2026-04-29T12:43:57Z</time></trkpt><trkpt lat="41.51133758342656" lon="19.868289562272174"><ele>635.0</ele><time>2026-04-29T12:43:58Z</time></trkpt><trkpt lat="41.5113936941473" lon="19.86818977071729"><ele>641.0</ele><time>2026-04-29T12:43:59Z</time></trkpt><trkpt lat="41.51145947990353" lon="19.868119936849528"><ele>647.0</ele><time>2026-04-29T12:44:00Z</time></trkpt><trkpt lat="41.511559411789264" lon="19.86809904386164"><ele>653.0</ele><time>2026-04-29T12:44:02Z</time></trkpt><trkpt lat="41.51166377817658" lon="19.868098616726368"><ele>659.0</ele><time>2026-04-29T12:44:04Z</time></trkpt><trkpt lat="41.51166718659075" lon="19.86799354697287"><ele>665.0</ele><time>2026-04-29T12:44:06Z</time></trkpt><trkpt lat="41.51164124429221" lon="19.867838378851154"><ele>665.0</ele><time>2026-04-29T12:44:08Z</time></trkpt><trkpt lat="41.51159517701464" lon="19.86775464945658"><ele>665.0</ele><time>2026-04-29T12:44:09Z</time></trkpt><trkpt lat="41.51153540261172" lon="19.86769151393454"><ele>665.0</ele><time>2026-04-29T12:44:10Z</time></trkpt><trkpt lat="41.51147321116563" lon="19.867624960619498"><ele>665.0</ele><time>2026-04-29T12:44:11Z</time></trkpt><trkpt lat="41.51140347684559" lon="19.867560487788417"><ele>665.0</ele><time>2026-04-29T12:44:12Z</time></trkpt><trkpt lat="41.511352224481506" lon="19.867487658282368"><ele>665.0</ele><time>2026-04-29T12:44:13Z</time></trkpt><trkpt lat="41.511354812478984" lon="19.867397392834288"><ele>664.8333333333333</ele><time>2026-04-29T12:44:14Z</time></trkpt><trkpt lat="41.51137336407754" lon="19.86722335641251"><ele>664.6666666666666</ele><time>2026-04-29T12:44:16Z</time></trkpt><trkpt lat="41.51142664019738" lon="19.86714943592183"><ele>664.5</ele><time>2026-04-29T12:44:17Z</time></trkpt><trkpt lat="41.51145699041955" lon="19.867050078416714"><ele>664.3333333333334</ele><time>2026-04-29T12:44:18Z</time></trkpt><trkpt lat="41.51144481614908" lon="19.866965655255377"><ele>664.1666666666667</ele><time>2026-04-29T12:44:19Z</time></trkpt><trkpt lat="41.51143988612209" lon="19.866873098509146"><ele>664.0</ele><time>2026-04-29T12:44:20Z</time></trkpt><trkpt lat="41.511384446723824" lon="19.866780332574123"><ele>665.2</ele><time>2026-04-29T12:44:21Z</time></trkpt><trkpt lat="41.51136440363194" lon="19.866672077798793"><ele>666.4000000000001</ele><time>2026-04-29T12:44:22Z</time></trkpt><trkpt lat="41.511340314592104" lon="19.86656362137691"><ele>667.6</ele><time>2026-04-29T12:44:23Z</time></trkpt><trkpt lat="41.51132360913188" lon="19.866439590493428"><ele>668.8</ele><time>2026-04-29T12:44:24Z</time></trkpt><trkpt lat="41.51131221552743" lon="19.86634185666987"><ele>670.0</ele><time>2026-04-29T12:44:25Z</time></trkpt><trkpt lat="41.51138743333091" lon="19.866212267939336"><ele>670.0</ele><time>2026-04-29T12:44:27Z</time></trkpt><trkpt lat="41.511440013968446" lon="19.866114941368355"><ele>670.0</ele><time>2026-04-29T12:44:28Z</time></trkpt><trkpt lat="41.51148550238029" lon="19.865993729387196"><ele>670.0</ele><time>2026-04-29T12:44:29Z</time></trkpt><trkpt lat="41.511560175528885" lon="19.86592163092483"><ele>670.0</ele><time>2026-04-29T12:44:30Z</time></trkpt><trkpt lat="41.511632557290554" lon="19.865834549388243"><ele>670.0</ele><time>2026-04-29T12:44:31Z</time></trkpt><trkpt lat="41.511706421195726" lon="19.86575361152427"><ele>668.5</ele><time>2026-04-29T12:44:32Z</time></trkpt><trkpt lat="41.511764838896326" lon="19.86570328844448"><ele>667.0</ele><time>2026-04-29T12:44:33Z</time></trkpt><trkpt lat="41.51183360508438" lon="19.865670520309575"><ele>665.5</ele><time>2026-04-29T12:44:34Z</time></trkpt><trkpt lat="41.51190961072076" lon="19.865647973373417"><ele>664.0</ele><time>2026-04-29T12:44:35Z</time></trkpt><trkpt lat="41.51199559718996" lon="19.865609209959455"><ele>662.5</ele><time>2026-04-29T12:44:36Z</time></trkpt><trkpt lat="41.51206948947924" lon="19.86556568452703"><ele>661.0</ele><time>2026-04-29T12:44:37Z</time></trkpt><trkpt lat="41.512124556495245" lon="19.865470288111748"><ele>665.5999999999999</ele><time>2026-04-29T12:44:38Z</time></trkpt><trkpt lat="41.512169290336146" lon="19.865308907783103"><ele>670.2</ele><time>2026-04-29T12:44:40Z</time></trkpt><trkpt lat="41.5122021956335" lon="19.865174599174274"><ele>674.8</ele><time>2026-04-29T12:44:41Z</time></trkpt><trkpt lat="41.5122731257651" lon="19.86509278016149"><ele>679.4000000000001</ele><time>2026-04-29T12:44:42Z</time></trkpt><trkpt lat="41.51232426467007" lon="19.864984895311604"><ele>684.0</ele><time>2026-04-29T12:44:43Z</time></trkpt><trkpt lat="41.512403174154095" lon="19.86485944375727"><ele>684.0</ele><time>2026-04-29T12:44:44Z</time></trkpt><trkpt lat="41.51248718464424" lon="19.86476338060022"><ele>684.0</ele><time>2026-04-29T12:44:45Z</time></trkpt><trkpt lat="41.51255672570918" lon="19.864669509401732"><ele>684.0</ele><time>2026-04-29T12:44:46Z</time></trkpt><trkpt lat="41.512621056439734" lon="19.86458754546428"><ele>684.0</ele><time>2026-04-29T12:44:47Z</time></trkpt><trkpt lat="41.512708694565724" lon="19.864558829573166"><ele>684.0</ele><time>2026-04-29T12:44:48Z</time></trkpt><trkpt lat="41.51277085552075" lon="19.864451733199108"><ele>684.0</ele><time>2026-04-29T12:44:49Z</time></trkpt><trkpt lat="41.512838182282614" lon="19.864350167987528"><ele>684.0</ele><time>2026-04-29T12:44:50Z</time></trkpt><trkpt lat="41.51290690560775" lon="19.864251013758086"><ele>684.0</ele><time>2026-04-29T12:44:51Z</time></trkpt><trkpt lat="41.5130043910228" lon="19.864208824004127"><ele>684.0</ele><time>2026-04-29T12:44:52Z</time></trkpt><trkpt lat="41.513088505814196" lon="19.864142366378637"><ele>684.0</ele><time>2026-04-29T12:44:53Z</time></trkpt><trkpt lat="41.51319189945961" lon="19.864143087339468"><ele>685.0</ele><time>2026-04-29T12:44:54Z</time></trkpt><trkpt lat="41.513279117850615" lon="19.864142180224118"><ele>686.0</ele><time>2026-04-29T12:44:55Z</time></trkpt><trkpt lat="41.51336676914381" lon="19.864154949225533"><ele>687.0</ele><time>2026-04-29T12:44:56Z</time></trkpt><trkpt lat="41.51346493458678" lon="19.864186576162613"><ele>688.0</ele><time>2026-04-29T12:44:57Z</time></trkpt><trkpt lat="41.51354736240821" lon="19.864218957790023"><ele>689.0</ele><time>2026-04-29T12:44:58Z</time></trkpt><trkpt lat="41.51361361428228" lon="19.864215441845666"><ele>690.0</ele><time>2026-04-29T12:44:59Z</time></trkpt><trkpt lat="41.5137311533114" lon="19.86413307925428"><ele>690.0</ele><time>2026-04-29T12:45:01Z</time></trkpt><trkpt lat="41.51376390073089" lon="19.86398825582943"><ele>690.0</ele><time>2026-04-29T12:45:02Z</time></trkpt><trkpt lat="41.51377996541521" lon="19.86388836746254"><ele>690.0</ele><time>2026-04-29T12:45:03Z</time></trkpt><trkpt lat="41.513761515130184" lon="19.86379897406414"><ele>690.0</ele><time>2026-04-29T12:45:04Z</time></trkpt><trkpt lat="41.51372435579016" lon="19.863710201878035"><ele>690.0</ele><time>2026-04-29T12:45:05Z</time></trkpt><trkpt lat="41.513663431975495" lon="19.863584225192426"><ele>690.0</ele><time>2026-04-29T12:45:06Z</time></trkpt><trkpt lat="41.513611801188894" lon="19.86344295386448"><ele>688.5714285714286</ele><time>2026-04-29T12:45:07Z</time></trkpt><trkpt lat="41.51357634883887" lon="19.863351504393496"><ele>687.1428571428571</ele><time>2026-04-29T12:45:08Z</time></trkpt><trkpt lat="41.513553744827135" lon="19.863270182807845"><ele>685.7142857142858</ele><time>2026-04-29T12:45:09Z</time></trkpt><trkpt lat="41.51356277649632" lon="19.86317516503974"><ele>684.2857142857142</ele><time>2026-04-29T12:45:10Z</time></trkpt><trkpt lat="41.51358096157978" lon="19.863089555785066"><ele>682.8571428571428</ele><time>2026-04-29T12:45:11Z</time></trkpt><trkpt lat="41.5136241252057" lon="19.863007898594006"><ele>681.4285714285714</ele><time>2026-04-29T12:45:12Z</time></trkpt><trkpt lat="41.51367238252949" lon="19.86290168419224"><ele>680.0</ele><time>2026-04-29T12:45:13Z</time></trkpt><trkpt lat="41.51371932045705" lon="19.862773483097968"><ele>686.8333333333333</ele><time>2026-04-29T12:45:14Z</time></trkpt><trkpt lat="41.513780188523185" lon="19.86265587074089"><ele>693.6666666666666</ele><time>2026-04-29T12:45:15Z</time></trkpt><trkpt lat="41.513824520226414" lon="19.862561055176993"><ele>700.5</ele><time>2026-04-29T12:45:16Z</time></trkpt><trkpt lat="41.513842208052495" lon="19.862469296250847"><ele>707.3333333333334</ele><time>2026-04-29T12:45:17Z</time></trkpt><trkpt lat="41.5138284117299" lon="19.86236649259643"><ele>714.1666666666667</ele><time>2026-04-29T12:45:18Z</time></trkpt><trkpt lat="41.51382175525254" lon="19.86222986006552"><ele>721.0</ele><time>2026-04-29T12:45:19Z</time></trkpt><trkpt lat="41.51381251132876" lon="19.862081368118968"><ele>721.0</ele><time>2026-04-29T12:45:20Z</time></trkpt><trkpt lat="41.51380233862067" lon="19.861976431055396"><ele>721.0</ele><time>2026-04-29T12:45:21Z</time></trkpt><trkpt lat="41.51379994856994" lon="19.861889912763402"><ele>721.0</ele><time>2026-04-29T12:45:22Z</time></trkpt><trkpt lat="41.513854784221806" lon="19.861760857221558"><ele>721.0</ele><time>2026-04-29T12:45:24Z</time></trkpt><trkpt lat="41.51394173791965" lon="19.86176452037078"><ele>721.0</ele><time>2026-04-29T12:45:25Z</time></trkpt><trkpt lat="41.51402479415358" lon="19.86164558848655"><ele>721.5999999999999</ele><time>2026-04-29T12:45:27Z</time></trkpt><trkpt lat="41.51401064093984" lon="19.861550624706734"><ele>722.2</ele><time>2026-04-29T12:45:28Z</time></trkpt><trkpt lat="41.5139174124192" lon="19.861488662094644"><ele>722.8</ele><time>2026-04-29T12:45:29Z</time></trkpt><trkpt lat="41.51383537497176" lon="19.861443653208532"><ele>723.4000000000001</ele><time>2026-04-29T12:45:30Z</time></trkpt><trkpt lat="41.513743078977086" lon="19.861395073184504"><ele>724.0</ele><time>2026-04-29T12:45:31Z</time></trkpt><trkpt lat="41.513638138625524" lon="19.861301212998423"><ele>714.25</ele><time>2026-04-29T12:45:32Z</time></trkpt><trkpt lat="41.51351946323099" lon="19.861226590465204"><ele>704.5</ele><time>2026-04-29T12:45:33Z</time></trkpt><trkpt lat="41.51341742881589" lon="19.86118490514424"><ele>694.75</ele><time>2026-04-29T12:45:34Z</time></trkpt><trkpt lat="41.51329434550316" lon="19.861097949744963"><ele>685.0</ele><time>2026-04-29T12:45:35Z</time></trkpt><trkpt lat="41.513202068235714" lon="19.86104916711889"><ele>685.0</ele><time>2026-04-29T12:45:36Z</time></trkpt><trkpt lat="41.51313185542117" lon="19.8610120492681"><ele>685.0</ele><time>2026-04-29T12:45:37Z</time></trkpt><trkpt lat="41.513080608160614" lon="19.86095953503903"><ele>685.0</ele><time>2026-04-29T12:45:38Z</time></trkpt><trkpt lat="41.51306214286125" lon="19.860828641022305"><ele>685.0</ele><time>2026-04-29T12:45:40Z</time></trkpt><trkpt lat="41.51315757877689" lon="19.860739447996167"><ele>685.0</ele><time>2026-04-29T12:45:42Z</time></trkpt><trkpt lat="41.513231821260014" lon="19.860711044461883"><ele>685.0</ele><time>2026-04-29T12:45:43Z</time></trkpt><trkpt lat="41.51331856251739" lon="19.860629656921923"><ele>688.0</ele><time>2026-04-29T12:45:44Z</time></trkpt><trkpt lat="41.51341225943884" lon="19.860558082400022"><ele>691.0</ele><time>2026-04-29T12:45:45Z</time></trkpt><trkpt lat="41.51352456216168" lon="19.86047846707569"><ele>694.0</ele><time>2026-04-29T12:45:46Z</time></trkpt><trkpt lat="41.51362406768385" lon="19.860426955206254"><ele>697.0</ele><time>2026-04-29T12:45:47Z</time></trkpt><trkpt lat="41.51371143677912" lon="19.86036127262149"><ele>700.0</ele><time>2026-04-29T12:45:48Z</time></trkpt><trkpt lat="41.51379072208362" lon="19.860262889190626"><ele>703.4</ele><time>2026-04-29T12:45:49Z</time></trkpt><trkpt lat="41.51384917556666" lon="19.860147433191738"><ele>706.8</ele><time>2026-04-29T12:45:50Z</time></trkpt><trkpt lat="41.513898725938596" lon="19.86003501317856"><ele>710.2</ele><time>2026-04-29T12:45:51Z</time></trkpt><trkpt lat="41.51392981154582" lon="19.859904283567428"><ele>713.6</ele><time>2026-04-29T12:45:52Z</time></trkpt><trkpt lat="41.51395015826504" lon="19.859799587030313"><ele>717.0</ele><time>2026-04-29T12:45:53Z</time></trkpt><trkpt lat="41.513974782561185" lon="19.859704115837484"><ele>717.0</ele><time>2026-04-29T12:45:54Z</time></trkpt><trkpt lat="41.51401158790915" lon="19.85961641189817"><ele>717.0</ele><time>2026-04-29T12:45:55Z</time></trkpt><trkpt lat="41.51406365602908" lon="19.859554133902236"><ele>717.0</ele><time>2026-04-29T12:45:56Z</time></trkpt><trkpt lat="41.514144474259254" lon="19.859564662360782"><ele>717.0</ele><time>2026-04-29T12:45:57Z</time></trkpt><trkpt lat="41.51422118381877" lon="19.859580016184886"><ele>717.0</ele><time>2026-04-29T12:45:58Z</time></trkpt><trkpt lat="41.5143076040894" lon="19.85962379528175"><ele>717.0</ele><time>2026-04-29T12:45:59Z</time></trkpt><trkpt lat="41.514381599819146" lon="19.85960199446399"><ele>717.0</ele><time>2026-04-29T12:46:00Z</time></trkpt><trkpt lat="41.514450910925824" lon="19.859553082172688"><ele>717.0</ele><time>2026-04-29T12:46:01Z</time></trkpt><trkpt lat="41.51452830388284" lon="19.859468262851838"><ele>717.0</ele><time>2026-04-29T12:46:02Z</time></trkpt><trkpt lat="41.51459696285664" lon="19.859364750130652"><ele>717.0</ele><time>2026-04-29T12:46:03Z</time></trkpt><trkpt lat="41.514624951055325" lon="19.859279394721884"><ele>717.0</ele><time>2026-04-29T12:46:04Z</time></trkpt><trkpt lat="41.51463352426076" lon="19.85918049251498"><ele>717.0</ele><time>2026-04-29T12:46:05Z</time></trkpt><trkpt lat="41.51463929238697" lon="19.859078130531827"><ele>715.8333333333334</ele><time>2026-04-29T12:46:06Z</time></trkpt><trkpt lat="41.51467770463343" lon="19.859003995706043"><ele>714.6666666666666</ele><time>2026-04-29T12:46:07Z</time></trkpt><trkpt lat="41.51471685974531" lon="19.858935502271954"><ele>713.5</ele><time>2026-04-29T12:46:08Z</time></trkpt><trkpt lat="41.51482806801398" lon="19.858857473755954"><ele>712.3333333333333</ele><time>2026-04-29T12:46:10Z</time></trkpt><trkpt lat="41.51490076175035" lon="19.8588198264752"><ele>711.1666666666666</ele><time>2026-04-29T12:46:11Z</time></trkpt><trkpt lat="41.51499929513673" lon="19.858854779430263"><ele>710.0</ele><time>2026-04-29T12:46:12Z</time></trkpt><trkpt lat="41.515078065712245" lon="19.858816967328252"><ele>710.0</ele><time>2026-04-29T12:46:13Z</time></trkpt><trkpt lat="41.515193047085525" lon="19.85877301442173"><ele>710.0</ele><time>2026-04-29T12:46:15Z</time></trkpt><trkpt lat="41.5152488615874" lon="19.858714570363613"><ele>710.0</ele><time>2026-04-29T12:46:16Z</time></trkpt><trkpt lat="41.51531295193848" lon="19.85866041494759"><ele>710.0</ele><time>2026-04-29T12:46:17Z</time></trkpt><trkpt lat="41.51538005066965" lon="19.85863782334978"><ele>710.0</ele><time>2026-04-29T12:46:18Z</time></trkpt><trkpt lat="41.51544898604891" lon="19.858649127369585"><ele>710.0</ele><time>2026-04-29T12:46:19Z</time></trkpt><trkpt lat="41.51551139979423" lon="19.858726549131152"><ele>708.4</ele><time>2026-04-29T12:46:20Z</time></trkpt><trkpt lat="41.515601693983314" lon="19.85877997918915"><ele>706.8</ele><time>2026-04-29T12:46:21Z</time></trkpt><trkpt lat="41.515674880968376" lon="19.858864798375972"><ele>705.2</ele><time>2026-04-29T12:46:22Z</time></trkpt><trkpt lat="41.515736760630936" lon="19.858937473461303"><ele>703.6</ele><time>2026-04-29T12:46:23Z</time></trkpt><trkpt lat="41.51577213657856" lon="19.85902265831353"><ele>702.0</ele><time>2026-04-29T12:46:24Z</time></trkpt><trkpt lat="41.51586206624139" lon="19.85909472681313"><ele>702.0000000000001</ele><time>2026-04-29T12:46:26Z</time></trkpt><trkpt lat="41.51592607302887" lon="19.859079130634665"><ele>702.0</ele><time>2026-04-29T12:46:27Z</time></trkpt><trkpt lat="41.51599706723239" lon="19.859022436403198"><ele>702.0</ele><time>2026-04-29T12:46:28Z</time></trkpt><trkpt lat="41.516049755428455" lon="19.858949087834745"><ele>702.0</ele><time>2026-04-29T12:46:29Z</time></trkpt><trkpt lat="41.51611530730121" lon="19.858880582134848"><ele>702.0</ele><time>2026-04-29T12:46:30Z</time></trkpt><trkpt lat="41.51618209213425" lon="19.85885846735762"><ele>702.0000000000001</ele><time>2026-04-29T12:46:31Z</time></trkpt><trkpt lat="41.51624631617107" lon="19.858860370943823"><ele>702.0</ele><time>2026-04-29T12:46:32Z</time></trkpt><trkpt lat="41.51636050081239" lon="19.858939082567982"><ele>700.1666666666666</ele><time>2026-04-29T12:46:34Z</time></trkpt><trkpt lat="41.516419832310426" lon="19.859032109184394"><ele>698.3333333333334</ele><time>2026-04-29T12:46:35Z</time></trkpt><trkpt lat="41.51645381351118" lon="19.859141859057562"><ele>696.5</ele><time>2026-04-29T12:46:36Z</time></trkpt><trkpt lat="41.51648495202622" lon="19.859226729478742"><ele>694.6666666666667</ele><time>2026-04-29T12:46:37Z</time></trkpt><trkpt lat="41.51650661318831" lon="19.859337622440563"><ele>692.8333333333334</ele><time>2026-04-29T12:46:38Z</time></trkpt><trkpt lat="41.51655425036117" lon="19.85943017450616"><ele>691.0</ele><time>2026-04-29T12:46:39Z</time></trkpt><trkpt lat="41.5165925688056" lon="19.859525897016994"><ele>691.0</ele><time>2026-04-29T12:46:40Z</time></trkpt><trkpt lat="41.51664510684615" lon="19.859600277515227"><ele>691.0</ele><time>2026-04-29T12:46:41Z</time></trkpt><trkpt lat="41.51670389903574" lon="19.85966510531373"><ele>691.0</ele><time>2026-04-29T12:46:42Z</time></trkpt><trkpt lat="41.51676879947234" lon="19.8597350583913"><ele>691.0</ele><time>2026-04-29T12:46:43Z</time></trkpt><trkpt lat="41.516823102790255" lon="19.85981248590053"><ele>691.0</ele><time>2026-04-29T12:46:44Z</time></trkpt><trkpt lat="41.51685837104655" lon="19.859908210591005"><ele>691.0</ele><time>2026-04-29T12:46:45Z</time></trkpt><trkpt lat="41.51686573123603" lon="19.860031943167208"><ele>689.4</ele><time>2026-04-29T12:46:46Z</time></trkpt><trkpt lat="41.516909081832665" lon="19.86012916456052"><ele>687.8</ele><time>2026-04-29T12:46:47Z</time></trkpt><trkpt lat="41.51694718383704" lon="19.86022051298894"><ele>686.1999999999999</ele><time>2026-04-29T12:46:48Z</time></trkpt><trkpt lat="41.516972013718316" lon="19.86034512832511"><ele>684.5999999999999</ele><time>2026-04-29T12:46:49Z</time></trkpt><trkpt lat="41.51705189689336" lon="19.860434399473267"><ele>683.0</ele><time>2026-04-29T12:46:50Z</time></trkpt><trkpt lat="41.517102666171766" lon="19.860527185899407"><ele>683.0</ele><time>2026-04-29T12:46:51Z</time></trkpt><trkpt lat="41.5171444640206" lon="19.860620214784685"><ele>683.0</ele><time>2026-04-29T12:46:52Z</time></trkpt><trkpt lat="41.51719897457941" lon="19.860702415168667"><ele>683.0</ele><time>2026-04-29T12:46:53Z</time></trkpt><trkpt lat="41.51726578767451" lon="19.860758725797762"><ele>683.0</ele><time>2026-04-29T12:46:54Z</time></trkpt><trkpt lat="41.51734471807721" lon="19.860833547916364"><ele>683.0</ele><time>2026-04-29T12:46:55Z</time></trkpt><trkpt lat="41.51741633965317" lon="19.860918520751287"><ele>683.0</ele><time>2026-04-29T12:46:56Z</time></trkpt><trkpt lat="41.51746562100072" lon="19.861003113812878"><ele>683.0</ele><time>2026-04-29T12:46:57Z</time></trkpt><trkpt lat="41.517545606662516" lon="19.86108199390056"><ele>683.0</ele><time>2026-04-29T12:46:59Z</time></trkpt><trkpt lat="41.517642778832574" lon="19.861042078855913"><ele>683.0</ele><time>2026-04-29T12:47:01Z</time></trkpt><trkpt lat="41.51768297613126" lon="19.860973140834968"><ele>683.0</ele><time>2026-04-29T12:47:02Z</time></trkpt><trkpt lat="41.517688786904586" lon="19.86088013493776"><ele>683.0</ele><time>2026-04-29T12:47:03Z</time></trkpt><trkpt lat="41.51770054788539" lon="19.86078704259555"><ele>683.0</ele><time>2026-04-29T12:47:04Z</time></trkpt><trkpt lat="41.51763265553501" lon="19.86068499666813"><ele>683.0</ele><time>2026-04-29T12:47:05Z</time></trkpt><trkpt lat="41.517608816931926" lon="19.860554173298638"><ele>683.0</ele><time>2026-04-29T12:47:06Z</time></trkpt><trkpt lat="41.517576252116086" lon="19.86043706350629"><ele>683.0</ele><time>2026-04-29T12:47:07Z</time></trkpt><trkpt lat="41.51761682854024" lon="19.86030181193159"><ele>683.0</ele><time>2026-04-29T12:47:08Z</time></trkpt><trkpt lat="41.517588443639525" lon="19.860163307438448"><ele>683.0</ele><time>2026-04-29T12:47:09Z</time></trkpt><trkpt lat="41.51761651500532" lon="19.86000874879957"><ele>681.8333333333333</ele><time>2026-04-29T12:47:10Z</time></trkpt><trkpt lat="41.5176093898902" lon="19.859887624863457"><ele>680.6666666666666</ele><time>2026-04-29T12:47:11Z</time></trkpt><trkpt lat="41.51755527286193" lon="19.859797925476382"><ele>679.5</ele><time>2026-04-29T12:47:12Z</time></trkpt><trkpt lat="41.51751425918291" lon="19.859695148620766"><ele>678.3333333333334</ele><time>2026-04-29T12:47:13Z</time></trkpt><trkpt lat="41.517489198460964" lon="19.859601050445203"><ele>677.1666666666667</ele><time>2026-04-29T12:47:14Z</time></trkpt><trkpt lat="41.51748668573194" lon="19.85951025610073"><ele>676.0</ele><time>2026-04-29T12:47:15Z</time></trkpt><trkpt lat="41.517543176167045" lon="19.859443947922973"><ele>676.0</ele><time>2026-04-29T12:47:16Z</time></trkpt><trkpt lat="41.51759084016502" lon="19.859346321517567"><ele>676.0</ele><time>2026-04-29T12:47:17Z</time></trkpt><trkpt lat="41.517619470747405" lon="19.8592336529613"><ele>676.0</ele><time>2026-04-29T12:47:18Z</time></trkpt><trkpt lat="41.51761791245006" lon="19.859094951924"><ele>676.0</ele><time>2026-04-29T12:47:19Z</time></trkpt><trkpt lat="41.51761919650797" lon="19.858952488530424"><ele>676.0</ele><time>2026-04-29T12:47:20Z</time></trkpt><trkpt lat="41.51763716881019" lon="19.85880264363688"><ele>675.4</ele><time>2026-04-29T12:47:21Z</time></trkpt><trkpt lat="41.51764463473012" lon="19.85869700708422"><ele>674.8</ele><time>2026-04-29T12:47:22Z</time></trkpt><trkpt lat="41.51766221994153" lon="19.858591243925247"><ele>674.1999999999999</ele><time>2026-04-29T12:47:23Z</time></trkpt><trkpt lat="41.517725390018214" lon="19.858452811260083"><ele>673.5999999999999</ele><time>2026-04-29T12:47:25Z</time></trkpt><trkpt lat="41.517823658573555" lon="19.85840604822749"><ele>673.0</ele><time>2026-04-29T12:47:27Z</time></trkpt><trkpt lat="41.51795918808208" lon="19.85844113803689"><ele>676.0</ele><time>2026-04-29T12:47:29Z</time></trkpt><trkpt lat="41.51805010955328" lon="19.858447552079713"><ele>679.0</ele><time>2026-04-29T12:47:30Z</time></trkpt><trkpt lat="41.518122127501634" lon="19.858392896337357"><ele>682.0</ele><time>2026-04-29T12:47:31Z</time></trkpt><trkpt lat="41.51819490520278" lon="19.858376857248146"><ele>685.0</ele><time>2026-04-29T12:47:32Z</time></trkpt><trkpt lat="41.51825326631111" lon="19.85833300512531"><ele>688.0</ele><time>2026-04-29T12:47:33Z</time></trkpt><trkpt lat="41.518315881854846" lon="19.858348655105218"><ele>691.0</ele><time>2026-04-29T12:47:34Z</time></trkpt><trkpt lat="41.518397823818404" lon="19.858322018667433"><ele>691.0</ele><time>2026-04-29T12:47:35Z</time></trkpt><trkpt lat="41.51849004835866" lon="19.858315722652122"><ele>691.0</ele><time>2026-04-29T12:47:36Z</time></trkpt><trkpt lat="41.518564305159074" lon="19.85825748462676"><ele>691.0</ele><time>2026-04-29T12:47:37Z</time></trkpt><trkpt lat="41.51865653378343" lon="19.858201516333445"><ele>691.0</ele><time>2026-04-29T12:47:38Z</time></trkpt><trkpt lat="41.51873641045809" lon="19.85813502535649"><ele>691.0</ele><time>2026-04-29T12:47:39Z</time></trkpt><trkpt lat="41.518814429737425" lon="19.858124098056866"><ele>696.8333333333334</ele><time>2026-04-29T12:47:40Z</time></trkpt><trkpt lat="41.518899413424585" lon="19.858114680751186"><ele>702.6666666666667</ele><time>2026-04-29T12:47:41Z</time></trkpt><trkpt lat="41.51896726634969" lon="19.858067983521373"><ele>708.5</ele><time>2026-04-29T12:47:42Z</time></trkpt><trkpt lat="41.519025632463446" lon="19.857981611253667"><ele>714.3333333333334</ele><time>2026-04-29T12:47:43Z</time></trkpt><trkpt lat="41.5191034285396" lon="19.85791237303487"><ele>720.1666666666666</ele><time>2026-04-29T12:47:44Z</time></trkpt><trkpt lat="41.5191973997313" lon="19.85785875109793"><ele>726.0</ele><time>2026-04-29T12:47:45Z</time></trkpt><trkpt lat="41.51930526066206" lon="19.85780909931195"><ele>726.0</ele><time>2026-04-29T12:47:46Z</time></trkpt><trkpt lat="41.51939857539008" lon="19.857781795418134"><ele>726.0</ele><time>2026-04-29T12:47:47Z</time></trkpt><trkpt lat="41.519463943372536" lon="19.857756983244425"><ele>726.0</ele><time>2026-04-29T12:47:48Z</time></trkpt><trkpt lat="41.519540193721895" lon="19.85772886436196"><ele>726.0</ele><time>2026-04-29T12:47:50Z</time></trkpt><trkpt lat="41.51960234974683" lon="19.857742310703756"><ele>726.0</ele><time>2026-04-29T12:47:54Z</time></trkpt><trkpt lat="41.519669534396456" lon="19.85775331036726"><ele>726.0</ele><time>2026-04-29T12:48:09Z</time></trkpt><trkpt lat="41.51971766419128" lon="19.857622963157535"><ele>728.5999999999999</ele><time>2026-04-29T12:48:11Z</time></trkpt><trkpt lat="41.51975767338554" lon="19.85755588213314"><ele>731.2</ele><time>2026-04-29T12:48:14Z</time></trkpt><trkpt lat="41.51980585329445" lon="19.857456319814908"><ele>733.8</ele><time>2026-04-29T12:48:18Z</time></trkpt><trkpt lat="41.51985641225196" lon="19.85736020688402"><ele>736.4000000000001</ele><time>2026-04-29T12:48:21Z</time></trkpt><trkpt lat="41.519916779512414" lon="19.857247897993673"><ele>739.0</ele><time>2026-04-29T12:48:23Z</time></trkpt><trkpt lat="41.519989113373846" lon="19.85711387348849"><ele>739.0</ele><time>2026-04-29T12:48:25Z</time></trkpt><trkpt lat="41.52003989908499" lon="19.85698936787892"><ele>739.0</ele><time>2026-04-29T12:48:27Z</time></trkpt><trkpt lat="41.52009665058127" lon="19.856915827215584"><ele>739.0</ele><time>2026-04-29T12:48:30Z</time></trkpt><trkpt lat="41.52004718024819" lon="19.857007421638077"><ele>739.0</ele><time>2026-04-29T12:48:43Z</time></trkpt><trkpt lat="41.519956586448416" lon="19.857174074030684"><ele>739.0</ele><time>2026-04-29T12:48:45Z</time></trkpt><trkpt lat="41.51983971633415" lon="19.85735735204183"><ele>739.0</ele><time>2026-04-29T12:48:46Z</time></trkpt><trkpt lat="41.519741047593136" lon="19.85753012283737"><ele>739.0</ele><time>2026-04-29T12:48:47Z</time></trkpt><trkpt lat="41.51966047068946" lon="19.85766376286335"><ele>739.0</ele><time>2026-04-29T12:48:48Z</time></trkpt><trkpt lat="41.51958052138673" lon="19.857755428868842"><ele>739.0</ele><time>2026-04-29T12:48:49Z</time></trkpt><trkpt lat="41.519497155734705" lon="19.857826604754063"><ele>736.4000000000001</ele><time>2026-04-29T12:48:50Z</time></trkpt><trkpt lat="41.51940868593899" lon="19.857881925870885"><ele>733.8</ele><time>2026-04-29T12:48:51Z</time></trkpt><trkpt lat="41.51930026517508" lon="19.857906115270534"><ele>731.2</ele><time>2026-04-29T12:48:52Z</time></trkpt><trkpt lat="41.5191954190973" lon="19.8579637997731"><ele>728.5999999999999</ele><time>2026-04-29T12:48:53Z</time></trkpt><trkpt lat="41.51908563755227" lon="19.85804042048717"><ele>726.0</ele><time>2026-04-29T12:48:54Z</time></trkpt><trkpt lat="41.51898145548623" lon="19.85817389631303"><ele>726.0</ele><time>2026-04-29T12:48:55Z</time></trkpt><trkpt lat="41.51882182805331" lon="19.858294392430633"><ele>726.0</ele><time>2026-04-29T12:48:56Z</time></trkpt><trkpt lat="41.51867671612057" lon="19.85846405226793"><ele>726.0</ele><time>2026-04-29T12:48:57Z</time></trkpt><trkpt lat="41.5185656283908" lon="19.858586740827334"><ele>725.5999999999999</ele><time>2026-04-29T12:48:58Z</time></trkpt><trkpt lat="41.51846619102644" lon="19.858678833114055"><ele>725.2</ele><time>2026-04-29T12:48:59Z</time></trkpt><trkpt lat="41.51837274414245" lon="19.85873648022518"><ele>724.8</ele><time>2026-04-29T12:49:00Z</time></trkpt><trkpt lat="41.51829117370108" lon="19.858786214399636"><ele>724.4000000000001</ele><time>2026-04-29T12:49:01Z</time></trkpt><trkpt lat="41.518216192425555" lon="19.858831100981487"><ele>724.0</ele><time>2026-04-29T12:49:02Z</time></trkpt><trkpt lat="41.51816940018016" lon="19.858930307610372"><ele>724.0</ele><time>2026-04-29T12:49:03Z</time></trkpt><trkpt lat="41.518166696317486" lon="19.859098527818205"><ele>724.0</ele><time>2026-04-29T12:49:05Z</time></trkpt><trkpt lat="41.51817425648693" lon="19.859196828997625"><ele>724.0</ele><time>2026-04-29T12:49:06Z</time></trkpt><trkpt lat="41.5182034302264" lon="19.85930864325187"><ele>724.0</ele><time>2026-04-29T12:49:07Z</time></trkpt><trkpt lat="41.518231187494735" lon="19.859435993581723"><ele>724.0</ele><time>2026-04-29T12:49:08Z</time></trkpt><trkpt lat="41.518248786754185" lon="19.85958852109869"><ele>723.25</ele><time>2026-04-29T12:49:09Z</time></trkpt><trkpt lat="41.51826688854284" lon="19.8597454034542"><ele>722.5</ele><time>2026-04-29T12:49:10Z</time></trkpt><trkpt lat="41.518349849884935" lon="19.859891383367728"><ele>721.75</ele><time>2026-04-29T12:49:11Z</time></trkpt><trkpt lat="41.51842941613749" lon="19.860018795508406"><ele>721.0</ele><time>2026-04-29T12:49:12Z</time></trkpt><trkpt lat="41.51850635000368" lon="19.860138239302625"><ele>719.5</ele><time>2026-04-29T12:49:13Z</time></trkpt><trkpt lat="41.518567860162406" lon="19.860233181462792"><ele>718.0</ele><time>2026-04-29T12:49:14Z</time></trkpt><trkpt lat="41.51862636711464" lon="19.86032348955121"><ele>716.5</ele><time>2026-04-29T12:49:15Z</time></trkpt><trkpt lat="41.51863838658544" lon="19.860424362713875"><ele>715.0</ele><time>2026-04-29T12:49:16Z</time></trkpt><trkpt lat="41.518680628177925" lon="19.860517427870867"><ele>713.5</ele><time>2026-04-29T12:49:17Z</time></trkpt><trkpt lat="41.51865161498834" lon="19.860632045019003"><ele>712.0</ele><time>2026-04-29T12:49:18Z</time></trkpt><trkpt lat="41.51865187667999" lon="19.860751401837305"><ele>712.0</ele><time>2026-04-29T12:49:19Z</time></trkpt><trkpt lat="41.51865210148098" lon="19.86085393296316"><ele>712.0</ele><time>2026-04-29T12:49:20Z</time></trkpt><trkpt lat="41.51865234171129" lon="19.860963504667744"><ele>712.0</ele><time>2026-04-29T12:49:21Z</time></trkpt><trkpt lat="41.51869703549412" lon="19.861084944629894"><ele>712.0</ele><time>2026-04-29T12:49:22Z</time></trkpt><trkpt lat="41.51873147289343" lon="19.861188501451615"><ele>712.0</ele><time>2026-04-29T12:49:23Z</time></trkpt><trkpt lat="41.51877541027825" lon="19.861299606959385"><ele>712.0</ele><time>2026-04-29T12:49:24Z</time></trkpt><trkpt lat="41.51882713302534" lon="19.861426104865266"><ele>716.25</ele><time>2026-04-29T12:49:25Z</time></trkpt><trkpt lat="41.51889129607335" lon="19.861573476905853"><ele>720.5</ele><time>2026-04-29T12:49:26Z</time></trkpt><trkpt lat="41.518956134870955" lon="19.861723533096594"><ele>724.75</ele><time>2026-04-29T12:49:27Z</time></trkpt><trkpt lat="41.51900780153144" lon="19.86184342081057"><ele>729.0</ele><time>2026-04-29T12:49:28Z</time></trkpt><trkpt lat="41.51911770027062" lon="19.86189823874788"><ele>729.0</ele><time>2026-04-29T12:49:29Z</time></trkpt><trkpt lat="41.519181774483926" lon="19.8619849468433"><ele>729.0</ele><time>2026-04-29T12:49:30Z</time></trkpt><trkpt lat="41.519218983173296" lon="19.862061186083956"><ele>729.0</ele><time>2026-04-29T12:49:31Z</time></trkpt><trkpt lat="41.51927947662378" lon="19.862154997534752"><ele>729.0</ele><time>2026-04-29T12:49:32Z</time></trkpt><trkpt lat="41.51935253373198" lon="19.862266533587963"><ele>729.0</ele><time>2026-04-29T12:49:33Z</time></trkpt><trkpt lat="41.51943357782433" lon="19.862386424025946"><ele>729.0</ele><time>2026-04-29T12:49:34Z</time></trkpt><trkpt lat="41.5194982608568" lon="19.862482133217092"><ele>729.0</ele><time>2026-04-29T12:49:35Z</time></trkpt><trkpt lat="41.51954021728815" lon="19.862584202062315"><ele>729.0</ele><time>2026-04-29T12:49:36Z</time></trkpt><trkpt lat="41.51958385056916" lon="19.862689985970604"><ele>729.0</ele><time>2026-04-29T12:49:37Z</time></trkpt><trkpt lat="41.5196052010601" lon="19.86278256505516"><ele>729.0</ele><time>2026-04-29T12:49:38Z</time></trkpt><trkpt lat="41.51963617512229" lon="19.86289458906643"><ele>729.0</ele><time>2026-04-29T12:49:39Z</time></trkpt><trkpt lat="41.51968431015883" lon="19.86302652786133"><ele>733.75</ele><time>2026-04-29T12:49:40Z</time></trkpt><trkpt lat="41.51976725213693" lon="19.86312837910902"><ele>738.5</ele><time>2026-04-29T12:49:41Z</time></trkpt><trkpt lat="41.519848774900076" lon="19.863227529317545"><ele>743.25</ele><time>2026-04-29T12:49:42Z</time></trkpt><trkpt lat="41.519939907058514" lon="19.863323744544914"><ele>748.0</ele><time>2026-04-29T12:49:43Z</time></trkpt><trkpt lat="41.52003028244309" lon="19.863423765408367"><ele>745.0</ele><time>2026-04-29T12:49:44Z</time></trkpt><trkpt lat="41.52012321145788" lon="19.863538175787596"><ele>742.0</ele><time>2026-04-29T12:49:45Z</time></trkpt><trkpt lat="41.52019802341381" lon="19.86366380396687"><ele>739.0</ele><time>2026-04-29T12:49:46Z</time></trkpt><trkpt lat="41.52025878826839" lon="19.863750360610428"><ele>736.0</ele><time>2026-04-29T12:49:47Z</time></trkpt><trkpt lat="41.5203079424379" lon="19.86381998505849"><ele>733.0</ele><time>2026-04-29T12:49:48Z</time></trkpt><trkpt lat="41.52039893580763" lon="19.86384507909403"><ele>737.8333333333334</ele><time>2026-04-29T12:49:49Z</time></trkpt><trkpt lat="41.52048401502071" lon="19.863875275833298"><ele>742.6666666666667</ele><time>2026-04-29T12:49:50Z</time></trkpt><trkpt lat="41.520578507701764" lon="19.863902664089643"><ele>747.5</ele><time>2026-04-29T12:49:51Z</time></trkpt><trkpt lat="41.520674308293266" lon="19.863949293535132"><ele>752.3333333333334</ele><time>2026-04-29T12:49:52Z</time></trkpt><trkpt lat="41.52075118198478" lon="19.863999881042417"><ele>757.1666666666666</ele><time>2026-04-29T12:49:53Z</time></trkpt><trkpt lat="41.52081947114505" lon="19.864041525997933"><ele>762.0</ele><time>2026-04-29T12:49:54Z</time></trkpt><trkpt lat="41.52087962090488" lon="19.864087327866816"><ele>762.0</ele><time>2026-04-29T12:49:55Z</time></trkpt><trkpt lat="41.52093542118025" lon="19.864156550432064"><ele>762.0</ele><time>2026-04-29T12:49:56Z</time></trkpt><trkpt lat="41.52095675117713" lon="19.864238355473137"><ele>762.0</ele><time>2026-04-29T12:49:57Z</time></trkpt><trkpt lat="41.52093742580398" lon="19.864336412742638"><ele>762.0</ele><time>2026-04-29T12:49:58Z</time></trkpt><trkpt lat="41.52091454216422" lon="19.86445182644026"><ele>762.0</ele><time>2026-04-29T12:49:59Z</time></trkpt><trkpt lat="41.5208990900717" lon="19.864596626145328"><ele>762.0</ele><time>2026-04-29T12:50:00Z</time></trkpt><trkpt lat="41.52086730548797" lon="19.86471256018808"><ele>762.0</ele><time>2026-04-29T12:50:01Z</time></trkpt><trkpt lat="41.52085943651827" lon="19.864803324461892"><ele>762.0</ele><time>2026-04-29T12:50:02Z</time></trkpt><trkpt lat="41.52088603257084" lon="19.86488593756238"><ele>762.0</ele><time>2026-04-29T12:50:03Z</time></trkpt><trkpt lat="41.520939415492684" lon="19.864965020978477"><ele>762.0</ele><time>2026-04-29T12:50:04Z</time></trkpt><trkpt lat="41.520966540698254" lon="19.86506809336624"><ele>762.0</ele><time>2026-04-29T12:50:05Z</time></trkpt><trkpt lat="41.521004164998345" lon="19.865148144718084"><ele>762.0</ele><time>2026-04-29T12:50:06Z</time></trkpt><trkpt lat="41.52096292846698" lon="19.8652660662218"><ele>764.5</ele><time>2026-04-29T12:50:07Z</time></trkpt><trkpt lat="41.520958539279434" lon="19.865418645550655"><ele>767.0</ele><time>2026-04-29T12:50:08Z</time></trkpt><trkpt lat="41.52094145646514" lon="19.86559636621768"><ele>769.5</ele><time>2026-04-29T12:50:09Z</time></trkpt><trkpt lat="41.52093077034349" lon="19.86579394229236"><ele>772.0</ele><time>2026-04-29T12:50:10Z</time></trkpt><trkpt lat="41.52091544322424" lon="19.866007105436857"><ele>775.0</ele><time>2026-04-29T12:50:11Z</time></trkpt><trkpt lat="41.52088850229113" lon="19.86621209789263"><ele>778.0</ele><time>2026-04-29T12:50:12Z</time></trkpt><trkpt lat="41.520860214218644" lon="19.86638223263113"><ele>781.0</ele><time>2026-04-29T12:50:13Z</time></trkpt><trkpt lat="41.520831297055565" lon="19.86652032452234"><ele>784.0</ele><time>2026-04-29T12:50:14Z</time></trkpt><trkpt lat="41.52076637142366" lon="19.866612575246034"><ele>784.0</ele><time>2026-04-29T12:50:15Z</time></trkpt><trkpt lat="41.520701539172165" lon="19.86671424964948"><ele>784.0</ele><time>2026-04-29T12:50:16Z</time></trkpt><trkpt lat="41.52063317793142" lon="19.86681546759982"><ele>784.0</ele><time>2026-04-29T12:50:17Z</time></trkpt><trkpt lat="41.52057787468305" lon="19.866905749418404"><ele>784.0</ele><time>2026-04-29T12:50:18Z</time></trkpt><trkpt lat="41.52049015888172" lon="19.866966689375165"><ele>784.0</ele><time>2026-04-29T12:50:20Z</time></trkpt><trkpt lat="41.520436935428" lon="19.866920879738522"><ele>784.0</ele><time>2026-04-29T12:50:21Z</time></trkpt><trkpt lat="41.52042561323858" lon="19.866742045820057"><ele>784.0</ele><time>2026-04-29T12:50:23Z</time></trkpt><trkpt lat="41.52045858888292" lon="19.866617989337243"><ele>784.0</ele><time>2026-04-29T12:50:24Z</time></trkpt><trkpt lat="41.52049633711415" lon="19.866463340968732"><ele>784.0</ele><time>2026-04-29T12:50:25Z</time></trkpt><trkpt lat="41.52051910498388" lon="19.866324359699657"><ele>784.0</ele><time>2026-04-29T12:50:26Z</time></trkpt><trkpt lat="41.52051564210315" lon="19.86620369104315"><ele>784.0</ele><time>2026-04-29T12:50:27Z</time></trkpt><trkpt lat="41.52052349126296" lon="19.866089790863274"><ele>784.0</ele><time>2026-04-29T12:50:28Z</time></trkpt><trkpt lat="41.520438602470264" lon="19.86596080939055"><ele>784.0</ele><time>2026-04-29T12:50:29Z</time></trkpt><trkpt lat="41.520384861348404" lon="19.865811181742306"><ele>784.0</ele><time>2026-04-29T12:50:30Z</time></trkpt><trkpt lat="41.520324091159345" lon="19.865671947834123"><ele>783.5</ele><time>2026-04-29T12:50:31Z</time></trkpt><trkpt lat="41.52023629658889" lon="19.865595678404496"><ele>783.0</ele><time>2026-04-29T12:50:32Z</time></trkpt><trkpt lat="41.52016090219286" lon="19.865517298846257"><ele>782.5</ele><time>2026-04-29T12:50:33Z</time></trkpt><trkpt lat="41.52003489432513" lon="19.865525439910353"><ele>782.0</ele><time>2026-04-29T12:50:34Z</time></trkpt><trkpt lat="41.51990357896258" lon="19.86555566669518"><ele>782.0</ele><time>2026-04-29T12:50:35Z</time></trkpt><trkpt lat="41.51977143636275" lon="19.86560887901215"><ele>782.0</ele><time>2026-04-29T12:50:36Z</time></trkpt><trkpt lat="41.51963419282478" lon="19.865597572724756"><ele>782.0</ele><time>2026-04-29T12:50:37Z</time></trkpt><trkpt lat="41.519516845882656" lon="19.86559693924628"><ele>782.0</ele><time>2026-04-29T12:50:38Z</time></trkpt><trkpt lat="41.51941307651496" lon="19.865596939248334"><ele>783.3333333333334</ele><time>2026-04-29T12:50:39Z</time></trkpt><trkpt lat="41.519308106439944" lon="19.865640487015927"><ele>784.6666666666667</ele><time>2026-04-29T12:50:40Z</time></trkpt><trkpt lat="41.519222678444976" lon="19.865697755921673"><ele>786.0</ele><time>2026-04-29T12:50:41Z</time></trkpt><trkpt lat="41.51913860813488" lon="19.865696799190825"><ele>787.3333333333333</ele><time>2026-04-29T12:50:42Z</time></trkpt><trkpt lat="41.519081193305276" lon="19.86565756778893"><ele>788.6666666666666</ele><time>2026-04-29T12:50:43Z</time></trkpt><trkpt lat="41.5190067298515" lon="19.865585652469296"><ele>790.0</ele><time>2026-04-29T12:50:44Z</time></trkpt><trkpt lat="41.51892423432622" lon="19.86556312562126"><ele>790.0</ele><time>2026-04-29T12:50:45Z</time></trkpt><trkpt lat="41.518836388368086" lon="19.865539137079875"><ele>790.0</ele><time>2026-04-29T12:50:46Z</time></trkpt><trkpt lat="41.51873984638456" lon="19.86564654163307"><ele>790.0</ele><time>2026-04-29T12:50:47Z</time></trkpt><trkpt lat="41.51867919393093" lon="19.865723259666144"><ele>790.0</ele><time>2026-04-29T12:50:48Z</time></trkpt><trkpt lat="41.51863803477937" lon="19.865818977105796"><ele>790.0</ele><time>2026-04-29T12:50:49Z</time></trkpt><trkpt lat="41.51857501656049" lon="19.865874382046343"><ele>794.0</ele><time>2026-04-29T12:50:50Z</time></trkpt><trkpt lat="41.518455657794085" lon="19.865839621495095"><ele>798.0</ele><time>2026-04-29T12:50:53Z</time></trkpt><trkpt lat="41.51839728988331" lon="19.865791074384557"><ele>802.0</ele><time>2026-04-29T12:50:54Z</time></trkpt><trkpt lat="41.51834433840977" lon="19.865689259231587"><ele>806.0</ele><time>2026-04-29T12:50:55Z</time></trkpt><trkpt lat="41.518313652962824" lon="19.86557133393688"><ele>810.0</ele><time>2026-04-29T12:50:56Z</time></trkpt><trkpt lat="41.5183237093918" lon="19.865427726885684"><ele>810.0</ele><time>2026-04-29T12:50:57Z</time></trkpt><trkpt lat="41.51833524032292" lon="19.86527410080908"><ele>810.0</ele><time>2026-04-29T12:50:58Z</time></trkpt><trkpt lat="41.51833345434128" lon="19.86511348649349"><ele>810.0</ele><time>2026-04-29T12:50:59Z</time></trkpt><trkpt lat="41.5183494811395" lon="19.86498439630469"><ele>810.0</ele><time>2026-04-29T12:51:00Z</time></trkpt><trkpt lat="41.51835338836274" lon="19.86487540279616"><ele>810.0</ele><time>2026-04-29T12:51:01Z</time></trkpt><trkpt lat="41.51835377476239" lon="19.864768581444675"><ele>807.3333333333334</ele><time>2026-04-29T12:51:02Z</time></trkpt><trkpt lat="41.51836825719631" lon="19.864655276381363"><ele>804.6666666666667</ele><time>2026-04-29T12:51:03Z</time></trkpt><trkpt lat="41.51832523757469" lon="19.864538858612637"><ele>802.0</ele><time>2026-04-29T12:51:04Z</time></trkpt><trkpt lat="41.518311827878684" lon="19.864430951304765"><ele>799.3333333333334</ele><time>2026-04-29T12:51:05Z</time></trkpt><trkpt lat="41.51824048852815" lon="19.86436963915836"><ele>796.6666666666667</ele><time>2026-04-29T12:51:06Z</time></trkpt><trkpt lat="41.51819522122692" lon="19.864298800529053"><ele>794.0</ele><time>2026-04-29T12:51:07Z</time></trkpt><trkpt lat="41.51808682512754" lon="19.864306454040893"><ele>794.0000000000001</ele><time>2026-04-29T12:51:08Z</time></trkpt><trkpt lat="41.51799330593317" lon="19.86431173903914"><ele>794.0</ele><time>2026-04-29T12:51:09Z</time></trkpt><trkpt lat="41.517907695578764" lon="19.864255656555095"><ele>794.0</ele><time>2026-04-29T12:51:10Z</time></trkpt><trkpt lat="41.517818395055414" lon="19.864219362347946"><ele>794.0</ele><time>2026-04-29T12:51:11Z</time></trkpt><trkpt lat="41.51774961035329" lon="19.8641915947977"><ele>794.0000000000001</ele><time>2026-04-29T12:51:12Z</time></trkpt><trkpt lat="41.51767821511881" lon="19.864259548426247"><ele>794.0</ele><time>2026-04-29T12:51:13Z</time></trkpt><trkpt lat="41.51761842485313" lon="19.864308961755263"><ele>793.0000000000001</ele><time>2026-04-29T12:51:14Z</time></trkpt><trkpt lat="41.51756132196349" lon="19.864367133914016"><ele>792.0</ele><time>2026-04-29T12:51:15Z</time></trkpt><trkpt lat="41.51750447599664" lon="19.864431249262537"><ele>791.0</ele><time>2026-04-29T12:51:16Z</time></trkpt><trkpt lat="41.517442432957374" lon="19.864472977277384"><ele>790.0</ele><time>2026-04-29T12:51:17Z</time></trkpt><trkpt lat="41.51737692453181" lon="19.864420002447485"><ele>789.0000000000001</ele><time>2026-04-29T12:51:18Z</time></trkpt><trkpt lat="41.51725611942699" lon="19.86429546651913"><ele>788.0</ele><time>2026-04-29T12:51:20Z</time></trkpt><trkpt lat="41.51717773864763" lon="19.864205473861265"><ele>788.0</ele><time>2026-04-29T12:51:21Z</time></trkpt><trkpt lat="41.517096280585825" lon="19.864112261866612"><ele>788.0</ele><time>2026-04-29T12:51:22Z</time></trkpt><trkpt lat="41.51705644937809" lon="19.86399178533697"><ele>788.0</ele><time>2026-04-29T12:51:23Z</time></trkpt><trkpt lat="41.517012277342985" lon="19.863871791300383"><ele>788.0</ele><time>2026-04-29T12:51:24Z</time></trkpt><trkpt lat="41.516962168431924" lon="19.863770316487585"><ele>788.0</ele><time>2026-04-29T12:51:25Z</time></trkpt><trkpt lat="41.5169423719212" lon="19.863667250563655"><ele>790.4</ele><time>2026-04-29T12:51:26Z</time></trkpt><trkpt lat="41.51690554568921" lon="19.863582143341002"><ele>792.8</ele><time>2026-04-29T12:51:27Z</time></trkpt><trkpt lat="41.51684539015709" lon="19.863502899642686"><ele>795.2</ele><time>2026-04-29T12:51:28Z</time></trkpt><trkpt lat="41.51680169942387" lon="19.863396393960812"><ele>797.6</ele><time>2026-04-29T12:51:29Z</time></trkpt><trkpt lat="41.51674586449842" lon="19.86329117351278"><ele>800.0</ele><time>2026-04-29T12:51:30Z</time></trkpt><trkpt lat="41.51669528427737" lon="19.86316925619144"><ele>800.0</ele><time>2026-04-29T12:51:31Z</time></trkpt><trkpt lat="41.516629322699714" lon="19.863038515144304"><ele>800.0</ele><time>2026-04-29T12:51:32Z</time></trkpt><trkpt lat="41.516592427180406" lon="19.862904975359243"><ele>800.0</ele><time>2026-04-29T12:51:33Z</time></trkpt><trkpt lat="41.51656292229839" lon="19.862813218190325"><ele>800.0</ele><time>2026-04-29T12:51:34Z</time></trkpt><trkpt lat="41.516492383734104" lon="19.86273664223914"><ele>800.0</ele><time>2026-04-29T12:51:35Z</time></trkpt><trkpt lat="41.516417477064074" lon="19.862648643459067"><ele>799.4</ele><time>2026-04-29T12:51:36Z</time></trkpt><trkpt lat="41.5163455064572" lon="19.86253838190256"><ele>798.8</ele><time>2026-04-29T12:51:37Z</time></trkpt><trkpt lat="41.51626497361196" lon="19.862430780200896"><ele>798.2</ele><time>2026-04-29T12:51:38Z</time></trkpt><trkpt lat="41.51617026895041" lon="19.86233130397617"><ele>797.6</ele><time>2026-04-29T12:51:39Z</time></trkpt><trkpt lat="41.51609611926577" lon="19.862255768029897"><ele>797.0</ele><time>2026-04-29T12:51:40Z</time></trkpt><trkpt lat="41.51601201742408" lon="19.862238759982436"><ele>797.0</ele><time>2026-04-29T12:51:41Z</time></trkpt><trkpt lat="41.51592853029532" lon="19.862252469268796"><ele>797.0</ele><time>2026-04-29T12:51:42Z</time></trkpt><trkpt lat="41.51584609746782" lon="19.86226706879832"><ele>797.0</ele><time>2026-04-29T12:51:43Z</time></trkpt><trkpt lat="41.51579543113444" lon="19.86240810912973"><ele>797.0</ele><time>2026-04-29T12:51:44Z</time></trkpt><trkpt lat="41.515759461574646" lon="19.86250146121768"><ele>797.0</ele><time>2026-04-29T12:51:45Z</time></trkpt><trkpt lat="41.51580631366377" lon="19.862647458363085"><ele>798.2</ele><time>2026-04-29T12:51:46Z</time></trkpt><trkpt lat="41.515853469489244" lon="19.86275207845927"><ele>799.4000000000001</ele><time>2026-04-29T12:51:47Z</time></trkpt><trkpt lat="41.51590707920048" lon="19.86285456187232"><ele>800.5999999999999</ele><time>2026-04-29T12:51:48Z</time></trkpt><trkpt lat="41.515966520354254" lon="19.862955966606787"><ele>801.8</ele><time>2026-04-29T12:51:49Z</time></trkpt><trkpt lat="41.516023949350206" lon="19.863064920796234"><ele>803.0</ele><time>2026-04-29T12:51:50Z</time></trkpt><trkpt lat="41.51607855241802" lon="19.863186677396754"><ele>803.0</ele><time>2026-04-29T12:51:51Z</time></trkpt><trkpt lat="41.51612559754992" lon="19.86332273946709"><ele>803.0</ele><time>2026-04-29T12:51:52Z</time></trkpt><trkpt lat="41.5161493689292" lon="19.863461887966405"><ele>803.0</ele><time>2026-04-29T12:51:53Z</time></trkpt><trkpt lat="41.51611799932898" lon="19.86359706819221"><ele>803.0</ele><time>2026-04-29T12:51:54Z</time></trkpt><trkpt lat="41.51608432358158" lon="19.863727160922647"><ele>803.0</ele><time>2026-04-29T12:51:55Z</time></trkpt><trkpt lat="41.51605721117821" lon="19.86385872431106"><ele>803.3333333333334</ele><time>2026-04-29T12:51:56Z</time></trkpt><trkpt lat="41.51604749572754" lon="19.863987431453893"><ele>803.6666666666667</ele><time>2026-04-29T12:51:57Z</time></trkpt><trkpt lat="41.51603497815352" lon="19.86408229782682"><ele>804.0</ele><time>2026-04-29T12:51:58Z</time></trkpt><trkpt lat="41.51611655293785" lon="19.864167663265874"><ele>804.3333333333333</ele><time>2026-04-29T12:52:00Z</time></trkpt><trkpt lat="41.516183975343615" lon="19.864139243576187"><ele>804.6666666666666</ele><time>2026-04-29T12:52:01Z</time></trkpt><trkpt lat="41.51623321051495" lon="19.86406558671888"><ele>805.0</ele><time>2026-04-29T12:52:02Z</time></trkpt><trkpt lat="41.51626352745882" lon="19.863965681008303"><ele>807.8</ele><time>2026-04-29T12:52:03Z</time></trkpt><trkpt lat="41.51629691041769" lon="19.863857498011907"><ele>810.6</ele><time>2026-04-29T12:52:04Z</time></trkpt><trkpt lat="41.51633969248327" lon="19.86376009458255"><ele>813.4000000000001</ele><time>2026-04-29T12:52:05Z</time></trkpt><trkpt lat="41.51643897891632" lon="19.863755384930975"><ele>816.2</ele><time>2026-04-29T12:52:07Z</time></trkpt><trkpt lat="41.51644642035561" lon="19.86384102897435"><ele>819.0</ele><time>2026-04-29T12:52:08Z</time></trkpt><trkpt lat="41.51641724246621" lon="19.863990810219615"><ele>819.0</ele><time>2026-04-29T12:52:10Z</time></trkpt><trkpt lat="41.51639983108108" lon="19.86409785143811"><ele>819.0</ele><time>2026-04-29T12:52:11Z</time></trkpt><trkpt lat="41.51635147175378" lon="19.864203465666908"><ele>819.0</ele><time>2026-04-29T12:52:12Z</time></trkpt><trkpt lat="41.51632360698199" lon="19.864321220092048"><ele>819.0</ele><time>2026-04-29T12:52:13Z</time></trkpt><trkpt lat="41.51631190827028" lon="19.86445296288176"><ele>819.0</ele><time>2026-04-29T12:52:14Z</time></trkpt><trkpt lat="41.516301249334916" lon="19.864591941431506"><ele>823.75</ele><time>2026-04-29T12:52:15Z</time></trkpt><trkpt lat="41.516300514884556" lon="19.864740156043812"><ele>828.5</ele><time>2026-04-29T12:52:16Z</time></trkpt><trkpt lat="41.51632565521207" lon="19.864890633271706"><ele>833.25</ele><time>2026-04-29T12:52:17Z</time></trkpt><trkpt lat="41.51636071425154" lon="19.865044961613272"><ele>838.0</ele><time>2026-04-29T12:52:18Z</time></trkpt><trkpt lat="41.51635629651753" lon="19.865201531828927"><ele>839.8</ele><time>2026-04-29T12:52:19Z</time></trkpt><trkpt lat="41.51633624201689" lon="19.86534594192121"><ele>841.5999999999999</ele><time>2026-04-29T12:52:20Z</time></trkpt><trkpt lat="41.51631696319307" lon="19.86546469955572"><ele>843.4000000000001</ele><time>2026-04-29T12:52:21Z</time></trkpt><trkpt lat="41.516351919928944" lon="19.865588406123653"><ele>845.2</ele><time>2026-04-29T12:52:22Z</time></trkpt><trkpt lat="41.516396510103306" lon="19.865705641344665"><ele>847.0</ele><time>2026-04-29T12:52:23Z</time></trkpt><trkpt lat="41.51646311236852" lon="19.865816936821002"><ele>847.0</ele><time>2026-04-29T12:52:24Z</time></trkpt><trkpt lat="41.51653066675362" lon="19.86594432053218"><ele>847.0</ele><time>2026-04-29T12:52:25Z</time></trkpt><trkpt lat="41.516626050119406" lon="19.866052556384897"><ele>847.0</ele><time>2026-04-29T12:52:26Z</time></trkpt><trkpt lat="41.516710153963366" lon="19.866169978722322"><ele>847.0</ele><time>2026-04-29T12:52:27Z</time></trkpt><trkpt lat="41.51678359339835" lon="19.86630176202026"><ele>847.4000000000001</ele><time>2026-04-29T12:52:28Z</time></trkpt><trkpt lat="41.51679677450563" lon="19.866415553615813"><ele>847.8000000000001</ele><time>2026-04-29T12:52:29Z</time></trkpt><trkpt lat="41.51682027653234" lon="19.866540461358973"><ele>848.2</ele><time>2026-04-29T12:52:30Z</time></trkpt><trkpt lat="41.51683986197158" lon="19.866677715447658"><ele>848.6</ele><time>2026-04-29T12:52:31Z</time></trkpt><trkpt lat="41.51685091645466" lon="19.866824086652645"><ele>849.0</ele><time>2026-04-29T12:52:32Z</time></trkpt><trkpt lat="41.51686353865277" lon="19.866992751733292"><ele>849.0</ele><time>2026-04-29T12:52:33Z</time></trkpt><trkpt lat="41.51687613756603" lon="19.867161733350592"><ele>849.0</ele><time>2026-04-29T12:52:34Z</time></trkpt><trkpt lat="41.51688637695184" lon="19.867299845014344"><ele>849.0</ele><time>2026-04-29T12:52:35Z</time></trkpt><trkpt lat="41.51689491382756" lon="19.8674143574003"><ele>849.0</ele><time>2026-04-29T12:52:36Z</time></trkpt><trkpt lat="41.51690531444203" lon="19.86755412103099"><ele>849.0</ele><time>2026-04-29T12:52:37Z</time></trkpt><trkpt lat="41.51691721727391" lon="19.86771143962942"><ele>849.75</ele><time>2026-04-29T12:52:38Z</time></trkpt><trkpt lat="41.51693036362293" lon="19.867885835009897"><ele>850.5</ele><time>2026-04-29T12:52:39Z</time></trkpt><trkpt lat="41.516943508293046" lon="19.868075092596335"><ele>851.25</ele><time>2026-04-29T12:52:40Z</time></trkpt><trkpt lat="41.51694128916546" lon="19.868265456617852"><ele>852.0</ele><time>2026-04-29T12:52:41Z</time></trkpt><trkpt lat="41.51691734107908" lon="19.868439696700772"><ele>852.0</ele><time>2026-04-29T12:52:42Z</time></trkpt><trkpt lat="41.51690504120628" lon="19.868621451380932"><ele>852.0</ele><time>2026-04-29T12:52:43Z</time></trkpt><trkpt lat="41.51690991211793" lon="19.868814036796117"><ele>852.0</ele><time>2026-04-29T12:52:44Z</time></trkpt><trkpt lat="41.51692708552385" lon="19.86901735743178"><ele>852.0</ele><time>2026-04-29T12:52:45Z</time></trkpt><trkpt lat="41.516927166196" lon="19.86922646694738"><ele>852.25</ele><time>2026-04-29T12:52:46Z</time></trkpt><trkpt lat="41.51691916137473" lon="19.869413287322015"><ele>852.5</ele><time>2026-04-29T12:52:47Z</time></trkpt><trkpt lat="41.51691022421006" lon="19.869570946664727"><ele>852.75</ele><time>2026-04-29T12:52:48Z</time></trkpt><trkpt lat="41.51690231846892" lon="19.869708480631914"><ele>853.0</ele><time>2026-04-29T12:52:49Z</time></trkpt><trkpt lat="41.516892982766784" lon="19.869838716950305"><ele>853.0</ele><time>2026-04-29T12:52:50Z</time></trkpt><trkpt lat="41.51686113273383" lon="19.86995705632019"><ele>853.0</ele><time>2026-04-29T12:52:51Z</time></trkpt><trkpt lat="41.516833930294965" lon="19.870096186960758"><ele>853.0</ele><time>2026-04-29T12:52:52Z</time></trkpt><trkpt lat="41.516772786744006" lon="19.870181533609678"><ele>853.0</ele><time>2026-04-29T12:52:53Z</time></trkpt><trkpt lat="41.51671534917715" lon="19.870291133037096"><ele>853.0</ele><time>2026-04-29T12:52:54Z</time></trkpt><trkpt lat="41.5166492646231" lon="19.870391745836155"><ele>856.25</ele><time>2026-04-29T12:52:55Z</time></trkpt><trkpt lat="41.51660521089386" lon="19.870508389454816"><ele>859.5</ele><time>2026-04-29T12:52:56Z</time></trkpt><trkpt lat="41.516548850006124" lon="19.870644969759258"><ele>862.75</ele><time>2026-04-29T12:52:57Z</time></trkpt><trkpt lat="41.516503164186325" lon="19.870813319739426"><ele>866.0</ele><time>2026-04-29T12:52:58Z</time></trkpt><trkpt lat="41.516451024178295" lon="19.8709799632798"><ele>869.0</ele><time>2026-04-29T12:52:59Z</time></trkpt><trkpt lat="41.516421101457794" lon="19.871123524832093"><ele>871.9999999999999</ele><time>2026-04-29T12:53:00Z</time></trkpt><trkpt lat="41.51636782494007" lon="19.871213029898456"><ele>874.9999999999999</ele><time>2026-04-29T12:53:01Z</time></trkpt><trkpt lat="41.516303730297224" lon="19.87130323355891"><ele>878.0</ele><time>2026-04-29T12:53:02Z</time></trkpt><trkpt lat="41.516239195046055" lon="19.87143542043433"><ele>881.0</ele><time>2026-04-29T12:53:03Z</time></trkpt><trkpt lat="41.516161557947164" lon="19.871591495825975"><ele>873.0</ele><time>2026-04-29T12:53:04Z</time></trkpt><trkpt lat="41.516097822484845" lon="19.871783041032362"><ele>865.0</ele><time>2026-04-29T12:53:05Z</time></trkpt><trkpt lat="41.51604339759189" lon="19.872000132851493"><ele>857.0</ele><time>2026-04-29T12:53:06Z</time></trkpt><trkpt lat="41.5159896378993" lon="19.87218979756155"><ele>857.0</ele><time>2026-04-29T12:53:07Z</time></trkpt><trkpt lat="41.51597715935706" lon="19.872331109528428"><ele>857.0</ele><time>2026-04-29T12:53:08Z</time></trkpt><trkpt lat="41.51595767306841" lon="19.87243929259665"><ele>857.0</ele><time>2026-04-29T12:53:09Z</time></trkpt><trkpt lat="41.51598085986667" lon="19.872547535284152"><ele>857.0</ele><time>2026-04-29T12:53:10Z</time></trkpt><trkpt lat="41.51603956450147" lon="19.872673009623156"><ele>857.0</ele><time>2026-04-29T12:53:11Z</time></trkpt><trkpt lat="41.51611950233735" lon="19.872821883377537"><ele>854.6666666666667</ele><time>2026-04-29T12:53:12Z</time></trkpt><trkpt lat="41.51619186948655" lon="19.873021132737854"><ele>852.3333333333333</ele><time>2026-04-29T12:53:13Z</time></trkpt><trkpt lat="41.516296832612284" lon="19.87321079083568"><ele>850.0</ele><time>2026-04-29T12:53:14Z</time></trkpt><trkpt lat="41.51642825680073" lon="19.87334833357015"><ele>857.6</ele><time>2026-04-29T12:53:15Z</time></trkpt><trkpt lat="41.516488976771" lon="19.87346577366609"><ele>865.2</ele><time>2026-04-29T12:53:16Z</time></trkpt><trkpt lat="41.516529486688555" lon="19.873533448355175"><ele>872.8</ele><time>2026-04-29T12:53:17Z</time></trkpt><trkpt lat="41.51647111891559" lon="19.873643254733413"><ele>880.4</ele><time>2026-04-29T12:53:19Z</time></trkpt><trkpt lat="41.516439623520775" lon="19.87374198704203"><ele>888.0</ele><time>2026-04-29T12:53:20Z</time></trkpt><trkpt lat="41.51636377226867" lon="19.87386169509422"><ele>888.0</ele><time>2026-04-29T12:53:21Z</time></trkpt><trkpt lat="41.51628375964185" lon="19.874024494077187"><ele>888.0</ele><time>2026-04-29T12:53:22Z</time></trkpt><trkpt lat="41.51625099258169" lon="19.874215225374947"><ele>888.0</ele><time>2026-04-29T12:53:23Z</time></trkpt><trkpt lat="41.51623103409944" lon="19.874349456008808"><ele>888.0</ele><time>2026-04-29T12:53:24Z</time></trkpt><trkpt lat="41.51624945354639" lon="19.874486306034214"><ele>887.5</ele><time>2026-04-29T12:53:25Z</time></trkpt><trkpt lat="41.516304882491866" lon="19.874645531697517"><ele>887.0</ele><time>2026-04-29T12:53:26Z</time></trkpt><trkpt lat="41.51636789418331" lon="19.874843296459492"><ele>886.5</ele><time>2026-04-29T12:53:27Z</time></trkpt><trkpt lat="41.516411654468925" lon="19.87502414416281"><ele>886.0</ele><time>2026-04-29T12:53:28Z</time></trkpt><trkpt lat="41.51646646696829" lon="19.87516623310392"><ele>887.8</ele><time>2026-04-29T12:53:29Z</time></trkpt><trkpt lat="41.51655329002176" lon="19.875283713618877"><ele>889.5999999999999</ele><time>2026-04-29T12:53:30Z</time></trkpt><trkpt lat="41.51663622381735" lon="19.87541168862081"><ele>891.4</ele><time>2026-04-29T12:53:31Z</time></trkpt><trkpt lat="41.51669671503349" lon="19.87552025614223"><ele>893.2</ele><time>2026-04-29T12:53:32Z</time></trkpt><trkpt lat="41.5166753953446" lon="19.875618490061175"><ele>895.0</ele><time>2026-04-29T12:53:33Z</time></trkpt><trkpt lat="41.51660224121838" lon="19.875743598718103"><ele>895.0</ele><time>2026-04-29T12:53:35Z</time></trkpt><trkpt lat="41.51651738520487" lon="19.875806952538397"><ele>895.0</ele><time>2026-04-29T12:53:36Z</time></trkpt><trkpt lat="41.51638518741183" lon="19.875834579938513"><ele>895.0</ele><time>2026-04-29T12:53:37Z</time></trkpt><trkpt lat="41.51624024402337" lon="19.87591480730676"><ele>895.0</ele><time>2026-04-29T12:53:38Z</time></trkpt><trkpt lat="41.516143083177504" lon="19.875981060087724"><ele>888.4</ele><time>2026-04-29T12:53:39Z</time></trkpt><trkpt lat="41.51609330644182" lon="19.87609449118814"><ele>881.8</ele><time>2026-04-29T12:53:40Z</time></trkpt><trkpt lat="41.51609168528247" lon="19.87622271415007"><ele>875.2</ele><time>2026-04-29T12:53:41Z</time></trkpt><trkpt lat="41.51611572124894" lon="19.876360933766875"><ele>868.6</ele><time>2026-04-29T12:53:42Z</time></trkpt><trkpt lat="41.5161606363777" lon="19.876516357111097"><ele>862.0</ele><time>2026-04-29T12:53:43Z</time></trkpt><trkpt lat="41.516209064945535" lon="19.876685904553305"><ele>867.0</ele><time>2026-04-29T12:53:44Z</time></trkpt><trkpt lat="41.516262895753066" lon="19.876816358144183"><ele>872.0</ele><time>2026-04-29T12:53:45Z</time></trkpt><trkpt lat="41.5163468384217" lon="19.87689660099061"><ele>877.0</ele><time>2026-04-29T12:53:46Z</time></trkpt><trkpt lat="41.516455967746964" lon="19.87694520563424"><ele>882.0</ele><time>2026-04-29T12:53:47Z</time></trkpt><trkpt lat="41.516585029493164" lon="19.876963714326237"><ele>882.0</ele><time>2026-04-29T12:53:48Z</time></trkpt><trkpt lat="41.51672816340218" lon="19.877021355054264"><ele>882.0</ele><time>2026-04-29T12:53:49Z</time></trkpt><trkpt lat="41.51687792892748" lon="19.877097693832926"><ele>882.0</ele><time>2026-04-29T12:53:50Z</time></trkpt><trkpt lat="41.51703704584515" lon="19.87717881713683"><ele>889.4000000000001</ele><time>2026-04-29T12:53:51Z</time></trkpt><trkpt lat="41.517171430982884" lon="19.87724398516415"><ele>896.8000000000001</ele><time>2026-04-29T12:53:52Z</time></trkpt><trkpt lat="41.51728188293273" lon="19.877294956438742"><ele>904.2</ele><time>2026-04-29T12:53:53Z</time></trkpt><trkpt lat="41.51734356835645" lon="19.877366124418383"><ele>911.6</ele><time>2026-04-29T12:53:54Z</time></trkpt><trkpt lat="41.517402038030724" lon="19.87743272916499"><ele>919.0</ele><time>2026-04-29T12:53:55Z</time></trkpt><trkpt lat="41.51742663083551" lon="19.877551840516364"><ele>918.8333333333333</ele><time>2026-04-29T12:53:56Z</time></trkpt><trkpt lat="41.5174168741041" lon="19.877669056845345"><ele>918.6666666666666</ele><time>2026-04-29T12:53:57Z</time></trkpt><trkpt lat="41.51742208886819" lon="19.877758696487277"><ele>918.5</ele><time>2026-04-29T12:53:58Z</time></trkpt><trkpt lat="41.51734662128046" lon="19.877799060649675"><ele>918.3333333333333</ele><time>2026-04-29T12:53:59Z</time></trkpt><trkpt lat="41.517265521232694" lon="19.877820230356875"><ele>918.1666666666666</ele><time>2026-04-29T12:54:00Z</time></trkpt><trkpt lat="41.51717161995258" lon="19.877873994462888"><ele>918.0</ele><time>2026-04-29T12:54:01Z</time></trkpt><trkpt lat="41.51709514002528" lon="19.87802847691066"><ele>918.0</ele><time>2026-04-29T12:54:02Z</time></trkpt><trkpt lat="41.51702063315611" lon="19.878105212411306"><ele>918.0</ele><time>2026-04-29T12:54:03Z</time></trkpt><trkpt lat="41.517027654175024" lon="19.87822490258942"><ele>918.0</ele><time>2026-04-29T12:54:04Z</time></trkpt><trkpt lat="41.51702124875688" lon="19.878312268989344"><ele>918.0</ele><time>2026-04-29T12:54:05Z</time></trkpt><trkpt lat="41.51712601183816" lon="19.87841186017516"><ele>918.0</ele><time>2026-04-29T12:54:06Z</time></trkpt><trkpt lat="41.51721821330417" lon="19.878500642969517"><ele>918.25</ele><time>2026-04-29T12:54:07Z</time></trkpt><trkpt lat="41.51732546909633" lon="19.878602441036637"><ele>918.5</ele><time>2026-04-29T12:54:08Z</time></trkpt><trkpt lat="41.51743103225154" lon="19.87874073343283"><ele>918.75</ele><time>2026-04-29T12:54:09Z</time></trkpt><trkpt lat="41.51752688339549" lon="19.878859507759884"><ele>919.0</ele><time>2026-04-29T12:54:10Z</time></trkpt><trkpt lat="41.517587463977925" lon="19.878947533154147"><ele>919.0</ele><time>2026-04-29T12:54:11Z</time></trkpt><trkpt lat="41.51758241619404" lon="19.87905447788339"><ele>919.0000000000001</ele><time>2026-04-29T12:54:12Z</time></trkpt><trkpt lat="41.51751767756386" lon="19.879138732962744"><ele>919.0000000000001</ele><time>2026-04-29T12:54:13Z</time></trkpt><trkpt lat="41.51746182871258" lon="19.87923947434918"><ele>919.0</ele><time>2026-04-29T12:54:14Z</time></trkpt><trkpt lat="41.51739612063377" lon="19.87935981909044"><ele>919.0</ele><time>2026-04-29T12:54:15Z</time></trkpt><trkpt lat="41.51737236724139" lon="19.879478030391205"><ele>919.8000000000001</ele><time>2026-04-29T12:54:16Z</time></trkpt><trkpt lat="41.51738746977149" lon="19.87958212477319"><ele>920.6000000000001</ele><time>2026-04-29T12:54:17Z</time></trkpt><trkpt lat="41.51742417722081" lon="19.879699461473365"><ele>921.4</ele><time>2026-04-29T12:54:18Z</time></trkpt><trkpt lat="41.51747743103175" lon="19.87983674455744"><ele>922.2</ele><time>2026-04-29T12:54:19Z</time></trkpt><trkpt lat="41.5175603212502" lon="19.87999167789597"><ele>923.0</ele><time>2026-04-29T12:54:20Z</time></trkpt><trkpt lat="41.51762414942443" lon="19.88010812768028"><ele>924.4</ele><time>2026-04-29T12:54:21Z</time></trkpt><trkpt lat="41.51765835354997" lon="19.88019845374729"><ele>925.8</ele><time>2026-04-29T12:54:22Z</time></trkpt><trkpt lat="41.51761623106713" lon="19.880329029671614"><ele>927.2</ele><time>2026-04-29T12:54:24Z</time></trkpt><trkpt lat="41.51752490533756" lon="19.88046140940886"><ele>928.6</ele><time>2026-04-29T12:54:26Z</time></trkpt><trkpt lat="41.51745949471293" lon="19.880555158380517"><ele>930.0</ele><time>2026-04-29T12:54:27Z</time></trkpt><trkpt lat="41.51740044098423" lon="19.880682188762243"><ele>930.0</ele><time>2026-04-29T12:54:28Z</time></trkpt><trkpt lat="41.51734747334184" lon="19.880834562382415"><ele>930.0</ele><time>2026-04-29T12:54:29Z</time></trkpt><trkpt lat="41.51730895243306" lon="19.88101679888868"><ele>930.0</ele><time>2026-04-29T12:54:30Z</time></trkpt><trkpt lat="41.51729331250395" lon="19.88121282716116"><ele>930.0</ele><time>2026-04-29T12:54:31Z</time></trkpt><trkpt lat="41.517305730399656" lon="19.88141997021785"><ele>931.0</ele><time>2026-04-29T12:54:32Z</time></trkpt><trkpt lat="41.51733344126208" lon="19.881634712888474"><ele>932.0</ele><time>2026-04-29T12:54:33Z</time></trkpt><trkpt lat="41.517369123184615" lon="19.88185862938608"><ele>933.0</ele><time>2026-04-29T12:54:34Z</time></trkpt><trkpt lat="41.51739701993451" lon="19.88209509842631"><ele>933.5</ele><time>2026-04-29T12:54:35Z</time></trkpt><trkpt lat="41.51740016232715" lon="19.88230930126128"><ele>934.0</ele><time>2026-04-29T12:54:36Z</time></trkpt><trkpt lat="41.51740523581249" lon="19.88248814689057"><ele>934.5</ele><time>2026-04-29T12:54:37Z</time></trkpt><trkpt lat="41.517427730839096" lon="19.882633647704242"><ele>935.0</ele><time>2026-04-29T12:54:38Z</time></trkpt><trkpt lat="41.517454289012946" lon="19.882747639808766"><ele>936.3333333333334</ele><time>2026-04-29T12:54:39Z</time></trkpt><trkpt lat="41.517492536489655" lon="19.882836527280787"><ele>937.6666666666667</ele><time>2026-04-29T12:54:40Z</time></trkpt><trkpt lat="41.51755482496741" lon="19.88290624714478"><ele>939.0</ele><time>2026-04-29T12:54:41Z</time></trkpt><trkpt lat="41.51763676345358" lon="19.88294978690158"><ele>940.3333333333333</ele><time>2026-04-29T12:54:42Z</time></trkpt><trkpt lat="41.51773880385822" lon="19.88295520751934"><ele>941.6666666666666</ele><time>2026-04-29T12:54:43Z</time></trkpt><trkpt lat="41.51783829151437" lon="19.882959332376018"><ele>943.0</ele><time>2026-04-29T12:54:44Z</time></trkpt><trkpt lat="41.51793827181714" lon="19.88297012053931"><ele>943.0</ele><time>2026-04-29T12:54:45Z</time></trkpt><trkpt lat="41.51802223621128" lon="19.882895912122756"><ele>943.0</ele><time>2026-04-29T12:54:46Z</time></trkpt><trkpt lat="41.51808156130205" lon="19.88281873401374"><ele>943.0</ele><time>2026-04-29T12:54:47Z</time></trkpt><trkpt lat="41.51813668427262" lon="19.88271150887598"><ele>943.0</ele><time>2026-04-29T12:54:48Z</time></trkpt><trkpt lat="41.5181918029797" lon="19.88258127970815"><ele>943.0</ele><time>2026-04-29T12:54:49Z</time></trkpt><trkpt lat="41.51825830641192" lon="19.882438760489105"><ele>944.5999999999999</ele><time>2026-04-29T12:54:50Z</time></trkpt><trkpt lat="41.51829510561516" lon="19.88232437985702"><ele>946.1999999999999</ele><time>2026-04-29T12:54:51Z</time></trkpt><trkpt lat="41.518293284790644" lon="19.88221861503014"><ele>947.8</ele><time>2026-04-29T12:54:52Z</time></trkpt><trkpt lat="41.51826432900692" lon="19.88211451436315"><ele>949.4</ele><time>2026-04-29T12:54:53Z</time></trkpt><trkpt lat="41.518217230817406" lon="19.882010667486576"><ele>951.0</ele><time>2026-04-29T12:54:54Z</time></trkpt><trkpt lat="41.51814897095729" lon="19.88188885539547"><ele>952.0</ele><time>2026-04-29T12:54:55Z</time></trkpt><trkpt lat="41.51807197842222" lon="19.88173147349099"><ele>952.9999999999999</ele><time>2026-04-29T12:54:56Z</time></trkpt><trkpt lat="41.51801377042526" lon="19.8815897850174"><ele>953.9999999999999</ele><time>2026-04-29T12:54:57Z</time></trkpt><trkpt lat="41.51796955536451" lon="19.881485596122992"><ele>955.0</ele><time>2026-04-29T12:54:58Z</time></trkpt><trkpt lat="41.51796804226695" lon="19.881387361437596"><ele>956.0</ele><time>2026-04-29T12:54:59Z</time></trkpt><trkpt lat="41.5180053513603" lon="19.881293498149674"><ele>956.0</ele><time>2026-04-29T12:55:00Z</time></trkpt><trkpt lat="41.51806297392323" lon="19.881188716063008"><ele>955.9999999999999</ele><time>2026-04-29T12:55:01Z</time></trkpt><trkpt lat="41.51816022476585" lon="19.88107282275196"><ele>955.9999999999999</ele><time>2026-04-29T12:55:02Z</time></trkpt><trkpt lat="41.5182661295188" lon="19.880977956537702"><ele>956.0</ele><time>2026-04-29T12:55:03Z</time></trkpt><trkpt lat="41.51832412501581" lon="19.88088822283317"><ele>956.0</ele><time>2026-04-29T12:55:04Z</time></trkpt><trkpt lat="41.51842190416162" lon="19.880919003204472"><ele>956.0</ele><time>2026-04-29T12:55:06Z</time></trkpt><trkpt lat="41.51841127839272" lon="19.88106380748838"><ele>955.9999999999999</ele><time>2026-04-29T12:55:08Z</time></trkpt><trkpt lat="41.51833208390128" lon="19.881071638645178"><ele>955.9999999999999</ele><time>2026-04-29T12:55:09Z</time></trkpt><trkpt lat="41.518250122918005" lon="19.881139600238114"><ele>956.0</ele><time>2026-04-29T12:55:10Z</time></trkpt><trkpt lat="41.518181902920475" lon="19.881245572357084"><ele>956.0</ele><time>2026-04-29T12:55:11Z</time></trkpt><trkpt lat="41.51820527086492" lon="19.881374038284633"><ele>956.0</ele><time>2026-04-29T12:55:12Z</time></trkpt><trkpt lat="41.5182298256688" lon="19.88148475572465"><ele>956.0</ele><time>2026-04-29T12:55:13Z</time></trkpt><trkpt lat="41.518324406730244" lon="19.881598470384677"><ele>956.0</ele><time>2026-04-29T12:55:14Z</time></trkpt><trkpt lat="41.51841947331898" lon="19.88173840391062"><ele>956.0</ele><time>2026-04-29T12:55:15Z</time></trkpt><trkpt lat="41.51851731817906" lon="19.881900389666956"><ele>955.0</ele><time>2026-04-29T12:55:16Z</time></trkpt><trkpt lat="41.51859321625054" lon="19.882046018531852"><ele>953.9999999999999</ele><time>2026-04-29T12:55:17Z</time></trkpt><trkpt lat="41.51865331600394" lon="19.882160575636128"><ele>952.9999999999999</ele><time>2026-04-29T12:55:18Z</time></trkpt><trkpt lat="41.51871006652552" lon="19.882235856684638"><ele>952.0</ele><time>2026-04-29T12:55:19Z</time></trkpt><trkpt lat="41.518830419287255" lon="19.882186498380218"><ele>951.0</ele><time>2026-04-29T12:55:21Z</time></trkpt><trkpt lat="41.51884293395854" lon="19.8820993594947"><ele>951.0</ele><time>2026-04-29T12:55:22Z</time></trkpt><trkpt lat="41.518815434494336" lon="19.881993941288062"><ele>950.9999999999999</ele><time>2026-04-29T12:55:23Z</time></trkpt><trkpt lat="41.51875775334185" lon="19.881899384297803"><ele>950.9999999999999</ele><time>2026-04-29T12:55:24Z</time></trkpt><trkpt lat="41.51867227232887" lon="19.881811540293153"><ele>951.0</ele><time>2026-04-29T12:55:25Z</time></trkpt><trkpt lat="41.518594863701686" lon="19.88169725759619"><ele>951.0</ele><time>2026-04-29T12:55:26Z</time></trkpt><trkpt lat="41.5185941159952" lon="19.88156413439377"><ele>952.0</ele><time>2026-04-29T12:55:27Z</time></trkpt><trkpt lat="41.51857461725246" lon="19.881436671286824"><ele>952.9999999999999</ele><time>2026-04-29T12:55:28Z</time></trkpt><trkpt lat="41.51861447413391" lon="19.88133106442742"><ele>953.9999999999999</ele><time>2026-04-29T12:55:29Z</time></trkpt><trkpt lat="41.518685943730105" lon="19.881246285382826"><ele>955.0</ele><time>2026-04-29T12:55:30Z</time></trkpt><trkpt lat="41.5187936026506" lon="19.881180012958357"><ele>956.0</ele><time>2026-04-29T12:55:31Z</time></trkpt><trkpt lat="41.51885281008894" lon="19.881037920027122"><ele>962.25</ele><time>2026-04-29T12:55:32Z</time></trkpt><trkpt lat="41.51891373655054" lon="19.880857278652467"><ele>968.5</ele><time>2026-04-29T12:55:33Z</time></trkpt><trkpt lat="41.51895719380863" lon="19.880677224744662"><ele>974.75</ele><time>2026-04-29T12:55:34Z</time></trkpt><trkpt lat="41.519005600017515" lon="19.880544498667646"><ele>981.0</ele><time>2026-04-29T12:55:35Z</time></trkpt><trkpt lat="41.51905920949516" lon="19.88042244474301"><ele>981.0</ele><time>2026-04-29T12:55:36Z</time></trkpt><trkpt lat="41.5191260516265" lon="19.88037285551428"><ele>980.9999999999999</ele><time>2026-04-29T12:55:37Z</time></trkpt><trkpt lat="41.51921507550391" lon="19.880520273136618"><ele>980.9999999999999</ele><time>2026-04-29T12:55:39Z</time></trkpt><trkpt lat="41.51923110468501" lon="19.88062436451661"><ele>981.0</ele><time>2026-04-29T12:55:41Z</time></trkpt><trkpt lat="41.51913154998857" lon="19.880757160921796"><ele>981.0</ele><time>2026-04-29T12:55:42Z</time></trkpt><trkpt lat="41.519087980021716" lon="19.88085223436433"><ele>980.8333333333334</ele><time>2026-04-29T12:55:43Z</time></trkpt><trkpt lat="41.519066379827514" lon="19.880983663494987"><ele>980.6666666666667</ele><time>2026-04-29T12:55:44Z</time></trkpt><trkpt lat="41.51906526383273" lon="19.88109530037273"><ele>980.5</ele><time>2026-04-29T12:55:45Z</time></trkpt><trkpt lat="41.51905534023775" lon="19.88117999721832"><ele>980.3333333333334</ele><time>2026-04-29T12:55:46Z</time></trkpt><trkpt lat="41.51910094571021" lon="19.88128519083535"><ele>980.1666666666667</ele><time>2026-04-29T12:55:47Z</time></trkpt><trkpt lat="41.5191525678144" lon="19.88138200957268"><ele>980.0</ele><time>2026-04-29T12:55:48Z</time></trkpt><trkpt lat="41.51920015072695" lon="19.881467618647548"><ele>980.0000000000001</ele><time>2026-04-29T12:55:49Z</time></trkpt><trkpt lat="41.51921870950566" lon="19.88156076104717"><ele>980.0</ele><time>2026-04-29T12:55:50Z</time></trkpt><trkpt lat="41.51924437345457" lon="19.881662905056224"><ele>980.0</ele><time>2026-04-29T12:55:51Z</time></trkpt><trkpt lat="41.51926589113634" lon="19.881762002183525"><ele>980.0</ele><time>2026-04-29T12:55:52Z</time></trkpt><trkpt lat="41.51928796944863" lon="19.88186796238589"><ele>980.0000000000001</ele><time>2026-04-29T12:55:53Z</time></trkpt><trkpt lat="41.51930980708545" lon="19.881973726974884"><ele>980.0</ele><time>2026-04-29T12:55:54Z</time></trkpt><trkpt lat="41.5193361481156" lon="19.882099377503252"><ele>979.25</ele><time>2026-04-29T12:55:55Z</time></trkpt><trkpt lat="41.51936209808666" lon="19.882222532770232"><ele>978.5</ele><time>2026-04-29T12:55:56Z</time></trkpt><trkpt lat="41.51944696424536" lon="19.88232732970687"><ele>977.75</ele><time>2026-04-29T12:55:58Z</time></trkpt><trkpt lat="41.519588460105616" lon="19.882288949544552"><ele>977.0</ele><time>2026-04-29T12:56:00Z</time></trkpt><trkpt lat="41.51962465336542" lon="19.882156285399805"><ele>977.75</ele><time>2026-04-29T12:56:01Z</time></trkpt><trkpt lat="41.519609101478125" lon="19.882018967865758"><ele>978.5</ele><time>2026-04-29T12:56:02Z</time></trkpt><trkpt lat="41.51958148773765" lon="19.881863625218823"><ele>979.25</ele><time>2026-04-29T12:56:03Z</time></trkpt><trkpt lat="41.51954938714979" lon="19.88166671470564"><ele>980.0</ele><time>2026-04-29T12:56:04Z</time></trkpt><trkpt lat="41.51957519453934" lon="19.881492399086756"><ele>987.5</ele><time>2026-04-29T12:56:05Z</time></trkpt><trkpt lat="41.519591943790786" lon="19.8813327683617"><ele>995.0</ele><time>2026-04-29T12:56:06Z</time></trkpt><trkpt lat="41.51963410361019" lon="19.881164823598947"><ele>1002.5</ele><time>2026-04-29T12:56:07Z</time></trkpt><trkpt lat="41.51966442741207" lon="19.880990107706957"><ele>1010.0</ele><time>2026-04-29T12:56:08Z</time></trkpt><trkpt lat="41.51968867743491" lon="19.88085598045311"><ele>1010.0</ele><time>2026-04-29T12:56:09Z</time></trkpt><trkpt lat="41.51978918591111" lon="19.88079949883876"><ele>1010.0</ele><time>2026-04-29T12:56:11Z</time></trkpt><trkpt lat="41.51981137920369" lon="19.881009442729745"><ele>1010.0</ele><time>2026-04-29T12:56:14Z</time></trkpt><trkpt lat="41.51976012544569" lon="19.881102255256852"><ele>1010.0</ele><time>2026-04-29T12:56:15Z</time></trkpt><trkpt lat="41.51973663837703" lon="19.881250368003126"><ele>1010.0</ele><time>2026-04-29T12:56:16Z</time></trkpt><trkpt lat="41.51970140053" lon="19.881415397308643"><ele>1010.0</ele><time>2026-04-29T12:56:17Z</time></trkpt><trkpt lat="41.51970280262076" lon="19.881595182943432"><ele>1010.0</ele><time>2026-04-29T12:56:18Z</time></trkpt><trkpt lat="41.51973875896893" lon="19.881753133244143"><ele>1010.0</ele><time>2026-04-29T12:56:19Z</time></trkpt><trkpt lat="41.519801407446174" lon="19.88189359524628"><ele>1010.3333333333334</ele><time>2026-04-29T12:56:20Z</time></trkpt><trkpt lat="41.51985279310335" lon="19.882063902650163"><ele>1010.6666666666667</ele><time>2026-04-29T12:56:21Z</time></trkpt><trkpt lat="41.51988343257281" lon="19.88227465239286"><ele>1011.0</ele><time>2026-04-29T12:56:22Z</time></trkpt><trkpt lat="41.51990112652414" lon="19.882512467129033"><ele>1012.5</ele><time>2026-04-29T12:56:23Z</time></trkpt><trkpt lat="41.51991046984902" lon="19.88272011362864"><ele>1014.0</ele><time>2026-04-29T12:56:24Z</time></trkpt><trkpt lat="41.51990896208461" lon="19.88288293338884"><ele>1015.5</ele><time>2026-04-29T12:56:25Z</time></trkpt><trkpt lat="41.51993641802941" lon="19.883036079908663"><ele>1017.0</ele><time>2026-04-29T12:56:26Z</time></trkpt><trkpt lat="41.5199532713585" lon="19.883208477501647"><ele>1017.0</ele><time>2026-04-29T12:56:27Z</time></trkpt><trkpt lat="41.51997753817239" lon="19.883395366023716"><ele>1017.0</ele><time>2026-04-29T12:56:28Z</time></trkpt><trkpt lat="41.5199668758893" lon="19.883583011706214"><ele>1017.0</ele><time>2026-04-29T12:56:29Z</time></trkpt><trkpt lat="41.519940204939736" lon="19.883744928354265"><ele>1017.0</ele><time>2026-04-29T12:56:30Z</time></trkpt><trkpt lat="41.51990185770415" lon="19.883877177761175"><ele>1017.6</ele><time>2026-04-29T12:56:31Z</time></trkpt><trkpt lat="41.519876256555115" lon="19.883983924644493"><ele>1018.2</ele><time>2026-04-29T12:56:32Z</time></trkpt><trkpt lat="41.51989615087995" lon="19.8840699018361"><ele>1018.8</ele><time>2026-04-29T12:56:33Z</time></trkpt><trkpt lat="41.519981135950864" lon="19.884150565943546"><ele>1019.4</ele><time>2026-04-29T12:56:35Z</time></trkpt><trkpt lat="41.52006472044234" lon="19.884258802970848"><ele>1020.0</ele><time>2026-04-29T12:56:37Z</time></trkpt><trkpt lat="41.520109109178975" lon="19.88436455275897"><ele>1020.0</ele><time>2026-04-29T12:56:38Z</time></trkpt><trkpt lat="41.520167882156066" lon="19.884479207994627"><ele>1020.0</ele><time>2026-04-29T12:56:39Z</time></trkpt><trkpt lat="41.52015181172014" lon="19.884588496392453"><ele>1020.0</ele><time>2026-04-29T12:56:40Z</time></trkpt><trkpt lat="41.52014776315918" lon="19.884714867060183"><ele>1020.0</ele><time>2026-04-29T12:56:41Z</time></trkpt><trkpt lat="41.52010979646679" lon="19.88484334123397"><ele>1020.0</ele><time>2026-04-29T12:56:42Z</time></trkpt><trkpt lat="41.520080046893035" lon="19.884981955026046"><ele>1020.75</ele><time>2026-04-29T12:56:43Z</time></trkpt><trkpt lat="41.52004545561767" lon="19.88514229946119"><ele>1021.5</ele><time>2026-04-29T12:56:44Z</time></trkpt><trkpt lat="41.5200193969134" lon="19.885325702921552"><ele>1022.25</ele><time>2026-04-29T12:56:45Z</time></trkpt><trkpt lat="41.519979634605924" lon="19.885474013889723"><ele>1023.0</ele><time>2026-04-29T12:56:46Z</time></trkpt><trkpt lat="41.51994284620078" lon="19.885602214542963"><ele>1023.0</ele><time>2026-04-29T12:56:47Z</time></trkpt><trkpt lat="41.51990297128146" lon="19.88572653837517"><ele>1023.0</ele><time>2026-04-29T12:56:48Z</time></trkpt><trkpt lat="41.51987531971926" lon="19.885834159798303"><ele>1023.0</ele><time>2026-04-29T12:56:49Z</time></trkpt><trkpt lat="41.51987370797433" lon="19.8859271006417"><ele>1023.0</ele><time>2026-04-29T12:56:50Z</time></trkpt><trkpt lat="41.51989709741441" lon="19.886007226335234"><ele>1023.0</ele><time>2026-04-29T12:56:51Z</time></trkpt><trkpt lat="41.51994476286748" lon="19.886063909025843"><ele>1023.0</ele><time>2026-04-29T12:56:52Z</time></trkpt><trkpt lat="41.52000899302274" lon="19.88612508927789"><ele>1026.0</ele><time>2026-04-29T12:56:53Z</time></trkpt><trkpt lat="41.520096669887835" lon="19.88616355546868"><ele>1029.0</ele><time>2026-04-29T12:56:54Z</time></trkpt><trkpt lat="41.520213057464794" lon="19.88620270274132"><ele>1032.0</ele><time>2026-04-29T12:56:55Z</time></trkpt><trkpt lat="41.520302680833744" lon="19.886320696509483"><ele>1035.0</ele><time>2026-04-29T12:56:56Z</time></trkpt><trkpt lat="41.52037303656097" lon="19.886402111489407"><ele>1038.0</ele><time>2026-04-29T12:56:57Z</time></trkpt><trkpt lat="41.52044994660675" lon="19.886419179230337"><ele>1038.0</ele><time>2026-04-29T12:56:58Z</time></trkpt><trkpt lat="41.520556932626356" lon="19.88637717880377"><ele>1038.0</ele><time>2026-04-29T12:56:59Z</time></trkpt><trkpt lat="41.520651906882804" lon="19.88633782502634"><ele>1038.0</ele><time>2026-04-29T12:57:00Z</time></trkpt><trkpt lat="41.52075877490018" lon="19.88643640048886"><ele>1038.0</ele><time>2026-04-29T12:57:02Z</time></trkpt><trkpt lat="41.52083074379127" lon="19.88652705429954"><ele>1038.0</ele><time>2026-04-29T12:57:03Z</time></trkpt><trkpt lat="41.52088946422212" lon="19.886631451716152"><ele>1038.0</ele><time>2026-04-29T12:57:04Z</time></trkpt><trkpt lat="41.52096845200442" lon="19.886752102707536"><ele>1038.0</ele><time>2026-04-29T12:57:05Z</time></trkpt><trkpt lat="41.52104222824154" lon="19.88688811431611"><ele>1038.0</ele><time>2026-04-29T12:57:06Z</time></trkpt><trkpt lat="41.52115113934868" lon="19.88698301515332"><ele>1038.0</ele><time>2026-04-29T12:57:07Z</time></trkpt><trkpt lat="41.52124759792534" lon="19.887114625296253"><ele>1040.3333333333333</ele><time>2026-04-29T12:57:08Z</time></trkpt><trkpt lat="41.5213134920121" lon="19.8872366540523"><ele>1042.6666666666667</ele><time>2026-04-29T12:57:09Z</time></trkpt><trkpt lat="41.52136734435346" lon="19.88733208089108"><ele>1045.0</ele><time>2026-04-29T12:57:10Z</time></trkpt><trkpt lat="41.5213797622" lon="19.887428738991712"><ele>1047.3333333333335</ele><time>2026-04-29T12:57:11Z</time></trkpt><trkpt lat="41.52136902778863" lon="19.887513010029995"><ele>1049.6666666666667</ele><time>2026-04-29T12:57:12Z</time></trkpt><trkpt lat="41.52136178906294" lon="19.887642839278353"><ele>1052.0</ele><time>2026-04-29T12:57:13Z</time></trkpt><trkpt lat="41.52135664644524" lon="19.88778898391148"><ele>1052.0</ele><time>2026-04-29T12:57:14Z</time></trkpt><trkpt lat="41.52137148172173" lon="19.887941544123144"><ele>1052.0</ele><time>2026-04-29T12:57:15Z</time></trkpt><trkpt lat="41.52138736135676" lon="19.888115778535855"><ele>1052.0</ele><time>2026-04-29T12:57:16Z</time></trkpt><trkpt lat="41.52138261535194" lon="19.88830781356892"><ele>1052.0</ele><time>2026-04-29T12:57:17Z</time></trkpt><trkpt lat="41.5213586548634" lon="19.888499652902322"><ele>1053.0</ele><time>2026-04-29T12:57:18Z</time></trkpt><trkpt lat="41.52134673514941" lon="19.88865367994614"><ele>1054.0</ele><time>2026-04-29T12:57:19Z</time></trkpt><trkpt lat="41.52136996120626" lon="19.88878548290429"><ele>1055.0</ele><time>2026-04-29T12:57:20Z</time></trkpt><trkpt lat="41.521421151025955" lon="19.888892544835063"><ele>1056.0</ele><time>2026-04-29T12:57:21Z</time></trkpt><trkpt lat="41.521483377184374" lon="19.888992545895157"><ele>1057.0</ele><time>2026-04-29T12:57:22Z</time></trkpt><trkpt lat="41.52153252250955" lon="19.889084384288417"><ele>1057.0</ele><time>2026-04-29T12:57:23Z</time></trkpt><trkpt lat="41.52146354519248" lon="19.889240106626715"><ele>1057.0</ele><time>2026-04-29T12:57:25Z</time></trkpt><trkpt lat="41.52143318399214" lon="19.88934077259941"><ele>1057.0</ele><time>2026-04-29T12:57:26Z</time></trkpt><trkpt lat="41.52138092451777" lon="19.889448055817855"><ele>1057.0</ele><time>2026-04-29T12:57:27Z</time></trkpt><trkpt lat="41.52133232926738" lon="19.88954864878258"><ele>1057.0</ele><time>2026-04-29T12:57:28Z</time></trkpt><trkpt lat="41.521300823389275" lon="19.889643076006667"><ele>1056.0</ele><time>2026-04-29T12:57:29Z</time></trkpt><trkpt lat="41.52128855486138" lon="19.889751946166186"><ele>1055.0</ele><time>2026-04-29T12:57:30Z</time></trkpt><trkpt lat="41.52127807480323" lon="19.889877754520874"><ele>1054.0</ele><time>2026-04-29T12:57:31Z</time></trkpt><trkpt lat="41.52125829376622" lon="19.890014497927897"><ele>1053.0</ele><time>2026-04-29T12:57:32Z</time></trkpt><trkpt lat="41.52121935546235" lon="19.890153913558365"><ele>1052.0</ele><time>2026-04-29T12:57:33Z</time></trkpt><trkpt lat="41.52119157709526" lon="19.890272163216213"><ele>1052.0</ele><time>2026-04-29T12:57:34Z</time></trkpt><trkpt lat="41.5211578985556" lon="19.890359049264955"><ele>1052.0</ele><time>2026-04-29T12:57:35Z</time></trkpt><trkpt lat="41.52115097699476" lon="19.890466324339073"><ele>1052.0</ele><time>2026-04-29T12:57:36Z</time></trkpt><trkpt lat="41.521162666374885" lon="19.890600932613914"><ele>1052.0</ele><time>2026-04-29T12:57:37Z</time></trkpt><trkpt lat="41.521169219533704" lon="19.890747394116758"><ele>1052.0</ele><time>2026-04-29T12:57:38Z</time></trkpt><trkpt lat="41.52117270185185" lon="19.890899936217078"><ele>1053.5</ele><time>2026-04-29T12:57:39Z</time></trkpt><trkpt lat="41.521167649560276" lon="19.891050444295082"><ele>1055.0</ele><time>2026-04-29T12:57:40Z</time></trkpt><trkpt lat="41.521171538805355" lon="19.891203363273267"><ele>1056.5</ele><time>2026-04-29T12:57:41Z</time></trkpt><trkpt lat="41.52116625590872" lon="19.891356115828888"><ele>1058.0</ele><time>2026-04-29T12:57:42Z</time></trkpt><trkpt lat="41.52114836383904" lon="19.89151067015088"><ele>1058.0</ele><time>2026-04-29T12:57:43Z</time></trkpt><trkpt lat="41.52109138047354" lon="19.891635366231142"><ele>1058.0</ele><time>2026-04-29T12:57:44Z</time></trkpt><trkpt lat="41.521063863878" lon="19.891782311389132"><ele>1058.0</ele><time>2026-04-29T12:57:45Z</time></trkpt><trkpt lat="41.521013686983565" lon="19.891919719722445"><ele>1058.0</ele><time>2026-04-29T12:57:46Z</time></trkpt><trkpt lat="41.520919666336205" lon="19.891960350746462"><ele>1058.0</ele><time>2026-04-29T12:57:47Z</time></trkpt><trkpt lat="41.52085288801758" lon="19.891975009652754"><ele>1061.4</ele><time>2026-04-29T12:57:48Z</time></trkpt><trkpt lat="41.52077679626542" lon="19.89201296681312"><ele>1064.8</ele><time>2026-04-29T12:57:49Z</time></trkpt><trkpt lat="41.52070444156017" lon="19.891948590023564"><ele>1068.2</ele><time>2026-04-29T12:57:50Z</time></trkpt><trkpt lat="41.52059835589651" lon="19.89192081847902"><ele>1071.6</ele><time>2026-04-29T12:57:51Z</time></trkpt><trkpt lat="41.52049316921388" lon="19.891868346404557"><ele>1075.0</ele><time>2026-04-29T12:57:52Z</time></trkpt><trkpt lat="41.520382970285645" lon="19.891814501769964"><ele>1075.0</ele><time>2026-04-29T12:57:53Z</time></trkpt><trkpt lat="41.52029423211907" lon="19.891785951809148"><ele>1075.0</ele><time>2026-04-29T12:57:54Z</time></trkpt><trkpt lat="41.520203162634324" lon="19.89180481659005"><ele>1075.0</ele><time>2026-04-29T12:57:55Z</time></trkpt><trkpt lat="41.52010814282709" lon="19.891823946398162"><ele>1075.0</ele><time>2026-04-29T12:57:56Z</time></trkpt><trkpt lat="41.52001993095211" lon="19.891854399281506"><ele>1075.0</ele><time>2026-04-29T12:57:57Z</time></trkpt><trkpt lat="41.519950416266745" lon="19.891952082598014"><ele>1075.0</ele><time>2026-04-29T12:57:58Z</time></trkpt><trkpt lat="41.51988750927037" lon="19.892079065368957"><ele>1075.0</ele><time>2026-04-29T12:57:59Z</time></trkpt><trkpt lat="41.51982836321892" lon="19.892204233064984"><ele>1075.0</ele><time>2026-04-29T12:58:00Z</time></trkpt><trkpt lat="41.519756395727136" lon="19.89229853531738"><ele>1075.0</ele><time>2026-04-29T12:58:01Z</time></trkpt><trkpt lat="41.519769893942325" lon="19.89241131855984"><ele>1075.0</ele><time>2026-04-29T12:58:02Z</time></trkpt><trkpt lat="41.519816313195584" lon="19.892468985933245"><ele>1075.0</ele><time>2026-04-29T12:58:03Z</time></trkpt><trkpt lat="41.519958972955216" lon="19.892436669898093"><ele>1075.0</ele><time>2026-04-29T12:58:05Z</time></trkpt><trkpt lat="41.52001927819763" lon="19.892370979050142"><ele>1075.0</ele><time>2026-04-29T12:58:06Z</time></trkpt><trkpt lat="41.520099209847885" lon="19.892296348900818"><ele>1075.0</ele><time>2026-04-29T12:58:07Z</time></trkpt><trkpt lat="41.5201847799438" lon="19.892302730281493"><ele>1075.0</ele><time>2026-04-29T12:58:08Z</time></trkpt><trkpt lat="41.52028449902027" lon="19.892325302366135"><ele>1075.5</ele><time>2026-04-29T12:58:09Z</time></trkpt><trkpt lat="41.52040590464104" lon="19.8923769437025"><ele>1076.0</ele><time>2026-04-29T12:58:10Z</time></trkpt><trkpt lat="41.52048187643715" lon="19.892456425943035"><ele>1076.5</ele><time>2026-04-29T12:58:11Z</time></trkpt><trkpt lat="41.52051223884402" lon="19.892550091147196"><ele>1077.0</ele><time>2026-04-29T12:58:13Z</time></trkpt><trkpt lat="41.52037318269871" lon="19.89263950867327"><ele>1081.0</ele><time>2026-04-29T12:58:15Z</time></trkpt><trkpt lat="41.520282184077935" lon="19.892695259864116"><ele>1085.0</ele><time>2026-04-29T12:58:16Z</time></trkpt><trkpt lat="41.52018961927586" lon="19.892797801534748"><ele>1089.0</ele><time>2026-04-29T12:58:17Z</time></trkpt><trkpt lat="41.52010704106019" lon="19.892933081478027"><ele>1093.0</ele><time>2026-04-29T12:58:18Z</time></trkpt><trkpt lat="41.52004227306323" lon="19.893035353510996"><ele>1093.0</ele><time>2026-04-29T12:58:19Z</time></trkpt><trkpt lat="41.52008703154452" lon="19.89315931698554"><ele>1093.0</ele><time>2026-04-29T12:58:20Z</time></trkpt><trkpt lat="41.52013543016375" lon="19.893216804045164"><ele>1093.0</ele><time>2026-04-29T12:58:21Z</time></trkpt><trkpt lat="41.52029260902244" lon="19.89317066771031"><ele>1093.0</ele><time>2026-04-29T12:58:23Z</time></trkpt><trkpt lat="41.52040494279152" lon="19.893124021967004"><ele>1093.0</ele><time>2026-04-29T12:58:24Z</time></trkpt><trkpt lat="41.52054036009451" lon="19.89310081370082"><ele>1095.6666666666665</ele><time>2026-04-29T12:58:25Z</time></trkpt><trkpt lat="41.52069319620829" lon="19.89313966762017"><ele>1098.3333333333333</ele><time>2026-04-29T12:58:26Z</time></trkpt><trkpt lat="41.52086250114391" lon="19.893144414783016"><ele>1101.0</ele><time>2026-04-29T12:58:27Z</time></trkpt><trkpt lat="41.52101980286512" lon="19.893165041540204"><ele>1101.0</ele><time>2026-04-29T12:58:28Z</time></trkpt><trkpt lat="41.521148581146484" lon="19.893160683757397"><ele>1101.0</ele><time>2026-04-29T12:58:29Z</time></trkpt><trkpt lat="41.52122350022041" lon="19.89317252600774"><ele>1101.0</ele><time>2026-04-29T12:58:30Z</time></trkpt><trkpt lat="41.521221895508766" lon="19.893297203943806"><ele>1101.0</ele><time>2026-04-29T12:58:31Z</time></trkpt><trkpt lat="41.52128544901005" lon="19.893389857770266"><ele>1101.0</ele><time>2026-04-29T12:58:32Z</time></trkpt><trkpt lat="41.521379247644134" lon="19.8935219195062"><ele>1106.8</ele><time>2026-04-29T12:58:33Z</time></trkpt><trkpt lat="41.521483766565275" lon="19.8936471811533"><ele>1112.6</ele><time>2026-04-29T12:58:34Z</time></trkpt><trkpt lat="41.52156381766585" lon="19.893732940109878"><ele>1118.4</ele><time>2026-04-29T12:58:35Z</time></trkpt><trkpt lat="41.52156558514575" lon="19.893826530492465"><ele>1124.2</ele><time>2026-04-29T12:58:37Z</time></trkpt><trkpt lat="41.521448483218954" lon="19.893860355246957"><ele>1130.0</ele><time>2026-04-29T12:58:39Z</time></trkpt><trkpt lat="41.52137735834016" lon="19.89384754183656"><ele>1130.0</ele><time>2026-04-29T12:58:40Z</time></trkpt><trkpt lat="41.521309912525766" lon="19.89377614095025"><ele>1130.0</ele><time>2026-04-29T12:58:41Z</time></trkpt><trkpt lat="41.521234841509596" lon="19.893715663668807"><ele>1130.0</ele><time>2026-04-29T12:58:42Z</time></trkpt><trkpt lat="41.52116483105738" lon="19.893625328636734"><ele>1130.0</ele><time>2026-04-29T12:58:43Z</time></trkpt><trkpt lat="41.52108778080335" lon="19.89355833147124"><ele>1130.0</ele><time>2026-04-29T12:58:44Z</time></trkpt><trkpt lat="41.52101186393184" lon="19.893520392684145"><ele>1130.0</ele><time>2026-04-29T12:58:45Z</time></trkpt><trkpt lat="41.52090803314925" lon="19.89356256025259"><ele>1129.25</ele><time>2026-04-29T12:58:46Z</time></trkpt><trkpt lat="41.520801445766395" lon="19.893627346089318"><ele>1128.5</ele><time>2026-04-29T12:58:47Z</time></trkpt><trkpt lat="41.52068919011782" lon="19.89368925642895"><ele>1127.75</ele><time>2026-04-29T12:58:48Z</time></trkpt><trkpt lat="41.52056859802557" lon="19.89375764162542"><ele>1127.0</ele><time>2026-04-29T12:58:49Z</time></trkpt><trkpt lat="41.52047090575916" lon="19.89381845735147"><ele>1127.0</ele><time>2026-04-29T12:58:50Z</time></trkpt><trkpt lat="41.52041973630026" lon="19.89388579205747"><ele>1127.0</ele><time>2026-04-29T12:58:51Z</time></trkpt><trkpt lat="41.52038602450221" lon="19.89399390576259"><ele>1127.0</ele><time>2026-04-29T12:58:52Z</time></trkpt><trkpt lat="41.520379137569236" lon="19.894115386132857"><ele>1127.0</ele><time>2026-04-29T12:58:53Z</time></trkpt><trkpt lat="41.52039723873503" lon="19.894229590601068"><ele>1127.0</ele><time>2026-04-29T12:58:54Z</time></trkpt><trkpt lat="41.52041907284714" lon="19.894344999705925"><ele>1127.0</ele><time>2026-04-29T12:58:55Z</time></trkpt><trkpt lat="41.52048738532813" lon="19.89445998608111"><ele>1129.0</ele><time>2026-04-29T12:58:56Z</time></trkpt><trkpt lat="41.52057199534045" lon="19.894532694114957"><ele>1131.0</ele><time>2026-04-29T12:58:57Z</time></trkpt><trkpt lat="41.520672514668526" lon="19.89461556933273"><ele>1133.0</ele><time>2026-04-29T12:58:58Z</time></trkpt><trkpt lat="41.52077950114623" lon="19.89468254646863"><ele>1135.0</ele><time>2026-04-29T12:58:59Z</time></trkpt><trkpt lat="41.52082069667444" lon="19.89481019881744"><ele>1137.0</ele><time>2026-04-29T12:59:00Z</time></trkpt><trkpt lat="41.52085724810325" lon="19.89491581672899"><ele>1137.0</ele><time>2026-04-29T12:59:01Z</time></trkpt><trkpt lat="41.5210021358185" lon="19.894953697389646"><ele>1137.0</ele><time>2026-04-29T12:59:03Z</time></trkpt><trkpt lat="41.52108251037871" lon="19.894869110855815"><ele>1137.0</ele><time>2026-04-29T12:59:04Z</time></trkpt><trkpt lat="41.5211812780624" lon="19.89483203495179"><ele>1137.0</ele><time>2026-04-29T12:59:05Z</time></trkpt><trkpt lat="41.52129418360901" lon="19.894802831558074"><ele>1138.8333333333333</ele><time>2026-04-29T12:59:06Z</time></trkpt><trkpt lat="41.52140423207651" lon="19.894802952654487"><ele>1140.6666666666667</ele><time>2026-04-29T12:59:07Z</time></trkpt><trkpt lat="41.521476889711145" lon="19.894784122062397"><ele>1142.5</ele><time>2026-04-29T12:59:08Z</time></trkpt><trkpt lat="41.52152515010916" lon="19.89488491278434"><ele>1144.3333333333335</ele><time>2026-04-29T12:59:10Z</time></trkpt><trkpt lat="41.521455526799095" lon="19.894938020537435"><ele>1146.1666666666667</ele><time>2026-04-29T12:59:12Z</time></trkpt><trkpt lat="41.52137828353428" lon="19.89496456960276"><ele>1148.0</ele><time>2026-04-29T12:59:13Z</time></trkpt><trkpt lat="41.52129663664043" lon="19.89503238426861"><ele>1149.75</ele><time>2026-04-29T12:59:14Z</time></trkpt><trkpt lat="41.521229742458736" lon="19.895140414075392"><ele>1151.5</ele><time>2026-04-29T12:59:15Z</time></trkpt><trkpt lat="41.52112451576297" lon="19.895257836195345"><ele>1153.25</ele><time>2026-04-29T12:59:16Z</time></trkpt><trkpt lat="41.5210432188128" lon="19.895424334163614"><ele>1155.0</ele><time>2026-04-29T12:59:17Z</time></trkpt><trkpt lat="41.520965991524704" lon="19.895534023895213"><ele>1155.0</ele><time>2026-04-29T12:59:18Z</time></trkpt><trkpt lat="41.52090695401626" lon="19.895670188178066"><ele>1155.0</ele><time>2026-04-29T12:59:19Z</time></trkpt><trkpt lat="41.520854135819725" lon="19.895803735680662"><ele>1155.0</ele><time>2026-04-29T12:59:20Z</time></trkpt><trkpt lat="41.52078535078937" lon="19.89586662960851"><ele>1155.0</ele><time>2026-04-29T12:59:21Z</time></trkpt><trkpt lat="41.520706311871706" lon="19.89587960903752"><ele>1155.0</ele><time>2026-04-29T12:59:22Z</time></trkpt><trkpt lat="41.52060631648652" lon="19.8958511387987"><ele>1155.0</ele><time>2026-04-29T12:59:23Z</time></trkpt><trkpt lat="41.52049905976553" lon="19.89581374033199"><ele>1155.0</ele><time>2026-04-29T12:59:24Z</time></trkpt><trkpt lat="41.52037402116498" lon="19.895773693227582"><ele>1155.0</ele><time>2026-04-29T12:59:25Z</time></trkpt><trkpt lat="41.52026343959589" lon="19.89571213003649"><ele>1155.0</ele><time>2026-04-29T12:59:26Z</time></trkpt><trkpt lat="41.52016787156219" lon="19.895677293145614"><ele>1158.0</ele><time>2026-04-29T12:59:27Z</time></trkpt><trkpt lat="41.520116277017635" lon="19.895568597338574"><ele>1161.0</ele><time>2026-04-29T12:59:28Z</time></trkpt><trkpt lat="41.5200302127376" lon="19.89549866326152"><ele>1164.0</ele><time>2026-04-29T12:59:29Z</time></trkpt><trkpt lat="41.51996489293983" lon="19.895419489546505"><ele>1167.0</ele><time>2026-04-29T12:59:30Z</time></trkpt><trkpt lat="41.51986782238546" lon="19.895406178000226"><ele>1170.0</ele><time>2026-04-29T12:59:31Z</time></trkpt><trkpt lat="41.51977514287095" lon="19.895373288648898"><ele>1170.0</ele><time>2026-04-29T12:59:32Z</time></trkpt><trkpt lat="41.51967697572055" lon="19.89534239297441"><ele>1170.0</ele><time>2026-04-29T12:59:33Z</time></trkpt><trkpt lat="41.51953518811787" lon="19.895374141669937"><ele>1170.0</ele><time>2026-04-29T12:59:34Z</time></trkpt><trkpt lat="41.519428310605726" lon="19.895419307539218"><ele>1170.0</ele><time>2026-04-29T12:59:35Z</time></trkpt><trkpt lat="41.51935402086695" lon="19.895369383143862"><ele>1170.0</ele><time>2026-04-29T12:59:36Z</time></trkpt><trkpt lat="41.51927827409276" lon="19.895346647809024"><ele>1172.0</ele><time>2026-04-29T12:59:37Z</time></trkpt><trkpt lat="41.519191863778445" lon="19.89531840874341"><ele>1174.0</ele><time>2026-04-29T12:59:38Z</time></trkpt><trkpt lat="41.51910105121952" lon="19.89524848028031"><ele>1176.0</ele><time>2026-04-29T12:59:39Z</time></trkpt><trkpt lat="41.51899789129045" lon="19.89517506105348"><ele>1178.0</ele><time>2026-04-29T12:59:40Z</time></trkpt><trkpt lat="41.51889085360571" lon="19.89515574052933"><ele>1180.0</ele><time>2026-04-29T12:59:41Z</time></trkpt><trkpt lat="41.518776539341374" lon="19.895156117285197"><ele>1180.5</ele><time>2026-04-29T12:59:42Z</time></trkpt><trkpt lat="41.51863477775118" lon="19.89519327301738"><ele>1181.0</ele><time>2026-04-29T12:59:43Z</time></trkpt><trkpt lat="41.518507096982844" lon="19.895264982259654"><ele>1181.5</ele><time>2026-04-29T12:59:44Z</time></trkpt><trkpt lat="41.51838296555491" lon="19.895339323043647"><ele>1182.0</ele><time>2026-04-29T12:59:45Z</time></trkpt><trkpt lat="41.5182753394487" lon="19.895404089360742"><ele>1182.0</ele><time>2026-04-29T12:59:46Z</time></trkpt><trkpt lat="41.51818716836308" lon="19.895322480478534"><ele>1182.0</ele><time>2026-04-29T12:59:47Z</time></trkpt><trkpt lat="41.51807691390422" lon="19.89530146188298"><ele>1182.0</ele><time>2026-04-29T12:59:48Z</time></trkpt><trkpt lat="41.51799246179098" lon="19.895241927603106"><ele>1182.0</ele><time>2026-04-29T12:59:49Z</time></trkpt><trkpt lat="41.51788137902399" lon="19.895167791883082"><ele>1182.0</ele><time>2026-04-29T12:59:50Z</time></trkpt><trkpt lat="41.51778620576908" lon="19.895074706682816"><ele>1180.2</ele><time>2026-04-29T12:59:51Z</time></trkpt><trkpt lat="41.517692179585346" lon="19.89498620898473"><ele>1178.4</ele><time>2026-04-29T12:59:52Z</time></trkpt><trkpt lat="41.517619234577786" lon="19.894917873951172"><ele>1176.6</ele><time>2026-04-29T12:59:53Z</time></trkpt><trkpt lat="41.51756637788659" lon="19.89486838450421"><ele>1174.8</ele><time>2026-04-29T12:59:54Z</time></trkpt><trkpt lat="41.51746594414631" lon="19.8949899924823"><ele>1173.0</ele><time>2026-04-29T12:59:55Z</time></trkpt><trkpt lat="41.51741604068277" lon="19.895115058063293"><ele>1173.0</ele><time>2026-04-29T12:59:57Z</time></trkpt><trkpt lat="41.51745972711069" lon="19.89518555450708"><ele>1173.0</ele><time>2026-04-29T12:59:58Z</time></trkpt><trkpt lat="41.517521872919566" lon="19.895250490419794"><ele>1173.0</ele><time>2026-04-29T12:59:59Z</time></trkpt><trkpt lat="41.517605127413724" lon="19.89531778483365"><ele>1173.0</ele><time>2026-04-29T13:00:00Z</time></trkpt><trkpt lat="41.51770483726623" lon="19.895403132596893"><ele>1173.0</ele><time>2026-04-29T13:00:01Z</time></trkpt><trkpt lat="41.51781503302248" lon="19.895504614053902"><ele>1175.25</ele><time>2026-04-29T13:00:02Z</time></trkpt><trkpt lat="41.51793343948188" lon="19.8956177468186"><ele>1177.5</ele><time>2026-04-29T13:00:03Z</time></trkpt><trkpt lat="41.51806342917617" lon="19.895736632907745"><ele>1179.75</ele><time>2026-04-29T13:00:04Z</time></trkpt><trkpt lat="41.51818556078449" lon="19.89583182322597"><ele>1182.0</ele><time>2026-04-29T13:00:05Z</time></trkpt><trkpt lat="41.518291640345964" lon="19.89591274785195"><ele>1182.0</ele><time>2026-04-29T13:00:06Z</time></trkpt><trkpt lat="41.518385549927984" lon="19.89594657356694"><ele>1182.0</ele><time>2026-04-29T13:00:07Z</time></trkpt><trkpt lat="41.51847848135" lon="19.89591327471004"><ele>1182.0</ele><time>2026-04-29T13:00:08Z</time></trkpt><trkpt lat="41.51859150878809" lon="19.895895171414605"><ele>1182.0</ele><time>2026-04-29T13:00:09Z</time></trkpt><trkpt lat="41.518703763430715" lon="19.895870006630922"><ele>1182.0</ele><time>2026-04-29T13:00:10Z</time></trkpt><trkpt lat="41.51881500969938" lon="19.895816303015604"><ele>1181.6</ele><time>2026-04-29T13:00:11Z</time></trkpt><trkpt lat="41.51891549141672" lon="19.895833696968893"><ele>1181.2</ele><time>2026-04-29T13:00:12Z</time></trkpt><trkpt lat="41.51899827830956" lon="19.89590881096633"><ele>1180.8</ele><time>2026-04-29T13:00:13Z</time></trkpt><trkpt lat="41.519073345224136" lon="19.896004095787006"><ele>1180.4</ele><time>2026-04-29T13:00:14Z</time></trkpt><trkpt lat="41.519153214376225" lon="19.896062442857364"><ele>1180.0</ele><time>2026-04-29T13:00:15Z</time></trkpt><trkpt lat="41.51927831936425" lon="19.896031329497582"><ele>1183.25</ele><time>2026-04-29T13:00:16Z</time></trkpt><trkpt lat="41.51940664105572" lon="19.895989999933878"><ele>1186.5</ele><time>2026-04-29T13:00:17Z</time></trkpt><trkpt lat="41.51954064227328" lon="19.89598513171719"><ele>1189.75</ele><time>2026-04-29T13:00:18Z</time></trkpt><trkpt lat="41.51966829833345" lon="19.89605533372919"><ele>1193.0</ele><time>2026-04-29T13:00:19Z</time></trkpt><trkpt lat="41.51976224832171" lon="19.89613522693889"><ele>1193.0</ele><time>2026-04-29T13:00:20Z</time></trkpt><trkpt lat="41.51979936169565" lon="19.89624686255922"><ele>1193.0</ele><time>2026-04-29T13:00:21Z</time></trkpt><trkpt lat="41.519824595579344" lon="19.896329275165794"><ele>1193.0</ele><time>2026-04-29T13:00:22Z</time></trkpt><trkpt lat="41.51981523353905" lon="19.896456928876503"><ele>1193.0</ele><time>2026-04-29T13:00:23Z</time></trkpt><trkpt lat="41.5198432180574" lon="19.896569091099323"><ele>1193.0</ele><time>2026-04-29T13:00:24Z</time></trkpt><trkpt lat="41.51991450463884" lon="19.89663013200062"><ele>1193.0</ele><time>2026-04-29T13:00:25Z</time></trkpt><trkpt lat="41.5200160580188" lon="19.896685066008875"><ele>1193.0</ele><time>2026-04-29T13:00:26Z</time></trkpt><trkpt lat="41.52014164262" lon="19.896725310994842"><ele>1193.0</ele><time>2026-04-29T13:00:27Z</time></trkpt><trkpt lat="41.520279046604266" lon="19.896774693573004"><ele>1193.0</ele><time>2026-04-29T13:00:28Z</time></trkpt><trkpt lat="41.52038888512034" lon="19.89688190895645"><ele>1193.0</ele><time>2026-04-29T13:00:29Z</time></trkpt><trkpt lat="41.52050333477325" lon="19.896967938711335"><ele>1197.5</ele><time>2026-04-29T13:00:30Z</time></trkpt><trkpt lat="41.52058817096566" lon="19.897106312412884"><ele>1202.0</ele><time>2026-04-29T13:00:31Z</time></trkpt><trkpt lat="41.52068442276645" lon="19.897233462380633"><ele>1206.5</ele><time>2026-04-29T13:00:32Z</time></trkpt><trkpt lat="41.52077916069613" lon="19.897319307956938"><ele>1211.0</ele><time>2026-04-29T13:00:33Z</time></trkpt><trkpt lat="41.52088789918344" lon="19.89736019355175"><ele>1211.0</ele><time>2026-04-29T13:00:34Z</time></trkpt><trkpt lat="41.521005159472374" lon="19.897372135828636"><ele>1211.0</ele><time>2026-04-29T13:00:35Z</time></trkpt><trkpt lat="41.52114550461042" lon="19.897387930765724"><ele>1211.0</ele><time>2026-04-29T13:00:36Z</time></trkpt><trkpt lat="41.521294691926485" lon="19.897417241808746"><ele>1211.0</ele><time>2026-04-29T13:00:37Z</time></trkpt><trkpt lat="41.5214293783758" lon="19.897449266768145"><ele>1211.2</ele><time>2026-04-29T13:00:38Z</time></trkpt><trkpt lat="41.521535719381376" lon="19.89750494160856"><ele>1211.3999999999999</ele><time>2026-04-29T13:00:39Z</time></trkpt><trkpt lat="41.521639903154984" lon="19.897539548316665"><ele>1211.6</ele><time>2026-04-29T13:00:40Z</time></trkpt><trkpt lat="41.521725991270664" lon="19.89755388514602"><ele>1211.8</ele><time>2026-04-29T13:00:41Z</time></trkpt><trkpt lat="41.521784736831954" lon="19.89762512609099"><ele>1212.0</ele><time>2026-04-29T13:00:43Z</time></trkpt><trkpt lat="41.52173634655975" lon="19.897689156507848"><ele>1215.25</ele><time>2026-04-29T13:00:44Z</time></trkpt><trkpt lat="41.52166615673854" lon="19.89771575216807"><ele>1218.5</ele><time>2026-04-29T13:00:45Z</time></trkpt><trkpt lat="41.52159372037614" lon="19.897756133893214"><ele>1221.75</ele><time>2026-04-29T13:00:46Z</time></trkpt><trkpt lat="41.52144878495021" lon="19.897615579691433"><ele>1225.0</ele><time>2026-04-29T13:00:47Z</time></trkpt><trkpt lat="41.52128895463578" lon="19.89759496427968"><ele>1220.3333333333333</ele><time>2026-04-29T13:00:48Z</time></trkpt><trkpt lat="41.521153617464236" lon="19.897567848326325"><ele>1215.6666666666667</ele><time>2026-04-29T13:00:49Z</time></trkpt><trkpt lat="41.52101044561137" lon="19.897566658418715"><ele>1211.0</ele><time>2026-04-29T13:00:50Z</time></trkpt><trkpt lat="41.52083868440844" lon="19.897523474176474"><ele>1211.0</ele><time>2026-04-29T13:00:51Z</time></trkpt><trkpt lat="41.52064876213216" lon="19.897497449808213"><ele>1211.0</ele><time>2026-04-29T13:00:52Z</time></trkpt><trkpt lat="41.52048778209505" lon="19.89745770709102"><ele>1211.0</ele><time>2026-04-29T13:00:53Z</time></trkpt><trkpt lat="41.52035078283494" lon="19.897414714785143"><ele>1212.5</ele><time>2026-04-29T13:00:54Z</time></trkpt><trkpt lat="41.520237603360705" lon="19.897376688714477"><ele>1214.0</ele><time>2026-04-29T13:00:55Z</time></trkpt><trkpt lat="41.52011331924638" lon="19.897334423063118"><ele>1215.5</ele><time>2026-04-29T13:00:56Z</time></trkpt><trkpt lat="41.51997763844393" lon="19.897352200257835"><ele>1217.0</ele><time>2026-04-29T13:00:57Z</time></trkpt><trkpt lat="41.519843311110634" lon="19.897373243919716"><ele>1217.0</ele><time>2026-04-29T13:00:58Z</time></trkpt><trkpt lat="41.5197191002373" lon="19.897395948935092"><ele>1217.0</ele><time>2026-04-29T13:00:59Z</time></trkpt><trkpt lat="41.51961556230779" lon="19.897415604829366"><ele>1217.0</ele><time>2026-04-29T13:01:00Z</time></trkpt><trkpt lat="41.51954873381067" lon="19.89751557339562"><ele>1217.0</ele><time>2026-04-29T13:01:01Z</time></trkpt><trkpt lat="41.51947973973676" lon="19.897577744096097"><ele>1217.0</ele><time>2026-04-29T13:01:03Z</time></trkpt><trkpt lat="41.51960702032127" lon="19.897696210327304"><ele>1220.75</ele><time>2026-04-29T13:01:05Z</time></trkpt><trkpt lat="41.519700838400475" lon="19.89770483222755"><ele>1224.5</ele><time>2026-04-29T13:01:06Z</time></trkpt><trkpt lat="41.519826917320394" lon="19.89772963082807"><ele>1228.25</ele><time>2026-04-29T13:01:07Z</time></trkpt><trkpt lat="41.519981382450716" lon="19.897727267847948"><ele>1232.0</ele><time>2026-04-29T13:01:08Z</time></trkpt><trkpt lat="41.52011641168935" lon="19.897725742319352"><ele>1232.0</ele><time>2026-04-29T13:01:09Z</time></trkpt><trkpt lat="41.52019266251798" lon="19.897724774226777"><ele>1232.0</ele><time>2026-04-29T13:01:10Z</time></trkpt><trkpt lat="41.52023098822974" lon="19.897807343590088"><ele>1232.0</ele><time>2026-04-29T13:01:11Z</time></trkpt><trkpt lat="41.52031708548719" lon="19.89786656095124"><ele>1232.0</ele><time>2026-04-29T13:01:12Z</time></trkpt><trkpt lat="41.52037697234646" lon="19.89799052071877"><ele>1232.0</ele><time>2026-04-29T13:01:13Z</time></trkpt><trkpt lat="41.52047085732774" lon="19.898123245739"><ele>1232.0</ele><time>2026-04-29T13:01:14Z</time></trkpt><trkpt lat="41.520561163804196" lon="19.898255150563863"><ele>1232.0</ele><time>2026-04-29T13:01:15Z</time></trkpt><trkpt lat="41.520658555063555" lon="19.898350692340397"><ele>1232.0</ele><time>2026-04-29T13:01:16Z</time></trkpt><trkpt lat="41.5207685516095" lon="19.898417476788627"><ele>1232.0</ele><time>2026-04-29T13:01:17Z</time></trkpt><trkpt lat="41.52089855634402" lon="19.898473840229627"><ele>1234.75</ele><time>2026-04-29T13:01:18Z</time></trkpt><trkpt lat="41.52103842944736" lon="19.898516030552745"><ele>1237.5</ele><time>2026-04-29T13:01:19Z</time></trkpt><trkpt lat="41.5211874656316" lon="19.898552836813913"><ele>1240.25</ele><time>2026-04-29T13:01:20Z</time></trkpt><trkpt lat="41.52132771029163" lon="19.898586673981868"><ele>1243.0</ele><time>2026-04-29T13:01:21Z</time></trkpt><trkpt lat="41.52145514535797" lon="19.898595171831015"><ele>1237.5</ele><time>2026-04-29T13:01:22Z</time></trkpt><trkpt lat="41.52158152320076" lon="19.89856817516581"><ele>1232.0</ele><time>2026-04-29T13:01:23Z</time></trkpt><trkpt lat="41.52169102229845" lon="19.89855076908948"><ele>1226.5</ele><time>2026-04-29T13:01:24Z</time></trkpt><trkpt lat="41.52180492926619" lon="19.898560311115673"><ele>1221.0</ele><time>2026-04-29T13:01:25Z</time></trkpt><trkpt lat="41.521915852520735" lon="19.89858606800753"><ele>1221.0</ele><time>2026-04-29T13:01:26Z</time></trkpt><trkpt lat="41.52199030354593" lon="19.898645996853784"><ele>1221.0</ele><time>2026-04-29T13:01:27Z</time></trkpt><trkpt lat="41.52204867238549" lon="19.89867813127832"><ele>1221.0</ele><time>2026-04-29T13:01:28Z</time></trkpt><trkpt lat="41.52211877326002" lon="19.898768875099314"><ele>1221.0</ele><time>2026-04-29T13:01:30Z</time></trkpt><trkpt lat="41.52220703910754" lon="19.898868610810567"><ele>1221.0</ele><time>2026-04-29T13:01:32Z</time></trkpt><trkpt lat="41.52225850559926" lon="19.898930723426187"><ele>1221.0</ele><time>2026-04-29T13:01:33Z</time></trkpt><trkpt lat="41.522311216859116" lon="19.898994711091678"><ele>1221.3999999999999</ele><time>2026-04-29T13:01:34Z</time></trkpt><trkpt lat="41.522359358295994" lon="19.899061328181194"><ele>1221.8</ele><time>2026-04-29T13:01:35Z</time></trkpt><trkpt lat="41.52240522720565" lon="19.899128125058656"><ele>1222.1999999999998</ele><time>2026-04-29T13:01:36Z</time></trkpt><trkpt lat="41.52249848172749" lon="19.89921948401577"><ele>1222.6</ele><time>2026-04-29T13:01:38Z</time></trkpt><trkpt lat="41.52259268814781" lon="19.899299169729712"><ele>1223.0</ele><time>2026-04-29T13:01:40Z</time></trkpt><trkpt lat="41.52269774522563" lon="19.899365269699686"><ele>1218.8</ele><time>2026-04-29T13:01:42Z</time></trkpt><trkpt lat="41.522809343244184" lon="19.899434867803315"><ele>1214.6</ele><time>2026-04-29T13:01:44Z</time></trkpt><trkpt lat="41.52287094125282" lon="19.89945857776928"><ele>1210.4</ele><time>2026-04-29T13:01:45Z</time></trkpt><trkpt lat="41.5229795876354" lon="19.899469722946293"><ele>1206.2</ele><time>2026-04-29T13:01:47Z</time></trkpt><trkpt lat="41.5231085288041" lon="19.89947160332813"><ele>1202.0</ele><time>2026-04-29T13:01:49Z</time></trkpt><trkpt lat="41.52317193009562" lon="19.899470087948448"><ele>1202.0</ele><time>2026-04-29T13:01:50Z</time></trkpt><trkpt lat="41.52324190119279" lon="19.89947021123352"><ele>1202.0</ele><time>2026-04-29T13:01:51Z</time></trkpt><trkpt lat="41.52331608305183" lon="19.899460622450686"><ele>1202.0</ele><time>2026-04-29T13:01:52Z</time></trkpt><trkpt lat="41.523411877660564" lon="19.89945781696883"><ele>1202.0</ele><time>2026-04-29T13:01:54Z</time></trkpt><trkpt lat="41.52347419989909" lon="19.899471026292133"><ele>1202.0</ele><time>2026-04-29T13:01:56Z</time></trkpt><trkpt lat="41.52353690141348" lon="19.899451834154515"><ele>1202.0</ele><time>2026-04-29T13:01:59Z</time></trkpt><trkpt lat="41.52350127463533" lon="19.899622980267235"><ele>1202.0</ele><time>2026-04-29T13:02:00Z</time></trkpt><trkpt lat="41.523419282261194" lon="19.899686318930954"><ele>1202.0</ele><time>2026-04-29T13:02:03Z</time></trkpt><trkpt lat="41.52331220293028" lon="19.899686316773504"><ele>1202.0</ele><time>2026-04-29T13:02:05Z</time></trkpt><trkpt lat="41.52324677318323" lon="19.899692396283083"><ele>1202.0</ele><time>2026-04-29T13:02:06Z</time></trkpt><trkpt lat="41.52314498031441" lon="19.899711280175683"><ele>1202.0</ele><time>2026-04-29T13:02:08Z</time></trkpt><trkpt lat="41.523030558983386" lon="19.899720622592014"><ele>1202.0</ele><time>2026-04-29T13:02:10Z</time></trkpt><trkpt lat="41.52293629897813" lon="19.89973894836366"><ele>1202.0</ele><time>2026-04-29T13:02:12Z</time></trkpt><trkpt lat="41.52288716471607" lon="19.899820285414027"><ele>1202.0</ele><time>2026-04-29T13:02:13Z</time></trkpt><trkpt lat="41.52285494884773" lon="19.899925830649188"><ele>1202.0</ele><time>2026-04-29T13:02:15Z</time></trkpt><trkpt lat="41.5229189541778" lon="19.900033870374997"><ele>1202.0</ele><time>2026-04-29T13:02:17Z</time></trkpt><trkpt lat="41.522941190859456" lon="19.900114488771237"><ele>1202.0</ele><time>2026-04-29T13:02:18Z</time></trkpt><trkpt lat="41.523014346866674" lon="19.900087328246688"><ele>1195.3333333333335</ele><time>2026-04-29T13:02:19Z</time></trkpt><trkpt lat="41.52307388376425" lon="19.900137064391323"><ele>1188.6666666666667</ele><time>2026-04-29T13:02:20Z</time></trkpt><trkpt lat="41.52302680702621" lon="19.900456115405156"><ele>1182.0</ele><time>2026-04-29T13:02:22Z</time></trkpt><trkpt lat="41.52325571990295" lon="19.900288967298362"><ele>1188.6666666666667</ele><time>2026-04-29T13:02:25Z</time></trkpt><trkpt lat="41.52306518855224" lon="19.90001947088133"><ele>1195.3333333333335</ele><time>2026-04-29T13:02:26Z</time></trkpt><trkpt lat="41.52314898416984" lon="19.899953362440627"><ele>1202.0</ele><time>2026-04-29T13:02:29.001Z</time></trkpt><trkpt lat="41.52322766350689" lon="19.899900809196932"><ele>1202.0</ele><time>2026-04-29T13:02:30.001Z</time></trkpt><trkpt lat="41.52328936862377" lon="19.89985959495979"><ele>1202.0</ele><time>2026-04-29T13:02:31.001Z</time></trkpt><trkpt lat="41.523437643878026" lon="19.89979785829634"><ele>1202.0</ele><time>2026-04-29T13:02:33.001Z</time></trkpt><trkpt lat="41.52350540644614" lon="19.899765051330736"><ele>1202.0</ele><time>2026-04-29T13:02:34.001Z</time></trkpt><trkpt lat="41.523586715131515" lon="19.899725686062308"><ele>1202.0</ele><time>2026-04-29T13:02:35Z</time></trkpt><trkpt lat="41.52376354864744" lon="19.89995548925703"><ele>1198.6666666666667</ele><time>2026-04-29T13:02:36Z</time></trkpt><trkpt lat="41.52384093971959" lon="19.8999678052363"><ele>1195.3333333333333</ele><time>2026-04-29T13:02:37Z</time></trkpt><trkpt lat="41.52391657542328" lon="19.8999824754771"><ele>1192.0</ele><time>2026-04-29T13:02:38Z</time></trkpt><trkpt lat="41.52380461784946" lon="19.900350631148708"><ele>1192.0</ele><time>2026-04-29T13:02:39Z</time></trkpt><trkpt lat="41.524119418472715" lon="19.900014402041727"><ele>1192.0</ele><time>2026-04-29T13:02:41Z</time></trkpt><trkpt lat="41.52420984732746" lon="19.9000254936157"><ele>1188.0</ele><time>2026-04-29T13:02:43Z</time></trkpt><trkpt lat="41.524313582948075" lon="19.9000905148443"><ele>1184.0</ele><time>2026-04-29T13:02:45Z</time></trkpt><trkpt lat="41.52438891182478" lon="19.900130757355573"><ele>1180.0</ele><time>2026-04-29T13:02:46Z</time></trkpt><trkpt lat="41.524468816448874" lon="19.900176404488786"><ele>1176.0</ele><time>2026-04-29T13:02:47Z</time></trkpt><trkpt lat="41.524538982183664" lon="19.90022418866975"><ele>1172.0</ele><time>2026-04-29T13:02:48Z</time></trkpt><trkpt lat="41.52460616408305" lon="19.900259071109755"><ele>1168.0</ele><time>2026-04-29T13:02:49Z</time></trkpt><trkpt lat="41.52466459893497" lon="19.900292023491616"><ele>1168.0</ele><time>2026-04-29T13:02:50Z</time></trkpt><trkpt lat="41.52476949814496" lon="19.900329020479685"><ele>1168.0</ele><time>2026-04-29T13:02:52Z</time></trkpt><trkpt lat="41.524835579711784" lon="19.900321757709754"><ele>1168.0</ele><time>2026-04-29T13:02:53Z</time></trkpt><trkpt lat="41.52493770543038" lon="19.900286899401916"><ele>1168.0</ele><time>2026-04-29T13:02:55Z</time></trkpt><trkpt lat="41.52500184874639" lon="19.900292400273294"><ele>1168.0</ele><time>2026-04-29T13:02:57Z</time></trkpt><trkpt lat="41.52507492438129" lon="19.90037156369464"><ele>1168.0</ele><time>2026-04-29T13:03:00Z</time></trkpt><trkpt lat="41.525032469115494" lon="19.90049212268438"><ele>1168.0</ele><time>2026-04-29T13:03:03Z</time></trkpt><trkpt lat="41.52492534708538" lon="19.90050820267929"><ele>1168.0</ele><time>2026-04-29T13:03:05Z</time></trkpt><trkpt lat="41.52485709811835" lon="19.900504462474995"><ele>1168.0</ele><time>2026-04-29T13:03:06Z</time></trkpt><trkpt lat="41.5247706550841" lon="19.900497169125625"><ele>1168.0</ele><time>2026-04-29T13:03:07Z</time></trkpt><trkpt lat="41.524684222149865" lon="19.90049086183445"><ele>1168.0</ele><time>2026-04-29T13:03:08Z</time></trkpt><trkpt lat="41.524619240457085" lon="19.90047646961253"><ele>1168.0</ele><time>2026-04-29T13:03:09Z</time></trkpt><trkpt lat="41.52454124107012" lon="19.900462145403267"><ele>1167.3333333333333</ele><time>2026-04-29T13:03:10Z</time></trkpt><trkpt lat="41.5244774291786" lon="19.900454196414614"><ele>1166.6666666666665</ele><time>2026-04-29T13:03:11Z</time></trkpt><trkpt lat="41.524395201866675" lon="19.90044152188341"><ele>1166.0</ele><time>2026-04-29T13:03:12Z</time></trkpt><trkpt lat="41.524324726389615" lon="19.900431742697606"><ele>1165.3333333333333</ele><time>2026-04-29T13:03:13Z</time></trkpt><trkpt lat="41.52425518427932" lon="19.90044620219629"><ele>1164.6666666666667</ele><time>2026-04-29T13:03:14Z</time></trkpt><trkpt lat="41.524178316766445" lon="19.90045994584971"><ele>1164.0</ele><time>2026-04-29T13:03:15Z</time></trkpt><trkpt lat="41.52408965454243" lon="19.90046670692839"><ele>1164.0</ele><time>2026-04-29T13:03:16Z</time></trkpt><trkpt lat="41.5240174858098" lon="19.900518294034118"><ele>1164.0</ele><time>2026-04-29T13:03:17Z</time></trkpt><trkpt lat="41.52396217591851" lon="19.90057467190929"><ele>1164.0</ele><time>2026-04-29T13:03:18Z</time></trkpt><trkpt lat="41.52391754252472" lon="19.900637804529197"><ele>1164.0</ele><time>2026-04-29T13:03:19Z</time></trkpt><trkpt lat="41.523860925989034" lon="19.90075819894235"><ele>1164.0</ele><time>2026-04-29T13:03:21Z</time></trkpt><trkpt lat="41.5238023459793" lon="19.90083445807192"><ele>1164.0</ele><time>2026-04-29T13:03:23Z</time></trkpt><trkpt lat="41.52381288466387" lon="19.900948245981404"><ele>1159.8</ele><time>2026-04-29T13:03:25Z</time></trkpt><trkpt lat="41.523891346605275" lon="19.901088152350322"><ele>1155.6000000000001</ele><time>2026-04-29T13:03:27Z</time></trkpt><trkpt lat="41.52399353927041" lon="19.901078511566023"><ele>1151.4</ele><time>2026-04-29T13:03:29Z</time></trkpt><trkpt lat="41.524090747657084" lon="19.901072823386794"><ele>1147.2</ele><time>2026-04-29T13:03:31Z</time></trkpt><trkpt lat="41.52415972653645" lon="19.901072161092976"><ele>1143.0</ele><time>2026-04-29T13:03:32Z</time></trkpt><trkpt lat="41.52422756920569" lon="19.90107216109485"><ele>1143.0</ele><time>2026-04-29T13:03:33Z</time></trkpt><trkpt lat="41.524309490172925" lon="19.901119867346484"><ele>1143.0</ele><time>2026-04-29T13:03:35Z</time></trkpt><trkpt lat="41.5244001175386" lon="19.90117648092993"><ele>1143.0</ele><time>2026-04-29T13:03:37Z</time></trkpt><trkpt lat="41.524463949993574" lon="19.901217459567388"><ele>1143.0</ele><time>2026-04-29T13:03:38Z</time></trkpt><trkpt lat="41.524522462007546" lon="19.90125502319267"><ele>1143.0</ele><time>2026-04-29T13:03:39Z</time></trkpt><trkpt lat="41.524630692824395" lon="19.90132007359795"><ele>1143.0</ele><time>2026-04-29T13:03:41Z</time></trkpt><trkpt lat="41.524692282067626" lon="19.90135709613756"><ele>1143.4</ele><time>2026-04-29T13:03:42Z</time></trkpt><trkpt lat="41.52476047344169" lon="19.901384820383203"><ele>1143.8</ele><time>2026-04-29T13:03:43Z</time></trkpt><trkpt lat="41.5248680916151" lon="19.90143563165073"><ele>1144.2</ele><time>2026-04-29T13:03:45Z</time></trkpt><trkpt lat="41.52498165914425" lon="19.901452274692378"><ele>1144.6</ele><time>2026-04-29T13:03:47Z</time></trkpt><trkpt lat="41.525101653441574" lon="19.901472802422177"><ele>1145.0</ele><time>2026-04-29T13:03:49Z</time></trkpt><trkpt lat="41.52519176999059" lon="19.901549828558768"><ele>1145.0</ele><time>2026-04-29T13:03:51Z</time></trkpt><trkpt lat="41.52525616986079" lon="19.901616355443025"><ele>1145.0</ele><time>2026-04-29T13:03:53Z</time></trkpt><trkpt lat="41.525294402379075" lon="19.901685356585126"><ele>1145.0</ele><time>2026-04-29T13:03:54Z</time></trkpt><trkpt lat="41.52532926005453" lon="19.901787208719718"><ele>1145.0</ele><time>2026-04-29T13:03:55Z</time></trkpt><trkpt lat="41.52537284383253" lon="19.901907312427948"><ele>1145.0</ele><time>2026-04-29T13:03:56Z</time></trkpt><trkpt lat="41.525414189113114" lon="19.90200773002067"><ele>1145.0</ele><time>2026-04-29T13:03:57Z</time></trkpt><trkpt lat="41.52545578253177" lon="19.902104371509303"><ele>1146.0</ele><time>2026-04-29T13:03:58Z</time></trkpt><trkpt lat="41.525497018608256" lon="19.90221100140639"><ele>1147.0</ele><time>2026-04-29T13:03:59Z</time></trkpt><trkpt lat="41.525527466994184" lon="19.902292401786294"><ele>1148.0</ele><time>2026-04-29T13:04:00Z</time></trkpt><trkpt lat="41.525564647456285" lon="19.90237317710344"><ele>1149.0</ele><time>2026-04-29T13:04:01Z</time></trkpt><trkpt lat="41.52561053451827" lon="19.902439430337587"><ele>1150.0</ele><time>2026-04-29T13:04:02Z</time></trkpt><trkpt lat="41.52566657606468" lon="19.902490591995065"><ele>1151.0</ele><time>2026-04-29T13:04:03Z</time></trkpt><trkpt lat="41.52575810305989" lon="19.902588955424708"><ele>1146.8571428571427</ele><time>2026-04-29T13:04:05Z</time></trkpt><trkpt lat="41.52580353102841" lon="19.902663032313736"><ele>1142.7142857142858</ele><time>2026-04-29T13:04:06Z</time></trkpt><trkpt lat="41.525838645132325" lon="19.90275190798352"><ele>1138.5714285714284</ele><time>2026-04-29T13:04:07Z</time></trkpt><trkpt lat="41.525879344032774" lon="19.902852694417682"><ele>1134.4285714285713</ele><time>2026-04-29T13:04:08Z</time></trkpt><trkpt lat="41.52591843554721" lon="19.90293437452956"><ele>1130.2857142857142</ele><time>2026-04-29T13:04:09Z</time></trkpt><trkpt lat="41.52594579360482" lon="19.903015083420364"><ele>1126.142857142857</ele><time>2026-04-29T13:04:10Z</time></trkpt><trkpt lat="41.52598448754384" lon="19.903082773990175"><ele>1122.0</ele><time>2026-04-29T13:04:11Z</time></trkpt><trkpt lat="41.52612344775549" lon="19.903129649646665"><ele>1122.0</ele><time>2026-04-29T13:04:13Z</time></trkpt><trkpt lat="41.526195781733925" lon="19.903153470641502"><ele>1122.0</ele><time>2026-04-29T13:04:14Z</time></trkpt><trkpt lat="41.526269391479204" lon="19.90315939978119"><ele>1122.0</ele><time>2026-04-29T13:04:15Z</time></trkpt><trkpt lat="41.526344983457996" lon="19.90316378387863"><ele>1122.0</ele><time>2026-04-29T13:04:16Z</time></trkpt><trkpt lat="41.52642452059063" lon="19.903175241515086"><ele>1122.0</ele><time>2026-04-29T13:04:17Z</time></trkpt><trkpt lat="41.52649416512146" lon="19.9031885387501"><ele>1122.0</ele><time>2026-04-29T13:04:18Z</time></trkpt><trkpt lat="41.52656688286019" lon="19.903195677598323"><ele>1122.0</ele><time>2026-04-29T13:04:19Z</time></trkpt><trkpt lat="41.52666405891449" lon="19.903214053359402"><ele>1124.0</ele><time>2026-04-29T13:04:21Z</time></trkpt><trkpt lat="41.5267586464826" lon="19.903240909695555"><ele>1126.0</ele><time>2026-04-29T13:04:23Z</time></trkpt><trkpt lat="41.52683663304492" lon="19.903280932171693"><ele>1128.0</ele><time>2026-04-29T13:04:24Z</time></trkpt><trkpt lat="41.526907104876635" lon="19.903343450992256"><ele>1130.0</ele><time>2026-04-29T13:04:25Z</time></trkpt><trkpt lat="41.52697041004602" lon="19.90340908242478"><ele>1132.0</ele><time>2026-04-29T13:04:26Z</time></trkpt><trkpt lat="41.52708164734252" lon="19.903484107189584"><ele>1127.6</ele><time>2026-04-29T13:04:28Z</time></trkpt><trkpt lat="41.52719269133902" lon="19.903528844556654"><ele>1123.2</ele><time>2026-04-29T13:04:30Z</time></trkpt><trkpt lat="41.52729243389435" lon="19.903580963269622"><ele>1118.8</ele><time>2026-04-29T13:04:32.001Z</time></trkpt><trkpt lat="41.52736772397613" lon="19.903652043863442"><ele>1114.4</ele><time>2026-04-29T13:04:34.001Z</time></trkpt><trkpt lat="41.52737650510164" lon="19.903794991246304"><ele>1110.0</ele><time>2026-04-29T13:04:36Z</time></trkpt><trkpt lat="41.52733670988679" lon="19.90386063025302"><ele>1110.0</ele><time>2026-04-29T13:04:37Z</time></trkpt><trkpt lat="41.52728974797492" lon="19.903940686099926"><ele>1110.0</ele><time>2026-04-29T13:04:39Z</time></trkpt><trkpt lat="41.52720079310323" lon="19.903980693819914"><ele>1110.0</ele><time>2026-04-29T13:04:41Z</time></trkpt><trkpt lat="41.52709834372035" lon="19.903993483547627"><ele>1110.0</ele><time>2026-04-29T13:04:43Z</time></trkpt><trkpt lat="41.52701954035697" lon="19.903980912183002"><ele>1110.0</ele><time>2026-04-29T13:04:44Z</time></trkpt><trkpt lat="41.5269472762872" lon="19.903949869520098"><ele>1110.0</ele><time>2026-04-29T13:04:45Z</time></trkpt><trkpt lat="41.52691304947387" lon="19.90387139388578"><ele>1109.4</ele><time>2026-04-29T13:04:46Z</time></trkpt><trkpt lat="41.52684063385542" lon="19.903794753001762"><ele>1108.8</ele><time>2026-04-29T13:04:48Z</time></trkpt><trkpt lat="41.52672526111155" lon="19.90370992806314"><ele>1108.2</ele><time>2026-04-29T13:04:50Z</time></trkpt><trkpt lat="41.52662672853957" lon="19.903833789787576"><ele>1107.6</ele><time>2026-04-29T13:04:52Z</time></trkpt><trkpt lat="41.52662577243677" lon="19.90392469989157"><ele>1107.0</ele><time>2026-04-29T13:04:53Z</time></trkpt><trkpt lat="41.52670978395153" lon="19.90398895526707"><ele>1107.0</ele><time>2026-04-29T13:04:54Z</time></trkpt><trkpt lat="41.526798188675436" lon="19.904052123288718"><ele>1107.0</ele><time>2026-04-29T13:04:56Z</time></trkpt><trkpt lat="41.526876950945" lon="19.904104260285095"><ele>1107.0</ele><time>2026-04-29T13:04:58Z</time></trkpt><trkpt lat="41.526934763156184" lon="19.90416558915678"><ele>1107.0</ele><time>2026-04-29T13:05:00Z</time></trkpt><trkpt lat="41.52693423622739" lon="19.904263340948564"><ele>1107.0</ele><time>2026-04-29T13:05:02Z</time></trkpt><trkpt lat="41.526845768674846" lon="19.904299831120525"><ele>1107.0</ele><time>2026-04-29T13:05:04Z</time></trkpt><trkpt lat="41.52673950218025" lon="19.90422737771285"><ele>1107.0</ele><time>2026-04-29T13:05:06Z</time></trkpt><trkpt lat="41.52667774921056" lon="19.904172398190948"><ele>1107.0</ele><time>2026-04-29T13:05:07Z</time></trkpt><trkpt lat="41.52658057106815" lon="19.904088039514285"><ele>1107.0</ele><time>2026-04-29T13:05:09Z</time></trkpt><trkpt lat="41.52649593645654" lon="19.903993440927366"><ele>1107.0</ele><time>2026-04-29T13:05:11Z</time></trkpt><trkpt lat="41.526404933407605" lon="19.90406308164507"><ele>1107.0</ele><time>2026-04-29T13:05:13Z</time></trkpt><trkpt lat="41.52634663597216" lon="19.904186508219674"><ele>1102.2</ele><time>2026-04-29T13:05:15Z</time></trkpt><trkpt lat="41.52636446847536" lon="19.90430301856923"><ele>1097.4</ele><time>2026-04-29T13:05:16Z</time></trkpt><trkpt lat="41.52637442436964" lon="19.90439880228627"><ele>1092.6</ele><time>2026-04-29T13:05:17Z</time></trkpt><trkpt lat="41.526434826800156" lon="19.904550327386378"><ele>1087.8</ele><time>2026-04-29T13:05:19Z</time></trkpt><trkpt lat="41.52648103434189" lon="19.904718370717003"><ele>1083.0</ele><time>2026-04-29T13:05:21Z</time></trkpt><trkpt lat="41.52654049669804" lon="19.904785654084446"><ele>1083.0</ele><time>2026-04-29T13:05:22Z</time></trkpt><trkpt lat="41.52660934415449" lon="19.904850259463984"><ele>1083.0</ele><time>2026-04-29T13:05:23Z</time></trkpt><trkpt lat="41.52667980428161" lon="19.90490415297126"><ele>1083.0</ele><time>2026-04-29T13:05:24Z</time></trkpt><trkpt lat="41.52675139720008" lon="19.904959263221784"><ele>1083.0</ele><time>2026-04-29T13:05:25Z</time></trkpt><trkpt lat="41.526826858803275" lon="19.90501735133286"><ele>1083.0</ele><time>2026-04-29T13:05:26Z</time></trkpt><trkpt lat="41.52689651153392" lon="19.905070840574375"><ele>1083.0</ele><time>2026-04-29T13:05:27Z</time></trkpt><trkpt lat="41.526969033988046" lon="19.905125654905408"><ele>1078.3333333333333</ele><time>2026-04-29T13:05:28Z</time></trkpt><trkpt lat="41.527043444870316" lon="19.90517723248596"><ele>1073.6666666666667</ele><time>2026-04-29T13:05:29Z</time></trkpt><trkpt lat="41.52710376622972" lon="19.905219043851265"><ele>1069.0</ele><time>2026-04-29T13:05:30Z</time></trkpt><trkpt lat="41.527164310882384" lon="19.90526083095788"><ele>1064.3333333333335</ele><time>2026-04-29T13:05:31Z</time></trkpt><trkpt lat="41.52723474831862" lon="19.905291410153417"><ele>1059.6666666666667</ele><time>2026-04-29T13:05:32Z</time></trkpt><trkpt lat="41.52737766860103" lon="19.905284360471253"><ele>1055.0</ele><time>2026-04-29T13:05:34Z</time></trkpt><trkpt lat="41.52746547845912" lon="19.90521241817914"><ele>1055.0</ele><time>2026-04-29T13:05:36Z</time></trkpt><trkpt lat="41.52756642124189" lon="19.9051399706583"><ele>1055.0</ele><time>2026-04-29T13:05:38Z</time></trkpt><trkpt lat="41.52763590148707" lon="19.905093916832257"><ele>1055.0</ele><time>2026-04-29T13:05:39Z</time></trkpt><trkpt lat="41.52770023442815" lon="19.905049792838412"><ele>1055.0</ele><time>2026-04-29T13:05:40Z</time></trkpt><trkpt lat="41.527762553273796" lon="19.90500357502457"><ele>1055.0</ele><time>2026-04-29T13:05:41Z</time></trkpt><trkpt lat="41.527863941593424" lon="19.9049290983322"><ele>1057.1666666666667</ele><time>2026-04-29T13:05:43Z</time></trkpt><trkpt lat="41.52790436265562" lon="19.904832025892595"><ele>1059.3333333333335</ele><time>2026-04-29T13:05:44Z</time></trkpt><trkpt lat="41.52796459399863" lon="19.904777344232564"><ele>1061.5</ele><time>2026-04-29T13:05:45Z</time></trkpt><trkpt lat="41.52801197210303" lon="19.904711586221485"><ele>1063.6666666666667</ele><time>2026-04-29T13:05:46Z</time></trkpt><trkpt lat="41.5280577254937" lon="19.904647682807898"><ele>1065.8333333333333</ele><time>2026-04-29T13:05:47Z</time></trkpt><trkpt lat="41.528113438807004" lon="19.9045590725666"><ele>1068.0</ele><time>2026-04-29T13:05:49Z</time></trkpt><trkpt lat="41.52822826984525" lon="19.90454894542699"><ele>1068.0</ele><time>2026-04-29T13:05:51Z</time></trkpt><trkpt lat="41.52832249424267" lon="19.904594186663488"><ele>1068.0</ele><time>2026-04-29T13:05:53Z</time></trkpt><trkpt lat="41.5284091696714" lon="19.904722470472496"><ele>1068.0</ele><time>2026-04-29T13:05:55Z</time></trkpt><trkpt lat="41.528452204630575" lon="19.904802034246355"><ele>1068.0</ele><time>2026-04-29T13:05:56Z</time></trkpt><trkpt lat="41.52849219666406" lon="19.9048775543657"><ele>1068.0</ele><time>2026-04-29T13:05:57Z</time></trkpt><trkpt lat="41.52859607863904" lon="19.90497945395297"><ele>1068.0</ele><time>2026-04-29T13:05:59Z</time></trkpt><trkpt lat="41.528692020580046" lon="19.905012680965907"><ele>1068.0</ele><time>2026-04-29T13:06:01Z</time></trkpt><trkpt lat="41.52879064071962" lon="19.904957998864187"><ele>1068.0</ele><time>2026-04-29T13:06:03Z</time></trkpt><trkpt lat="41.52885890959181" lon="19.90491003500861"><ele>1068.0</ele><time>2026-04-29T13:06:05Z</time></trkpt><trkpt lat="41.52894239188558" lon="19.904930516717897"><ele>1068.0</ele><time>2026-04-29T13:06:07Z</time></trkpt><trkpt lat="41.528958932413914" lon="19.90504854080785"><ele>1062.8333333333333</ele><time>2026-04-29T13:06:09Z</time></trkpt><trkpt lat="41.52888268708631" lon="19.905086274179215"><ele>1057.6666666666667</ele><time>2026-04-29T13:06:11Z</time></trkpt><trkpt lat="41.52882571538139" lon="19.90514293102707"><ele>1052.5</ele><time>2026-04-29T13:06:13Z</time></trkpt><trkpt lat="41.52872290217705" lon="19.905161447258873"><ele>1047.3333333333335</ele><time>2026-04-29T13:06:15Z</time></trkpt><trkpt lat="41.52864195022573" lon="19.905180728741165"><ele>1042.1666666666667</ele><time>2026-04-29T13:06:17Z</time></trkpt><trkpt lat="41.52854679409833" lon="19.905166123266792"><ele>1037.0</ele><time>2026-04-29T13:06:19Z</time></trkpt><trkpt lat="41.528468525706515" lon="19.905098674602993"><ele>1037.0</ele><time>2026-04-29T13:06:21Z</time></trkpt><trkpt lat="41.528366198028124" lon="19.905009354559247"><ele>1037.0</ele><time>2026-04-29T13:06:23Z</time></trkpt><trkpt lat="41.52828033198004" lon="19.904953911288807"><ele>1037.0</ele><time>2026-04-29T13:06:25Z</time></trkpt><trkpt lat="41.528226325039476" lon="19.90500876536099"><ele>1037.0</ele><time>2026-04-29T13:06:27Z</time></trkpt><trkpt lat="41.52822591530272" lon="19.90512074653279"><ele>1037.0</ele><time>2026-04-29T13:06:29Z</time></trkpt><trkpt lat="41.52826284954638" lon="19.9052028808018"><ele>1037.0</ele><time>2026-04-29T13:06:57Z</time></trkpt><trkpt lat="41.528337430388696" lon="19.905212556161782"><ele>1037.0</ele><time>2026-04-29T13:10:41.999Z</time></trkpt><trkpt lat="41.528399173772925" lon="19.905251722130398"><ele>1037.0</ele><time>2026-04-29T13:10:52Z</time></trkpt><trkpt lat="41.52846176628043" lon="19.905291037823158"><ele>1037.0</ele><time>2026-04-29T13:10:58Z</time></trkpt><trkpt lat="41.52840054847915" lon="19.90526677383546"><ele>1037.0</ele><time>2026-04-29T13:11:49Z</time></trkpt><trkpt lat="41.528339444223924" lon="19.90523514318068"><ele>1037.0</ele><time>2026-04-29T13:11:55Z</time></trkpt><trkpt lat="41.52829272545368" lon="19.905164320992256"><ele>1037.0</ele><time>2026-04-29T13:15:09Z</time></trkpt><trkpt lat="41.528245699824694" lon="19.90506585013318"><ele>1037.0</ele><time>2026-04-29T13:15:12Z</time></trkpt><trkpt lat="41.52823817798473" lon="19.90498118444085"><ele>1037.0</ele><time>2026-04-29T13:15:15Z</time></trkpt><trkpt lat="41.52831993181109" lon="19.904970895683455"><ele>1037.0</ele><time>2026-04-29T13:22:00Z</time></trkpt><trkpt lat="41.52839208240442" lon="19.905008968065175"><ele>1037.0</ele><time>2026-04-29T13:22:02Z</time></trkpt><trkpt lat="41.52850538504" lon="19.905122613790326"><ele>1037.0</ele><time>2026-04-29T13:22:04Z</time></trkpt><trkpt lat="41.52856960307385" lon="19.905180023497714"><ele>1037.0</ele><time>2026-04-29T13:22:05Z</time></trkpt><trkpt lat="41.52865855766752" lon="19.905197717716433"><ele>1035.3333333333335</ele><time>2026-04-29T13:22:07Z</time></trkpt><trkpt lat="41.528739928766406" lon="19.905184318643297"><ele>1033.6666666666667</ele><time>2026-04-29T13:22:09Z</time></trkpt><trkpt lat="41.528808016802685" lon="19.90518945987607"><ele>1032.0</ele><time>2026-04-29T13:22:18Z</time></trkpt><trkpt lat="41.528871525267625" lon="19.905222227274127"><ele>1030.3333333333333</ele><time>2026-04-29T13:22:20Z</time></trkpt><trkpt lat="41.528953321852434" lon="19.9052663600848"><ele>1028.6666666666665</ele><time>2026-04-29T13:22:23Z</time></trkpt><trkpt lat="41.529021906437094" lon="19.90530938273501"><ele>1027.0</ele><time>2026-04-29T13:22:24.999Z</time></trkpt><trkpt lat="41.52908875877732" lon="19.905299306837602"><ele>1027.0</ele><time>2026-04-29T13:22:26.999Z</time></trkpt><trkpt lat="41.52916128615084" lon="19.905288222619518"><ele>1027.0</ele><time>2026-04-29T13:22:28.999Z</time></trkpt><trkpt lat="41.52923309727431" lon="19.905276542781813"><ele>1027.0</ele><time>2026-04-29T13:22:30.999Z</time></trkpt><trkpt lat="41.529322889655894" lon="19.90528376145846"><ele>1027.0</ele><time>2026-04-29T13:22:33.999Z</time></trkpt><trkpt lat="41.529397872805916" lon="19.905337283771974"><ele>1027.0</ele><time>2026-04-29T13:22:36.999Z</time></trkpt><trkpt lat="41.52930973164703" lon="19.90544730094031"><ele>1027.0</ele><time>2026-04-29T13:22:42.999Z</time></trkpt><trkpt lat="41.52923624629564" lon="19.90546772962604"><ele>1027.0</ele><time>2026-04-29T13:22:44.999Z</time></trkpt><trkpt lat="41.52916816057429" lon="19.905495008992705"><ele>1027.0</ele><time>2026-04-29T13:22:46.999Z</time></trkpt><trkpt lat="41.52910291428559" lon="19.90548871126895"><ele>1027.0</ele><time>2026-04-29T13:22:50.999Z</time></trkpt><trkpt lat="41.52909374803432" lon="19.905699577237897"><ele>1027.0</ele><time>2026-04-29T13:22:52.999Z</time></trkpt><trkpt lat="41.52920960477007" lon="19.90574503014752"><ele>1027.0</ele><time>2026-04-29T13:22:55.999Z</time></trkpt><trkpt lat="41.52925701766183" lon="19.90568577415832"><ele>1027.0</ele><time>2026-04-29T13:22:56.999Z</time></trkpt><trkpt lat="41.52934516230109" lon="19.905635519091252"><ele>1027.0</ele><time>2026-04-29T13:22:58.999Z</time></trkpt><trkpt lat="41.52941112040737" lon="19.90559777721823"><ele>1027.0</ele><time>2026-04-29T13:23:00.999Z</time></trkpt><trkpt lat="41.52949001086159" lon="19.905570386435688"><ele>1027.0</ele><time>2026-04-29T13:23:02.999Z</time></trkpt><trkpt lat="41.52956972744949" lon="19.905546400984477"><ele>1027.0</ele><time>2026-04-29T13:23:04.999Z</time></trkpt><trkpt lat="41.52967802699815" lon="19.905513297324525"><ele>1027.0</ele><time>2026-04-29T13:23:06.999Z</time></trkpt><trkpt lat="41.529761787597884" lon="19.90553478435258"><ele>1027.5</ele><time>2026-04-29T13:23:08.999Z</time></trkpt><trkpt lat="41.529838346442645" lon="19.905552621443"><ele>1028.0</ele><time>2026-04-29T13:23:10.999Z</time></trkpt><trkpt lat="41.52989508086998" lon="19.90560370876057"><ele>1028.5</ele><time>2026-04-29T13:23:13.999Z</time></trkpt><trkpt lat="41.52991081530512" lon="19.905689245831116"><ele>1029.0</ele><time>2026-04-29T13:23:16.999Z</time></trkpt><trkpt lat="41.52980996348949" lon="19.905749146982583"><ele>1029.5</ele><time>2026-04-29T13:23:18.999Z</time></trkpt><trkpt lat="41.52972588338248" lon="19.905768383977115"><ele>1030.0</ele><time>2026-04-29T13:23:20.999Z</time></trkpt><trkpt lat="41.52961283670837" lon="19.905780273285213"><ele>1029.5</ele><time>2026-04-29T13:23:22.999Z</time></trkpt><trkpt lat="41.52952028365574" lon="19.90578061429921"><ele>1029.0</ele><time>2026-04-29T13:23:24.999Z</time></trkpt><trkpt lat="41.5294732806942" lon="19.90585076829098"><ele>1028.5</ele><time>2026-04-29T13:23:26.999Z</time></trkpt><trkpt lat="41.52949000375293" lon="19.905947153115576"><ele>1028.0</ele><time>2026-04-29T13:23:28.999Z</time></trkpt><trkpt lat="41.52956153100432" lon="19.906065424122783"><ele>1027.5</ele><time>2026-04-29T13:23:30.999Z</time></trkpt><trkpt lat="41.529627527505085" lon="19.906084506621774"><ele>1027.0</ele><time>2026-04-29T13:23:31.999Z</time></trkpt><trkpt lat="41.529714205074846" lon="19.90605940581747"><ele>1027.5</ele><time>2026-04-29T13:23:32.999Z</time></trkpt><trkpt lat="41.529780186641325" lon="19.906034901176334"><ele>1028.0</ele><time>2026-04-29T13:23:33.999Z</time></trkpt><trkpt lat="41.52984502984741" lon="19.906023868423844"><ele>1028.5</ele><time>2026-04-29T13:23:34.999Z</time></trkpt><trkpt lat="41.529912989332544" lon="19.906010875453777"><ele>1029.0</ele><time>2026-04-29T13:23:35.999Z</time></trkpt><trkpt lat="41.530030853314884" lon="19.905961205219462"><ele>1029.5</ele><time>2026-04-29T13:23:37.999Z</time></trkpt><trkpt lat="41.53010535026505" lon="19.905913602009388"><ele>1030.0</ele><time>2026-04-29T13:23:38.999Z</time></trkpt><trkpt lat="41.53017247854808" lon="19.905854964871697"><ele>1030.0</ele><time>2026-04-29T13:23:39.999Z</time></trkpt><trkpt lat="41.53023657058788" lon="19.905798980278917"><ele>1030.0</ele><time>2026-04-29T13:23:40.999Z</time></trkpt><trkpt lat="41.53030079875529" lon="19.905755561677513"><ele>1030.0</ele><time>2026-04-29T13:23:41.999Z</time></trkpt><trkpt lat="41.530370526622455" lon="19.90571079061758"><ele>1030.0</ele><time>2026-04-29T13:23:42.999Z</time></trkpt><trkpt lat="41.53053074078279" lon="19.905694938280426"><ele>1030.0</ele><time>2026-04-29T13:23:44.999Z</time></trkpt><trkpt lat="41.530625345990835" lon="19.90568256899894"><ele>1027.5</ele><time>2026-04-29T13:23:45.999Z</time></trkpt><trkpt lat="41.53070680949919" lon="19.905671862169424"><ele>1025.0</ele><time>2026-04-29T13:23:46.999Z</time></trkpt><trkpt lat="41.53079608042136" lon="19.905652011600687"><ele>1022.5</ele><time>2026-04-29T13:23:47.999Z</time></trkpt><trkpt lat="41.5308784102419" lon="19.905637408873076"><ele>1020.0</ele><time>2026-04-29T13:23:48.999Z</time></trkpt><trkpt lat="41.53096656131621" lon="19.90562520013187"><ele>1017.4999999999999</ele><time>2026-04-29T13:23:49.999Z</time></trkpt><trkpt lat="41.53105018588817" lon="19.905623510353248"><ele>1015.0</ele><time>2026-04-29T13:23:50.999Z</time></trkpt><trkpt lat="41.5311473889741" lon="19.905629031226752"><ele>1011.6666666666666</ele><time>2026-04-29T13:23:51.999Z</time></trkpt><trkpt lat="41.53123281067645" lon="19.905644825301874"><ele>1008.3333333333333</ele><time>2026-04-29T13:23:52.999Z</time></trkpt><trkpt lat="41.53131889444269" lon="19.905652558547214"><ele>1005.0</ele><time>2026-04-29T13:23:53.999Z</time></trkpt><trkpt lat="41.53140443911922" lon="19.90565658869402"><ele>1001.6666666666667</ele><time>2026-04-29T13:23:54.999Z</time></trkpt><trkpt lat="41.531499753877775" lon="19.90562952035936"><ele>998.3333333333334</ele><time>2026-04-29T13:23:55.999Z</time></trkpt><trkpt lat="41.531574761896294" lon="19.905612052375727"><ele>995.0</ele><time>2026-04-29T13:23:56.999Z</time></trkpt><trkpt lat="41.53162714737319" lon="19.905556449237263"><ele>995.0</ele><time>2026-04-29T13:23:57.999Z</time></trkpt><trkpt lat="41.53172962495016" lon="19.90542710632614"><ele>995.0</ele><time>2026-04-29T13:23:59.999Z</time></trkpt><trkpt lat="41.53179961901289" lon="19.90535741526507"><ele>995.0</ele><time>2026-04-29T13:24:00.999Z</time></trkpt><trkpt lat="41.53186364405206" lon="19.905275266153687"><ele>995.0</ele><time>2026-04-29T13:24:01.999Z</time></trkpt><trkpt lat="41.53193201572447" lon="19.905188389351196"><ele>995.0</ele><time>2026-04-29T13:24:02.999Z</time></trkpt><trkpt lat="41.531998626231754" lon="19.90509131471682"><ele>997.0000000000001</ele><time>2026-04-29T13:24:03.999Z</time></trkpt><trkpt lat="41.53206012979888" lon="19.90500235174237"><ele>999.0</ele><time>2026-04-29T13:24:04.999Z</time></trkpt><trkpt lat="41.53211479291369" lon="19.9049237150813"><ele>1001.0</ele><time>2026-04-29T13:24:05.999Z</time></trkpt><trkpt lat="41.5321680143264" lon="19.90487568553677"><ele>1003.0</ele><time>2026-04-29T13:24:06.999Z</time></trkpt><trkpt lat="41.53223385702816" lon="19.904814260644905"><ele>1005.0000000000001</ele><time>2026-04-29T13:24:07.999Z</time></trkpt><trkpt lat="41.53229840275705" lon="19.904791667033425"><ele>1007.0</ele><time>2026-04-29T13:24:08.999Z</time></trkpt><trkpt lat="41.53236963090702" lon="19.90475583309398"><ele>1007.0000000000001</ele><time>2026-04-29T13:24:09.999Z</time></trkpt><trkpt lat="41.53243517877194" lon="19.904767721621717"><ele>1007.0</ele><time>2026-04-29T13:24:10.999Z</time></trkpt><trkpt lat="41.53250358668041" lon="19.904780608491524"><ele>1007.0</ele><time>2026-04-29T13:24:11.999Z</time></trkpt><trkpt lat="41.532578934059735" lon="19.904791394945875"><ele>1007.0</ele><time>2026-04-29T13:24:12.999Z</time></trkpt><trkpt lat="41.532662462791706" lon="19.90485478717407"><ele>1007.0000000000001</ele><time>2026-04-29T13:24:14.999Z</time></trkpt><trkpt lat="41.532706316145884" lon="19.905014400080816"><ele>1007.0</ele><time>2026-04-29T13:24:16.999Z</time></trkpt><trkpt lat="41.53275891011829" lon="19.905127194086145"><ele>1006.4000000000001</ele><time>2026-04-29T13:24:17.999Z</time></trkpt><trkpt lat="41.53282002854328" lon="19.905257980978682"><ele>1005.8000000000001</ele><time>2026-04-29T13:24:18.999Z</time></trkpt><trkpt lat="41.532861220707794" lon="19.90537367210366"><ele>1005.2</ele><time>2026-04-29T13:24:19.999Z</time></trkpt><trkpt lat="41.5328888371929" lon="19.905482060146532"><ele>1004.6</ele><time>2026-04-29T13:24:20.999Z</time></trkpt><trkpt lat="41.53290740211404" lon="19.90558547300707"><ele>1004.0</ele><time>2026-04-29T13:24:21.999Z</time></trkpt><trkpt lat="41.53292337288659" lon="19.905693606908432"><ele>1004.0000000000001</ele><time>2026-04-29T13:24:22.999Z</time></trkpt><trkpt lat="41.532937221895864" lon="19.90579538527353"><ele>1004.0</ele><time>2026-04-29T13:24:23.999Z</time></trkpt><trkpt lat="41.53298149225522" lon="19.905893340524116"><ele>1004.0</ele><time>2026-04-29T13:24:24.999Z</time></trkpt><trkpt lat="41.53301285209239" lon="19.90598191633166"><ele>1004.0</ele><time>2026-04-29T13:24:25.999Z</time></trkpt><trkpt lat="41.533066237745565" lon="19.90604566910793"><ele>1004.0000000000001</ele><time>2026-04-29T13:24:26.999Z</time></trkpt><trkpt lat="41.53316748709627" lon="19.906090635042354"><ele>1004.0</ele><time>2026-04-29T13:24:28.999Z</time></trkpt><trkpt lat="41.53328502764353" lon="19.90605150080672"><ele>995.2</ele><time>2026-04-29T13:24:30.999Z</time></trkpt><trkpt lat="41.5333562492652" lon="19.90601085352237"><ele>986.4000000000001</ele><time>2026-04-29T13:24:31.999Z</time></trkpt><trkpt lat="41.53344333128587" lon="19.905997828954884"><ele>977.6</ele><time>2026-04-29T13:24:32.999Z</time></trkpt><trkpt lat="41.53354216127719" lon="19.905971635946113"><ele>968.8</ele><time>2026-04-29T13:24:33.999Z</time></trkpt><trkpt lat="41.533632556236235" lon="19.90599080484546"><ele>960.0</ele><time>2026-04-29T13:24:34.999Z</time></trkpt><trkpt lat="41.53373223448151" lon="19.905994815960977"><ele>960.0</ele><time>2026-04-29T13:24:35.999Z</time></trkpt><trkpt lat="41.53380932465107" lon="19.906027361730956"><ele>960.0</ele><time>2026-04-29T13:24:36.999Z</time></trkpt><trkpt lat="41.53387984451497" lon="19.90604781736398"><ele>960.0</ele><time>2026-04-29T13:24:37.999Z</time></trkpt><trkpt lat="41.53395121807279" lon="19.906036264914317"><ele>960.0</ele><time>2026-04-29T13:24:38.999Z</time></trkpt><trkpt lat="41.53402056944016" lon="19.90600926274815"><ele>960.0</ele><time>2026-04-29T13:24:39.999Z</time></trkpt><trkpt lat="41.53413884937514" lon="19.90596182962986"><ele>960.0</ele><time>2026-04-29T13:24:41.999Z</time></trkpt><trkpt lat="41.534251040870956" lon="19.905916273405225"><ele>968.4</ele><time>2026-04-29T13:24:43.999Z</time></trkpt><trkpt lat="41.53431151806736" lon="19.905891780713446"><ele>976.8</ele><time>2026-04-29T13:24:44.999Z</time></trkpt><trkpt lat="41.53442108349873" lon="19.905867239261994"><ele>985.2</ele><time>2026-04-29T13:24:46.999Z</time></trkpt><trkpt lat="41.53448625081585" lon="19.905851342698174"><ele>993.6</ele><time>2026-04-29T13:24:47.999Z</time></trkpt><trkpt lat="41.53457651358179" lon="19.90586634088731"><ele>1002.0</ele><time>2026-04-29T13:24:49.999Z</time></trkpt><trkpt lat="41.53469476309096" lon="19.90589765437678"><ele>991.75</ele><time>2026-04-29T13:24:51.999Z</time></trkpt><trkpt lat="41.53476141559614" lon="19.905920234733173"><ele>981.5</ele><time>2026-04-29T13:24:52.999Z</time></trkpt><trkpt lat="41.5348687713343" lon="19.905985909336586"><ele>971.25</ele><time>2026-04-29T13:24:54.999Z</time></trkpt><trkpt lat="41.5349957856181" lon="19.90605925558519"><ele>961.0</ele><time>2026-04-29T13:24:56.999Z</time></trkpt><trkpt lat="41.5351201444221" lon="19.906121973780415"><ele>961.0</ele><time>2026-04-29T13:24:58.999Z</time></trkpt><trkpt lat="41.53519163836616" lon="19.906147569319227"><ele>960.9999999999999</ele><time>2026-04-29T13:24:59.999Z</time></trkpt><trkpt lat="41.53525969255277" lon="19.906171187762716"><ele>960.9999999999999</ele><time>2026-04-29T13:25:00.999Z</time></trkpt><trkpt lat="41.53537289130692" lon="19.90621155460279"><ele>961.0</ele><time>2026-04-29T13:25:02.999Z</time></trkpt><trkpt lat="41.53545675037385" lon="19.906284052085446"><ele>961.0</ele><time>2026-04-29T13:25:04.999Z</time></trkpt><trkpt lat="41.5355222765997" lon="19.90639979441795"><ele>959.6666666666666</ele><time>2026-04-29T13:25:06.999Z</time></trkpt><trkpt lat="41.535547361023745" lon="19.906550584398026"><ele>958.3333333333333</ele><time>2026-04-29T13:25:08.999Z</time></trkpt><trkpt lat="41.53556900826468" lon="19.906638404266964"><ele>957.0</ele><time>2026-04-29T13:25:09.999Z</time></trkpt><trkpt lat="41.535591945596444" lon="19.906738172740827"><ele>955.6666666666667</ele><time>2026-04-29T13:25:10.999Z</time></trkpt><trkpt lat="41.53561289963261" lon="19.906829314806508"><ele>954.3333333333334</ele><time>2026-04-29T13:25:11.999Z</time></trkpt><trkpt lat="41.53564744893581" lon="19.90691005177875"><ele>953.0</ele><time>2026-04-29T13:25:12.999Z</time></trkpt><trkpt lat="41.535700000839135" lon="19.90703668523914"><ele>953.0000000000001</ele><time>2026-04-29T13:25:14.999Z</time></trkpt><trkpt lat="41.535768742989454" lon="19.907074273804707"><ele>953.0</ele><time>2026-04-29T13:25:15.999Z</time></trkpt><trkpt lat="41.535832453610745" lon="19.9071074889339"><ele>953.0</ele><time>2026-04-29T13:25:16.999Z</time></trkpt><trkpt lat="41.53590047636928" lon="19.907138675758002"><ele>953.0</ele><time>2026-04-29T13:25:17.999Z</time></trkpt><trkpt lat="41.535983435242336" lon="19.907174229561118"><ele>953.0000000000001</ele><time>2026-04-29T13:25:18.999Z</time></trkpt><trkpt lat="41.536100930959876" lon="19.90722593104782"><ele>953.0</ele><time>2026-04-29T13:25:20.999Z</time></trkpt><trkpt lat="41.536180984585485" lon="19.90732041978565"><ele>955.5999999999999</ele><time>2026-04-29T13:25:22.999Z</time></trkpt><trkpt lat="41.536267432465536" lon="19.90740896070026"><ele>958.1999999999999</ele><time>2026-04-29T13:25:24.999Z</time></trkpt><trkpt lat="41.53638917550311" lon="19.90745558178447"><ele>960.8</ele><time>2026-04-29T13:25:26.999Z</time></trkpt><trkpt lat="41.53652390729823" lon="19.907467596894083"><ele>963.4</ele><time>2026-04-29T13:25:28.999Z</time></trkpt><trkpt lat="41.53659904252585" lon="19.90746347657497"><ele>966.0</ele><time>2026-04-29T13:25:29.999Z</time></trkpt><trkpt lat="41.53667754581948" lon="19.907505724350102"><ele>966.0</ele><time>2026-04-29T13:25:30.999Z</time></trkpt><trkpt lat="41.53676938918104" lon="19.907535334266033"><ele>965.9999999999999</ele><time>2026-04-29T13:25:31.999Z</time></trkpt><trkpt lat="41.53684529926389" lon="19.907559909020918"><ele>965.9999999999999</ele><time>2026-04-29T13:25:32.999Z</time></trkpt><trkpt lat="41.53692687149991" lon="19.907568473861282"><ele>966.0</ele><time>2026-04-29T13:25:33.999Z</time></trkpt><trkpt lat="41.537001666376824" lon="19.907573301259784"><ele>966.0</ele><time>2026-04-29T13:25:34.999Z</time></trkpt><trkpt lat="41.5371367875251" lon="19.907536172880107"><ele>964.1666666666666</ele><time>2026-04-29T13:25:36.999Z</time></trkpt><trkpt lat="41.53725418223444" lon="19.907487611814737"><ele>962.3333333333333</ele><time>2026-04-29T13:25:38.999Z</time></trkpt><trkpt lat="41.53732907771102" lon="19.907466111835937"><ele>960.5</ele><time>2026-04-29T13:25:39.999Z</time></trkpt><trkpt lat="41.53739843533577" lon="19.90742099250362"><ele>958.6666666666666</ele><time>2026-04-29T13:25:40.999Z</time></trkpt><trkpt lat="41.53745413690063" lon="19.9073775239386"><ele>956.8333333333333</ele><time>2026-04-29T13:25:41.999Z</time></trkpt><trkpt lat="41.537520587722206" lon="19.90732526907633"><ele>955.0</ele><time>2026-04-29T13:25:42.999Z</time></trkpt><trkpt lat="41.53758815454712" lon="19.907272312798803"><ele>954.9999999999999</ele><time>2026-04-29T13:25:43.999Z</time></trkpt><trkpt lat="41.5376480420815" lon="19.90722372227793"><ele>955.0</ele><time>2026-04-29T13:25:44.999Z</time></trkpt><trkpt lat="41.53770859886557" lon="19.9071975200607"><ele>955.0</ele><time>2026-04-29T13:25:45.999Z</time></trkpt><trkpt lat="41.5377674874001" lon="19.907166991887088"><ele>955.0</ele><time>2026-04-29T13:25:46.999Z</time></trkpt><trkpt lat="41.537846661781906" lon="19.907125874874176"><ele>954.9999999999999</ele><time>2026-04-29T13:25:47.999Z</time></trkpt><trkpt lat="41.537910944479925" lon="19.907180840062875"><ele>955.0</ele><time>2026-04-29T13:25:48.999Z</time></trkpt><trkpt lat="41.53800330412024" lon="19.907175277017757"><ele>953.9999999999999</ele><time>2026-04-29T13:25:49.999Z</time></trkpt><trkpt lat="41.53808545484076" lon="19.907171854141026"><ele>953.0</ele><time>2026-04-29T13:25:50.999Z</time></trkpt><trkpt lat="41.53815253539615" lon="19.907182293075415"><ele>952.0</ele><time>2026-04-29T13:25:51.999Z</time></trkpt><trkpt lat="41.53824327308395" lon="19.90720914650504"><ele>951.0</ele><time>2026-04-29T13:25:52.999Z</time></trkpt><trkpt lat="41.538334320418116" lon="19.907236579576388"><ele>949.9999999999999</ele><time>2026-04-29T13:25:53.999Z</time></trkpt><trkpt lat="41.538433739789305" lon="19.90726497980247"><ele>949.0</ele><time>2026-04-29T13:25:54.999Z</time></trkpt><trkpt lat="41.538519311006404" lon="19.907306559984736"><ele>949.0</ele><time>2026-04-29T13:25:55.999Z</time></trkpt><trkpt lat="41.53860106817272" lon="19.90734651065602"><ele>949.0000000000001</ele><time>2026-04-29T13:25:56.999Z</time></trkpt><trkpt lat="41.53868095261409" lon="19.907385359928153"><ele>949.0000000000001</ele><time>2026-04-29T13:25:57.999Z</time></trkpt><trkpt lat="41.53875591003556" lon="19.907398027109608"><ele>949.0</ele><time>2026-04-29T13:25:58.999Z</time></trkpt><trkpt lat="41.53887397338474" lon="19.907359422562134"><ele>949.0</ele><time>2026-04-29T13:26:00.999Z</time></trkpt><trkpt lat="41.5389274482275" lon="19.90727220693243"><ele>945.2</ele><time>2026-04-29T13:26:01.999Z</time></trkpt><trkpt lat="41.538944467538286" lon="19.907159412858757"><ele>941.4000000000001</ele><time>2026-04-29T13:26:02.999Z</time></trkpt><trkpt lat="41.538957028834794" lon="19.907047872748468"><ele>937.6</ele><time>2026-04-29T13:26:03.999Z</time></trkpt><trkpt lat="41.538969574766625" lon="19.906922741037878"><ele>933.8</ele><time>2026-04-29T13:26:04.999Z</time></trkpt><trkpt lat="41.5390213220043" lon="19.90684083300588"><ele>930.0</ele><time>2026-04-29T13:26:05.999Z</time></trkpt><trkpt lat="41.539133137288715" lon="19.906767719655655"><ele>934.3333333333334</ele><time>2026-04-29T13:26:07.999Z</time></trkpt><trkpt lat="41.539190605929626" lon="19.906715382749443"><ele>938.6666666666667</ele><time>2026-04-29T13:26:08.999Z</time></trkpt><trkpt lat="41.539255400310694" lon="19.906655387247863"><ele>943.0</ele><time>2026-04-29T13:26:09.999Z</time></trkpt><trkpt lat="41.53930232681373" lon="19.90652759187537"><ele>947.3333333333334</ele><time>2026-04-29T13:26:10.999Z</time></trkpt><trkpt lat="41.539327499803" lon="19.90642402621069"><ele>951.6666666666667</ele><time>2026-04-29T13:26:11.999Z</time></trkpt><trkpt lat="41.53934783395916" lon="19.90630839000262"><ele>956.0</ele><time>2026-04-29T13:26:12.999Z</time></trkpt><trkpt lat="41.539381000020256" lon="19.906204058375756"><ele>956.0</ele><time>2026-04-29T13:26:13.999Z</time></trkpt><trkpt lat="41.53941103873747" lon="19.906115342514695"><ele>955.9999999999999</ele><time>2026-04-29T13:26:14.999Z</time></trkpt><trkpt lat="41.53951865452399" lon="19.906053364245018"><ele>955.9999999999999</ele><time>2026-04-29T13:26:16.999Z</time></trkpt><trkpt lat="41.539650316824094" lon="19.906074304410808"><ele>956.0</ele><time>2026-04-29T13:26:18.999Z</time></trkpt><trkpt lat="41.53971283181398" lon="19.90611849741311"><ele>956.0</ele><time>2026-04-29T13:26:19.999Z</time></trkpt><trkpt lat="41.53978682737977" lon="19.90615992501693"><ele>953.1999999999999</ele><time>2026-04-29T13:26:20.999Z</time></trkpt><trkpt lat="41.53988075111783" lon="19.90621713774259"><ele>950.3999999999999</ele><time>2026-04-29T13:26:21.999Z</time></trkpt><trkpt lat="41.5399727041325" lon="19.906281936732444"><ele>947.6</ele><time>2026-04-29T13:26:22.999Z</time></trkpt><trkpt lat="41.54004753471935" lon="19.906334432707375"><ele>944.8</ele><time>2026-04-29T13:26:23.999Z</time></trkpt><trkpt lat="41.54011684644371" lon="19.90638287246264"><ele>942.0</ele><time>2026-04-29T13:26:24.999Z</time></trkpt><trkpt lat="41.54020418816073" lon="19.906467497885266"><ele>942.0</ele><time>2026-04-29T13:26:26.999Z</time></trkpt><trkpt lat="41.54030978467347" lon="19.906572841927257"><ele>942.0</ele><time>2026-04-29T13:26:28.999Z</time></trkpt><trkpt lat="41.540402231308065" lon="19.906628422390988"><ele>942.0</ele><time>2026-04-29T13:26:29.999Z</time></trkpt><trkpt lat="41.5404961583895" lon="19.906689651846207"><ele>942.0</ele><time>2026-04-29T13:26:30.999Z</time></trkpt><trkpt lat="41.54059068735077" lon="19.90675089636772"><ele>942.0</ele><time>2026-04-29T13:26:31.999Z</time></trkpt><trkpt lat="41.540622330253555" lon="19.90683267091995"><ele>939.4000000000001</ele><time>2026-04-29T13:26:32.999Z</time></trkpt><trkpt lat="41.54066941492994" lon="19.90691058955882"><ele>936.8000000000001</ele><time>2026-04-29T13:26:33.999Z</time></trkpt><trkpt lat="41.54070417806119" lon="19.9069835113221"><ele>934.2</ele><time>2026-04-29T13:26:34.999Z</time></trkpt><trkpt lat="41.5407973134187" lon="19.907098498948486"><ele>931.6</ele><time>2026-04-29T13:26:36.999Z</time></trkpt><trkpt lat="41.540918293369096" lon="19.907099273733785"><ele>929.0</ele><time>2026-04-29T13:26:38.999Z</time></trkpt><trkpt lat="41.54103806283596" lon="19.907006506502736"><ele>929.0</ele><time>2026-04-29T13:26:40.999Z</time></trkpt><trkpt lat="41.541146390336145" lon="19.906940028508046"><ele>929.0000000000001</ele><time>2026-04-29T13:26:41.999Z</time></trkpt><trkpt lat="41.54123669591092" lon="19.906850573707565"><ele>929.0000000000001</ele><time>2026-04-29T13:26:42.999Z</time></trkpt><trkpt lat="41.54130920400909" lon="19.906764028839312"><ele>929.0</ele><time>2026-04-29T13:26:43.999Z</time></trkpt><trkpt lat="41.541377974838966" lon="19.906670878250683"><ele>929.0</ele><time>2026-04-29T13:26:44.999Z</time></trkpt><trkpt lat="41.54142302472696" lon="19.906571106514132"><ele>929.4000000000001</ele><time>2026-04-29T13:26:45.999Z</time></trkpt><trkpt lat="41.541483044503174" lon="19.90646359566966"><ele>929.8000000000001</ele><time>2026-04-29T13:26:46.999Z</time></trkpt><trkpt lat="41.54148410616096" lon="19.906329028777172"><ele>930.1999999999999</ele><time>2026-04-29T13:26:47.999Z</time></trkpt><trkpt lat="41.541493237059846" lon="19.906201466641132"><ele>930.5999999999999</ele><time>2026-04-29T13:26:48.999Z</time></trkpt><trkpt lat="41.54150977821873" lon="19.906069966094975"><ele>931.0</ele><time>2026-04-29T13:26:49.999Z</time></trkpt><trkpt lat="41.5415176237619" lon="19.905933136404652"><ele>933.1666666666666</ele><time>2026-04-29T13:26:50.999Z</time></trkpt><trkpt lat="41.541516812102074" lon="19.905841179404188"><ele>935.3333333333333</ele><time>2026-04-29T13:26:51.999Z</time></trkpt><trkpt lat="41.54149089848253" lon="19.90575249647341"><ele>937.5</ele><time>2026-04-29T13:26:52.999Z</time></trkpt><trkpt lat="41.541442725381984" lon="19.905657387321824"><ele>939.6666666666667</ele><time>2026-04-29T13:26:53.999Z</time></trkpt><trkpt lat="41.54139586380503" lon="19.905569777637552"><ele>941.8333333333334</ele><time>2026-04-29T13:26:54.999Z</time></trkpt><trkpt lat="41.541381555082985" lon="19.90547176254749"><ele>944.0</ele><time>2026-04-29T13:26:55.999Z</time></trkpt><trkpt lat="41.541424325878346" lon="19.90536837724701"><ele>944.0</ele><time>2026-04-29T13:26:56.999Z</time></trkpt><trkpt lat="41.54143556708662" lon="19.90523960858135"><ele>944.0000000000001</ele><time>2026-04-29T13:26:57.999Z</time></trkpt><trkpt lat="41.54146073555307" lon="19.905105417764585"><ele>944.0000000000001</ele><time>2026-04-29T13:26:58.999Z</time></trkpt><trkpt lat="41.541454312758056" lon="19.904961729437705"><ele>944.0</ele><time>2026-04-29T13:26:59.999Z</time></trkpt><trkpt lat="41.5414618303288" lon="19.90478185457866"><ele>944.0</ele><time>2026-04-29T13:27:00.999Z</time></trkpt><trkpt lat="41.54145961683383" lon="19.90461016543918"><ele>944.6</ele><time>2026-04-29T13:27:01.999Z</time></trkpt><trkpt lat="41.54145673371932" lon="19.904461490025533"><ele>945.2</ele><time>2026-04-29T13:27:02.999Z</time></trkpt><trkpt lat="41.541454609171595" lon="19.90432223649256"><ele>945.8000000000001</ele><time>2026-04-29T13:27:03.999Z</time></trkpt><trkpt lat="41.541455154474654" lon="19.90419541541351"><ele>946.4000000000001</ele><time>2026-04-29T13:27:04.999Z</time></trkpt><trkpt lat="41.54145515447621" lon="19.904046422424752"><ele>947.0</ele><time>2026-04-29T13:27:05.999Z</time></trkpt><trkpt lat="41.541437281738794" lon="19.903875967319177"><ele>948.0</ele><time>2026-04-29T13:27:06.999Z</time></trkpt><trkpt lat="41.541428339242394" lon="19.9037242564036"><ele>949.0</ele><time>2026-04-29T13:27:07.999Z</time></trkpt><trkpt lat="41.541417384927946" lon="19.90358909417603"><ele>950.0</ele><time>2026-04-29T13:27:08.999Z</time></trkpt><trkpt lat="41.54140664836828" lon="19.903455294100105"><ele>951.0</ele><time>2026-04-29T13:27:09.999Z</time></trkpt><trkpt lat="41.541396765194094" lon="19.903332320135828"><ele>952.0</ele><time>2026-04-29T13:27:10.999Z</time></trkpt><trkpt lat="41.54138581830283" lon="19.903196110475644"><ele>952.0</ele><time>2026-04-29T13:27:11.999Z</time></trkpt><trkpt lat="41.54135853853695" lon="19.9030553102955"><ele>952.0</ele><time>2026-04-29T13:27:12.999Z</time></trkpt><trkpt lat="41.54133297513166" lon="19.902931952972065"><ele>952.0</ele><time>2026-04-29T13:27:13.999Z</time></trkpt><trkpt lat="41.54130625328986" lon="19.90280437852971"><ele>952.0</ele><time>2026-04-29T13:27:14.999Z</time></trkpt><trkpt lat="41.54127933751612" lon="19.902694130819853"><ele>952.0</ele><time>2026-04-29T13:27:15.999Z</time></trkpt><trkpt lat="41.541247500494954" lon="19.902587343974783"><ele>954.8333333333333</ele><time>2026-04-29T13:27:16.999Z</time></trkpt><trkpt lat="41.541219301029955" lon="19.902490128636426"><ele>957.6666666666666</ele><time>2026-04-29T13:27:17.999Z</time></trkpt><trkpt lat="41.5411979338186" lon="19.90236868263254"><ele>960.5</ele><time>2026-04-29T13:27:19.999Z</time></trkpt><trkpt lat="41.541252760588385" lon="19.90230112418983"><ele>963.3333333333333</ele><time>2026-04-29T13:27:21.999Z</time></trkpt><trkpt lat="41.54132973601663" lon="19.90231322446584"><ele>966.1666666666666</ele><time>2026-04-29T13:27:23.999Z</time></trkpt><trkpt lat="41.54143885656617" lon="19.902300194100512"><ele>969.0</ele><time>2026-04-29T13:27:25.999Z</time></trkpt><trkpt lat="41.54156063646127" lon="19.90230739553479"><ele>969.0</ele><time>2026-04-29T13:27:27.999Z</time></trkpt><trkpt lat="41.54163564327194" lon="19.90232460406828"><ele>969.0</ele><time>2026-04-29T13:27:28.999Z</time></trkpt><trkpt lat="41.54171369971515" lon="19.90233788475907"><ele>969.0</ele><time>2026-04-29T13:27:29.999Z</time></trkpt><trkpt lat="41.541791673445495" lon="19.902350870269384"><ele>969.0</ele><time>2026-04-29T13:27:30.999Z</time></trkpt><trkpt lat="41.54190201233686" lon="19.90237726171883"><ele>969.0</ele><time>2026-04-29T13:27:32.999Z</time></trkpt><trkpt lat="41.54196770238596" lon="19.902404467147072"><ele>969.0</ele><time>2026-04-29T13:27:33.999Z</time></trkpt><trkpt lat="41.54203211473303" lon="19.90243116729847"><ele>966.25</ele><time>2026-04-29T13:27:34.999Z</time></trkpt><trkpt lat="41.542135959597836" lon="19.90245440635683"><ele>963.5</ele><time>2026-04-29T13:27:36.999Z</time></trkpt><trkpt lat="41.54224723496936" lon="19.902332547278636"><ele>960.75</ele><time>2026-04-29T13:27:39.999Z</time></trkpt><trkpt lat="41.54229118445053" lon="19.902202261665817"><ele>958.0</ele><time>2026-04-29T13:27:41.999Z</time></trkpt><trkpt lat="41.54234576850934" lon="19.902099911587992"><ele>957.9999999999999</ele><time>2026-04-29T13:27:43.999Z</time></trkpt><trkpt lat="41.54240182889737" lon="19.902043728190545"><ele>958.0</ele><time>2026-04-29T13:27:44.999Z</time></trkpt><trkpt lat="41.54244573442342" lon="19.901957010877044"><ele>958.0</ele><time>2026-04-29T13:27:45.999Z</time></trkpt><trkpt lat="41.54248009213171" lon="19.90185252706528"><ele>958.0</ele><time>2026-04-29T13:27:46.999Z</time></trkpt><trkpt lat="41.542527232115425" lon="19.90175241903037"><ele>957.9999999999999</ele><time>2026-04-29T13:27:47.999Z</time></trkpt><trkpt lat="41.54257619330375" lon="19.901658901878296"><ele>958.0</ele><time>2026-04-29T13:27:48.999Z</time></trkpt><trkpt lat="41.54260742667586" lon="19.901576251767"><ele>961.1666666666666</ele><time>2026-04-29T13:27:49.999Z</time></trkpt><trkpt lat="41.542653412608445" lon="19.90150881111452"><ele>964.3333333333333</ele><time>2026-04-29T13:27:50.999Z</time></trkpt><trkpt lat="41.542708950590736" lon="19.90142698055196"><ele>967.5</ele><time>2026-04-29T13:27:51.999Z</time></trkpt><trkpt lat="41.54281608741366" lon="19.90134143091732"><ele>970.6666666666667</ele><time>2026-04-29T13:27:53.999Z</time></trkpt><trkpt lat="41.54289278338223" lon="19.901314261639946"><ele>973.8333333333334</ele><time>2026-04-29T13:27:54.999Z</time></trkpt><trkpt lat="41.54295447136828" lon="19.901283549177396"><ele>977.0</ele><time>2026-04-29T13:27:55.999Z</time></trkpt><trkpt lat="41.54305088609071" lon="19.90126673461926"><ele>977.1666666666667</ele><time>2026-04-29T13:27:57.999Z</time></trkpt><trkpt lat="41.543081684427364" lon="19.90135989336105"><ele>977.3333333333334</ele><time>2026-04-29T13:27:58.999Z</time></trkpt><trkpt lat="41.54315354330995" lon="19.901497121966667"><ele>977.5</ele><time>2026-04-29T13:28:00.999Z</time></trkpt><trkpt lat="41.54319390293354" lon="19.901605925226757"><ele>977.6666666666667</ele><time>2026-04-29T13:28:01.999Z</time></trkpt><trkpt lat="41.54321342793909" lon="19.90168858866553"><ele>977.8333333333334</ele><time>2026-04-29T13:28:02.999Z</time></trkpt><trkpt lat="41.54324250678388" lon="19.90179746249785"><ele>978.0</ele><time>2026-04-29T13:28:03.999Z</time></trkpt><trkpt lat="41.54328149400277" lon="19.901932265638948"><ele>973.8</ele><time>2026-04-29T13:28:04.999Z</time></trkpt><trkpt lat="41.54329987466187" lon="19.90208174507448"><ele>969.5999999999999</ele><time>2026-04-29T13:28:05.999Z</time></trkpt><trkpt lat="41.54333945808654" lon="19.902199119172955"><ele>965.4000000000001</ele><time>2026-04-29T13:28:06.999Z</time></trkpt><trkpt lat="41.54337881495038" lon="19.902301699491517"><ele>961.2</ele><time>2026-04-29T13:28:07.999Z</time></trkpt><trkpt lat="41.54342369987266" lon="19.90240387081591"><ele>957.0</ele><time>2026-04-29T13:28:08.999Z</time></trkpt><trkpt lat="41.54345699029469" lon="19.902513925447597"><ele>953.8</ele><time>2026-04-29T13:28:09.999Z</time></trkpt><trkpt lat="41.54350393287099" lon="19.90262059498545"><ele>950.6</ele><time>2026-04-29T13:28:10.999Z</time></trkpt><trkpt lat="41.543516330217315" lon="19.90272393870916"><ele>947.3999999999999</ele><time>2026-04-29T13:28:11.999Z</time></trkpt><trkpt lat="41.54355344377283" lon="19.90286742804893"><ele>944.1999999999999</ele><time>2026-04-29T13:28:13.999Z</time></trkpt><trkpt lat="41.54359918957364" lon="19.903023783815584"><ele>941.0</ele><time>2026-04-29T13:28:15.999Z</time></trkpt><trkpt lat="41.54359885224186" lon="19.903137235699422"><ele>941.0</ele><time>2026-04-29T13:28:16.999Z</time></trkpt><trkpt lat="41.54359998484623" lon="19.90330430562009"><ele>940.9999999999999</ele><time>2026-04-29T13:28:18.999Z</time></trkpt><trkpt lat="41.543628681532965" lon="19.903496299534304"><ele>940.9999999999999</ele><time>2026-04-29T13:28:20.999Z</time></trkpt><trkpt lat="41.54364819707054" lon="19.90359833668546"><ele>941.0</ele><time>2026-04-29T13:28:21.999Z</time></trkpt><trkpt lat="41.54367222607234" lon="19.903706914975075"><ele>941.0</ele><time>2026-04-29T13:28:22.999Z</time></trkpt><trkpt lat="41.54370507661229" lon="19.90381591027878"><ele>939.8333333333334</ele><time>2026-04-29T13:28:23.999Z</time></trkpt><trkpt lat="41.54375406070571" lon="19.90392930202549"><ele>938.6666666666667</ele><time>2026-04-29T13:28:24.999Z</time></trkpt><trkpt lat="41.543791658670024" lon="19.90404221776082"><ele>937.5</ele><time>2026-04-29T13:28:25.999Z</time></trkpt><trkpt lat="41.54383591888445" lon="19.90414766957912"><ele>936.3333333333333</ele><time>2026-04-29T13:28:26.999Z</time></trkpt><trkpt lat="41.54387033618176" lon="19.90422494370293"><ele>935.1666666666666</ele><time>2026-04-29T13:28:27.999Z</time></trkpt><trkpt lat="41.54390886514864" lon="19.90430614484246"><ele>934.0</ele><time>2026-04-29T13:28:28.999Z</time></trkpt><trkpt lat="41.54396157237845" lon="19.904381134079532"><ele>933.9999999999999</ele><time>2026-04-29T13:28:29.999Z</time></trkpt><trkpt lat="41.544032461396924" lon="19.904443927546588"><ele>934.0</ele><time>2026-04-29T13:28:30.999Z</time></trkpt><trkpt lat="41.544102816632815" lon="19.904486570910635"><ele>934.0</ele><time>2026-04-29T13:28:31.999Z</time></trkpt><trkpt lat="41.544170488360464" lon="19.904523925477257"><ele>934.0</ele><time>2026-04-29T13:28:32.999Z</time></trkpt><trkpt lat="41.544244789875606" lon="19.90457627344206"><ele>933.9999999999999</ele><time>2026-04-29T13:28:33.999Z</time></trkpt><trkpt lat="41.54432915982003" lon="19.90462754464935"><ele>934.0</ele><time>2026-04-29T13:28:34.999Z</time></trkpt><trkpt lat="41.54440722585262" lon="19.90467498499779"><ele>933.9999999999999</ele><time>2026-04-29T13:28:35.999Z</time></trkpt><trkpt lat="41.54447144589584" lon="19.904692468662898"><ele>934.0</ele><time>2026-04-29T13:28:36.999Z</time></trkpt><trkpt lat="41.544531019446794" lon="19.904756602736928"><ele>934.0</ele><time>2026-04-29T13:28:37.999Z</time></trkpt><trkpt lat="41.54453901563834" lon="19.90487472776343"><ele>934.0</ele><time>2026-04-29T13:28:38.999Z</time></trkpt><trkpt lat="41.54457621200209" lon="19.904946259245538"><ele>933.9999999999999</ele><time>2026-04-29T13:28:39.999Z</time></trkpt><trkpt lat="41.54462164318403" lon="19.905037602224468"><ele>934.0</ele><time>2026-04-29T13:28:40.999Z</time></trkpt><trkpt lat="41.5446260933981" lon="19.905176823956566"><ele>939.1666666666666</ele><time>2026-04-29T13:28:41.999Z</time></trkpt><trkpt lat="41.54463338172425" lon="19.90529842683971"><ele>944.3333333333333</ele><time>2026-04-29T13:28:42.999Z</time></trkpt><trkpt lat="41.54462569628632" lon="19.90542397443995"><ele>949.5</ele><time>2026-04-29T13:28:43.999Z</time></trkpt><trkpt lat="41.54463367917403" lon="19.905517287162482"><ele>954.6666666666667</ele><time>2026-04-29T13:28:44.999Z</time></trkpt><trkpt lat="41.54464506843248" lon="19.905637868517363"><ele>959.8333333333334</ele><time>2026-04-29T13:28:45.999Z</time></trkpt><trkpt lat="41.54465500835148" lon="19.905738091340634"><ele>965.0</ele><time>2026-04-29T13:28:46.999Z</time></trkpt><trkpt lat="41.54468417320341" lon="19.905841644499425"><ele>962.6</ele><time>2026-04-29T13:28:47.999Z</time></trkpt><trkpt lat="41.54474679401364" lon="19.905943995212045"><ele>960.2</ele><time>2026-04-29T13:28:48.999Z</time></trkpt><trkpt lat="41.54477931439358" lon="19.9060610148294"><ele>957.8</ele><time>2026-04-29T13:28:49.999Z</time></trkpt><trkpt lat="41.54482213489001" lon="19.906157561455018"><ele>955.4</ele><time>2026-04-29T13:28:50.999Z</time></trkpt><trkpt lat="41.54480813437504" lon="19.906281648082018"><ele>953.0</ele><time>2026-04-29T13:28:51.999Z</time></trkpt><trkpt lat="41.54482041325193" lon="19.90639141394077"><ele>953.0</ele><time>2026-04-29T13:28:52.999Z</time></trkpt><trkpt lat="41.54483272118663" lon="19.90650927220141"><ele>953.0</ele><time>2026-04-29T13:28:53.999Z</time></trkpt><trkpt lat="41.544823637629996" lon="19.906642918727492"><ele>953.0</ele><time>2026-04-29T13:28:54.999Z</time></trkpt><trkpt lat="41.54481938916066" lon="19.906748208631896"><ele>953.0</ele><time>2026-04-29T13:28:55.999Z</time></trkpt><trkpt lat="41.54482283603598" lon="19.906909761377452"><ele>953.0</ele><time>2026-04-29T13:28:57.999Z</time></trkpt><trkpt lat="41.54482742390773" lon="19.907015155625416"><ele>952.1666666666667</ele><time>2026-04-29T13:28:58.999Z</time></trkpt><trkpt lat="41.544825778244295" lon="19.90711242948788"><ele>951.3333333333334</ele><time>2026-04-29T13:28:59.999Z</time></trkpt><trkpt lat="41.54481509247986" lon="19.9072164457534"><ele>950.5</ele><time>2026-04-29T13:29:00.999Z</time></trkpt><trkpt lat="41.54481225089639" lon="19.907308315739357"><ele>949.6666666666667</ele><time>2026-04-29T13:29:01.999Z</time></trkpt><trkpt lat="41.544795445632815" lon="19.90748233043322"><ele>948.8333333333334</ele><time>2026-04-29T13:29:03.999Z</time></trkpt><trkpt lat="41.544786928455444" lon="19.907600373021022"><ele>948.0</ele><time>2026-04-29T13:29:04.999Z</time></trkpt><trkpt lat="41.54478843664285" lon="19.907718628057506"><ele>947.0</ele><time>2026-04-29T13:29:05.999Z</time></trkpt><trkpt lat="41.54479087666647" lon="19.90787525311438"><ele>946.0</ele><time>2026-04-29T13:29:06.999Z</time></trkpt><trkpt lat="41.54478935979591" lon="19.908043221207194"><ele>945.0</ele><time>2026-04-29T13:29:07.999Z</time></trkpt><trkpt lat="41.544783905944215" lon="19.908201792731855"><ele>944.0</ele><time>2026-04-29T13:29:08.999Z</time></trkpt><trkpt lat="41.54478017989251" lon="19.90835118410986"><ele>940.2</ele><time>2026-04-29T13:29:09.999Z</time></trkpt><trkpt lat="41.544777858231676" lon="19.90848976873128"><ele>936.4000000000001</ele><time>2026-04-29T13:29:10.999Z</time></trkpt><trkpt lat="41.54477568698142" lon="19.908624977583123"><ele>932.6</ele><time>2026-04-29T13:29:11.999Z</time></trkpt><trkpt lat="41.54476551832741" lon="19.908751446083706"><ele>928.8</ele><time>2026-04-29T13:29:12.999Z</time></trkpt><trkpt lat="41.54475245057594" lon="19.90885199261099"><ele>925.0</ele><time>2026-04-29T13:29:13.999Z</time></trkpt><trkpt lat="41.54475787123825" lon="19.908988526337723"><ele>925.0</ele><time>2026-04-29T13:29:15.999Z</time></trkpt><trkpt lat="41.544822533526435" lon="19.90910044623859"><ele>925.0</ele><time>2026-04-29T13:29:17.999Z</time></trkpt><trkpt lat="41.54489295439623" lon="19.90918221908992"><ele>925.0</ele><time>2026-04-29T13:29:18.999Z</time></trkpt><trkpt lat="41.544991530151904" lon="19.909226218252016"><ele>925.0</ele><time>2026-04-29T13:29:19.999Z</time></trkpt><trkpt lat="41.54511116747583" lon="19.909280554315647"><ele>925.0</ele><time>2026-04-29T13:29:20.999Z</time></trkpt><trkpt lat="41.54524365300832" lon="19.909340162034518"><ele>927.3333333333333</ele><time>2026-04-29T13:29:21.999Z</time></trkpt><trkpt lat="41.54534279867991" lon="19.90938520771621"><ele>929.6666666666666</ele><time>2026-04-29T13:29:22.999Z</time></trkpt><trkpt lat="41.54540057902052" lon="19.90943999958777"><ele>932.0</ele><time>2026-04-29T13:29:23.999Z</time></trkpt><trkpt lat="41.54547467689675" lon="19.90949179575707"><ele>934.3333333333333</ele><time>2026-04-29T13:29:24.999Z</time></trkpt><trkpt lat="41.545489811926814" lon="19.90960927563108"><ele>936.6666666666666</ele><time>2026-04-29T13:29:25.999Z</time></trkpt><trkpt lat="41.54548879311335" lon="19.90971273763433"><ele>939.0</ele><time>2026-04-29T13:29:26.999Z</time></trkpt><trkpt lat="41.54552217183609" lon="19.909848623629667"><ele>939.0</ele><time>2026-04-29T13:29:27.999Z</time></trkpt><trkpt lat="41.545566256305584" lon="19.910028092868668"><ele>939.0</ele><time>2026-04-29T13:29:28.999Z</time></trkpt><trkpt lat="41.54560351347237" lon="19.91017941638954"><ele>939.0</ele><time>2026-04-29T13:29:29.999Z</time></trkpt><trkpt lat="41.54563417518829" lon="19.910303394595907"><ele>939.0</ele><time>2026-04-29T13:29:30.999Z</time></trkpt><trkpt lat="41.545663447398034" lon="19.910421754433564"><ele>934.6666666666666</ele><time>2026-04-29T13:29:31.999Z</time></trkpt><trkpt lat="41.54571342354482" lon="19.91054769588634"><ele>930.3333333333333</ele><time>2026-04-29T13:29:32.999Z</time></trkpt><trkpt lat="41.545760955267276" lon="19.9106379531926"><ele>926.0</ele><time>2026-04-29T13:29:33.999Z</time></trkpt><trkpt lat="41.545824059850666" lon="19.910727596813796"><ele>921.6666666666666</ele><time>2026-04-29T13:29:34.999Z</time></trkpt><trkpt lat="41.54590275985043" lon="19.91077923691503"><ele>917.3333333333333</ele><time>2026-04-29T13:29:35.999Z</time></trkpt><trkpt lat="41.545962652798906" lon="19.910823088649074"><ele>913.0</ele><time>2026-04-29T13:29:36.999Z</time></trkpt><trkpt lat="41.546050856282505" lon="19.91083988988422"><ele>913.0</ele><time>2026-04-29T13:29:37.999Z</time></trkpt><trkpt lat="41.54615716132197" lon="19.910798594137102"><ele>913.0</ele><time>2026-04-29T13:29:38.999Z</time></trkpt><trkpt lat="41.54625735833707" lon="19.910775758334953"><ele>913.0</ele><time>2026-04-29T13:29:39.999Z</time></trkpt><trkpt lat="41.546365788577816" lon="19.910752228354934"><ele>913.0</ele><time>2026-04-29T13:29:40.999Z</time></trkpt><trkpt lat="41.546466809782075" lon="19.910721336329015"><ele>913.0</ele><time>2026-04-29T13:29:41.999Z</time></trkpt><trkpt lat="41.54657537703465" lon="19.910736780812957"><ele>914.8</ele><time>2026-04-29T13:29:42.999Z</time></trkpt><trkpt lat="41.546667466261006" lon="19.910803411318973"><ele>916.5999999999999</ele><time>2026-04-29T13:29:43.999Z</time></trkpt><trkpt lat="41.54674179618636" lon="19.910825375844368"><ele>918.4000000000001</ele><time>2026-04-29T13:29:44.999Z</time></trkpt><trkpt lat="41.54681276416656" lon="19.910818151703793"><ele>920.2</ele><time>2026-04-29T13:29:45.999Z</time></trkpt><trkpt lat="41.54692563211799" lon="19.910715294031228"><ele>922.0</ele><time>2026-04-29T13:29:47.999Z</time></trkpt><trkpt lat="41.54696542192212" lon="19.910620014250306"><ele>921.9999999999999</ele><time>2026-04-29T13:29:48.999Z</time></trkpt><trkpt lat="41.54703014331655" lon="19.910558984430686"><ele>922.0</ele><time>2026-04-29T13:29:49.999Z</time></trkpt><trkpt lat="41.547085108449025" lon="19.91048160309522"><ele>922.0</ele><time>2026-04-29T13:29:51Z</time></trkpt><trkpt lat="41.547163171660245" lon="19.91044897221758"><ele>922.0</ele><time>2026-04-29T13:29:52Z</time></trkpt><trkpt lat="41.547228538649804" lon="19.910401360815968"><ele>921.9999999999999</ele><time>2026-04-29T13:29:53Z</time></trkpt><trkpt lat="41.5472921684932" lon="19.91035472969429"><ele>922.0</ele><time>2026-04-29T13:29:54Z</time></trkpt><trkpt lat="41.54735438508996" lon="19.910309091813904"><ele>923.2</ele><time>2026-04-29T13:29:55Z</time></trkpt><trkpt lat="41.54740083519266" lon="19.910200327950726"><ele>924.4000000000001</ele><time>2026-04-29T13:29:56Z</time></trkpt><trkpt lat="41.54748126425973" lon="19.910110891924127"><ele>925.5999999999999</ele><time>2026-04-29T13:29:57Z</time></trkpt><trkpt lat="41.54754470865581" lon="19.91003653961458"><ele>926.8</ele><time>2026-04-29T13:29:58Z</time></trkpt><trkpt lat="41.547612083408815" lon="19.90996375430198"><ele>928.0</ele><time>2026-04-29T13:29:59Z</time></trkpt><trkpt lat="41.54767384060722" lon="19.9098849944881"><ele>928.0</ele><time>2026-04-29T13:30:00Z</time></trkpt><trkpt lat="41.547741919412005" lon="19.909822795458098"><ele>928.0</ele><time>2026-04-29T13:30:01Z</time></trkpt><trkpt lat="41.547805018028384" lon="19.90975741222653"><ele>928.0</ele><time>2026-04-29T13:30:02Z</time></trkpt><trkpt lat="41.5478588624193" lon="19.90970178618868"><ele>928.0</ele><time>2026-04-29T13:30:03Z</time></trkpt><trkpt lat="41.54797372471141" lon="19.9096774725808"><ele>928.0</ele><time>2026-04-29T13:30:05Z</time></trkpt><trkpt lat="41.54809099548317" lon="19.909719362001837"><ele>927.8</ele><time>2026-04-29T13:30:07Z</time></trkpt><trkpt lat="41.54813213922622" lon="19.909790637486417"><ele>927.5999999999999</ele><time>2026-04-29T13:30:08Z</time></trkpt><trkpt lat="41.54815981238076" lon="19.90988583806024"><ele>927.4000000000001</ele><time>2026-04-29T13:30:09Z</time></trkpt><trkpt lat="41.54820809406228" lon="19.909997636457682"><ele>927.2</ele><time>2026-04-29T13:30:10Z</time></trkpt><trkpt lat="41.548266318611326" lon="19.910122625235676"><ele>927.0</ele><time>2026-04-29T13:30:11Z</time></trkpt><trkpt lat="41.54833518754938" lon="19.910258705062194"><ele>919.5</ele><time>2026-04-29T13:30:12Z</time></trkpt><trkpt lat="41.54840962215001" lon="19.91038853934402"><ele>912.0</ele><time>2026-04-29T13:30:13Z</time></trkpt><trkpt lat="41.54847416463892" lon="19.910504953185875"><ele>904.5</ele><time>2026-04-29T13:30:14Z</time></trkpt><trkpt lat="41.54854065305364" lon="19.910606591743925"><ele>897.0</ele><time>2026-04-29T13:30:15Z</time></trkpt><trkpt lat="41.54862826247159" lon="19.91072618371746"><ele>897.2</ele><time>2026-04-29T13:30:16Z</time></trkpt><trkpt lat="41.54871676738969" lon="19.910835107927504"><ele>897.4000000000001</ele><time>2026-04-29T13:30:17Z</time></trkpt><trkpt lat="41.54878896375335" lon="19.91092595001405"><ele>897.5999999999999</ele><time>2026-04-29T13:30:18Z</time></trkpt><trkpt lat="41.54885804898403" lon="19.911023000246445"><ele>897.8</ele><time>2026-04-29T13:30:19Z</time></trkpt><trkpt lat="41.54891552021052" lon="19.911104486136495"><ele>898.0</ele><time>2026-04-29T13:30:20Z</time></trkpt><trkpt lat="41.548970022646756" lon="19.91117478556975"><ele>898.0</ele><time>2026-04-29T13:30:21Z</time></trkpt><trkpt lat="41.549074338386404" lon="19.91125788734642"><ele>898.0</ele><time>2026-04-29T13:30:23Z</time></trkpt><trkpt lat="41.549162134985515" lon="19.911244712318247"><ele>898.0</ele><time>2026-04-29T13:30:24Z</time></trkpt><trkpt lat="41.54925175113049" lon="19.911226575477684"><ele>898.0</ele><time>2026-04-29T13:30:25Z</time></trkpt><trkpt lat="41.54935187419056" lon="19.911198361140357"><ele>898.0</ele><time>2026-04-29T13:30:26Z</time></trkpt><trkpt lat="41.549451202139956" lon="19.911215110490943"><ele>897.9999999999999</ele><time>2026-04-29T13:30:27Z</time></trkpt><trkpt lat="41.54953709342682" lon="19.91123588638784"><ele>898.0</ele><time>2026-04-29T13:30:28Z</time></trkpt><trkpt lat="41.54963475304835" lon="19.911273222667084"><ele>898.0</ele><time>2026-04-29T13:30:29Z</time></trkpt><trkpt lat="41.54972739634587" lon="19.911299480567685"><ele>898.0</ele><time>2026-04-29T13:30:30Z</time></trkpt><trkpt lat="41.54978879532093" lon="19.911349878604714"><ele>897.9999999999999</ele><time>2026-04-29T13:30:31Z</time></trkpt><trkpt lat="41.54986644960172" lon="19.911319258206717"><ele>898.0</ele><time>2026-04-29T13:30:32Z</time></trkpt><trkpt lat="41.54993197022735" lon="19.91127102265862"><ele>897.8</ele><time>2026-04-29T13:30:33Z</time></trkpt><trkpt lat="41.54999837296266" lon="19.91119156926143"><ele>897.5999999999999</ele><time>2026-04-29T13:30:34Z</time></trkpt><trkpt lat="41.550065541865834" lon="19.911093144519956"><ele>897.4000000000001</ele><time>2026-04-29T13:30:35Z</time></trkpt><trkpt lat="41.5501491088402" lon="19.911038311413513"><ele>897.2</ele><time>2026-04-29T13:30:36Z</time></trkpt><trkpt lat="41.55023222036229" lon="19.910971610532847"><ele>897.0</ele><time>2026-04-29T13:30:37Z</time></trkpt><trkpt lat="41.550313342416715" lon="19.91090798695874"><ele>897.4000000000001</ele><time>2026-04-29T13:30:38Z</time></trkpt><trkpt lat="41.55039909325" lon="19.910840476408985"><ele>897.8000000000001</ele><time>2026-04-29T13:30:39Z</time></trkpt><trkpt lat="41.55046736537203" lon="19.910757619205494"><ele>898.2</ele><time>2026-04-29T13:30:40Z</time></trkpt><trkpt lat="41.55052805232373" lon="19.910686299964247"><ele>898.6</ele><time>2026-04-29T13:30:41Z</time></trkpt><trkpt lat="41.55055305369011" lon="19.910561066545704"><ele>899.0</ele><time>2026-04-29T13:30:42Z</time></trkpt><trkpt lat="41.55061228855664" lon="19.910475616315455"><ele>899.0</ele><time>2026-04-29T13:30:42.999Z</time></trkpt><trkpt lat="41.55066861646116" lon="19.910367211800633"><ele>899.0000000000001</ele><time>2026-04-29T13:30:43.999Z</time></trkpt><trkpt lat="41.550718700953766" lon="19.91027103451745"><ele>899.0000000000001</ele><time>2026-04-29T13:30:44.999Z</time></trkpt><trkpt lat="41.55076273598385" lon="19.910186571477976"><ele>899.0</ele><time>2026-04-29T13:30:45.999Z</time></trkpt><trkpt lat="41.55085825609053" lon="19.910104842084486"><ele>899.0</ele><time>2026-04-29T13:30:47.999Z</time></trkpt><trkpt lat="41.55092906308549" lon="19.910067819201448"><ele>899.0</ele><time>2026-04-29T13:30:48.999Z</time></trkpt><trkpt lat="41.55101464234925" lon="19.910092398261494"><ele>899.0000000000001</ele><time>2026-04-29T13:30:49.999Z</time></trkpt><trkpt lat="41.55109852226233" lon="19.910133011832603"><ele>899.0000000000001</ele><time>2026-04-29T13:30:50.999Z</time></trkpt><trkpt lat="41.55119368505704" lon="19.910187238652007"><ele>899.0</ele><time>2026-04-29T13:30:51.999Z</time></trkpt><trkpt lat="41.55129168026888" lon="19.910257168179356"><ele>899.0</ele><time>2026-04-29T13:30:52.999Z</time></trkpt><trkpt lat="41.55136373092893" lon="19.910349553737095"><ele>901.8000000000001</ele><time>2026-04-29T13:30:53.999Z</time></trkpt><trkpt lat="41.551443635559785" lon="19.910419659861546"><ele>904.6000000000001</ele><time>2026-04-29T13:30:54.999Z</time></trkpt><trkpt lat="41.551508473835746" lon="19.91052725018557"><ele>907.4</ele><time>2026-04-29T13:30:55.999Z</time></trkpt><trkpt lat="41.55157838151219" lon="19.910622279540682"><ele>910.2</ele><time>2026-04-29T13:30:56.999Z</time></trkpt><trkpt lat="41.551656056138945" lon="19.910710051887364"><ele>913.0</ele><time>2026-04-29T13:30:57.999Z</time></trkpt><trkpt lat="41.55174830454692" lon="19.910786892856787"><ele>913.0</ele><time>2026-04-29T13:30:58.999Z</time></trkpt><trkpt lat="41.551846524291165" lon="19.910875261865286"><ele>913.0</ele><time>2026-04-29T13:30:59.999Z</time></trkpt><trkpt lat="41.551921280208354" lon="19.91097217299603"><ele>913.0</ele><time>2026-04-29T13:31:00.999Z</time></trkpt><trkpt lat="41.55197133438859" lon="19.91107822613244"><ele>913.0</ele><time>2026-04-29T13:31:01.999Z</time></trkpt><trkpt lat="41.552018159893485" lon="19.91118851708727"><ele>913.0</ele><time>2026-04-29T13:31:02.999Z</time></trkpt><trkpt lat="41.5520603504369" lon="19.91130410978107"><ele>914.5999999999999</ele><time>2026-04-29T13:31:03.999Z</time></trkpt><trkpt lat="41.55211138722794" lon="19.911411953295104"><ele>916.1999999999999</ele><time>2026-04-29T13:31:04.999Z</time></trkpt><trkpt lat="41.55217205588343" lon="19.911521417705515"><ele>917.8</ele><time>2026-04-29T13:31:05.999Z</time></trkpt><trkpt lat="41.55224746635714" lon="19.911613367885973"><ele>919.4</ele><time>2026-04-29T13:31:06.999Z</time></trkpt><trkpt lat="41.55233645035012" lon="19.91170979015882"><ele>921.0</ele><time>2026-04-29T13:31:07.999Z</time></trkpt><trkpt lat="41.55242775413724" lon="19.911818923713085"><ele>916.0</ele><time>2026-04-29T13:31:08.999Z</time></trkpt><trkpt lat="41.55251837966483" lon="19.91192059800448"><ele>910.9999999999999</ele><time>2026-04-29T13:31:09.999Z</time></trkpt><trkpt lat="41.55259581854852" lon="19.912003855334095"><ele>905.9999999999999</ele><time>2026-04-29T13:31:10.999Z</time></trkpt><trkpt lat="41.552673541504305" lon="19.912063295943078"><ele>901.0</ele><time>2026-04-29T13:31:11.999Z</time></trkpt><trkpt lat="41.552774084141696" lon="19.912125819595996"><ele>896.0</ele><time>2026-04-29T13:31:12.999Z</time></trkpt><trkpt lat="41.552850849931794" lon="19.912190225713093"><ele>893.4</ele><time>2026-04-29T13:31:13.999Z</time></trkpt><trkpt lat="41.55291755247983" lon="19.912250679102737"><ele>890.8</ele><time>2026-04-29T13:31:14.999Z</time></trkpt><trkpt lat="41.55299112219439" lon="19.91231454543846"><ele>888.1999999999999</ele><time>2026-04-29T13:31:15.999Z</time></trkpt><trkpt lat="41.55305869273462" lon="19.91241454520945"><ele>885.5999999999999</ele><time>2026-04-29T13:31:16.999Z</time></trkpt><trkpt lat="41.553134039000625" lon="19.91250741884935"><ele>883.0</ele><time>2026-04-29T13:31:17.999Z</time></trkpt><trkpt lat="41.553199951881524" lon="19.912591510650316"><ele>883.0</ele><time>2026-04-29T13:31:18.999Z</time></trkpt><trkpt lat="41.55327850905154" lon="19.912688446733636"><ele>883.0</ele><time>2026-04-29T13:31:19.999Z</time></trkpt><trkpt lat="41.55336181282325" lon="19.912771639489772"><ele>883.0</ele><time>2026-04-29T13:31:20.999Z</time></trkpt><trkpt lat="41.553445855614065" lon="19.912840861796624"><ele>883.0</ele><time>2026-04-29T13:31:21.999Z</time></trkpt><trkpt lat="41.55354478606757" lon="19.912910059762073"><ele>883.0</ele><time>2026-04-29T13:31:22.999Z</time></trkpt><trkpt lat="41.55363243300904" lon="19.912957620293557"><ele>887.0</ele><time>2026-04-29T13:31:23.999Z</time></trkpt><trkpt lat="41.553730017886615" lon="19.9129868050379"><ele>891.0</ele><time>2026-04-29T13:31:24.999Z</time></trkpt><trkpt lat="41.553827506727096" lon="19.913050469281412"><ele>895.0</ele><time>2026-04-29T13:31:25.999Z</time></trkpt><trkpt lat="41.553975098178796" lon="19.913005408826933"><ele>899.0</ele><time>2026-04-29T13:31:26.999Z</time></trkpt><trkpt lat="41.55411060433171" lon="19.913017652850073"><ele>899.0</ele><time>2026-04-29T13:31:27.999Z</time></trkpt><trkpt lat="41.554247457083285" lon="19.9130617176284"><ele>899.0</ele><time>2026-04-29T13:31:28.999Z</time></trkpt><trkpt lat="41.554365457042785" lon="19.913118474767323"><ele>899.0</ele><time>2026-04-29T13:31:29.999Z</time></trkpt><trkpt lat="41.55446867832797" lon="19.91318443936694"><ele>899.0</ele><time>2026-04-29T13:31:30.999Z</time></trkpt><trkpt lat="41.554550334005405" lon="19.91326257935147"><ele>898.4000000000001</ele><time>2026-04-29T13:31:31.999Z</time></trkpt><trkpt lat="41.554638074144684" lon="19.91335288853034"><ele>897.8000000000001</ele><time>2026-04-29T13:31:32.999Z</time></trkpt><trkpt lat="41.55474049169573" lon="19.91343262800813"><ele>897.1999999999999</ele><time>2026-04-29T13:31:33.999Z</time></trkpt><trkpt lat="41.55482714770848" lon="19.91349892762342"><ele>896.5999999999999</ele><time>2026-04-29T13:31:34.999Z</time></trkpt><trkpt lat="41.55489780891194" lon="19.91355706821933"><ele>896.0</ele><time>2026-04-29T13:31:35.999Z</time></trkpt><trkpt lat="41.55494645445377" lon="19.91366810754885"><ele>896.0</ele><time>2026-04-29T13:31:36.999Z</time></trkpt><trkpt lat="41.55502249983348" lon="19.91378117949459"><ele>895.9999999999999</ele><time>2026-04-29T13:31:37.999Z</time></trkpt><trkpt lat="41.555090224391456" lon="19.913921312769578"><ele>895.9999999999999</ele><time>2026-04-29T13:31:38.999Z</time></trkpt><trkpt lat="41.55514936091056" lon="19.914031712758103"><ele>896.0</ele><time>2026-04-29T13:31:39.999Z</time></trkpt><trkpt lat="41.555180088598355" lon="19.914149851768077"><ele>896.0</ele><time>2026-04-29T13:31:40.999Z</time></trkpt><trkpt lat="41.55518596239043" lon="19.914286746607257"><ele>895.5999999999999</ele><time>2026-04-29T13:31:41.999Z</time></trkpt><trkpt lat="41.555169166960056" lon="19.914433802728205"><ele>895.1999999999999</ele><time>2026-04-29T13:31:42.999Z</time></trkpt><trkpt lat="41.55512888927042" lon="19.91459974318193"><ele>894.8000000000001</ele><time>2026-04-29T13:31:43.999Z</time></trkpt><trkpt lat="41.55512761477813" lon="19.91474734394972"><ele>894.4000000000001</ele><time>2026-04-29T13:31:44.999Z</time></trkpt><trkpt lat="41.555111471358195" lon="19.91486764833104"><ele>894.0</ele><time>2026-04-29T13:31:45.999Z</time></trkpt><trkpt lat="41.55510077564282" lon="19.914980196796954"><ele>892.6</ele><time>2026-04-29T13:31:47Z</time></trkpt><trkpt lat="41.55510297794314" lon="19.915118110045224"><ele>891.2</ele><time>2026-04-29T13:31:48Z</time></trkpt><trkpt lat="41.55512432486546" lon="19.91526681953325"><ele>889.8000000000001</ele><time>2026-04-29T13:31:49Z</time></trkpt><trkpt lat="41.55512229861967" lon="19.915395848347504"><ele>888.4000000000001</ele><time>2026-04-29T13:31:50Z</time></trkpt><trkpt lat="41.55510766316398" lon="19.915500821893275"><ele>887.0</ele><time>2026-04-29T13:31:51Z</time></trkpt><trkpt lat="41.55508885951411" lon="19.915619452079955"><ele>887.0</ele><time>2026-04-29T13:31:52Z</time></trkpt><trkpt lat="41.55508425263371" lon="19.915709063279696"><ele>887.0</ele><time>2026-04-29T13:31:53Z</time></trkpt><trkpt lat="41.55508742002542" lon="19.91586900073062"><ele>887.0</ele><time>2026-04-29T13:31:55Z</time></trkpt><trkpt lat="41.55514543782532" lon="19.91596527443984"><ele>887.0</ele><time>2026-04-29T13:31:56Z</time></trkpt><trkpt lat="41.555249953470955" lon="19.916031617537957"><ele>887.0</ele><time>2026-04-29T13:31:57Z</time></trkpt><trkpt lat="41.555334917499955" lon="19.916102803895537"><ele>889.1666666666667</ele><time>2026-04-29T13:31:58Z</time></trkpt><trkpt lat="41.55540544112692" lon="19.916156489475537"><ele>891.3333333333334</ele><time>2026-04-29T13:31:59Z</time></trkpt><trkpt lat="41.555420356264605" lon="19.916275152198967"><ele>893.5</ele><time>2026-04-29T13:32:00Z</time></trkpt><trkpt lat="41.555469897839906" lon="19.91637804025584"><ele>895.6666666666667</ele><time>2026-04-29T13:32:01Z</time></trkpt><trkpt lat="41.55551379824475" lon="19.916469005543643"><ele>897.8333333333334</ele><time>2026-04-29T13:32:02Z</time></trkpt><trkpt lat="41.555548837357044" lon="19.916541610050626"><ele>900.0</ele><time>2026-04-29T13:32:03Z</time></trkpt><trkpt lat="41.55565206380654" lon="19.91656993865642"><ele>900.0</ele><time>2026-04-29T13:32:04Z</time></trkpt><trkpt lat="41.55572392573177" lon="19.916607708011117"><ele>900.0</ele><time>2026-04-29T13:32:05Z</time></trkpt><trkpt lat="41.555815352562874" lon="19.91665572031589"><ele>900.0</ele><time>2026-04-29T13:32:06Z</time></trkpt><trkpt lat="41.55590981043083" lon="19.916705174283774"><ele>900.0</ele><time>2026-04-29T13:32:07Z</time></trkpt><trkpt lat="41.55595043806217" lon="19.916825378280556"><ele>900.0</ele><time>2026-04-29T13:32:08Z</time></trkpt><trkpt lat="41.556025492686835" lon="19.916933363420725"><ele>901.5</ele><time>2026-04-29T13:32:09Z</time></trkpt><trkpt lat="41.55611585247684" lon="19.91705105799914"><ele>903.0</ele><time>2026-04-29T13:32:10Z</time></trkpt><trkpt lat="41.55620537375344" lon="19.91714887558086"><ele>904.5</ele><time>2026-04-29T13:32:11Z</time></trkpt><trkpt lat="41.55629101688324" lon="19.91724225531995"><ele>906.0</ele><time>2026-04-29T13:32:12Z</time></trkpt><trkpt lat="41.55637544885421" lon="19.917333707274906"><ele>906.0</ele><time>2026-04-29T13:32:13Z</time></trkpt><trkpt lat="41.55640887612366" lon="19.91744359617995"><ele>905.9999999999999</ele><time>2026-04-29T13:32:14Z</time></trkpt><trkpt lat="41.556462440177135" lon="19.917559496721292"><ele>905.9999999999999</ele><time>2026-04-29T13:32:15Z</time></trkpt><trkpt lat="41.55652051674542" lon="19.917685730121097"><ele>906.0</ele><time>2026-04-29T13:32:16Z</time></trkpt><trkpt lat="41.55658605428295" lon="19.917813264222914"><ele>906.0</ele><time>2026-04-29T13:32:17Z</time></trkpt><trkpt lat="41.5566444940628" lon="19.91793147253833"><ele>902.4</ele><time>2026-04-29T13:32:18Z</time></trkpt><trkpt lat="41.55669064207882" lon="19.918038305949697"><ele>898.8</ele><time>2026-04-29T13:32:19Z</time></trkpt><trkpt lat="41.55673343586754" lon="19.918129210082313"><ele>895.1999999999999</ele><time>2026-04-29T13:32:20Z</time></trkpt><trkpt lat="41.55669887858332" lon="19.91825858910128"><ele>891.5999999999999</ele><time>2026-04-29T13:32:21Z</time></trkpt><trkpt lat="41.55669954538921" lon="19.918382911876236"><ele>888.0</ele><time>2026-04-29T13:32:22Z</time></trkpt><trkpt lat="41.55670057672707" lon="19.918493588293156"><ele>882.0</ele><time>2026-04-29T13:32:23Z</time></trkpt><trkpt lat="41.55670498775048" lon="19.91859315665295"><ele>876.0</ele><time>2026-04-29T13:32:24Z</time></trkpt><trkpt lat="41.55677130084876" lon="19.918781768749177"><ele>870.0</ele><time>2026-04-29T13:32:26Z</time></trkpt><trkpt lat="41.55686698613373" lon="19.918845492072073"><ele>864.0</ele><time>2026-04-29T13:32:27Z</time></trkpt><trkpt lat="41.55699829390641" lon="19.918853158090865"><ele>873.75</ele><time>2026-04-29T13:32:28Z</time></trkpt><trkpt lat="41.5570912069673" lon="19.918870450596582"><ele>883.5</ele><time>2026-04-29T13:32:29Z</time></trkpt><trkpt lat="41.557191207613585" lon="19.918948714167843"><ele>893.25</ele><time>2026-04-29T13:32:30Z</time></trkpt><trkpt lat="41.55727548052802" lon="19.919058118141105"><ele>903.0</ele><time>2026-04-29T13:32:31Z</time></trkpt><trkpt lat="41.55736155498886" lon="19.919177065953264"><ele>898.2</ele><time>2026-04-29T13:32:32Z</time></trkpt><trkpt lat="41.5573949180288" lon="19.91932651254072"><ele>893.4</ele><time>2026-04-29T13:32:33Z</time></trkpt><trkpt lat="41.55744829034649" lon="19.919473352467747"><ele>888.6000000000001</ele><time>2026-04-29T13:32:34Z</time></trkpt><trkpt lat="41.557488355152636" lon="19.919582509537296"><ele>883.8000000000001</ele><time>2026-04-29T13:32:35Z</time></trkpt><trkpt lat="41.557531186417506" lon="19.919699049565978"><ele>879.0</ele><time>2026-04-29T13:32:36Z</time></trkpt><trkpt lat="41.55764923068167" lon="19.91979705287842"><ele>879.0</ele><time>2026-04-29T13:32:37Z</time></trkpt><trkpt lat="41.557740929742415" lon="19.91990077420443"><ele>879.0000000000001</ele><time>2026-04-29T13:32:38Z</time></trkpt><trkpt lat="41.55780713860688" lon="19.91999607027699"><ele>879.0000000000001</ele><time>2026-04-29T13:32:39Z</time></trkpt><trkpt lat="41.55786917071463" lon="19.920117546515947"><ele>879.0</ele><time>2026-04-29T13:32:40Z</time></trkpt><trkpt lat="41.557889356377935" lon="19.920248606266515"><ele>879.0</ele><time>2026-04-29T13:32:41Z</time></trkpt><trkpt lat="41.55791787578644" lon="19.92039860993767"><ele>885.6</ele><time>2026-04-29T13:32:42Z</time></trkpt><trkpt lat="41.55793961619705" lon="19.9205330279285"><ele>892.2</ele><time>2026-04-29T13:32:43Z</time></trkpt><trkpt lat="41.55795178547942" lon="19.920664010402117"><ele>898.8000000000001</ele><time>2026-04-29T13:32:44Z</time></trkpt><trkpt lat="41.55796524308344" lon="19.92080500267139"><ele>905.4000000000001</ele><time>2026-04-29T13:32:45Z</time></trkpt><trkpt lat="41.557975657428535" lon="19.920929411781"><ele>912.0</ele><time>2026-04-29T13:32:46Z</time></trkpt><trkpt lat="41.55793565474142" lon="19.921061783794535"><ele>913.5</ele><time>2026-04-29T13:32:47Z</time></trkpt><trkpt lat="41.5579276161982" lon="19.921203188424556"><ele>915.0</ele><time>2026-04-29T13:32:48Z</time></trkpt><trkpt lat="41.55783346192216" lon="19.921290398429978"><ele>916.5</ele><time>2026-04-29T13:32:49Z</time></trkpt><trkpt lat="41.55775784690015" lon="19.921427101810394"><ele>918.0</ele><time>2026-04-29T13:32:50Z</time></trkpt><trkpt lat="41.557703167182545" lon="19.921557254933617"><ele>910.8333333333334</ele><time>2026-04-29T13:32:51Z</time></trkpt><trkpt lat="41.55764177980866" lon="19.921648540680533"><ele>903.6666666666667</ele><time>2026-04-29T13:32:52Z</time></trkpt><trkpt lat="41.55758747286119" lon="19.921725786936847"><ele>896.5</ele><time>2026-04-29T13:32:53Z</time></trkpt><trkpt lat="41.55753912353987" lon="19.921789109584946"><ele>889.3333333333334</ele><time>2026-04-29T13:32:54Z</time></trkpt><trkpt lat="41.55749939426392" lon="19.92186936508064"><ele>882.1666666666667</ele><time>2026-04-29T13:32:55Z</time></trkpt><trkpt lat="41.55748105963856" lon="19.921966061221845"><ele>875.0</ele><time>2026-04-29T13:32:56Z</time></trkpt><trkpt lat="41.557442467346" lon="19.922047737916643"><ele>875.0</ele><time>2026-04-29T13:32:57Z</time></trkpt><trkpt lat="41.557464094407045" lon="19.922213491806115"><ele>875.0</ele><time>2026-04-29T13:32:58Z</time></trkpt><trkpt lat="41.55751256939161" lon="19.922348950176588"><ele>875.0</ele><time>2026-04-29T13:32:59Z</time></trkpt><trkpt lat="41.55758816832567" lon="19.92247628451374"><ele>875.0</ele><time>2026-04-29T13:33:00Z</time></trkpt><trkpt lat="41.55763319718074" lon="19.922552744560196"><ele>875.0</ele><time>2026-04-29T13:33:01Z</time></trkpt><trkpt lat="41.55772980725789" lon="19.922579975112562"><ele>876.8333333333334</ele><time>2026-04-29T13:33:02Z</time></trkpt><trkpt lat="41.55781553165958" lon="19.92260843453832"><ele>878.6666666666667</ele><time>2026-04-29T13:33:03Z</time></trkpt><trkpt lat="41.55790662703749" lon="19.922603433301852"><ele>880.5</ele><time>2026-04-29T13:33:04Z</time></trkpt><trkpt lat="41.55797064626693" lon="19.922624375764688"><ele>882.3333333333333</ele><time>2026-04-29T13:33:05Z</time></trkpt><trkpt lat="41.55805931558302" lon="19.922653263988952"><ele>884.1666666666666</ele><time>2026-04-29T13:33:06Z</time></trkpt><trkpt lat="41.55809596814847" lon="19.92277494686308"><ele>886.0</ele><time>2026-04-29T13:33:07Z</time></trkpt><trkpt lat="41.55812403367309" lon="19.922909019634393"><ele>886.0</ele><time>2026-04-29T13:33:08Z</time></trkpt><trkpt lat="41.55816572260602" lon="19.923055982135523"><ele>885.9999999999999</ele><time>2026-04-29T13:33:09Z</time></trkpt><trkpt lat="41.55823727013553" lon="19.923174634289538"><ele>885.9999999999999</ele><time>2026-04-29T13:33:10Z</time></trkpt><trkpt lat="41.55828623977441" lon="19.923267227318092"><ele>886.0</ele><time>2026-04-29T13:33:11Z</time></trkpt><trkpt lat="41.558365022957304" lon="19.92336498931941"><ele>886.0</ele><time>2026-04-29T13:33:12Z</time></trkpt><trkpt lat="41.55845251771979" lon="19.92346607620021"><ele>887.5999999999999</ele><time>2026-04-29T13:33:13Z</time></trkpt><trkpt lat="41.55853288502149" lon="19.923606140926214"><ele>889.1999999999999</ele><time>2026-04-29T13:33:14Z</time></trkpt><trkpt lat="41.55861032447464" lon="19.923714413238418"><ele>890.8000000000001</ele><time>2026-04-29T13:33:15Z</time></trkpt><trkpt lat="41.55867046990299" lon="19.923799635245068"><ele>892.4000000000001</ele><time>2026-04-29T13:33:16Z</time></trkpt><trkpt lat="41.558670415074474" lon="19.92391170961907"><ele>894.0</ele><time>2026-04-29T13:33:17Z</time></trkpt><trkpt lat="41.558704778933425" lon="19.92402036677596"><ele>889.8333333333334</ele><time>2026-04-29T13:33:18Z</time></trkpt><trkpt lat="41.55866310490557" lon="19.92412583945957"><ele>885.6666666666667</ele><time>2026-04-29T13:33:19Z</time></trkpt><trkpt lat="41.5586310245457" lon="19.924243023351938"><ele>881.5</ele><time>2026-04-29T13:33:20Z</time></trkpt><trkpt lat="41.55860956992051" lon="19.924342598296636"><ele>877.3333333333334</ele><time>2026-04-29T13:33:21Z</time></trkpt><trkpt lat="41.558589516545766" lon="19.924435669780657"><ele>873.1666666666667</ele><time>2026-04-29T13:33:22Z</time></trkpt><trkpt lat="41.558597641680095" lon="19.924558990078268"><ele>869.0</ele><time>2026-04-29T13:33:23Z</time></trkpt><trkpt lat="41.55861947698535" lon="19.924658417301618"><ele>870.8000000000001</ele><time>2026-04-29T13:33:24Z</time></trkpt><trkpt lat="41.558660623899854" lon="19.924779466845784"><ele>872.6000000000001</ele><time>2026-04-29T13:33:25Z</time></trkpt><trkpt lat="41.55873869539339" lon="19.924891510009676"><ele>874.4</ele><time>2026-04-29T13:33:26Z</time></trkpt><trkpt lat="41.55880292981795" lon="19.924944217532417"><ele>876.2</ele><time>2026-04-29T13:33:27Z</time></trkpt><trkpt lat="41.558861773805866" lon="19.924993123459135"><ele>878.0</ele><time>2026-04-29T13:33:28Z</time></trkpt><trkpt lat="41.55899931055099" lon="19.92491358547178"><ele>878.0</ele><time>2026-04-29T13:33:29Z</time></trkpt><trkpt lat="41.559078875916775" lon="19.92489192230153"><ele>878.0</ele><time>2026-04-29T13:33:30Z</time></trkpt><trkpt lat="41.5591663826031" lon="19.924864904931777"><ele>878.0</ele><time>2026-04-29T13:33:31Z</time></trkpt><trkpt lat="41.55923868433675" lon="19.924970665426688"><ele>878.0</ele><time>2026-04-29T13:33:32Z</time></trkpt><trkpt lat="41.559332009208426" lon="19.92505520539725"><ele>878.0</ele><time>2026-04-29T13:33:33Z</time></trkpt><trkpt lat="41.559430691499735" lon="19.9251445985531"><ele>875.8</ele><time>2026-04-29T13:33:34Z</time></trkpt><trkpt lat="41.55953178169445" lon="19.925236792866503"><ele>873.5999999999999</ele><time>2026-04-29T13:33:35Z</time></trkpt><trkpt lat="41.559623281116636" lon="19.925326198350685"><ele>871.4000000000001</ele><time>2026-04-29T13:33:36Z</time></trkpt><trkpt lat="41.55970167934045" lon="19.925402131265425"><ele>869.2</ele><time>2026-04-29T13:33:37Z</time></trkpt><trkpt lat="41.55976108938484" lon="19.9254956811161"><ele>867.0</ele><time>2026-04-29T13:33:38Z</time></trkpt><trkpt lat="41.559834879225704" lon="19.925606628949335"><ele>867.0</ele><time>2026-04-29T13:33:39Z</time></trkpt><trkpt lat="41.559878165755755" lon="19.925738536766083"><ele>867.0</ele><time>2026-04-29T13:33:39.999Z</time></trkpt><trkpt lat="41.55991180192928" lon="19.925873918186987"><ele>867.0</ele><time>2026-04-29T13:33:40.999Z</time></trkpt><trkpt lat="41.55994768732169" lon="19.925993138918834"><ele>867.0</ele><time>2026-04-29T13:33:41.999Z</time></trkpt><trkpt lat="41.559985965823884" lon="19.926098542453126"><ele>867.0</ele><time>2026-04-29T13:33:42.999Z</time></trkpt><trkpt lat="41.5600240463182" lon="19.926204248633564"><ele>867.4000000000001</ele><time>2026-04-29T13:33:43.999Z</time></trkpt><trkpt lat="41.560064934062325" lon="19.926299808601943"><ele>867.8000000000001</ele><time>2026-04-29T13:33:44.999Z</time></trkpt><trkpt lat="41.56010697357394" lon="19.926391839863154"><ele>868.2</ele><time>2026-04-29T13:33:45.999Z</time></trkpt><trkpt lat="41.56015195819478" lon="19.926489289143152"><ele>868.6</ele><time>2026-04-29T13:33:46.999Z</time></trkpt><trkpt lat="41.56028668970917" lon="19.92657645026787"><ele>869.0</ele><time>2026-04-29T13:33:47.999Z</time></trkpt><trkpt lat="41.56040084949871" lon="19.926636029829204"><ele>869.0000000000001</ele><time>2026-04-29T13:33:48.999Z</time></trkpt><trkpt lat="41.560484944493254" lon="19.92668622841432"><ele>869.0</ele><time>2026-04-29T13:33:49.999Z</time></trkpt><trkpt lat="41.56055634384833" lon="19.926728848654477"><ele>869.0</ele><time>2026-04-29T13:33:50.999Z</time></trkpt><trkpt lat="41.56063165039346" lon="19.926773801169425"><ele>869.0</ele><time>2026-04-29T13:33:51.999Z</time></trkpt><trkpt lat="41.56071381846115" lon="19.92682284961736"><ele>869.0000000000001</ele><time>2026-04-29T13:33:53Z</time></trkpt><trkpt lat="41.56080737967947" lon="19.92684068284833"><ele>869.0</ele><time>2026-04-29T13:33:54Z</time></trkpt><trkpt lat="41.56090465424553" lon="19.926882491081514"><ele>867.1666666666667</ele><time>2026-04-29T13:33:55Z</time></trkpt><trkpt lat="41.56099312297425" lon="19.92690381097581"><ele>865.3333333333334</ele><time>2026-04-29T13:33:56Z</time></trkpt><trkpt lat="41.561066966315856" lon="19.926954569878355"><ele>863.5</ele><time>2026-04-29T13:33:57Z</time></trkpt><trkpt lat="41.56113340263476" lon="19.92698053436889"><ele>861.6666666666667</ele><time>2026-04-29T13:33:58Z</time></trkpt><trkpt lat="41.56120232013053" lon="19.927007468519896"><ele>859.8333333333334</ele><time>2026-04-29T13:33:59Z</time></trkpt><trkpt lat="41.56129400174878" lon="19.92707119015907"><ele>858.0</ele><time>2026-04-29T13:34:01Z</time></trkpt><trkpt lat="41.56132839972466" lon="19.927187543029223"><ele>857.4</ele><time>2026-04-29T13:34:03Z</time></trkpt><trkpt lat="41.56132987303977" lon="19.92728848582307"><ele>856.8</ele><time>2026-04-29T13:34:04Z</time></trkpt><trkpt lat="41.561370119961566" lon="19.92740962075954"><ele>856.2</ele><time>2026-04-29T13:34:05Z</time></trkpt><trkpt lat="41.56141585076824" lon="19.927526670174217"><ele>855.6</ele><time>2026-04-29T13:34:06Z</time></trkpt><trkpt lat="41.56146889242456" lon="19.927640252221156"><ele>855.0</ele><time>2026-04-29T13:34:07Z</time></trkpt><trkpt lat="41.561520119611565" lon="19.927750139936773"><ele>855.0</ele><time>2026-04-29T13:34:08Z</time></trkpt><trkpt lat="41.56155455192738" lon="19.92784795505486"><ele>855.0</ele><time>2026-04-29T13:34:09Z</time></trkpt><trkpt lat="41.56158646008332" lon="19.927951338807254"><ele>855.0</ele><time>2026-04-29T13:34:10Z</time></trkpt><trkpt lat="41.56161958212358" lon="19.928057908607023"><ele>855.0</ele><time>2026-04-29T13:34:11Z</time></trkpt><trkpt lat="41.561682563767505" lon="19.928174746300286"><ele>855.0</ele><time>2026-04-29T13:34:12Z</time></trkpt><trkpt lat="41.56171611670866" lon="19.928276184313496"><ele>855.0</ele><time>2026-04-29T13:34:13Z</time></trkpt><trkpt lat="41.561751004977296" lon="19.928382154832185"><ele>856.2</ele><time>2026-04-29T13:34:14Z</time></trkpt><trkpt lat="41.56174120068649" lon="19.928503826979885"><ele>857.4</ele><time>2026-04-29T13:34:15Z</time></trkpt><trkpt lat="41.56174248043893" lon="19.928637273355378"><ele>858.5999999999999</ele><time>2026-04-29T13:34:16Z</time></trkpt><trkpt lat="41.56174377915217" lon="19.92877269659716"><ele>859.8</ele><time>2026-04-29T13:34:17Z</time></trkpt><trkpt lat="41.56174499976153" lon="19.928902438104792"><ele>861.0</ele><time>2026-04-29T13:34:18Z</time></trkpt><trkpt lat="41.5617538882582" lon="19.92903812603119"><ele>861.0</ele><time>2026-04-29T13:34:19Z</time></trkpt><trkpt lat="41.56177646765556" lon="19.929172255017193"><ele>861.0</ele><time>2026-04-29T13:34:20Z</time></trkpt><trkpt lat="41.561833411497446" lon="19.929299410159707"><ele>861.0</ele><time>2026-04-29T13:34:21Z</time></trkpt><trkpt lat="41.56187141050701" lon="19.92938789925387"><ele>861.0</ele><time>2026-04-29T13:34:22Z</time></trkpt><trkpt lat="41.561943378663514" lon="19.92945474870745"><ele>861.0</ele><time>2026-04-29T13:34:23Z</time></trkpt><trkpt lat="41.562008339030356" lon="19.929485513181096"><ele>861.0</ele><time>2026-04-29T13:34:24Z</time></trkpt><trkpt lat="41.56208319777854" lon="19.929574640638588"><ele>861.8</ele><time>2026-04-29T13:34:25Z</time></trkpt><trkpt lat="41.562184603584676" lon="19.929574252501013"><ele>862.5999999999999</ele><time>2026-04-29T13:34:26Z</time></trkpt><trkpt lat="41.56227584398274" lon="19.929575234688844"><ele>863.4</ele><time>2026-04-29T13:34:27Z</time></trkpt><trkpt lat="41.562377634133284" lon="19.92959072542597"><ele>864.2</ele><time>2026-04-29T13:34:28Z</time></trkpt><trkpt lat="41.56249005522202" lon="19.929615864615027"><ele>865.0</ele><time>2026-04-29T13:34:29Z</time></trkpt><trkpt lat="41.5626196866518" lon="19.929641116615226"><ele>865.0</ele><time>2026-04-29T13:34:30Z</time></trkpt><trkpt lat="41.5627473313322" lon="19.92969178033647"><ele>865.0</ele><time>2026-04-29T13:34:31Z</time></trkpt><trkpt lat="41.5628544291128" lon="19.929720958202125"><ele>865.0</ele><time>2026-04-29T13:34:32Z</time></trkpt><trkpt lat="41.56294639786436" lon="19.929749871538245"><ele>865.0</ele><time>2026-04-29T13:34:33Z</time></trkpt><trkpt lat="41.56304403484128" lon="19.929782315278235"><ele>865.0</ele><time>2026-04-29T13:34:34Z</time></trkpt><trkpt lat="41.56314047888328" lon="19.929820566175255"><ele>864.2</ele><time>2026-04-29T13:34:35Z</time></trkpt><trkpt lat="41.56323739896566" lon="19.929861867455063"><ele>863.4</ele><time>2026-04-29T13:34:36Z</time></trkpt><trkpt lat="41.56332842733924" lon="19.929898192415976"><ele>862.5999999999999</ele><time>2026-04-29T13:34:37Z</time></trkpt><trkpt lat="41.56342732268473" lon="19.929935552541235"><ele>861.8</ele><time>2026-04-29T13:34:38Z</time></trkpt><trkpt lat="41.563523738648634" lon="19.92996461241665"><ele>861.0</ele><time>2026-04-29T13:34:39Z</time></trkpt><trkpt lat="41.56360607683884" lon="19.92999563751985"><ele>861.0</ele><time>2026-04-29T13:34:40Z</time></trkpt><trkpt lat="41.5636782376663" lon="19.930016887662497"><ele>861.0</ele><time>2026-04-29T13:34:41Z</time></trkpt><trkpt lat="41.5637516358002" lon="19.930013403462567"><ele>861.0</ele><time>2026-04-29T13:34:42Z</time></trkpt><trkpt lat="41.56383176027774" lon="19.929989500300575"><ele>861.0</ele><time>2026-04-29T13:34:43Z</time></trkpt><trkpt lat="41.56388968903892" lon="19.929951375784917"><ele>861.0</ele><time>2026-04-29T13:34:44Z</time></trkpt><trkpt lat="41.56394188403972" lon="19.929878636964247"><ele>861.0</ele><time>2026-04-29T13:34:45Z</time></trkpt><trkpt lat="41.563995937457854" lon="19.92978930049005"><ele>859.0</ele><time>2026-04-29T13:34:46Z</time></trkpt><trkpt lat="41.56403535219695" lon="19.929666298230234"><ele>857.0</ele><time>2026-04-29T13:34:47Z</time></trkpt><trkpt lat="41.56402413215627" lon="19.92953919715645"><ele>855.0</ele><time>2026-04-29T13:34:48Z</time></trkpt><trkpt lat="41.56402222561243" lon="19.92942245063216"><ele>853.0</ele><time>2026-04-29T13:34:49Z</time></trkpt><trkpt lat="41.56402282550371" lon="19.929318851038655"><ele>851.0</ele><time>2026-04-29T13:34:50Z</time></trkpt><trkpt lat="41.564061904634464" lon="19.92923983028827"><ele>849.0</ele><time>2026-04-29T13:34:51Z</time></trkpt><trkpt lat="41.564142966705084" lon="19.9290941154049"><ele>847.8333333333334</ele><time>2026-04-29T13:34:53Z</time></trkpt><trkpt lat="41.564211971430495" lon="19.92902708056722"><ele>846.6666666666667</ele><time>2026-04-29T13:34:54Z</time></trkpt><trkpt lat="41.564276179679865" lon="19.928999195570036"><ele>845.5</ele><time>2026-04-29T13:34:55Z</time></trkpt><trkpt lat="41.56434859250582" lon="19.928966000392215"><ele>844.3333333333334</ele><time>2026-04-29T13:34:56Z</time></trkpt><trkpt lat="41.56443147319199" lon="19.928878563314306"><ele>843.1666666666667</ele><time>2026-04-29T13:34:58Z</time></trkpt><trkpt lat="41.56443985209289" lon="19.928759916341015"><ele>842.0</ele><time>2026-04-29T13:34:59Z</time></trkpt><trkpt lat="41.56441234580003" lon="19.928637717749442"><ele>842.0</ele><time>2026-04-29T13:35:00Z</time></trkpt><trkpt lat="41.56437297602995" lon="19.928505669352298"><ele>842.0</ele><time>2026-04-29T13:35:01Z</time></trkpt><trkpt lat="41.56432499073599" lon="19.92835635663646"><ele>842.0</ele><time>2026-04-29T13:35:02Z</time></trkpt><trkpt lat="41.56428798507519" lon="19.928241781778326"><ele>842.0</ele><time>2026-04-29T13:35:03Z</time></trkpt><trkpt lat="41.564262008251056" lon="19.928143817687182"><ele>842.0</ele><time>2026-04-29T13:35:04Z</time></trkpt><trkpt lat="41.56424017284844" lon="19.92805121253048"><ele>840.2</ele><time>2026-04-29T13:35:05Z</time></trkpt><trkpt lat="41.564243032366136" lon="19.92795237505443"><ele>838.4000000000001</ele><time>2026-04-29T13:35:06Z</time></trkpt><trkpt lat="41.5642763396508" lon="19.927864627783585"><ele>836.5999999999999</ele><time>2026-04-29T13:35:07Z</time></trkpt><trkpt lat="41.56436200077662" lon="19.927831871084848"><ele>834.8</ele><time>2026-04-29T13:35:08Z</time></trkpt><trkpt lat="41.56446065367123" lon="19.927838622122568"><ele>833.0</ele><time>2026-04-29T13:35:10Z</time></trkpt><trkpt lat="41.56460517023671" lon="19.92788892198354"><ele>833.0</ele><time>2026-04-29T13:35:12Z</time></trkpt><trkpt lat="41.56472950898101" lon="19.92792057855751"><ele>833.0</ele><time>2026-04-29T13:35:13Z</time></trkpt><trkpt lat="41.564835025686456" lon="19.927945326800643"><ele>833.0</ele><time>2026-04-29T13:35:14Z</time></trkpt><trkpt lat="41.56493293385029" lon="19.927967976686986"><ele>833.0</ele><time>2026-04-29T13:35:15Z</time></trkpt><trkpt lat="41.56501106057427" lon="19.92798605037066"><ele>833.0</ele><time>2026-04-29T13:35:16Z</time></trkpt><trkpt lat="41.56510027470942" lon="19.927988371118722"><ele>833.0000000000001</ele><time>2026-04-29T13:35:17Z</time></trkpt><trkpt lat="41.56517244183743" lon="19.928060780574004"><ele>833.0</ele><time>2026-04-29T13:35:18Z</time></trkpt><trkpt lat="41.56525041652793" lon="19.928109420600418"><ele>833.0</ele><time>2026-04-29T13:35:19Z</time></trkpt><trkpt lat="41.565316524223604" lon="19.928176201928917"><ele>833.0</ele><time>2026-04-29T13:35:20Z</time></trkpt><trkpt lat="41.56540139756942" lon="19.928236862101034"><ele>833.0000000000001</ele><time>2026-04-29T13:35:21Z</time></trkpt><trkpt lat="41.56546435919807" lon="19.92832688733862"><ele>833.0</ele><time>2026-04-29T13:35:22Z</time></trkpt><trkpt lat="41.565514445802016" lon="19.928393626248443"><ele>832.1666666666667</ele><time>2026-04-29T13:35:23Z</time></trkpt><trkpt lat="41.565574855280694" lon="19.92845626799193"><ele>831.3333333333334</ele><time>2026-04-29T13:35:24Z</time></trkpt><trkpt lat="41.565637651774914" lon="19.928496310432006"><ele>830.5</ele><time>2026-04-29T13:35:25Z</time></trkpt><trkpt lat="41.5657031891093" lon="19.928519931466024"><ele>829.6666666666667</ele><time>2026-04-29T13:35:26Z</time></trkpt><trkpt lat="41.56576944902956" lon="19.928511093680918"><ele>828.8333333333334</ele><time>2026-04-29T13:35:27Z</time></trkpt><trkpt lat="41.565875366886395" lon="19.928485083126976"><ele>828.0</ele><time>2026-04-29T13:35:28Z</time></trkpt><trkpt lat="41.56596120461094" lon="19.928484952137406"><ele>828.0</ele><time>2026-04-29T13:35:29Z</time></trkpt><trkpt lat="41.56603308510493" lon="19.92846407179754"><ele>828.0</ele><time>2026-04-29T13:35:30Z</time></trkpt><trkpt lat="41.56611055899845" lon="19.92848384562231"><ele>828.0</ele><time>2026-04-29T13:35:31Z</time></trkpt><trkpt lat="41.56619462028685" lon="19.92852423364656"><ele>828.0</ele><time>2026-04-29T13:35:32Z</time></trkpt><trkpt lat="41.56625636928702" lon="19.928575383587443"><ele>828.0</ele><time>2026-04-29T13:35:33Z</time></trkpt><trkpt lat="41.56637527407872" lon="19.928660173209366"><ele>828.0</ele><time>2026-04-29T13:35:35Z</time></trkpt><trkpt lat="41.56643814026577" lon="19.928709244906425"><ele>824.2</ele><time>2026-04-29T13:35:36Z</time></trkpt><trkpt lat="41.566555860534955" lon="19.928801631104502"><ele>820.4</ele><time>2026-04-29T13:35:38Z</time></trkpt><trkpt lat="41.56662469249097" lon="19.928853530614983"><ele>816.6</ele><time>2026-04-29T13:35:39Z</time></trkpt><trkpt lat="41.56669940282027" lon="19.928964229079263"><ele>812.8000000000001</ele><time>2026-04-29T13:35:41Z</time></trkpt><trkpt lat="41.5667267748827" lon="19.929052350467217"><ele>809.0</ele><time>2026-04-29T13:35:42Z</time></trkpt><trkpt lat="41.56672390652218" lon="19.929186236993907"><ele>810.1666666666667</ele><time>2026-04-29T13:35:43Z</time></trkpt><trkpt lat="41.56674915685673" lon="19.9293154576845"><ele>811.3333333333334</ele><time>2026-04-29T13:35:44Z</time></trkpt><trkpt lat="41.566748502108396" lon="19.929406425947167"><ele>812.5</ele><time>2026-04-29T13:35:45Z</time></trkpt><trkpt lat="41.566746757628806" lon="19.929528178045008"><ele>813.6666666666667</ele><time>2026-04-29T13:35:46Z</time></trkpt><trkpt lat="41.566751367926344" lon="19.929627798841707"><ele>814.8333333333334</ele><time>2026-04-29T13:35:47Z</time></trkpt><trkpt lat="41.5667632810863" lon="19.929719970985385"><ele>816.0</ele><time>2026-04-29T13:35:48Z</time></trkpt><trkpt lat="41.56677945796534" lon="19.92982174148149"><ele>816.0</ele><time>2026-04-29T13:35:49Z</time></trkpt><trkpt lat="41.566797964221806" lon="19.92991957706914"><ele>816.0</ele><time>2026-04-29T13:35:50Z</time></trkpt><trkpt lat="41.56680600681437" lon="19.930022969292175"><ele>816.0</ele><time>2026-04-29T13:35:51Z</time></trkpt><trkpt lat="41.566875872763845" lon="19.93008887358865"><ele>816.0</ele><time>2026-04-29T13:35:52Z</time></trkpt><trkpt lat="41.566916181866844" lon="19.930173342478735"><ele>816.0</ele><time>2026-04-29T13:35:53Z</time></trkpt><trkpt lat="41.566993557921386" lon="19.930233573289467"><ele>816.0</ele><time>2026-04-29T13:35:54Z</time></trkpt><trkpt lat="41.56708861601253" lon="19.9303018592705"><ele>809.4</ele><time>2026-04-29T13:35:55Z</time></trkpt><trkpt lat="41.567189837053846" lon="19.930353489779616"><ele>802.8</ele><time>2026-04-29T13:35:56Z</time></trkpt><trkpt lat="41.56726359552648" lon="19.930415496809374"><ele>796.1999999999999</ele><time>2026-04-29T13:35:57Z</time></trkpt><trkpt lat="41.567328141962555" lon="19.93045294405844"><ele>789.5999999999999</ele><time>2026-04-29T13:35:58Z</time></trkpt><trkpt lat="41.56743497381435" lon="19.93051467688609"><ele>783.0</ele><time>2026-04-29T13:36:00Z</time></trkpt><trkpt lat="41.56751810935264" lon="19.930557523749986"><ele>783.0</ele><time>2026-04-29T13:36:02Z</time></trkpt><trkpt lat="41.56755972660805" lon="19.93064954443174"><ele>783.0</ele><time>2026-04-29T13:36:05Z</time></trkpt><trkpt lat="41.56753011780177" lon="19.930812742355158"><ele>783.0</ele><time>2026-04-29T13:36:08Z</time></trkpt><trkpt lat="41.56746938198081" lon="19.93089745059032"><ele>783.0</ele><time>2026-04-29T13:36:09Z</time></trkpt><trkpt lat="41.567407957995" lon="19.93099435997388"><ele>783.0</ele><time>2026-04-29T13:36:10Z</time></trkpt><trkpt lat="41.56735056156062" lon="19.931096754153472"><ele>782.3333333333334</ele><time>2026-04-29T13:36:11Z</time></trkpt><trkpt lat="41.567299904808344" lon="19.931202609498637"><ele>781.6666666666667</ele><time>2026-04-29T13:36:12Z</time></trkpt><trkpt lat="41.56725492229615" lon="19.931284095511653"><ele>781.0</ele><time>2026-04-29T13:36:13Z</time></trkpt><trkpt lat="41.56718765659339" lon="19.931377556134493"><ele>780.3333333333334</ele><time>2026-04-29T13:36:14Z</time></trkpt><trkpt lat="41.56716497492478" lon="19.931492798870003"><ele>779.6666666666667</ele><time>2026-04-29T13:36:15Z</time></trkpt><trkpt lat="41.56714554036761" lon="19.931603088658605"><ele>779.0</ele><time>2026-04-29T13:36:16Z</time></trkpt><trkpt lat="41.56716124010685" lon="19.931725055689427"><ele>782.2</ele><time>2026-04-29T13:36:17Z</time></trkpt><trkpt lat="41.56715448933688" lon="19.931838948236493"><ele>785.4000000000001</ele><time>2026-04-29T13:36:18Z</time></trkpt><trkpt lat="41.56720261192083" lon="19.93191590418104"><ele>788.6</ele><time>2026-04-29T13:36:19Z</time></trkpt><trkpt lat="41.56723055608021" lon="19.9320237960878"><ele>791.8</ele><time>2026-04-29T13:36:20Z</time></trkpt><trkpt lat="41.56729914351832" lon="19.93212653190898"><ele>795.0</ele><time>2026-04-29T13:36:21Z</time></trkpt><trkpt lat="41.567379441815376" lon="19.932234932011625"><ele>795.0</ele><time>2026-04-29T13:36:22Z</time></trkpt><trkpt lat="41.56748022479138" lon="19.932332216230805"><ele>795.0</ele><time>2026-04-29T13:36:23Z</time></trkpt><trkpt lat="41.56756616798232" lon="19.932462650887818"><ele>795.0</ele><time>2026-04-29T13:36:24Z</time></trkpt><trkpt lat="41.56765634501326" lon="19.93257248421805"><ele>795.0</ele><time>2026-04-29T13:36:25Z</time></trkpt><trkpt lat="41.56774622503116" lon="19.93268235285537"><ele>793.4</ele><time>2026-04-29T13:36:26Z</time></trkpt><trkpt lat="41.56783803908943" lon="19.932795044261244"><ele>791.8</ele><time>2026-04-29T13:36:27Z</time></trkpt><trkpt lat="41.56791457339592" lon="19.93288819420078"><ele>790.2</ele><time>2026-04-29T13:36:28Z</time></trkpt><trkpt lat="41.56799771030641" lon="19.93296428915407"><ele>788.6</ele><time>2026-04-29T13:36:29Z</time></trkpt><trkpt lat="41.5680548791722" lon="19.93306118164513"><ele>787.0</ele><time>2026-04-29T13:36:30Z</time></trkpt><trkpt lat="41.5681130526627" lon="19.933136389630906"><ele>787.0</ele><time>2026-04-29T13:36:31Z</time></trkpt><trkpt lat="41.56817727011038" lon="19.93318621585592"><ele>787.0</ele><time>2026-04-29T13:36:32Z</time></trkpt><trkpt lat="41.568305366856" lon="19.933167487447644"><ele>787.0</ele><time>2026-04-29T13:36:34Z</time></trkpt><trkpt lat="41.56839515652254" lon="19.9331353918936"><ele>787.0</ele><time>2026-04-29T13:36:35Z</time></trkpt><trkpt lat="41.568513472689645" lon="19.93312420500723"><ele>787.0</ele><time>2026-04-29T13:36:36Z</time></trkpt><trkpt lat="41.56862369643878" lon="19.93311393719985"><ele>783.6</ele><time>2026-04-29T13:36:37Z</time></trkpt><trkpt lat="41.56871875876177" lon="19.93310508174658"><ele>780.2</ele><time>2026-04-29T13:36:38Z</time></trkpt><trkpt lat="41.56880299691562" lon="19.933133799094"><ele>776.8</ele><time>2026-04-29T13:36:39Z</time></trkpt><trkpt lat="41.568904467721076" lon="19.93315586507005"><ele>773.4</ele><time>2026-04-29T13:36:40Z</time></trkpt><trkpt lat="41.56897421424596" lon="19.93319782837808"><ele>770.0</ele><time>2026-04-29T13:36:41Z</time></trkpt><trkpt lat="41.569059455789265" lon="19.93324474092148"><ele>770.0</ele><time>2026-04-29T13:36:42Z</time></trkpt><trkpt lat="41.56914148846344" lon="19.93330273655127"><ele>770.0</ele><time>2026-04-29T13:36:43Z</time></trkpt><trkpt lat="41.56920801348703" lon="19.93339015846756"><ele>770.0</ele><time>2026-04-29T13:36:44Z</time></trkpt><trkpt lat="41.56929693805168" lon="19.933449479410204"><ele>770.0</ele><time>2026-04-29T13:36:45Z</time></trkpt><trkpt lat="41.56938734031575" lon="19.933506366754983"><ele>770.0</ele><time>2026-04-29T13:36:46Z</time></trkpt><trkpt lat="41.56947227302346" lon="19.933550298419227"><ele>771.6666666666667</ele><time>2026-04-29T13:36:47Z</time></trkpt><trkpt lat="41.569546934940284" lon="19.93358872589907"><ele>773.3333333333334</ele><time>2026-04-29T13:36:48Z</time></trkpt><trkpt lat="41.56959261227406" lon="19.93364710096222"><ele>775.0</ele><time>2026-04-29T13:36:49Z</time></trkpt><trkpt lat="41.569644186491125" lon="19.933759400485282"><ele>776.6666666666667</ele><time>2026-04-29T13:36:51Z</time></trkpt><trkpt lat="41.56961731471146" lon="19.93384449719276"><ele>778.3333333333334</ele><time>2026-04-29T13:36:52Z</time></trkpt><trkpt lat="41.569543547768156" lon="19.933903522552722"><ele>780.0</ele><time>2026-04-29T13:36:53Z</time></trkpt><trkpt lat="41.569518025644186" lon="19.934003046367547"><ele>780.0</ele><time>2026-04-29T13:36:54Z</time></trkpt><trkpt lat="41.569478859467345" lon="19.934075913696752"><ele>780.0</ele><time>2026-04-29T13:36:55Z</time></trkpt><trkpt lat="41.569466039930376" lon="19.93416103459661"><ele>780.0</ele><time>2026-04-29T13:36:56Z</time></trkpt><trkpt lat="41.569451904982216" lon="19.93424491883441"><ele>780.0</ele><time>2026-04-29T13:36:57Z</time></trkpt><trkpt lat="41.56952399945642" lon="19.934351957847586"><ele>780.0</ele><time>2026-04-29T13:36:58Z</time></trkpt><trkpt lat="41.56955541794366" lon="19.934480635982236"><ele>780.0</ele><time>2026-04-29T13:36:59Z</time></trkpt><trkpt lat="41.56960372368217" lon="19.93459035660911"><ele>780.6666666666666</ele><time>2026-04-29T13:37:00Z</time></trkpt><trkpt lat="41.569634848398486" lon="19.93469015446721"><ele>781.3333333333333</ele><time>2026-04-29T13:37:01Z</time></trkpt><trkpt lat="41.56967698202867" lon="19.934799800066635"><ele>782.0</ele><time>2026-04-29T13:37:02Z</time></trkpt><trkpt lat="41.569695493765046" lon="19.93489879109686"><ele>782.6666666666666</ele><time>2026-04-29T13:37:03Z</time></trkpt><trkpt lat="41.5697120905447" lon="19.934995870858742"><ele>783.3333333333333</ele><time>2026-04-29T13:37:04Z</time></trkpt><trkpt lat="41.56978800830504" lon="19.935096588520338"><ele>784.0</ele><time>2026-04-29T13:37:06Z</time></trkpt><trkpt lat="41.56987753718924" lon="19.935088594925478"><ele>783.9999999999999</ele><time>2026-04-29T13:37:07Z</time></trkpt><trkpt lat="41.56995882030378" lon="19.935137811230106"><ele>784.0</ele><time>2026-04-29T13:37:08Z</time></trkpt><trkpt lat="41.57001259154015" lon="19.935192894240853"><ele>784.0</ele><time>2026-04-29T13:37:09Z</time></trkpt><trkpt lat="41.570046787027046" lon="19.93535371794775"><ele>784.0</ele><time>2026-04-29T13:37:11Z</time></trkpt><trkpt lat="41.57003499965114" lon="19.935455319201484"><ele>783.9999999999999</ele><time>2026-04-29T13:37:12Z</time></trkpt><trkpt lat="41.57007444267681" lon="19.93554383037759"><ele>784.0</ele><time>2026-04-29T13:37:13Z</time></trkpt><trkpt lat="41.57017522195654" lon="19.93563592734793"><ele>783.9999999999999</ele><time>2026-04-29T13:37:15Z</time></trkpt><trkpt lat="41.570260250805525" lon="19.93566905243517"><ele>784.0</ele><time>2026-04-29T13:37:16Z</time></trkpt><trkpt lat="41.570315906164566" lon="19.93571101823665"><ele>784.0</ele><time>2026-04-29T13:37:17Z</time></trkpt><trkpt lat="41.57033283966869" lon="19.935872826363266"><ele>784.0</ele><time>2026-04-29T13:37:19Z</time></trkpt><trkpt lat="41.5703377229891" lon="19.935962341261533"><ele>783.9999999999999</ele><time>2026-04-29T13:37:20Z</time></trkpt><trkpt lat="41.57035542068713" lon="19.93606361042117"><ele>784.0</ele><time>2026-04-29T13:37:21Z</time></trkpt><trkpt lat="41.57043302722022" lon="19.936091047272836"><ele>782.2</ele><time>2026-04-29T13:37:22Z</time></trkpt><trkpt lat="41.57053563025374" lon="19.936175910050768"><ele>780.4000000000001</ele><time>2026-04-29T13:37:24Z</time></trkpt><trkpt lat="41.57065893874807" lon="19.936158312804846"><ele>778.6</ele><time>2026-04-29T13:37:26Z</time></trkpt><trkpt lat="41.570753535165366" lon="19.936138216991328"><ele>776.8</ele><time>2026-04-29T13:37:27Z</time></trkpt><trkpt lat="41.57083253494694" lon="19.936116728824143"><ele>775.0</ele><time>2026-04-29T13:37:28Z</time></trkpt><trkpt lat="41.570899313324276" lon="19.936109198374844"><ele>775.0</ele><time>2026-04-29T13:37:29Z</time></trkpt><trkpt lat="41.571023520775" lon="19.93612954184369"><ele>775.0</ele><time>2026-04-29T13:37:31Z</time></trkpt><trkpt lat="41.57113753719991" lon="19.936177013575435"><ele>775.0</ele><time>2026-04-29T13:37:33Z</time></trkpt><trkpt lat="41.571199299188635" lon="19.936250220327313"><ele>775.0</ele><time>2026-04-29T13:37:34Z</time></trkpt><trkpt lat="41.57128815796162" lon="19.936304252770494"><ele>775.0</ele><time>2026-04-29T13:37:35Z</time></trkpt><trkpt lat="41.571382464553864" lon="19.936333516227123"><ele>772.9999999999999</ele><time>2026-04-29T13:37:36Z</time></trkpt><trkpt lat="41.57148154356124" lon="19.936349934635814"><ele>771.0</ele><time>2026-04-29T13:37:37Z</time></trkpt><trkpt lat="41.5715681467489" lon="19.936349632544367"><ele>769.0</ele><time>2026-04-29T13:37:38Z</time></trkpt><trkpt lat="41.57165932783705" lon="19.936366212313136"><ele>767.0</ele><time>2026-04-29T13:37:39Z</time></trkpt><trkpt lat="41.57173611118885" lon="19.936407507549678"><ele>765.0</ele><time>2026-04-29T13:37:40Z</time></trkpt><trkpt lat="41.57180801773183" lon="19.93645685297798"><ele>763.0</ele><time>2026-04-29T13:37:41Z</time></trkpt><trkpt lat="41.57186171854522" lon="19.936514656076614"><ele>763.0</ele><time>2026-04-29T13:37:42Z</time></trkpt><trkpt lat="41.571891250182176" lon="19.936590345235917"><ele>763.0</ele><time>2026-04-29T13:37:43Z</time></trkpt><trkpt lat="41.57189963020311" lon="19.936692420766576"><ele>763.0</ele><time>2026-04-29T13:37:44Z</time></trkpt><trkpt lat="41.57190668144296" lon="19.93681773034986"><ele>763.0</ele><time>2026-04-29T13:37:45Z</time></trkpt><trkpt lat="41.57191812971687" lon="19.93695307773181"><ele>763.0</ele><time>2026-04-29T13:37:46Z</time></trkpt><trkpt lat="41.57196241797756" lon="19.937052802551722"><ele>763.0</ele><time>2026-04-29T13:37:46.999Z</time></trkpt><trkpt lat="41.57200833128814" lon="19.937157705726587"><ele>757.0</ele><time>2026-04-29T13:37:47.999Z</time></trkpt><trkpt lat="41.57205410040281" lon="19.93726709539788"><ele>751.0</ele><time>2026-04-29T13:37:48.999Z</time></trkpt><trkpt lat="41.572121058455174" lon="19.937345054091796"><ele>745.0</ele><time>2026-04-29T13:37:49.999Z</time></trkpt><trkpt lat="41.57220637046281" lon="19.937404126902543"><ele>739.0</ele><time>2026-04-29T13:37:50.999Z</time></trkpt><trkpt lat="41.57231345969957" lon="19.93744337589269"><ele>733.0</ele><time>2026-04-29T13:37:51.999Z</time></trkpt><trkpt lat="41.572416224773775" lon="19.937504074058207"><ele>733.0</ele><time>2026-04-29T13:37:52.999Z</time></trkpt><trkpt lat="41.57250286680052" lon="19.93754857562426"><ele>733.0</ele><time>2026-04-29T13:37:53.999Z</time></trkpt><trkpt lat="41.572576553942554" lon="19.937582169378775"><ele>733.0</ele><time>2026-04-29T13:37:54.999Z</time></trkpt><trkpt lat="41.572642947281096" lon="19.937608960869856"><ele>733.0</ele><time>2026-04-29T13:37:55.999Z</time></trkpt><trkpt lat="41.572694942672165" lon="19.93768724450373"><ele>733.0</ele><time>2026-04-29T13:37:57.999Z</time></trkpt><trkpt lat="41.57271843469335" lon="19.937775116403866"><ele>733.0</ele><time>2026-04-29T13:37:59.999Z</time></trkpt><trkpt lat="41.57266873828648" lon="19.937902366873008"><ele>734.25</ele><time>2026-04-29T13:38:01.999Z</time></trkpt><trkpt lat="41.57260976978728" lon="19.938006000664053"><ele>735.5</ele><time>2026-04-29T13:38:02.999Z</time></trkpt><trkpt lat="41.57254368119836" lon="19.938139746969785"><ele>736.75</ele><time>2026-04-29T13:38:03.999Z</time></trkpt><trkpt lat="41.57246502312823" lon="19.938267103102394"><ele>738.0</ele><time>2026-04-29T13:38:05Z</time></trkpt><trkpt lat="41.57237493275456" lon="19.938364047120476"><ele>737.6666666666666</ele><time>2026-04-29T13:38:06Z</time></trkpt><trkpt lat="41.57229750290616" lon="19.938434993602684"><ele>737.3333333333334</ele><time>2026-04-29T13:38:07Z</time></trkpt><trkpt lat="41.572228002328075" lon="19.938525746845393"><ele>737.0</ele><time>2026-04-29T13:38:08Z</time></trkpt><trkpt lat="41.57214641692462" lon="19.938608259919818"><ele>736.6666666666667</ele><time>2026-04-29T13:38:09Z</time></trkpt><trkpt lat="41.57212174899617" lon="19.93871630557703"><ele>736.3333333333334</ele><time>2026-04-29T13:38:10Z</time></trkpt><trkpt lat="41.57209308297863" lon="19.938803885728124"><ele>736.0</ele><time>2026-04-29T13:38:11Z</time></trkpt><trkpt lat="41.57212185210485" lon="19.9389858299657"><ele>736.0</ele><time>2026-04-29T13:38:13Z</time></trkpt><trkpt lat="41.572192446750115" lon="19.939074763795645"><ele>736.0</ele><time>2026-04-29T13:38:14Z</time></trkpt><trkpt lat="41.57227216900665" lon="19.939183202684603"><ele>736.0</ele><time>2026-04-29T13:38:15Z</time></trkpt><trkpt lat="41.57234591043082" lon="19.939294953924072"><ele>736.0</ele><time>2026-04-29T13:38:16Z</time></trkpt><trkpt lat="41.57239624634955" lon="19.939382109261413"><ele>736.0</ele><time>2026-04-29T13:38:17Z</time></trkpt><trkpt lat="41.572389941458795" lon="19.93951449202537"><ele>739.6666666666667</ele><time>2026-04-29T13:38:18Z</time></trkpt><trkpt lat="41.57243857914268" lon="19.939596441969"><ele>743.3333333333334</ele><time>2026-04-29T13:38:19Z</time></trkpt><trkpt lat="41.57248256815957" lon="19.9396690073334"><ele>747.0</ele><time>2026-04-29T13:38:20Z</time></trkpt><trkpt lat="41.57257333559997" lon="19.939697543730137"><ele>750.6666666666666</ele><time>2026-04-29T13:38:21Z</time></trkpt><trkpt lat="41.5726721131227" lon="19.939752417608435"><ele>754.3333333333333</ele><time>2026-04-29T13:38:22Z</time></trkpt><trkpt lat="41.57274059846175" lon="19.939810790185994"><ele>758.0</ele><time>2026-04-29T13:38:23Z</time></trkpt><trkpt lat="41.572774360794" lon="19.939931024664773"><ele>758.0</ele><time>2026-04-29T13:38:24Z</time></trkpt><trkpt lat="41.572852580045726" lon="19.940005450040644"><ele>758.0</ele><time>2026-04-29T13:38:25Z</time></trkpt><trkpt lat="41.57289852576196" lon="19.940084508378742"><ele>758.0</ele><time>2026-04-29T13:38:26Z</time></trkpt><trkpt lat="41.57299536501009" lon="19.94011491396352"><ele>758.0</ele><time>2026-04-29T13:38:28Z</time></trkpt><trkpt lat="41.57306196211492" lon="19.940084521617976"><ele>758.0</ele><time>2026-04-29T13:38:29Z</time></trkpt><trkpt lat="41.57314337818113" lon="19.940036220714582"><ele>758.0</ele><time>2026-04-29T13:38:30Z</time></trkpt><trkpt lat="41.57321736051596" lon="19.940025863677345"><ele>755.0</ele><time>2026-04-29T13:38:31Z</time></trkpt><trkpt lat="41.57330111875235" lon="19.940016428697604"><ele>752.0</ele><time>2026-04-29T13:38:32Z</time></trkpt><trkpt lat="41.573378085338405" lon="19.940007964754884"><ele>749.0</ele><time>2026-04-29T13:38:33Z</time></trkpt><trkpt lat="41.573450969489514" lon="19.940000835211624"><ele>746.0</ele><time>2026-04-29T13:38:34Z</time></trkpt><trkpt lat="41.57352101577623" lon="19.939993310504104"><ele>743.0</ele><time>2026-04-29T13:38:35Z</time></trkpt><trkpt lat="41.57358826592904" lon="19.939986582040575"><ele>740.0</ele><time>2026-04-29T13:38:36Z</time></trkpt><trkpt lat="41.573715721415674" lon="19.940014496863828"><ele>739.1666666666666</ele><time>2026-04-29T13:38:38Z</time></trkpt><trkpt lat="41.57378811273785" lon="19.940036343948243"><ele>738.3333333333333</ele><time>2026-04-29T13:38:39Z</time></trkpt><trkpt lat="41.573873309290015" lon="19.94009556717632"><ele>737.5</ele><time>2026-04-29T13:38:41Z</time></trkpt><trkpt lat="41.57394040311918" lon="19.940161845436528"><ele>736.6666666666666</ele><time>2026-04-29T13:38:42Z</time></trkpt><trkpt lat="41.57400330314142" lon="19.940231773686925"><ele>735.8333333333334</ele><time>2026-04-29T13:38:43Z</time></trkpt><trkpt lat="41.574053449725064" lon="19.94028681037864"><ele>735.0</ele><time>2026-04-29T13:38:44Z</time></trkpt><trkpt lat="41.5741263401487" lon="19.940314883984882"><ele>735.0</ele><time>2026-04-29T13:38:45Z</time></trkpt><trkpt lat="41.574206163017415" lon="19.940348678649457"><ele>735.0</ele><time>2026-04-29T13:38:46Z</time></trkpt><trkpt lat="41.57427012688385" lon="19.940364692590368"><ele>735.0</ele><time>2026-04-29T13:38:47Z</time></trkpt><trkpt lat="41.57429961498336" lon="19.940464719401223"><ele>735.0</ele><time>2026-04-29T13:38:50Z</time></trkpt><trkpt lat="41.574304732748466" lon="19.94065850346725"><ele>735.0</ele><time>2026-04-29T13:38:52Z</time></trkpt><trkpt lat="41.57429687237948" lon="19.940780965704196"><ele>735.0</ele><time>2026-04-29T13:38:53Z</time></trkpt><trkpt lat="41.57427955711585" lon="19.94087965324006"><ele>735.0</ele><time>2026-04-29T13:38:54Z</time></trkpt><trkpt lat="41.5742696111671" lon="19.94096508799328"><ele>735.0</ele><time>2026-04-29T13:38:55Z</time></trkpt><trkpt lat="41.5741941527954" lon="19.94103560955857"><ele>735.0</ele><time>2026-04-29T13:38:56Z</time></trkpt><trkpt lat="41.574119582719085" lon="19.941140743622135"><ele>735.0</ele><time>2026-04-29T13:38:57Z</time></trkpt><trkpt lat="41.57403989920863" lon="19.94124595577173"><ele>731.8</ele><time>2026-04-29T13:38:58Z</time></trkpt><trkpt lat="41.57397229868175" lon="19.941335213803917"><ele>728.6</ele><time>2026-04-29T13:38:59Z</time></trkpt><trkpt lat="41.573918735653045" lon="19.941477743245425"><ele>725.4000000000001</ele><time>2026-04-29T13:39:00Z</time></trkpt><trkpt lat="41.57390750817274" lon="19.941627647368577"><ele>722.2</ele><time>2026-04-29T13:39:01Z</time></trkpt><trkpt lat="41.573889307817865" lon="19.94176683918951"><ele>719.0</ele><time>2026-04-29T13:39:02Z</time></trkpt><trkpt lat="41.57389645087651" lon="19.9418968978911"><ele>718.0</ele><time>2026-04-29T13:39:03Z</time></trkpt><trkpt lat="41.573891145001085" lon="19.94200744645105"><ele>717.0</ele><time>2026-04-29T13:39:04Z</time></trkpt><trkpt lat="41.57389114500168" lon="19.942104881892142"><ele>716.0</ele><time>2026-04-29T13:39:05Z</time></trkpt><trkpt lat="41.573803858969775" lon="19.942205552214173"><ele>715.0</ele><time>2026-04-29T13:39:07Z</time></trkpt><trkpt lat="41.573737322842995" lon="19.942279188923358"><ele>714.0</ele><time>2026-04-29T13:39:08Z</time></trkpt><trkpt lat="41.57366134654181" lon="19.94235530005593"><ele>718.8333333333334</ele><time>2026-04-29T13:39:09Z</time></trkpt><trkpt lat="41.57364010955404" lon="19.942466563657387"><ele>723.6666666666666</ele><time>2026-04-29T13:39:10Z</time></trkpt><trkpt lat="41.57362409011474" lon="19.942554830001303"><ele>728.5</ele><time>2026-04-29T13:39:11Z</time></trkpt><trkpt lat="41.57361974500139" lon="19.942648189653866"><ele>733.3333333333333</ele><time>2026-04-29T13:39:12Z</time></trkpt><trkpt lat="41.573611786054514" lon="19.942764724101703"><ele>738.1666666666666</ele><time>2026-04-29T13:39:13Z</time></trkpt><trkpt lat="41.57360666329837" lon="19.942886794695657"><ele>743.0</ele><time>2026-04-29T13:39:14Z</time></trkpt><trkpt lat="41.5736123846764" lon="19.942993951920368"><ele>743.0</ele><time>2026-04-29T13:39:15Z</time></trkpt><trkpt lat="41.573623448088824" lon="19.943089105393536"><ele>743.0</ele><time>2026-04-29T13:39:16Z</time></trkpt><trkpt lat="41.57364197011675" lon="19.943178961671297"><ele>743.0</ele><time>2026-04-29T13:39:17Z</time></trkpt><trkpt lat="41.57371561809696" lon="19.943299522552735"><ele>743.0</ele><time>2026-04-29T13:39:19Z</time></trkpt><trkpt lat="41.573781090589385" lon="19.94331341768158"><ele>743.0</ele><time>2026-04-29T13:39:20Z</time></trkpt><trkpt lat="41.57386532012374" lon="19.94327575355048"><ele>743.0</ele><time>2026-04-29T13:39:21Z</time></trkpt><trkpt lat="41.573966340197124" lon="19.943276175105336"><ele>739.75</ele><time>2026-04-29T13:39:22Z</time></trkpt><trkpt lat="41.574077034389504" lon="19.943235162563877"><ele>736.5</ele><time>2026-04-29T13:39:23Z</time></trkpt><trkpt lat="41.57419977874246" lon="19.9432216934566"><ele>733.25</ele><time>2026-04-29T13:39:24Z</time></trkpt><trkpt lat="41.574326183623384" lon="19.943210062982097"><ele>730.0</ele><time>2026-04-29T13:39:25Z</time></trkpt><trkpt lat="41.57445565488114" lon="19.943197681192853"><ele>729.2</ele><time>2026-04-29T13:39:26Z</time></trkpt><trkpt lat="41.57457748246639" lon="19.94317789678536"><ele>728.4</ele><time>2026-04-29T13:39:27Z</time></trkpt><trkpt lat="41.57468053652787" lon="19.943167568400952"><ele>727.5999999999999</ele><time>2026-04-29T13:39:28Z</time></trkpt><trkpt lat="41.57478009937884" lon="19.943179965083438"><ele>726.8</ele><time>2026-04-29T13:39:29Z</time></trkpt><trkpt lat="41.57489246891738" lon="19.943188854368053"><ele>726.0</ele><time>2026-04-29T13:39:30Z</time></trkpt><trkpt lat="41.574999814712505" lon="19.943212175040827"><ele>726.0</ele><time>2026-04-29T13:39:31Z</time></trkpt><trkpt lat="41.5751000333696" lon="19.943244919179758"><ele>726.0</ele><time>2026-04-29T13:39:32Z</time></trkpt><trkpt lat="41.57518973539661" lon="19.943291862596524"><ele>726.0</ele><time>2026-04-29T13:39:33Z</time></trkpt><trkpt lat="41.57527118666342" lon="19.94331893068935"><ele>726.0</ele><time>2026-04-29T13:39:34Z</time></trkpt><trkpt lat="41.57533556398171" lon="19.943395655043147"><ele>726.0</ele><time>2026-04-29T13:39:35Z</time></trkpt><trkpt lat="41.57539764020213" lon="19.943499047070986"><ele>726.1666666666666</ele><time>2026-04-29T13:39:36Z</time></trkpt><trkpt lat="41.57541992521261" lon="19.943614108516517"><ele>726.3333333333334</ele><time>2026-04-29T13:39:37Z</time></trkpt><trkpt lat="41.57542565414947" lon="19.9437252535278"><ele>726.5</ele><time>2026-04-29T13:39:38Z</time></trkpt><trkpt lat="41.575448293456475" lon="19.943810380882976"><ele>726.6666666666667</ele><time>2026-04-29T13:39:39Z</time></trkpt><trkpt lat="41.5753864918804" lon="19.943849329113842"><ele>726.8333333333334</ele><time>2026-04-29T13:39:40Z</time></trkpt><trkpt lat="41.57529083690589" lon="19.94393617059769"><ele>727.0</ele><time>2026-04-29T13:39:42Z</time></trkpt><trkpt lat="41.57520099940867" lon="19.944074701249175"><ele>727.0</ele><time>2026-04-29T13:39:43.999Z</time></trkpt><trkpt lat="41.57515295215795" lon="19.944153669874805"><ele>727.0</ele><time>2026-04-29T13:39:44.999Z</time></trkpt><trkpt lat="41.57514085179356" lon="19.944283827740026"><ele>727.0</ele><time>2026-04-29T13:39:45.999Z</time></trkpt><trkpt lat="41.5751310479124" lon="19.944396617154226"><ele>727.0</ele><time>2026-04-29T13:39:46.999Z</time></trkpt><trkpt lat="41.57512303079967" lon="19.944493799676955"><ele>727.0</ele><time>2026-04-29T13:39:47.999Z</time></trkpt><trkpt lat="41.575053487338124" lon="19.944576824957537"><ele>727.0</ele><time>2026-04-29T13:39:48.999Z</time></trkpt><trkpt lat="41.57501105485478" lon="19.944664510146783"><ele>724.6666666666667</ele><time>2026-04-29T13:39:49.999Z</time></trkpt><trkpt lat="41.57497919909461" lon="19.944756100239005"><ele>722.3333333333334</ele><time>2026-04-29T13:39:50.999Z</time></trkpt><trkpt lat="41.574933112904965" lon="19.94484423494217"><ele>720.0</ele><time>2026-04-29T13:39:51.999Z</time></trkpt><trkpt lat="41.57490387418839" lon="19.944939898697278"><ele>717.6666666666666</ele><time>2026-04-29T13:39:52.999Z</time></trkpt><trkpt lat="41.57488504137204" lon="19.945037484657828"><ele>715.3333333333333</ele><time>2026-04-29T13:39:53.999Z</time></trkpt><trkpt lat="41.574841737889344" lon="19.945127724305802"><ele>713.0</ele><time>2026-04-29T13:39:54.999Z</time></trkpt><trkpt lat="41.57481567504297" lon="19.945224742168737"><ele>710.7142857142857</ele><time>2026-04-29T13:39:55.999Z</time></trkpt><trkpt lat="41.57479229878823" lon="19.945313856967715"><ele>708.4285714285714</ele><time>2026-04-29T13:39:57Z</time></trkpt><trkpt lat="41.574743836884345" lon="19.94537937348338"><ele>706.1428571428571</ele><time>2026-04-29T13:39:57.999Z</time></trkpt><trkpt lat="41.5746889181074" lon="19.94543601169155"><ele>703.8571428571429</ele><time>2026-04-29T13:39:58.999Z</time></trkpt><trkpt lat="41.574635028296115" lon="19.945500366426668"><ele>701.5714285714286</ele><time>2026-04-29T13:39:59.999Z</time></trkpt><trkpt lat="41.574563574653475" lon="19.945559433103643"><ele>699.2857142857143</ele><time>2026-04-29T13:40:00.999Z</time></trkpt><trkpt lat="41.574503665077415" lon="19.945587033960134"><ele>697.0</ele><time>2026-04-29T13:40:01.999Z</time></trkpt><trkpt lat="41.57443616290094" lon="19.945584878672186"><ele>697.0</ele><time>2026-04-29T13:40:02.999Z</time></trkpt><trkpt lat="41.57436454251906" lon="19.94556289821645"><ele>697.0</ele><time>2026-04-29T13:40:03.999Z</time></trkpt><trkpt lat="41.5743105349587" lon="19.945489334876058"><ele>697.0</ele><time>2026-04-29T13:40:04.999Z</time></trkpt><trkpt lat="41.574254537251726" lon="19.94543143798059"><ele>697.0</ele><time>2026-04-29T13:40:05.999Z</time></trkpt><trkpt lat="41.574154978931844" lon="19.94535247516534"><ele>697.0</ele><time>2026-04-29T13:40:07.999Z</time></trkpt><trkpt lat="41.57405912992462" lon="19.945391819023758"><ele>697.0</ele><time>2026-04-29T13:40:09.999Z</time></trkpt><trkpt lat="41.57401880641721" lon="19.945485661291055"><ele>697.0</ele><time>2026-04-29T13:40:12Z</time></trkpt><trkpt lat="41.57404109916535" lon="19.945564435317497"><ele>697.0</ele><time>2026-04-29T13:40:13Z</time></trkpt><trkpt lat="41.57411194979167" lon="19.945672864344587"><ele>697.0</ele><time>2026-04-29T13:40:15Z</time></trkpt><trkpt lat="41.574174168364735" lon="19.945708539575207"><ele>697.0</ele><time>2026-04-29T13:40:16Z</time></trkpt><trkpt lat="41.57424003188842" lon="19.945757668843097"><ele>697.0</ele><time>2026-04-29T13:40:17Z</time></trkpt><trkpt lat="41.57430184715589" lon="19.945804199909176"><ele>697.0</ele><time>2026-04-29T13:40:18Z</time></trkpt><trkpt lat="41.57437838265219" lon="19.945861016782942"><ele>695.6666666666667</ele><time>2026-04-29T13:40:19Z</time></trkpt><trkpt lat="41.5744531207507" lon="19.94591662592748"><ele>694.3333333333334</ele><time>2026-04-29T13:40:20Z</time></trkpt><trkpt lat="41.57452280176575" lon="19.94596413042251"><ele>693.0</ele><time>2026-04-29T13:40:21Z</time></trkpt><trkpt lat="41.5745962955592" lon="19.946026921865432"><ele>691.6666666666666</ele><time>2026-04-29T13:40:23Z</time></trkpt><trkpt lat="41.57463570289748" lon="19.94613243594728"><ele>690.3333333333333</ele><time>2026-04-29T13:40:25Z</time></trkpt><trkpt lat="41.57461000489776" lon="19.946245284844956"><ele>689.0</ele><time>2026-04-29T13:40:26Z</time></trkpt><trkpt lat="41.57456862687655" lon="19.94632292373604"><ele>688.2</ele><time>2026-04-29T13:40:27Z</time></trkpt><trkpt lat="41.574438854236114" lon="19.946320811952283"><ele>687.4000000000001</ele><time>2026-04-29T13:40:28Z</time></trkpt><trkpt lat="41.57439461506639" lon="19.946397527315582"><ele>686.6</ele><time>2026-04-29T13:40:29Z</time></trkpt><trkpt lat="41.57434761124607" lon="19.946466136759152"><ele>685.8</ele><time>2026-04-29T13:40:30Z</time></trkpt><trkpt lat="41.574314716562135" lon="19.946664101219945"><ele>685.0</ele><time>2026-04-29T13:40:32Z</time></trkpt><trkpt lat="41.57428783301907" lon="19.946758971320264"><ele>683.5</ele><time>2026-04-29T13:40:33Z</time></trkpt><trkpt lat="41.574267227795815" lon="19.946889748007877"><ele>682.0</ele><time>2026-04-29T13:40:34Z</time></trkpt><trkpt lat="41.57426813685725" lon="19.947024872522253"><ele>680.5</ele><time>2026-04-29T13:40:35Z</time></trkpt><trkpt lat="41.574270317323695" lon="19.94711900470286"><ele>679.0</ele><time>2026-04-29T13:40:36Z</time></trkpt><trkpt lat="41.574289718921335" lon="19.947221862327886"><ele>677.5</ele><time>2026-04-29T13:40:37Z</time></trkpt><trkpt lat="41.5743126110361" lon="19.94734304397008"><ele>676.0</ele><time>2026-04-29T13:40:38Z</time></trkpt><trkpt lat="41.57433463016482" lon="19.947445373516626"><ele>676.0</ele><time>2026-04-29T13:40:39Z</time></trkpt><trkpt lat="41.574356002829724" lon="19.94754276778476"><ele>676.0</ele><time>2026-04-29T13:40:40Z</time></trkpt><trkpt lat="41.57438870688625" lon="19.947621381500703"><ele>676.0</ele><time>2026-04-29T13:40:41Z</time></trkpt><trkpt lat="41.574421671239605" lon="19.947708426132504"><ele>676.0</ele><time>2026-04-29T13:40:42Z</time></trkpt><trkpt lat="41.57445273881375" lon="19.94779046194989"><ele>676.0</ele><time>2026-04-29T13:40:43Z</time></trkpt><trkpt lat="41.57453158259283" lon="19.947874161247235"><ele>676.0</ele><time>2026-04-29T13:40:44Z</time></trkpt><trkpt lat="41.574583534621446" lon="19.947942873493464"><ele>674.1999999999999</ele><time>2026-04-29T13:40:45Z</time></trkpt><trkpt lat="41.574672185954526" lon="19.947984333562474"><ele>672.4</ele><time>2026-04-29T13:40:46Z</time></trkpt><trkpt lat="41.57474967965674" lon="19.948028328805908"><ele>670.6</ele><time>2026-04-29T13:40:47Z</time></trkpt><trkpt lat="41.574809081348405" lon="19.948057445519883"><ele>668.8</ele><time>2026-04-29T13:40:48Z</time></trkpt><trkpt lat="41.57489022199222" lon="19.948029619479435"><ele>667.0</ele><time>2026-04-29T13:40:49Z</time></trkpt><trkpt lat="41.57501091815997" lon="19.947916129825153"><ele>667.0</ele><time>2026-04-29T13:40:51Z</time></trkpt><trkpt lat="41.57502640020325" lon="19.94781574103115"><ele>667.0</ele><time>2026-04-29T13:40:52Z</time></trkpt><trkpt lat="41.57507242313365" lon="19.94770078166011"><ele>667.0</ele><time>2026-04-29T13:40:54Z</time></trkpt><trkpt lat="41.57512781457418" lon="19.947755962612007"><ele>667.0</ele><time>2026-04-29T13:40:55Z</time></trkpt><trkpt lat="41.57517404963483" lon="19.947823338110215"><ele>667.0</ele><time>2026-04-29T13:40:57Z</time></trkpt><trkpt lat="41.575190042960145" lon="19.94791092048368"><ele>667.0</ele><time>2026-04-29T13:40:59Z</time></trkpt><trkpt lat="41.57511750645637" lon="19.948038233557103"><ele>667.0</ele><time>2026-04-29T13:41:01Z</time></trkpt><trkpt lat="41.57506493347942" lon="19.948114505864435"><ele>667.0</ele><time>2026-04-29T13:41:02Z</time></trkpt><trkpt lat="41.5750089427491" lon="19.948195803149545"><ele>667.0</ele><time>2026-04-29T13:41:03Z</time></trkpt><trkpt lat="41.57493639070845" lon="19.94826537505477"><ele>667.0</ele><time>2026-04-29T13:41:04Z</time></trkpt><trkpt lat="41.57487343520112" lon="19.948310366834463"><ele>667.0</ele><time>2026-04-29T13:41:05Z</time></trkpt><trkpt lat="41.57480789115139" lon="19.948318894289386"><ele>667.0</ele><time>2026-04-29T13:41:06Z</time></trkpt><trkpt lat="41.57469663136292" lon="19.948275150398434"><ele>667.0</ele><time>2026-04-29T13:41:08Z</time></trkpt><trkpt lat="41.57464095595783" lon="19.94822204326993"><ele>667.0</ele><time>2026-04-29T13:41:09Z</time></trkpt><trkpt lat="41.57454271415538" lon="19.948154090144133"><ele>667.0</ele><time>2026-04-29T13:41:11Z</time></trkpt><trkpt lat="41.57445056421194" lon="19.948172640799203"><ele>667.0</ele><time>2026-04-29T13:41:13Z</time></trkpt><trkpt lat="41.574410452884656" lon="19.948315676956152"><ele>667.0</ele><time>2026-04-29T13:41:15Z</time></trkpt><trkpt lat="41.574442671621085" lon="19.94839486931712"><ele>663.1666666666667</ele><time>2026-04-29T13:41:16Z</time></trkpt><trkpt lat="41.57447210296318" lon="19.948475450902478"><ele>659.3333333333334</ele><time>2026-04-29T13:41:17Z</time></trkpt><trkpt lat="41.57454796428056" lon="19.948530340591955"><ele>655.5</ele><time>2026-04-29T13:41:18Z</time></trkpt><trkpt lat="41.57463697166707" lon="19.94856077183866"><ele>651.6666666666666</ele><time>2026-04-29T13:41:19Z</time></trkpt><trkpt lat="41.574726390050465" lon="19.948557895587285"><ele>647.8333333333333</ele><time>2026-04-29T13:41:20Z</time></trkpt><trkpt lat="41.57479455568953" lon="19.948551357718248"><ele>644.0</ele><time>2026-04-29T13:41:21Z</time></trkpt><trkpt lat="41.574890344381124" lon="19.948495401251247"><ele>644.0</ele><time>2026-04-29T13:41:23Z</time></trkpt><trkpt lat="41.57496500998056" lon="19.948471407586915"><ele>644.0</ele><time>2026-04-29T13:41:25Z</time></trkpt><trkpt lat="41.57501636037545" lon="19.94854009618764"><ele>644.0</ele><time>2026-04-29T13:41:27Z</time></trkpt><trkpt lat="41.574998604390245" lon="19.948630120163887"><ele>644.0</ele><time>2026-04-29T13:41:29Z</time></trkpt><trkpt lat="41.57488648719584" lon="19.94868341463597"><ele>644.0</ele><time>2026-04-29T13:41:31Z</time></trkpt><trkpt lat="41.57481900615983" lon="19.948675884272138"><ele>644.0</ele><time>2026-04-29T13:41:32Z</time></trkpt><trkpt lat="41.574737683025226" lon="19.94869419210275"><ele>644.0</ele><time>2026-04-29T13:41:33Z</time></trkpt><trkpt lat="41.57465966452689" lon="19.948703506593116"><ele>644.0</ele><time>2026-04-29T13:41:34Z</time></trkpt><trkpt lat="41.574586193473095" lon="19.948693100016833"><ele>644.0</ele><time>2026-04-29T13:41:34.999Z</time></trkpt><trkpt lat="41.57450502248717" lon="19.94870078661502"><ele>644.0</ele><time>2026-04-29T13:41:35.999Z</time></trkpt><trkpt lat="41.57442403877028" lon="19.948705948851345"><ele>644.0</ele><time>2026-04-29T13:41:36.999Z</time></trkpt><trkpt lat="41.5743519605647" lon="19.948688570651495"><ele>644.0</ele><time>2026-04-29T13:41:37.999Z</time></trkpt><trkpt lat="41.57429410284922" lon="19.948654040850514"><ele>643.8000000000001</ele><time>2026-04-29T13:41:38.999Z</time></trkpt><trkpt lat="41.57421173126948" lon="19.94854607162762"><ele>643.6</ele><time>2026-04-29T13:41:40.999Z</time></trkpt><trkpt lat="41.57412229632541" lon="19.948497034255627"><ele>643.4</ele><time>2026-04-29T13:41:42.999Z</time></trkpt><trkpt lat="41.574051495820754" lon="19.94858498722447"><ele>643.2</ele><time>2026-04-29T13:41:44.999Z</time></trkpt><trkpt lat="41.57405971636296" lon="19.948705952172308"><ele>643.0</ele><time>2026-04-29T13:41:46.999Z</time></trkpt><trkpt lat="41.5741220820427" lon="19.94883993017546"><ele>643.0</ele><time>2026-04-29T13:41:48.999Z</time></trkpt><trkpt lat="41.57421296627019" lon="19.948889442264125"><ele>643.0</ele><time>2026-04-29T13:41:49.999Z</time></trkpt><trkpt lat="41.57430613079931" lon="19.948927888773934"><ele>643.0</ele><time>2026-04-29T13:41:50.999Z</time></trkpt><trkpt lat="41.57440995508181" lon="19.948967144068195"><ele>643.0</ele><time>2026-04-29T13:41:51.999Z</time></trkpt><trkpt lat="41.574516690877545" lon="19.949004603792634"><ele>643.0</ele><time>2026-04-29T13:41:52.999Z</time></trkpt><trkpt lat="41.57461177063207" lon="19.949038013454675"><ele>643.2</ele><time>2026-04-29T13:41:53.999Z</time></trkpt><trkpt lat="41.57471748779733" lon="19.94907516096243"><ele>643.4</ele><time>2026-04-29T13:41:54.999Z</time></trkpt><trkpt lat="41.57482232390326" lon="19.949112171415408"><ele>643.6</ele><time>2026-04-29T13:41:55.999Z</time></trkpt><trkpt lat="41.57492611720209" lon="19.949135038535967"><ele>643.8000000000001</ele><time>2026-04-29T13:41:56.999Z</time></trkpt><trkpt lat="41.57501784511822" lon="19.94914562421018"><ele>644.0</ele><time>2026-04-29T13:41:57.999Z</time></trkpt><trkpt lat="41.57510537060601" lon="19.94915631536697"><ele>644.0</ele><time>2026-04-29T13:41:58.999Z</time></trkpt><trkpt lat="41.575180154619545" lon="19.94916467491457"><ele>644.0</ele><time>2026-04-29T13:41:59.999Z</time></trkpt><trkpt lat="41.5752661900903" lon="19.9491646025749"><ele>644.0</ele><time>2026-04-29T13:42:00.999Z</time></trkpt><trkpt lat="41.575346596425035" lon="19.949152384801703"><ele>644.0</ele><time>2026-04-29T13:42:01.999Z</time></trkpt><trkpt lat="41.57545649410293" lon="19.948994200705712"><ele>644.0</ele><time>2026-04-29T13:42:03.999Z</time></trkpt><trkpt lat="41.57546749889787" lon="19.948899419652747"><ele>643.8000000000001</ele><time>2026-04-29T13:42:04.999Z</time></trkpt><trkpt lat="41.57550690108743" lon="19.948816882035732"><ele>643.6</ele><time>2026-04-29T13:42:05.999Z</time></trkpt><trkpt lat="41.575540235186224" lon="19.948698822143534"><ele>643.4</ele><time>2026-04-29T13:42:06.999Z</time></trkpt><trkpt lat="41.57558014207474" lon="19.948557483174618"><ele>643.2</ele><time>2026-04-29T13:42:07.999Z</time></trkpt><trkpt lat="41.575619078793466" lon="19.94845378946233"><ele>643.0</ele><time>2026-04-29T13:42:08.999Z</time></trkpt><trkpt lat="41.57566795909056" lon="19.94833692960028"><ele>643.0</ele><time>2026-04-29T13:42:09.999Z</time></trkpt><trkpt lat="41.57572022912472" lon="19.948211908925423"><ele>643.0</ele><time>2026-04-29T13:42:10.999Z</time></trkpt><trkpt lat="41.57576210886699" lon="19.948111516769657"><ele>643.0</ele><time>2026-04-29T13:42:11.999Z</time></trkpt><trkpt lat="41.57579217499793" lon="19.94802668844826"><ele>643.0</ele><time>2026-04-29T13:42:12.999Z</time></trkpt><trkpt lat="41.575835717190486" lon="19.947886160476585"><ele>643.0</ele><time>2026-04-29T13:42:14.999Z</time></trkpt><trkpt lat="41.57586398723136" lon="19.947803998431"><ele>643.0</ele><time>2026-04-29T13:42:17Z</time></trkpt><trkpt lat="41.5759565473489" lon="19.947809156887278"><ele>643.0</ele><time>2026-04-29T13:42:19Z</time></trkpt><trkpt lat="41.57600286510055" lon="19.947968344384922"><ele>643.0</ele><time>2026-04-29T13:42:21Z</time></trkpt><trkpt lat="41.57604928918985" lon="19.94803657639448"><ele>643.0</ele><time>2026-04-29T13:42:22Z</time></trkpt><trkpt lat="41.57612569243802" lon="19.948130905613926"><ele>643.0</ele><time>2026-04-29T13:42:23Z</time></trkpt><trkpt lat="41.57618019578358" lon="19.948203709432747"><ele>643.0</ele><time>2026-04-29T13:42:24Z</time></trkpt><trkpt lat="41.57624349359795" lon="19.94827430786004"><ele>642.0</ele><time>2026-04-29T13:42:25Z</time></trkpt><trkpt lat="41.57631269495114" lon="19.948332087956064"><ele>641.0</ele><time>2026-04-29T13:42:26Z</time></trkpt><trkpt lat="41.57639721205161" lon="19.94839217611756"><ele>640.0</ele><time>2026-04-29T13:42:27Z</time></trkpt><trkpt lat="41.57648640609637" lon="19.94845439214563"><ele>639.0</ele><time>2026-04-29T13:42:28Z</time></trkpt><trkpt lat="41.57656564248945" lon="19.948508701754594"><ele>638.0</ele><time>2026-04-29T13:42:29Z</time></trkpt><trkpt lat="41.57664100573058" lon="19.948565308879196"><ele>635.1666666666666</ele><time>2026-04-29T13:42:30Z</time></trkpt><trkpt lat="41.576707030637536" lon="19.948620630805774"><ele>632.3333333333333</ele><time>2026-04-29T13:42:31Z</time></trkpt><trkpt lat="41.57677125349201" lon="19.948705423723457"><ele>629.5</ele><time>2026-04-29T13:42:32Z</time></trkpt><trkpt lat="41.576834357564664" lon="19.94876739147363"><ele>626.6666666666666</ele><time>2026-04-29T13:42:33Z</time></trkpt><trkpt lat="41.576898880593994" lon="19.94883102845967"><ele>623.8333333333334</ele><time>2026-04-29T13:42:34Z</time></trkpt><trkpt lat="41.57699479638847" lon="19.948843191194968"><ele>621.0</ele><time>2026-04-29T13:42:35Z</time></trkpt><trkpt lat="41.57706414866734" lon="19.948860267294563"><ele>621.0</ele><time>2026-04-29T13:42:36Z</time></trkpt><trkpt lat="41.57715902663065" lon="19.94886921115167"><ele>621.0</ele><time>2026-04-29T13:42:37Z</time></trkpt><trkpt lat="41.57725664786313" lon="19.94888664518269"><ele>621.0</ele><time>2026-04-29T13:42:38Z</time></trkpt><trkpt lat="41.577348856612005" lon="19.948906470718253"><ele>621.0</ele><time>2026-04-29T13:42:39Z</time></trkpt><trkpt lat="41.57745320363577" lon="19.94891487242422"><ele>621.0</ele><time>2026-04-29T13:42:40Z</time></trkpt><trkpt lat="41.577563008429976" lon="19.948916420394898"><ele>621.0</ele><time>2026-04-29T13:42:41Z</time></trkpt><trkpt lat="41.577665022738145" lon="19.94891193595631"><ele>621.0</ele><time>2026-04-29T13:42:42Z</time></trkpt><trkpt lat="41.577756235337375" lon="19.948920098535996"><ele>621.0</ele><time>2026-04-29T13:42:43Z</time></trkpt><trkpt lat="41.57784570076117" lon="19.94894772284193"><ele>621.0</ele><time>2026-04-29T13:42:44Z</time></trkpt><trkpt lat="41.57794361612601" lon="19.94892821979597"><ele>621.0</ele><time>2026-04-29T13:42:45Z</time></trkpt><trkpt lat="41.578015306934866" lon="19.94895234596894"><ele>620.3333333333334</ele><time>2026-04-29T13:42:46Z</time></trkpt><trkpt lat="41.57810332712518" lon="19.948935062474423"><ele>619.6666666666666</ele><time>2026-04-29T13:42:47Z</time></trkpt><trkpt lat="41.57819043902902" lon="19.94893986525796"><ele>619.0</ele><time>2026-04-29T13:42:48Z</time></trkpt><trkpt lat="41.57826434665146" lon="19.948940222713524"><ele>618.3333333333333</ele><time>2026-04-29T13:42:49Z</time></trkpt><trkpt lat="41.5783319871658" lon="19.948959423155074"><ele>617.6666666666666</ele><time>2026-04-29T13:42:50Z</time></trkpt><trkpt lat="41.57839835476698" lon="19.94894360869002"><ele>617.0</ele><time>2026-04-29T13:42:51Z</time></trkpt><trkpt lat="41.578481936214295" lon="19.94900599492262"><ele>617.0</ele><time>2026-04-29T13:42:53Z</time></trkpt><trkpt lat="41.57846896715665" lon="19.94911106541513"><ele>617.0</ele><time>2026-04-29T13:42:55Z</time></trkpt><trkpt lat="41.57839083366887" lon="19.949156365069086"><ele>617.0</ele><time>2026-04-29T13:42:57Z</time></trkpt><trkpt lat="41.57827276546225" lon="19.949149264749614"><ele>617.0</ele><time>2026-04-29T13:42:59Z</time></trkpt><trkpt lat="41.57819203553794" lon="19.94915630037231"><ele>617.0</ele><time>2026-04-29T13:43:00Z</time></trkpt><trkpt lat="41.578114921557976" lon="19.949161897277513"><ele>617.0</ele><time>2026-04-29T13:43:01Z</time></trkpt><trkpt lat="41.578037984851456" lon="19.94928427705232"><ele>615.0</ele><time>2026-04-29T13:43:02Z</time></trkpt><trkpt lat="41.57795663534215" lon="19.949370515515646"><ele>613.0</ele><time>2026-04-29T13:43:03Z</time></trkpt><trkpt lat="41.57788085161648" lon="19.949465989720302"><ele>611.0</ele><time>2026-04-29T13:43:04Z</time></trkpt><trkpt lat="41.57782144665741" lon="19.949539082221925"><ele>609.0</ele><time>2026-04-29T13:43:05Z</time></trkpt><trkpt lat="41.577768133457575" lon="19.949598531864893"><ele>607.0</ele><time>2026-04-29T13:43:06Z</time></trkpt><trkpt lat="41.57769381869885" lon="19.949611233094288"><ele>605.0</ele><time>2026-04-29T13:43:07Z</time></trkpt><trkpt lat="41.57762618325546" lon="19.94964267988442"><ele>605.0</ele><time>2026-04-29T13:43:08Z</time></trkpt><trkpt lat="41.577563017394276" lon="19.94968160507741"><ele>605.0</ele><time>2026-04-29T13:43:09Z</time></trkpt><trkpt lat="41.577502579284385" lon="19.949715961377684"><ele>605.0</ele><time>2026-04-29T13:43:10Z</time></trkpt><trkpt lat="41.577448727693245" lon="19.949775081037227"><ele>605.0</ele><time>2026-04-29T13:43:11Z</time></trkpt><trkpt lat="41.577406044738595" lon="19.949851407134027"><ele>605.0</ele><time>2026-04-29T13:43:12Z</time></trkpt><trkpt lat="41.57738411043993" lon="19.949939632902137"><ele>605.0</ele><time>2026-04-29T13:43:13Z</time></trkpt><trkpt lat="41.57736635590474" lon="19.950023152918007"><ele>605.0</ele><time>2026-04-29T13:43:14Z</time></trkpt><trkpt lat="41.577402324896205" lon="19.950117673839763"><ele>602.0</ele><time>2026-04-29T13:43:15Z</time></trkpt><trkpt lat="41.577423791265005" lon="19.950205666527385"><ele>599.0</ele><time>2026-04-29T13:43:15.999Z</time></trkpt><trkpt lat="41.57745728382044" lon="19.950283425169932"><ele>596.0</ele><time>2026-04-29T13:43:16.999Z</time></trkpt><trkpt lat="41.57753707773945" lon="19.950359850765757"><ele>593.0</ele><time>2026-04-29T13:43:17.999Z</time></trkpt><trkpt lat="41.57760824644237" lon="19.950428308295386"><ele>590.0</ele><time>2026-04-29T13:43:18.999Z</time></trkpt><trkpt lat="41.57770066329626" lon="19.950470534188206"><ele>587.0</ele><time>2026-04-29T13:43:19.999Z</time></trkpt><trkpt lat="41.577780791277945" lon="19.950502935125023"><ele>586.6666666666666</ele><time>2026-04-29T13:43:20.999Z</time></trkpt><trkpt lat="41.57787667538213" lon="19.9505379271857"><ele>586.3333333333333</ele><time>2026-04-29T13:43:21.999Z</time></trkpt><trkpt lat="41.57796711508923" lon="19.950567369869944"><ele>586.0</ele><time>2026-04-29T13:43:22.999Z</time></trkpt><trkpt lat="41.5780534068387" lon="19.95059546212969"><ele>585.6666666666666</ele><time>2026-04-29T13:43:23.999Z</time></trkpt><trkpt lat="41.57812408904803" lon="19.950620395555674"><ele>585.3333333333334</ele><time>2026-04-29T13:43:24.999Z</time></trkpt><trkpt lat="41.57819651635563" lon="19.95064532085159"><ele>585.0</ele><time>2026-04-29T13:43:25.999Z</time></trkpt><trkpt lat="41.57827235615706" lon="19.950661788701247"><ele>585.0</ele><time>2026-04-29T13:43:26.999Z</time></trkpt><trkpt lat="41.578406971534974" lon="19.950673350993195"><ele>585.0</ele><time>2026-04-29T13:43:28.999Z</time></trkpt><trkpt lat="41.57847838292919" lon="19.95061566814067"><ele>585.0</ele><time>2026-04-29T13:43:29.999Z</time></trkpt><trkpt lat="41.578529947201865" lon="19.950442515816473"><ele>585.0</ele><time>2026-04-29T13:43:31.999Z</time></trkpt><trkpt lat="41.5784810589391" lon="19.950318161886916"><ele>585.0</ele><time>2026-04-29T13:43:32.999Z</time></trkpt><trkpt lat="41.57850872969719" lon="19.950210184228318"><ele>585.0</ele><time>2026-04-29T13:43:33.999Z</time></trkpt><trkpt lat="41.57851529808403" lon="19.95011569803594"><ele>585.0</ele><time>2026-04-29T13:43:34.999Z</time></trkpt><trkpt lat="41.57859722644968" lon="19.95000447679856"><ele>585.0</ele><time>2026-04-29T13:43:36.999Z</time></trkpt><trkpt lat="41.5786780369584" lon="19.950019267686603"><ele>585.0</ele><time>2026-04-29T13:43:37.999Z</time></trkpt><trkpt lat="41.57877264083962" lon="19.94997334609391"><ele>585.0</ele><time>2026-04-29T13:43:38.999Z</time></trkpt><trkpt lat="41.57886239903551" lon="19.94989773137707"><ele>585.0</ele><time>2026-04-29T13:43:39.999Z</time></trkpt><trkpt lat="41.57895116124942" lon="19.949840875836944"><ele>585.0</ele><time>2026-04-29T13:43:40.999Z</time></trkpt><trkpt lat="41.57903889042696" lon="19.949766858899725"><ele>585.0</ele><time>2026-04-29T13:43:41.999Z</time></trkpt><trkpt lat="41.57912638597695" lon="19.94969691307567"><ele>585.0</ele><time>2026-04-29T13:43:42.999Z</time></trkpt><trkpt lat="41.57920852913961" lon="19.949683158538875"><ele>585.0</ele><time>2026-04-29T13:43:43.999Z</time></trkpt><trkpt lat="41.57930429952887" lon="19.949636688564556"><ele>585.0</ele><time>2026-04-29T13:43:44.999Z</time></trkpt><trkpt lat="41.57939371148643" lon="19.949574366794696"><ele>585.0</ele><time>2026-04-29T13:43:45.999Z</time></trkpt><trkpt lat="41.57947886180227" lon="19.949531685096684"><ele>585.0</ele><time>2026-04-29T13:43:46.999Z</time></trkpt><trkpt lat="41.57955184042047" lon="19.949530207157267"><ele>585.0</ele><time>2026-04-29T13:43:47.999Z</time></trkpt><trkpt lat="41.579638979426306" lon="19.949512671696503"><ele>581.6666666666666</ele><time>2026-04-29T13:43:48.999Z</time></trkpt><trkpt lat="41.57972373365086" lon="19.949478359563457"><ele>578.3333333333334</ele><time>2026-04-29T13:43:49.999Z</time></trkpt><trkpt lat="41.579794420816775" lon="19.94953785017709"><ele>575.0</ele><time>2026-04-29T13:43:50.999Z</time></trkpt><trkpt lat="41.5798655796301" lon="19.94955499950208"><ele>571.6666666666667</ele><time>2026-04-29T13:43:51.999Z</time></trkpt><trkpt lat="41.579940577361235" lon="19.94959777487943"><ele>568.3333333333334</ele><time>2026-04-29T13:43:52.999Z</time></trkpt><trkpt lat="41.58003970072246" lon="19.949637397412413"><ele>565.0</ele><time>2026-04-29T13:43:53.999Z</time></trkpt><trkpt lat="41.580116903556295" lon="19.949655977464328"><ele>565.0</ele><time>2026-04-29T13:43:54.999Z</time></trkpt><trkpt lat="41.58021574564794" lon="19.949635741522805"><ele>565.0</ele><time>2026-04-29T13:43:55.999Z</time></trkpt><trkpt lat="41.580290754848164" lon="19.9495772970872"><ele>565.0</ele><time>2026-04-29T13:43:56.999Z</time></trkpt><trkpt lat="41.5803633555347" lon="19.949581198294318"><ele>565.0</ele><time>2026-04-29T13:43:57.999Z</time></trkpt><trkpt lat="41.58044104017165" lon="19.949585372655182"><ele>565.0</ele><time>2026-04-29T13:43:58.999Z</time></trkpt><trkpt lat="41.58051559143583" lon="19.94965827523601"><ele>565.0</ele><time>2026-04-29T13:43:59.999Z</time></trkpt><trkpt lat="41.58062038443798" lon="19.94971364941792"><ele>564.0</ele><time>2026-04-29T13:44:00.999Z</time></trkpt><trkpt lat="41.580696014218624" lon="19.94975275217564"><ele>563.0</ele><time>2026-04-29T13:44:01.999Z</time></trkpt><trkpt lat="41.58078653743772" lon="19.94980005399729"><ele>562.0</ele><time>2026-04-29T13:44:02.999Z</time></trkpt><trkpt lat="41.58089671251827" lon="19.949821130040643"><ele>561.0</ele><time>2026-04-29T13:44:03.999Z</time></trkpt><trkpt lat="41.58098112466368" lon="19.94984599549453"><ele>560.0</ele><time>2026-04-29T13:44:04.999Z</time></trkpt><trkpt lat="41.58107136052092" lon="19.94987661910442"><ele>560.0</ele><time>2026-04-29T13:44:05.999Z</time></trkpt><trkpt lat="41.58114473474917" lon="19.949908060869046"><ele>560.0</ele><time>2026-04-29T13:44:06.999Z</time></trkpt><trkpt lat="41.58120711902917" lon="19.949948314352703"><ele>560.0</ele><time>2026-04-29T13:44:07.999Z</time></trkpt><trkpt lat="41.58128496142363" lon="19.95005732024581"><ele>560.0</ele><time>2026-04-29T13:44:09.999Z</time></trkpt><trkpt lat="41.581255464022" lon="19.950156411432456"><ele>560.0</ele><time>2026-04-29T13:44:10.999Z</time></trkpt><trkpt lat="41.58124542269424" lon="19.950242789764225"><ele>560.0</ele><time>2026-04-29T13:44:11.999Z</time></trkpt><trkpt lat="41.581326473876835" lon="19.950358407640177"><ele>560.0</ele><time>2026-04-29T13:44:12.999Z</time></trkpt><trkpt lat="41.58133631961754" lon="19.95046091689636"><ele>560.0</ele><time>2026-04-29T13:44:13.999Z</time></trkpt><trkpt lat="41.581349048764274" lon="19.950547033236493"><ele>560.0</ele><time>2026-04-29T13:44:14.999Z</time></trkpt><trkpt lat="41.581348944583844" lon="19.950656084909497"><ele>560.0</ele><time>2026-04-29T13:44:15.999Z</time></trkpt><trkpt lat="41.58134741624604" lon="19.950779402652206"><ele>560.0</ele><time>2026-04-29T13:44:16.999Z</time></trkpt><trkpt lat="41.58134686173103" lon="19.9508827635391"><ele>560.0</ele><time>2026-04-29T13:44:17.999Z</time></trkpt><trkpt lat="41.58137729059184" lon="19.95099662994086"><ele>557.6</ele><time>2026-04-29T13:44:18.999Z</time></trkpt><trkpt lat="41.58142082285591" lon="19.951115408359055"><ele>555.2</ele><time>2026-04-29T13:44:19.999Z</time></trkpt><trkpt lat="41.58147594325699" lon="19.951237688649385"><ele>552.8</ele><time>2026-04-29T13:44:20.999Z</time></trkpt><trkpt lat="41.581533783791585" lon="19.951331822933632"><ele>550.4</ele><time>2026-04-29T13:44:22Z</time></trkpt><trkpt lat="41.58159431294808" lon="19.95137320351328"><ele>548.0</ele><time>2026-04-29T13:44:23Z</time></trkpt><trkpt lat="41.58164524180549" lon="19.951465890458568"><ele>548.0</ele><time>2026-04-29T13:44:25Z</time></trkpt><trkpt lat="41.58163525516284" lon="19.95156909025648"><ele>548.0</ele><time>2026-04-29T13:44:27Z</time></trkpt><trkpt lat="41.58155015065364" lon="19.95158357103003"><ele>548.0</ele><time>2026-04-29T13:44:29Z</time></trkpt><trkpt lat="41.581449842716324" lon="19.95148828512266"><ele>548.0</ele><time>2026-04-29T13:44:31Z</time></trkpt><trkpt lat="41.58140467738103" lon="19.951410780029324"><ele>548.0</ele><time>2026-04-29T13:44:32Z</time></trkpt><trkpt lat="41.581380390435896" lon="19.951309812403093"><ele>548.0</ele><time>2026-04-29T13:44:33Z</time></trkpt><trkpt lat="41.58135359222775" lon="19.95118878548026"><ele>548.0</ele><time>2026-04-29T13:44:34Z</time></trkpt><trkpt lat="41.58131685355893" lon="19.95108568545577"><ele>548.0</ele><time>2026-04-29T13:44:35Z</time></trkpt><trkpt lat="41.58128768114238" lon="19.950984883546845"><ele>548.0</ele><time>2026-04-29T13:44:36Z</time></trkpt><trkpt lat="41.58125740215634" lon="19.950890268143414"><ele>548.0</ele><time>2026-04-29T13:44:37Z</time></trkpt><trkpt lat="41.58123112974492" lon="19.95079085144448"><ele>548.0</ele><time>2026-04-29T13:44:38Z</time></trkpt><trkpt lat="41.58120445632405" lon="19.950694624514345"><ele>548.0</ele><time>2026-04-29T13:44:39Z</time></trkpt><trkpt lat="41.58117816275678" lon="19.950599768499583"><ele>545.5</ele><time>2026-04-29T13:44:40Z</time></trkpt><trkpt lat="41.58114619055772" lon="19.95051493988214"><ele>543.0</ele><time>2026-04-29T13:44:41Z</time></trkpt><trkpt lat="41.58111370041588" lon="19.95042747792474"><ele>540.5</ele><time>2026-04-29T13:44:42Z</time></trkpt><trkpt lat="41.58106883797123" lon="19.950337642952082"><ele>538.0</ele><time>2026-04-29T13:44:43Z</time></trkpt><trkpt lat="41.58102067694563" lon="19.950254618561168"><ele>535.5</ele><time>2026-04-29T13:44:44Z</time></trkpt><trkpt lat="41.580972917747495" lon="19.950198436369096"><ele>533.0</ele><time>2026-04-29T13:44:45Z</time></trkpt><trkpt lat="41.580850648888784" lon="19.950149427412743"><ele>533.0</ele><time>2026-04-29T13:44:47Z</time></trkpt><trkpt lat="41.58077083378565" lon="19.950162524859152"><ele>533.0</ele><time>2026-04-29T13:44:48Z</time></trkpt><trkpt lat="41.580674559414845" lon="19.950171904902817"><ele>533.0</ele><time>2026-04-29T13:44:49Z</time></trkpt><trkpt lat="41.58056369725487" lon="19.95018295223105"><ele>533.0</ele><time>2026-04-29T13:44:50Z</time></trkpt><trkpt lat="41.580456331014254" lon="19.950192264971424"><ele>533.0</ele><time>2026-04-29T13:44:51Z</time></trkpt><trkpt lat="41.58035975975742" lon="19.950188237145653"><ele>533.4</ele><time>2026-04-29T13:44:52Z</time></trkpt><trkpt lat="41.58025936391878" lon="19.950185044679685"><ele>533.8</ele><time>2026-04-29T13:44:53Z</time></trkpt><trkpt lat="41.58015780078258" lon="19.950208118926756"><ele>534.2</ele><time>2026-04-29T13:44:54Z</time></trkpt><trkpt lat="41.58008463342854" lon="19.950234165562012"><ele>534.6</ele><time>2026-04-29T13:44:55Z</time></trkpt><trkpt lat="41.579987899089865" lon="19.9502857892745"><ele>535.0</ele><time>2026-04-29T13:44:56Z</time></trkpt><trkpt lat="41.57989729005667" lon="19.950341884923166"><ele>535.0</ele><time>2026-04-29T13:44:57Z</time></trkpt><trkpt lat="41.57982380987449" lon="19.950396249890442"><ele>535.0</ele><time>2026-04-29T13:44:58Z</time></trkpt><trkpt lat="41.57975847973694" lon="19.950452987546672"><ele>535.0</ele><time>2026-04-29T13:44:59Z</time></trkpt><trkpt lat="41.57970351187808" lon="19.950502016684165"><ele>535.0</ele><time>2026-04-29T13:45:00Z</time></trkpt><trkpt lat="41.57967580212712" lon="19.9506625805738"><ele>535.0</ele><time>2026-04-29T13:45:02Z</time></trkpt><trkpt lat="41.57972884781976" lon="19.95073812445039"><ele>535.0</ele><time>2026-04-29T13:45:03Z</time></trkpt><trkpt lat="41.57978516762348" lon="19.950813398612443"><ele>531.1666666666667</ele><time>2026-04-29T13:45:04Z</time></trkpt><trkpt lat="41.57980709563432" lon="19.95090294757094"><ele>527.3333333333334</ele><time>2026-04-29T13:45:05Z</time></trkpt><trkpt lat="41.579833867973" lon="19.95099202880071"><ele>523.5</ele><time>2026-04-29T13:45:05.999Z</time></trkpt><trkpt lat="41.57979320076258" lon="19.95112825355513"><ele>519.6666666666666</ele><time>2026-04-29T13:45:07.999Z</time></trkpt><trkpt lat="41.57976842599326" lon="19.951233626808072"><ele>515.8333333333333</ele><time>2026-04-29T13:45:08.999Z</time></trkpt><trkpt lat="41.57968314990314" lon="19.9513332085562"><ele>512.0</ele><time>2026-04-29T13:45:09.999Z</time></trkpt><trkpt lat="41.57962273417431" lon="19.95142662462651"><ele>512.0</ele><time>2026-04-29T13:45:10.999Z</time></trkpt><trkpt lat="41.57955712494641" lon="19.951489453726982"><ele>512.0</ele><time>2026-04-29T13:45:11.999Z</time></trkpt><trkpt lat="41.579476700487156" lon="19.951552384085772"><ele>512.0</ele><time>2026-04-29T13:45:12.999Z</time></trkpt><trkpt lat="41.579383695516405" lon="19.95162694464188"><ele>512.0</ele><time>2026-04-29T13:45:13.999Z</time></trkpt><trkpt lat="41.57927010639393" lon="19.951712847547764"><ele>512.0</ele><time>2026-04-29T13:45:14.999Z</time></trkpt><trkpt lat="41.57915461564451" lon="19.951799050728354"><ele>510.5</ele><time>2026-04-29T13:45:15.999Z</time></trkpt><trkpt lat="41.579061615135984" lon="19.95186670108306"><ele>509.0</ele><time>2026-04-29T13:45:16.999Z</time></trkpt><trkpt lat="41.5789692341363" lon="19.951959998491848"><ele>507.5</ele><time>2026-04-29T13:45:17.999Z</time></trkpt><trkpt lat="41.5788557921671" lon="19.95201903381293"><ele>506.0</ele><time>2026-04-29T13:45:18.999Z</time></trkpt><trkpt lat="41.578751898628525" lon="19.952099753018366"><ele>508.0</ele><time>2026-04-29T13:45:19.999Z</time></trkpt><trkpt lat="41.57866638658132" lon="19.952189218851718"><ele>510.0</ele><time>2026-04-29T13:45:20.999Z</time></trkpt><trkpt lat="41.57857230104976" lon="19.95226212422485"><ele>512.0</ele><time>2026-04-29T13:45:21.999Z</time></trkpt><trkpt lat="41.578487498481934" lon="19.952323284292067"><ele>514.0</ele><time>2026-04-29T13:45:22.999Z</time></trkpt><trkpt lat="41.57840256912888" lon="19.95238319722035"><ele>516.0</ele><time>2026-04-29T13:45:23.999Z</time></trkpt><trkpt lat="41.578321094101604" lon="19.952443264614566"><ele>516.0</ele><time>2026-04-29T13:45:24.999Z</time></trkpt><trkpt lat="41.5782508273464" lon="19.952465360384988"><ele>516.0</ele><time>2026-04-29T13:45:25.999Z</time></trkpt><trkpt lat="41.57818442015452" lon="19.952467442782897"><ele>516.0</ele><time>2026-04-29T13:45:26.999Z</time></trkpt><trkpt lat="41.57810696498198" lon="19.952454369731424"><ele>516.0</ele><time>2026-04-29T13:45:27.999Z</time></trkpt><trkpt lat="41.57803055632777" lon="19.95242488114548"><ele>516.0</ele><time>2026-04-29T13:45:28.999Z</time></trkpt><trkpt lat="41.57794192238036" lon="19.95240797022393"><ele>516.0</ele><time>2026-04-29T13:45:29.999Z</time></trkpt><trkpt lat="41.57785650608416" lon="19.952426796003486"><ele>516.5</ele><time>2026-04-29T13:45:30.999Z</time></trkpt><trkpt lat="41.57777120430863" lon="19.952476058926734"><ele>517.0</ele><time>2026-04-29T13:45:31.999Z</time></trkpt><trkpt lat="41.57769293225363" lon="19.952534313276953"><ele>517.5</ele><time>2026-04-29T13:45:32.999Z</time></trkpt><trkpt lat="41.57761595884837" lon="19.952582415336387"><ele>518.0</ele><time>2026-04-29T13:45:33.999Z</time></trkpt><trkpt lat="41.57754127863596" lon="19.952612747347832"><ele>518.5</ele><time>2026-04-29T13:45:34.999Z</time></trkpt><trkpt lat="41.57746722602525" lon="19.95259575531394"><ele>519.0</ele><time>2026-04-29T13:45:35.999Z</time></trkpt><trkpt lat="41.57736982870318" lon="19.95260563969722"><ele>519.0</ele><time>2026-04-29T13:45:36.999Z</time></trkpt><trkpt lat="41.577268359347435" lon="19.952572686147015"><ele>519.0</ele><time>2026-04-29T13:45:37.999Z</time></trkpt><trkpt lat="41.57717006712413" lon="19.95253970619096"><ele>519.0</ele><time>2026-04-29T13:45:38.999Z</time></trkpt><trkpt lat="41.57708239495115" lon="19.952528452772015"><ele>519.0</ele><time>2026-04-29T13:45:39.999Z</time></trkpt><trkpt lat="41.57698964521091" lon="19.95250452197397"><ele>519.0</ele><time>2026-04-29T13:45:40.999Z</time></trkpt><trkpt lat="41.57690491111948" lon="19.952480023090523"><ele>521.6</ele><time>2026-04-29T13:45:41.999Z</time></trkpt><trkpt lat="41.57682575572558" lon="19.952457165162315"><ele>524.2</ele><time>2026-04-29T13:45:42.999Z</time></trkpt><trkpt lat="41.57671938955604" lon="19.952577681937566"><ele>526.8000000000001</ele><time>2026-04-29T13:45:44.999Z</time></trkpt><trkpt lat="41.57666010959059" lon="19.952628483776998"><ele>529.4</ele><time>2026-04-29T13:45:45.999Z</time></trkpt><trkpt lat="41.576634373065886" lon="19.952758104313713"><ele>532.0</ele><time>2026-04-29T13:45:46.999Z</time></trkpt><trkpt lat="41.57657774151713" lon="19.952841706214713"><ele>530.0</ele><time>2026-04-29T13:45:47.999Z</time></trkpt><trkpt lat="41.57651805909311" lon="19.952911406591504"><ele>528.0</ele><time>2026-04-29T13:45:48.999Z</time></trkpt><trkpt lat="41.57644221226492" lon="19.95299526945006"><ele>526.0</ele><time>2026-04-29T13:45:49.999Z</time></trkpt><trkpt lat="41.57634122894773" lon="19.953089022534556"><ele>524.0</ele><time>2026-04-29T13:45:50.999Z</time></trkpt><trkpt lat="41.57623064238764" lon="19.953135761100235"><ele>522.0</ele><time>2026-04-29T13:45:51.999Z</time></trkpt><trkpt lat="41.57615223664955" lon="19.953203998986687"><ele>522.0</ele><time>2026-04-29T13:45:52.999Z</time></trkpt><trkpt lat="41.57609254630464" lon="19.953279616059554"><ele>522.0</ele><time>2026-04-29T13:45:53.999Z</time></trkpt><trkpt lat="41.576021437230324" lon="19.95332013488904"><ele>522.0</ele><time>2026-04-29T13:45:54.999Z</time></trkpt><trkpt lat="41.57597326945002" lon="19.95343884787748"><ele>522.0</ele><time>2026-04-29T13:45:55.999Z</time></trkpt><trkpt lat="41.57592758012177" lon="19.953571205418314"><ele>522.0</ele><time>2026-04-29T13:45:56.999Z</time></trkpt><trkpt lat="41.57589816562717" lon="19.95367949492928"><ele>515.0</ele><time>2026-04-29T13:45:57.999Z</time></trkpt><trkpt lat="41.57585767327893" lon="19.953751449481263"><ele>508.00000000000006</ele><time>2026-04-29T13:45:58.999Z</time></trkpt><trkpt lat="41.57579664346709" lon="19.953808823928902"><ele>501.00000000000006</ele><time>2026-04-29T13:45:59.999Z</time></trkpt><trkpt lat="41.57571407419953" lon="19.95387533972053"><ele>494.0</ele><time>2026-04-29T13:46:00.999Z</time></trkpt><trkpt lat="41.57561349233602" lon="19.953933514477953"><ele>487.0</ele><time>2026-04-29T13:46:01.999Z</time></trkpt><trkpt lat="41.57550926100706" lon="19.953997372585867"><ele>487.00000000000006</ele><time>2026-04-29T13:46:02.999Z</time></trkpt><trkpt lat="41.57542922232758" lon="19.954035392212138"><ele>487.0</ele><time>2026-04-29T13:46:03.999Z</time></trkpt><trkpt lat="41.575339559268585" lon="19.954068675782807"><ele>487.0</ele><time>2026-04-29T13:46:04.999Z</time></trkpt><trkpt lat="41.57526138372" lon="19.95408493390636"><ele>487.0</ele><time>2026-04-29T13:46:05.999Z</time></trkpt><trkpt lat="41.57519791061956" lon="19.954076648596292"><ele>487.00000000000006</ele><time>2026-04-29T13:46:06.999Z</time></trkpt><trkpt lat="41.57509362022206" lon="19.954028600177878"><ele>487.0</ele><time>2026-04-29T13:46:08.999Z</time></trkpt><trkpt lat="41.57501262870321" lon="19.954024171783313"><ele>487.6</ele><time>2026-04-29T13:46:10.999Z</time></trkpt><trkpt lat="41.57497659262616" lon="19.95416142061873"><ele>488.20000000000005</ele><time>2026-04-29T13:46:12.999Z</time></trkpt><trkpt lat="41.57501976531174" lon="19.95432162306393"><ele>488.8</ele><time>2026-04-29T13:46:14.999Z</time></trkpt><trkpt lat="41.57508547152074" lon="19.9543677889065"><ele>489.4</ele><time>2026-04-29T13:46:15.999Z</time></trkpt><trkpt lat="41.5752023222419" lon="19.954327744260354"><ele>490.0</ele><time>2026-04-29T13:46:16.999Z</time></trkpt><trkpt lat="41.57529374006419" lon="19.954317472636088"><ele>489.25</ele><time>2026-04-29T13:46:17.999Z</time></trkpt><trkpt lat="41.57540358218416" lon="19.95429520652204"><ele>488.5</ele><time>2026-04-29T13:46:18.999Z</time></trkpt><trkpt lat="41.57551612116205" lon="19.954269570346085"><ele>487.75</ele><time>2026-04-29T13:46:19.999Z</time></trkpt><trkpt lat="41.57562459134015" lon="19.95420908046273"><ele>487.0</ele><time>2026-04-29T13:46:20.999Z</time></trkpt><trkpt lat="41.57572224760193" lon="19.954148096723966"><ele>487.00000000000006</ele><time>2026-04-29T13:46:21.999Z</time></trkpt><trkpt lat="41.57582475846304" lon="19.95410789932597"><ele>487.0</ele><time>2026-04-29T13:46:22.999Z</time></trkpt><trkpt lat="41.57592108595753" lon="19.95408652034177"><ele>487.0</ele><time>2026-04-29T13:46:23.999Z</time></trkpt><trkpt lat="41.5759882467596" lon="19.95402923043573"><ele>487.0</ele><time>2026-04-29T13:46:24.999Z</time></trkpt><trkpt lat="41.57605453718535" lon="19.953984660302094"><ele>487.00000000000006</ele><time>2026-04-29T13:46:25.999Z</time></trkpt><trkpt lat="41.57611810943157" lon="19.953950950640028"><ele>487.0</ele><time>2026-04-29T13:46:26.999Z</time></trkpt><trkpt lat="41.57616138112853" lon="19.953845578411872"><ele>482.83333333333337</ele><time>2026-04-29T13:46:28Z</time></trkpt><trkpt lat="41.576196948619234" lon="19.953742637851164"><ele>478.6666666666667</ele><time>2026-04-29T13:46:29Z</time></trkpt><trkpt lat="41.57624091084203" lon="19.953659926067022"><ele>474.5</ele><time>2026-04-29T13:46:30Z</time></trkpt><trkpt lat="41.57630666411942" lon="19.953607324183245"><ele>470.33333333333337</ele><time>2026-04-29T13:46:31Z</time></trkpt><trkpt lat="41.576404251873065" lon="19.953570410363483"><ele>466.1666666666667</ele><time>2026-04-29T13:46:32Z</time></trkpt><trkpt lat="41.576514246285434" lon="19.95355779573303"><ele>462.0</ele><time>2026-04-29T13:46:33Z</time></trkpt><trkpt lat="41.576597143720974" lon="19.95353738454484"><ele>462.0</ele><time>2026-04-29T13:46:34Z</time></trkpt><trkpt lat="41.57665956772891" lon="19.95347782118216"><ele>462.0</ele><time>2026-04-29T13:46:35Z</time></trkpt><trkpt lat="41.576718232697175" lon="19.95338076761712"><ele>462.0</ele><time>2026-04-29T13:46:36Z</time></trkpt><trkpt lat="41.576790764030505" lon="19.95327087857785"><ele>462.0</ele><time>2026-04-29T13:46:37Z</time></trkpt><trkpt lat="41.57685395572364" lon="19.953182965211603"><ele>462.0</ele><time>2026-04-29T13:46:38Z</time></trkpt><trkpt lat="41.57691088215132" lon="19.95312660877134"><ele>462.0</ele><time>2026-04-29T13:46:39Z</time></trkpt><trkpt lat="41.57697791240567" lon="19.95311042079899"><ele>460.3333333333333</ele><time>2026-04-29T13:46:40Z</time></trkpt><trkpt lat="41.57704236599439" lon="19.95307755471628"><ele>458.66666666666663</ele><time>2026-04-29T13:46:41Z</time></trkpt><trkpt lat="41.57712677747919" lon="19.95315889783212"><ele>457.0</ele><time>2026-04-29T13:46:42Z</time></trkpt><trkpt lat="41.57720293795568" lon="19.95323775972689"><ele>455.3333333333333</ele><time>2026-04-29T13:46:43Z</time></trkpt><trkpt lat="41.57726850324198" lon="19.953316302354654"><ele>453.66666666666663</ele><time>2026-04-29T13:46:44Z</time></trkpt><trkpt lat="41.57732964114594" lon="19.953389578200106"><ele>452.0</ele><time>2026-04-29T13:46:45Z</time></trkpt><trkpt lat="41.57738408251472" lon="19.953454955768684"><ele>452.0</ele><time>2026-04-29T13:46:46Z</time></trkpt><trkpt lat="41.577466070906894" lon="19.953607732124162"><ele>452.0</ele><time>2026-04-29T13:46:48Z</time></trkpt><trkpt lat="41.577504004759724" lon="19.95369312404643"><ele>452.0</ele><time>2026-04-29T13:46:49Z</time></trkpt><trkpt lat="41.577544077964085" lon="19.953769406312635"><ele>452.0</ele><time>2026-04-29T13:46:50Z</time></trkpt><trkpt lat="41.577691067842544" lon="19.953883429297793"><ele>452.0</ele><time>2026-04-29T13:46:52Z</time></trkpt><trkpt lat="41.577797026953576" lon="19.953900990078033"><ele>452.00000000000006</ele><time>2026-04-29T13:46:54Z</time></trkpt><trkpt lat="41.577870098877284" lon="19.953763673887124"><ele>452.00000000000006</ele><time>2026-04-29T13:46:55Z</time></trkpt><trkpt lat="41.577909859380405" lon="19.95366103099511"><ele>452.0</ele><time>2026-04-29T13:46:56Z</time></trkpt><trkpt lat="41.57794196860555" lon="19.95356293594285"><ele>452.0</ele><time>2026-04-29T13:46:57Z</time></trkpt><trkpt lat="41.578045033926" lon="19.95348123046414"><ele>450.8</ele><time>2026-04-29T13:46:59Z</time></trkpt><trkpt lat="41.57813591734677" lon="19.953570003881133"><ele>449.6</ele><time>2026-04-29T13:47:01Z</time></trkpt><trkpt lat="41.57823595707097" lon="19.953685109014902"><ele>448.40000000000003</ele><time>2026-04-29T13:47:03Z</time></trkpt><trkpt lat="41.578301434978094" lon="19.95376694103578"><ele>447.20000000000005</ele><time>2026-04-29T13:47:04Z</time></trkpt><trkpt lat="41.57837233092423" lon="19.95385612179263"><ele>446.0</ele><time>2026-04-29T13:47:04.999Z</time></trkpt><trkpt lat="41.5784633490521" lon="19.95388276516271"><ele>446.0</ele><time>2026-04-29T13:47:05.999Z</time></trkpt><trkpt lat="41.57853382255075" lon="19.95390907642119"><ele>446.0</ele><time>2026-04-29T13:47:06.999Z</time></trkpt><trkpt lat="41.57863086504658" lon="19.95385944090826"><ele>446.0</ele><time>2026-04-29T13:47:07.999Z</time></trkpt><trkpt lat="41.57874050276117" lon="19.953840552930888"><ele>446.0</ele><time>2026-04-29T13:47:08.999Z</time></trkpt><trkpt lat="41.578834950994924" lon="19.95382391136438"><ele>446.0</ele><time>2026-04-29T13:47:09.999Z</time></trkpt><trkpt lat="41.57891599573865" lon="19.953810025541955"><ele>445.8333333333333</ele><time>2026-04-29T13:47:10.999Z</time></trkpt><trkpt lat="41.57898931554349" lon="19.95381142467788"><ele>445.66666666666663</ele><time>2026-04-29T13:47:11.999Z</time></trkpt><trkpt lat="41.57905771722081" lon="19.95381695209288"><ele>445.5</ele><time>2026-04-29T13:47:12.999Z</time></trkpt><trkpt lat="41.57915931781462" lon="19.953884106987115"><ele>445.33333333333337</ele><time>2026-04-29T13:47:14.999Z</time></trkpt><trkpt lat="41.57921845133631" lon="19.953931445204724"><ele>445.1666666666667</ele><time>2026-04-29T13:47:15.999Z</time></trkpt><trkpt lat="41.57924943097795" lon="19.954013075481438"><ele>445.0</ele><time>2026-04-29T13:47:16.999Z</time></trkpt><trkpt lat="41.579296302598756" lon="19.954104275114048"><ele>445.00000000000006</ele><time>2026-04-29T13:47:17.999Z</time></trkpt><trkpt lat="41.57932666802163" lon="19.95420013273703"><ele>445.0</ele><time>2026-04-29T13:47:18.999Z</time></trkpt><trkpt lat="41.57935711121276" lon="19.954285596019666"><ele>445.0</ele><time>2026-04-29T13:47:19.999Z</time></trkpt><trkpt lat="41.57933985159297" lon="19.95442246668062"><ele>445.0</ele><time>2026-04-29T13:47:21.999Z</time></trkpt><trkpt lat="41.579329069323116" lon="19.954543916767857"><ele>445.00000000000006</ele><time>2026-04-29T13:47:22.999Z</time></trkpt><trkpt lat="41.57931796172577" lon="19.95467469462597"><ele>445.0</ele><time>2026-04-29T13:47:23.999Z</time></trkpt><trkpt lat="41.57930488433698" lon="19.954804991909754"><ele>443.0</ele><time>2026-04-29T13:47:24.999Z</time></trkpt><trkpt lat="41.57927539107643" lon="19.954945701059366"><ele>441.0</ele><time>2026-04-29T13:47:25.999Z</time></trkpt><trkpt lat="41.579243005113376" lon="19.95507897900477"><ele>439.0</ele><time>2026-04-29T13:47:26.999Z</time></trkpt><trkpt lat="41.579211834819475" lon="19.95519731965576"><ele>437.0</ele><time>2026-04-29T13:47:27.999Z</time></trkpt><trkpt lat="41.57918454538352" lon="19.9552996645779"><ele>435.0</ele><time>2026-04-29T13:47:28.999Z</time></trkpt><trkpt lat="41.57916019039071" lon="19.955380365994284"><ele>433.8333333333333</ele><time>2026-04-29T13:47:29.999Z</time></trkpt><trkpt lat="41.57913329462802" lon="19.955464250697148"><ele>432.66666666666663</ele><time>2026-04-29T13:47:30.999Z</time></trkpt><trkpt lat="41.57909863164056" lon="19.955554102356732"><ele>431.5</ele><time>2026-04-29T13:47:31.999Z</time></trkpt><trkpt lat="41.57906664589811" lon="19.955668646057443"><ele>430.3333333333333</ele><time>2026-04-29T13:47:32.999Z</time></trkpt><trkpt lat="41.579008533326" lon="19.955743306899947"><ele>429.16666666666663</ele><time>2026-04-29T13:47:33.999Z</time></trkpt><trkpt lat="41.57895549724977" lon="19.95580651806443"><ele>428.0</ele><time>2026-04-29T13:47:34.999Z</time></trkpt><trkpt lat="41.578909636020484" lon="19.955877950576966"><ele>425.8333333333333</ele><time>2026-04-29T13:47:35.999Z</time></trkpt><trkpt lat="41.578877941312896" lon="19.95595082276156"><ele>423.66666666666663</ele><time>2026-04-29T13:47:36.999Z</time></trkpt><trkpt lat="41.578882354820806" lon="19.956081074031687"><ele>421.5</ele><time>2026-04-29T13:47:38.999Z</time></trkpt><trkpt lat="41.57892633468078" lon="19.956212628497077"><ele>419.33333333333337</ele><time>2026-04-29T13:47:40.999Z</time></trkpt><trkpt lat="41.57897477455479" lon="19.956279903613638"><ele>417.1666666666667</ele><time>2026-04-29T13:47:41.999Z</time></trkpt><trkpt lat="41.57903752515081" lon="19.956316278880713"><ele>415.0</ele><time>2026-04-29T13:47:42.999Z</time></trkpt><trkpt lat="41.57911022754063" lon="19.95633253791421"><ele>415.00000000000006</ele><time>2026-04-29T13:47:43.999Z</time></trkpt><trkpt lat="41.579195408367774" lon="19.956335679327744"><ele>415.0</ele><time>2026-04-29T13:47:44.999Z</time></trkpt><trkpt lat="41.57929026280387" lon="19.956357726934336"><ele>415.0</ele><time>2026-04-29T13:47:45.999Z</time></trkpt><trkpt lat="41.57938854023176" lon="19.95635585035345"><ele>415.0</ele><time>2026-04-29T13:47:46.999Z</time></trkpt><trkpt lat="41.57946724579542" lon="19.956354347492145"><ele>415.00000000000006</ele><time>2026-04-29T13:47:47.999Z</time></trkpt><trkpt lat="41.57953108920581" lon="19.956343230184114"><ele>415.0</ele><time>2026-04-29T13:47:48.999Z</time></trkpt><trkpt lat="41.57964514243272" lon="19.95628871721744"><ele>413.00000000000006</ele><time>2026-04-29T13:47:50.999Z</time></trkpt><trkpt lat="41.57970821253057" lon="19.956200486743032"><ele>411.0</ele><time>2026-04-29T13:47:51.999Z</time></trkpt><trkpt lat="41.579753143029414" lon="19.956080138851444"><ele>409.0</ele><time>2026-04-29T13:47:52.999Z</time></trkpt><trkpt lat="41.57981000520917" lon="19.95601969877381"><ele>407.0</ele><time>2026-04-29T13:47:53.999Z</time></trkpt><trkpt lat="41.579877803847445" lon="19.955982340416327"><ele>405.00000000000006</ele><time>2026-04-29T13:47:54.999Z</time></trkpt><trkpt lat="41.579945013105956" lon="19.955932765073296"><ele>403.0</ele><time>2026-04-29T13:47:55.999Z</time></trkpt><trkpt lat="41.580004449181004" lon="19.955878776020825"><ele>405.6666666666667</ele><time>2026-04-29T13:47:56.999Z</time></trkpt><trkpt lat="41.58005707745246" lon="19.95582104419394"><ele>408.33333333333337</ele><time>2026-04-29T13:47:57.999Z</time></trkpt><trkpt lat="41.580097151961304" lon="19.955723991154503"><ele>411.0</ele><time>2026-04-29T13:47:58.999Z</time></trkpt><trkpt lat="41.580109546864485" lon="19.955590200436756"><ele>413.66666666666663</ele><time>2026-04-29T13:47:59.999Z</time></trkpt><trkpt lat="41.58011570572731" lon="19.955455644925923"><ele>416.3333333333333</ele><time>2026-04-29T13:48:00.999Z</time></trkpt><trkpt lat="41.58011993641981" lon="19.955342705225156"><ele>419.0</ele><time>2026-04-29T13:48:01.999Z</time></trkpt><trkpt lat="41.58012928935921" lon="19.955258227838456"><ele>418.99999999999994</ele><time>2026-04-29T13:48:02.999Z</time></trkpt><trkpt lat="41.580142006464264" lon="19.955168259100045"><ele>419.0</ele><time>2026-04-29T13:48:03.999Z</time></trkpt><trkpt lat="41.58018451573096" lon="19.95504741652791"><ele>419.0</ele><time>2026-04-29T13:48:05.999Z</time></trkpt><trkpt lat="41.58024985116823" lon="19.95506106275817"><ele>419.0</ele><time>2026-04-29T13:48:07.999Z</time></trkpt><trkpt lat="41.5803483823995" lon="19.955093586102432"><ele>418.99999999999994</ele><time>2026-04-29T13:48:09.999Z</time></trkpt><trkpt lat="41.58037827035535" lon="19.9551827760853"><ele>419.0</ele><time>2026-04-29T13:48:10.999Z</time></trkpt><trkpt lat="41.580411544804534" lon="19.95529816751631"><ele>418.79999999999995</ele><time>2026-04-29T13:48:11.999Z</time></trkpt><trkpt lat="41.580444883848024" lon="19.95543272575201"><ele>418.59999999999997</ele><time>2026-04-29T13:48:12.999Z</time></trkpt><trkpt lat="41.5804706164517" lon="19.955590257320257"><ele>418.4</ele><time>2026-04-29T13:48:13.999Z</time></trkpt><trkpt lat="41.580488659002604" lon="19.955736563723555"><ele>418.2</ele><time>2026-04-29T13:48:14.999Z</time></trkpt><trkpt lat="41.58049158121928" lon="19.955870458439104"><ele>418.0</ele><time>2026-04-29T13:48:15.999Z</time></trkpt><trkpt lat="41.58049035007822" lon="19.955989505804872"><ele>414.79999999999995</ele><time>2026-04-29T13:48:16.999Z</time></trkpt><trkpt lat="41.580477385197156" lon="19.956108756356244"><ele>411.6</ele><time>2026-04-29T13:48:17.999Z</time></trkpt><trkpt lat="41.58044866595067" lon="19.956221721625095"><ele>408.4</ele><time>2026-04-29T13:48:18.999Z</time></trkpt><trkpt lat="41.58041916506469" lon="19.95636781298094"><ele>405.20000000000005</ele><time>2026-04-29T13:48:19.999Z</time></trkpt><trkpt lat="41.58040268303612" lon="19.95652728676997"><ele>402.0</ele><time>2026-04-29T13:48:20.999Z</time></trkpt><trkpt lat="41.58038942374909" lon="19.956656433355292"><ele>399.20000000000005</ele><time>2026-04-29T13:48:21.999Z</time></trkpt><trkpt lat="41.580366137408845" lon="19.95676426231247"><ele>396.4</ele><time>2026-04-29T13:48:22.999Z</time></trkpt><trkpt lat="41.58035316883165" lon="19.956856315685787"><ele>393.6</ele><time>2026-04-29T13:48:23.999Z</time></trkpt><trkpt lat="41.58037573550571" lon="19.95701853330701"><ele>390.79999999999995</ele><time>2026-04-29T13:48:25.999Z</time></trkpt><trkpt lat="41.58047149170773" lon="19.95712143930613"><ele>388.0</ele><time>2026-04-29T13:48:27.999Z</time></trkpt><trkpt lat="41.58055048618106" lon="19.957143912020637"><ele>388.0</ele><time>2026-04-29T13:48:28.999Z</time></trkpt><trkpt lat="41.58064671001856" lon="19.957148234854024"><ele>388.0</ele><time>2026-04-29T13:48:29.999Z</time></trkpt><trkpt lat="41.5807442683487" lon="19.957164802610194"><ele>388.0</ele><time>2026-04-29T13:48:30.999Z</time></trkpt><trkpt lat="41.580840654928956" lon="19.95722187653692"><ele>388.0</ele><time>2026-04-29T13:48:31.999Z</time></trkpt><trkpt lat="41.580920061264784" lon="19.95731958627103"><ele>388.0</ele><time>2026-04-29T13:48:33Z</time></trkpt><trkpt lat="41.58100331823081" lon="19.957429617615944"><ele>388.0</ele><time>2026-04-29T13:48:34Z</time></trkpt><trkpt lat="41.5810889227196" lon="19.957523312612153"><ele>388.0</ele><time>2026-04-29T13:48:35Z</time></trkpt><trkpt lat="41.581176590024576" lon="19.957591391347542"><ele>388.0</ele><time>2026-04-29T13:48:36Z</time></trkpt><trkpt lat="41.58126584848135" lon="19.95764315926575"><ele>388.0</ele><time>2026-04-29T13:48:37Z</time></trkpt><trkpt lat="41.58135453235456" lon="19.957683806665653"><ele>388.0</ele><time>2026-04-29T13:48:38Z</time></trkpt><trkpt lat="41.58144060323503" lon="19.95771916885656"><ele>386.0</ele><time>2026-04-29T13:48:39Z</time></trkpt><trkpt lat="41.581529022711216" lon="19.95775150014335"><ele>384.0</ele><time>2026-04-29T13:48:40Z</time></trkpt><trkpt lat="41.58161725873019" lon="19.95777894239117"><ele>382.0</ele><time>2026-04-29T13:48:41Z</time></trkpt><trkpt lat="41.581706182477305" lon="19.957809519488737"><ele>380.0</ele><time>2026-04-29T13:48:42Z</time></trkpt><trkpt lat="41.58179962256882" lon="19.95783854072867"><ele>378.0</ele><time>2026-04-29T13:48:43Z</time></trkpt><trkpt lat="41.58189042087655" lon="19.95786456433038"><ele>378.0</ele><time>2026-04-29T13:48:44Z</time></trkpt><trkpt lat="41.58198897100899" lon="19.95789822652696"><ele>378.0</ele><time>2026-04-29T13:48:45Z</time></trkpt><trkpt lat="41.58210291865388" lon="19.957940396327338"><ele>378.0</ele><time>2026-04-29T13:48:46Z</time></trkpt><trkpt lat="41.582228270949216" lon="19.957982364001353"><ele>378.0</ele><time>2026-04-29T13:48:47Z</time></trkpt><trkpt lat="41.58236515622688" lon="19.958022631251968"><ele>375.5</ele><time>2026-04-29T13:48:48Z</time></trkpt><trkpt lat="41.58250306170829" lon="19.958058945884087"><ele>373.0</ele><time>2026-04-29T13:48:49Z</time></trkpt><trkpt lat="41.582632622973556" lon="19.958098073975194"><ele>370.5</ele><time>2026-04-29T13:48:49.999Z</time></trkpt><trkpt lat="41.58277007811086" lon="19.95813923538748"><ele>368.0</ele><time>2026-04-29T13:48:50.999Z</time></trkpt><trkpt lat="41.58290288097775" lon="19.958172962946712"><ele>367.75</ele><time>2026-04-29T13:48:51.999Z</time></trkpt><trkpt lat="41.58302825894811" lon="19.958200623418943"><ele>367.5</ele><time>2026-04-29T13:48:52.999Z</time></trkpt><trkpt lat="41.583145105910674" lon="19.95822838776132"><ele>367.25</ele><time>2026-04-29T13:48:53.999Z</time></trkpt><trkpt lat="41.58325679377579" lon="19.958266808716374"><ele>367.0</ele><time>2026-04-29T13:48:54.999Z</time></trkpt><trkpt lat="41.583360186934904" lon="19.958305049449883"><ele>367.0</ele><time>2026-04-29T13:48:55.999Z</time></trkpt><trkpt lat="41.58346279965806" lon="19.958350178836593"><ele>367.0</ele><time>2026-04-29T13:48:56.999Z</time></trkpt><trkpt lat="41.58356699255947" lon="19.958398540788334"><ele>367.0</ele><time>2026-04-29T13:48:57.999Z</time></trkpt><trkpt lat="41.58365677471137" lon="19.958458527148537"><ele>367.0</ele><time>2026-04-29T13:48:58.999Z</time></trkpt><trkpt lat="41.58372190996748" lon="19.958547494907922"><ele>367.0</ele><time>2026-04-29T13:48:59.999Z</time></trkpt><trkpt lat="41.58377542218574" lon="19.958642947378202"><ele>366.5</ele><time>2026-04-29T13:49:00.999Z</time></trkpt><trkpt lat="41.58382646165018" lon="19.958738207313072"><ele>366.0</ele><time>2026-04-29T13:49:01.999Z</time></trkpt><trkpt lat="41.5838398515144" lon="19.958844107015672"><ele>365.5</ele><time>2026-04-29T13:49:02.999Z</time></trkpt><trkpt lat="41.58384999622433" lon="19.958943074651202"><ele>365.0</ele><time>2026-04-29T13:49:03.999Z</time></trkpt><trkpt lat="41.58385656853671" lon="19.959040633984593"><ele>364.5</ele><time>2026-04-29T13:49:04.999Z</time></trkpt><trkpt lat="41.58387418958625" lon="19.959152304257362"><ele>364.0</ele><time>2026-04-29T13:49:05.999Z</time></trkpt><trkpt lat="41.583888230276635" lon="19.959266449474235"><ele>363.79999999999995</ele><time>2026-04-29T13:49:06.999Z</time></trkpt><trkpt lat="41.58390298271621" lon="19.95938594327081"><ele>363.59999999999997</ele><time>2026-04-29T13:49:07.999Z</time></trkpt><trkpt lat="41.58391084847462" lon="19.959511611613983"><ele>363.4</ele><time>2026-04-29T13:49:08.999Z</time></trkpt><trkpt lat="41.58392227801003" lon="19.95963779039218"><ele>363.2</ele><time>2026-04-29T13:49:09.999Z</time></trkpt><trkpt lat="41.583933415400196" lon="19.959768158642124"><ele>363.0</ele><time>2026-04-29T13:49:10.999Z</time></trkpt><trkpt lat="41.583945777049394" lon="19.95990021771764"><ele>363.0</ele><time>2026-04-29T13:49:11.999Z</time></trkpt><trkpt lat="41.58396312725948" lon="19.96003124268388"><ele>363.0</ele><time>2026-04-29T13:49:12.999Z</time></trkpt><trkpt lat="41.58397576876407" lon="19.960145471212655"><ele>363.0</ele><time>2026-04-29T13:49:13.999Z</time></trkpt><trkpt lat="41.58398637241232" lon="19.960254557776047"><ele>363.0</ele><time>2026-04-29T13:49:14.999Z</time></trkpt><trkpt lat="41.584001685590245" lon="19.960356486942633"><ele>363.0</ele><time>2026-04-29T13:49:15.999Z</time></trkpt><trkpt lat="41.58401796836821" lon="19.960453675827022"><ele>363.0</ele><time>2026-04-29T13:49:16.999Z</time></trkpt><trkpt lat="41.58403052873187" lon="19.96056511971717"><ele>362.5</ele><time>2026-04-29T13:49:17.999Z</time></trkpt><trkpt lat="41.58403031163777" lon="19.960682850864035"><ele>362.0</ele><time>2026-04-29T13:49:18.999Z</time></trkpt><trkpt lat="41.58405473932038" lon="19.960802859692205"><ele>361.5</ele><time>2026-04-29T13:49:19.999Z</time></trkpt><trkpt lat="41.58406000916285" lon="19.960917556273774"><ele>361.0</ele><time>2026-04-29T13:49:20.999Z</time></trkpt><trkpt lat="41.58406863857178" lon="19.961020074038156"><ele>360.5</ele><time>2026-04-29T13:49:21.999Z</time></trkpt><trkpt lat="41.58407743916126" lon="19.961117993420714"><ele>360.0</ele><time>2026-04-29T13:49:22.999Z</time></trkpt><trkpt lat="41.5840748366147" lon="19.96120458723775"><ele>359.5</ele><time>2026-04-29T13:49:23.999Z</time></trkpt><trkpt lat="41.5840756606912" lon="19.961299656781815"><ele>359.0</ele><time>2026-04-29T13:49:24.999Z</time></trkpt><trkpt lat="41.584070246330235" lon="19.961394369396007"><ele>358.5</ele><time>2026-04-29T13:49:25.999Z</time></trkpt><trkpt lat="41.58406301864447" lon="19.96149750351213"><ele>358.0</ele><time>2026-04-29T13:49:26.999Z</time></trkpt><trkpt lat="41.58405266322866" lon="19.961610413899468"><ele>357.5</ele><time>2026-04-29T13:49:27.999Z</time></trkpt><trkpt lat="41.58404331081019" lon="19.96172645709203"><ele>357.0</ele><time>2026-04-29T13:49:28.999Z</time></trkpt><trkpt lat="41.58403723280986" lon="19.96184964744022"><ele>356.6666666666667</ele><time>2026-04-29T13:49:29.999Z</time></trkpt><trkpt lat="41.584024979118" lon="19.961972558258246"><ele>356.3333333333333</ele><time>2026-04-29T13:49:30.999Z</time></trkpt><trkpt lat="41.58401432486339" lon="19.962088300323586"><ele>356.0</ele><time>2026-04-29T13:49:31.999Z</time></trkpt><trkpt lat="41.5840062626407" lon="19.962193268399528"><ele>355.66666666666663</ele><time>2026-04-29T13:49:32.999Z</time></trkpt><trkpt lat="41.5839948899957" lon="19.962290633240695"><ele>355.3333333333333</ele><time>2026-04-29T13:49:33.999Z</time></trkpt><trkpt lat="41.58398859769477" lon="19.962389994163804"><ele>355.0</ele><time>2026-04-29T13:49:34.999Z</time></trkpt><trkpt lat="41.583985375655715" lon="19.962488576397636"><ele>354.6</ele><time>2026-04-29T13:49:35.999Z</time></trkpt><trkpt lat="41.58397883049128" lon="19.962594997657245"><ele>354.2</ele><time>2026-04-29T13:49:36.999Z</time></trkpt><trkpt lat="41.58397016448005" lon="19.962712245556634"><ele>353.79999999999995</ele><time>2026-04-29T13:49:37.999Z</time></trkpt><trkpt lat="41.58395916362352" lon="19.962834328234106"><ele>353.4</ele><time>2026-04-29T13:49:38.999Z</time></trkpt><trkpt lat="41.58394808133703" lon="19.962967701950408"><ele>353.0</ele><time>2026-04-29T13:49:39.999Z</time></trkpt><trkpt lat="41.583935246631434" lon="19.963110900266233"><ele>353.0</ele><time>2026-04-29T13:49:40.999Z</time></trkpt><trkpt lat="41.58392347464468" lon="19.963262001101917"><ele>353.0</ele><time>2026-04-29T13:49:41.999Z</time></trkpt><trkpt lat="41.583907895346414" lon="19.963419783641434"><ele>353.0</ele><time>2026-04-29T13:49:42.999Z</time></trkpt><trkpt lat="41.583892974420365" lon="19.963586267600263"><ele>353.0</ele><time>2026-04-29T13:49:43.999Z</time></trkpt><trkpt lat="41.583878174996094" lon="19.963738441400597"><ele>352.75</ele><time>2026-04-29T13:49:44.999Z</time></trkpt><trkpt lat="41.583859234136725" lon="19.963894420359008"><ele>352.5</ele><time>2026-04-29T13:49:45.999Z</time></trkpt><trkpt lat="41.58383245576335" lon="19.96406528327099"><ele>352.25</ele><time>2026-04-29T13:49:46.999Z</time></trkpt><trkpt lat="41.58380277887813" lon="19.964222472380207"><ele>352.0</ele><time>2026-04-29T13:49:47.999Z</time></trkpt><trkpt lat="41.58376139874812" lon="19.96436952792608"><ele>351.75</ele><time>2026-04-29T13:49:48.999Z</time></trkpt><trkpt lat="41.58367984253022" lon="19.96448381642178"><ele>351.5</ele><time>2026-04-29T13:49:49.999Z</time></trkpt><trkpt lat="41.58359657353722" lon="19.964621195126536"><ele>351.25</ele><time>2026-04-29T13:49:50.999Z</time></trkpt><trkpt lat="41.583516884723664" lon="19.964773365334263"><ele>351.0</ele><time>2026-04-29T13:49:51.999Z</time></trkpt><trkpt lat="41.583396445751845" lon="19.964890934866393"><ele>351.0</ele><time>2026-04-29T13:49:52.999Z</time></trkpt><trkpt lat="41.58329071151376" lon="19.965020562044675"><ele>351.0</ele><time>2026-04-29T13:49:53.999Z</time></trkpt><trkpt lat="41.583209939979774" lon="19.965196747541555"><ele>351.0</ele><time>2026-04-29T13:49:54.999Z</time></trkpt><trkpt lat="41.583116580530024" lon="19.965362919148845"><ele>350.25</ele><time>2026-04-29T13:49:55.999Z</time></trkpt><trkpt lat="41.58303746912068" lon="19.965523240183842"><ele>349.5</ele><time>2026-04-29T13:49:56.999Z</time></trkpt><trkpt lat="41.58296441906226" lon="19.965667491498667"><ele>348.75</ele><time>2026-04-29T13:49:57.999Z</time></trkpt><trkpt lat="41.582894449449505" lon="19.96580184961529"><ele>348.0</ele><time>2026-04-29T13:49:58.999Z</time></trkpt><trkpt lat="41.58282220250874" lon="19.96594243451144"><ele>347.25</ele><time>2026-04-29T13:49:59.999Z</time></trkpt><trkpt lat="41.58274199286491" lon="19.96608862271985"><ele>346.5</ele><time>2026-04-29T13:50:00.999Z</time></trkpt><trkpt lat="41.58265868154832" lon="19.966224899431342"><ele>345.75</ele><time>2026-04-29T13:50:01.999Z</time></trkpt><trkpt lat="41.582581939087355" lon="19.966337700778997"><ele>345.0</ele><time>2026-04-29T13:50:02.999Z</time></trkpt><trkpt lat="41.582498417112575" lon="19.966436520432623"><ele>345.0</ele><time>2026-04-29T13:50:03.999Z</time></trkpt><trkpt lat="41.58239749779226" lon="19.96653381535925"><ele>345.0</ele><time>2026-04-29T13:50:04.999Z</time></trkpt><trkpt lat="41.582278445886026" lon="19.96661999029977"><ele>345.0</ele><time>2026-04-29T13:50:05.999Z</time></trkpt><trkpt lat="41.582159508299156" lon="19.96667248542704"><ele>345.0</ele><time>2026-04-29T13:50:06.999Z</time></trkpt><trkpt lat="41.58205405699468" lon="19.966705757993658"><ele>345.2</ele><time>2026-04-29T13:50:07.999Z</time></trkpt><trkpt lat="41.58196666678014" lon="19.96676896463294"><ele>345.4</ele><time>2026-04-29T13:50:08.999Z</time></trkpt><trkpt lat="41.581897692073575" lon="19.96687903948532"><ele>345.6</ele><time>2026-04-29T13:50:09.999Z</time></trkpt><trkpt lat="41.58184161098387" lon="19.966993198764005"><ele>345.8</ele><time>2026-04-29T13:50:10.999Z</time></trkpt><trkpt lat="41.58184257367745" lon="19.967137265037557"><ele>346.0</ele><time>2026-04-29T13:50:11.999Z</time></trkpt><trkpt lat="41.58184756612789" lon="19.96727385939557"><ele>346.0</ele><time>2026-04-29T13:50:12.999Z</time></trkpt><trkpt lat="41.58186784428529" lon="19.967406056830328"><ele>346.0</ele><time>2026-04-29T13:50:13.999Z</time></trkpt><trkpt lat="41.58189425372075" lon="19.96752668659756"><ele>346.0</ele><time>2026-04-29T13:50:14.999Z</time></trkpt><trkpt lat="41.581898315343274" lon="19.967651402895967"><ele>346.0</ele><time>2026-04-29T13:50:15.998Z</time></trkpt><trkpt lat="41.58191659066521" lon="19.967791128848457"><ele>346.0</ele><time>2026-04-29T13:50:16.998Z</time></trkpt><trkpt lat="41.58193741905144" lon="19.9679499758713"><ele>345.25</ele><time>2026-04-29T13:50:17.998Z</time></trkpt><trkpt lat="41.5819603818231" lon="19.968123144599357"><ele>344.5</ele><time>2026-04-29T13:50:18.998Z</time></trkpt><trkpt lat="41.581985539450095" lon="19.96831286537721"><ele>343.75</ele><time>2026-04-29T13:50:19.998Z</time></trkpt><trkpt lat="41.582013043381586" lon="19.968521644013354"><ele>343.0</ele><time>2026-04-29T13:50:20.998Z</time></trkpt><trkpt lat="41.5820431830682" lon="19.96874859870642"><ele>341.0</ele><time>2026-04-29T13:50:21.998Z</time></trkpt><trkpt lat="41.582073364443154" lon="19.96899590148839"><ele>339.0</ele><time>2026-04-29T13:50:22.998Z</time></trkpt><trkpt lat="41.582105917210114" lon="19.969256504073627"><ele>337.0</ele><time>2026-04-29T13:50:23.998Z</time></trkpt><trkpt lat="41.58213852147821" lon="19.96951474333987"><ele>336.3333333333333</ele><time>2026-04-29T13:50:24.998Z</time></trkpt><trkpt lat="41.582167741861184" lon="19.969747305669134"><ele>335.6666666666667</ele><time>2026-04-29T13:50:25.998Z</time></trkpt><trkpt lat="41.5822090241495" lon="19.969961001171537"><ele>335.0</ele><time>2026-04-29T13:50:26.998Z</time></trkpt><trkpt lat="41.582233852747365" lon="19.97017717909823"><ele>334.0</ele><time>2026-04-29T13:50:27.998Z</time></trkpt><trkpt lat="41.582256482795586" lon="19.970389853271037"><ele>333.0</ele><time>2026-04-29T13:50:28.998Z</time></trkpt><trkpt lat="41.582278736576" lon="19.97058567911953"><ele>332.0</ele><time>2026-04-29T13:50:29.998Z</time></trkpt><trkpt lat="41.582302426405974" lon="19.97077535381159"><ele>331.75</ele><time>2026-04-29T13:50:30.998Z</time></trkpt><trkpt lat="41.58232953049393" lon="19.970976133735018"><ele>331.5</ele><time>2026-04-29T13:50:31.998Z</time></trkpt><trkpt lat="41.582354324516025" lon="19.97117811613962"><ele>331.25</ele><time>2026-04-29T13:50:32.998Z</time></trkpt><trkpt lat="41.582377385833" lon="19.971358750767088"><ele>331.0</ele><time>2026-04-29T13:50:33.998Z</time></trkpt><trkpt lat="41.58238595320887" lon="19.971518687767084"><ele>331.0</ele><time>2026-04-29T13:50:34.998Z</time></trkpt><trkpt lat="41.58240568423654" lon="19.97167294260904"><ele>331.0</ele><time>2026-04-29T13:50:35.998Z</time></trkpt><trkpt lat="41.582440021334484" lon="19.971832059657864"><ele>331.0</ele><time>2026-04-29T13:50:36.998Z</time></trkpt><trkpt lat="41.58245880388899" lon="19.971998455490034"><ele>331.0</ele><time>2026-04-29T13:50:37.998Z</time></trkpt><trkpt lat="41.58247599855867" lon="19.97217414941553"><ele>331.0</ele><time>2026-04-29T13:50:38.999Z</time></trkpt><trkpt lat="41.58249886572412" lon="19.972357467596918"><ele>331.0</ele><time>2026-04-29T13:50:39.999Z</time></trkpt><trkpt lat="41.582522420987914" lon="19.97252840532773"><ele>331.0</ele><time>2026-04-29T13:50:40.999Z</time></trkpt><trkpt lat="41.582537650587376" lon="19.97269148491187"><ele>331.0</ele><time>2026-04-29T13:50:41.999Z</time></trkpt><trkpt lat="41.58255724422065" lon="19.97286569521618"><ele>330.5</ele><time>2026-04-29T13:50:42.999Z</time></trkpt><trkpt lat="41.582581561577115" lon="19.973053612921785"><ele>330.0</ele><time>2026-04-29T13:50:43.999Z</time></trkpt><trkpt lat="41.58260450150461" lon="19.97323843850077"><ele>329.5</ele><time>2026-04-29T13:50:44.999Z</time></trkpt><trkpt lat="41.58262622351129" lon="19.973426092213312"><ele>329.0</ele><time>2026-04-29T13:50:45.999Z</time></trkpt><trkpt lat="41.58264761146671" lon="19.973593922519104"><ele>328.0</ele><time>2026-04-29T13:50:46.999Z</time></trkpt><trkpt lat="41.582667480217026" lon="19.973764080754055"><ele>327.0</ele><time>2026-04-29T13:50:47.999Z</time></trkpt><trkpt lat="41.58268617795992" lon="19.97393293487746"><ele>326.0</ele><time>2026-04-29T13:50:48.999Z</time></trkpt><trkpt lat="41.58270968961712" lon="19.974100995147552"><ele>325.0</ele><time>2026-04-29T13:50:49.999Z</time></trkpt><trkpt lat="41.582733987160374" lon="19.974272086424545"><ele>325.0</ele><time>2026-04-29T13:50:50.999Z</time></trkpt><trkpt lat="41.58275858183944" lon="19.974444776430655"><ele>325.0</ele><time>2026-04-29T13:50:51.999Z</time></trkpt><trkpt lat="41.582779043245814" lon="19.974611245663187"><ele>325.0</ele><time>2026-04-29T13:50:52.999Z</time></trkpt><trkpt lat="41.582795803844824" lon="19.97477069695139"><ele>325.0</ele><time>2026-04-29T13:50:53.999Z</time></trkpt><trkpt lat="41.58281120377368" lon="19.974933826683024"><ele>325.5</ele><time>2026-04-29T13:50:54.999Z</time></trkpt><trkpt lat="41.58283519782754" lon="19.97509752983355"><ele>326.0</ele><time>2026-04-29T13:50:55.999Z</time></trkpt><trkpt lat="41.58285785172406" lon="19.975263777512936"><ele>326.5</ele><time>2026-04-29T13:50:56.999Z</time></trkpt><trkpt lat="41.582878989259406" lon="19.975430029490873"><ele>327.0</ele><time>2026-04-29T13:50:57.999Z</time></trkpt><trkpt lat="41.58289966872627" lon="19.975599598691794"><ele>324.75</ele><time>2026-04-29T13:50:58.999Z</time></trkpt><trkpt lat="41.58292037750889" lon="19.975775622174446"><ele>322.5</ele><time>2026-04-29T13:50:59.999Z</time></trkpt><trkpt lat="41.5829402874508" lon="19.975934701930374"><ele>320.25</ele><time>2026-04-29T13:51:00.999Z</time></trkpt><trkpt lat="41.58296352668598" lon="19.976097139583576"><ele>318.0</ele><time>2026-04-29T13:51:01.999Z</time></trkpt><trkpt lat="41.58299062249286" lon="19.976266629315642"><ele>318.0</ele><time>2026-04-29T13:51:02.999Z</time></trkpt><trkpt lat="41.58301468436152" lon="19.976439753946185"><ele>318.0</ele><time>2026-04-29T13:51:03.999Z</time></trkpt><trkpt lat="41.58303812634061" lon="19.976611733715707"><ele>318.0</ele><time>2026-04-29T13:51:04.999Z</time></trkpt><trkpt lat="41.58305925048463" lon="19.976782009519333"><ele>318.0</ele><time>2026-04-29T13:51:05.999Z</time></trkpt><trkpt lat="41.58307860420674" lon="19.976958461235636"><ele>317.75</ele><time>2026-04-29T13:51:06.999Z</time></trkpt><trkpt lat="41.58309448632979" lon="19.977144275444207"><ele>317.5</ele><time>2026-04-29T13:51:07.999Z</time></trkpt><trkpt lat="41.58311420718523" lon="19.97733251384707"><ele>317.25</ele><time>2026-04-29T13:51:08.999Z</time></trkpt><trkpt lat="41.583135248952544" lon="19.97750145815119"><ele>317.0</ele><time>2026-04-29T13:51:09.999Z</time></trkpt><trkpt lat="41.58315272644367" lon="19.97764938562444"><ele>316.5</ele><time>2026-04-29T13:51:10.999Z</time></trkpt><trkpt lat="41.583160644979806" lon="19.977781686779064"><ele>316.0</ele><time>2026-04-29T13:51:11.999Z</time></trkpt><trkpt lat="41.583178346773046" lon="19.97791633997632"><ele>315.5</ele><time>2026-04-29T13:51:12.999Z</time></trkpt><trkpt lat="41.583206532815524" lon="19.978073109145235"><ele>315.0</ele><time>2026-04-29T13:51:13.999Z</time></trkpt><trkpt lat="41.58323339798864" lon="19.978252429824124"><ele>315.0</ele><time>2026-04-29T13:51:14.999Z</time></trkpt><trkpt lat="41.58326010015056" lon="19.978450215795647"><ele>315.0</ele><time>2026-04-29T13:51:15.999Z</time></trkpt><trkpt lat="41.5832883625693" lon="19.97865645010002"><ele>315.0</ele><time>2026-04-29T13:51:16.999Z</time></trkpt><trkpt lat="41.58331678731581" lon="19.97886916753649"><ele>315.0</ele><time>2026-04-29T13:51:17.999Z</time></trkpt><trkpt lat="41.58334406315817" lon="19.979083025032345"><ele>315.0</ele><time>2026-04-29T13:51:18.999Z</time></trkpt><trkpt lat="41.5833721025402" lon="19.979281735150234"><ele>315.0</ele><time>2026-04-29T13:51:19.999Z</time></trkpt><trkpt lat="41.583394911911824" lon="19.97946641838215"><ele>314.5</ele><time>2026-04-29T13:51:20.999Z</time></trkpt><trkpt lat="41.58341423742077" lon="19.97964558203375"><ele>314.0</ele><time>2026-04-29T13:51:21.999Z</time></trkpt><trkpt lat="41.58343243231682" lon="19.97983238985122"><ele>313.5</ele><time>2026-04-29T13:51:22.999Z</time></trkpt><trkpt lat="41.58344398417707" lon="19.98000662564464"><ele>313.0</ele><time>2026-04-29T13:51:23.999Z</time></trkpt><trkpt lat="41.583452430656834" lon="19.980176973563854"><ele>312.5</ele><time>2026-04-29T13:51:24.999Z</time></trkpt><trkpt lat="41.58345685046481" lon="19.980360113165222"><ele>312.0</ele><time>2026-04-29T13:51:25.999Z</time></trkpt><trkpt lat="41.58345332461154" lon="19.98055060839607"><ele>311.5</ele><time>2026-04-29T13:51:26.999Z</time></trkpt><trkpt lat="41.58344265426488" lon="19.980752949576956"><ele>311.0</ele><time>2026-04-29T13:51:27.999Z</time></trkpt><trkpt lat="41.58343406747315" lon="19.980962634896855"><ele>310.25</ele><time>2026-04-29T13:51:28.999Z</time></trkpt><trkpt lat="41.58342605728978" lon="19.98117114169444"><ele>309.5</ele><time>2026-04-29T13:51:29.999Z</time></trkpt><trkpt lat="41.58342016388522" lon="19.98135872183761"><ele>308.75</ele><time>2026-04-29T13:51:30.999Z</time></trkpt><trkpt lat="41.58341220476994" lon="19.98154238281271"><ele>308.0</ele><time>2026-04-29T13:51:31.999Z</time></trkpt><trkpt lat="41.5833967794898" lon="19.981734895138253"><ele>307.75</ele><time>2026-04-29T13:51:32.999Z</time></trkpt><trkpt lat="41.58338354456811" lon="19.981936092870644"><ele>307.5</ele><time>2026-04-29T13:51:33.999Z</time></trkpt><trkpt lat="41.583374256345486" lon="19.98213119685434"><ele>307.25</ele><time>2026-04-29T13:51:34.999Z</time></trkpt><trkpt lat="41.583367182013305" lon="19.982321124264924"><ele>307.0</ele><time>2026-04-29T13:51:35.999Z</time></trkpt><trkpt lat="41.58336046233567" lon="19.982495502693542"><ele>307.0</ele><time>2026-04-29T13:51:36.999Z</time></trkpt><trkpt lat="41.5833490449644" lon="19.982680236622286"><ele>307.0</ele><time>2026-04-29T13:51:37.999Z</time></trkpt><trkpt lat="41.58333667156417" lon="19.98287426776203"><ele>307.0</ele><time>2026-04-29T13:51:38.999Z</time></trkpt><trkpt lat="41.58332938604396" lon="19.983075038443342"><ele>307.0</ele><time>2026-04-29T13:51:39.999Z</time></trkpt><trkpt lat="41.58332166570173" lon="19.98327179557922"><ele>306.25</ele><time>2026-04-29T13:51:40.999Z</time></trkpt><trkpt lat="41.58331579743313" lon="19.98346299468231"><ele>305.5</ele><time>2026-04-29T13:51:41.999Z</time></trkpt><trkpt lat="41.58330611808006" lon="19.983650557583328"><ele>304.75</ele><time>2026-04-29T13:51:42.999Z</time></trkpt><trkpt lat="41.583296944896134" lon="19.983826502859817"><ele>304.0</ele><time>2026-04-29T13:51:43.999Z</time></trkpt><trkpt lat="41.5832859702828" lon="19.983988390395375"><ele>304.0</ele><time>2026-04-29T13:51:44.999Z</time></trkpt><trkpt lat="41.58327660087494" lon="19.984139750544376"><ele>304.0</ele><time>2026-04-29T13:51:45.999Z</time></trkpt><trkpt lat="41.58326952816533" lon="19.984280713165766"><ele>304.0</ele><time>2026-04-29T13:51:46.999Z</time></trkpt><trkpt lat="41.583261339781195" lon="19.98441200009976"><ele>304.0</ele><time>2026-04-29T13:51:47.999Z</time></trkpt><trkpt lat="41.58325406616121" lon="19.984534496760435"><ele>304.0</ele><time>2026-04-29T13:51:48.999Z</time></trkpt><trkpt lat="41.58324958494546" lon="19.984652386610563"><ele>303.8333333333333</ele><time>2026-04-29T13:51:49.999Z</time></trkpt><trkpt lat="41.58324457888776" lon="19.98476548584074"><ele>303.66666666666663</ele><time>2026-04-29T13:51:50.999Z</time></trkpt><trkpt lat="41.5832393842763" lon="19.98488394956082"><ele>303.5</ele><time>2026-04-29T13:51:51.999Z</time></trkpt><trkpt lat="41.58323535232945" lon="19.985000024139946"><ele>303.3333333333333</ele><time>2026-04-29T13:51:52.999Z</time></trkpt><trkpt lat="41.583229938644074" lon="19.98511779145195"><ele>303.1666666666667</ele><time>2026-04-29T13:51:53.999Z</time></trkpt><trkpt lat="41.58322579541578" lon="19.98520202154965"><ele>303.0</ele><time>2026-04-29T13:51:54.999Z</time></trkpt><trkpt lat="41.583220774446964" lon="19.98534651819214"><ele>302.8</ele><time>2026-04-29T13:51:56.999Z</time></trkpt><trkpt lat="41.58321697681893" lon="19.98544551156979"><ele>302.6</ele><time>2026-04-29T13:51:57.999Z</time></trkpt><trkpt lat="41.58320785128957" lon="19.98556063820446"><ele>302.4</ele><time>2026-04-29T13:51:58.999Z</time></trkpt><trkpt lat="41.58319876833333" lon="19.985685153245146"><ele>302.2</ele><time>2026-04-29T13:51:59.999Z</time></trkpt><trkpt lat="41.58318571353376" lon="19.98582586745415"><ele>302.0</ele><time>2026-04-29T13:52:00.999Z</time></trkpt><trkpt lat="41.58317545596411" lon="19.985969629306286"><ele>302.33333333333337</ele><time>2026-04-29T13:52:01.999Z</time></trkpt><trkpt lat="41.58317113950119" lon="19.98609249835358"><ele>302.6666666666667</ele><time>2026-04-29T13:52:02.999Z</time></trkpt><trkpt lat="41.583170135623725" lon="19.986188514232534"><ele>303.0</ele><time>2026-04-29T13:52:03.999Z</time></trkpt><trkpt lat="41.583171110349205" lon="19.986282309206864"><ele>303.3333333333333</ele><time>2026-04-29T13:52:04.999Z</time></trkpt><trkpt lat="41.583171828309204" lon="19.98637941707541"><ele>303.66666666666663</ele><time>2026-04-29T13:52:05.999Z</time></trkpt><trkpt lat="41.583178396204836" lon="19.98648938383932"><ele>304.0</ele><time>2026-04-29T13:52:06.999Z</time></trkpt><trkpt lat="41.583202085106365" lon="19.986608917926855"><ele>305.8</ele><time>2026-04-29T13:52:07.999Z</time></trkpt><trkpt lat="41.583232922431534" lon="19.98671775238404"><ele>307.59999999999997</ele><time>2026-04-29T13:52:08.999Z</time></trkpt><trkpt lat="41.58326476193296" lon="19.9868039771346"><ele>309.4</ele><time>2026-04-29T13:52:09.999Z</time></trkpt><trkpt lat="41.58330444725763" lon="19.986886044304065"><ele>311.2</ele><time>2026-04-29T13:52:10.999Z</time></trkpt><trkpt lat="41.5833675086494" lon="19.986989634159922"><ele>313.0</ele><time>2026-04-29T13:52:11.999Z</time></trkpt><trkpt lat="41.58344429804297" lon="19.987131332590657"><ele>313.0</ele><time>2026-04-29T13:52:12.999Z</time></trkpt><trkpt lat="41.583539055854125" lon="19.987326849588857"><ele>313.0</ele><time>2026-04-29T13:52:13.999Z</time></trkpt><trkpt lat="41.58361039902823" lon="19.987483266399376"><ele>313.0</ele><time>2026-04-29T13:52:14.999Z</time></trkpt><trkpt lat="41.58366408353427" lon="19.987610446065254"><ele>313.0</ele><time>2026-04-29T13:52:15.999Z</time></trkpt><trkpt lat="41.58372002627936" lon="19.98772504650257"><ele>311.8</ele><time>2026-04-29T13:52:16.999Z</time></trkpt><trkpt lat="41.58378155198962" lon="19.987833065747576"><ele>310.6</ele><time>2026-04-29T13:52:17.999Z</time></trkpt><trkpt lat="41.58383740807765" lon="19.98792323047128"><ele>309.4</ele><time>2026-04-29T13:52:18.999Z</time></trkpt><trkpt lat="41.583890163769" lon="19.98800368476833"><ele>308.2</ele><time>2026-04-29T13:52:19.999Z</time></trkpt><trkpt lat="41.58395430635379" lon="19.98809951804518"><ele>307.0</ele><time>2026-04-29T13:52:20.999Z</time></trkpt><trkpt lat="41.584022999070804" lon="19.988202962612082"><ele>307.0</ele><time>2026-04-29T13:52:21.999Z</time></trkpt><trkpt lat="41.5840985116405" lon="19.98832993409425"><ele>307.0</ele><time>2026-04-29T13:52:22.999Z</time></trkpt><trkpt lat="41.58417791711258" lon="19.988469179921736"><ele>307.0</ele><time>2026-04-29T13:52:23.999Z</time></trkpt><trkpt lat="41.58425603838876" lon="19.98859882434569"><ele>307.0</ele><time>2026-04-29T13:52:24.999Z</time></trkpt><trkpt lat="41.584324091815354" lon="19.98870513830396"><ele>307.8</ele><time>2026-04-29T13:52:25.999Z</time></trkpt><trkpt lat="41.584384436649025" lon="19.988799003319784"><ele>308.6</ele><time>2026-04-29T13:52:26.999Z</time></trkpt><trkpt lat="41.584452871156806" lon="19.988898139241844"><ele>309.40000000000003</ele><time>2026-04-29T13:52:27.999Z</time></trkpt><trkpt lat="41.584538147970214" lon="19.989008419172773"><ele>310.2</ele><time>2026-04-29T13:52:28.999Z</time></trkpt><trkpt lat="41.58463297848109" lon="19.989120765749924"><ele>311.0</ele><time>2026-04-29T13:52:29.999Z</time></trkpt><trkpt lat="41.58474215958172" lon="19.98922286990961"><ele>311.0</ele><time>2026-04-29T13:52:30.999Z</time></trkpt><trkpt lat="41.58485769634064" lon="19.989302439380204"><ele>311.0</ele><time>2026-04-29T13:52:31.999Z</time></trkpt><trkpt lat="41.584960976930226" lon="19.989364737778114"><ele>311.0</ele><time>2026-04-29T13:52:32.999Z</time></trkpt><trkpt lat="41.585056240391346" lon="19.989426388855446"><ele>311.0</ele><time>2026-04-29T13:52:33.999Z</time></trkpt><trkpt lat="41.5851452426985" lon="19.989495304228505"><ele>311.0</ele><time>2026-04-29T13:52:34.999Z</time></trkpt><trkpt lat="41.5852103068832" lon="19.98955694251752"><ele>311.0</ele><time>2026-04-29T13:52:35.999Z</time></trkpt><trkpt lat="41.5852577823788" lon="19.98962524540808"><ele>311.0</ele><time>2026-04-29T13:52:36.999Z</time></trkpt><trkpt lat="41.58531914363684" lon="19.989718640309466"><ele>311.0</ele><time>2026-04-29T13:52:37.999Z</time></trkpt><trkpt lat="41.5853896687474" lon="19.989829960553152"><ele>311.0</ele><time>2026-04-29T13:52:38.999Z</time></trkpt><trkpt lat="41.58545918211522" lon="19.989949280591006"><ele>309.40000000000003</ele><time>2026-04-29T13:52:39.999Z</time></trkpt><trkpt lat="41.58551481688799" lon="19.990038526195264"><ele>307.8</ele><time>2026-04-29T13:52:40.999Z</time></trkpt><trkpt lat="41.585592267134615" lon="19.990170472567446"><ele>306.20000000000005</ele><time>2026-04-29T13:52:42.999Z</time></trkpt><trkpt lat="41.58565472601211" lon="19.990269564391326"><ele>304.6</ele><time>2026-04-29T13:52:43.999Z</time></trkpt><trkpt lat="41.58573036007073" lon="19.9903824905439"><ele>303.0</ele><time>2026-04-29T13:52:44.999Z</time></trkpt><trkpt lat="41.5858030791293" lon="19.990483560568304"><ele>303.0</ele><time>2026-04-29T13:52:45.999Z</time></trkpt><trkpt lat="41.585873595204546" lon="19.990548947419914"><ele>303.0</ele><time>2026-04-29T13:52:46.999Z</time></trkpt><trkpt lat="41.585939704463776" lon="19.99059923935817"><ele>303.0</ele><time>2026-04-29T13:52:47.999Z</time></trkpt><trkpt lat="41.58602252355464" lon="19.990669826598335"><ele>303.0</ele><time>2026-04-29T13:52:48.999Z</time></trkpt><trkpt lat="41.58613625588024" lon="19.99077149936708"><ele>303.0</ele><time>2026-04-29T13:52:49.999Z</time></trkpt><trkpt lat="41.586299544292594" lon="19.990923304580104"><ele>302.0</ele><time>2026-04-29T13:52:50.999Z</time></trkpt><trkpt lat="41.58649523683187" lon="19.991091681830174"><ele>301.0</ele><time>2026-04-29T13:52:51.999Z</time></trkpt><trkpt lat="41.586646269916955" lon="19.991233684954764"><ele>300.0</ele><time>2026-04-29T13:52:52.999Z</time></trkpt><trkpt lat="41.58677458309471" lon="19.991346429176254"><ele>300.0</ele><time>2026-04-29T13:52:53.999Z</time></trkpt><trkpt lat="41.586889067687686" lon="19.991454982278405"><ele>300.0</ele><time>2026-04-29T13:52:54.999Z</time></trkpt><trkpt lat="41.58699101837966" lon="19.991569344106395"><ele>300.0</ele><time>2026-04-29T13:52:55.999Z</time></trkpt><trkpt lat="41.587074831470154" lon="19.99167801622682"><ele>300.0</ele><time>2026-04-29T13:52:56.999Z</time></trkpt><trkpt lat="41.58715188319235" lon="19.991784716895985"><ele>300.75</ele><time>2026-04-29T13:52:57.999Z</time></trkpt><trkpt lat="41.587227276394415" lon="19.991897226462864"><ele>301.5</ele><time>2026-04-29T13:52:58.999Z</time></trkpt><trkpt lat="41.587304861297795" lon="19.992014875176064"><ele>302.25</ele><time>2026-04-29T13:52:59.999Z</time></trkpt><trkpt lat="41.58738656207815" lon="19.99212938381484"><ele>303.0</ele><time>2026-04-29T13:53:00.999Z</time></trkpt><trkpt lat="41.587474953487735" lon="19.992243819463827"><ele>303.0</ele><time>2026-04-29T13:53:01.999Z</time></trkpt><trkpt lat="41.587566482848246" lon="19.992357383190946"><ele>303.0</ele><time>2026-04-29T13:53:02.999Z</time></trkpt><trkpt lat="41.58766441949434" lon="19.992471648728248"><ele>303.0</ele><time>2026-04-29T13:53:03.999Z</time></trkpt><trkpt lat="41.58776105540824" lon="19.99258160519784"><ele>303.0</ele><time>2026-04-29T13:53:04.999Z</time></trkpt><trkpt lat="41.587841833507014" lon="19.992670004255633"><ele>302.5</ele><time>2026-04-29T13:53:05.999Z</time></trkpt><trkpt lat="41.5879241748533" lon="19.992756190611633"><ele>302.0</ele><time>2026-04-29T13:53:06.999Z</time></trkpt><trkpt lat="41.58801607706949" lon="19.99285653745967"><ele>301.5</ele><time>2026-04-29T13:53:07.999Z</time></trkpt><trkpt lat="41.588117640005485" lon="19.992960508246874"><ele>301.0</ele><time>2026-04-29T13:53:08.999Z</time></trkpt><trkpt lat="41.588231403677945" lon="19.9930522976523"><ele>301.0</ele><time>2026-04-29T13:53:09.999Z</time></trkpt><trkpt lat="41.58835087765232" lon="19.993141593901512"><ele>301.0</ele><time>2026-04-29T13:53:10.999Z</time></trkpt><trkpt lat="41.58846969186679" lon="19.99323425695643"><ele>301.0</ele><time>2026-04-29T13:53:11.999Z</time></trkpt><trkpt lat="41.588579811734355" lon="19.993308162106896"><ele>301.0</ele><time>2026-04-29T13:53:12.999Z</time></trkpt><trkpt lat="41.588673415341155" lon="19.99336331222388"><ele>302.2</ele><time>2026-04-29T13:53:13.999Z</time></trkpt><trkpt lat="41.58875612880996" lon="19.993412138212417"><ele>303.40000000000003</ele><time>2026-04-29T13:53:14.999Z</time></trkpt><trkpt lat="41.58884163159489" lon="19.993448275245395"><ele>304.6</ele><time>2026-04-29T13:53:15.999Z</time></trkpt><trkpt lat="41.58894058132937" lon="19.993478393871428"><ele>305.8</ele><time>2026-04-29T13:53:16.999Z</time></trkpt><trkpt lat="41.58903702673789" lon="19.993508534571056"><ele>307.0</ele><time>2026-04-29T13:53:17.999Z</time></trkpt><trkpt lat="41.58911910506707" lon="19.99353870154646"><ele>307.0</ele><time>2026-04-29T13:53:18.999Z</time></trkpt><trkpt lat="41.58920334582735" lon="19.99356382421188"><ele>307.0</ele><time>2026-04-29T13:53:19.999Z</time></trkpt><trkpt lat="41.58930127996602" lon="19.993588116705112"><ele>307.0</ele><time>2026-04-29T13:53:20.999Z</time></trkpt><trkpt lat="41.58941777168628" lon="19.993620504000834"><ele>307.0</ele><time>2026-04-29T13:53:21.999Z</time></trkpt><trkpt lat="41.58954171275234" lon="19.99367063234225"><ele>307.0</ele><time>2026-04-29T13:53:22.999Z</time></trkpt><trkpt lat="41.58967096343571" lon="19.993741536512832"><ele>305.25</ele><time>2026-04-29T13:53:23.999Z</time></trkpt><trkpt lat="41.589789385321" lon="19.993818936692467"><ele>303.5</ele><time>2026-04-29T13:53:24.999Z</time></trkpt><trkpt lat="41.58988920041068" lon="19.99388543661017"><ele>301.75</ele><time>2026-04-29T13:53:25.999Z</time></trkpt><trkpt lat="41.58998162884685" lon="19.993983013272455"><ele>300.0</ele><time>2026-04-29T13:53:26.999Z</time></trkpt><trkpt lat="41.59008475152858" lon="19.99409074223565"><ele>299.8</ele><time>2026-04-29T13:53:27.999Z</time></trkpt><trkpt lat="41.59017421606508" lon="19.994177112190147"><ele>299.6</ele><time>2026-04-29T13:53:28.999Z</time></trkpt><trkpt lat="41.59024936527783" lon="19.994246315231287"><ele>299.4</ele><time>2026-04-29T13:53:29.999Z</time></trkpt><trkpt lat="41.59030535840716" lon="19.994314735780648"><ele>299.2</ele><time>2026-04-29T13:53:30.999Z</time></trkpt><trkpt lat="41.59042500159654" lon="19.994214575886645"><ele>299.0</ele><time>2026-04-29T13:53:31.999Z</time></trkpt><trkpt lat="41.590529913799536" lon="19.994141221547086"><ele>300.0</ele><time>2026-04-29T13:53:32.999Z</time></trkpt><trkpt lat="41.59064688913638" lon="19.994059265100134"><ele>301.0</ele><time>2026-04-29T13:53:33.999Z</time></trkpt><trkpt lat="41.5907528949659" lon="19.994004119715008"><ele>302.0</ele><time>2026-04-29T13:53:34.999Z</time></trkpt><trkpt lat="41.590841247558245" lon="19.994001139886386"><ele>303.0</ele><time>2026-04-29T13:53:35.999Z</time></trkpt><trkpt lat="41.59093286035342" lon="19.994042430040043"><ele>304.0</ele><time>2026-04-29T13:53:36.999Z</time></trkpt><trkpt lat="41.591025871761225" lon="19.9941159176874"><ele>305.25</ele><time>2026-04-29T13:53:37.999Z</time></trkpt><trkpt lat="41.59111779955146" lon="19.994217818888895"><ele>306.5</ele><time>2026-04-29T13:53:38.999Z</time></trkpt><trkpt lat="41.59121086329492" lon="19.994344344893776"><ele>307.75</ele><time>2026-04-29T13:53:39.999Z</time></trkpt><trkpt lat="41.591314495199946" lon="19.994486958959442"><ele>309.0</ele><time>2026-04-29T13:53:40.999Z</time></trkpt><trkpt lat="41.591424272268505" lon="19.99463880802122"><ele>309.0</ele><time>2026-04-29T13:53:41.999Z</time></trkpt><trkpt lat="41.59152696568624" lon="19.994796667199285"><ele>309.0</ele><time>2026-04-29T13:53:42.999Z</time></trkpt><trkpt lat="41.59162375401405" lon="19.994969779794797"><ele>309.0</ele><time>2026-04-29T13:53:43.999Z</time></trkpt><trkpt lat="41.59171914766396" lon="19.995137603070322"><ele>309.0</ele><time>2026-04-29T13:53:44.999Z</time></trkpt><trkpt lat="41.59183292448858" lon="19.99528952005511"><ele>309.0</ele><time>2026-04-29T13:53:45.999Z</time></trkpt><trkpt lat="41.5919698379078" lon="19.99543700587066"><ele>309.0</ele><time>2026-04-29T13:53:46.999Z</time></trkpt><trkpt lat="41.592121398064855" lon="19.995583603734502"><ele>309.0</ele><time>2026-04-29T13:53:47.999Z</time></trkpt><trkpt lat="41.5922832790986" lon="19.99571732547147"><ele>309.0</ele><time>2026-04-29T13:53:48.999Z</time></trkpt><trkpt lat="41.592432174197576" lon="19.995823334781907"><ele>309.0</ele><time>2026-04-29T13:53:49.999Z</time></trkpt><trkpt lat="41.59256670210155" lon="19.995922561636593"><ele>310.0</ele><time>2026-04-29T13:53:50.999Z</time></trkpt><trkpt lat="41.59270325433071" lon="19.99603404360186"><ele>311.0</ele><time>2026-04-29T13:53:51.999Z</time></trkpt><trkpt lat="41.59284705477805" lon="19.99615153102705"><ele>312.0</ele><time>2026-04-29T13:53:52.999Z</time></trkpt><trkpt lat="41.59299650091784" lon="19.996261001418727"><ele>312.0</ele><time>2026-04-29T13:53:53.999Z</time></trkpt><trkpt lat="41.59313044512829" lon="19.996350630527672"><ele>312.0</ele><time>2026-04-29T13:53:54.999Z</time></trkpt><trkpt lat="41.59324816890408" lon="19.99642888532148"><ele>312.0</ele><time>2026-04-29T13:53:55.999Z</time></trkpt><trkpt lat="41.59335619787211" lon="19.996496159888054"><ele>312.0</ele><time>2026-04-29T13:53:56.999Z</time></trkpt><trkpt lat="41.59346704634224" lon="19.99656338737721"><ele>312.0</ele><time>2026-04-29T13:53:57.999Z</time></trkpt><trkpt lat="41.593582029687646" lon="19.996636467452642"><ele>312.0</ele><time>2026-04-29T13:53:58.999Z</time></trkpt><trkpt lat="41.593689531966376" lon="19.996706666260508"><ele>312.0</ele><time>2026-04-29T13:53:59.999Z</time></trkpt><trkpt lat="41.59380175130651" lon="19.996761030160876"><ele>312.0</ele><time>2026-04-29T13:54:00.999Z</time></trkpt><trkpt lat="41.59393217667462" lon="19.996832898967313"><ele>309.3333333333333</ele><time>2026-04-29T13:54:01.999Z</time></trkpt><trkpt lat="41.59410219883516" lon="19.996910995431012"><ele>306.66666666666663</ele><time>2026-04-29T13:54:02.999Z</time></trkpt><trkpt lat="41.59427428537717" lon="19.996970346910544"><ele>304.0</ele><time>2026-04-29T13:54:03.999Z</time></trkpt><trkpt lat="41.594417780749446" lon="19.99702000103828"><ele>304.25</ele><time>2026-04-29T13:54:04.999Z</time></trkpt><trkpt lat="41.59455111767072" lon="19.997023486362924"><ele>304.5</ele><time>2026-04-29T13:54:05.999Z</time></trkpt><trkpt lat="41.59467073655903" lon="19.997059058813093"><ele>304.75</ele><time>2026-04-29T13:54:06.999Z</time></trkpt><trkpt lat="41.59479548681378" lon="19.997090841367072"><ele>305.0</ele><time>2026-04-29T13:54:07.999Z</time></trkpt><trkpt lat="41.594931923894435" lon="19.997124459723437"><ele>305.0</ele><time>2026-04-29T13:54:08.999Z</time></trkpt><trkpt lat="41.59507126101244" lon="19.997160150044007"><ele>305.0</ele><time>2026-04-29T13:54:09.999Z</time></trkpt><trkpt lat="41.595199030844654" lon="19.99719689706808"><ele>305.0</ele><time>2026-04-29T13:54:10.999Z</time></trkpt><trkpt lat="41.59532180094617" lon="19.997232070295123"><ele>305.0</ele><time>2026-04-29T13:54:11.999Z</time></trkpt><trkpt lat="41.59545353891087" lon="19.997273191059712"><ele>305.25</ele><time>2026-04-29T13:54:12.999Z</time></trkpt><trkpt lat="41.59557230568074" lon="19.997322135238537"><ele>305.5</ele><time>2026-04-29T13:54:13.999Z</time></trkpt><trkpt lat="41.59568230702596" lon="19.99738410390935"><ele>305.75</ele><time>2026-04-29T13:54:14.999Z</time></trkpt><trkpt lat="41.59579560977102" lon="19.997462306793327"><ele>306.0</ele><time>2026-04-29T13:54:15.999Z</time></trkpt><trkpt lat="41.595911319874574" lon="19.997547451105653"><ele>306.5</ele><time>2026-04-29T13:54:16.999Z</time></trkpt><trkpt lat="41.59602387190928" lon="19.997633460344257"><ele>307.0</ele><time>2026-04-29T13:54:17.999Z</time></trkpt><trkpt lat="41.596134355044946" lon="19.997727325615546"><ele>307.5</ele><time>2026-04-29T13:54:18.999Z</time></trkpt><trkpt lat="41.596238961103374" lon="19.997831390960823"><ele>308.0</ele><time>2026-04-29T13:54:19.999Z</time></trkpt><trkpt lat="41.596334311142456" lon="19.997948963822555"><ele>311.25</ele><time>2026-04-29T13:54:20.999Z</time></trkpt><trkpt lat="41.596408776296066" lon="19.99807131948744"><ele>314.5</ele><time>2026-04-29T13:54:21.999Z</time></trkpt><trkpt lat="41.596450753934" lon="19.998204202402512"><ele>317.75</ele><time>2026-04-29T13:54:22.999Z</time></trkpt><trkpt lat="41.59645119507289" lon="19.998367699548723"><ele>321.0</ele><time>2026-04-29T13:54:23.999Z</time></trkpt><trkpt lat="41.5964401554157" lon="19.998533191852086"><ele>321.0</ele><time>2026-04-29T13:54:24.999Z</time></trkpt><trkpt lat="41.596450911396204" lon="19.99867901109699"><ele>321.0</ele><time>2026-04-29T13:54:25.999Z</time></trkpt><trkpt lat="41.59646491625896" lon="19.998804143059196"><ele>321.0</ele><time>2026-04-29T13:54:26.999Z</time></trkpt><trkpt lat="41.59652204682834" lon="19.99891421967771"><ele>321.0</ele><time>2026-04-29T13:54:27.999Z</time></trkpt><trkpt lat="41.596618842755035" lon="19.99899686047234"><ele>321.0</ele><time>2026-04-29T13:54:28.999Z</time></trkpt><trkpt lat="41.596746164775055" lon="19.999046331953863"><ele>321.0</ele><time>2026-04-29T13:54:29.999Z</time></trkpt><trkpt lat="41.59687627220006" lon="19.99911103424607"><ele>321.0</ele><time>2026-04-29T13:54:30.999Z</time></trkpt><trkpt lat="41.59700335651901" lon="19.999198287464974"><ele>321.0</ele><time>2026-04-29T13:54:31.999Z</time></trkpt><trkpt lat="41.597121784760546" lon="19.99934235567436"><ele>321.0</ele><time>2026-04-29T13:54:32.999Z</time></trkpt><trkpt lat="41.59726331662695" lon="19.999507849794345"><ele>320.8</ele><time>2026-04-29T13:54:33.999Z</time></trkpt><trkpt lat="41.5974047442542" lon="19.999651941158287"><ele>320.6</ele><time>2026-04-29T13:54:34.999Z</time></trkpt><trkpt lat="41.59749781806764" lon="19.999721055666445"><ele>320.4</ele><time>2026-04-29T13:54:35.999Z</time></trkpt><trkpt lat="41.597563674785384" lon="19.999758042654"><ele>320.2</ele><time>2026-04-29T13:54:36.999Z</time></trkpt><trkpt lat="41.59764087958833" lon="19.999752567883835"><ele>320.0</ele><time>2026-04-29T13:54:37.999Z</time></trkpt><trkpt lat="41.59775145519205" lon="19.999715277295216"><ele>319.0</ele><time>2026-04-29T13:54:38.999Z</time></trkpt><trkpt lat="41.5978647232801" lon="19.999651064416273"><ele>318.0</ele><time>2026-04-29T13:54:39.999Z</time></trkpt><trkpt lat="41.59797737789822" lon="19.99954965512919"><ele>317.0</ele><time>2026-04-29T13:54:40.999Z</time></trkpt><trkpt lat="41.59811359288658" lon="19.999411669892595"><ele>316.0</ele><time>2026-04-29T13:54:41.999Z</time></trkpt><trkpt lat="41.59830211025552" lon="19.999276886920104"><ele>316.0</ele><time>2026-04-29T13:54:42.999Z</time></trkpt><trkpt lat="41.59846002559794" lon="19.999178552958668"><ele>316.0</ele><time>2026-04-29T13:54:43.999Z</time></trkpt><trkpt lat="41.598577516853794" lon="19.99913088785749"><ele>316.0</ele><time>2026-04-29T13:54:44.999Z</time></trkpt><trkpt lat="41.59870036370523" lon="19.999084622426935"><ele>316.0</ele><time>2026-04-29T13:54:45.999Z</time></trkpt><trkpt lat="41.598843882885106" lon="19.999090996122458"><ele>317.5</ele><time>2026-04-29T13:54:46.999Z</time></trkpt><trkpt lat="41.59898788122722" lon="19.999119633806757"><ele>319.0</ele><time>2026-04-29T13:54:47.999Z</time></trkpt><trkpt lat="41.599116333882264" lon="19.999173355275815"><ele>320.5</ele><time>2026-04-29T13:54:48.999Z</time></trkpt><trkpt lat="41.599226018345206" lon="19.999248868983766"><ele>322.0</ele><time>2026-04-29T13:54:49.999Z</time></trkpt><trkpt lat="41.599337210915046" lon="19.999317024456772"><ele>322.0</ele><time>2026-04-29T13:54:50.999Z</time></trkpt><trkpt lat="41.599442521127905" lon="19.99933836006199"><ele>322.0</ele><time>2026-04-29T13:54:51.999Z</time></trkpt><trkpt lat="41.59956120483815" lon="19.999330763805066"><ele>322.0</ele><time>2026-04-29T13:54:52.999Z</time></trkpt><trkpt lat="41.599698845268236" lon="19.99933710294113"><ele>322.0</ele><time>2026-04-29T13:54:53.999Z</time></trkpt><trkpt lat="41.59984518577372" lon="19.999372708052928"><ele>324.25</ele><time>2026-04-29T13:54:54.999Z</time></trkpt><trkpt lat="41.59996463153893" lon="19.99941979419549"><ele>326.5</ele><time>2026-04-29T13:54:55.999Z</time></trkpt><trkpt lat="41.60006729512956" lon="19.999485344677545"><ele>328.75</ele><time>2026-04-29T13:54:56.999Z</time></trkpt><trkpt lat="41.60017122757751" lon="19.99958616498129"><ele>331.0</ele><time>2026-04-29T13:54:57.999Z</time></trkpt><trkpt lat="41.60026025156809" lon="19.999730558450832"><ele>332.5</ele><time>2026-04-29T13:54:58.999Z</time></trkpt><trkpt lat="41.60036884367935" lon="19.999872584955813"><ele>334.0</ele><time>2026-04-29T13:54:59.999Z</time></trkpt><trkpt lat="41.60045771093751" lon="20.00002052949593"><ele>335.5</ele><time>2026-04-29T13:55:00.999Z</time></trkpt><trkpt lat="41.600551478331326" lon="20.000165525447752"><ele>337.0</ele><time>2026-04-29T13:55:01.999Z</time></trkpt><trkpt lat="41.600648293181315" lon="20.000318118738537"><ele>337.0</ele><time>2026-04-29T13:55:02.999Z</time></trkpt><trkpt lat="41.60074378413203" lon="20.00048148353381"><ele>337.0</ele><time>2026-04-29T13:55:03.999Z</time></trkpt><trkpt lat="41.60083685845739" lon="20.000652356392937"><ele>337.0</ele><time>2026-04-29T13:55:04.999Z</time></trkpt><trkpt lat="41.60091407050725" lon="20.000813722372516"><ele>336.5</ele><time>2026-04-29T13:55:05.999Z</time></trkpt><trkpt lat="41.600986420581606" lon="20.000964043421053"><ele>336.0</ele><time>2026-04-29T13:55:06.999Z</time></trkpt><trkpt lat="41.601060585381354" lon="20.00111029587461"><ele>335.5</ele><time>2026-04-29T13:55:07.999Z</time></trkpt><trkpt lat="41.60111964991048" lon="20.001270855746004"><ele>335.0</ele><time>2026-04-29T13:55:08.999Z</time></trkpt><trkpt lat="41.601220418659736" lon="20.001411408670513"><ele>335.0</ele><time>2026-04-29T13:55:09.999Z</time></trkpt><trkpt lat="41.601345437586886" lon="20.001531753743272"><ele>335.0</ele><time>2026-04-29T13:55:10.999Z</time></trkpt><trkpt lat="41.60147058852253" lon="20.00167684912879"><ele>335.0</ele><time>2026-04-29T13:55:11.999Z</time></trkpt><trkpt lat="41.60162819595611" lon="20.0018398567773"><ele>334.33333333333337</ele><time>2026-04-29T13:55:12.999Z</time></trkpt><trkpt lat="41.60178495427761" lon="20.0019958357956"><ele>333.6666666666667</ele><time>2026-04-29T13:55:13.999Z</time></trkpt><trkpt lat="41.60193431446262" lon="20.002136809831242"><ele>333.0</ele><time>2026-04-29T13:55:14.999Z</time></trkpt><trkpt lat="41.60208182903651" lon="20.002291713604237"><ele>332.3333333333333</ele><time>2026-04-29T13:55:15.999Z</time></trkpt><trkpt lat="41.60222134599654" lon="20.002466338757973"><ele>331.66666666666663</ele><time>2026-04-29T13:55:16.999Z</time></trkpt><trkpt lat="41.60234839262787" lon="20.002655280153597"><ele>331.0</ele><time>2026-04-29T13:55:17.999Z</time></trkpt><trkpt lat="41.602475301144906" lon="20.00284926681193"><ele>331.0</ele><time>2026-04-29T13:55:18.999Z</time></trkpt><trkpt lat="41.60260948327703" lon="20.003036169705865"><ele>331.0</ele><time>2026-04-29T13:55:19.999Z</time></trkpt><trkpt lat="41.60275479592242" lon="20.00321487367487"><ele>331.0</ele><time>2026-04-29T13:55:20.999Z</time></trkpt><trkpt lat="41.60290813172756" lon="20.0033837071013"><ele>331.0</ele><time>2026-04-29T13:55:21.999Z</time></trkpt><trkpt lat="41.60306569181706" lon="20.003546811026208"><ele>331.0</ele><time>2026-04-29T13:55:22.999Z</time></trkpt><trkpt lat="41.60322668900857" lon="20.003703349260878"><ele>331.0</ele><time>2026-04-29T13:55:23.999Z</time></trkpt><trkpt lat="41.603388011101586" lon="20.003856083072577"><ele>331.0</ele><time>2026-04-29T13:55:24.999Z</time></trkpt><trkpt lat="41.603548989609024" lon="20.00400745413418"><ele>331.0</ele><time>2026-04-29T13:55:25.999Z</time></trkpt><trkpt lat="41.60370448234412" lon="20.004165817178464"><ele>331.0</ele><time>2026-04-29T13:55:26.999Z</time></trkpt><trkpt lat="41.603855030411125" lon="20.004327890694125"><ele>331.0</ele><time>2026-04-29T13:55:27.999Z</time></trkpt><trkpt lat="41.60400260823105" lon="20.004498967270603"><ele>331.0</ele><time>2026-04-29T13:55:28.999Z</time></trkpt><trkpt lat="41.604142977876066" lon="20.004674674046225"><ele>331.0</ele><time>2026-04-29T13:55:29.999Z</time></trkpt><trkpt lat="41.604276442470564" lon="20.00485669122725"><ele>331.3333333333333</ele><time>2026-04-29T13:55:30.999Z</time></trkpt><trkpt lat="41.604401916291614" lon="20.005042933915732"><ele>331.6666666666667</ele><time>2026-04-29T13:55:31.999Z</time></trkpt><trkpt lat="41.604528147815664" lon="20.00522373655846"><ele>332.0</ele><time>2026-04-29T13:55:32.999Z</time></trkpt><trkpt lat="41.60465556096878" lon="20.005402219275535"><ele>331.0</ele><time>2026-04-29T13:55:33.999Z</time></trkpt><trkpt lat="41.60477674095634" lon="20.005574162205267"><ele>330.0</ele><time>2026-04-29T13:55:34.999Z</time></trkpt><trkpt lat="41.60489046891437" lon="20.005730348915105"><ele>329.0</ele><time>2026-04-29T13:55:35.999Z</time></trkpt><trkpt lat="41.60499062873971" lon="20.005884019823483"><ele>329.0</ele><time>2026-04-29T13:55:36.999Z</time></trkpt><trkpt lat="41.60508332669716" lon="20.006031828259225"><ele>329.0</ele><time>2026-04-29T13:55:37.999Z</time></trkpt><trkpt lat="41.60517203933012" lon="20.006166062815584"><ele>329.0</ele><time>2026-04-29T13:55:38.999Z</time></trkpt><trkpt lat="41.605258590452216" lon="20.006292200772823"><ele>329.0</ele><time>2026-04-29T13:55:39.999Z</time></trkpt><trkpt lat="41.60534323172958" lon="20.00640701244181"><ele>328.25</ele><time>2026-04-29T13:55:40.999Z</time></trkpt><trkpt lat="41.60542196894833" lon="20.006515790977456"><ele>327.5</ele><time>2026-04-29T13:55:41.999Z</time></trkpt><trkpt lat="41.60550230574518" lon="20.006634084656664"><ele>326.75</ele><time>2026-04-29T13:55:42.999Z</time></trkpt><trkpt lat="41.60558286579765" lon="20.00676435968027"><ele>326.0</ele><time>2026-04-29T13:55:43.999Z</time></trkpt><trkpt lat="41.60567267747879" lon="20.006898732831193"><ele>325.75</ele><time>2026-04-29T13:55:44.999Z</time></trkpt><trkpt lat="41.605767978577084" lon="20.007037744156417"><ele>325.5</ele><time>2026-04-29T13:55:45.999Z</time></trkpt><trkpt lat="41.605867248465934" lon="20.00718042814037"><ele>325.25</ele><time>2026-04-29T13:55:46.999Z</time></trkpt><trkpt lat="41.60597139089969" lon="20.0073250086398"><ele>325.0</ele><time>2026-04-29T13:55:47.999Z</time></trkpt><trkpt lat="41.6060778675502" lon="20.007479308755144"><ele>324.0</ele><time>2026-04-29T13:55:48.999Z</time></trkpt><trkpt lat="41.6061767880273" lon="20.007624357914125"><ele>323.0</ele><time>2026-04-29T13:55:49.999Z</time></trkpt><trkpt lat="41.606266601825865" lon="20.007753907023268"><ele>322.0</ele><time>2026-04-29T13:55:50.999Z</time></trkpt><trkpt lat="41.60635282761902" lon="20.007877568811754"><ele>321.0</ele><time>2026-04-29T13:55:51.999Z</time></trkpt><trkpt lat="41.60644195649424" lon="20.008008260158917"><ele>321.0</ele><time>2026-04-29T13:55:52.999Z</time></trkpt><trkpt lat="41.60653535508167" lon="20.008143466259863"><ele>321.0</ele><time>2026-04-29T13:55:53.999Z</time></trkpt><trkpt lat="41.60662792917279" lon="20.008275529810536"><ele>321.0</ele><time>2026-04-29T13:55:54.999Z</time></trkpt><trkpt lat="41.606719380724954" lon="20.008398088486935"><ele>321.0</ele><time>2026-04-29T13:55:55.999Z</time></trkpt><trkpt lat="41.6067994490831" lon="20.00851176012977"><ele>321.20000000000005</ele><time>2026-04-29T13:55:56.999Z</time></trkpt><trkpt lat="41.60686749088363" lon="20.008621286649362"><ele>321.40000000000003</ele><time>2026-04-29T13:55:57.999Z</time></trkpt><trkpt lat="41.60693519930506" lon="20.008722507989276"><ele>321.6</ele><time>2026-04-29T13:55:58.999Z</time></trkpt><trkpt lat="41.60699950601916" lon="20.008819210881825"><ele>321.8</ele><time>2026-04-29T13:55:59.999Z</time></trkpt><trkpt lat="41.60705666716441" lon="20.008909645011613"><ele>322.0</ele><time>2026-04-29T13:56:00.999Z</time></trkpt><trkpt lat="41.607117290855236" lon="20.008995032975605"><ele>321.40000000000003</ele><time>2026-04-29T13:56:01.999Z</time></trkpt><trkpt lat="41.60719064016191" lon="20.00908798961124"><ele>320.8</ele><time>2026-04-29T13:56:02.999Z</time></trkpt><trkpt lat="41.607269673388565" lon="20.009192812870396"><ele>320.2</ele><time>2026-04-29T13:56:03.999Z</time></trkpt><trkpt lat="41.60734507743481" lon="20.009309123948775"><ele>319.6</ele><time>2026-04-29T13:56:04.999Z</time></trkpt><trkpt lat="41.607406475645874" lon="20.009414015559766"><ele>319.0</ele><time>2026-04-29T13:56:05.999Z</time></trkpt><trkpt lat="41.60746555306924" lon="20.00950701236599"><ele>319.0</ele><time>2026-04-29T13:56:06.999Z</time></trkpt><trkpt lat="41.607529587418156" lon="20.00958994423768"><ele>319.0</ele><time>2026-04-29T13:56:07.999Z</time></trkpt><trkpt lat="41.60758303694806" lon="20.009660717905415"><ele>319.0</ele><time>2026-04-29T13:56:08.999Z</time></trkpt><trkpt lat="41.607634090886435" lon="20.009724786875527"><ele>319.0</ele><time>2026-04-29T13:56:09.999Z</time></trkpt><trkpt lat="41.60767814852348" lon="20.009789671215287"><ele>319.0</ele><time>2026-04-29T13:56:10.999Z</time></trkpt><trkpt lat="41.607717035341004" lon="20.009859100081524"><ele>319.0</ele><time>2026-04-29T13:56:11.999Z</time></trkpt><trkpt lat="41.607756900106246" lon="20.00992646485015"><ele>319.0</ele><time>2026-04-29T13:56:12.999Z</time></trkpt><trkpt lat="41.60784585169525" lon="20.010042948245324"><ele>318.8</ele><time>2026-04-29T13:56:14.999Z</time></trkpt><trkpt lat="41.60791472897633" lon="20.010143746244854"><ele>318.59999999999997</ele><time>2026-04-29T13:56:16.999Z</time></trkpt><trkpt lat="41.607836882520154" lon="20.010298347792077"><ele>318.4</ele><time>2026-04-29T13:56:19.999Z</time></trkpt><trkpt lat="41.607789553116625" lon="20.010357949005932"><ele>318.2</ele><time>2026-04-29T13:56:20.999Z</time></trkpt><trkpt lat="41.60774151574948" lon="20.01042479309616"><ele>318.0</ele><time>2026-04-29T13:56:21.999Z</time></trkpt><trkpt lat="41.60767799210391" lon="20.01049741137065"><ele>318.0</ele><time>2026-04-29T13:56:22.999Z</time></trkpt><trkpt lat="41.60761594401028" lon="20.010571912659042"><ele>318.0</ele><time>2026-04-29T13:56:23.999Z</time></trkpt><trkpt lat="41.60755038692532" lon="20.010646457193822"><ele>318.0</ele><time>2026-04-29T13:56:24.999Z</time></trkpt><trkpt lat="41.60748774391422" lon="20.010722003082012"><ele>318.0</ele><time>2026-04-29T13:56:25.999Z</time></trkpt><trkpt lat="41.60742936684159" lon="20.01079859586812"><ele>318.0</ele><time>2026-04-29T13:56:26.999Z</time></trkpt><trkpt lat="41.607384202752215" lon="20.010873201118077"><ele>318.0</ele><time>2026-04-29T13:56:27.999Z</time></trkpt><trkpt lat="41.607350454166685" lon="20.0109586543724"><ele>317.8333333333333</ele><time>2026-04-29T13:56:28.999Z</time></trkpt><trkpt lat="41.60734233731496" lon="20.011058264532142"><ele>317.6666666666667</ele><time>2026-04-29T13:56:29.999Z</time></trkpt><trkpt lat="41.6073543772815" lon="20.01116366339129"><ele>317.5</ele><time>2026-04-29T13:56:30.999Z</time></trkpt><trkpt lat="41.60737807992538" lon="20.011270916288037"><ele>317.33333333333337</ele><time>2026-04-29T13:56:31.999Z</time></trkpt><trkpt lat="41.60738716530303" lon="20.011386669536133"><ele>317.1666666666667</ele><time>2026-04-29T13:56:32.999Z</time></trkpt><trkpt lat="41.60739926647743" lon="20.01150149075654"><ele>317.0</ele><time>2026-04-29T13:56:33.999Z</time></trkpt><trkpt lat="41.6074164596287" lon="20.01164015371017"><ele>316.25</ele><time>2026-04-29T13:56:34.999Z</time></trkpt><trkpt lat="41.60743124180864" lon="20.01178253964886"><ele>315.5</ele><time>2026-04-29T13:56:35.999Z</time></trkpt><trkpt lat="41.607449903219745" lon="20.011939073668916"><ele>314.75</ele><time>2026-04-29T13:56:36.999Z</time></trkpt><trkpt lat="41.60746601614346" lon="20.012104391867155"><ele>314.0</ele><time>2026-04-29T13:56:37.999Z</time></trkpt><trkpt lat="41.60748564199433" lon="20.0122758879062"><ele>314.0</ele><time>2026-04-29T13:56:38.999Z</time></trkpt><trkpt lat="41.60750516791772" lon="20.01245338266081"><ele>314.0</ele><time>2026-04-29T13:56:39.999Z</time></trkpt><trkpt lat="41.60752653707044" lon="20.012627925191754"><ele>314.0</ele><time>2026-04-29T13:56:40.999Z</time></trkpt><trkpt lat="41.60753800346596" lon="20.012784975829145"><ele>314.0</ele><time>2026-04-29T13:56:41.999Z</time></trkpt><trkpt lat="41.60754327691819" lon="20.01292793365046"><ele>314.25</ele><time>2026-04-29T13:56:42.999Z</time></trkpt><trkpt lat="41.607556908649514" lon="20.01306430029743"><ele>314.5</ele><time>2026-04-29T13:56:43.999Z</time></trkpt><trkpt lat="41.6075851417711" lon="20.01321883011656"><ele>314.75</ele><time>2026-04-29T13:56:44.999Z</time></trkpt><trkpt lat="41.60762657424175" lon="20.01337627861511"><ele>315.0</ele><time>2026-04-29T13:56:45.999Z</time></trkpt><trkpt lat="41.607680388194645" lon="20.013529166505354"><ele>314.4</ele><time>2026-04-29T13:56:46.999Z</time></trkpt><trkpt lat="41.60773593534361" lon="20.013661001236503"><ele>313.8</ele><time>2026-04-29T13:56:47.999Z</time></trkpt><trkpt lat="41.607792547907664" lon="20.013774683167664"><ele>313.2</ele><time>2026-04-29T13:56:48.999Z</time></trkpt><trkpt lat="41.60784567452761" lon="20.01388440917804"><ele>312.6</ele><time>2026-04-29T13:56:49.999Z</time></trkpt><trkpt lat="41.60789587533672" lon="20.013992117871013"><ele>312.0</ele><time>2026-04-29T13:56:50.999Z</time></trkpt><trkpt lat="41.60794732542139" lon="20.014096746599364"><ele>311.2</ele><time>2026-04-29T13:56:51.999Z</time></trkpt><trkpt lat="41.607999597099685" lon="20.014204500636712"><ele>310.4</ele><time>2026-04-29T13:56:52.999Z</time></trkpt><trkpt lat="41.60805217359255" lon="20.01431273652703"><ele>309.6</ele><time>2026-04-29T13:56:53.999Z</time></trkpt><trkpt lat="41.60810396301108" lon="20.014423687389826"><ele>308.8</ele><time>2026-04-29T13:56:54.999Z</time></trkpt><trkpt lat="41.608159550365045" lon="20.014536435048555"><ele>308.0</ele><time>2026-04-29T13:56:55.999Z</time></trkpt><trkpt lat="41.60821267465852" lon="20.014644931890373"><ele>308.0</ele><time>2026-04-29T13:56:56.999Z</time></trkpt><trkpt lat="41.60825978284436" lon="20.014734035008747"><ele>308.0</ele><time>2026-04-29T13:56:57.999Z</time></trkpt><trkpt lat="41.60831023133071" lon="20.01481601474483"><ele>308.0</ele><time>2026-04-29T13:56:58.999Z</time></trkpt><trkpt lat="41.608356157046195" lon="20.014914244761204"><ele>308.0</ele><time>2026-04-29T13:56:59.999Z</time></trkpt><trkpt lat="41.60840802000304" lon="20.015019532418858"><ele>308.0</ele><time>2026-04-29T13:57:00.999Z</time></trkpt><trkpt lat="41.60845883378727" lon="20.01513386840376"><ele>308.0</ele><time>2026-04-29T13:57:01.999Z</time></trkpt><trkpt lat="41.60852063288203" lon="20.015252957817086"><ele>307.75</ele><time>2026-04-29T13:57:02.999Z</time></trkpt><trkpt lat="41.60858692289701" lon="20.01537826727649"><ele>307.5</ele><time>2026-04-29T13:57:03.999Z</time></trkpt><trkpt lat="41.60865314755255" lon="20.015515022413066"><ele>307.25</ele><time>2026-04-29T13:57:04.999Z</time></trkpt><trkpt lat="41.60871636905089" lon="20.015660956178696"><ele>307.0</ele><time>2026-04-29T13:57:05.999Z</time></trkpt><trkpt lat="41.608771742901524" lon="20.015799128538077"><ele>306.6</ele><time>2026-04-29T13:57:06.999Z</time></trkpt><trkpt lat="41.60882001735047" lon="20.015926693309066"><ele>306.2</ele><time>2026-04-29T13:57:07.999Z</time></trkpt><trkpt lat="41.608866727941056" lon="20.016046037524152"><ele>305.8</ele><time>2026-04-29T13:57:08.999Z</time></trkpt><trkpt lat="41.608919218284434" lon="20.01616741209102"><ele>305.4</ele><time>2026-04-29T13:57:09.999Z</time></trkpt><trkpt lat="41.60897851169565" lon="20.016286841187696"><ele>305.0</ele><time>2026-04-29T13:57:10.999Z</time></trkpt><trkpt lat="41.60904516719899" lon="20.016399664740515"><ele>305.0</ele><time>2026-04-29T13:57:11.999Z</time></trkpt><trkpt lat="41.6091144195526" lon="20.016500957668335"><ele>305.0</ele><time>2026-04-29T13:57:12.999Z</time></trkpt><trkpt lat="41.60917683539765" lon="20.016599814518543"><ele>305.0</ele><time>2026-04-29T13:57:13.999Z</time></trkpt><trkpt lat="41.609230472013245" lon="20.01670604336853"><ele>305.0</ele><time>2026-04-29T13:57:14.999Z</time></trkpt><trkpt lat="41.609281804862015" lon="20.016820339857002"><ele>305.0</ele><time>2026-04-29T13:57:15.999Z</time></trkpt><trkpt lat="41.60931353017684" lon="20.016964559500597"><ele>304.75</ele><time>2026-04-29T13:57:16.999Z</time></trkpt><trkpt lat="41.6093206720676" lon="20.017122674972693"><ele>304.5</ele><time>2026-04-29T13:57:17.999Z</time></trkpt><trkpt lat="41.60931142575141" lon="20.017298630617077"><ele>304.25</ele><time>2026-04-29T13:57:18.999Z</time></trkpt><trkpt lat="41.609288594832776" lon="20.01745436327861"><ele>304.0</ele><time>2026-04-29T13:57:19.999Z</time></trkpt><trkpt lat="41.60925512038387" lon="20.017590676861236"><ele>302.2</ele><time>2026-04-29T13:57:20.999Z</time></trkpt><trkpt lat="41.60919990216599" lon="20.0177051161376"><ele>300.4</ele><time>2026-04-29T13:57:21.999Z</time></trkpt><trkpt lat="41.60912245604228" lon="20.017783297607867"><ele>298.6</ele><time>2026-04-29T13:57:22.999Z</time></trkpt><trkpt lat="41.60902664213777" lon="20.017816874239383"><ele>296.8</ele><time>2026-04-29T13:57:23.999Z</time></trkpt><trkpt lat="41.60891694774809" lon="20.017854743475887"><ele>295.0</ele><time>2026-04-29T13:57:24.999Z</time></trkpt><trkpt lat="41.60880424023027" lon="20.017925889474643"><ele>295.0</ele><time>2026-04-29T13:57:25.999Z</time></trkpt><trkpt lat="41.6087042367191" lon="20.018009406385705"><ele>295.0</ele><time>2026-04-29T13:57:26.999Z</time></trkpt><trkpt lat="41.60861878262224" lon="20.018107542529116"><ele>295.0</ele><time>2026-04-29T13:57:27.999Z</time></trkpt><trkpt lat="41.60853922494556" lon="20.018219729646628"><ele>295.0</ele><time>2026-04-29T13:57:28.999Z</time></trkpt><trkpt lat="41.60846286964451" lon="20.018339625491844"><ele>294.0</ele><time>2026-04-29T13:57:29.999Z</time></trkpt><trkpt lat="41.60839029657627" lon="20.018463696980792"><ele>293.0</ele><time>2026-04-29T13:57:30.999Z</time></trkpt><trkpt lat="41.60832177767389" lon="20.01859251801098"><ele>292.0</ele><time>2026-04-29T13:57:31.999Z</time></trkpt><trkpt lat="41.608250686639686" lon="20.018723566106104"><ele>291.0</ele><time>2026-04-29T13:57:32.999Z</time></trkpt><trkpt lat="41.6081751489083" lon="20.01885695199757"><ele>291.0</ele><time>2026-04-29T13:57:33.999Z</time></trkpt><trkpt lat="41.60809720077615" lon="20.018989262683377"><ele>291.0</ele><time>2026-04-29T13:57:34.999Z</time></trkpt><trkpt lat="41.60801728416922" lon="20.01909872641019"><ele>291.0</ele><time>2026-04-29T13:57:35.999Z</time></trkpt><trkpt lat="41.6079190486059" lon="20.01916245363434"><ele>291.0</ele><time>2026-04-29T13:57:36.999Z</time></trkpt><trkpt lat="41.60781323223798" lon="20.019242260395085"><ele>291.25</ele><time>2026-04-29T13:57:37.999Z</time></trkpt><trkpt lat="41.60769971566306" lon="20.019327874772408"><ele>291.5</ele><time>2026-04-29T13:57:38.999Z</time></trkpt><trkpt lat="41.60758937288218" lon="20.019429308497724"><ele>291.75</ele><time>2026-04-29T13:57:39.999Z</time></trkpt><trkpt lat="41.607485581410145" lon="20.01950274661644"><ele>292.0</ele><time>2026-04-29T13:57:40.999Z</time></trkpt><trkpt lat="41.60740583593522" lon="20.019572567090187"><ele>292.0</ele><time>2026-04-29T13:57:41.999Z</time></trkpt><trkpt lat="41.607326297841134" lon="20.019608761840434"><ele>292.0</ele><time>2026-04-29T13:57:42.999Z</time></trkpt><trkpt lat="41.60732369865112" lon="20.01976758187237"><ele>292.0</ele><time>2026-04-29T13:57:43.999Z</time></trkpt><trkpt lat="41.607337980673925" lon="20.0198729478222"><ele>292.0</ele><time>2026-04-29T13:57:44.999Z</time></trkpt><trkpt lat="41.607372076949716" lon="20.01996516689611"><ele>292.0</ele><time>2026-04-29T13:57:45.999Z</time></trkpt><trkpt lat="41.60746681212589" lon="20.02000973722413"><ele>292.0</ele><time>2026-04-29T13:57:46.999Z</time></trkpt><trkpt lat="41.607555660732835" lon="20.020002210646854"><ele>292.0</ele><time>2026-04-29T13:57:47.999Z</time></trkpt><trkpt lat="41.60765840639975" lon="20.01995204191498"><ele>292.0</ele><time>2026-04-29T13:57:48.999Z</time></trkpt><trkpt lat="41.60777414713927" lon="20.01988331341264"><ele>292.0</ele><time>2026-04-29T13:57:49.999Z</time></trkpt><trkpt lat="41.60790400069629" lon="20.019810620516328"><ele>289.5</ele><time>2026-04-29T13:57:50.999Z</time></trkpt><trkpt lat="41.608037523993104" lon="20.019738324988307"><ele>287.0</ele><time>2026-04-29T13:57:51.999Z</time></trkpt><trkpt lat="41.60817499254938" lon="20.019665083117502"><ele>284.5</ele><time>2026-04-29T13:57:52.999Z</time></trkpt><trkpt lat="41.608304431522576" lon="20.01959670918061"><ele>282.0</ele><time>2026-04-29T13:57:53.999Z</time></trkpt><trkpt lat="41.60841833291128" lon="20.019534321233902"><ele>282.0</ele><time>2026-04-29T13:57:54.999Z</time></trkpt><trkpt lat="41.608530901811285" lon="20.01947064493075"><ele>282.0</ele><time>2026-04-29T13:57:55.999Z</time></trkpt><trkpt lat="41.608645906151295" lon="20.01940500436117"><ele>282.0</ele><time>2026-04-29T13:57:56.999Z</time></trkpt><trkpt lat="41.60876793171804" lon="20.0193428195121"><ele>282.0</ele><time>2026-04-29T13:57:57.999Z</time></trkpt><trkpt lat="41.60889605034316" lon="20.01928822406168"><ele>279.5</ele><time>2026-04-29T13:57:58.999Z</time></trkpt><trkpt lat="41.60903418227323" lon="20.019252720341637"><ele>277.0</ele><time>2026-04-29T13:57:59.999Z</time></trkpt><trkpt lat="41.60918227906662" lon="20.01923508150061"><ele>274.5</ele><time>2026-04-29T13:58:00.999Z</time></trkpt><trkpt lat="41.60933520071008" lon="20.019227544785558"><ele>272.0</ele><time>2026-04-29T13:58:01.999Z</time></trkpt><trkpt lat="41.60949437671515" lon="20.019220720797104"><ele>270.0</ele><time>2026-04-29T13:58:02.999Z</time></trkpt><trkpt lat="41.609641739835055" lon="20.019219134389363"><ele>268.0</ele><time>2026-04-29T13:58:03.999Z</time></trkpt><trkpt lat="41.6097802299223" lon="20.019212602983988"><ele>266.0</ele><time>2026-04-29T13:58:04.999Z</time></trkpt><trkpt lat="41.609911656937925" lon="20.0192093202324"><ele>264.0</ele><time>2026-04-29T13:58:05.999Z</time></trkpt><trkpt lat="41.610045416923555" lon="20.019206392812563"><ele>264.0</ele><time>2026-04-29T13:58:06.999Z</time></trkpt><trkpt lat="41.610190073631514" lon="20.01920429216575"><ele>264.0</ele><time>2026-04-29T13:58:07.999Z</time></trkpt><trkpt lat="41.610320764582156" lon="20.019203919810792"><ele>264.0</ele><time>2026-04-29T13:58:08.999Z</time></trkpt><trkpt lat="41.61044888946306" lon="20.019204567274038"><ele>264.0</ele><time>2026-04-29T13:58:09.999Z</time></trkpt><trkpt lat="41.61057422864544" lon="20.019203754784908"><ele>263.5</ele><time>2026-04-29T13:58:10.999Z</time></trkpt><trkpt lat="41.61069977314984" lon="20.01919821379048"><ele>263.0</ele><time>2026-04-29T13:58:11.999Z</time></trkpt><trkpt lat="41.610821941988696" lon="20.019198174084572"><ele>262.5</ele><time>2026-04-29T13:58:12.999Z</time></trkpt><trkpt lat="41.61093904299457" lon="20.01919947628982"><ele>262.0</ele><time>2026-04-29T13:58:13.999Z</time></trkpt><trkpt lat="41.611048801708016" lon="20.01920040857359"><ele>262.0</ele><time>2026-04-29T13:58:14.999Z</time></trkpt><trkpt lat="41.61114549989944" lon="20.019206247807073"><ele>262.0</ele><time>2026-04-29T13:58:15.999Z</time></trkpt><trkpt lat="41.6112187350576" lon="20.01923301447114"><ele>262.0</ele><time>2026-04-29T13:58:16.999Z</time></trkpt><trkpt lat="41.61127182328164" lon="20.019299902753954"><ele>262.0</ele><time>2026-04-29T13:58:17.999Z</time></trkpt><trkpt lat="41.61130157071294" lon="20.01940726001703"><ele>262.0</ele><time>2026-04-29T13:58:18.999Z</time></trkpt><trkpt lat="41.611295667082615" lon="20.019528349498092"><ele>262.0</ele><time>2026-04-29T13:58:19.999Z</time></trkpt><trkpt lat="41.61125597458551" lon="20.019655350246467"><ele>262.0</ele><time>2026-04-29T13:58:20.999Z</time></trkpt><trkpt lat="41.6111965734984" lon="20.019788182153363"><ele>262.0</ele><time>2026-04-29T13:58:21.999Z</time></trkpt><trkpt lat="41.611109700043876" lon="20.019913246241064"><ele>262.0</ele><time>2026-04-29T13:58:22.999Z</time></trkpt><trkpt lat="41.61099908952708" lon="20.02001760253964"><ele>262.0</ele><time>2026-04-29T13:58:23.999Z</time></trkpt><trkpt lat="41.61086952910135" lon="20.0200932751985"><ele>259.75</ele><time>2026-04-29T13:58:24.999Z</time></trkpt><trkpt lat="41.61072927080749" lon="20.02016984192979"><ele>257.5</ele><time>2026-04-29T13:58:25.999Z</time></trkpt><trkpt lat="41.61058884287792" lon="20.02023352751526"><ele>255.25</ele><time>2026-04-29T13:58:26.999Z</time></trkpt><trkpt lat="41.610449724881626" lon="20.02027689893511"><ele>253.0</ele><time>2026-04-29T13:58:27.999Z</time></trkpt><trkpt lat="41.61031013441246" lon="20.020290047777127"><ele>253.0</ele><time>2026-04-29T13:58:28.999Z</time></trkpt><trkpt lat="41.61017437953502" lon="20.020287930417382"><ele>253.0</ele><time>2026-04-29T13:58:29.999Z</time></trkpt><trkpt lat="41.610035857005336" lon="20.020317892453384"><ele>253.0</ele><time>2026-04-29T13:58:30.999Z</time></trkpt><trkpt lat="41.60989193040056" lon="20.020398018704388"><ele>253.0</ele><time>2026-04-29T13:58:31.999Z</time></trkpt><trkpt lat="41.60974367577425" lon="20.02050313170971"><ele>253.0</ele><time>2026-04-29T13:58:32.999Z</time></trkpt><trkpt lat="41.609601458250054" lon="20.02060979478574"><ele>253.0</ele><time>2026-04-29T13:58:33.999Z</time></trkpt><trkpt lat="41.60946946842531" lon="20.02070827933451"><ele>253.0</ele><time>2026-04-29T13:58:34.999Z</time></trkpt><trkpt lat="41.6093485883973" lon="20.0207957642124"><ele>250.0</ele><time>2026-04-29T13:58:35.999Z</time></trkpt><trkpt lat="41.609232437144684" lon="20.02087897543087"><ele>247.0</ele><time>2026-04-29T13:58:36.999Z</time></trkpt><trkpt lat="41.60912838782594" lon="20.02097177234147"><ele>244.0</ele><time>2026-04-29T13:58:37.999Z</time></trkpt><trkpt lat="41.60903459069599" lon="20.021066614274798"><ele>241.0</ele><time>2026-04-29T13:58:38.999Z</time></trkpt><trkpt lat="41.608946040777624" lon="20.02116098950245"><ele>241.0</ele><time>2026-04-29T13:58:39.999Z</time></trkpt><trkpt lat="41.608860416102644" lon="20.0212533697956"><ele>241.0</ele><time>2026-04-29T13:58:40.999Z</time></trkpt><trkpt lat="41.60877990044325" lon="20.021349374014683"><ele>241.0</ele><time>2026-04-29T13:58:41.999Z</time></trkpt><trkpt lat="41.608695766340354" lon="20.021447614582904"><ele>241.0</ele><time>2026-04-29T13:58:42.999Z</time></trkpt><trkpt lat="41.60860027941499" lon="20.02156040297146"><ele>238.75</ele><time>2026-04-29T13:58:43.999Z</time></trkpt><trkpt lat="41.60848538962287" lon="20.02166718766599"><ele>236.5</ele><time>2026-04-29T13:58:44.999Z</time></trkpt><trkpt lat="41.60836192631245" lon="20.02175971249809"><ele>234.25</ele><time>2026-04-29T13:58:45.999Z</time></trkpt><trkpt lat="41.608239174535406" lon="20.021847038166445"><ele>232.0</ele><time>2026-04-29T13:58:46.999Z</time></trkpt><trkpt lat="41.60812828623926" lon="20.021932755964382"><ele>232.0</ele><time>2026-04-29T13:58:47.999Z</time></trkpt><trkpt lat="41.60801599706849" lon="20.022019038657128"><ele>232.0</ele><time>2026-04-29T13:58:48.999Z</time></trkpt><trkpt lat="41.60789743170218" lon="20.022106157666773"><ele>232.0</ele><time>2026-04-29T13:58:49.999Z</time></trkpt><trkpt lat="41.607776340416386" lon="20.022203755830223"><ele>232.0</ele><time>2026-04-29T13:58:50.999Z</time></trkpt><trkpt lat="41.607664701234285" lon="20.022295873236047"><ele>233.25</ele><time>2026-04-29T13:58:51.999Z</time></trkpt><trkpt lat="41.607557827757574" lon="20.022383766019676"><ele>234.5</ele><time>2026-04-29T13:58:52.999Z</time></trkpt><trkpt lat="41.60745634486611" lon="20.022468053753194"><ele>235.75</ele><time>2026-04-29T13:58:53.999Z</time></trkpt><trkpt lat="41.60735575849347" lon="20.022541488210138"><ele>237.0</ele><time>2026-04-29T13:58:54.999Z</time></trkpt><trkpt lat="41.60725555380568" lon="20.022618504716586"><ele>234.5</ele><time>2026-04-29T13:58:55.999Z</time></trkpt><trkpt lat="41.60715017542817" lon="20.022704158508162"><ele>232.0</ele><time>2026-04-29T13:58:56.999Z</time></trkpt><trkpt lat="41.60704161853861" lon="20.022794978401368"><ele>229.5</ele><time>2026-04-29T13:58:57.999Z</time></trkpt><trkpt lat="41.606939812195435" lon="20.02288922515975"><ele>227.0</ele><time>2026-04-29T13:58:58.999Z</time></trkpt><trkpt lat="41.60684409762822" lon="20.022979488806342"><ele>227.0</ele><time>2026-04-29T13:58:59.999Z</time></trkpt><trkpt lat="41.60676297321984" lon="20.023067019772128"><ele>227.0</ele><time>2026-04-29T13:59:00.999Z</time></trkpt><trkpt lat="41.60670405775587" lon="20.023156544671636"><ele>227.0</ele><time>2026-04-29T13:59:01.999Z</time></trkpt><trkpt lat="41.60665792346479" lon="20.02325697664632"><ele>227.0</ele><time>2026-04-29T13:59:02.999Z</time></trkpt><trkpt lat="41.606628152419795" lon="20.023371332589708"><ele>227.0</ele><time>2026-04-29T13:59:03.999Z</time></trkpt><trkpt lat="41.60661701975305" lon="20.02349251682388"><ele>225.2</ele><time>2026-04-29T13:59:04.999Z</time></trkpt><trkpt lat="41.606632336834856" lon="20.023618863093148"><ele>223.39999999999998</ele><time>2026-04-29T13:59:05.999Z</time></trkpt><trkpt lat="41.606664136325364" lon="20.023741061353604"><ele>221.60000000000002</ele><time>2026-04-29T13:59:06.999Z</time></trkpt><trkpt lat="41.606711214038356" lon="20.023856395543365"><ele>219.8</ele><time>2026-04-29T13:59:07.999Z</time></trkpt><trkpt lat="41.60677748767157" lon="20.023971413360858"><ele>218.0</ele><time>2026-04-29T13:59:08.999Z</time></trkpt><trkpt lat="41.606851796431236" lon="20.024081692988226"><ele>215.25</ele><time>2026-04-29T13:59:09.999Z</time></trkpt><trkpt lat="41.606931356764775" lon="20.02419866499669"><ele>212.5</ele><time>2026-04-29T13:59:10.999Z</time></trkpt><trkpt lat="41.60701751535783" lon="20.02432452998532"><ele>209.75</ele><time>2026-04-29T13:59:11.999Z</time></trkpt><trkpt lat="41.607121646372185" lon="20.02446708375309"><ele>207.0</ele><time>2026-04-29T13:59:12.999Z</time></trkpt><trkpt lat="41.60723734526076" lon="20.02465762563182"><ele>206.66666666666669</ele><time>2026-04-29T13:59:13.999Z</time></trkpt><trkpt lat="41.607382731297314" lon="20.024838881792743"><ele>206.33333333333334</ele><time>2026-04-29T13:59:14.999Z</time></trkpt><trkpt lat="41.60750014383173" lon="20.025023488664903"><ele>206.0</ele><time>2026-04-29T13:59:15.999Z</time></trkpt><trkpt lat="41.60761464367638" lon="20.02520146122342"><ele>205.25</ele><time>2026-04-29T13:59:16.999Z</time></trkpt><trkpt lat="41.607720764997154" lon="20.025362082810588"><ele>204.5</ele><time>2026-04-29T13:59:17.999Z</time></trkpt><trkpt lat="41.60782035857053" lon="20.02551428906874"><ele>203.75</ele><time>2026-04-29T13:59:18.999Z</time></trkpt><trkpt lat="41.607905699410935" lon="20.02564546352413"><ele>203.0</ele><time>2026-04-29T13:59:19.999Z</time></trkpt><trkpt lat="41.60797268435714" lon="20.025757828820495"><ele>201.33333333333334</ele><time>2026-04-29T13:59:20.999Z</time></trkpt><trkpt lat="41.608023710692045" lon="20.025863386462845"><ele>199.66666666666669</ele><time>2026-04-29T13:59:21.999Z</time></trkpt><trkpt lat="41.608056540719566" lon="20.025961869878678"><ele>198.0</ele><time>2026-04-29T13:59:22.999Z</time></trkpt><trkpt lat="41.60807128059694" lon="20.026051819832215"><ele>196.33333333333331</ele><time>2026-04-29T13:59:23.999Z</time></trkpt><trkpt lat="41.60801649540522" lon="20.02617302229873"><ele>194.66666666666666</ele><time>2026-04-29T13:59:24.999Z</time></trkpt><trkpt lat="41.60792696493871" lon="20.02621695348579"><ele>193.0</ele><time>2026-04-29T13:59:25.999Z</time></trkpt><trkpt lat="41.60781270805294" lon="20.02618360024432"><ele>193.0</ele><time>2026-04-29T13:59:26.999Z</time></trkpt><trkpt lat="41.60768453768799" lon="20.02615445095409"><ele>193.0</ele><time>2026-04-29T13:59:27.999Z</time></trkpt><trkpt lat="41.6075425340854" lon="20.02613338159646"><ele>193.0</ele><time>2026-04-29T13:59:28.999Z</time></trkpt><trkpt lat="41.607383662315826" lon="20.026127524346006"><ele>193.0</ele><time>2026-04-29T13:59:29.999Z</time></trkpt><trkpt lat="41.60722093434504" lon="20.02609909426162"><ele>193.0</ele><time>2026-04-29T13:59:30.999Z</time></trkpt><trkpt lat="41.60707686947167" lon="20.026075823967318"><ele>193.0</ele><time>2026-04-29T13:59:31.999Z</time></trkpt><trkpt lat="41.60694988421705" lon="20.0260525538866"><ele>193.0</ele><time>2026-04-29T13:59:32.999Z</time></trkpt><trkpt lat="41.60683068903916" lon="20.026051004140044"><ele>193.0</ele><time>2026-04-29T13:59:33.999Z</time></trkpt><trkpt lat="41.60671594656753" lon="20.026089019769874"><ele>191.75</ele><time>2026-04-29T13:59:34.999Z</time></trkpt><trkpt lat="41.60662170121015" lon="20.026159950314923"><ele>190.5</ele><time>2026-04-29T13:59:35.999Z</time></trkpt><trkpt lat="41.60653984618169" lon="20.02626500307802"><ele>189.25</ele><time>2026-04-29T13:59:36.999Z</time></trkpt><trkpt lat="41.60647314982521" lon="20.026396034213047"><ele>188.0</ele><time>2026-04-29T13:59:37.999Z</time></trkpt><trkpt lat="41.60642784440691" lon="20.0265430172353"><ele>185.75</ele><time>2026-04-29T13:59:38.999Z</time></trkpt><trkpt lat="41.60641232816714" lon="20.026698504390904"><ele>183.5</ele><time>2026-04-29T13:59:39.999Z</time></trkpt><trkpt lat="41.606427721188766" lon="20.026867521668684"><ele>181.25</ele><time>2026-04-29T13:59:40.999Z</time></trkpt><trkpt lat="41.606468455890635" lon="20.027021164528826"><ele>179.0</ele><time>2026-04-29T13:59:41.999Z</time></trkpt><trkpt lat="41.60654281730537" lon="20.027143295450056"><ele>179.0</ele><time>2026-04-29T13:59:42.999Z</time></trkpt><trkpt lat="41.60664643784505" lon="20.02724079576126"><ele>179.0</ele><time>2026-04-29T13:59:43.999Z</time></trkpt><trkpt lat="41.60676728298257" lon="20.027317390069005"><ele>179.0</ele><time>2026-04-29T13:59:44.999Z</time></trkpt><trkpt lat="41.60689590508121" lon="20.027393382633047"><ele>179.0</ele><time>2026-04-29T13:59:45.999Z</time></trkpt><trkpt lat="41.60704113754297" lon="20.02744054840258"><ele>179.75</ele><time>2026-04-29T13:59:46.999Z</time></trkpt><trkpt lat="41.60716463346907" lon="20.027476708234193"><ele>180.5</ele><time>2026-04-29T13:59:47.999Z</time></trkpt><trkpt lat="41.60727646626082" lon="20.027504054457793"><ele>181.25</ele><time>2026-04-29T13:59:48.999Z</time></trkpt><trkpt lat="41.60738309980343" lon="20.027530385366035"><ele>182.0</ele><time>2026-04-29T13:59:49.999Z</time></trkpt><trkpt lat="41.60748946936504" lon="20.02755299930552"><ele>179.6</ele><time>2026-04-29T13:59:50.999Z</time></trkpt><trkpt lat="41.60757681403723" lon="20.027586591915767"><ele>177.2</ele><time>2026-04-29T13:59:51.999Z</time></trkpt><trkpt lat="41.6076568863976" lon="20.027635096147957"><ele>174.8</ele><time>2026-04-29T13:59:52.999Z</time></trkpt><trkpt lat="41.60771038452193" lon="20.02773317076897"><ele>172.4</ele><time>2026-04-29T13:59:53.999Z</time></trkpt><trkpt lat="41.60773920500027" lon="20.027845777261767"><ele>170.0</ele><time>2026-04-29T13:59:54.999Z</time></trkpt><trkpt lat="41.60774591541307" lon="20.027969474283132"><ele>170.0</ele><time>2026-04-29T13:59:55.999Z</time></trkpt><trkpt lat="41.60774187738757" lon="20.028113772857697"><ele>170.0</ele><time>2026-04-29T13:59:56.999Z</time></trkpt><trkpt lat="41.60773722538846" lon="20.028275229977353"><ele>170.0</ele><time>2026-04-29T13:59:57.999Z</time></trkpt><trkpt lat="41.60773252592038" lon="20.028453130933162"><ele>170.0</ele><time>2026-04-29T13:59:58.999Z</time></trkpt><trkpt lat="41.607730631307575" lon="20.028647472271043"><ele>168.33333333333331</ele><time>2026-04-29T13:59:59.999Z</time></trkpt><trkpt lat="41.60772831038758" lon="20.02885366790268"><ele>166.66666666666666</ele><time>2026-04-29T14:00:00.999Z</time></trkpt><trkpt lat="41.60772135325097" lon="20.029074210028547"><ele>165.0</ele><time>2026-04-29T14:00:01.999Z</time></trkpt><trkpt lat="41.60771121477241" lon="20.029303379276218"><ele>165.0</ele><time>2026-04-29T14:00:02.999Z</time></trkpt><trkpt lat="41.6076934100537" lon="20.029560294989682"><ele>165.0</ele><time>2026-04-29T14:00:03.999Z</time></trkpt><trkpt lat="41.60765498001887" lon="20.02985390853222"><ele>165.0</ele><time>2026-04-29T14:00:04.999Z</time></trkpt><trkpt lat="41.60760710521505" lon="20.03016222251895"><ele>166.66666666666666</ele><time>2026-04-29T14:00:05.999Z</time></trkpt><trkpt lat="41.607543342232056" lon="20.030415385669528"><ele>168.33333333333331</ele><time>2026-04-29T14:00:06.999Z</time></trkpt><trkpt lat="41.607557443553794" lon="20.030653743339844"><ele>170.0</ele><time>2026-04-29T14:00:07.999Z</time></trkpt><trkpt lat="41.6075560594413" lon="20.030865338017847"><ele>170.8</ele><time>2026-04-29T14:00:08.999Z</time></trkpt><trkpt lat="41.60755527964595" lon="20.031054054828417"><ele>171.6</ele><time>2026-04-29T14:00:09.999Z</time></trkpt><trkpt lat="41.60755051785362" lon="20.03121254555278"><ele>172.39999999999998</ele><time>2026-04-29T14:00:10.999Z</time></trkpt><trkpt lat="41.60754512389486" lon="20.031327401182235"><ele>173.2</ele><time>2026-04-29T14:00:11.999Z</time></trkpt><trkpt lat="41.60753485344885" lon="20.03144922826142"><ele>174.0</ele><time>2026-04-29T14:00:13.999Z</time></trkpt><trkpt lat="41.60753781529073" lon="20.031538017016235"><ele>174.0</ele><time>2026-04-29T14:00:15.999Z</time></trkpt><trkpt lat="41.60762240457263" lon="20.031612972954807"><ele>174.0</ele><time>2026-04-29T14:00:18.999Z</time></trkpt><trkpt lat="41.60776525836284" lon="20.031616523027008"><ele>174.0</ele><time>2026-04-29T14:00:20.999Z</time></trkpt><trkpt lat="41.60786483958782" lon="20.03162292271165"><ele>174.0</ele><time>2026-04-29T14:00:21.999Z</time></trkpt><trkpt lat="41.607981070728016" lon="20.031633063465595"><ele>174.6</ele><time>2026-04-29T14:00:22.999Z</time></trkpt><trkpt lat="41.60810677794073" lon="20.03164188728602"><ele>175.2</ele><time>2026-04-29T14:00:23.999Z</time></trkpt><trkpt lat="41.60821852296216" lon="20.03164062259665"><ele>175.79999999999998</ele><time>2026-04-29T14:00:24.999Z</time></trkpt><trkpt lat="41.608306501408606" lon="20.0316429755135"><ele>176.39999999999998</ele><time>2026-04-29T14:00:25.999Z</time></trkpt><trkpt lat="41.60841757155493" lon="20.031650880577942"><ele>177.0</ele><time>2026-04-29T14:00:27.999Z</time></trkpt><trkpt lat="41.608483970482744" lon="20.031667867343668"><ele>175.6</ele><time>2026-04-29T14:00:29.999Z</time></trkpt><trkpt lat="41.60835545222306" lon="20.03158770740969"><ele>174.2</ele><time>2026-04-29T14:00:39.999Z</time></trkpt><trkpt lat="41.6082679912257" lon="20.03159865658541"><ele>172.8</ele><time>2026-04-29T14:00:40.999Z</time></trkpt><trkpt lat="41.60817527936669" lon="20.03159866526394"><ele>171.4</ele><time>2026-04-29T14:00:41.999Z</time></trkpt><trkpt lat="41.60808174393754" lon="20.031598889359497"><ele>170.0</ele><time>2026-04-29T14:00:42.999Z</time></trkpt><trkpt lat="41.60800052742327" lon="20.03160160480879"><ele>170.0</ele><time>2026-04-29T14:00:43.999Z</time></trkpt><trkpt lat="41.607888404381946" lon="20.03160459725815"><ele>170.0</ele><time>2026-04-29T14:00:45.999Z</time></trkpt><trkpt lat="41.60781974352529" lon="20.03161019745112"><ele>170.0</ele><time>2026-04-29T14:00:47.999Z</time></trkpt><trkpt lat="41.60773788691624" lon="20.031601712586912"><ele>170.0</ele><time>2026-04-29T14:00:50.999Z</time></trkpt><trkpt lat="41.60766434739996" lon="20.03157304916956"><ele>170.0</ele><time>2026-04-29T14:02:21.999Z</time></trkpt><trkpt lat="41.6075839999383" lon="20.03155351058814"><ele>170.0</ele><time>2026-04-29T14:02:24.999Z</time></trkpt><trkpt lat="41.60778891299097" lon="20.031604705406696"><ele>170.0</ele><time>2026-04-29T14:02:32.999Z</time></trkpt><trkpt lat="41.60789013422647" lon="20.031614303745666"><ele>170.0</ele><time>2026-04-29T14:02:34.999Z</time></trkpt><trkpt lat="41.60797130238287" lon="20.03161790859823"><ele>170.0</ele><time>2026-04-29T14:02:35.999Z</time></trkpt><trkpt lat="41.60808562117261" lon="20.03162021192445"><ele>170.0</ele><time>2026-04-29T14:02:36.999Z</time></trkpt><trkpt lat="41.60822355189342" lon="20.031627835439217"><ele>170.0</ele><time>2026-04-29T14:02:37.999Z</time></trkpt><trkpt lat="41.60833675211111" lon="20.031635505852154"><ele>170.6</ele><time>2026-04-29T14:02:38.999Z</time></trkpt><trkpt lat="41.608429139151376" lon="20.031641649952643"><ele>171.2</ele><time>2026-04-29T14:02:39.999Z</time></trkpt><trkpt lat="41.60853067442919" lon="20.031644975192332"><ele>171.8</ele><time>2026-04-29T14:02:40.999Z</time></trkpt><trkpt lat="41.60864303616869" lon="20.031649551955145"><ele>172.4</ele><time>2026-04-29T14:02:41.999Z</time></trkpt><trkpt lat="41.608733238731574" lon="20.031650837038107"><ele>173.0</ele><time>2026-04-29T14:02:42.999Z</time></trkpt><trkpt lat="41.60881939126439" lon="20.031634660240876"><ele>173.0</ele><time>2026-04-29T14:02:43.999Z</time></trkpt><trkpt lat="41.60891670572435" lon="20.031599467027686"><ele>173.0</ele><time>2026-04-29T14:02:44.999Z</time></trkpt><trkpt lat="41.609016303982294" lon="20.031544161677022"><ele>173.0</ele><time>2026-04-29T14:02:45.999Z</time></trkpt><trkpt lat="41.60909867578881" lon="20.031485279728958"><ele>173.0</ele><time>2026-04-29T14:02:46.999Z</time></trkpt><trkpt lat="41.60916706416823" lon="20.031421336632828"><ele>173.0</ele><time>2026-04-29T14:02:47.999Z</time></trkpt><trkpt lat="41.60923553913817" lon="20.031357073940743"><ele>173.0</ele><time>2026-04-29T14:02:48.999Z</time></trkpt><trkpt lat="41.6093192540541" lon="20.031292269011043"><ele>173.0</ele><time>2026-04-29T14:02:49.999Z</time></trkpt><trkpt lat="41.609409535320104" lon="20.03123411393883"><ele>173.0</ele><time>2026-04-29T14:02:50.999Z</time></trkpt><trkpt lat="41.609495589951926" lon="20.031179533859248"><ele>173.0</ele><time>2026-04-29T14:02:51.999Z</time></trkpt><trkpt lat="41.609574689231344" lon="20.031122588564966"><ele>173.0</ele><time>2026-04-29T14:02:52.999Z</time></trkpt><trkpt lat="41.609649855896535" lon="20.03106110471902"><ele>173.2</ele><time>2026-04-29T14:02:53.999Z</time></trkpt><trkpt lat="41.60973281546507" lon="20.031003997516336"><ele>173.4</ele><time>2026-04-29T14:02:54.999Z</time></trkpt><trkpt lat="41.60982854614871" lon="20.0309493153166"><ele>173.6</ele><time>2026-04-29T14:02:55.999Z</time></trkpt><trkpt lat="41.609938025900284" lon="20.030908111390232"><ele>173.79999999999998</ele><time>2026-04-29T14:02:56.999Z</time></trkpt><trkpt lat="41.610057137835575" lon="20.0308793166048"><ele>174.0</ele><time>2026-04-29T14:02:57.999Z</time></trkpt><trkpt lat="41.61019125464211" lon="20.030871220805032"><ele>173.25</ele><time>2026-04-29T14:02:58.999Z</time></trkpt><trkpt lat="41.61032848091885" lon="20.030847209519713"><ele>172.5</ele><time>2026-04-29T14:02:59.999Z</time></trkpt><trkpt lat="41.61046946150373" lon="20.030821763235387"><ele>171.75</ele><time>2026-04-29T14:03:00.999Z</time></trkpt><trkpt lat="41.610595389782716" lon="20.030799034101438"><ele>171.0</ele><time>2026-04-29T14:03:01.999Z</time></trkpt><trkpt lat="41.61072588283299" lon="20.03077914155507"><ele>169.66666666666666</ele><time>2026-04-29T14:03:02.999Z</time></trkpt><trkpt lat="41.61086441945013" lon="20.03075724637884"><ele>168.33333333333331</ele><time>2026-04-29T14:03:03.999Z</time></trkpt><trkpt lat="41.61101626930097" lon="20.030732611702874"><ele>167.0</ele><time>2026-04-29T14:03:04.999Z</time></trkpt><trkpt lat="41.61117382530699" lon="20.030706759866664"><ele>166.25</ele><time>2026-04-29T14:03:05.999Z</time></trkpt><trkpt lat="41.61133068930508" lon="20.03068488440773"><ele>165.5</ele><time>2026-04-29T14:03:06.999Z</time></trkpt><trkpt lat="41.611465865291976" lon="20.030667157927095"><ele>164.75</ele><time>2026-04-29T14:03:07.999Z</time></trkpt><trkpt lat="41.611591714382044" lon="20.030650654561043"><ele>164.0</ele><time>2026-04-29T14:03:08.999Z</time></trkpt><trkpt lat="41.61170791991065" lon="20.030635415784683"><ele>164.0</ele><time>2026-04-29T14:03:09.999Z</time></trkpt><trkpt lat="41.611834603006166" lon="20.030618798453293"><ele>164.0</ele><time>2026-04-29T14:03:10.999Z</time></trkpt><trkpt lat="41.61196718230286" lon="20.03058048636623"><ele>164.0</ele><time>2026-04-29T14:03:11.999Z</time></trkpt><trkpt lat="41.61211598534879" lon="20.030574161069254"><ele>164.0</ele><time>2026-04-29T14:03:12.999Z</time></trkpt><trkpt lat="41.61227261656319" lon="20.03057550641275"><ele>163.0</ele><time>2026-04-29T14:03:13.999Z</time></trkpt><trkpt lat="41.61242633135697" lon="20.03057990640513"><ele>162.0</ele><time>2026-04-29T14:03:15Z</time></trkpt><trkpt lat="41.61256199707297" lon="20.03059527916789"><ele>161.0</ele><time>2026-04-29T14:03:16Z</time></trkpt><trkpt lat="41.612696160933645" lon="20.03061359832966"><ele>160.0</ele><time>2026-04-29T14:03:17Z</time></trkpt><trkpt lat="41.61284059155049" lon="20.030628146157316"><ele>159.0</ele><time>2026-04-29T14:03:18Z</time></trkpt><trkpt lat="41.612974566079735" lon="20.03063903315189"><ele>158.0</ele><time>2026-04-29T14:03:19Z</time></trkpt><trkpt lat="41.61310389962589" lon="20.030657843307964"><ele>157.0</ele><time>2026-04-29T14:03:20Z</time></trkpt><trkpt lat="41.61324819269385" lon="20.03067860482877"><ele>156.0</ele><time>2026-04-29T14:03:21Z</time></trkpt><trkpt lat="41.61340744106387" lon="20.03069746859599"><ele>156.0</ele><time>2026-04-29T14:03:22Z</time></trkpt><trkpt lat="41.61357669307525" lon="20.030719580463874"><ele>156.0</ele><time>2026-04-29T14:03:23Z</time></trkpt><trkpt lat="41.61373940774312" lon="20.03074444795304"><ele>156.0</ele><time>2026-04-29T14:03:24Z</time></trkpt><trkpt lat="41.613887251957976" lon="20.03076305232916"><ele>155.75</ele><time>2026-04-29T14:03:25Z</time></trkpt><trkpt lat="41.61401570017937" lon="20.03077752337369"><ele>155.5</ele><time>2026-04-29T14:03:26Z</time></trkpt><trkpt lat="41.61413592251533" lon="20.030792404296886"><ele>155.25</ele><time>2026-04-29T14:03:27Z</time></trkpt><trkpt lat="41.61424905611784" lon="20.030799110911925"><ele>155.0</ele><time>2026-04-29T14:03:28Z</time></trkpt><trkpt lat="41.61436875638662" lon="20.030806780072023"><ele>156.0</ele><time>2026-04-29T14:03:29Z</time></trkpt><trkpt lat="41.61449747817404" lon="20.03081707217785"><ele>157.0</ele><time>2026-04-29T14:03:30Z</time></trkpt><trkpt lat="41.614634731061514" lon="20.030823478262082"><ele>158.0</ele><time>2026-04-29T14:03:31Z</time></trkpt><trkpt lat="41.61477971896544" lon="20.030830466480598"><ele>159.0</ele><time>2026-04-29T14:03:32Z</time></trkpt><trkpt lat="41.61491103916819" lon="20.030867636560092"><ele>159.0</ele><time>2026-04-29T14:03:33Z</time></trkpt><trkpt lat="41.61502449038551" lon="20.03088139142746"><ele>159.0</ele><time>2026-04-29T14:03:34Z</time></trkpt><trkpt lat="41.61512331743445" lon="20.03089514674137"><ele>159.0</ele><time>2026-04-29T14:03:35Z</time></trkpt><trkpt lat="41.61520683593396" lon="20.030954475115838"><ele>159.0</ele><time>2026-04-29T14:03:36Z</time></trkpt><trkpt lat="41.61525427753681" lon="20.031058034265104"><ele>159.0</ele><time>2026-04-29T14:03:37Z</time></trkpt><trkpt lat="41.61532549348085" lon="20.031158050419755"><ele>158.0</ele><time>2026-04-29T14:03:38Z</time></trkpt><trkpt lat="41.61540709336834" lon="20.03125488130791"><ele>157.0</ele><time>2026-04-29T14:03:39Z</time></trkpt><trkpt lat="41.61550657095836" lon="20.03131156225797"><ele>156.0</ele><time>2026-04-29T14:03:40Z</time></trkpt><trkpt lat="41.615574280038224" lon="20.031363641985816"><ele>155.0</ele><time>2026-04-29T14:03:41Z</time></trkpt><trkpt lat="41.615689362210865" lon="20.031357926444354"><ele>154.0</ele><time>2026-04-29T14:03:43Z</time></trkpt><trkpt lat="41.61576096354313" lon="20.031341481299883"><ele>154.0</ele><time>2026-04-29T14:03:44Z</time></trkpt><trkpt lat="41.6158280407759" lon="20.031339610341124"><ele>154.0</ele><time>2026-04-29T14:03:45Z</time></trkpt><trkpt lat="41.615892328622145" lon="20.031357619956307"><ele>154.0</ele><time>2026-04-29T14:03:46Z</time></trkpt><trkpt lat="41.61595222944053" lon="20.03141759851028"><ele>154.0</ele><time>2026-04-29T14:03:47Z</time></trkpt><trkpt lat="41.616023804704135" lon="20.03145317909367"><ele>154.0</ele><time>2026-04-29T14:03:48Z</time></trkpt><trkpt lat="41.616113533385345" lon="20.03143933827132"><ele>154.0</ele><time>2026-04-29T14:03:49Z</time></trkpt><trkpt lat="41.61619650258733" lon="20.03143580245188"><ele>155.0</ele><time>2026-04-29T14:03:50Z</time></trkpt><trkpt lat="41.61626746330921" lon="20.031410510446673"><ele>156.0</ele><time>2026-04-29T14:03:51Z</time></trkpt><trkpt lat="41.61633527231415" lon="20.031364967183585"><ele>157.0</ele><time>2026-04-29T14:03:52Z</time></trkpt><trkpt lat="41.616402809464056" lon="20.03131708168262"><ele>158.0</ele><time>2026-04-29T14:03:53Z</time></trkpt><trkpt lat="41.61648078651115" lon="20.031278166554756"><ele>159.0</ele><time>2026-04-29T14:03:54Z</time></trkpt><trkpt lat="41.61656912969615" lon="20.031283490925844"><ele>160.0</ele><time>2026-04-29T14:03:55Z</time></trkpt><trkpt lat="41.616653395408285" lon="20.031270096331742"><ele>160.0</ele><time>2026-04-29T14:03:56Z</time></trkpt><trkpt lat="41.616740245574235" lon="20.031261394627595"><ele>160.0</ele><time>2026-04-29T14:03:57Z</time></trkpt><trkpt lat="41.61683125241315" lon="20.031252281933217"><ele>160.0</ele><time>2026-04-29T14:03:58Z</time></trkpt><trkpt lat="41.61692301278229" lon="20.031242192070128"><ele>160.0</ele><time>2026-04-29T14:03:59Z</time></trkpt><trkpt lat="41.61701836085749" lon="20.03123269360824"><ele>160.0</ele><time>2026-04-29T14:04:00Z</time></trkpt><trkpt lat="41.61709861918767" lon="20.031205766895326"><ele>160.0</ele><time>2026-04-29T14:04:01Z</time></trkpt><trkpt lat="41.61715417140257" lon="20.031120837419785"><ele>159.83333333333334</ele><time>2026-04-29T14:04:02Z</time></trkpt><trkpt lat="41.617209201707595" lon="20.031073526506052"><ele>159.66666666666669</ele><time>2026-04-29T14:04:03Z</time></trkpt><trkpt lat="41.61727260036462" lon="20.03101275734225"><ele>159.5</ele><time>2026-04-29T14:04:04Z</time></trkpt><trkpt lat="41.61733746024312" lon="20.030940711937994"><ele>159.33333333333334</ele><time>2026-04-29T14:04:05Z</time></trkpt><trkpt lat="41.6174164345068" lon="20.030884925747433"><ele>159.16666666666666</ele><time>2026-04-29T14:04:06Z</time></trkpt><trkpt lat="41.61747802831107" lon="20.03080034392971"><ele>159.0</ele><time>2026-04-29T14:04:07Z</time></trkpt><trkpt lat="41.61754827896505" lon="20.03073732932693"><ele>159.0</ele><time>2026-04-29T14:04:08Z</time></trkpt><trkpt lat="41.61761519957359" lon="20.030669775225924"><ele>159.0</ele><time>2026-04-29T14:04:09Z</time></trkpt><trkpt lat="41.61768004024415" lon="20.030600345461295"><ele>159.0</ele><time>2026-04-29T14:04:10Z</time></trkpt><trkpt lat="41.6177564971702" lon="20.03054741650336"><ele>159.0</ele><time>2026-04-29T14:04:11Z</time></trkpt><trkpt lat="41.61782148904844" lon="20.030475190605138"><ele>159.0</ele><time>2026-04-29T14:04:12Z</time></trkpt><trkpt lat="41.61788649008763" lon="20.030402954523364"><ele>159.0</ele><time>2026-04-29T14:04:13Z</time></trkpt><trkpt lat="41.61794873856623" lon="20.030333777406188"><ele>160.16666666666666</ele><time>2026-04-29T14:04:14Z</time></trkpt><trkpt lat="41.61800986158417" lon="20.0302658837694"><ele>161.33333333333334</ele><time>2026-04-29T14:04:15Z</time></trkpt><trkpt lat="41.618074473159965" lon="20.03019429375977"><ele>162.5</ele><time>2026-04-29T14:04:16Z</time></trkpt><trkpt lat="41.61813160622316" lon="20.030107002025574"><ele>163.66666666666669</ele><time>2026-04-29T14:04:17Z</time></trkpt><trkpt lat="41.618207301345294" lon="20.030031349778877"><ele>164.83333333333334</ele><time>2026-04-29T14:04:18Z</time></trkpt><trkpt lat="41.61828623732418" lon="20.029953924973512"><ele>166.0</ele><time>2026-04-29T14:04:19Z</time></trkpt><trkpt lat="41.61836550097403" lon="20.029887747113243"><ele>166.0</ele><time>2026-04-29T14:04:20Z</time></trkpt><trkpt lat="41.618446723351816" lon="20.029827712401953"><ele>166.0</ele><time>2026-04-29T14:04:21Z</time></trkpt><trkpt lat="41.618531971047354" lon="20.029771424902886"><ele>166.0</ele><time>2026-04-29T14:04:22Z</time></trkpt><trkpt lat="41.61862073523692" lon="20.02972064277946"><ele>166.0</ele><time>2026-04-29T14:04:23Z</time></trkpt><trkpt lat="41.61871728432656" lon="20.029675171184344"><ele>166.0</ele><time>2026-04-29T14:04:24Z</time></trkpt><trkpt lat="41.61881939997094" lon="20.029631994421205"><ele>167.16666666666669</ele><time>2026-04-29T14:04:25Z</time></trkpt><trkpt lat="41.618911089056915" lon="20.029591327732355"><ele>168.33333333333334</ele><time>2026-04-29T14:04:26Z</time></trkpt><trkpt lat="41.61899125046599" lon="20.029561726851558"><ele>169.5</ele><time>2026-04-29T14:04:27Z</time></trkpt><trkpt lat="41.61906001866882" lon="20.029532797441796"><ele>170.66666666666666</ele><time>2026-04-29T14:04:28Z</time></trkpt><trkpt lat="41.6191387956868" lon="20.02950363244814"><ele>171.83333333333331</ele><time>2026-04-29T14:04:29Z</time></trkpt><trkpt lat="41.61923365810654" lon="20.029466119969108"><ele>173.0</ele><time>2026-04-29T14:04:30Z</time></trkpt><trkpt lat="41.61934433869332" lon="20.02941958768167"><ele>173.0</ele><time>2026-04-29T14:04:31Z</time></trkpt><trkpt lat="41.619459574629815" lon="20.02937673276249"><ele>173.0</ele><time>2026-04-29T14:04:32Z</time></trkpt><trkpt lat="41.61962563139063" lon="20.029320144611596"><ele>173.0</ele><time>2026-04-29T14:04:33Z</time></trkpt><trkpt lat="41.61980648869811" lon="20.029252482738514"><ele>173.25</ele><time>2026-04-29T14:04:34Z</time></trkpt><trkpt lat="41.61994552640049" lon="20.02919514013915"><ele>173.5</ele><time>2026-04-29T14:04:35Z</time></trkpt><trkpt lat="41.62006037882538" lon="20.02914660102842"><ele>173.75</ele><time>2026-04-29T14:04:36Z</time></trkpt><trkpt lat="41.62016804385244" lon="20.029104370674798"><ele>174.0</ele><time>2026-04-29T14:04:37Z</time></trkpt><trkpt lat="41.620282726709014" lon="20.02906033697094"><ele>172.5</ele><time>2026-04-29T14:04:38Z</time></trkpt><trkpt lat="41.62040640356453" lon="20.029009851198285"><ele>171.0</ele><time>2026-04-29T14:04:39Z</time></trkpt><trkpt lat="41.62053387472982" lon="20.02895466174572"><ele>169.5</ele><time>2026-04-29T14:04:40Z</time></trkpt><trkpt lat="41.62067286470044" lon="20.02889569738806"><ele>168.0</ele><time>2026-04-29T14:04:41Z</time></trkpt><trkpt lat="41.62082221762352" lon="20.02883780122321"><ele>168.0</ele><time>2026-04-29T14:04:42Z</time></trkpt><trkpt lat="41.62095326391123" lon="20.028787269382807"><ele>168.0</ele><time>2026-04-29T14:04:43Z</time></trkpt><trkpt lat="41.62106252709317" lon="20.028742544117648"><ele>168.0</ele><time>2026-04-29T14:04:44Z</time></trkpt><trkpt lat="41.62117200744305" lon="20.028700809350575"><ele>168.0</ele><time>2026-04-29T14:04:45Z</time></trkpt><trkpt lat="41.621282660426736" lon="20.02866239059257"><ele>169.0</ele><time>2026-04-29T14:04:46Z</time></trkpt><trkpt lat="41.62139574555023" lon="20.028612258761203"><ele>170.0</ele><time>2026-04-29T14:04:47Z</time></trkpt><trkpt lat="41.62151964275027" lon="20.028588081192286"><ele>171.0</ele><time>2026-04-29T14:04:48Z</time></trkpt><trkpt lat="41.621633975108054" lon="20.02854665943693"><ele>172.0</ele><time>2026-04-29T14:04:49Z</time></trkpt><trkpt lat="41.621744542594286" lon="20.028481807634833"><ele>172.0</ele><time>2026-04-29T14:04:50Z</time></trkpt><trkpt lat="41.621869474714224" lon="20.02843591269988"><ele>172.0</ele><time>2026-04-29T14:04:51Z</time></trkpt><trkpt lat="41.62199958487778" lon="20.02838197241334"><ele>172.0</ele><time>2026-04-29T14:04:52Z</time></trkpt><trkpt lat="41.622140344097915" lon="20.028319314569202"><ele>172.0</ele><time>2026-04-29T14:04:53Z</time></trkpt><trkpt lat="41.62228705625371" lon="20.028240583836467"><ele>171.33333333333334</ele><time>2026-04-29T14:04:54Z</time></trkpt><trkpt lat="41.622435502913795" lon="20.028151650072317"><ele>170.66666666666666</ele><time>2026-04-29T14:04:55Z</time></trkpt><trkpt lat="41.62258589524062" lon="20.02804574241997"><ele>170.0</ele><time>2026-04-29T14:04:56Z</time></trkpt><trkpt lat="41.62273309213898" lon="20.02792415722329"><ele>171.66666666666666</ele><time>2026-04-29T14:04:57Z</time></trkpt><trkpt lat="41.622871506526245" lon="20.027800728896423"><ele>173.33333333333334</ele><time>2026-04-29T14:04:58Z</time></trkpt><trkpt lat="41.62301227313059" lon="20.027677918188328"><ele>175.0</ele><time>2026-04-29T14:04:59Z</time></trkpt><trkpt lat="41.62314496869367" lon="20.027557403466357"><ele>173.25</ele><time>2026-04-29T14:05:00Z</time></trkpt><trkpt lat="41.623262295810335" lon="20.02745185376794"><ele>171.5</ele><time>2026-04-29T14:05:01Z</time></trkpt><trkpt lat="41.62336470205916" lon="20.027355328538263"><ele>169.75</ele><time>2026-04-29T14:05:02Z</time></trkpt><trkpt lat="41.62346013534111" lon="20.027270771183844"><ele>168.0</ele><time>2026-04-29T14:05:03Z</time></trkpt><trkpt lat="41.62354794062851" lon="20.027191159477745"><ele>168.0</ele><time>2026-04-29T14:05:04Z</time></trkpt><trkpt lat="41.623639391268284" lon="20.027115658932185"><ele>168.0</ele><time>2026-04-29T14:05:05Z</time></trkpt><trkpt lat="41.62373967846429" lon="20.027042621900893"><ele>168.0</ele><time>2026-04-29T14:05:06Z</time></trkpt><trkpt lat="41.623844419454535" lon="20.026965309146533"><ele>168.0</ele><time>2026-04-29T14:05:07Z</time></trkpt><trkpt lat="41.62395202621863" lon="20.026883431728905"><ele>168.0</ele><time>2026-04-29T14:05:08Z</time></trkpt><trkpt lat="41.62406876433562" lon="20.026804866520244"><ele>168.0</ele><time>2026-04-29T14:05:09Z</time></trkpt><trkpt lat="41.624189893019526" lon="20.02672770574244"><ele>168.0</ele><time>2026-04-29T14:05:10Z</time></trkpt><trkpt lat="41.62431648800257" lon="20.026661897044306"><ele>168.0</ele><time>2026-04-29T14:05:11Z</time></trkpt><trkpt lat="41.624455378097835" lon="20.02659932912476"><ele>169.0</ele><time>2026-04-29T14:05:12Z</time></trkpt><trkpt lat="41.62459843799448" lon="20.026538194961034"><ele>170.0</ele><time>2026-04-29T14:05:13Z</time></trkpt><trkpt lat="41.62472641404352" lon="20.02648620439803"><ele>171.0</ele><time>2026-04-29T14:05:14Z</time></trkpt><trkpt lat="41.624858902711146" lon="20.026433260669013"><ele>172.0</ele><time>2026-04-29T14:05:15Z</time></trkpt><trkpt lat="41.62498956649034" lon="20.02638189542375"><ele>172.0</ele><time>2026-04-29T14:05:16Z</time></trkpt><trkpt lat="41.625135847705316" lon="20.026325349851472"><ele>172.0</ele><time>2026-04-29T14:05:17Z</time></trkpt><trkpt lat="41.62528712493275" lon="20.02626353403399"><ele>172.0</ele><time>2026-04-29T14:05:18Z</time></trkpt><trkpt lat="41.625434748185135" lon="20.026193768237615"><ele>172.5</ele><time>2026-04-29T14:05:19Z</time></trkpt><trkpt lat="41.62557003864087" lon="20.026128115779386"><ele>173.0</ele><time>2026-04-29T14:05:20Z</time></trkpt><trkpt lat="41.62570121539541" lon="20.026060057174014"><ele>173.5</ele><time>2026-04-29T14:05:21Z</time></trkpt><trkpt lat="41.625831269222154" lon="20.025993404469826"><ele>174.0</ele><time>2026-04-29T14:05:22Z</time></trkpt><trkpt lat="41.62595105216464" lon="20.025925796969737"><ele>174.0</ele><time>2026-04-29T14:05:23Z</time></trkpt><trkpt lat="41.626056294832054" lon="20.025862335968103"><ele>174.0</ele><time>2026-04-29T14:05:24Z</time></trkpt><trkpt lat="41.62615324144481" lon="20.025799424798063"><ele>174.0</ele><time>2026-04-29T14:05:25Z</time></trkpt><trkpt lat="41.62625003809951" lon="20.02574579484968"><ele>174.0</ele><time>2026-04-29T14:05:26Z</time></trkpt><trkpt lat="41.626338573520236" lon="20.02570132051179"><ele>174.0</ele><time>2026-04-29T14:05:27Z</time></trkpt><trkpt lat="41.62641467570194" lon="20.025652103348868"><ele>173.66666666666666</ele><time>2026-04-29T14:05:28Z</time></trkpt><trkpt lat="41.62648648152311" lon="20.025598850179524"><ele>173.33333333333334</ele><time>2026-04-29T14:05:29Z</time></trkpt><trkpt lat="41.62655114480332" lon="20.025550560312734"><ele>173.0</ele><time>2026-04-29T14:05:30Z</time></trkpt><trkpt lat="41.626614526095075" lon="20.02550972049888"><ele>172.66666666666669</ele><time>2026-04-29T14:05:31Z</time></trkpt><trkpt lat="41.6266889392903" lon="20.025471818873662"><ele>172.33333333333334</ele><time>2026-04-29T14:05:32Z</time></trkpt><trkpt lat="41.62677883288943" lon="20.025429224895955"><ele>172.0</ele><time>2026-04-29T14:05:33Z</time></trkpt><trkpt lat="41.6268691020611" lon="20.02539259836503"><ele>172.0</ele><time>2026-04-29T14:05:34Z</time></trkpt><trkpt lat="41.62696633568702" lon="20.025340820699085"><ele>172.0</ele><time>2026-04-29T14:05:35Z</time></trkpt><trkpt lat="41.62706663194809" lon="20.025275684525464"><ele>172.0</ele><time>2026-04-29T14:05:36Z</time></trkpt><trkpt lat="41.62716179662484" lon="20.02522072110193"><ele>172.0</ele><time>2026-04-29T14:05:37Z</time></trkpt><trkpt lat="41.62724175421309" lon="20.025189698996453"><ele>172.0</ele><time>2026-04-29T14:05:38Z</time></trkpt><trkpt lat="41.62733022454003" lon="20.02515866500658"><ele>172.2</ele><time>2026-04-29T14:05:39Z</time></trkpt><trkpt lat="41.627429583881856" lon="20.025131685453484"><ele>172.39999999999998</ele><time>2026-04-29T14:05:40Z</time></trkpt><trkpt lat="41.6275291743299" lon="20.02512585029708"><ele>172.60000000000002</ele><time>2026-04-29T14:05:41Z</time></trkpt><trkpt lat="41.62762465225866" lon="20.025145761901122"><ele>172.8</ele><time>2026-04-29T14:05:42Z</time></trkpt><trkpt lat="41.6277188467595" lon="20.025169404388908"><ele>173.0</ele><time>2026-04-29T14:05:43Z</time></trkpt><trkpt lat="41.62782553938148" lon="20.02517615378161"><ele>173.0</ele><time>2026-04-29T14:05:44Z</time></trkpt><trkpt lat="41.627935243715974" lon="20.025153249100217"><ele>173.0</ele><time>2026-04-29T14:05:45Z</time></trkpt><trkpt lat="41.62804840526412" lon="20.02510852216004"><ele>173.0</ele><time>2026-04-29T14:05:46Z</time></trkpt><trkpt lat="41.628154621684374" lon="20.025051222130188"><ele>173.0</ele><time>2026-04-29T14:05:47Z</time></trkpt><trkpt lat="41.62826446654465" lon="20.024983357843173"><ele>173.75</ele><time>2026-04-29T14:05:48Z</time></trkpt><trkpt lat="41.628383676933325" lon="20.024912135217566"><ele>174.5</ele><time>2026-04-29T14:05:49Z</time></trkpt><trkpt lat="41.628490877242115" lon="20.024848776327662"><ele>175.25</ele><time>2026-04-29T14:05:50Z</time></trkpt><trkpt lat="41.62858817646955" lon="20.024792517192438"><ele>176.0</ele><time>2026-04-29T14:05:51Z</time></trkpt><trkpt lat="41.62868340867822" lon="20.024728115399856"><ele>176.0</ele><time>2026-04-29T14:05:52Z</time></trkpt><trkpt lat="41.62877489384337" lon="20.024645131459938"><ele>176.0</ele><time>2026-04-29T14:05:53Z</time></trkpt><trkpt lat="41.628872887936055" lon="20.02456269782158"><ele>176.0</ele><time>2026-04-29T14:05:54Z</time></trkpt><trkpt lat="41.62893558575993" lon="20.02441093256048"><ele>176.0</ele><time>2026-04-29T14:05:55Z</time></trkpt><trkpt lat="41.628988131486686" lon="20.024264883218393"><ele>175.0</ele><time>2026-04-29T14:05:56Z</time></trkpt><trkpt lat="41.62903673017159" lon="20.02411493715968"><ele>174.0</ele><time>2026-04-29T14:05:57Z</time></trkpt><trkpt lat="41.62908534919813" lon="20.0239480434847"><ele>173.0</ele><time>2026-04-29T14:05:58Z</time></trkpt><trkpt lat="41.62913947460302" lon="20.02379236761989"><ele>172.0</ele><time>2026-04-29T14:05:59Z</time></trkpt><trkpt lat="41.62920147394715" lon="20.023655346701588"><ele>172.0</ele><time>2026-04-29T14:06:00Z</time></trkpt><trkpt lat="41.62926502803848" lon="20.023538515628204"><ele>172.0</ele><time>2026-04-29T14:06:01Z</time></trkpt><trkpt lat="41.62931834023416" lon="20.023440010808233"><ele>172.0</ele><time>2026-04-29T14:06:02Z</time></trkpt><trkpt lat="41.62936298293192" lon="20.02335439447243"><ele>172.0</ele><time>2026-04-29T14:06:03Z</time></trkpt><trkpt lat="41.62940492950931" lon="20.023274304501022"><ele>172.0</ele><time>2026-04-29T14:06:04Z</time></trkpt><trkpt lat="41.6294780313013" lon="20.023212571713938"><ele>172.0</ele><time>2026-04-29T14:06:05Z</time></trkpt><trkpt lat="41.629554760901065" lon="20.02312724463271"><ele>172.0</ele><time>2026-04-29T14:06:06Z</time></trkpt><trkpt lat="41.6296411704212" lon="20.023021312181747"><ele>172.0</ele><time>2026-04-29T14:06:07Z</time></trkpt><trkpt lat="41.62975985756177" lon="20.02291823857008"><ele>172.0</ele><time>2026-04-29T14:06:08Z</time></trkpt><trkpt lat="41.62988197811516" lon="20.022811422570424"><ele>172.0</ele><time>2026-04-29T14:06:09Z</time></trkpt><trkpt lat="41.63000993082498" lon="20.02268830204719"><ele>172.0</ele><time>2026-04-29T14:06:10Z</time></trkpt><trkpt lat="41.63012859194503" lon="20.02256121322863"><ele>172.0</ele><time>2026-04-29T14:06:11Z</time></trkpt><trkpt lat="41.63025224119201" lon="20.022422915989473"><ele>172.0</ele><time>2026-04-29T14:06:12Z</time></trkpt><trkpt lat="41.63035563513313" lon="20.022301096198813"><ele>173.25</ele><time>2026-04-29T14:06:13Z</time></trkpt><trkpt lat="41.63045420567365" lon="20.0221813095451"><ele>174.5</ele><time>2026-04-29T14:06:14Z</time></trkpt><trkpt lat="41.63055579890033" lon="20.022053393936236"><ele>175.75</ele><time>2026-04-29T14:06:15Z</time></trkpt><trkpt lat="41.630660959104084" lon="20.021920445566664"><ele>177.0</ele><time>2026-04-29T14:06:16Z</time></trkpt><trkpt lat="41.630764513636215" lon="20.021781936858194"><ele>177.0</ele><time>2026-04-29T14:06:17Z</time></trkpt><trkpt lat="41.63084975785609" lon="20.021657799646963"><ele>177.0</ele><time>2026-04-29T14:06:18Z</time></trkpt><trkpt lat="41.63092708062953" lon="20.02151179737706"><ele>177.0</ele><time>2026-04-29T14:06:19Z</time></trkpt><trkpt lat="41.63099309872609" lon="20.02134970648143"><ele>177.0</ele><time>2026-04-29T14:06:20Z</time></trkpt><trkpt lat="41.6310502708453" lon="20.02117744095033"><ele>178.5</ele><time>2026-04-29T14:06:21Z</time></trkpt><trkpt lat="41.631102482168615" lon="20.021015826182172"><ele>180.0</ele><time>2026-04-29T14:06:22Z</time></trkpt><trkpt lat="41.63115963977372" lon="20.020884603547294"><ele>181.5</ele><time>2026-04-29T14:06:23Z</time></trkpt><trkpt lat="41.63123400727832" lon="20.020772318466605"><ele>183.0</ele><time>2026-04-29T14:06:24Z</time></trkpt><trkpt lat="41.63131974977704" lon="20.020677084461493"><ele>179.75</ele><time>2026-04-29T14:06:25Z</time></trkpt><trkpt lat="41.63142129786557" lon="20.020583139667615"><ele>176.5</ele><time>2026-04-29T14:06:26Z</time></trkpt><trkpt lat="41.63153127083509" lon="20.020483578448477"><ele>173.25</ele><time>2026-04-29T14:06:27Z</time></trkpt><trkpt lat="41.631651724675145" lon="20.020373200138447"><ele>170.0</ele><time>2026-04-29T14:06:28Z</time></trkpt><trkpt lat="41.631775614770305" lon="20.020243779822856"><ele>170.0</ele><time>2026-04-29T14:06:29Z</time></trkpt><trkpt lat="41.63190496650982" lon="20.020112703055947"><ele>170.0</ele><time>2026-04-29T14:06:30Z</time></trkpt><trkpt lat="41.63201977838246" lon="20.019994582507252"><ele>170.0</ele><time>2026-04-29T14:06:31Z</time></trkpt><trkpt lat="41.63212785432315" lon="20.019884422993275"><ele>170.0</ele><time>2026-04-29T14:06:32Z</time></trkpt><trkpt lat="41.632241992397546" lon="20.019770700007893"><ele>169.0</ele><time>2026-04-29T14:06:33Z</time></trkpt><trkpt lat="41.63236103410376" lon="20.019644194810276"><ele>168.0</ele><time>2026-04-29T14:06:34Z</time></trkpt><trkpt lat="41.63247440404958" lon="20.0195002610265"><ele>167.0</ele><time>2026-04-29T14:06:35Z</time></trkpt><trkpt lat="41.63260379778623" lon="20.019362926551043"><ele>167.0</ele><time>2026-04-29T14:06:36Z</time></trkpt><trkpt lat="41.63270263151177" lon="20.01921283697048"><ele>167.0</ele><time>2026-04-29T14:06:37Z</time></trkpt><trkpt lat="41.63280261296699" lon="20.01906149546352"><ele>167.0</ele><time>2026-04-29T14:06:38Z</time></trkpt><trkpt lat="41.63289636146951" lon="20.018900949311394"><ele>164.66666666666666</ele><time>2026-04-29T14:06:39Z</time></trkpt><trkpt lat="41.63298451423923" lon="20.018717192929564"><ele>162.33333333333334</ele><time>2026-04-29T14:06:40Z</time></trkpt><trkpt lat="41.633087680650284" lon="20.01855809870634"><ele>160.0</ele><time>2026-04-29T14:06:41Z</time></trkpt><trkpt lat="41.63317764135211" lon="20.018416669111403"><ele>158.75</ele><time>2026-04-29T14:06:42Z</time></trkpt><trkpt lat="41.63325956187119" lon="20.01828878542526"><ele>157.5</ele><time>2026-04-29T14:06:43Z</time></trkpt><trkpt lat="41.633338942123785" lon="20.01817176198017"><ele>156.25</ele><time>2026-04-29T14:06:44Z</time></trkpt><trkpt lat="41.63341917343423" lon="20.01806318973017"><ele>155.0</ele><time>2026-04-29T14:06:45Z</time></trkpt><trkpt lat="41.63350415145028" lon="20.017969027442845"><ele>155.0</ele><time>2026-04-29T14:06:46Z</time></trkpt><trkpt lat="41.633590862848195" lon="20.017904778446166"><ele>155.0</ele><time>2026-04-29T14:06:47Z</time></trkpt><trkpt lat="41.63367536871483" lon="20.01790538441749"><ele>155.0</ele><time>2026-04-29T14:06:48Z</time></trkpt><trkpt lat="41.633739928547314" lon="20.01791789164284"><ele>155.0</ele><time>2026-04-29T14:06:48.999Z</time></trkpt><trkpt lat="41.63380901104946" lon="20.017923206190655"><ele>155.0</ele><time>2026-04-29T14:06:49.999Z</time></trkpt><trkpt lat="41.63390577543436" lon="20.017930583059446"><ele>155.0</ele><time>2026-04-29T14:06:50.999Z</time></trkpt><trkpt lat="41.63401068682315" lon="20.01796291378348"><ele>155.0</ele><time>2026-04-29T14:06:51.999Z</time></trkpt><trkpt lat="41.63412490482725" lon="20.017987426655935"><ele>155.0</ele><time>2026-04-29T14:06:52.999Z</time></trkpt><trkpt lat="41.634237061995925" lon="20.018035103456956"><ele>155.0</ele><time>2026-04-29T14:06:53.999Z</time></trkpt><trkpt lat="41.634355837601724" lon="20.01807018847909"><ele>155.0</ele><time>2026-04-29T14:06:54.999Z</time></trkpt><trkpt lat="41.63448845423459" lon="20.018108896414244"><ele>157.66666666666666</ele><time>2026-04-29T14:06:55.999Z</time></trkpt><trkpt lat="41.63463299907468" lon="20.018150218507795"><ele>160.33333333333334</ele><time>2026-04-29T14:06:56.999Z</time></trkpt><trkpt lat="41.63478342730336" lon="20.018182362995024"><ele>163.0</ele><time>2026-04-29T14:06:57.999Z</time></trkpt><trkpt lat="41.63494597346978" lon="20.018197777772773"><ele>163.0</ele><time>2026-04-29T14:06:58.999Z</time></trkpt><trkpt lat="41.63510535863987" lon="20.01820175667101"><ele>163.0</ele><time>2026-04-29T14:06:59.999Z</time></trkpt><trkpt lat="41.635263484772615" lon="20.018143187586983"><ele>163.0</ele><time>2026-04-29T14:07:00.999Z</time></trkpt><trkpt lat="41.635415751323855" lon="20.018090604256535"><ele>163.33333333333334</ele><time>2026-04-29T14:07:01.999Z</time></trkpt><trkpt lat="41.635578301913135" lon="20.018019739626034"><ele>163.66666666666666</ele><time>2026-04-29T14:07:02.999Z</time></trkpt><trkpt lat="41.63575714430462" lon="20.017962970501255"><ele>164.0</ele><time>2026-04-29T14:07:03.999Z</time></trkpt><trkpt lat="41.63591617679486" lon="20.01785041892729"><ele>164.0</ele><time>2026-04-29T14:07:04.999Z</time></trkpt><trkpt lat="41.636052959127824" lon="20.017773189783686"><ele>164.0</ele><time>2026-04-29T14:07:05.999Z</time></trkpt><trkpt lat="41.63616087759657" lon="20.0177202119102"><ele>164.0</ele><time>2026-04-29T14:07:06.999Z</time></trkpt><trkpt lat="41.63625148242197" lon="20.017673743242355"><ele>164.0</ele><time>2026-04-29T14:07:07.999Z</time></trkpt><trkpt lat="41.636330664788744" lon="20.017617084941033"><ele>164.0</ele><time>2026-04-29T14:07:08.999Z</time></trkpt><trkpt lat="41.636409504543394" lon="20.0175540798591"><ele>164.0</ele><time>2026-04-29T14:07:09.999Z</time></trkpt><trkpt lat="41.63649414970021" lon="20.01749320806005"><ele>164.0</ele><time>2026-04-29T14:07:10.999Z</time></trkpt><trkpt lat="41.63658169327431" lon="20.017437797412814"><ele>164.0</ele><time>2026-04-29T14:07:11.999Z</time></trkpt><trkpt lat="41.636668998192036" lon="20.0173837106217"><ele>164.0</ele><time>2026-04-29T14:07:12.999Z</time></trkpt><trkpt lat="41.63675799561521" lon="20.017327965266002"><ele>164.0</ele><time>2026-04-29T14:07:13.999Z</time></trkpt><trkpt lat="41.63684765390508" lon="20.017267094052137"><ele>164.0</ele><time>2026-04-29T14:07:14.999Z</time></trkpt><trkpt lat="41.63694026662894" lon="20.017207157136962"><ele>164.0</ele><time>2026-04-29T14:07:15.999Z</time></trkpt><trkpt lat="41.6370399564892" lon="20.017142340717225"><ele>164.0</ele><time>2026-04-29T14:07:16.999Z</time></trkpt><trkpt lat="41.63714305563909" lon="20.01707576108295"><ele>164.0</ele><time>2026-04-29T14:07:17.999Z</time></trkpt><trkpt lat="41.63724947529959" lon="20.01700663518789"><ele>164.75</ele><time>2026-04-29T14:07:18.999Z</time></trkpt><trkpt lat="41.63735837418083" lon="20.016933108708034"><ele>165.5</ele><time>2026-04-29T14:07:19.999Z</time></trkpt><trkpt lat="41.637471941501495" lon="20.016857921861764"><ele>166.25</ele><time>2026-04-29T14:07:20.999Z</time></trkpt><trkpt lat="41.63759171788153" lon="20.016782633004027"><ele>167.0</ele><time>2026-04-29T14:07:21.999Z</time></trkpt><trkpt lat="41.63771911856747" lon="20.016708962728007"><ele>166.0</ele><time>2026-04-29T14:07:22.999Z</time></trkpt><trkpt lat="41.637852382053" lon="20.01664221360023"><ele>165.0</ele><time>2026-04-29T14:07:23.999Z</time></trkpt><trkpt lat="41.63798442044547" lon="20.016589244593803"><ele>164.0</ele><time>2026-04-29T14:07:24.999Z</time></trkpt><trkpt lat="41.63809743709969" lon="20.016547167668683"><ele>163.0</ele><time>2026-04-29T14:07:25.999Z</time></trkpt><trkpt lat="41.638200334674956" lon="20.0165076518007"><ele>163.0</ele><time>2026-04-29T14:07:27Z</time></trkpt><trkpt lat="41.63831087102086" lon="20.016466009159203"><ele>163.0</ele><time>2026-04-29T14:07:28Z</time></trkpt><trkpt lat="41.63842411619623" lon="20.016421614335563"><ele>163.0</ele><time>2026-04-29T14:07:29Z</time></trkpt><trkpt lat="41.63854023189036" lon="20.016377848761525"><ele>163.0</ele><time>2026-04-29T14:07:30Z</time></trkpt><trkpt lat="41.638660498014396" lon="20.01633319013939"><ele>163.0</ele><time>2026-04-29T14:07:31Z</time></trkpt><trkpt lat="41.6387823511748" lon="20.016288742469833"><ele>163.0</ele><time>2026-04-29T14:07:32Z</time></trkpt><trkpt lat="41.63890449994716" lon="20.016237273477316"><ele>163.0</ele><time>2026-04-29T14:07:33Z</time></trkpt><trkpt lat="41.63902712923079" lon="20.01617888481051"><ele>163.0</ele><time>2026-04-29T14:07:34Z</time></trkpt><trkpt lat="41.639141951137354" lon="20.01612412749422"><ele>163.0</ele><time>2026-04-29T14:07:35Z</time></trkpt><trkpt lat="41.6392253208071" lon="20.01608100183765"><ele>163.0</ele><time>2026-04-29T14:07:36Z</time></trkpt><trkpt lat="41.63932184130933" lon="20.016017452648214"><ele>163.0</ele><time>2026-04-29T14:07:38Z</time></trkpt><trkpt lat="41.639378248624176" lon="20.015976520425347"><ele>163.0</ele><time>2026-04-29T14:07:41Z</time></trkpt><trkpt lat="41.639473563754734" lon="20.01592045045204"><ele>163.0</ele><time>2026-04-29T14:07:58Z</time></trkpt><trkpt lat="41.639592595346166" lon="20.015900695406728"><ele>164.0</ele><time>2026-04-29T14:07:59Z</time></trkpt><trkpt lat="41.639708404853835" lon="20.015834839959975"><ele>165.0</ele><time>2026-04-29T14:08:00Z</time></trkpt><trkpt lat="41.639831860134166" lon="20.015622491227276"><ele>166.0</ele><time>2026-04-29T14:08:01Z</time></trkpt><trkpt lat="41.64005984437566" lon="20.015446330977692"><ele>164.5</ele><time>2026-04-29T14:08:02Z</time></trkpt><trkpt lat="41.64031311863173" lon="20.015249439126528"><ele>163.0</ele><time>2026-04-29T14:08:03Z</time></trkpt><trkpt lat="41.64050667532536" lon="20.01509745848295"><ele>161.33333333333334</ele><time>2026-04-29T14:08:04Z</time></trkpt><trkpt lat="41.64067110422056" lon="20.014969336639318"><ele>159.66666666666666</ele><time>2026-04-29T14:08:05Z</time></trkpt><trkpt lat="41.640820978199855" lon="20.014867043067174"><ele>158.0</ele><time>2026-04-29T14:08:06Z</time></trkpt><trkpt lat="41.64096910136689" lon="20.01477278526601"><ele>158.0</ele><time>2026-04-29T14:08:07Z</time></trkpt><trkpt lat="41.64111575444137" lon="20.014685574071333"><ele>158.0</ele><time>2026-04-29T14:08:08Z</time></trkpt><trkpt lat="41.6412622233411" lon="20.01460213059785"><ele>158.0</ele><time>2026-04-29T14:08:09Z</time></trkpt><trkpt lat="41.641391785354344" lon="20.014532706121145"><ele>158.25</ele><time>2026-04-29T14:08:10Z</time></trkpt><trkpt lat="41.64150942126764" lon="20.014469460612837"><ele>158.5</ele><time>2026-04-29T14:08:11Z</time></trkpt><trkpt lat="41.6416223499377" lon="20.014409461296765"><ele>158.75</ele><time>2026-04-29T14:08:12Z</time></trkpt><trkpt lat="41.64172984435092" lon="20.014351775815033"><ele>159.0</ele><time>2026-04-29T14:08:13Z</time></trkpt><trkpt lat="41.64181533732275" lon="20.0143084527256"><ele>159.0</ele><time>2026-04-29T14:08:14Z</time></trkpt><trkpt lat="41.641923375534894" lon="20.014249264901544"><ele>159.0</ele><time>2026-04-29T14:08:16Z</time></trkpt><trkpt lat="41.6419900553367" lon="20.014221075531367"><ele>159.0</ele><time>2026-04-29T14:08:17Z</time></trkpt><trkpt lat="41.64203766240162" lon="20.014120069439443"><ele>159.0</ele><time>2026-04-29T14:08:18Z</time></trkpt><trkpt lat="41.642097040975266" lon="20.01402144465365"><ele>159.0</ele><time>2026-04-29T14:08:19Z</time></trkpt><trkpt lat="41.64214929968106" lon="20.013938080529496"><ele>158.57142857142856</ele><time>2026-04-29T14:08:20Z</time></trkpt><trkpt lat="41.64220234944273" lon="20.013869250647993"><ele>158.14285714285717</ele><time>2026-04-29T14:08:21Z</time></trkpt><trkpt lat="41.64225489072177" lon="20.013800479560192"><ele>157.71428571428572</ele><time>2026-04-29T14:08:22Z</time></trkpt><trkpt lat="41.642308738799194" lon="20.013726629617615"><ele>157.28571428571428</ele><time>2026-04-29T14:08:23Z</time></trkpt><trkpt lat="41.64236001662293" lon="20.013659885083655"><ele>156.85714285714283</ele><time>2026-04-29T14:08:24Z</time></trkpt><trkpt lat="41.642409996193265" lon="20.013605220326816"><ele>156.42857142857144</ele><time>2026-04-29T14:08:25Z</time></trkpt><trkpt lat="41.642468464540855" lon="20.013563505782933"><ele>156.0</ele><time>2026-04-29T14:08:26Z</time></trkpt><trkpt lat="41.64253046763909" lon="20.01353313692153"><ele>156.0</ele><time>2026-04-29T14:08:27Z</time></trkpt><trkpt lat="41.64265354876732" lon="20.013507598698673"><ele>156.0</ele><time>2026-04-29T14:08:29Z</time></trkpt><trkpt lat="41.64272755203192" lon="20.013510090365294"><ele>156.0</ele><time>2026-04-29T14:08:30Z</time></trkpt><trkpt lat="41.64281851054007" lon="20.01351706634058"><ele>156.0</ele><time>2026-04-29T14:08:31Z</time></trkpt><trkpt lat="41.64290111121141" lon="20.013520686741433"><ele>156.0</ele><time>2026-04-29T14:08:32Z</time></trkpt><trkpt lat="41.642971402894894" lon="20.013527036774242"><ele>156.0</ele><time>2026-04-29T14:08:33Z</time></trkpt><trkpt lat="41.64305195458613" lon="20.01352993486569"><ele>155.8</ele><time>2026-04-29T14:08:34Z</time></trkpt><trkpt lat="41.64313851105865" lon="20.01354778382027"><ele>155.6</ele><time>2026-04-29T14:08:35Z</time></trkpt><trkpt lat="41.64323318446572" lon="20.013537648721247"><ele>155.4</ele><time>2026-04-29T14:08:36Z</time></trkpt><trkpt lat="41.643333755374606" lon="20.01351187227011"><ele>155.2</ele><time>2026-04-29T14:08:37Z</time></trkpt><trkpt lat="41.64342982759333" lon="20.013474081511816"><ele>155.0</ele><time>2026-04-29T14:08:38Z</time></trkpt><trkpt lat="41.643528391615746" lon="20.01340267489159"><ele>155.0</ele><time>2026-04-29T14:08:39Z</time></trkpt><trkpt lat="41.643628744120264" lon="20.013352186451748"><ele>155.0</ele><time>2026-04-29T14:08:40Z</time></trkpt><trkpt lat="41.643722679088896" lon="20.013328067408548"><ele>155.0</ele><time>2026-04-29T14:08:41Z</time></trkpt><trkpt lat="41.64381748301838" lon="20.013292512832276"><ele>155.0</ele><time>2026-04-29T14:08:42Z</time></trkpt><trkpt lat="41.64392690702074" lon="20.01325061691548"><ele>155.0</ele><time>2026-04-29T14:08:43Z</time></trkpt><trkpt lat="41.64404288602885" lon="20.013204994311824"><ele>154.6</ele><time>2026-04-29T14:08:44Z</time></trkpt><trkpt lat="41.64415631401649" lon="20.01316037520183"><ele>154.2</ele><time>2026-04-29T14:08:45Z</time></trkpt><trkpt lat="41.64425519404263" lon="20.013105348557083"><ele>153.8</ele><time>2026-04-29T14:08:46Z</time></trkpt><trkpt lat="41.64434839231011" lon="20.013083544100905"><ele>153.4</ele><time>2026-04-29T14:08:47Z</time></trkpt><trkpt lat="41.64445401385934" lon="20.01305634170455"><ele>153.0</ele><time>2026-04-29T14:08:48Z</time></trkpt><trkpt lat="41.64455674849661" lon="20.01303475069818"><ele>152.0</ele><time>2026-04-29T14:08:49Z</time></trkpt><trkpt lat="41.644647954097664" lon="20.013010209219004"><ele>151.0</ele><time>2026-04-29T14:08:50Z</time></trkpt><trkpt lat="41.64474222581426" lon="20.01297266043121"><ele>150.0</ele><time>2026-04-29T14:08:51Z</time></trkpt><trkpt lat="41.64483475916272" lon="20.01294670427219"><ele>149.0</ele><time>2026-04-29T14:08:52Z</time></trkpt><trkpt lat="41.64492619687511" lon="20.012882746461734"><ele>148.0</ele><time>2026-04-29T14:08:53Z</time></trkpt><trkpt lat="41.64501492470472" lon="20.012778899598732"><ele>148.0</ele><time>2026-04-29T14:08:54Z</time></trkpt><trkpt lat="41.64510608444225" lon="20.01267487575954"><ele>148.0</ele><time>2026-04-29T14:08:55Z</time></trkpt><trkpt lat="41.645188295743374" lon="20.01257902834831"><ele>148.0</ele><time>2026-04-29T14:08:56Z</time></trkpt><trkpt lat="41.64525941214527" lon="20.012496525136097"><ele>148.0</ele><time>2026-04-29T14:08:57Z</time></trkpt><trkpt lat="41.64532997734486" lon="20.012415283193576"><ele>148.0</ele><time>2026-04-29T14:08:58Z</time></trkpt><trkpt lat="41.645410587659754" lon="20.012323845113702"><ele>149.5</ele><time>2026-04-29T14:08:59Z</time></trkpt><trkpt lat="41.645498914862436" lon="20.012227606828144"><ele>151.0</ele><time>2026-04-29T14:09:00Z</time></trkpt><trkpt lat="41.645596126320676" lon="20.012141393529078"><ele>152.5</ele><time>2026-04-29T14:09:01Z</time></trkpt><trkpt lat="41.64570565576699" lon="20.012073770859377"><ele>154.0</ele><time>2026-04-29T14:09:02Z</time></trkpt><trkpt lat="41.64582699518492" lon="20.011998624332794"><ele>154.0</ele><time>2026-04-29T14:09:03Z</time></trkpt><trkpt lat="41.6459583856495" lon="20.01191820629056"><ele>154.0</ele><time>2026-04-29T14:09:04Z</time></trkpt><trkpt lat="41.64612412020928" lon="20.01181838646018"><ele>154.0</ele><time>2026-04-29T14:09:05Z</time></trkpt><trkpt lat="41.64630700956324" lon="20.011720623677242"><ele>153.4</ele><time>2026-04-29T14:09:06Z</time></trkpt><trkpt lat="41.64645884747907" lon="20.01165032268456"><ele>152.8</ele><time>2026-04-29T14:09:06.999Z</time></trkpt><trkpt lat="41.646565627883746" lon="20.01160953269816"><ele>152.2</ele><time>2026-04-29T14:09:07.999Z</time></trkpt><trkpt lat="41.646657405251375" lon="20.011584743074362"><ele>151.6</ele><time>2026-04-29T14:09:08.999Z</time></trkpt><trkpt lat="41.64672929981122" lon="20.011591490111858"><ele>151.0</ele><time>2026-04-29T14:09:09.999Z</time></trkpt><trkpt lat="41.64680099092241" lon="20.011611126648653"><ele>153.2</ele><time>2026-04-29T14:09:10.999Z</time></trkpt><trkpt lat="41.64686278233856" lon="20.011691540025083"><ele>155.39999999999998</ele><time>2026-04-29T14:09:11.999Z</time></trkpt><trkpt lat="41.64688949052323" lon="20.011807458210374"><ele>157.6</ele><time>2026-04-29T14:09:12.999Z</time></trkpt><trkpt lat="41.646869065689984" lon="20.01191361595242"><ele>159.79999999999998</ele><time>2026-04-29T14:09:13.999Z</time></trkpt><trkpt lat="41.64679916958055" lon="20.012026570590372"><ele>162.0</ele><time>2026-04-29T14:09:14.999Z</time></trkpt><trkpt lat="41.6466892169745" lon="20.01214202927577"><ele>162.0</ele><time>2026-04-29T14:09:15.999Z</time></trkpt><trkpt lat="41.646556193414696" lon="20.012269454158435"><ele>162.0</ele><time>2026-04-29T14:09:16.999Z</time></trkpt><trkpt lat="41.64643144644891" lon="20.012400682621326"><ele>162.0</ele><time>2026-04-29T14:09:17.999Z</time></trkpt><trkpt lat="41.64634576843049" lon="20.012510224079833"><ele>162.0</ele><time>2026-04-29T14:09:18.999Z</time></trkpt><trkpt lat="41.64627008810218" lon="20.01262370241333"><ele>164.2</ele><time>2026-04-29T14:09:19.999Z</time></trkpt><trkpt lat="41.64621296479568" lon="20.012769212237636"><ele>166.39999999999998</ele><time>2026-04-29T14:09:20.999Z</time></trkpt><trkpt lat="41.646195478304186" lon="20.012917552957898"><ele>168.60000000000002</ele><time>2026-04-29T14:09:21.999Z</time></trkpt><trkpt lat="41.646217827733615" lon="20.013053437237193"><ele>170.8</ele><time>2026-04-29T14:09:22.999Z</time></trkpt><trkpt lat="41.646244900025806" lon="20.013159761316835"><ele>173.0</ele><time>2026-04-29T14:09:23.999Z</time></trkpt><trkpt lat="41.64631384798846" lon="20.013219450040992"><ele>173.0</ele><time>2026-04-29T14:09:24.999Z</time></trkpt><trkpt lat="41.64638672062111" lon="20.01324134316841"><ele>173.0</ele><time>2026-04-29T14:09:25.999Z</time></trkpt><trkpt lat="41.64646610511131" lon="20.01320601387993"><ele>173.0</ele><time>2026-04-29T14:09:26.999Z</time></trkpt><trkpt lat="41.64654240401241" lon="20.013108208930124"><ele>173.0</ele><time>2026-04-29T14:09:27.999Z</time></trkpt><trkpt lat="41.64662621531697" lon="20.013021160679447"><ele>173.0</ele><time>2026-04-29T14:09:28.999Z</time></trkpt><trkpt lat="41.64670047155222" lon="20.012898534022266"><ele>173.0</ele><time>2026-04-29T14:09:29.999Z</time></trkpt><trkpt lat="41.64680862182266" lon="20.012779912675715"><ele>173.0</ele><time>2026-04-29T14:09:30.999Z</time></trkpt><trkpt lat="41.64691365111909" lon="20.01264224648639"><ele>173.0</ele><time>2026-04-29T14:09:31.999Z</time></trkpt><trkpt lat="41.64702488516764" lon="20.01252729448581"><ele>173.0</ele><time>2026-04-29T14:09:33Z</time></trkpt><trkpt lat="41.6471355634986" lon="20.012442406076264"><ele>171.75</ele><time>2026-04-29T14:09:34Z</time></trkpt><trkpt lat="41.64725634254015" lon="20.012376663498415"><ele>170.5</ele><time>2026-04-29T14:09:35Z</time></trkpt><trkpt lat="41.64738959425413" lon="20.012338801129644"><ele>169.25</ele><time>2026-04-29T14:09:36Z</time></trkpt><trkpt lat="41.64752548340527" lon="20.012306136310325"><ele>168.0</ele><time>2026-04-29T14:09:37Z</time></trkpt><trkpt lat="41.647662128475474" lon="20.01225055606022"><ele>169.75</ele><time>2026-04-29T14:09:38Z</time></trkpt><trkpt lat="41.64779788903749" lon="20.01223634585825"><ele>171.5</ele><time>2026-04-29T14:09:39Z</time></trkpt><trkpt lat="41.64793740756834" lon="20.012173934644533"><ele>173.25</ele><time>2026-04-29T14:09:40Z</time></trkpt><trkpt lat="41.64808797517461" lon="20.012131195666154"><ele>175.0</ele><time>2026-04-29T14:09:41Z</time></trkpt><trkpt lat="41.648245477516866" lon="20.012085521500644"><ele>175.0</ele><time>2026-04-29T14:09:42Z</time></trkpt><trkpt lat="41.64840883587701" lon="20.012029464209206"><ele>175.0</ele><time>2026-04-29T14:09:43Z</time></trkpt><trkpt lat="41.64856420402009" lon="20.01196579029901"><ele>175.0</ele><time>2026-04-29T14:09:44Z</time></trkpt><trkpt lat="41.64870501945459" lon="20.011892613883724"><ele>177.5</ele><time>2026-04-29T14:09:45Z</time></trkpt><trkpt lat="41.64883963407508" lon="20.01180776608084"><ele>180.0</ele><time>2026-04-29T14:09:46Z</time></trkpt><trkpt lat="41.64895793876249" lon="20.01173387463111"><ele>182.5</ele><time>2026-04-29T14:09:47Z</time></trkpt><trkpt lat="41.64905467408759" lon="20.011655615596116"><ele>185.0</ele><time>2026-04-29T14:09:48Z</time></trkpt><trkpt lat="41.64915783301656" lon="20.011594721831155"><ele>182.75</ele><time>2026-04-29T14:09:49Z</time></trkpt><trkpt lat="41.64927040335607" lon="20.011528337454443"><ele>180.5</ele><time>2026-04-29T14:09:50Z</time></trkpt><trkpt lat="41.649394783620956" lon="20.01146860237327"><ele>178.25</ele><time>2026-04-29T14:09:51Z</time></trkpt><trkpt lat="41.649532836736" lon="20.011422722213037"><ele>176.0</ele><time>2026-04-29T14:09:52Z</time></trkpt><trkpt lat="41.64966865449522" lon="20.011366854690046"><ele>176.0</ele><time>2026-04-29T14:09:53Z</time></trkpt><trkpt lat="41.649796820901386" lon="20.011263861008324"><ele>176.0</ele><time>2026-04-29T14:09:54Z</time></trkpt><trkpt lat="41.649922278316275" lon="20.011154825983844"><ele>176.0</ele><time>2026-04-29T14:09:55Z</time></trkpt><trkpt lat="41.650042506436456" lon="20.011053550079698"><ele>176.0</ele><time>2026-04-29T14:09:56Z</time></trkpt><trkpt lat="41.65014624881702" lon="20.0109551485754"><ele>176.0</ele><time>2026-04-29T14:09:57Z</time></trkpt><trkpt lat="41.65027790906221" lon="20.010902140843786"><ele>176.0</ele><time>2026-04-29T14:09:58Z</time></trkpt><trkpt lat="41.65041463357553" lon="20.0108723592769"><ele>176.0</ele><time>2026-04-29T14:09:59Z</time></trkpt><trkpt lat="41.650537575612724" lon="20.01087307521519"><ele>176.0</ele><time>2026-04-29T14:10:00Z</time></trkpt><trkpt lat="41.650638377499774" lon="20.010898212675187"><ele>178.25</ele><time>2026-04-29T14:10:01Z</time></trkpt><trkpt lat="41.65073791230618" lon="20.010943515364517"><ele>180.5</ele><time>2026-04-29T14:10:02Z</time></trkpt><trkpt lat="41.65084774600286" lon="20.010996885579818"><ele>182.75</ele><time>2026-04-29T14:10:03Z</time></trkpt><trkpt lat="41.650963667301696" lon="20.011059803796865"><ele>185.0</ele><time>2026-04-29T14:10:04Z</time></trkpt><trkpt lat="41.651063631003275" lon="20.011103410480207"><ele>185.4</ele><time>2026-04-29T14:10:05Z</time></trkpt><trkpt lat="41.651153863200996" lon="20.011125190879405"><ele>185.8</ele><time>2026-04-29T14:10:06Z</time></trkpt><trkpt lat="41.65124616972235" lon="20.011151635229304"><ele>186.2</ele><time>2026-04-29T14:10:07Z</time></trkpt><trkpt lat="41.65134496958316" lon="20.011129907402346"><ele>186.6</ele><time>2026-04-29T14:10:08Z</time></trkpt><trkpt lat="41.65144642636166" lon="20.011093530184333"><ele>187.0</ele><time>2026-04-29T14:10:09Z</time></trkpt><trkpt lat="41.65155069945925" lon="20.01104730028959"><ele>187.0</ele><time>2026-04-29T14:10:10Z</time></trkpt><trkpt lat="41.6516580868982" lon="20.010987976661983"><ele>187.0</ele><time>2026-04-29T14:10:11Z</time></trkpt><trkpt lat="41.65177502060423" lon="20.010913750705523"><ele>187.0</ele><time>2026-04-29T14:10:12Z</time></trkpt><trkpt lat="41.65189901529197" lon="20.01081228331602"><ele>187.0</ele><time>2026-04-29T14:10:13Z</time></trkpt><trkpt lat="41.65201805430007" lon="20.0106826021869"><ele>187.6</ele><time>2026-04-29T14:10:14Z</time></trkpt><trkpt lat="41.65210853984692" lon="20.01056797876608"><ele>188.2</ele><time>2026-04-29T14:10:15Z</time></trkpt><trkpt lat="41.652177732606404" lon="20.01047077143543"><ele>188.8</ele><time>2026-04-29T14:10:16Z</time></trkpt><trkpt lat="41.65221588687258" lon="20.010391530634667"><ele>189.4</ele><time>2026-04-29T14:10:17Z</time></trkpt><trkpt lat="41.65229537666019" lon="20.010300378440483"><ele>190.0</ele><time>2026-04-29T14:10:22Z</time></trkpt><trkpt lat="41.65234263878903" lon="20.010230743477283"><ele>190.0</ele><time>2026-04-29T14:10:23Z</time></trkpt><trkpt lat="41.65238874580402" lon="20.01015656885776"><ele>190.0</ele><time>2026-04-29T14:10:24Z</time></trkpt><trkpt lat="41.6524390772982" lon="20.01007563286569"><ele>190.0</ele><time>2026-04-29T14:10:25Z</time></trkpt><trkpt lat="41.65250700664118" lon="20.009965314997142"><ele>190.0</ele><time>2026-04-29T14:10:26Z</time></trkpt><trkpt lat="41.65257498316868" lon="20.009853955280022"><ele>190.0</ele><time>2026-04-29T14:10:27Z</time></trkpt><trkpt lat="41.652645672045395" lon="20.00973795965043"><ele>189.0</ele><time>2026-04-29T14:10:28Z</time></trkpt><trkpt lat="41.65275211201469" lon="20.009564476793447"><ele>188.0</ele><time>2026-04-29T14:10:29Z</time></trkpt><trkpt lat="41.65287830835371" lon="20.009358368827787"><ele>187.0</ele><time>2026-04-29T14:10:30Z</time></trkpt><trkpt lat="41.65301330721839" lon="20.009134355073094"><ele>185.0</ele><time>2026-04-29T14:10:31Z</time></trkpt><trkpt lat="41.65311867698291" lon="20.00895679125365"><ele>183.0</ele><time>2026-04-29T14:10:32Z</time></trkpt><trkpt lat="41.65321232415044" lon="20.008798156877646"><ele>181.0</ele><time>2026-04-29T14:10:33Z</time></trkpt><trkpt lat="41.65327373164561" lon="20.008593716348056"><ele>181.0</ele><time>2026-04-29T14:10:34Z</time></trkpt><trkpt lat="41.65336700963425" lon="20.008447418027064"><ele>181.0</ele><time>2026-04-29T14:10:35Z</time></trkpt><trkpt lat="41.653449861548076" lon="20.008323780994214"><ele>181.0</ele><time>2026-04-29T14:10:36Z</time></trkpt><trkpt lat="41.65353010948861" lon="20.008214990164735"><ele>181.0</ele><time>2026-04-29T14:10:37Z</time></trkpt><trkpt lat="41.653645601492336" lon="20.008147544373802"><ele>181.75</ele><time>2026-04-29T14:10:38Z</time></trkpt><trkpt lat="41.65374696651286" lon="20.00805123790649"><ele>182.5</ele><time>2026-04-29T14:10:39Z</time></trkpt><trkpt lat="41.65385263375498" lon="20.00796410298332"><ele>183.25</ele><time>2026-04-29T14:10:40Z</time></trkpt><trkpt lat="41.65395533368794" lon="20.007862760683516"><ele>184.0</ele><time>2026-04-29T14:10:41Z</time></trkpt><trkpt lat="41.65406025623534" lon="20.007797015949684"><ele>184.0</ele><time>2026-04-29T14:10:42Z</time></trkpt><trkpt lat="41.65414891375636" lon="20.007743282506812"><ele>184.0</ele><time>2026-04-29T14:10:43Z</time></trkpt><trkpt lat="41.65424572574967" lon="20.007682058523528"><ele>184.0</ele><time>2026-04-29T14:10:43.999Z</time></trkpt><trkpt lat="41.65435475468858" lon="20.007623547017737"><ele>184.0</ele><time>2026-04-29T14:10:44.999Z</time></trkpt><trkpt lat="41.654461757614364" lon="20.00756268698925"><ele>184.0</ele><time>2026-04-29T14:10:45.999Z</time></trkpt><trkpt lat="41.65455702532119" lon="20.00749501763155"><ele>183.2</ele><time>2026-04-29T14:10:46.999Z</time></trkpt><trkpt lat="41.654671409901745" lon="20.0074391090158"><ele>182.39999999999998</ele><time>2026-04-29T14:10:47.999Z</time></trkpt><trkpt lat="41.65475762548563" lon="20.007349392071493"><ele>181.6</ele><time>2026-04-29T14:10:48.999Z</time></trkpt><trkpt lat="41.654822755777246" lon="20.00723888354253"><ele>180.8</ele><time>2026-04-29T14:10:49.999Z</time></trkpt><trkpt lat="41.654903242303334" lon="20.00715246403541"><ele>180.0</ele><time>2026-04-29T14:10:50.999Z</time></trkpt><trkpt lat="41.65499502299748" lon="20.00706763906405"><ele>180.0</ele><time>2026-04-29T14:10:51.999Z</time></trkpt><trkpt lat="41.655101439966046" lon="20.00698969314027"><ele>180.0</ele><time>2026-04-29T14:10:52.999Z</time></trkpt><trkpt lat="41.6552252887153" lon="20.006926631349085"><ele>180.0</ele><time>2026-04-29T14:10:53.999Z</time></trkpt><trkpt lat="41.65536053178569" lon="20.006889378208708"><ele>180.0</ele><time>2026-04-29T14:10:54.999Z</time></trkpt><trkpt lat="41.65547778795341" lon="20.006869268547554"><ele>179.4</ele><time>2026-04-29T14:10:55.999Z</time></trkpt><trkpt lat="41.65557479852796" lon="20.006839027316587"><ele>178.8</ele><time>2026-04-29T14:10:56.999Z</time></trkpt><trkpt lat="41.655666650824124" lon="20.00682701167509"><ele>178.2</ele><time>2026-04-29T14:10:57.999Z</time></trkpt><trkpt lat="41.65576191505067" lon="20.006760307209035"><ele>177.6</ele><time>2026-04-29T14:10:58.999Z</time></trkpt><trkpt lat="41.655846866745485" lon="20.006669643773233"><ele>177.0</ele><time>2026-04-29T14:10:59.999Z</time></trkpt><trkpt lat="41.65593023211857" lon="20.006538943493762"><ele>177.0</ele><time>2026-04-29T14:11:00.999Z</time></trkpt><trkpt lat="41.6560095552567" lon="20.006404723606998"><ele>177.0</ele><time>2026-04-29T14:11:01.999Z</time></trkpt><trkpt lat="41.65609722345209" lon="20.00627136105789"><ele>177.0</ele><time>2026-04-29T14:11:02.999Z</time></trkpt><trkpt lat="41.65620125520664" lon="20.006137256531908"><ele>177.0</ele><time>2026-04-29T14:11:03.999Z</time></trkpt><trkpt lat="41.65630887679795" lon="20.006001404519058"><ele>176.5</ele><time>2026-04-29T14:11:04.999Z</time></trkpt><trkpt lat="41.656408121044926" lon="20.005898696383564"><ele>176.0</ele><time>2026-04-29T14:11:05.999Z</time></trkpt><trkpt lat="41.65650704548754" lon="20.005807940122303"><ele>175.5</ele><time>2026-04-29T14:11:06.999Z</time></trkpt><trkpt lat="41.65662174020619" lon="20.005761759050728"><ele>175.0</ele><time>2026-04-29T14:11:07.999Z</time></trkpt><trkpt lat="41.65675045088037" lon="20.00572374677965"><ele>175.0</ele><time>2026-04-29T14:11:08.999Z</time></trkpt><trkpt lat="41.656862650895356" lon="20.00568073811513"><ele>175.0</ele><time>2026-04-29T14:11:09.999Z</time></trkpt><trkpt lat="41.656972069046134" lon="20.005595595967712"><ele>175.0</ele><time>2026-04-29T14:11:10.999Z</time></trkpt><trkpt lat="41.657057170163235" lon="20.005476542014435"><ele>175.0</ele><time>2026-04-29T14:11:11.999Z</time></trkpt><trkpt lat="41.657144907766984" lon="20.005345621182737"><ele>176.75</ele><time>2026-04-29T14:11:12.999Z</time></trkpt><trkpt lat="41.657201398908185" lon="20.00521229317968"><ele>178.5</ele><time>2026-04-29T14:11:13.999Z</time></trkpt><trkpt lat="41.65721121434901" lon="20.0050454185413"><ele>180.25</ele><time>2026-04-29T14:11:14.999Z</time></trkpt><trkpt lat="41.657188402447396" lon="20.00487511671994"><ele>182.0</ele><time>2026-04-29T14:11:15.999Z</time></trkpt><trkpt lat="41.65717017752308" lon="20.004703578102724"><ele>182.0</ele><time>2026-04-29T14:11:16.999Z</time></trkpt><trkpt lat="41.65716716894323" lon="20.00450651410659"><ele>182.0</ele><time>2026-04-29T14:11:17.999Z</time></trkpt><trkpt lat="41.65715596456261" lon="20.00428149795058"><ele>182.0</ele><time>2026-04-29T14:11:18.999Z</time></trkpt><trkpt lat="41.657143562727846" lon="20.004028132548964"><ele>180.5</ele><time>2026-04-29T14:11:19.999Z</time></trkpt><trkpt lat="41.65713427956869" lon="20.003823588632947"><ele>179.0</ele><time>2026-04-29T14:11:20.999Z</time></trkpt><trkpt lat="41.657147570012064" lon="20.00365619195827"><ele>177.5</ele><time>2026-04-29T14:11:21.999Z</time></trkpt><trkpt lat="41.65718132593068" lon="20.00351241629299"><ele>176.0</ele><time>2026-04-29T14:11:22.999Z</time></trkpt><trkpt lat="41.65723718168269" lon="20.003358614829228"><ele>175.66666666666666</ele><time>2026-04-29T14:11:23.999Z</time></trkpt><trkpt lat="41.65730355366398" lon="20.003152806153032"><ele>175.33333333333334</ele><time>2026-04-29T14:11:24.999Z</time></trkpt><trkpt lat="41.65738928037055" lon="20.002885235901168"><ele>175.0</ele><time>2026-04-29T14:11:25.999Z</time></trkpt><trkpt lat="41.657483009895486" lon="20.00256082819996"><ele>174.0</ele><time>2026-04-29T14:11:26.999Z</time></trkpt><trkpt lat="41.65752482925067" lon="20.002275348259175"><ele>173.0</ele><time>2026-04-29T14:11:27.999Z</time></trkpt><trkpt lat="41.65755430253598" lon="20.002042787676185"><ele>172.0</ele><time>2026-04-29T14:11:28.999Z</time></trkpt><trkpt lat="41.657600210229496" lon="20.001834350873324"><ele>171.0</ele><time>2026-04-29T14:11:29.999Z</time></trkpt><trkpt lat="41.657672425129846" lon="20.0016240409264"><ele>170.0</ele><time>2026-04-29T14:11:30.999Z</time></trkpt><trkpt lat="41.6577606758907" lon="20.00140830694264"><ele>169.0</ele><time>2026-04-29T14:11:31.999Z</time></trkpt><trkpt lat="41.65784999109547" lon="20.00119342770055"><ele>170.33333333333334</ele><time>2026-04-29T14:11:32.999Z</time></trkpt><trkpt lat="41.65793011252509" lon="20.001001744730896"><ele>171.66666666666666</ele><time>2026-04-29T14:11:33.999Z</time></trkpt><trkpt lat="41.65801164225825" lon="20.0008049176034"><ele>173.0</ele><time>2026-04-29T14:11:34.999Z</time></trkpt><trkpt lat="41.6580837397212" lon="20.000577913962044"><ele>173.0</ele><time>2026-04-29T14:11:35.999Z</time></trkpt><trkpt lat="41.658135726567586" lon="20.000340290731362"><ele>173.0</ele><time>2026-04-29T14:11:36.999Z</time></trkpt><trkpt lat="41.658176939273936" lon="20.000087305782277"><ele>173.0</ele><time>2026-04-29T14:11:37.999Z</time></trkpt><trkpt lat="41.65822156274964" lon="19.999824404916193"><ele>173.0</ele><time>2026-04-29T14:11:38.999Z</time></trkpt><trkpt lat="41.65826287049022" lon="19.99958109685068"><ele>173.0</ele><time>2026-04-29T14:11:39.999Z</time></trkpt><trkpt lat="41.658300644201006" lon="19.999359558914225"><ele>173.0</ele><time>2026-04-29T14:11:40.999Z</time></trkpt><trkpt lat="41.658335227331634" lon="19.99915517582816"><ele>171.66666666666666</ele><time>2026-04-29T14:11:41.999Z</time></trkpt><trkpt lat="41.65837210141716" lon="19.99893738692403"><ele>170.33333333333334</ele><time>2026-04-29T14:11:42.999Z</time></trkpt><trkpt lat="41.65840314795615" lon="19.998719105362287"><ele>169.0</ele><time>2026-04-29T14:11:43.999Z</time></trkpt><trkpt lat="41.65842890862003" lon="19.998522350867795"><ele>168.5</ele><time>2026-04-29T14:11:44.999Z</time></trkpt><trkpt lat="41.65844731018574" lon="19.998333820229483"><ele>168.0</ele><time>2026-04-29T14:11:45.999Z</time></trkpt><trkpt lat="41.65845503206413" lon="19.99814697938043"><ele>167.5</ele><time>2026-04-29T14:11:46.999Z</time></trkpt><trkpt lat="41.65845595622141" lon="19.997977031786046"><ele>167.0</ele><time>2026-04-29T14:11:47.999Z</time></trkpt><trkpt lat="41.65844298258631" lon="19.99783704263002"><ele>167.0</ele><time>2026-04-29T14:11:48.999Z</time></trkpt><trkpt lat="41.658429246657576" lon="19.997688742162637"><ele>167.0</ele><time>2026-04-29T14:11:50.999Z</time></trkpt><trkpt lat="41.658413887120034" lon="19.997546110613644"><ele>167.0</ele><time>2026-04-29T14:11:52.999Z</time></trkpt><trkpt lat="41.65840066788409" lon="19.997421026453303"><ele>167.0</ele><time>2026-04-29T14:11:55.999Z</time></trkpt><trkpt lat="41.65838365188522" lon="19.99726001628716"><ele>167.0</ele><time>2026-04-29T14:11:57.999Z</time></trkpt><trkpt lat="41.65837271694811" lon="19.997154995635743"><ele>167.2</ele><time>2026-04-29T14:11:58.999Z</time></trkpt><trkpt lat="41.65836457540208" lon="19.997071273371443"><ele>167.39999999999998</ele><time>2026-04-29T14:11:59.999Z</time></trkpt><trkpt lat="41.65834925713708" lon="19.996906932031962"><ele>167.60000000000002</ele><time>2026-04-29T14:12:01.999Z</time></trkpt><trkpt lat="41.658336069383765" lon="19.996746549433926"><ele>167.8</ele><time>2026-04-29T14:12:03.999Z</time></trkpt><trkpt lat="41.65832927058065" lon="19.996601529021635"><ele>168.0</ele><time>2026-04-29T14:12:05.999Z</time></trkpt><trkpt lat="41.658326777417955" lon="19.996510777969434"><ele>167.0</ele><time>2026-04-29T14:12:07.999Z</time></trkpt><trkpt lat="41.6583468081572" lon="19.996407419940745"><ele>166.0</ele><time>2026-04-29T14:13:54.999Z</time></trkpt><trkpt lat="41.65837930393411" lon="19.996304822883772"><ele>165.0</ele><time>2026-04-29T14:13:58.999Z</time></trkpt><trkpt lat="41.65838385546501" lon="19.996155847994412"><ele>164.0</ele><time>2026-04-29T14:14:00.999Z</time></trkpt><trkpt lat="41.65839998375418" lon="19.99601040530088"><ele>163.0</ele><time>2026-04-29T14:14:02.999Z</time></trkpt><trkpt lat="41.658428395144945" lon="19.99586683946109"><ele>163.16666666666669</ele><time>2026-04-29T14:14:04.999Z</time></trkpt><trkpt lat="41.6584603696303" lon="19.995758075478353"><ele>163.33333333333334</ele><time>2026-04-29T14:14:06.999Z</time></trkpt><trkpt lat="41.658476517420624" lon="19.995649031202788"><ele>163.5</ele><time>2026-04-29T14:14:09.999Z</time></trkpt><trkpt lat="41.658496188285405" lon="19.995557400096803"><ele>163.66666666666666</ele><time>2026-04-29T14:14:15.999Z</time></trkpt><trkpt lat="41.6585594030971" lon="19.9954893924803"><ele>163.83333333333331</ele><time>2026-04-29T14:16:48Z</time></trkpt><trkpt lat="41.65859413750566" lon="19.99539883780947"><ele>164.0</ele><time>2026-04-29T14:16:50Z</time></trkpt><trkpt lat="41.6586463397421" lon="19.995281556434676"><ele>167.0</ele><time>2026-04-29T14:16:52Z</time></trkpt><trkpt lat="41.65868393724208" lon="19.995197025385444"><ele>170.0</ele><time>2026-04-29T14:16:54Z</time></trkpt><trkpt lat="41.65873998484923" lon="19.9950722615391"><ele>173.0</ele><time>2026-04-29T14:16:56Z</time></trkpt><trkpt lat="41.65878866558598" lon="19.994972729744838"><ele>176.0</ele><time>2026-04-29T14:16:58Z</time></trkpt><trkpt lat="41.658855930626174" lon="19.994943239341442"><ele>179.0</ele><time>2026-04-29T14:17:02Z</time></trkpt><trkpt lat="41.658898296564956" lon="19.99501434214284"><ele>182.0</ele><time>2026-04-29T14:17:06Z</time></trkpt><trkpt lat="41.658886363199564" lon="19.995119552465795"><ele>182.0</ele><time>2026-04-29T14:17:08Z</time></trkpt><trkpt lat="41.65885665603937" lon="19.995269658875976"><ele>182.0</ele><time>2026-04-29T14:17:10Z</time></trkpt><trkpt lat="41.6589157668967" lon="19.99540314158897"><ele>182.0</ele><time>2026-04-29T14:17:12Z</time></trkpt><trkpt lat="41.658930283072465" lon="19.99550019843365"><ele>182.0</ele><time>2026-04-29T14:17:13Z</time></trkpt><trkpt lat="41.6589579439998" lon="19.995595631626927"><ele>182.0</ele><time>2026-04-29T14:17:14Z</time></trkpt><trkpt lat="41.65901967831215" lon="19.99571442502876"><ele>182.0</ele><time>2026-04-29T14:17:16Z</time></trkpt><trkpt lat="41.65907411031594" lon="19.99579337782943"><ele>182.0</ele><time>2026-04-29T14:17:18Z</time></trkpt><trkpt lat="41.65914613458264" lon="19.995807950851447"><ele>182.0</ele><time>2026-04-29T14:17:19Z</time></trkpt><trkpt lat="41.659262018449624" lon="19.995811799668832"><ele>182.0</ele><time>2026-04-29T14:17:21Z</time></trkpt><trkpt lat="41.65936060170091" lon="19.995820809017346"><ele>182.0</ele><time>2026-04-29T14:17:23Z</time></trkpt><trkpt lat="41.65938382027687" lon="19.99572769852486"><ele>182.0</ele><time>2026-04-29T14:17:24Z</time></trkpt><trkpt lat="41.659393278236266" lon="19.995585616638774"><ele>182.0</ele><time>2026-04-29T14:17:26Z</time></trkpt><trkpt lat="41.659356898676485" lon="19.995423275288967"><ele>182.0</ele><time>2026-04-29T14:17:28Z</time></trkpt><trkpt lat="41.659364630165115" lon="19.995285965807494"><ele>182.0</ele><time>2026-04-29T14:17:30Z</time></trkpt><trkpt lat="41.65943379713766" lon="19.99530094734991"><ele>182.0</ele><time>2026-04-29T14:17:33Z</time></trkpt><trkpt lat="41.65950400324501" lon="19.995280845266084"><ele>182.0</ele><time>2026-04-29T14:17:36Z</time></trkpt><trkpt lat="41.659603624321875" lon="19.995273247618346"><ele>184.39999999999998</ele><time>2026-04-29T14:17:38Z</time></trkpt><trkpt lat="41.659673168125174" lon="19.99527351063486"><ele>186.79999999999998</ele><time>2026-04-29T14:17:40Z</time></trkpt><trkpt lat="41.65974944057663" lon="19.99527351063025"><ele>189.2</ele><time>2026-04-29T14:17:42Z</time></trkpt><trkpt lat="41.65986615330682" lon="19.995283918775073"><ele>191.6</ele><time>2026-04-29T14:17:44Z</time></trkpt><trkpt lat="41.659972384511974" lon="19.99528443478143"><ele>194.0</ele><time>2026-04-29T14:17:46Z</time></trkpt><trkpt lat="41.66005520476782" lon="19.995309790248495"><ele>194.0</ele><time>2026-04-29T14:17:48Z</time></trkpt><trkpt lat="41.660152276514985" lon="19.99535782834455"><ele>194.0</ele><time>2026-04-29T14:17:50Z</time></trkpt><trkpt lat="41.66026187577376" lon="19.995385419764666"><ele>194.0</ele><time>2026-04-29T14:17:51.999Z</time></trkpt><trkpt lat="41.66036798338829" lon="19.995431712822406"><ele>194.0</ele><time>2026-04-29T14:17:53.999Z</time></trkpt><trkpt lat="41.66043272700449" lon="19.995458473929684"><ele>194.0</ele><time>2026-04-29T14:17:54.999Z</time></trkpt><trkpt lat="41.660500284706465" lon="19.995486176020545"><ele>193.6</ele><time>2026-04-29T14:17:55.999Z</time></trkpt><trkpt lat="41.660589858375644" lon="19.995571233545277"><ele>193.2</ele><time>2026-04-29T14:17:58Z</time></trkpt><trkpt lat="41.66063954719968" lon="19.995628820462457"><ele>192.79999999999998</ele><time>2026-04-29T14:17:59Z</time></trkpt><trkpt lat="41.66069123552914" lon="19.99568872461669"><ele>192.39999999999998</ele><time>2026-04-29T14:18:00Z</time></trkpt><trkpt lat="41.66076698803017" lon="19.99577651801694"><ele>192.0</ele><time>2026-04-29T14:18:02Z</time></trkpt><trkpt lat="41.66086464228043" lon="19.995857622986797"><ele>192.0</ele><time>2026-04-29T14:18:04Z</time></trkpt><trkpt lat="41.660929308172534" lon="19.995903835748617"><ele>192.0</ele><time>2026-04-29T14:18:05Z</time></trkpt><trkpt lat="41.6610259591081" lon="19.995908565549968"><ele>192.0</ele><time>2026-04-29T14:18:06Z</time></trkpt><trkpt lat="41.66109843299669" lon="19.99589850177824"><ele>192.0</ele><time>2026-04-29T14:18:07Z</time></trkpt><trkpt lat="41.661217395812926" lon="19.99588624974373"><ele>192.0</ele><time>2026-04-29T14:18:09Z</time></trkpt><trkpt lat="41.661319133844586" lon="19.995850895365788"><ele>196.16666666666666</ele><time>2026-04-29T14:18:11Z</time></trkpt><trkpt lat="41.66138881879607" lon="19.995826679995925"><ele>200.33333333333331</ele><time>2026-04-29T14:18:13Z</time></trkpt><trkpt lat="41.66138155110289" lon="19.99572974113204"><ele>204.5</ele><time>2026-04-29T14:18:14Z</time></trkpt><trkpt lat="41.661381985743915" lon="19.99563698263906"><ele>208.66666666666666</ele><time>2026-04-29T14:18:17Z</time></trkpt><trkpt lat="41.661440156066924" lon="19.995531911604793"><ele>212.83333333333331</ele><time>2026-04-29T14:18:20Z</time></trkpt><trkpt lat="41.66152321387805" lon="19.995485527848203"><ele>217.0</ele><time>2026-04-29T14:20:40.999Z</time></trkpt><trkpt lat="41.66162115100556" lon="19.995498354330014"><ele>217.0</ele><time>2026-04-29T14:20:42.999Z</time></trkpt><trkpt lat="41.66171398436224" lon="19.99550668800741"><ele>217.0</ele><time>2026-04-29T14:20:44.999Z</time></trkpt><trkpt lat="41.661800302744645" lon="19.995524214866627"><ele>217.0</ele><time>2026-04-29T14:20:46.999Z</time></trkpt><trkpt lat="41.66192640206371" lon="19.995558922616812"><ele>217.0</ele><time>2026-04-29T14:20:48.999Z</time></trkpt><trkpt lat="41.662003972780475" lon="19.995596889552413"><ele>217.0</ele><time>2026-04-29T14:20:49.999Z</time></trkpt><trkpt lat="41.662109908584526" lon="19.995650928044682"><ele>218.49999999999997</ele><time>2026-04-29T14:20:51.999Z</time></trkpt><trkpt lat="41.66218540573112" lon="19.995633329313424"><ele>220.0</ele><time>2026-04-29T14:20:52.999Z</time></trkpt><trkpt lat="41.66225677614968" lon="19.995654410522288"><ele>221.5</ele><time>2026-04-29T14:20:53.999Z</time></trkpt><trkpt lat="41.66233673354787" lon="19.995649902145225"><ele>223.0</ele><time>2026-04-29T14:20:54.999Z</time></trkpt><trkpt lat="41.66241481452436" lon="19.995644880916572"><ele>224.49999999999997</ele><time>2026-04-29T14:20:55.999Z</time></trkpt><trkpt lat="41.66249644593486" lon="19.995639681953502"><ele>226.0</ele><time>2026-04-29T14:20:56.999Z</time></trkpt><trkpt lat="41.6625695858331" lon="19.995635023792346"><ele>225.99999999999997</ele><time>2026-04-29T14:20:57.999Z</time></trkpt><trkpt lat="41.66263454641499" lon="19.99563088657047"><ele>226.0</ele><time>2026-04-29T14:20:58.999Z</time></trkpt><trkpt lat="41.66270036499249" lon="19.995626694700913"><ele>226.0</ele><time>2026-04-29T14:20:59.999Z</time></trkpt><trkpt lat="41.66283469501921" lon="19.995618056829887"><ele>226.0</ele><time>2026-04-29T14:21:01.999Z</time></trkpt><trkpt lat="41.66290423359439" lon="19.995613374681703"><ele>225.99999999999997</ele><time>2026-04-29T14:21:02.999Z</time></trkpt><trkpt lat="41.66297720944782" lon="19.9956084982735"><ele>226.0</ele><time>2026-04-29T14:21:03.999Z</time></trkpt><trkpt lat="41.66305639965421" lon="19.995603777543458"><ele>227.99999999999997</ele><time>2026-04-29T14:21:04.999Z</time></trkpt><trkpt lat="41.66314400392853" lon="19.995598147460093"><ele>230.0</ele><time>2026-04-29T14:21:05.999Z</time></trkpt><trkpt lat="41.663237278827786" lon="19.995591497508386"><ele>232.0</ele><time>2026-04-29T14:21:06.999Z</time></trkpt><trkpt lat="41.66332211618155" lon="19.995600363059044"><ele>234.0</ele><time>2026-04-29T14:21:07.999Z</time></trkpt><trkpt lat="41.66340841269145" lon="19.99561702041289"><ele>235.99999999999997</ele><time>2026-04-29T14:21:08.999Z</time></trkpt><trkpt lat="41.66348042987321" lon="19.99563118483831"><ele>238.0</ele><time>2026-04-29T14:21:09.999Z</time></trkpt><trkpt lat="41.66354909478601" lon="19.995644828975674"><ele>239.99999999999997</ele><time>2026-04-29T14:21:10.999Z</time></trkpt><trkpt lat="41.66361444322815" lon="19.99565781409557"><ele>242.0</ele><time>2026-04-29T14:21:11.999Z</time></trkpt><trkpt lat="41.66369615535763" lon="19.995675463224536"><ele>244.0</ele><time>2026-04-29T14:21:12.999Z</time></trkpt><trkpt lat="41.6637683924577" lon="19.995680503976992"><ele>246.0</ele><time>2026-04-29T14:21:13.999Z</time></trkpt><trkpt lat="41.663850711623354" lon="19.99568624827704"><ele>247.99999999999997</ele><time>2026-04-29T14:21:14.999Z</time></trkpt><trkpt lat="41.66393631104611" lon="19.995693054271015"><ele>250.0</ele><time>2026-04-29T14:21:15.999Z</time></trkpt><trkpt lat="41.66401962275934" lon="19.995699833904432"><ele>249.99999999999997</ele><time>2026-04-29T14:21:16.999Z</time></trkpt><trkpt lat="41.664092918160975" lon="19.995705156583444"><ele>250.0</ele><time>2026-04-29T14:21:17.999Z</time></trkpt><trkpt lat="41.66417252579642" lon="19.9956928367007"><ele>250.0</ele><time>2026-04-29T14:21:18.999Z</time></trkpt><trkpt lat="41.66424491317462" lon="19.995686469824854"><ele>250.0</ele><time>2026-04-29T14:21:19.999Z</time></trkpt><trkpt lat="41.664322967580745" lon="19.995679604543174"><ele>249.99999999999997</ele><time>2026-04-29T14:21:20.999Z</time></trkpt><trkpt lat="41.6644247199758" lon="19.99566025322631"><ele>250.0</ele><time>2026-04-29T14:21:21.999Z</time></trkpt><trkpt lat="41.664507048327074" lon="19.995638279935008"><ele>251.49999999999997</ele><time>2026-04-29T14:21:22.999Z</time></trkpt><trkpt lat="41.66458541622048" lon="19.995617363677344"><ele>253.0</ele><time>2026-04-29T14:21:23.999Z</time></trkpt><trkpt lat="41.664671668973654" lon="19.995594342955595"><ele>254.5</ele><time>2026-04-29T14:21:24.999Z</time></trkpt><trkpt lat="41.66475828331467" lon="19.995571509997863"><ele>256.0</ele><time>2026-04-29T14:21:25.999Z</time></trkpt><trkpt lat="41.66483489784091" lon="19.995544250818444"><ele>257.5</ele><time>2026-04-29T14:21:26.999Z</time></trkpt><trkpt lat="41.66490574033057" lon="19.995512901223616"><ele>259.0</ele><time>2026-04-29T14:21:27.999Z</time></trkpt><trkpt lat="41.66496478831428" lon="19.995463972838095"><ele>259.0</ele><time>2026-04-29T14:21:28.999Z</time></trkpt><trkpt lat="41.66508014458025" lon="19.995384835379937"><ele>259.0</ele><time>2026-04-29T14:21:30.999Z</time></trkpt><trkpt lat="41.66514533659748" lon="19.995332581689773"><ele>259.0</ele><time>2026-04-29T14:21:31.999Z</time></trkpt><trkpt lat="41.665202881986254" lon="19.99527439439264"><ele>259.0</ele><time>2026-04-29T14:21:32.999Z</time></trkpt><trkpt lat="41.66526154966809" lon="19.995211738275295"><ele>259.0</ele><time>2026-04-29T14:21:33.999Z</time></trkpt><trkpt lat="41.66530640508744" lon="19.995147863994582"><ele>259.0</ele><time>2026-04-29T14:21:34.999Z</time></trkpt><trkpt lat="41.66535062834229" lon="19.995069329432106"><ele>262.0</ele><time>2026-04-29T14:21:35.999Z</time></trkpt><trkpt lat="41.665387647843275" lon="19.994984009172658"><ele>265.0</ele><time>2026-04-29T14:21:36.999Z</time></trkpt><trkpt lat="41.66541628556704" lon="19.99488003726849"><ele>268.0</ele><time>2026-04-29T14:21:37.999Z</time></trkpt><trkpt lat="41.66545407280529" lon="19.994780520033704"><ele>271.0</ele><time>2026-04-29T14:21:38.999Z</time></trkpt><trkpt lat="41.66548447549361" lon="19.994684275910963"><ele>274.0</ele><time>2026-04-29T14:21:39.999Z</time></trkpt><trkpt lat="41.66550900517163" lon="19.994604471935784"><ele>277.0</ele><time>2026-04-29T14:21:40.999Z</time></trkpt><trkpt lat="41.66553799639673" lon="19.994518470724103"><ele>277.0</ele><time>2026-04-29T14:21:41.999Z</time></trkpt><trkpt lat="41.66558846217921" lon="19.994441607595217"><ele>277.0</ele><time>2026-04-29T14:21:42.999Z</time></trkpt><trkpt lat="41.66563192755488" lon="19.994362733424577"><ele>277.0</ele><time>2026-04-29T14:21:43.999Z</time></trkpt><trkpt lat="41.66567835642719" lon="19.994279291637437"><ele>277.0</ele><time>2026-04-29T14:21:44.999Z</time></trkpt><trkpt lat="41.665728632032014" lon="19.994185772999924"><ele>277.0</ele><time>2026-04-29T14:21:45.999Z</time></trkpt><trkpt lat="41.66578450572697" lon="19.994104563649778"><ele>277.0</ele><time>2026-04-29T14:21:46.999Z</time></trkpt><trkpt lat="41.66585087473146" lon="19.9940308144383"><ele>277.4</ele><time>2026-04-29T14:21:47.999Z</time></trkpt><trkpt lat="41.66591892770793" lon="19.99395898581556"><ele>277.79999999999995</ele><time>2026-04-29T14:21:48.999Z</time></trkpt><trkpt lat="41.66599408497171" lon="19.99387570526414"><ele>278.2</ele><time>2026-04-29T14:21:49.999Z</time></trkpt><trkpt lat="41.66607396756031" lon="19.99379766049262"><ele>278.59999999999997</ele><time>2026-04-29T14:21:50.999Z</time></trkpt><trkpt lat="41.666147522374146" lon="19.99371775607054"><ele>279.0</ele><time>2026-04-29T14:21:51.999Z</time></trkpt><trkpt lat="41.6662046789018" lon="19.993640252725083"><ele>279.0</ele><time>2026-04-29T14:21:52.999Z</time></trkpt><trkpt lat="41.66625613782124" lon="19.993547050706248"><ele>279.0</ele><time>2026-04-29T14:21:53.999Z</time></trkpt><trkpt lat="41.66629012338765" lon="19.993459474434214"><ele>279.0</ele><time>2026-04-29T14:21:54.999Z</time></trkpt><trkpt lat="41.666313332782416" lon="19.993350602069988"><ele>279.0</ele><time>2026-04-29T14:21:55.999Z</time></trkpt><trkpt lat="41.66633850742372" lon="19.9932329906423"><ele>279.0</ele><time>2026-04-29T14:21:56.999Z</time></trkpt><trkpt lat="41.666389377330226" lon="19.993132454665517"><ele>279.0</ele><time>2026-04-29T14:21:57.999Z</time></trkpt><trkpt lat="41.66644927015668" lon="19.99304592483622"><ele>278.3333333333333</ele><time>2026-04-29T14:21:58.999Z</time></trkpt><trkpt lat="41.666512081886445" lon="19.992947804093966"><ele>277.6666666666667</ele><time>2026-04-29T14:21:59.999Z</time></trkpt><trkpt lat="41.66657182362587" lon="19.99289964150925"><ele>277.0</ele><time>2026-04-29T14:22:00.999Z</time></trkpt><trkpt lat="41.66663668992434" lon="19.992841119461332"><ele>276.33333333333337</ele><time>2026-04-29T14:22:01.999Z</time></trkpt><trkpt lat="41.66672233938883" lon="19.992831671421165"><ele>275.6666666666667</ele><time>2026-04-29T14:22:02.999Z</time></trkpt><trkpt lat="41.66682586008968" lon="19.99279273781356"><ele>275.0</ele><time>2026-04-29T14:22:03.999Z</time></trkpt><trkpt lat="41.66691174014528" lon="19.992741324979402"><ele>274.83333333333337</ele><time>2026-04-29T14:22:04.999Z</time></trkpt><trkpt lat="41.667007368343235" lon="19.992738054449905"><ele>274.6666666666667</ele><time>2026-04-29T14:22:05.999Z</time></trkpt><trkpt lat="41.66709323548834" lon="19.99271596960875"><ele>274.5</ele><time>2026-04-29T14:22:06.999Z</time></trkpt><trkpt lat="41.667175632657504" lon="19.992727704858023"><ele>274.3333333333333</ele><time>2026-04-29T14:22:07.999Z</time></trkpt><trkpt lat="41.66727047364618" lon="19.992743435440225"><ele>274.16666666666663</ele><time>2026-04-29T14:22:09Z</time></trkpt><trkpt lat="41.66733917995528" lon="19.992773165636397"><ele>274.0</ele><time>2026-04-29T14:22:10Z</time></trkpt><trkpt lat="41.66740049772297" lon="19.992796651727808"><ele>274.0</ele><time>2026-04-29T14:22:11Z</time></trkpt><trkpt lat="41.667470874291986" lon="19.992799545844477"><ele>274.0</ele><time>2026-04-29T14:22:12Z</time></trkpt><trkpt lat="41.66753875197357" lon="19.992814445898368"><ele>274.0</ele><time>2026-04-29T14:22:13Z</time></trkpt><trkpt lat="41.66761329142047" lon="19.992827849261865"><ele>274.0</ele><time>2026-04-29T14:22:14Z</time></trkpt><trkpt lat="41.66769621135483" lon="19.992764192374537"><ele>274.0</ele><time>2026-04-29T14:22:15Z</time></trkpt><trkpt lat="41.6677757702602" lon="19.99268753608047"><ele>274.0</ele><time>2026-04-29T14:22:16Z</time></trkpt><trkpt lat="41.66785369282888" lon="19.99259204759776"><ele>273.5</ele><time>2026-04-29T14:22:17Z</time></trkpt><trkpt lat="41.667918595441144" lon="19.99250599774342"><ele>273.0</ele><time>2026-04-29T14:22:18Z</time></trkpt><trkpt lat="41.66798496285401" lon="19.99241746762871"><ele>272.5</ele><time>2026-04-29T14:22:19Z</time></trkpt><trkpt lat="41.66804328456442" lon="19.992323282517212"><ele>272.0</ele><time>2026-04-29T14:22:20Z</time></trkpt><trkpt lat="41.66808275986407" lon="19.9922415095181"><ele>271.5</ele><time>2026-04-29T14:22:21Z</time></trkpt><trkpt lat="41.66810187893072" lon="19.992144036516336"><ele>271.0</ele><time>2026-04-29T14:22:22Z</time></trkpt><trkpt lat="41.66811297399437" lon="19.992026813769407"><ele>271.0</ele><time>2026-04-29T14:22:23Z</time></trkpt><trkpt lat="41.66812788496529" lon="19.99189546257445"><ele>271.0</ele><time>2026-04-29T14:22:24Z</time></trkpt><trkpt lat="41.66814239611627" lon="19.99177353905578"><ele>271.0</ele><time>2026-04-29T14:22:25Z</time></trkpt><trkpt lat="41.66815381143753" lon="19.991661629123197"><ele>271.0</ele><time>2026-04-29T14:22:26Z</time></trkpt><trkpt lat="41.66816485650197" lon="19.991529215624038"><ele>271.0</ele><time>2026-04-29T14:22:27Z</time></trkpt><trkpt lat="41.66819097227969" lon="19.99139888581241"><ele>270.3333333333333</ele><time>2026-04-29T14:22:28Z</time></trkpt><trkpt lat="41.66820621258356" lon="19.991273786862163"><ele>269.66666666666663</ele><time>2026-04-29T14:22:29Z</time></trkpt><trkpt lat="41.668208519700336" lon="19.991167147174902"><ele>269.0</ele><time>2026-04-29T14:22:30Z</time></trkpt><trkpt lat="41.668231483204345" lon="19.991070690067275"><ele>268.3333333333333</ele><time>2026-04-29T14:22:31Z</time></trkpt><trkpt lat="41.668242390304265" lon="19.990984088134503"><ele>267.6666666666667</ele><time>2026-04-29T14:22:32Z</time></trkpt><trkpt lat="41.66825903383243" lon="19.990895993050266"><ele>267.0</ele><time>2026-04-29T14:22:33Z</time></trkpt><trkpt lat="41.668280152126606" lon="19.990781900749848"><ele>265.8333333333333</ele><time>2026-04-29T14:22:34Z</time></trkpt><trkpt lat="41.668330689993425" lon="19.990705141801364"><ele>264.6666666666667</ele><time>2026-04-29T14:22:35Z</time></trkpt><trkpt lat="41.6683882014244" lon="19.990666809697668"><ele>263.5</ele><time>2026-04-29T14:22:36Z</time></trkpt><trkpt lat="41.668452582507655" lon="19.990650315389047"><ele>262.33333333333337</ele><time>2026-04-29T14:22:37Z</time></trkpt><trkpt lat="41.66851897516343" lon="19.990622720608247"><ele>261.1666666666667</ele><time>2026-04-29T14:22:38Z</time></trkpt><trkpt lat="41.668631288258545" lon="19.990626395676735"><ele>260.0</ele><time>2026-04-29T14:22:40Z</time></trkpt><trkpt lat="41.66872490476201" lon="19.990686108334337"><ele>259.83333333333337</ele><time>2026-04-29T14:22:42Z</time></trkpt><trkpt lat="41.668795841918175" lon="19.990744564571465"><ele>259.6666666666667</ele><time>2026-04-29T14:22:43Z</time></trkpt><trkpt lat="41.66886242733024" lon="19.990778204382472"><ele>259.5</ele><time>2026-04-29T14:22:44Z</time></trkpt><trkpt lat="41.66893955722286" lon="19.990854125870875"><ele>259.3333333333333</ele><time>2026-04-29T14:22:46Z</time></trkpt><trkpt lat="41.66899680328816" lon="19.99090173915734"><ele>259.16666666666663</ele><time>2026-04-29T14:22:48Z</time></trkpt><trkpt lat="41.66906738876739" lon="19.99095088866468"><ele>259.0</ele><time>2026-04-29T14:22:50Z</time></trkpt><trkpt lat="41.669142340727326" lon="19.991053380305665"><ele>259.66666666666663</ele><time>2026-04-29T14:22:52Z</time></trkpt><trkpt lat="41.66919737624983" lon="19.991109155430404"><ele>260.3333333333333</ele><time>2026-04-29T14:22:53Z</time></trkpt><trkpt lat="41.66926847547013" lon="19.99108249506698"><ele>261.0</ele><time>2026-04-29T14:22:54Z</time></trkpt><trkpt lat="41.66933709589472" lon="19.99106432668681"><ele>261.6666666666667</ele><time>2026-04-29T14:22:55Z</time></trkpt><trkpt lat="41.669414423214356" lon="19.99102918614197"><ele>262.33333333333337</ele><time>2026-04-29T14:22:56Z</time></trkpt><trkpt lat="41.66948885824396" lon="19.990982844161024"><ele>263.0</ele><time>2026-04-29T14:22:57Z</time></trkpt><trkpt lat="41.669566153317334" lon="19.99096427672359"><ele>261.33333333333337</ele><time>2026-04-29T14:22:58Z</time></trkpt><trkpt lat="41.66964706963415" lon="19.990919150295937"><ele>259.6666666666667</ele><time>2026-04-29T14:22:59Z</time></trkpt><trkpt lat="41.669730870353064" lon="19.990872414900874"><ele>258.0</ele><time>2026-04-29T14:23:00Z</time></trkpt><trkpt lat="41.66981423705493" lon="19.990806711148483"><ele>256.3333333333333</ele><time>2026-04-29T14:23:01Z</time></trkpt><trkpt lat="41.66988458342771" lon="19.99075305821687"><ele>254.66666666666666</ele><time>2026-04-29T14:23:02Z</time></trkpt><trkpt lat="41.669941761917684" lon="19.990695683363594"><ele>253.0</ele><time>2026-04-29T14:23:03Z</time></trkpt><trkpt lat="41.66999672283959" lon="19.990638827129466"><ele>253.00000000000003</ele><time>2026-04-29T14:23:05Z</time></trkpt><trkpt lat="41.67004994819469" lon="19.99058371122255"><ele>253.0</ele><time>2026-04-29T14:23:07Z</time></trkpt><trkpt lat="41.67010019231621" lon="19.99052791937534"><ele>253.00000000000003</ele><time>2026-04-29T14:23:09Z</time></trkpt><trkpt lat="41.67015040514414" lon="19.990470647756066"><ele>253.00000000000003</ele><time>2026-04-29T14:23:11Z</time></trkpt><trkpt lat="41.670233183224916" lon="19.99037623272966"><ele>253.0</ele><time>2026-04-29T14:23:13Z</time></trkpt><trkpt lat="41.67029126911364" lon="19.990310703137432"><ele>253.00000000000003</ele><time>2026-04-29T14:23:14Z</time></trkpt><trkpt lat="41.67034057124211" lon="19.990255232350524"><ele>253.00000000000003</ele><time>2026-04-29T14:23:15Z</time></trkpt><trkpt lat="41.67043852185373" lon="19.990145026520356"><ele>251.66666666666666</ele><time>2026-04-29T14:23:17Z</time></trkpt><trkpt lat="41.67051417494412" lon="19.990073314317005"><ele>250.33333333333331</ele><time>2026-04-29T14:23:19Z</time></trkpt><trkpt lat="41.67055993369836" lon="19.990006111923627"><ele>249.0</ele><time>2026-04-29T14:23:20Z</time></trkpt><trkpt lat="41.67063241538093" lon="19.98994662953723"><ele>247.66666666666669</ele><time>2026-04-29T14:23:21Z</time></trkpt><trkpt lat="41.670696711923284" lon="19.989895356796197"><ele>246.33333333333334</ele><time>2026-04-29T14:23:22Z</time></trkpt><trkpt lat="41.67076127271377" lon="19.989840304602424"><ele>245.0</ele><time>2026-04-29T14:23:23Z</time></trkpt><trkpt lat="41.67082541330965" lon="19.9897979912355"><ele>245.0</ele><time>2026-04-29T14:23:24Z</time></trkpt><trkpt lat="41.67088961890487" lon="19.98977803686546"><ele>245.0</ele><time>2026-04-29T14:23:26Z</time></trkpt><trkpt lat="41.67097386266307" lon="19.989712081077826"><ele>245.0</ele><time>2026-04-29T14:23:29Z</time></trkpt><trkpt lat="41.671067246219636" lon="19.989657340882026"><ele>245.0</ele><time>2026-04-29T14:23:31Z</time></trkpt><trkpt lat="41.67118875957143" lon="19.989570252053618"><ele>245.0</ele><time>2026-04-29T14:23:33Z</time></trkpt><trkpt lat="41.671267027677004" lon="19.989509302745947"><ele>244.00000000000003</ele><time>2026-04-29T14:23:34Z</time></trkpt><trkpt lat="41.67134255636711" lon="19.989447042485782"><ele>243.0</ele><time>2026-04-29T14:23:35Z</time></trkpt><trkpt lat="41.671410231713566" lon="19.989395369695636"><ele>242.0</ele><time>2026-04-29T14:23:36Z</time></trkpt><trkpt lat="41.67146996712624" lon="19.98935180436085"><ele>241.0</ele><time>2026-04-29T14:23:37Z</time></trkpt><trkpt lat="41.67153815914887" lon="19.989309997128213"><ele>240.00000000000003</ele><time>2026-04-29T14:23:38Z</time></trkpt><trkpt lat="41.67160170171224" lon="19.98925841429263"><ele>239.0</ele><time>2026-04-29T14:23:39Z</time></trkpt><trkpt lat="41.67166980885031" lon="19.989220673001288"><ele>239.33333333333334</ele><time>2026-04-29T14:23:40Z</time></trkpt><trkpt lat="41.671737371507085" lon="19.989169139285632"><ele>239.66666666666669</ele><time>2026-04-29T14:23:41Z</time></trkpt><trkpt lat="41.67181147672633" lon="19.989112615213312"><ele>240.0</ele><time>2026-04-29T14:23:42Z</time></trkpt><trkpt lat="41.671866457191925" lon="19.989070679438417"><ele>240.33333333333331</ele><time>2026-04-29T14:23:43Z</time></trkpt><trkpt lat="41.67195529117733" lon="19.989081939644297"><ele>240.66666666666666</ele><time>2026-04-29T14:23:45Z</time></trkpt><trkpt lat="41.672021145274485" lon="19.989227983153388"><ele>241.0</ele><time>2026-04-29T14:23:47Z</time></trkpt><trkpt lat="41.67208245104988" lon="19.989307156296448"><ele>240.33333333333331</ele><time>2026-04-29T14:23:48Z</time></trkpt><trkpt lat="41.67215182997675" lon="19.989377690634676"><ele>239.66666666666666</ele><time>2026-04-29T14:23:49Z</time></trkpt><trkpt lat="41.6721972578214" lon="19.9894445038667"><ele>239.0</ele><time>2026-04-29T14:23:50Z</time></trkpt><trkpt lat="41.67227892117574" lon="19.989434349455035"><ele>238.33333333333331</ele><time>2026-04-29T14:23:51Z</time></trkpt><trkpt lat="41.67234975887872" lon="19.989427322146238"><ele>237.66666666666666</ele><time>2026-04-29T14:23:52Z</time></trkpt><trkpt lat="41.672426579221394" lon="19.98939845100864"><ele>237.0</ele><time>2026-04-29T14:23:53Z</time></trkpt><trkpt lat="41.67250738871617" lon="19.98935390052243"><ele>237.0</ele><time>2026-04-29T14:23:54Z</time></trkpt><trkpt lat="41.672579189637865" lon="19.989299147977825"><ele>237.0</ele><time>2026-04-29T14:23:55Z</time></trkpt><trkpt lat="41.67263462352458" lon="19.98923294147096"><ele>237.0</ele><time>2026-04-29T14:23:56Z</time></trkpt><trkpt lat="41.67268322240649" lon="19.98914509564763"><ele>237.0</ele><time>2026-04-29T14:23:57Z</time></trkpt><trkpt lat="41.67275196600965" lon="19.98905895219789"><ele>237.0</ele><time>2026-04-29T14:23:58Z</time></trkpt><trkpt lat="41.672802934317794" lon="19.98898282562887"><ele>237.0</ele><time>2026-04-29T14:23:59Z</time></trkpt><trkpt lat="41.67287572022381" lon="19.988902012035457"><ele>234.8</ele><time>2026-04-29T14:24:00Z</time></trkpt><trkpt lat="41.672951193134914" lon="19.988813235646564"><ele>232.6</ele><time>2026-04-29T14:24:01Z</time></trkpt><trkpt lat="41.67302336891344" lon="19.988733358562545"><ele>230.40000000000003</ele><time>2026-04-29T14:24:02Z</time></trkpt><trkpt lat="41.67309981973408" lon="19.988657507696026"><ele>228.20000000000002</ele><time>2026-04-29T14:24:03Z</time></trkpt><trkpt lat="41.673164712092" lon="19.988593124570425"><ele>226.0</ele><time>2026-04-29T14:24:04Z</time></trkpt><trkpt lat="41.67324324888149" lon="19.988515206478542"><ele>225.99999999999997</ele><time>2026-04-29T14:24:05Z</time></trkpt><trkpt lat="41.673292964647615" lon="19.988387946929507"><ele>226.0</ele><time>2026-04-29T14:24:06Z</time></trkpt><trkpt lat="41.673332657633466" lon="19.988264156580154"><ele>226.0</ele><time>2026-04-29T14:24:07Z</time></trkpt><trkpt lat="41.67336306041866" lon="19.98814443153018"><ele>226.0</ele><time>2026-04-29T14:24:08Z</time></trkpt><trkpt lat="41.673379123054936" lon="19.9880516104023"><ele>225.99999999999997</ele><time>2026-04-29T14:24:09Z</time></trkpt><trkpt lat="41.67341074121648" lon="19.98797576380871"><ele>226.0</ele><time>2026-04-29T14:24:10Z</time></trkpt><trkpt lat="41.6734811074814" lon="19.988034120962705"><ele>225.99999999999997</ele><time>2026-04-29T14:24:10.999Z</time></trkpt><trkpt lat="41.673477742853336" lon="19.988133007401803"><ele>226.0</ele><time>2026-04-29T14:24:15Z</time></trkpt><trkpt lat="41.67347221454389" lon="19.988234668647834"><ele>226.0</ele><time>2026-04-29T14:24:16Z</time></trkpt><trkpt lat="41.67344056210388" lon="19.98837110639552"><ele>226.0</ele><time>2026-04-29T14:24:17Z</time></trkpt><trkpt lat="41.67339525374891" lon="19.988471751690223"><ele>225.99999999999997</ele><time>2026-04-29T14:24:18Z</time></trkpt><trkpt lat="41.67335698938664" lon="19.98855914757958"><ele>226.0</ele><time>2026-04-29T14:24:19Z</time></trkpt><trkpt lat="41.67332119118827" lon="19.988649802499026"><ele>226.0</ele><time>2026-04-29T14:24:20Z</time></trkpt><trkpt lat="41.6732774476487" lon="19.98873866970703"><ele>226.0</ele><time>2026-04-29T14:24:21Z</time></trkpt><trkpt lat="41.67323625408436" lon="19.988824193452118"><ele>226.0</ele><time>2026-04-29T14:24:22Z</time></trkpt><trkpt lat="41.673199212715005" lon="19.988900898085102"><ele>226.0</ele><time>2026-04-29T14:24:23Z</time></trkpt><trkpt lat="41.67315896241791" lon="19.988983937502034"><ele>226.0</ele><time>2026-04-29T14:24:24Z</time></trkpt><trkpt lat="41.67312316278771" lon="19.989057793770435"><ele>226.0</ele><time>2026-04-29T14:24:25Z</time></trkpt><trkpt lat="41.67311567101402" lon="19.98915990268512"><ele>226.0</ele><time>2026-04-29T14:24:26Z</time></trkpt><trkpt lat="41.673100218767594" lon="19.98925524239937"><ele>224.4</ele><time>2026-04-29T14:24:27Z</time></trkpt><trkpt lat="41.67312295111199" lon="19.989372225047724"><ele>222.8</ele><time>2026-04-29T14:24:28Z</time></trkpt><trkpt lat="41.67313430288611" lon="19.989481170915084"><ele>221.20000000000002</ele><time>2026-04-29T14:24:29Z</time></trkpt><trkpt lat="41.673126478392305" lon="19.989601588697358"><ele>219.60000000000002</ele><time>2026-04-29T14:24:30Z</time></trkpt><trkpt lat="41.673139634785976" lon="19.989732753832083"><ele>218.0</ele><time>2026-04-29T14:24:31Z</time></trkpt><trkpt lat="41.67312028337125" lon="19.989871391376294"><ele>218.00000000000003</ele><time>2026-04-29T14:24:32Z</time></trkpt><trkpt lat="41.67311772300557" lon="19.989992291858705"><ele>218.0</ele><time>2026-04-29T14:24:33Z</time></trkpt><trkpt lat="41.673115199511415" lon="19.990111450572215"><ele>218.0</ele><time>2026-04-29T14:24:34Z</time></trkpt><trkpt lat="41.67309845202374" lon="19.990211265699436"><ele>218.0</ele><time>2026-04-29T14:24:35Z</time></trkpt><trkpt lat="41.67309243868206" lon="19.990339629557813"><ele>218.00000000000003</ele><time>2026-04-29T14:24:36Z</time></trkpt><trkpt lat="41.67306044937878" lon="19.990427860458553"><ele>218.0</ele><time>2026-04-29T14:24:37Z</time></trkpt><trkpt lat="41.672990615889454" lon="19.990483452748084"><ele>218.00000000000003</ele><time>2026-04-29T14:24:38Z</time></trkpt><trkpt lat="41.672921537802836" lon="19.990579981045617"><ele>218.0</ele><time>2026-04-29T14:24:39Z</time></trkpt><trkpt lat="41.67285270586451" lon="19.99064840584441"><ele>218.0</ele><time>2026-04-29T14:24:40Z</time></trkpt><trkpt lat="41.67278453713565" lon="19.990725668400827"><ele>218.0</ele><time>2026-04-29T14:24:41Z</time></trkpt><trkpt lat="41.67272513549975" lon="19.99080455287409"><ele>218.00000000000003</ele><time>2026-04-29T14:24:42Z</time></trkpt><trkpt lat="41.672667785026846" lon="19.99084283981291"><ele>218.0</ele><time>2026-04-29T14:24:43Z</time></trkpt><trkpt lat="41.67260169316225" lon="19.99086987516292"><ele>214.50000000000003</ele><time>2026-04-29T14:24:44Z</time></trkpt><trkpt lat="41.672514723904584" lon="19.990921778581903"><ele>211.0</ele><time>2026-04-29T14:24:45Z</time></trkpt><trkpt lat="41.67244092118244" lon="19.99099157281764"><ele>207.5</ele><time>2026-04-29T14:24:46Z</time></trkpt><trkpt lat="41.67234713746779" lon="19.991005718151342"><ele>204.0</ele><time>2026-04-29T14:24:47Z</time></trkpt><trkpt lat="41.672273481921735" lon="19.991039537708428"><ele>200.50000000000003</ele><time>2026-04-29T14:24:48Z</time></trkpt><trkpt lat="41.67220606547843" lon="19.99098378989577"><ele>197.0</ele><time>2026-04-29T14:24:49Z</time></trkpt><trkpt lat="41.67213988692145" lon="19.9909632821409"><ele>197.00000000000003</ele><time>2026-04-29T14:24:50Z</time></trkpt><trkpt lat="41.67207810214484" lon="19.991019681362424"><ele>197.0</ele><time>2026-04-29T14:24:51Z</time></trkpt><trkpt lat="41.67201677106762" lon="19.991082997753786"><ele>197.0</ele><time>2026-04-29T14:24:52Z</time></trkpt><trkpt lat="41.67196227613289" lon="19.991160143580483"><ele>197.0</ele><time>2026-04-29T14:24:53Z</time></trkpt><trkpt lat="41.671893899297004" lon="19.991142772601105"><ele>197.00000000000003</ele><time>2026-04-29T14:24:54Z</time></trkpt><trkpt lat="41.67183098324925" lon="19.991135275528233"><ele>197.0</ele><time>2026-04-29T14:24:55Z</time></trkpt><trkpt lat="41.671739143209514" lon="19.991260779734873"><ele>196.39999999999998</ele><time>2026-04-29T14:24:57Z</time></trkpt><trkpt lat="41.67177146965786" lon="19.991378073366736"><ele>195.79999999999998</ele><time>2026-04-29T14:24:58Z</time></trkpt><trkpt lat="41.67179216673417" lon="19.991502421557175"><ele>195.2</ele><time>2026-04-29T14:24:59Z</time></trkpt><trkpt lat="41.671817749737066" lon="19.9916307265008"><ele>194.6</ele><time>2026-04-29T14:25:00Z</time></trkpt><trkpt lat="41.67178943249915" lon="19.991732501383915"><ele>194.0</ele><time>2026-04-29T14:25:01Z</time></trkpt><trkpt lat="41.67178462775666" lon="19.99184269894526"><ele>194.0</ele><time>2026-04-29T14:25:02Z</time></trkpt><trkpt lat="41.671747895574924" lon="19.991922961048388"><ele>194.0</ele><time>2026-04-29T14:25:03Z</time></trkpt><trkpt lat="41.67169517138205" lon="19.99199657878636"><ele>194.0</ele><time>2026-04-29T14:25:04Z</time></trkpt><trkpt lat="41.671580128512645" lon="19.992010647147904"><ele>194.0</ele><time>2026-04-29T14:25:05Z</time></trkpt><trkpt lat="41.67145367725525" lon="19.992022963309626"><ele>194.0</ele><time>2026-04-29T14:25:06Z</time></trkpt><trkpt lat="41.67134439150289" lon="19.992057869422055"><ele>194.0</ele><time>2026-04-29T14:25:07Z</time></trkpt><trkpt lat="41.67126160586786" lon="19.99208553341059"><ele>194.0</ele><time>2026-04-29T14:25:08Z</time></trkpt><trkpt lat="41.671176285207196" lon="19.992180034701448"><ele>194.0</ele><time>2026-04-29T14:25:09Z</time></trkpt><trkpt lat="41.67111486048405" lon="19.992249572804504"><ele>194.0</ele><time>2026-04-29T14:25:10Z</time></trkpt><trkpt lat="41.671081600766456" lon="19.992388552785627"><ele>194.0</ele><time>2026-04-29T14:25:11Z</time></trkpt><trkpt lat="41.671111640716994" lon="19.99257309617666"><ele>193.50000000000003</ele><time>2026-04-29T14:25:13Z</time></trkpt><trkpt lat="41.67115975222588" lon="19.992647103025504"><ele>193.0</ele><time>2026-04-29T14:25:14Z</time></trkpt><trkpt lat="41.67124396633855" lon="19.9927220304839"><ele>192.5</ele><time>2026-04-29T14:25:15Z</time></trkpt><trkpt lat="41.67132607638655" lon="19.99280843391955"><ele>192.0</ele><time>2026-04-29T14:25:16Z</time></trkpt><trkpt lat="41.67138762142987" lon="19.992890114192804"><ele>191.5</ele><time>2026-04-29T14:25:17Z</time></trkpt><trkpt lat="41.671429241745024" lon="19.992974253349242"><ele>191.0</ele><time>2026-04-29T14:25:18Z</time></trkpt><trkpt lat="41.671506300054865" lon="19.993053198377424"><ele>191.0</ele><time>2026-04-29T14:25:20Z</time></trkpt><trkpt lat="41.671586711525734" lon="19.992958258848592"><ele>191.0</ele><time>2026-04-29T14:25:22.001Z</time></trkpt><trkpt lat="41.67155463831273" lon="19.992805244413816"><ele>191.0</ele><time>2026-04-29T14:25:24.001Z</time></trkpt><trkpt lat="41.67150715826995" lon="19.992695074483777"><ele>191.0</ele><time>2026-04-29T14:25:25.001Z</time></trkpt><trkpt lat="41.67153478415426" lon="19.99258367828662"><ele>191.0</ele><time>2026-04-29T14:25:26.001Z</time></trkpt><trkpt lat="41.671549033531115" lon="19.992495931238693"><ele>191.60000000000002</ele><time>2026-04-29T14:25:27.001Z</time></trkpt><trkpt lat="41.67161720641847" lon="19.992438854707107"><ele>192.2</ele><time>2026-04-29T14:25:28.001Z</time></trkpt><trkpt lat="41.67176859471755" lon="19.99239145408197"><ele>192.8</ele><time>2026-04-29T14:25:30.001Z</time></trkpt><trkpt lat="41.671868212378826" lon="19.99243909231144"><ele>193.39999999999998</ele><time>2026-04-29T14:25:31.001Z</time></trkpt><trkpt lat="41.67196777814493" lon="19.99243628885338"><ele>194.0</ele><time>2026-04-29T14:25:32.001Z</time></trkpt><trkpt lat="41.67204686478192" lon="19.992456952315592"><ele>191.50000000000003</ele><time>2026-04-29T14:25:33.001Z</time></trkpt><trkpt lat="41.672121000170144" lon="19.992485574260126"><ele>189.0</ele><time>2026-04-29T14:25:34.001Z</time></trkpt><trkpt lat="41.67219071711166" lon="19.992382587587077"><ele>186.5</ele><time>2026-04-29T14:25:35.001Z</time></trkpt><trkpt lat="41.67222766857292" lon="19.99229609237623"><ele>184.0</ele><time>2026-04-29T14:25:36.001Z</time></trkpt><trkpt lat="41.672240023638096" lon="19.992192381751423"><ele>181.5</ele><time>2026-04-29T14:25:37.001Z</time></trkpt><trkpt lat="41.67223713030856" lon="19.992091801356658"><ele>179.0</ele><time>2026-04-29T14:25:38.001Z</time></trkpt><trkpt lat="41.67225493523458" lon="19.99200441124113"><ele>179.0</ele><time>2026-04-29T14:25:39.001Z</time></trkpt><trkpt lat="41.67234242844515" lon="19.991973456706837"><ele>179.0</ele><time>2026-04-29T14:25:41.001Z</time></trkpt><trkpt lat="41.67242317077333" lon="19.9920332341149"><ele>179.0</ele><time>2026-04-29T14:25:43.001Z</time></trkpt><trkpt lat="41.67244395589873" lon="19.992121050656447"><ele>179.0</ele><time>2026-04-29T14:25:44.001Z</time></trkpt><trkpt lat="41.67249563277851" lon="19.99220317548129"><ele>179.0</ele><time>2026-04-29T14:25:45.001Z</time></trkpt><trkpt lat="41.6725728662659" lon="19.992255023919153"><ele>179.0</ele><time>2026-04-29T14:25:46.001Z</time></trkpt><trkpt lat="41.6726593231057" lon="19.99231335325683"><ele>179.0</ele><time>2026-04-29T14:25:47.001Z</time></trkpt><trkpt lat="41.67275128895015" lon="19.992397160626965"><ele>179.0</ele><time>2026-04-29T14:25:48.001Z</time></trkpt><trkpt lat="41.67283602060548" lon="19.992446832814547"><ele>179.0</ele><time>2026-04-29T14:25:49.001Z</time></trkpt><trkpt lat="41.67291117931962" lon="19.992473390303342"><ele>179.0</ele><time>2026-04-29T14:25:50.001Z</time></trkpt><trkpt lat="41.67297943252149" lon="19.992496140646736"><ele>179.0</ele><time>2026-04-29T14:25:51.001Z</time></trkpt><trkpt lat="41.673095184719095" lon="19.992406670438296"><ele>177.0</ele><time>2026-04-29T14:25:52.001Z</time></trkpt><trkpt lat="41.67318134401248" lon="19.992381453240867"><ele>175.0</ele><time>2026-04-29T14:25:53.001Z</time></trkpt><trkpt lat="41.67325187254733" lon="19.992324730687855"><ele>173.0</ele><time>2026-04-29T14:25:54.001Z</time></trkpt><trkpt lat="41.67329202324108" lon="19.992232338803625"><ele>171.0</ele><time>2026-04-29T14:25:55.001Z</time></trkpt><trkpt lat="41.67341057402825" lon="19.992150324520196"><ele>169.0</ele><time>2026-04-29T14:25:57.001Z</time></trkpt><trkpt lat="41.673486927663745" lon="19.992160015476358"><ele>169.0</ele><time>2026-04-29T14:25:58.001Z</time></trkpt><trkpt lat="41.67355077214269" lon="19.99211839677411"><ele>169.0</ele><time>2026-04-29T14:25:59.001Z</time></trkpt><trkpt lat="41.67361822080186" lon="19.992046357921875"><ele>169.0</ele><time>2026-04-29T14:26:00.001Z</time></trkpt><trkpt lat="41.673667615993736" lon="19.991960503918385"><ele>169.0</ele><time>2026-04-29T14:26:01.001Z</time></trkpt><trkpt lat="41.67371602938935" lon="19.99189806842768"><ele>169.0</ele><time>2026-04-29T14:26:02.001Z</time></trkpt><trkpt lat="41.67379846107202" lon="19.991904791372544"><ele>169.0</ele><time>2026-04-29T14:26:03.001Z</time></trkpt><trkpt lat="41.67388722029401" lon="19.991895244865578"><ele>166.5</ele><time>2026-04-29T14:26:04.001Z</time></trkpt><trkpt lat="41.6739898543528" lon="19.99190421563315"><ele>164.0</ele><time>2026-04-29T14:26:06.001Z</time></trkpt><trkpt lat="41.67403502430646" lon="19.991810568183237"><ele>161.5</ele><time>2026-04-29T14:26:07.001Z</time></trkpt><trkpt lat="41.67411507778449" lon="19.991823815639375"><ele>159.0</ele><time>2026-04-29T14:26:09.001Z</time></trkpt><trkpt lat="41.67415601328583" lon="19.99190464626055"><ele>156.5</ele><time>2026-04-29T14:26:12.001Z</time></trkpt><trkpt lat="41.67408205416089" lon="19.991989914543073"><ele>154.0</ele><time>2026-04-29T14:26:16.001Z</time></trkpt><trkpt lat="41.67400476982255" lon="19.99205162947709"><ele>154.0</ele><time>2026-04-29T14:26:18.001Z</time></trkpt><trkpt lat="41.67391536064053" lon="19.992155879974625"><ele>154.0</ele><time>2026-04-29T14:26:20.001Z</time></trkpt><trkpt lat="41.67387660490992" lon="19.992224884626214"><ele>154.0</ele><time>2026-04-29T14:26:21.001Z</time></trkpt><trkpt lat="41.673784651285125" lon="19.99233698148469"><ele>154.0</ele><time>2026-04-29T14:26:23.001Z</time></trkpt><trkpt lat="41.67368423237643" lon="19.992430299641843"><ele>154.0</ele><time>2026-04-29T14:26:25.001Z</time></trkpt><trkpt lat="41.67360930022638" lon="19.992427399691895"><ele>155.0</ele><time>2026-04-29T14:26:26.001Z</time></trkpt><trkpt lat="41.67354636972891" lon="19.99245811167694"><ele>156.0</ele><time>2026-04-29T14:26:27.001Z</time></trkpt><trkpt lat="41.67349031697749" lon="19.992516696967158"><ele>157.0</ele><time>2026-04-29T14:26:28.001Z</time></trkpt><trkpt lat="41.67343558470779" lon="19.992614353244058"><ele>158.0</ele><time>2026-04-29T14:26:29.001Z</time></trkpt><trkpt lat="41.67338881514791" lon="19.992708437373576"><ele>159.0</ele><time>2026-04-29T14:26:30.001Z</time></trkpt><trkpt lat="41.67332957074287" lon="19.992775310224904"><ele>160.0</ele><time>2026-04-29T14:26:31.001Z</time></trkpt><trkpt lat="41.67324884426911" lon="19.992804281361806"><ele>160.0</ele><time>2026-04-29T14:26:32.001Z</time></trkpt><trkpt lat="41.673190980533974" lon="19.992837913816516"><ele>160.0</ele><time>2026-04-29T14:26:33.001Z</time></trkpt><trkpt lat="41.67313023464552" lon="19.99286366005976"><ele>160.0</ele><time>2026-04-29T14:26:53.001Z</time></trkpt><trkpt lat="41.673051350113845" lon="19.992875271277804"><ele>160.0</ele><time>2026-04-29T14:26:55.001Z</time></trkpt><trkpt lat="41.67298797279666" lon="19.99288165265365"><ele>160.0</ele><time>2026-04-29T14:26:56.001Z</time></trkpt><trkpt lat="41.6728798785281" lon="19.992915035976555"><ele>160.0</ele><time>2026-04-29T14:26:58.001Z</time></trkpt><trkpt lat="41.67281147241469" lon="19.992978196019166"><ele>160.0</ele><time>2026-04-29T14:27:00.001Z</time></trkpt><trkpt lat="41.67282315046185" lon="19.993061101355707"><ele>160.0</ele><time>2026-04-29T14:27:04.001Z</time></trkpt><trkpt lat="41.67283519252309" lon="19.99315891821939"><ele>160.0</ele><time>2026-04-29T14:27:07.001Z</time></trkpt><trkpt lat="41.67288419625069" lon="19.993220178212727"><ele>160.0</ele><time>2026-04-29T14:27:09.001Z</time></trkpt><trkpt lat="41.672960723981156" lon="19.993272025340488"><ele>160.0</ele><time>2026-04-29T14:27:11.001Z</time></trkpt><trkpt lat="41.67306898277536" lon="19.99332393740179"><ele>160.0</ele><time>2026-04-29T14:27:13.001Z</time></trkpt><trkpt lat="41.67313815764006" lon="19.993345286428422"><ele>159.66666666666669</ele><time>2026-04-29T14:27:14.001Z</time></trkpt><trkpt lat="41.67320915541575" lon="19.993362170178308"><ele>159.33333333333334</ele><time>2026-04-29T14:27:15.001Z</time></trkpt><trkpt lat="41.67328633420943" lon="19.99338118583674"><ele>159.0</ele><time>2026-04-29T14:27:16.001Z</time></trkpt><trkpt lat="41.67336172512814" lon="19.993420794417446"><ele>158.66666666666666</ele><time>2026-04-29T14:27:17.001Z</time></trkpt><trkpt lat="41.673432342519604" lon="19.993444227757404"><ele>158.33333333333331</ele><time>2026-04-29T14:27:18.001Z</time></trkpt><trkpt lat="41.67353282232837" lon="19.993501930080942"><ele>158.0</ele><time>2026-04-29T14:27:20.001Z</time></trkpt><trkpt lat="41.67362131270075" lon="19.993515115691817"><ele>156.57142857142858</ele><time>2026-04-29T14:27:22.001Z</time></trkpt><trkpt lat="41.67368260684828" lon="19.993487262217204"><ele>155.14285714285714</ele><time>2026-04-29T14:27:23.001Z</time></trkpt><trkpt lat="41.67374808544557" lon="19.993446453315805"><ele>153.71428571428572</ele><time>2026-04-29T14:27:24.001Z</time></trkpt><trkpt lat="41.67380581417867" lon="19.9933918772771"><ele>152.28571428571428</ele><time>2026-04-29T14:27:25.001Z</time></trkpt><trkpt lat="41.67386499617575" lon="19.993357471726515"><ele>150.85714285714286</ele><time>2026-04-29T14:27:26.001Z</time></trkpt><trkpt lat="41.673969542176216" lon="19.993326088587445"><ele>149.42857142857144</ele><time>2026-04-29T14:27:28.001Z</time></trkpt><trkpt lat="41.67403861343833" lon="19.993340020994403"><ele>148.0</ele><time>2026-04-29T14:27:29.001Z</time></trkpt><trkpt lat="41.67415771810325" lon="19.993360369921795"><ele>147.20000000000002</ele><time>2026-04-29T14:27:31.001Z</time></trkpt><trkpt lat="41.674263259262375" lon="19.993391627112214"><ele>146.4</ele><time>2026-04-29T14:27:33.001Z</time></trkpt><trkpt lat="41.674359015115584" lon="19.99347936833013"><ele>145.60000000000002</ele><time>2026-04-29T14:27:35.001Z</time></trkpt><trkpt lat="41.6744121809507" lon="19.993525178307163"><ele>144.8</ele><time>2026-04-29T14:27:36.001Z</time></trkpt><trkpt lat="41.67452637927315" lon="19.99358511568908"><ele>144.0</ele><time>2026-04-29T14:27:38.001Z</time></trkpt><trkpt lat="41.67459469513865" lon="19.993597527058355"><ele>142.33333333333334</ele><time>2026-04-29T14:27:39.001Z</time></trkpt><trkpt lat="41.6746651930156" lon="19.993609827523525"><ele>140.66666666666666</ele><time>2026-04-29T14:27:40.001Z</time></trkpt><trkpt lat="41.67473784568695" lon="19.993622394647975"><ele>139.0</ele><time>2026-04-29T14:27:41.001Z</time></trkpt><trkpt lat="41.67480509535757" lon="19.99363401154564"><ele>137.33333333333331</ele><time>2026-04-29T14:27:42.001Z</time></trkpt><trkpt lat="41.67487096516279" lon="19.99364451670058"><ele>135.66666666666666</ele><time>2026-04-29T14:27:43.001Z</time></trkpt><trkpt lat="41.67499100972846" lon="19.993632280552582"><ele>134.0</ele><time>2026-04-29T14:27:45.001Z</time></trkpt><trkpt lat="41.67509885176799" lon="19.99364205585119"><ele>134.0</ele><time>2026-04-29T14:27:47.001Z</time></trkpt><trkpt lat="41.675188866979354" lon="19.993701416671332"><ele>134.0</ele><time>2026-04-29T14:27:49.001Z</time></trkpt><trkpt lat="41.67524409804467" lon="19.993782625027805"><ele>134.0</ele><time>2026-04-29T14:27:50.001Z</time></trkpt><trkpt lat="41.67529809331984" lon="19.99387621688838"><ele>134.0</ele><time>2026-04-29T14:27:51.001Z</time></trkpt><trkpt lat="41.67534205487733" lon="19.993965576248144"><ele>134.0</ele><time>2026-04-29T14:27:52.001Z</time></trkpt><trkpt lat="41.675397421408064" lon="19.99405504161992"><ele>134.0</ele><time>2026-04-29T14:27:53.001Z</time></trkpt><trkpt lat="41.675460549168754" lon="19.99414183848194"><ele>135.6</ele><time>2026-04-29T14:27:54.001Z</time></trkpt><trkpt lat="41.67550460459548" lon="19.994210946989536"><ele>137.2</ele><time>2026-04-29T14:27:55.001Z</time></trkpt><trkpt lat="41.675595803421785" lon="19.994346325162834"><ele>138.79999999999998</ele><time>2026-04-29T14:27:57.001Z</time></trkpt><trkpt lat="41.67566200063935" lon="19.994453597692125"><ele>140.4</ele><time>2026-04-29T14:27:59.001Z</time></trkpt><trkpt lat="41.67572874000924" lon="19.994551685307105"><ele>142.0</ele><time>2026-04-29T14:28:01.001Z</time></trkpt><trkpt lat="41.67578288481572" lon="19.994645780070048"><ele>142.0</ele><time>2026-04-29T14:28:04.001Z</time></trkpt><trkpt lat="41.675909305505044" lon="19.994526390208947"><ele>142.0</ele><time>2026-04-29T14:28:07.001Z</time></trkpt><trkpt lat="41.67595641731916" lon="19.994362789682214"><ele>142.0</ele><time>2026-04-29T14:28:09.001Z</time></trkpt><trkpt lat="41.67598378619943" lon="19.99426418324555"><ele>142.0</ele><time>2026-04-29T14:28:10.001Z</time></trkpt><trkpt lat="41.6760192969388" lon="19.994138366938813"><ele>142.0</ele><time>2026-04-29T14:28:11.001Z</time></trkpt><trkpt lat="41.67605906818217" lon="19.993997455276865"><ele>142.0</ele><time>2026-04-29T14:28:12.001Z</time></trkpt><trkpt lat="41.67609532798698" lon="19.993870250059018"><ele>142.0</ele><time>2026-04-29T14:28:13.001Z</time></trkpt><trkpt lat="41.67612238399154" lon="19.993774125917504"><ele>142.0</ele><time>2026-04-29T14:28:14.001Z</time></trkpt><trkpt lat="41.676154810518454" lon="19.993652908396626"><ele>142.0</ele><time>2026-04-29T14:28:15.001Z</time></trkpt><trkpt lat="41.67618277992614" lon="19.993532017621003"><ele>142.0</ele><time>2026-04-29T14:28:16.001Z</time></trkpt><trkpt lat="41.676204739889336" lon="19.993421496627914"><ele>142.0</ele><time>2026-04-29T14:28:17.001Z</time></trkpt><trkpt lat="41.67622839810662" lon="19.993284207152577"><ele>142.0</ele><time>2026-04-29T14:28:18.001Z</time></trkpt><trkpt lat="41.67625721054373" lon="19.993106012547415"><ele>142.0</ele><time>2026-04-29T14:28:19.001Z</time></trkpt><trkpt lat="41.67628914366055" lon="19.992870289354133"><ele>140.0</ele><time>2026-04-29T14:28:20.001Z</time></trkpt><trkpt lat="41.67631873422985" lon="19.99259598345231"><ele>138.0</ele><time>2026-04-29T14:28:21.001Z</time></trkpt><trkpt lat="41.676352332968314" lon="19.99227724327997"><ele>136.0</ele><time>2026-04-29T14:28:22.001Z</time></trkpt><trkpt lat="41.67638290092534" lon="19.991986709018253"><ele>134.0</ele><time>2026-04-29T14:28:23.001Z</time></trkpt><trkpt lat="41.676407919253926" lon="19.99173524603219"><ele>132.0</ele><time>2026-04-29T14:28:24.001Z</time></trkpt><trkpt lat="41.67643036382513" lon="19.991508504430065"><ele>130.0</ele><time>2026-04-29T14:28:25.001Z</time></trkpt><trkpt lat="41.67645119279345" lon="19.991297259042778"><ele>129.66666666666669</ele><time>2026-04-29T14:28:26.001Z</time></trkpt><trkpt lat="41.676472187995465" lon="19.991083311075176"><ele>129.33333333333334</ele><time>2026-04-29T14:28:27.001Z</time></trkpt><trkpt lat="41.676494252904405" lon="19.990857138413606"><ele>129.0</ele><time>2026-04-29T14:28:28.001Z</time></trkpt><trkpt lat="41.67651474088405" lon="19.9906471297692"><ele>128.75</ele><time>2026-04-29T14:28:29.001Z</time></trkpt><trkpt lat="41.67653330369168" lon="19.990456854745066"><ele>128.5</ele><time>2026-04-29T14:28:30.001Z</time></trkpt><trkpt lat="41.67654301319937" lon="19.990278426949498"><ele>128.25</ele><time>2026-04-29T14:28:31.001Z</time></trkpt><trkpt lat="41.67657840386639" lon="19.990121741553196"><ele>128.0</ele><time>2026-04-29T14:28:32.001Z</time></trkpt><trkpt lat="41.67663032180615" lon="19.989965900678925"><ele>127.5</ele><time>2026-04-29T14:28:33.001Z</time></trkpt><trkpt lat="41.676694553608314" lon="19.989807324616983"><ele>127.0</ele><time>2026-04-29T14:28:34.001Z</time></trkpt><trkpt lat="41.67677810120815" lon="19.989663735757436"><ele>126.5</ele><time>2026-04-29T14:28:35.001Z</time></trkpt><trkpt lat="41.67683660535075" lon="19.989533138722415"><ele>126.0</ele><time>2026-04-29T14:28:36.001Z</time></trkpt><trkpt lat="41.67690825608165" lon="19.989413686058036"><ele>126.0</ele><time>2026-04-29T14:28:37.001Z</time></trkpt><trkpt lat="41.67700104610493" lon="19.98929738546249"><ele>126.0</ele><time>2026-04-29T14:28:38.001Z</time></trkpt><trkpt lat="41.677088842939206" lon="19.98916069684515"><ele>126.0</ele><time>2026-04-29T14:28:39.001Z</time></trkpt><trkpt lat="41.67717187927306" lon="19.989010604495455"><ele>126.0</ele><time>2026-04-29T14:28:40.001Z</time></trkpt><trkpt lat="41.6772644784381" lon="19.988893553619704"><ele>126.0</ele><time>2026-04-29T14:28:41.001Z</time></trkpt><trkpt lat="41.67735401671448" lon="19.98879704418881"><ele>126.0</ele><time>2026-04-29T14:28:42.001Z</time></trkpt><trkpt lat="41.67743754069689" lon="19.988706927447797"><ele>126.0</ele><time>2026-04-29T14:28:43.001Z</time></trkpt><trkpt lat="41.67752340372013" lon="19.988652296555436"><ele>126.0</ele><time>2026-04-29T14:28:44.001Z</time></trkpt><trkpt lat="41.677600857164784" lon="19.98858987038362"><ele>126.0</ele><time>2026-04-29T14:28:45.001Z</time></trkpt><trkpt lat="41.67769047243756" lon="19.988537887011788"><ele>126.4</ele><time>2026-04-29T14:28:46.001Z</time></trkpt><trkpt lat="41.67779264450424" lon="19.988517199936652"><ele>126.8</ele><time>2026-04-29T14:28:47.001Z</time></trkpt><trkpt lat="41.6779012003839" lon="19.988491796594694"><ele>127.20000000000002</ele><time>2026-04-29T14:28:48.001Z</time></trkpt><trkpt lat="41.67799868158946" lon="19.988469179473753"><ele>127.60000000000001</ele><time>2026-04-29T14:28:49.001Z</time></trkpt><trkpt lat="41.678092199925295" lon="19.988447266122957"><ele>128.0</ele><time>2026-04-29T14:28:50.001Z</time></trkpt><trkpt lat="41.678198543433595" lon="19.988422347580396"><ele>127.99999999999999</ele><time>2026-04-29T14:28:51.001Z</time></trkpt><trkpt lat="41.678298947349504" lon="19.988398820802445"><ele>128.0</ele><time>2026-04-29T14:28:52.001Z</time></trkpt><trkpt lat="41.67838726648105" lon="19.988376741830493"><ele>128.0</ele><time>2026-04-29T14:28:53.001Z</time></trkpt><trkpt lat="41.67846538535499" lon="19.98833181821427"><ele>128.0</ele><time>2026-04-29T14:28:54.001Z</time></trkpt><trkpt lat="41.67852351161672" lon="19.988238303782698"><ele>127.99999999999999</ele><time>2026-04-29T14:28:55.001Z</time></trkpt><trkpt lat="41.678577527983485" lon="19.988157709009776"><ele>128.0</ele><time>2026-04-29T14:28:56.001Z</time></trkpt><trkpt lat="41.678619424733725" lon="19.988056116123317"><ele>127.49999999999999</ele><time>2026-04-29T14:28:57.001Z</time></trkpt><trkpt lat="41.6786454210141" lon="19.987944256187284"><ele>127.0</ele><time>2026-04-29T14:28:58.001Z</time></trkpt><trkpt lat="41.678663230941645" lon="19.987831927046862"><ele>126.5</ele><time>2026-04-29T14:28:59.001Z</time></trkpt><trkpt lat="41.67866639948313" lon="19.98771499355139"><ele>126.0</ele><time>2026-04-29T14:29:00.001Z</time></trkpt><trkpt lat="41.67866904554917" lon="19.987598287150913"><ele>125.49999999999999</ele><time>2026-04-29T14:29:01.001Z</time></trkpt><trkpt lat="41.67866847462253" lon="19.987473414246786"><ele>125.0</ele><time>2026-04-29T14:29:02.001Z</time></trkpt><trkpt lat="41.67866577053323" lon="19.987349459603397"><ele>124.99999999999999</ele><time>2026-04-29T14:29:03.001Z</time></trkpt><trkpt lat="41.67866351702572" lon="19.987239953492395"><ele>125.0</ele><time>2026-04-29T14:29:04.001Z</time></trkpt><trkpt lat="41.678663267490755" lon="19.987139999979632"><ele>125.0</ele><time>2026-04-29T14:29:05.001Z</time></trkpt><trkpt lat="41.678663257702986" lon="19.98705384232878"><ele>125.0</ele><time>2026-04-29T14:29:06.001Z</time></trkpt><trkpt lat="41.678677152153824" lon="19.986915441310263"><ele>124.99999999999999</ele><time>2026-04-29T14:29:08.001Z</time></trkpt><trkpt lat="41.678741844636654" lon="19.98683279584029"><ele>125.0</ele><time>2026-04-29T14:29:10.001Z</time></trkpt><trkpt lat="41.67881218734289" lon="19.986781544695024"><ele>125.0</ele><time>2026-04-29T14:29:12.001Z</time></trkpt><trkpt lat="41.6789231456093" lon="19.986730884668486"><ele>125.0</ele><time>2026-04-29T14:29:14.001Z</time></trkpt><trkpt lat="41.67899019882794" lon="19.986684934460612"><ele>125.0</ele><time>2026-04-29T14:29:15.001Z</time></trkpt><trkpt lat="41.679068954733985" lon="19.986625011247046"><ele>125.0</ele><time>2026-04-29T14:29:16.001Z</time></trkpt><trkpt lat="41.67915143575793" lon="19.986555221558607"><ele>125.0</ele><time>2026-04-29T14:29:17.001Z</time></trkpt><trkpt lat="41.67922762370615" lon="19.986477916731946"><ele>126.0</ele><time>2026-04-29T14:29:18.001Z</time></trkpt><trkpt lat="41.67928544420719" lon="19.986375003609506"><ele>127.0</ele><time>2026-04-29T14:29:19.001Z</time></trkpt><trkpt lat="41.679307630345605" lon="19.986253421345012"><ele>128.0</ele><time>2026-04-29T14:29:20.001Z</time></trkpt><trkpt lat="41.67930396491773" lon="19.986126503000982"><ele>129.0</ele><time>2026-04-29T14:29:21.001Z</time></trkpt><trkpt lat="41.67931532865085" lon="19.986002270214954"><ele>130.0</ele><time>2026-04-29T14:29:22.001Z</time></trkpt><trkpt lat="41.679358441866206" lon="19.985884529973042"><ele>130.4</ele><time>2026-04-29T14:29:23.001Z</time></trkpt><trkpt lat="41.67941140118564" lon="19.985778181098727"><ele>130.8</ele><time>2026-04-29T14:29:24.001Z</time></trkpt><trkpt lat="41.679461794712694" lon="19.985682178049608"><ele>131.2</ele><time>2026-04-29T14:29:25.001Z</time></trkpt><trkpt lat="41.67950684420818" lon="19.985598744741164"><ele>131.6</ele><time>2026-04-29T14:29:26.001Z</time></trkpt><trkpt lat="41.679548910117234" lon="19.98552159826907"><ele>132.0</ele><time>2026-04-29T14:29:28.001Z</time></trkpt><trkpt lat="41.67963667043202" lon="19.98536978822217"><ele>132.33333333333334</ele><time>2026-04-29T14:29:43.001Z</time></trkpt><trkpt lat="41.67974412596599" lon="19.98519838760983"><ele>132.66666666666669</ele><time>2026-04-29T14:29:44.001Z</time></trkpt><trkpt lat="41.6798849928092" lon="19.984973693068103"><ele>133.0</ele><time>2026-04-29T14:29:45.001Z</time></trkpt><trkpt lat="41.68005586288869" lon="19.984701172722897"><ele>133.0</ele><time>2026-04-29T14:29:46.001Z</time></trkpt><trkpt lat="41.68021263156884" lon="19.98445134618482"><ele>133.0</ele><time>2026-04-29T14:29:47.001Z</time></trkpt><trkpt lat="41.68032073755332" lon="19.98428190803606"><ele>133.0</ele><time>2026-04-29T14:29:48.001Z</time></trkpt><trkpt lat="41.68040649459061" lon="19.984147632298388"><ele>133.20000000000002</ele><time>2026-04-29T14:29:49.001Z</time></trkpt><trkpt lat="41.68047604903022" lon="19.98403865137633"><ele>133.4</ele><time>2026-04-29T14:29:50.001Z</time></trkpt><trkpt lat="41.68053948554432" lon="19.983943727797758"><ele>133.60000000000002</ele><time>2026-04-29T14:29:51.001Z</time></trkpt><trkpt lat="41.680592717798" lon="19.983867864101253"><ele>133.8</ele><time>2026-04-29T14:29:52.001Z</time></trkpt><trkpt lat="41.68062705052856" lon="19.983793411982212"><ele>134.0</ele><time>2026-04-29T14:29:53.001Z</time></trkpt><trkpt lat="41.680659283606445" lon="19.983659271326143"><ele>134.0</ele><time>2026-04-29T14:29:55.001Z</time></trkpt><trkpt lat="41.68058005951865" lon="19.98354041596134"><ele>134.0</ele><time>2026-04-29T14:29:56.001Z</time></trkpt><trkpt lat="41.68055198478942" lon="19.983452975115153"><ele>134.0</ele><time>2026-04-29T14:29:57.001Z</time></trkpt><trkpt lat="41.68051618595642" lon="19.983356658254692"><ele>134.0</ele><time>2026-04-29T14:29:58.001Z</time></trkpt><trkpt lat="41.68048430803946" lon="19.9832807352835"><ele>134.0</ele><time>2026-04-29T14:29:59.001Z</time></trkpt><trkpt lat="41.68043193334944" lon="19.98315171497279"><ele>134.0</ele><time>2026-04-29T14:30:01.001Z</time></trkpt><trkpt lat="41.68040447220469" lon="19.983050510497257"><ele>134.0</ele><time>2026-04-29T14:30:03.001Z</time></trkpt><trkpt lat="41.68034829445697" lon="19.98289383739559"><ele>134.0</ele><time>2026-04-29T14:30:05.001Z</time></trkpt><trkpt lat="41.68029617326562" lon="19.982810179843764"><ele>134.0</ele><time>2026-04-29T14:30:06.001Z</time></trkpt><trkpt lat="41.68027052448602" lon="19.982731844352852"><ele>134.0</ele><time>2026-04-29T14:30:07.001Z</time></trkpt><trkpt lat="41.68023298713748" lon="19.982563928729654"><ele>134.0</ele><time>2026-04-29T14:30:09.001Z</time></trkpt><trkpt lat="41.68021475920521" lon="19.982477145090144"><ele>134.0</ele><time>2026-04-29T14:30:10Z</time></trkpt><trkpt lat="41.68018535377588" lon="19.982398465851386"><ele>134.0</ele><time>2026-04-29T14:30:11Z</time></trkpt><trkpt lat="41.68017014497446" lon="19.98226355122459"><ele>134.0</ele><time>2026-04-29T14:30:13Z</time></trkpt><trkpt lat="41.68015877961319" lon="19.982162379983183"><ele>134.0</ele><time>2026-04-29T14:30:15Z</time></trkpt><trkpt lat="41.680204953931955" lon="19.98206171429174"><ele>134.0</ele><time>2026-04-29T14:30:18Z</time></trkpt><trkpt lat="41.680305101290216" lon="19.98210965515204"><ele>134.0</ele><time>2026-04-29T14:30:20Z</time></trkpt><trkpt lat="41.68037690927758" lon="19.982107572034415"><ele>134.0</ele><time>2026-04-29T14:30:21Z</time></trkpt><trkpt lat="41.680450411153096" lon="19.982101626211545"><ele>134.0</ele><time>2026-04-29T14:30:22Z</time></trkpt><trkpt lat="41.680518728204376" lon="19.982096158054482"><ele>134.0</ele><time>2026-04-29T14:30:23Z</time></trkpt><trkpt lat="41.680593050331936" lon="19.982080413740942"><ele>134.0</ele><time>2026-04-29T14:30:24Z</time></trkpt><trkpt lat="41.6806613433476" lon="19.98205474280601"><ele>134.0</ele><time>2026-04-29T14:30:25Z</time></trkpt><trkpt lat="41.68077210427089" lon="19.98199176387566"><ele>134.0</ele><time>2026-04-29T14:30:27Z</time></trkpt><trkpt lat="41.68083886398479" lon="19.981953230446525"><ele>134.0</ele><time>2026-04-29T14:30:28Z</time></trkpt><trkpt lat="41.68090471025324" lon="19.981915263547663"><ele>134.0</ele><time>2026-04-29T14:30:29Z</time></trkpt><trkpt lat="41.68101121849626" lon="19.98185413883823"><ele>134.0</ele><time>2026-04-29T14:30:31.001Z</time></trkpt><trkpt lat="41.68107218108759" lon="19.981819152399883"><ele>134.0</ele><time>2026-04-29T14:30:32.001Z</time></trkpt><trkpt lat="41.68113897639465" lon="19.981780993104238"><ele>134.0</ele><time>2026-04-29T14:30:33.001Z</time></trkpt><trkpt lat="41.68121404744604" lon="19.981738791903673"><ele>134.0</ele><time>2026-04-29T14:30:34.001Z</time></trkpt><trkpt lat="41.681295826262904" lon="19.981692497454944"><ele>134.66666666666666</ele><time>2026-04-29T14:30:35.001Z</time></trkpt><trkpt lat="41.681361614322846" lon="19.981654770156045"><ele>135.33333333333331</ele><time>2026-04-29T14:30:36.001Z</time></trkpt><trkpt lat="41.68142922895175" lon="19.981615995518577"><ele>136.0</ele><time>2026-04-29T14:30:37.001Z</time></trkpt><trkpt lat="41.68148995297481" lon="19.981581502660752"><ele>136.66666666666666</ele><time>2026-04-29T14:30:38.001Z</time></trkpt><trkpt lat="41.681578873494296" lon="19.981530988711196"><ele>137.33333333333334</ele><time>2026-04-29T14:30:40.001Z</time></trkpt><trkpt lat="41.68166678384763" lon="19.981481048857095"><ele>138.0</ele><time>2026-04-29T14:30:42.001Z</time></trkpt><trkpt lat="41.68174099500036" lon="19.981438891096687"><ele>138.0</ele><time>2026-04-29T14:30:43.001Z</time></trkpt><trkpt lat="41.68182378743922" lon="19.981391858543503"><ele>138.0</ele><time>2026-04-29T14:30:44.001Z</time></trkpt><trkpt lat="41.68190502615897" lon="19.981345708660363"><ele>138.0</ele><time>2026-04-29T14:30:45.001Z</time></trkpt><trkpt lat="41.68197060367977" lon="19.98130845547966"><ele>138.0</ele><time>2026-04-29T14:30:46.001Z</time></trkpt><trkpt lat="41.68205917777794" lon="19.98125967958757"><ele>138.0</ele><time>2026-04-29T14:30:48.001Z</time></trkpt><trkpt lat="41.68221559531937" lon="19.98119013720003"><ele>138.0</ele><time>2026-04-29T14:31:17.001Z</time></trkpt><trkpt lat="41.682376742867696" lon="19.98113092983375"><ele>138.0</ele><time>2026-04-29T14:31:18.001Z</time></trkpt><trkpt lat="41.682577345355185" lon="19.981065087171157"><ele>138.0</ele><time>2026-04-29T14:31:19.001Z</time></trkpt><trkpt lat="41.68282409110554" lon="19.980984099123724"><ele>138.0</ele><time>2026-04-29T14:31:20.001Z</time></trkpt><trkpt lat="41.68309911989925" lon="19.98088619196331"><ele>138.0</ele><time>2026-04-29T14:31:21.001Z</time></trkpt><trkpt lat="41.68335393036843" lon="19.980787633438307"><ele>139.0</ele><time>2026-04-29T14:31:22.001Z</time></trkpt><trkpt lat="41.683550441718225" lon="19.980711625110263"><ele>140.0</ele><time>2026-04-29T14:31:23.001Z</time></trkpt><trkpt lat="41.68371577528462" lon="19.980647675518785"><ele>141.0</ele><time>2026-04-29T14:31:24.001Z</time></trkpt><trkpt lat="41.6838598198464" lon="19.98059196031314"><ele>141.16666666666666</ele><time>2026-04-29T14:31:25.001Z</time></trkpt><trkpt lat="41.6839706270537" lon="19.980549101043458"><ele>141.33333333333334</ele><time>2026-04-29T14:31:26.001Z</time></trkpt><trkpt lat="41.684055668893464" lon="19.980497938280347"><ele>141.5</ele><time>2026-04-29T14:31:27.001Z</time></trkpt><trkpt lat="41.6841296912773" lon="19.98047771908909"><ele>141.66666666666669</ele><time>2026-04-29T14:31:28.001Z</time></trkpt><trkpt lat="41.68419209995038" lon="19.980466379318425"><ele>141.83333333333334</ele><time>2026-04-29T14:31:29.001Z</time></trkpt><trkpt lat="41.68427954577592" lon="19.980514267799983"><ele>142.0</ele><time>2026-04-29T14:31:31.001Z</time></trkpt><trkpt lat="41.68435596835772" lon="19.98064281988891"><ele>142.2</ele><time>2026-04-29T14:31:33.001Z</time></trkpt><trkpt lat="41.68443261199415" lon="19.980766272221313"><ele>142.39999999999998</ele><time>2026-04-29T14:31:35.001Z</time></trkpt><trkpt lat="41.68448150997817" lon="19.980833492417805"><ele>142.60000000000002</ele><time>2026-04-29T14:31:36.001Z</time></trkpt><trkpt lat="41.684536064529" lon="19.980913884160714"><ele>142.8</ele><time>2026-04-29T14:31:37.001Z</time></trkpt><trkpt lat="41.68460578757853" lon="19.981003371366786"><ele>143.0</ele><time>2026-04-29T14:31:38.001Z</time></trkpt><trkpt lat="41.684669653889124" lon="19.981080557272236"><ele>142.66666666666666</ele><time>2026-04-29T14:31:39.001Z</time></trkpt><trkpt lat="41.68471268079695" lon="19.98115707671481"><ele>142.33333333333331</ele><time>2026-04-29T14:31:40.001Z</time></trkpt><trkpt lat="41.68477827166089" lon="19.981208990115345"><ele>142.0</ele><time>2026-04-29T14:31:41.001Z</time></trkpt><trkpt lat="41.684858759554764" lon="19.98125079692323"><ele>141.66666666666666</ele><time>2026-04-29T14:31:42.001Z</time></trkpt><trkpt lat="41.68495240829021" lon="19.981248897768968"><ele>141.33333333333334</ele><time>2026-04-29T14:31:43.001Z</time></trkpt><trkpt lat="41.685032913608815" lon="19.981256698302214"><ele>141.0</ele><time>2026-04-29T14:31:44.001Z</time></trkpt><trkpt lat="41.68512589540909" lon="19.98128942156949"><ele>142.0</ele><time>2026-04-29T14:31:45.001Z</time></trkpt><trkpt lat="41.685267891960294" lon="19.981311496799748"><ele>143.0</ele><time>2026-04-29T14:31:46.001Z</time></trkpt><trkpt lat="41.68545330828907" lon="19.98134032216263"><ele>144.0</ele><time>2026-04-29T14:31:47.001Z</time></trkpt><trkpt lat="41.685603481989844" lon="19.98136348995311"><ele>144.0</ele><time>2026-04-29T14:31:48.001Z</time></trkpt><trkpt lat="41.68570457277079" lon="19.98137903767653"><ele>144.0</ele><time>2026-04-29T14:31:49.001Z</time></trkpt><trkpt lat="41.68579170441845" lon="19.981392438521507"><ele>144.0</ele><time>2026-04-29T14:31:50.001Z</time></trkpt><trkpt lat="41.68589425427487" lon="19.98140835011554"><ele>144.0</ele><time>2026-04-29T14:31:51.001Z</time></trkpt><trkpt lat="41.685998472270555" lon="19.981424597125713"><ele>144.0</ele><time>2026-04-29T14:31:52.001Z</time></trkpt><trkpt lat="41.68611154604389" lon="19.98144222469695"><ele>144.4</ele><time>2026-04-29T14:31:53.001Z</time></trkpt><trkpt lat="41.686214324252305" lon="19.981458247256334"><ele>144.8</ele><time>2026-04-29T14:31:54.001Z</time></trkpt><trkpt lat="41.68631449000935" lon="19.981453685529505"><ele>145.2</ele><time>2026-04-29T14:31:55.001Z</time></trkpt><trkpt lat="41.68641936155577" lon="19.98147537118657"><ele>145.6</ele><time>2026-04-29T14:31:56.001Z</time></trkpt><trkpt lat="41.68654196578083" lon="19.981490589838245"><ele>146.0</ele><time>2026-04-29T14:31:57.001Z</time></trkpt><trkpt lat="41.68670987753389" lon="19.981514057273984"><ele>146.0</ele><time>2026-04-29T14:31:58Z</time></trkpt><trkpt lat="41.68684029772733" lon="19.98155583305372"><ele>146.0</ele><time>2026-04-29T14:31:59Z</time></trkpt><trkpt lat="41.68694069457557" lon="19.981549892380677"><ele>146.0</ele><time>2026-04-29T14:32:00Z</time></trkpt><trkpt lat="41.68703254284272" lon="19.98156871838786"><ele>146.0</ele><time>2026-04-29T14:32:01Z</time></trkpt><trkpt lat="41.68713988740489" lon="19.981587648636562"><ele>146.0</ele><time>2026-04-29T14:32:02Z</time></trkpt><trkpt lat="41.68725053820797" lon="19.981607246282046"><ele>146.2</ele><time>2026-04-29T14:32:03Z</time></trkpt><trkpt lat="41.68734692403873" lon="19.981623019987726"><ele>146.39999999999998</ele><time>2026-04-29T14:32:04Z</time></trkpt><trkpt lat="41.6874398979733" lon="19.98164067532132"><ele>146.6</ele><time>2026-04-29T14:32:05Z</time></trkpt><trkpt lat="41.6875406066607" lon="19.98165502895151"><ele>146.79999999999998</ele><time>2026-04-29T14:32:06Z</time></trkpt><trkpt lat="41.68764770091139" lon="19.981664143706894"><ele>147.0</ele><time>2026-04-29T14:32:07Z</time></trkpt><trkpt lat="41.687746987020574" lon="19.981676538563285"><ele>145.6</ele><time>2026-04-29T14:32:08Z</time></trkpt><trkpt lat="41.68784635429735" lon="19.98169143911597"><ele>144.2</ele><time>2026-04-29T14:32:09Z</time></trkpt><trkpt lat="41.68793558736802" lon="19.981705038817665"><ele>142.8</ele><time>2026-04-29T14:32:10Z</time></trkpt><trkpt lat="41.688028744182674" lon="19.981740041901784"><ele>141.4</ele><time>2026-04-29T14:32:11Z</time></trkpt><trkpt lat="41.688162964830894" lon="19.981761128129662"><ele>140.0</ele><time>2026-04-29T14:32:12Z</time></trkpt><trkpt lat="41.68830665820638" lon="19.98178369977664"><ele>140.0</ele><time>2026-04-29T14:32:13Z</time></trkpt><trkpt lat="41.68846428033631" lon="19.98180831486621"><ele>140.0</ele><time>2026-04-29T14:32:14Z</time></trkpt><trkpt lat="41.68865017780191" lon="19.9818372110587"><ele>140.0</ele><time>2026-04-29T14:32:15Z</time></trkpt><trkpt lat="41.68886477680858" lon="19.98187087573807"><ele>141.0</ele><time>2026-04-29T14:32:16Z</time></trkpt><trkpt lat="41.689093264521794" lon="19.981906708076956"><ele>142.0</ele><time>2026-04-29T14:32:17Z</time></trkpt><trkpt lat="41.68928770428551" lon="19.981917102640484"><ele>143.0</ele><time>2026-04-29T14:32:18Z</time></trkpt><trkpt lat="41.68945644007745" lon="19.981944945263734"><ele>144.0</ele><time>2026-04-29T14:32:19Z</time></trkpt><trkpt lat="41.68961347162254" lon="19.98196748936138"><ele>145.0</ele><time>2026-04-29T14:32:20Z</time></trkpt><trkpt lat="41.6897663814273" lon="19.981990758746996"><ele>146.0</ele><time>2026-04-29T14:32:21Z</time></trkpt><trkpt lat="41.68991562903213" lon="19.982016956461038"><ele>146.0</ele><time>2026-04-29T14:32:22Z</time></trkpt><trkpt lat="41.690052059805794" lon="19.982039106462985"><ele>146.0</ele><time>2026-04-29T14:32:23Z</time></trkpt><trkpt lat="41.69017494142568" lon="19.98205920556609"><ele>146.0</ele><time>2026-04-29T14:32:24Z</time></trkpt><trkpt lat="41.69029772285334" lon="19.982076342331226"><ele>146.0</ele><time>2026-04-29T14:32:25Z</time></trkpt><trkpt lat="41.690419823130014" lon="19.98209659984989"><ele>145.8</ele><time>2026-04-29T14:32:26Z</time></trkpt><trkpt lat="41.6905356731228" lon="19.982110941519593"><ele>145.6</ele><time>2026-04-29T14:32:27Z</time></trkpt><trkpt lat="41.690638976290636" lon="19.982128569538123"><ele>145.4</ele><time>2026-04-29T14:32:28Z</time></trkpt><trkpt lat="41.69074434453845" lon="19.98213085455295"><ele>145.2</ele><time>2026-04-29T14:32:29Z</time></trkpt><trkpt lat="41.69085316558234" lon="19.98208281487362"><ele>145.0</ele><time>2026-04-29T14:32:30Z</time></trkpt><trkpt lat="41.69093724071771" lon="19.982001208837588"><ele>145.0</ele><time>2026-04-29T14:32:31Z</time></trkpt><trkpt lat="41.69104149246782" lon="19.981953776444364"><ele>145.0</ele><time>2026-04-29T14:32:32Z</time></trkpt><trkpt lat="41.69113688739192" lon="19.98185859775713"><ele>145.0</ele><time>2026-04-29T14:32:33Z</time></trkpt><trkpt lat="41.69123346519281" lon="19.98178942635279"><ele>145.0</ele><time>2026-04-29T14:32:34Z</time></trkpt><trkpt lat="41.69131862444663" lon="19.98172143709796"><ele>145.0</ele><time>2026-04-29T14:32:35Z</time></trkpt><trkpt lat="41.69141625710647" lon="19.981666145923917"><ele>145.25</ele><time>2026-04-29T14:32:36Z</time></trkpt><trkpt lat="41.691508614420194" lon="19.98160650136667"><ele>145.5</ele><time>2026-04-29T14:32:37.001Z</time></trkpt><trkpt lat="41.69160853390143" lon="19.9815416750154"><ele>145.75</ele><time>2026-04-29T14:32:38.001Z</time></trkpt><trkpt lat="41.69172716241395" lon="19.981504930286118"><ele>146.0</ele><time>2026-04-29T14:32:39.001Z</time></trkpt><trkpt lat="41.691851854052366" lon="19.98143944486621"><ele>144.75</ele><time>2026-04-29T14:32:40.001Z</time></trkpt><trkpt lat="41.69198879298363" lon="19.981400885732878"><ele>143.5</ele><time>2026-04-29T14:32:41.001Z</time></trkpt><trkpt lat="41.69211982981783" lon="19.98136199463781"><ele>142.25</ele><time>2026-04-29T14:32:42.001Z</time></trkpt><trkpt lat="41.692253593327834" lon="19.981322971089984"><ele>141.0</ele><time>2026-04-29T14:32:43.001Z</time></trkpt><trkpt lat="41.69237234346808" lon="19.981281900526987"><ele>141.0</ele><time>2026-04-29T14:32:44.001Z</time></trkpt><trkpt lat="41.692476378605356" lon="19.981250608203766"><ele>141.0</ele><time>2026-04-29T14:32:45.001Z</time></trkpt><trkpt lat="41.69257475504185" lon="19.981242207317347"><ele>141.0</ele><time>2026-04-29T14:32:46.001Z</time></trkpt><trkpt lat="41.69267839937082" lon="19.981257576062767"><ele>141.0</ele><time>2026-04-29T14:32:47.001Z</time></trkpt><trkpt lat="41.692792619103095" lon="19.98129719358705"><ele>141.0</ele><time>2026-04-29T14:32:48.001Z</time></trkpt><trkpt lat="41.692906791478705" lon="19.981359616676247"><ele>141.6</ele><time>2026-04-29T14:32:49.001Z</time></trkpt><trkpt lat="41.69300647011892" lon="19.98141844789633"><ele>142.2</ele><time>2026-04-29T14:32:50.001Z</time></trkpt><trkpt lat="41.69310693918052" lon="19.981472536484983"><ele>142.8</ele><time>2026-04-29T14:32:51.001Z</time></trkpt><trkpt lat="41.69321050569855" lon="19.98152588358879"><ele>143.4</ele><time>2026-04-29T14:32:52.001Z</time></trkpt><trkpt lat="41.6933157190126" lon="19.98156525497891"><ele>144.0</ele><time>2026-04-29T14:32:53.001Z</time></trkpt><trkpt lat="41.69342706684523" lon="19.981605025203223"><ele>144.0</ele><time>2026-04-29T14:32:54.001Z</time></trkpt><trkpt lat="41.69354551420033" lon="19.98164636683725"><ele>144.0</ele><time>2026-04-29T14:32:55.001Z</time></trkpt><trkpt lat="41.69365146186175" lon="19.981681309327477"><ele>144.0</ele><time>2026-04-29T14:32:56.001Z</time></trkpt><trkpt lat="41.69374125756761" lon="19.981710786364"><ele>144.0</ele><time>2026-04-29T14:32:57.001Z</time></trkpt><trkpt lat="41.69382466176421" lon="19.981740283334762"><ele>144.0</ele><time>2026-04-29T14:32:58.001Z</time></trkpt><trkpt lat="41.69391668715467" lon="19.98176958627252"><ele>144.2</ele><time>2026-04-29T14:32:59.001Z</time></trkpt><trkpt lat="41.69399660680371" lon="19.981802267798546"><ele>144.4</ele><time>2026-04-29T14:33:00.001Z</time></trkpt><trkpt lat="41.69407725976152" lon="19.98179797752287"><ele>144.6</ele><time>2026-04-29T14:33:01.001Z</time></trkpt><trkpt lat="41.694159254179006" lon="19.981792261975574"><ele>144.8</ele><time>2026-04-29T14:33:02.001Z</time></trkpt><trkpt lat="41.69425270175645" lon="19.981691239392458"><ele>145.0</ele><time>2026-04-29T14:33:03.001Z</time></trkpt><trkpt lat="41.69435466084829" lon="19.98163479481249"><ele>145.25</ele><time>2026-04-29T14:33:04.001Z</time></trkpt><trkpt lat="41.69446812754258" lon="19.98156544553999"><ele>145.5</ele><time>2026-04-29T14:33:05.001Z</time></trkpt><trkpt lat="41.69459447818426" lon="19.981493452078894"><ele>145.75</ele><time>2026-04-29T14:33:06.001Z</time></trkpt><trkpt lat="41.69471334785746" lon="19.9814280971294"><ele>146.0</ele><time>2026-04-29T14:33:07.001Z</time></trkpt><trkpt lat="41.694806038292725" lon="19.981361429609148"><ele>146.0</ele><time>2026-04-29T14:33:08.001Z</time></trkpt><trkpt lat="41.6948832390455" lon="19.98127609093605"><ele>146.0</ele><time>2026-04-29T14:33:09.001Z</time></trkpt><trkpt lat="41.69494591976323" lon="19.981165050703755"><ele>146.0</ele><time>2026-04-29T14:33:10.001Z</time></trkpt><trkpt lat="41.69499354835673" lon="19.98103996469967"><ele>146.0</ele><time>2026-04-29T14:33:11.001Z</time></trkpt><trkpt lat="41.69503333087462" lon="19.980910272192457"><ele>146.0</ele><time>2026-04-29T14:33:12.001Z</time></trkpt><trkpt lat="41.695076593541934" lon="19.980778269995643"><ele>147.2</ele><time>2026-04-29T14:33:13.001Z</time></trkpt><trkpt lat="41.69512424244802" lon="19.980651662156205"><ele>148.39999999999998</ele><time>2026-04-29T14:33:14.001Z</time></trkpt><trkpt lat="41.695178922484224" lon="19.98053503340678"><ele>149.6</ele><time>2026-04-29T14:33:15.001Z</time></trkpt><trkpt lat="41.69524035894011" lon="19.980435899077147"><ele>150.79999999999998</ele><time>2026-04-29T14:33:16.001Z</time></trkpt><trkpt lat="41.69531501221462" lon="19.98036960525964"><ele>152.0</ele><time>2026-04-29T14:33:17.001Z</time></trkpt><trkpt lat="41.695410579716956" lon="19.98032068574308"><ele>152.0</ele><time>2026-04-29T14:33:18.001Z</time></trkpt><trkpt lat="41.69552466428829" lon="19.980281418297245"><ele>152.0</ele><time>2026-04-29T14:33:19.001Z</time></trkpt><trkpt lat="41.69564908257925" lon="19.98023977043844"><ele>152.0</ele><time>2026-04-29T14:33:20.001Z</time></trkpt><trkpt lat="41.69578098736649" lon="19.980191598783573"><ele>152.0</ele><time>2026-04-29T14:33:21.001Z</time></trkpt><trkpt lat="41.69592371831325" lon="19.980147055923833"><ele>152.0</ele><time>2026-04-29T14:33:22.001Z</time></trkpt><trkpt lat="41.696051778782056" lon="19.980119050242696"><ele>152.0</ele><time>2026-04-29T14:33:23.001Z</time></trkpt><trkpt lat="41.69618180280821" lon="19.98011099281451"><ele>152.0</ele><time>2026-04-29T14:33:24.001Z</time></trkpt><trkpt lat="41.696313709331136" lon="19.980120394314113"><ele>152.0</ele><time>2026-04-29T14:33:25.001Z</time></trkpt><trkpt lat="41.696451140851" lon="19.980133753222386"><ele>153.0</ele><time>2026-04-29T14:33:26.001Z</time></trkpt><trkpt lat="41.69658509892769" lon="19.980146378729657"><ele>154.0</ele><time>2026-04-29T14:33:27.001Z</time></trkpt><trkpt lat="41.696712274182715" lon="19.980159637937284"><ele>155.0</ele><time>2026-04-29T14:33:28.001Z</time></trkpt><trkpt lat="41.69684216786189" lon="19.980170441736547"><ele>156.0</ele><time>2026-04-29T14:33:29.001Z</time></trkpt><trkpt lat="41.69697573941383" lon="19.98020731282551"><ele>156.75</ele><time>2026-04-29T14:33:30.001Z</time></trkpt><trkpt lat="41.69711420938214" lon="19.980226196097792"><ele>157.5</ele><time>2026-04-29T14:33:31.001Z</time></trkpt><trkpt lat="41.69726025819586" lon="19.980246112884057"><ele>158.25</ele><time>2026-04-29T14:33:32.001Z</time></trkpt><trkpt lat="41.69740222426841" lon="19.980265472920895"><ele>159.0</ele><time>2026-04-29T14:33:33.001Z</time></trkpt><trkpt lat="41.697535634239266" lon="19.98028367480623"><ele>159.0</ele><time>2026-04-29T14:33:34.001Z</time></trkpt><trkpt lat="41.69766959424615" lon="19.980301652625585"><ele>159.0</ele><time>2026-04-29T14:33:35.001Z</time></trkpt><trkpt lat="41.69779063556346" lon="19.980317659236132"><ele>159.0</ele><time>2026-04-29T14:33:36Z</time></trkpt><trkpt lat="41.69790067472479" lon="19.980332461605116"><ele>159.0</ele><time>2026-04-29T14:33:37Z</time></trkpt><trkpt lat="41.6980043486514" lon="19.980346877361246"><ele>159.0</ele><time>2026-04-29T14:33:38Z</time></trkpt><trkpt lat="41.698102328716736" lon="19.980359885309436"><ele>159.0</ele><time>2026-04-29T14:33:39Z</time></trkpt><trkpt lat="41.69819952321928" lon="19.980362744516217"><ele>159.0</ele><time>2026-04-29T14:33:40Z</time></trkpt><trkpt lat="41.69829042887345" lon="19.980358142212108"><ele>159.0</ele><time>2026-04-29T14:33:41Z</time></trkpt><trkpt lat="41.698384335780894" lon="19.980353372229132"><ele>159.0</ele><time>2026-04-29T14:33:42Z</time></trkpt><trkpt lat="41.69848250760753" lon="19.98034838561682"><ele>158.5</ele><time>2026-04-29T14:33:43Z</time></trkpt><trkpt lat="41.698587777282796" lon="19.980321763788268"><ele>158.0</ele><time>2026-04-29T14:33:44Z</time></trkpt><trkpt lat="41.698701745636214" lon="19.980290306219956"><ele>157.5</ele><time>2026-04-29T14:33:45Z</time></trkpt><trkpt lat="41.698831665214044" lon="19.980254445773184"><ele>157.0</ele><time>2026-04-29T14:33:46Z</time></trkpt><trkpt lat="41.698968343395784" lon="19.980216719796456"><ele>157.0</ele><time>2026-04-29T14:33:47Z</time></trkpt><trkpt lat="41.69910230511222" lon="19.980179743695878"><ele>157.0</ele><time>2026-04-29T14:33:48Z</time></trkpt><trkpt lat="41.699217025997655" lon="19.980148078406586"><ele>157.0</ele><time>2026-04-29T14:33:49Z</time></trkpt><trkpt lat="41.69932075759955" lon="19.98011944640407"><ele>157.0</ele><time>2026-04-29T14:33:50Z</time></trkpt><trkpt lat="41.699424484027" lon="19.980091055069078"><ele>156.79999999999998</ele><time>2026-04-29T14:33:51Z</time></trkpt><trkpt lat="41.69952515408579" lon="19.980063572570103"><ele>156.6</ele><time>2026-04-29T14:33:52Z</time></trkpt><trkpt lat="41.69962265461116" lon="19.98003695375512"><ele>156.39999999999998</ele><time>2026-04-29T14:33:53Z</time></trkpt><trkpt lat="41.699725883881705" lon="19.98000877026555"><ele>156.2</ele><time>2026-04-29T14:33:54Z</time></trkpt><trkpt lat="41.69981571315756" lon="19.97991865351799"><ele>156.0</ele><time>2026-04-29T14:33:55Z</time></trkpt><trkpt lat="41.699900820742144" lon="19.979852880307273"><ele>156.4</ele><time>2026-04-29T14:33:56Z</time></trkpt><trkpt lat="41.699990279849146" lon="19.97980490461983"><ele>156.8</ele><time>2026-04-29T14:33:57Z</time></trkpt><trkpt lat="41.700028468289126" lon="19.979669168799152"><ele>157.20000000000002</ele><time>2026-04-29T14:33:58Z</time></trkpt><trkpt lat="41.70007913732698" lon="19.979551008153155"><ele>157.6</ele><time>2026-04-29T14:33:59Z</time></trkpt><trkpt lat="41.7001353433246" lon="19.979425738598426"><ele>158.0</ele><time>2026-04-29T14:34:00Z</time></trkpt><trkpt lat="41.70020880958127" lon="19.979297526930807"><ele>155.75</ele><time>2026-04-29T14:34:01Z</time></trkpt><trkpt lat="41.700293896143855" lon="19.979177328478077"><ele>153.5</ele><time>2026-04-29T14:34:02Z</time></trkpt><trkpt lat="41.70038236796816" lon="19.97908230302663"><ele>151.25</ele><time>2026-04-29T14:34:03Z</time></trkpt><trkpt lat="41.70047145869906" lon="19.979001943764015"><ele>149.0</ele><time>2026-04-29T14:34:04Z</time></trkpt><trkpt lat="41.70056851948552" lon="19.978927181533717"><ele>149.0</ele><time>2026-04-29T14:34:05Z</time></trkpt><trkpt lat="41.700675549401055" lon="19.978930918847105"><ele>149.0</ele><time>2026-04-29T14:34:06Z</time></trkpt><trkpt lat="41.700771252405936" lon="19.978904513848974"><ele>149.0</ele><time>2026-04-29T14:34:07Z</time></trkpt><trkpt lat="41.700873807300454" lon="19.978876751055356"><ele>149.0</ele><time>2026-04-29T14:34:08Z</time></trkpt><trkpt lat="41.70098292160075" lon="19.978856483542938"><ele>149.0</ele><time>2026-04-29T14:34:09Z</time></trkpt><trkpt lat="41.701080090158605" lon="19.9788382005832"><ele>148.8</ele><time>2026-04-29T14:34:10Z</time></trkpt><trkpt lat="41.7011697029915" lon="19.978820934368336"><ele>148.60000000000002</ele><time>2026-04-29T14:34:11Z</time></trkpt><trkpt lat="41.70125250713435" lon="19.97880295956219"><ele>148.4</ele><time>2026-04-29T14:34:12Z</time></trkpt><trkpt lat="41.70134367693823" lon="19.978783113451225"><ele>148.20000000000002</ele><time>2026-04-29T14:34:13Z</time></trkpt><trkpt lat="41.701447868746286" lon="19.97875993321245"><ele>148.0</ele><time>2026-04-29T14:34:14Z</time></trkpt><trkpt lat="41.70155900908091" lon="19.97873551984914"><ele>148.0</ele><time>2026-04-29T14:34:15Z</time></trkpt><trkpt lat="41.70166270572049" lon="19.978711277655037"><ele>148.0</ele><time>2026-04-29T14:34:16Z</time></trkpt><trkpt lat="41.7017621937086" lon="19.978686390744762"><ele>148.0</ele><time>2026-04-29T14:34:17Z</time></trkpt><trkpt lat="41.70186863210807" lon="19.9786599603365"><ele>148.0</ele><time>2026-04-29T14:34:18Z</time></trkpt><trkpt lat="41.70198274425311" lon="19.978631533201142"><ele>148.0</ele><time>2026-04-29T14:34:19Z</time></trkpt><trkpt lat="41.702101294333524" lon="19.978601999124894"><ele>148.5</ele><time>2026-04-29T14:34:20Z</time></trkpt><trkpt lat="41.70222803240919" lon="19.978570109549665"><ele>149.0</ele><time>2026-04-29T14:34:21Z</time></trkpt><trkpt lat="41.70235664999585" lon="19.978534703800936"><ele>149.5</ele><time>2026-04-29T14:34:22Z</time></trkpt><trkpt lat="41.70248019912108" lon="19.978545691618056"><ele>150.0</ele><time>2026-04-29T14:34:23Z</time></trkpt><trkpt lat="41.70259232550098" lon="19.978561615637133"><ele>150.0</ele><time>2026-04-29T14:34:24Z</time></trkpt><trkpt lat="41.70270899642912" lon="19.978572095254716"><ele>150.0</ele><time>2026-04-29T14:34:25Z</time></trkpt><trkpt lat="41.702821322957426" lon="19.978592306226602"><ele>150.0</ele><time>2026-04-29T14:34:26Z</time></trkpt><trkpt lat="41.70293594610545" lon="19.978559398080375"><ele>150.0</ele><time>2026-04-29T14:34:27Z</time></trkpt><trkpt lat="41.70305988060416" lon="19.978487190303934"><ele>151.75</ele><time>2026-04-29T14:34:28Z</time></trkpt><trkpt lat="41.7031915768248" lon="19.97842622576463"><ele>153.5</ele><time>2026-04-29T14:34:29Z</time></trkpt><trkpt lat="41.70332941214246" lon="19.97837549003038"><ele>155.25</ele><time>2026-04-29T14:34:30Z</time></trkpt><trkpt lat="41.70346385480826" lon="19.97831073583576"><ele>157.0</ele><time>2026-04-29T14:34:31Z</time></trkpt><trkpt lat="41.70359800052563" lon="19.97824456855078"><ele>159.5</ele><time>2026-04-29T14:34:32Z</time></trkpt><trkpt lat="41.70373168463134" lon="19.97817894460285"><ele>162.0</ele><time>2026-04-29T14:34:33Z</time></trkpt><trkpt lat="41.70385517210749" lon="19.97811789919808"><ele>164.5</ele><time>2026-04-29T14:34:34Z</time></trkpt><trkpt lat="41.703971066613086" lon="19.9780388506444"><ele>167.0</ele><time>2026-04-29T14:34:35Z</time></trkpt><trkpt lat="41.704103838920936" lon="19.977983797307463"><ele>167.0</ele><time>2026-04-29T14:34:36Z</time></trkpt><trkpt lat="41.70424109660875" lon="19.977920073376428"><ele>167.0</ele><time>2026-04-29T14:34:37Z</time></trkpt><trkpt lat="41.70437629825179" lon="19.977849306642963"><ele>167.0</ele><time>2026-04-29T14:34:38Z</time></trkpt><trkpt lat="41.70450962012378" lon="19.97777937105276"><ele>167.0</ele><time>2026-04-29T14:34:39Z</time></trkpt><trkpt lat="41.70464589866431" lon="19.977715972764774"><ele>166.75</ele><time>2026-04-29T14:34:40Z</time></trkpt><trkpt lat="41.70478997430716" lon="19.97765419127211"><ele>166.5</ele><time>2026-04-29T14:34:41Z</time></trkpt><trkpt lat="41.70491614517536" lon="19.97758369563821"><ele>166.25</ele><time>2026-04-29T14:34:42Z</time></trkpt><trkpt lat="41.70501952039205" lon="19.977495762641247"><ele>166.0</ele><time>2026-04-29T14:34:43.001Z</time></trkpt><trkpt lat="41.7051063363896" lon="19.977382989281015"><ele>165.5</ele><time>2026-04-29T14:34:44.001Z</time></trkpt><trkpt lat="41.70518489017416" lon="19.977245778884782"><ele>165.0</ele><time>2026-04-29T14:34:45.001Z</time></trkpt><trkpt lat="41.705257638583795" lon="19.97709222785004"><ele>164.5</ele><time>2026-04-29T14:34:46.001Z</time></trkpt><trkpt lat="41.70533809801886" lon="19.9769502561977"><ele>164.0</ele><time>2026-04-29T14:34:47.001Z</time></trkpt><trkpt lat="41.70541579263434" lon="19.976839860003594"><ele>164.0</ele><time>2026-04-29T14:34:48.001Z</time></trkpt><trkpt lat="41.70549305807355" lon="19.97675330505737"><ele>164.0</ele><time>2026-04-29T14:34:49.001Z</time></trkpt><trkpt lat="41.70558390437346" lon="19.97673646515019"><ele>164.0</ele><time>2026-04-29T14:34:50.001Z</time></trkpt><trkpt lat="41.70567708276755" lon="19.976678788853814"><ele>164.0</ele><time>2026-04-29T14:34:51.001Z</time></trkpt><trkpt lat="41.705792477845236" lon="19.976687439045286"><ele>164.0</ele><time>2026-04-29T14:34:52.001Z</time></trkpt><trkpt lat="41.705932776668355" lon="19.976683079395514"><ele>166.33333333333331</ele><time>2026-04-29T14:34:53.001Z</time></trkpt><trkpt lat="41.706087423950876" lon="19.97665998229224"><ele>168.66666666666666</ele><time>2026-04-29T14:34:54.001Z</time></trkpt><trkpt lat="41.706246299249784" lon="19.976636111693153"><ele>171.0</ele><time>2026-04-29T14:34:55.001Z</time></trkpt><trkpt lat="41.70640756565458" lon="19.976611755771764"><ele>171.0</ele><time>2026-04-29T14:34:56.001Z</time></trkpt><trkpt lat="41.7065696374734" lon="19.97658782520133"><ele>171.0</ele><time>2026-04-29T14:34:57Z</time></trkpt><trkpt lat="41.70673082817963" lon="19.976564789371707"><ele>171.0</ele><time>2026-04-29T14:34:58Z</time></trkpt><trkpt lat="41.70688765874707" lon="19.97648447991676"><ele>171.66666666666666</ele><time>2026-04-29T14:34:59Z</time></trkpt><trkpt lat="41.707049338267" lon="19.976428179241893"><ele>172.33333333333331</ele><time>2026-04-29T14:35:00Z</time></trkpt><trkpt lat="41.70720173307959" lon="19.976359219112595"><ele>173.0</ele><time>2026-04-29T14:35:01Z</time></trkpt><trkpt lat="41.707368773769005" lon="19.97627862698606"><ele>173.0</ele><time>2026-04-29T14:35:02Z</time></trkpt><trkpt lat="41.707519682738024" lon="19.97620873012238"><ele>173.0</ele><time>2026-04-29T14:35:03Z</time></trkpt><trkpt lat="41.707651018460055" lon="19.976151038472132"><ele>173.0</ele><time>2026-04-29T14:35:04Z</time></trkpt><trkpt lat="41.70778324229374" lon="19.976095350735804"><ele>173.0</ele><time>2026-04-29T14:35:05Z</time></trkpt><trkpt lat="41.707911110950846" lon="19.97604530580237"><ele>172.25</ele><time>2026-04-29T14:35:06Z</time></trkpt><trkpt lat="41.70803095652533" lon="19.976003656773603"><ele>171.5</ele><time>2026-04-29T14:35:07Z</time></trkpt><trkpt lat="41.708164831788324" lon="19.975958917044764"><ele>170.75</ele><time>2026-04-29T14:35:08Z</time></trkpt><trkpt lat="41.70830669530516" lon="19.975897784521365"><ele>170.0</ele><time>2026-04-29T14:35:09Z</time></trkpt><trkpt lat="41.70845125206437" lon="19.975816736463685"><ele>170.0</ele><time>2026-04-29T14:35:10Z</time></trkpt><trkpt lat="41.708584696021965" lon="19.97573266613016"><ele>170.0</ele><time>2026-04-29T14:35:11Z</time></trkpt><trkpt lat="41.708706516300644" lon="19.975654431835483"><ele>170.0</ele><time>2026-04-29T14:35:12Z</time></trkpt><trkpt lat="41.708817932319704" lon="19.975589963208694"><ele>170.0</ele><time>2026-04-29T14:35:13Z</time></trkpt><trkpt lat="41.7089165347599" lon="19.975532172994555"><ele>170.0</ele><time>2026-04-29T14:35:14Z</time></trkpt><trkpt lat="41.709010216179585" lon="19.975474369516505"><ele>170.0</ele><time>2026-04-29T14:35:15Z</time></trkpt><trkpt lat="41.7091125250299" lon="19.975422690531513"><ele>170.0</ele><time>2026-04-29T14:35:16Z</time></trkpt><trkpt lat="41.70922869201039" lon="19.975380360168028"><ele>170.0</ele><time>2026-04-29T14:35:17Z</time></trkpt><trkpt lat="41.709353960373726" lon="19.975352102055183"><ele>170.0</ele><time>2026-04-29T14:35:18Z</time></trkpt><trkpt lat="41.70946531488825" lon="19.975351350278242"><ele>170.0</ele><time>2026-04-29T14:35:19Z</time></trkpt><trkpt lat="41.70956636916426" lon="19.975370780035348"><ele>170.0</ele><time>2026-04-29T14:35:20Z</time></trkpt><trkpt lat="41.70967407160304" lon="19.975408729923807"><ele>170.0</ele><time>2026-04-29T14:35:21Z</time></trkpt><trkpt lat="41.709794179748044" lon="19.97545518497308"><ele>170.0</ele><time>2026-04-29T14:35:22Z</time></trkpt><trkpt lat="41.709907126225744" lon="19.975505137302033"><ele>170.0</ele><time>2026-04-29T14:35:23Z</time></trkpt><trkpt lat="41.70999982149533" lon="19.97555182674786"><ele>170.0</ele><time>2026-04-29T14:35:24Z</time></trkpt><trkpt lat="41.710066910305905" lon="19.97564699983319"><ele>170.0</ele><time>2026-04-29T14:35:25Z</time></trkpt><trkpt lat="41.71015155445456" lon="19.975722616418786"><ele>170.0</ele><time>2026-04-29T14:35:26Z</time></trkpt><trkpt lat="41.71024389564836" lon="19.975807393183512"><ele>170.25</ele><time>2026-04-29T14:35:27Z</time></trkpt><trkpt lat="41.710348121006334" lon="19.97588282541581"><ele>170.5</ele><time>2026-04-29T14:35:28Z</time></trkpt><trkpt lat="41.71045278830133" lon="19.97597264068086"><ele>170.75</ele><time>2026-04-29T14:35:29Z</time></trkpt><trkpt lat="41.710568425969804" lon="19.97604797545451"><ele>171.0</ele><time>2026-04-29T14:35:30Z</time></trkpt><trkpt lat="41.71069535421926" lon="19.97610997178341"><ele>171.0</ele><time>2026-04-29T14:35:31Z</time></trkpt><trkpt lat="41.71083340348124" lon="19.976158569530533"><ele>171.0</ele><time>2026-04-29T14:35:32Z</time></trkpt><trkpt lat="41.71097877657144" lon="19.97620182491585"><ele>171.0</ele><time>2026-04-29T14:35:33Z</time></trkpt><trkpt lat="41.711111962951186" lon="19.97623490195932"><ele>171.0</ele><time>2026-04-29T14:35:34Z</time></trkpt><trkpt lat="41.71123622707921" lon="19.97629633851023"><ele>171.0</ele><time>2026-04-29T14:35:35Z</time></trkpt><trkpt lat="41.711376950892415" lon="19.976322741585562"><ele>171.0</ele><time>2026-04-29T14:35:36Z</time></trkpt><trkpt lat="41.711524373955186" lon="19.976368800996088"><ele>171.0</ele><time>2026-04-29T14:35:37Z</time></trkpt><trkpt lat="41.71167622004846" lon="19.976415820122632"><ele>171.0</ele><time>2026-04-29T14:35:38Z</time></trkpt><trkpt lat="41.71182978306961" lon="19.976466471331374"><ele>171.5</ele><time>2026-04-29T14:35:39Z</time></trkpt><trkpt lat="41.71196208900073" lon="19.97650921292272"><ele>172.0</ele><time>2026-04-29T14:35:40Z</time></trkpt><trkpt lat="41.712084611342526" lon="19.97654697526477"><ele>172.5</ele><time>2026-04-29T14:35:41Z</time></trkpt><trkpt lat="41.71220969758813" lon="19.976579115332246"><ele>173.0</ele><time>2026-04-29T14:35:42Z</time></trkpt><trkpt lat="41.712338193645486" lon="19.976634572970323"><ele>173.0</ele><time>2026-04-29T14:35:43Z</time></trkpt><trkpt lat="41.71247129371273" lon="19.976671428037744"><ele>173.0</ele><time>2026-04-29T14:35:44Z</time></trkpt><trkpt lat="41.712605644048345" lon="19.97670862858921"><ele>173.0</ele><time>2026-04-29T14:35:45Z</time></trkpt><trkpt lat="41.712750318535726" lon="19.976630852683474"><ele>173.0</ele><time>2026-04-29T14:35:46Z</time></trkpt><trkpt lat="41.712883968589495" lon="19.976589269395824"><ele>174.0</ele><time>2026-04-29T14:35:47Z</time></trkpt><trkpt lat="41.713017624304214" lon="19.97652652712866"><ele>175.0</ele><time>2026-04-29T14:35:48Z</time></trkpt><trkpt lat="41.71315237056393" lon="19.97646034734526"><ele>176.0</ele><time>2026-04-29T14:35:49Z</time></trkpt><trkpt lat="41.713289524706624" lon="19.97638692495398"><ele>177.0</ele><time>2026-04-29T14:35:50Z</time></trkpt><trkpt lat="41.7134301133371" lon="19.97631090320849"><ele>176.66666666666666</ele><time>2026-04-29T14:35:51Z</time></trkpt><trkpt lat="41.713573509608715" lon="19.97623237274796"><ele>176.33333333333331</ele><time>2026-04-29T14:35:52Z</time></trkpt><trkpt lat="41.71371951380951" lon="19.97615209634041"><ele>176.0</ele><time>2026-04-29T14:35:53Z</time></trkpt><trkpt lat="41.71386431303787" lon="19.97608181125062"><ele>176.0</ele><time>2026-04-29T14:35:54Z</time></trkpt><trkpt lat="41.71400412402025" lon="19.97602037373127"><ele>176.0</ele><time>2026-04-29T14:35:55Z</time></trkpt><trkpt lat="41.71414888135994" lon="19.97595798525433"><ele>176.0</ele><time>2026-04-29T14:35:56Z</time></trkpt><trkpt lat="41.714297215342846" lon="19.975899354227103"><ele>176.66666666666666</ele><time>2026-04-29T14:35:57Z</time></trkpt><trkpt lat="41.7144507934508" lon="19.975841504068967"><ele>177.33333333333334</ele><time>2026-04-29T14:35:58Z</time></trkpt><trkpt lat="41.714604178886475" lon="19.975780744011058"><ele>178.0</ele><time>2026-04-29T14:35:59Z</time></trkpt><trkpt lat="41.71475064089307" lon="19.9757158062186"><ele>178.0</ele><time>2026-04-29T14:36:00Z</time></trkpt><trkpt lat="41.714903281635635" lon="19.975673064867134"><ele>178.0</ele><time>2026-04-29T14:36:01Z</time></trkpt><trkpt lat="41.71505150915678" lon="19.975600493744672"><ele>178.0</ele><time>2026-04-29T14:36:02Z</time></trkpt><trkpt lat="41.715188859109944" lon="19.975505294967682"><ele>175.66666666666669</ele><time>2026-04-29T14:36:03Z</time></trkpt><trkpt lat="41.715329361744395" lon="19.975411489463692"><ele>173.33333333333334</ele><time>2026-04-29T14:36:04Z</time></trkpt><trkpt lat="41.71546151324509" lon="19.97529595489201"><ele>171.0</ele><time>2026-04-29T14:36:05Z</time></trkpt><trkpt lat="41.71559316042454" lon="19.97515941055596"><ele>172.66666666666666</ele><time>2026-04-29T14:36:06Z</time></trkpt><trkpt lat="41.715723594055284" lon="19.975015532580777"><ele>174.33333333333331</ele><time>2026-04-29T14:36:07Z</time></trkpt><trkpt lat="41.71584681107911" lon="19.974875199400625"><ele>176.0</ele><time>2026-04-29T14:36:08Z</time></trkpt><trkpt lat="41.715960951199214" lon="19.974750678546698"><ele>176.0</ele><time>2026-04-29T14:36:09Z</time></trkpt><trkpt lat="41.71606929346727" lon="19.97464145374323"><ele>176.0</ele><time>2026-04-29T14:36:10Z</time></trkpt><trkpt lat="41.716166731066224" lon="19.97454568551551"><ele>176.0</ele><time>2026-04-29T14:36:11Z</time></trkpt><trkpt lat="41.71628551118369" lon="19.974431892087292"><ele>176.0</ele><time>2026-04-29T14:36:12Z</time></trkpt><trkpt lat="41.716415920021625" lon="19.974324190697555"><ele>175.0</ele><time>2026-04-29T14:36:13Z</time></trkpt><trkpt lat="41.7165456897644" lon="19.97425735799955"><ele>174.0</ele><time>2026-04-29T14:36:14Z</time></trkpt><trkpt lat="41.71667017405947" lon="19.974268453983907"><ele>173.0</ele><time>2026-04-29T14:36:15Z</time></trkpt><trkpt lat="41.71680045265389" lon="19.974273955028544"><ele>172.0</ele><time>2026-04-29T14:36:16Z</time></trkpt><trkpt lat="41.71694506925747" lon="19.97428924049929"><ele>172.0</ele><time>2026-04-29T14:36:17Z</time></trkpt><trkpt lat="41.717100210182046" lon="19.974306037987123"><ele>172.0</ele><time>2026-04-29T14:36:18Z</time></trkpt><trkpt lat="41.71726447734279" lon="19.97432289348191"><ele>172.0</ele><time>2026-04-29T14:36:19Z</time></trkpt><trkpt lat="41.717433632478425" lon="19.97434066027759"><ele>172.0</ele><time>2026-04-29T14:36:20Z</time></trkpt><trkpt lat="41.71759759661362" lon="19.9743577650609"><ele>172.0</ele><time>2026-04-29T14:36:21Z</time></trkpt><trkpt lat="41.71776103684372" lon="19.9743740069539"><ele>172.0</ele><time>2026-04-29T14:36:22Z</time></trkpt><trkpt lat="41.71792275035179" lon="19.974391023440937"><ele>174.33333333333334</ele><time>2026-04-29T14:36:23Z</time></trkpt><trkpt lat="41.71808163007825" lon="19.974407930929907"><ele>176.66666666666666</ele><time>2026-04-29T14:36:24Z</time></trkpt><trkpt lat="41.718241009748596" lon="19.97442477534154"><ele>179.0</ele><time>2026-04-29T14:36:25Z</time></trkpt><trkpt lat="41.718401979128636" lon="19.974443107497812"><ele>181.66666666666666</ele><time>2026-04-29T14:36:26Z</time></trkpt><trkpt lat="41.718569223330704" lon="19.97446116715854"><ele>184.33333333333334</ele><time>2026-04-29T14:36:27Z</time></trkpt><trkpt lat="41.718738661681485" lon="19.974480214630052"><ele>187.0</ele><time>2026-04-29T14:36:28Z</time></trkpt><trkpt lat="41.718913721439925" lon="19.97447756400267"><ele>187.0</ele><time>2026-04-29T14:36:29Z</time></trkpt><trkpt lat="41.71909068215549" lon="19.974496051906716"><ele>187.0</ele><time>2026-04-29T14:36:30Z</time></trkpt><trkpt lat="41.71925466143375" lon="19.97453584210576"><ele>187.0</ele><time>2026-04-29T14:36:31Z</time></trkpt><trkpt lat="41.719419312166885" lon="19.974533792362987"><ele>187.66666666666669</ele><time>2026-04-29T14:36:32Z</time></trkpt><trkpt lat="41.71958984956018" lon="19.974556025810994"><ele>188.33333333333334</ele><time>2026-04-29T14:36:33Z</time></trkpt><trkpt lat="41.71974580578264" lon="19.974572989722308"><ele>189.0</ele><time>2026-04-29T14:36:34Z</time></trkpt><trkpt lat="41.71988497121809" lon="19.974584868041998"><ele>189.0</ele><time>2026-04-29T14:36:35Z</time></trkpt><trkpt lat="41.7200231648661" lon="19.974616754702208"><ele>189.0</ele><time>2026-04-29T14:36:36Z</time></trkpt><trkpt lat="41.72017080068397" lon="19.974632363212606"><ele>189.0</ele><time>2026-04-29T14:36:37Z</time></trkpt><trkpt lat="41.720308557699624" lon="19.974625836966794"><ele>189.0</ele><time>2026-04-29T14:36:38Z</time></trkpt><trkpt lat="41.72042935895905" lon="19.974636510229125"><ele>188.25</ele><time>2026-04-29T14:36:39Z</time></trkpt><trkpt lat="41.72054531488004" lon="19.97465420902915"><ele>187.5</ele><time>2026-04-29T14:36:40Z</time></trkpt><trkpt lat="41.720667276129134" lon="19.974582377289"><ele>186.75</ele><time>2026-04-29T14:36:41Z</time></trkpt><trkpt lat="41.72077150865862" lon="19.97450611172442"><ele>186.0</ele><time>2026-04-29T14:36:42Z</time></trkpt><trkpt lat="41.72087423666861" lon="19.974408170430824"><ele>186.0</ele><time>2026-04-29T14:36:43Z</time></trkpt><trkpt lat="41.720995836898986" lon="19.97432177017264"><ele>186.0</ele><time>2026-04-29T14:36:44Z</time></trkpt><trkpt lat="41.72110934094222" lon="19.97419633137809"><ele>186.0</ele><time>2026-04-29T14:36:45Z</time></trkpt><trkpt lat="41.72119995837296" lon="19.97407138208374"><ele>186.0</ele><time>2026-04-29T14:36:46Z</time></trkpt><trkpt lat="41.72128202580085" lon="19.973936797934222"><ele>187.0</ele><time>2026-04-29T14:36:47Z</time></trkpt><trkpt lat="41.721355256388584" lon="19.973788668886247"><ele>188.0</ele><time>2026-04-29T14:36:48Z</time></trkpt><trkpt lat="41.721411387190635" lon="19.97364606915393"><ele>189.0</ele><time>2026-04-29T14:36:49Z</time></trkpt><trkpt lat="41.721464227882336" lon="19.973504006987262"><ele>190.0</ele><time>2026-04-29T14:36:50Z</time></trkpt><trkpt lat="41.72153280081028" lon="19.97336532032768"><ele>190.0</ele><time>2026-04-29T14:36:51Z</time></trkpt><trkpt lat="41.72161338082923" lon="19.973249804067063"><ele>190.0</ele><time>2026-04-29T14:36:52Z</time></trkpt><trkpt lat="41.72169789565509" lon="19.97315804807868"><ele>190.0</ele><time>2026-04-29T14:36:53Z</time></trkpt><trkpt lat="41.72178740434407" lon="19.973060639170757"><ele>190.0</ele><time>2026-04-29T14:36:54Z</time></trkpt><trkpt lat="41.721894020573345" lon="19.972987225394185"><ele>191.33333333333334</ele><time>2026-04-29T14:36:55Z</time></trkpt><trkpt lat="41.722016981598294" lon="19.972910754789158"><ele>192.66666666666669</ele><time>2026-04-29T14:36:56Z</time></trkpt><trkpt lat="41.72216447413705" lon="19.972829077351967"><ele>194.0</ele><time>2026-04-29T14:36:57Z</time></trkpt><trkpt lat="41.72231913076035" lon="19.972748270122263"><ele>194.0</ele><time>2026-04-29T14:36:58Z</time></trkpt><trkpt lat="41.72248402313389" lon="19.972666021716993"><ele>194.0</ele><time>2026-04-29T14:36:59Z</time></trkpt><trkpt lat="41.722626266003985" lon="19.972595203821324"><ele>194.0</ele><time>2026-04-29T14:37:00Z</time></trkpt><trkpt lat="41.72274194219328" lon="19.972537661504212"><ele>195.39999999999998</ele><time>2026-04-29T14:37:01Z</time></trkpt><trkpt lat="41.72284118261441" lon="19.972495395791835"><ele>196.8</ele><time>2026-04-29T14:37:02Z</time></trkpt><trkpt lat="41.72292715391223" lon="19.972470443687076"><ele>198.2</ele><time>2026-04-29T14:37:03Z</time></trkpt><trkpt lat="41.723015205253496" lon="19.97246079936663"><ele>199.60000000000002</ele><time>2026-04-29T14:37:04Z</time></trkpt><trkpt lat="41.7231166134051" lon="19.97245088331363"><ele>201.0</ele><time>2026-04-29T14:37:05Z</time></trkpt><trkpt lat="41.72322401388951" lon="19.972494416602725"><ele>201.5</ele><time>2026-04-29T14:37:06Z</time></trkpt><trkpt lat="41.72332009991983" lon="19.972561127612877"><ele>202.0</ele><time>2026-04-29T14:37:07Z</time></trkpt><trkpt lat="41.72336933205333" lon="19.972649807246658"><ele>202.5</ele><time>2026-04-29T14:37:08Z</time></trkpt><trkpt lat="41.72338076479448" lon="19.972755580590178"><ele>203.0</ele><time>2026-04-29T14:37:09Z</time></trkpt><trkpt lat="41.72336107368787" lon="19.972863942231186"><ele>203.5</ele><time>2026-04-29T14:37:10Z</time></trkpt><trkpt lat="41.72332128110479" lon="19.972974891340115"><ele>204.0</ele><time>2026-04-29T14:37:11Z</time></trkpt><trkpt lat="41.72327845269127" lon="19.97309682350385"><ele>204.0</ele><time>2026-04-29T14:37:12Z</time></trkpt><trkpt lat="41.72323334827956" lon="19.9732153444105"><ele>204.0</ele><time>2026-04-29T14:37:13Z</time></trkpt><trkpt lat="41.723182523754836" lon="19.973326256572562"><ele>204.0</ele><time>2026-04-29T14:37:14Z</time></trkpt><trkpt lat="41.723151829448895" lon="19.97342176536477"><ele>204.0</ele><time>2026-04-29T14:37:15Z</time></trkpt><trkpt lat="41.72315910114655" lon="19.973594250402254"><ele>204.0</ele><time>2026-04-29T14:37:17Z</time></trkpt><trkpt lat="41.7232023915407" lon="19.973684574403343"><ele>204.39999999999998</ele><time>2026-04-29T14:37:18Z</time></trkpt><trkpt lat="41.72327489101257" lon="19.973763801214755"><ele>204.8</ele><time>2026-04-29T14:37:19Z</time></trkpt><trkpt lat="41.72336800883462" lon="19.973828988490084"><ele>205.2</ele><time>2026-04-29T14:37:20Z</time></trkpt><trkpt lat="41.7234703988766" lon="19.973877214421602"><ele>205.60000000000002</ele><time>2026-04-29T14:37:21Z</time></trkpt><trkpt lat="41.72358230348877" lon="19.973931077143003"><ele>206.0</ele><time>2026-04-29T14:37:22Z</time></trkpt><trkpt lat="41.72369028523918" lon="19.974008080694983"><ele>208.25</ele><time>2026-04-29T14:37:23Z</time></trkpt><trkpt lat="41.72380447140715" lon="19.974088268602596"><ele>210.5</ele><time>2026-04-29T14:37:24Z</time></trkpt><trkpt lat="41.72392069698147" lon="19.974168784506556"><ele>212.75</ele><time>2026-04-29T14:37:25Z</time></trkpt><trkpt lat="41.72400639929531" lon="19.974262521349715"><ele>215.0</ele><time>2026-04-29T14:37:26Z</time></trkpt><trkpt lat="41.724063635271094" lon="19.974390003290985"><ele>216.8</ele><time>2026-04-29T14:37:27Z</time></trkpt><trkpt lat="41.72409620437836" lon="19.974531429575002"><ele>218.6</ele><time>2026-04-29T14:37:28Z</time></trkpt><trkpt lat="41.72408921043443" lon="19.97465326542472"><ele>220.39999999999998</ele><time>2026-04-29T14:37:29Z</time></trkpt><trkpt lat="41.724040934646766" lon="19.97476289876037"><ele>222.2</ele><time>2026-04-29T14:37:30Z</time></trkpt><trkpt lat="41.72396746917741" lon="19.974881391173827"><ele>224.0</ele><time>2026-04-29T14:37:31Z</time></trkpt><trkpt lat="41.72387599125033" lon="19.975003330988187"><ele>223.25</ele><time>2026-04-29T14:37:32Z</time></trkpt><trkpt lat="41.72376837297633" lon="19.975128767859644"><ele>222.5</ele><time>2026-04-29T14:37:33Z</time></trkpt><trkpt lat="41.72366033623733" lon="19.97526495596955"><ele>221.75</ele><time>2026-04-29T14:37:34Z</time></trkpt><trkpt lat="41.72357948353933" lon="19.97539606256698"><ele>221.0</ele><time>2026-04-29T14:37:35Z</time></trkpt><trkpt lat="41.723518034907016" lon="19.975538472207184"><ele>221.0</ele><time>2026-04-29T14:37:36Z</time></trkpt><trkpt lat="41.72346886811729" lon="19.975690519763603"><ele>221.00000000000003</ele><time>2026-04-29T14:37:37Z</time></trkpt><trkpt lat="41.72343916183807" lon="19.975829234775805"><ele>221.00000000000003</ele><time>2026-04-29T14:37:38Z</time></trkpt><trkpt lat="41.72343953768029" lon="19.975959724752986"><ele>221.0</ele><time>2026-04-29T14:37:39Z</time></trkpt><trkpt lat="41.72347531055851" lon="19.976090462257357"><ele>221.0</ele><time>2026-04-29T14:37:40Z</time></trkpt><trkpt lat="41.72354090209028" lon="19.976210104606498"><ele>222.75</ele><time>2026-04-29T14:37:41Z</time></trkpt><trkpt lat="41.723628541809354" lon="19.976318362874345"><ele>224.5</ele><time>2026-04-29T14:37:42Z</time></trkpt><trkpt lat="41.723737375231636" lon="19.97642122470972"><ele>226.25</ele><time>2026-04-29T14:37:43Z</time></trkpt><trkpt lat="41.723863944484734" lon="19.976514848196807"><ele>228.0</ele><time>2026-04-29T14:37:44Z</time></trkpt><trkpt lat="41.72400903075554" lon="19.97658261219087"><ele>228.0</ele><time>2026-04-29T14:37:45Z</time></trkpt><trkpt lat="41.72414959340611" lon="19.97663697590065"><ele>228.0</ele><time>2026-04-29T14:37:46Z</time></trkpt><trkpt lat="41.72425819869815" lon="19.97670001284323"><ele>228.0</ele><time>2026-04-29T14:37:47Z</time></trkpt><trkpt lat="41.72434219985166" lon="19.97680424090021"><ele>228.0</ele><time>2026-04-29T14:37:48Z</time></trkpt><trkpt lat="41.724413681597824" lon="19.976952264562083"><ele>229.75</ele><time>2026-04-29T14:37:49Z</time></trkpt><trkpt lat="41.72448389755635" lon="19.97711019125483"><ele>231.5</ele><time>2026-04-29T14:37:50Z</time></trkpt><trkpt lat="41.72456754484628" lon="19.977223371207742"><ele>233.25</ele><time>2026-04-29T14:37:51Z</time></trkpt><trkpt lat="41.72468203567209" lon="19.97729994006551"><ele>235.0</ele><time>2026-04-29T14:37:52Z</time></trkpt><trkpt lat="41.72482118566552" lon="19.97737365407584"><ele>235.0</ele><time>2026-04-29T14:37:53Z</time></trkpt><trkpt lat="41.724953481287244" lon="19.977415293944844"><ele>235.0</ele><time>2026-04-29T14:37:54Z</time></trkpt><trkpt lat="41.72505768338853" lon="19.977430469887512"><ele>235.0</ele><time>2026-04-29T14:37:55Z</time></trkpt><trkpt lat="41.72514467785366" lon="19.977386830027875"><ele>235.0</ele><time>2026-04-29T14:37:56Z</time></trkpt><trkpt lat="41.72521034635007" lon="19.977316762676967"><ele>235.0</ele><time>2026-04-29T14:37:57Z</time></trkpt><trkpt lat="41.72523505484788" lon="19.9771603094232"><ele>234.66666666666666</ele><time>2026-04-29T14:37:58Z</time></trkpt><trkpt lat="41.72524389935327" lon="19.976994533559115"><ele>234.33333333333331</ele><time>2026-04-29T14:37:59Z</time></trkpt><trkpt lat="41.72524093973414" lon="19.97678969057036"><ele>234.0</ele><time>2026-04-29T14:38:00Z</time></trkpt><trkpt lat="41.72524408684064" lon="19.976552666614346"><ele>234.0</ele><time>2026-04-29T14:38:01Z</time></trkpt><trkpt lat="41.72527480638148" lon="19.97629504066982"><ele>234.0</ele><time>2026-04-29T14:38:02Z</time></trkpt><trkpt lat="41.72531155273141" lon="19.97605839240368"><ele>234.0</ele><time>2026-04-29T14:38:03Z</time></trkpt><trkpt lat="41.72533619248239" lon="19.975858687446532"><ele>236.66666666666669</ele><time>2026-04-29T14:38:04Z</time></trkpt><trkpt lat="41.725425970663025" lon="19.975691916888067"><ele>239.33333333333334</ele><time>2026-04-29T14:38:05Z</time></trkpt><trkpt lat="41.72550841438139" lon="19.97549900860938"><ele>242.0</ele><time>2026-04-29T14:38:06Z</time></trkpt><trkpt lat="41.7255971840487" lon="19.975300743020377"><ele>242.0</ele><time>2026-04-29T14:38:07Z</time></trkpt><trkpt lat="41.72568952252282" lon="19.975114725985"><ele>242.0</ele><time>2026-04-29T14:38:08Z</time></trkpt><trkpt lat="41.72579399996023" lon="19.9749831841272"><ele>242.0</ele><time>2026-04-29T14:38:09Z</time></trkpt><trkpt lat="41.72591505391208" lon="19.974933715073664"><ele>242.0</ele><time>2026-04-29T14:38:10Z</time></trkpt><trkpt lat="41.72602099111163" lon="19.974853992058943"><ele>245.75</ele><time>2026-04-29T14:38:11Z</time></trkpt><trkpt lat="41.72615301951372" lon="19.9748789193158"><ele>249.5</ele><time>2026-04-29T14:38:12Z</time></trkpt><trkpt lat="41.72626743991163" lon="19.97489025240088"><ele>253.25</ele><time>2026-04-29T14:38:13Z</time></trkpt><trkpt lat="41.72639319818677" lon="19.97492515716788"><ele>257.0</ele><time>2026-04-29T14:38:14Z</time></trkpt><trkpt lat="41.72653226613914" lon="19.975009042667587"><ele>258.33333333333337</ele><time>2026-04-29T14:38:15Z</time></trkpt><trkpt lat="41.7266883956742" lon="19.975100273637107"><ele>259.6666666666667</ele><time>2026-04-29T14:38:16Z</time></trkpt><trkpt lat="41.72685825220556" lon="19.975186375603013"><ele>261.0</ele><time>2026-04-29T14:38:17Z</time></trkpt><trkpt lat="41.727032103293084" lon="19.975276312506534"><ele>261.0</ele><time>2026-04-29T14:38:18Z</time></trkpt><trkpt lat="41.72717507818513" lon="19.97535208829204"><ele>261.0</ele><time>2026-04-29T14:38:19Z</time></trkpt><trkpt lat="41.72730043414794" lon="19.975396013597177"><ele>261.0</ele><time>2026-04-29T14:38:20Z</time></trkpt><trkpt lat="41.72741359513034" lon="19.975420133180105"><ele>261.0</ele><time>2026-04-29T14:38:21Z</time></trkpt><trkpt lat="41.727523711251955" lon="19.97542013317779"><ele>261.0</ele><time>2026-04-29T14:38:22Z</time></trkpt><trkpt lat="41.72763670161257" lon="19.97533820195099"><ele>261.0</ele><time>2026-04-29T14:38:23Z</time></trkpt><trkpt lat="41.72770071105134" lon="19.975214501803872"><ele>261.0</ele><time>2026-04-29T14:38:24Z</time></trkpt><trkpt lat="41.72772400796594" lon="19.97507343150669"><ele>261.0</ele><time>2026-04-29T14:38:25Z</time></trkpt><trkpt lat="41.727730306374816" lon="19.974950886210276"><ele>261.0</ele><time>2026-04-29T14:38:26Z</time></trkpt><trkpt lat="41.727716215756395" lon="19.97481770017485"><ele>261.75</ele><time>2026-04-29T14:38:27Z</time></trkpt><trkpt lat="41.727690217353796" lon="19.97467558115448"><ele>262.5</ele><time>2026-04-29T14:38:28Z</time></trkpt><trkpt lat="41.72766506993724" lon="19.974506660112763"><ele>263.25</ele><time>2026-04-29T14:38:29Z</time></trkpt><trkpt lat="41.72767197884782" lon="19.974318458404863"><ele>264.0</ele><time>2026-04-29T14:38:30Z</time></trkpt><trkpt lat="41.72766447848958" lon="19.974105040871894"><ele>265.0</ele><time>2026-04-29T14:38:31Z</time></trkpt><trkpt lat="41.727649682110254" lon="19.97387260057912"><ele>266.0</ele><time>2026-04-29T14:38:32Z</time></trkpt><trkpt lat="41.72764600575998" lon="19.973621519559334"><ele>267.0</ele><time>2026-04-29T14:38:33Z</time></trkpt><trkpt lat="41.727632301472454" lon="19.97333954170232"><ele>267.0</ele><time>2026-04-29T14:38:34Z</time></trkpt><trkpt lat="41.72761679898362" lon="19.973086452930566"><ele>267.0</ele><time>2026-04-29T14:38:35Z</time></trkpt><trkpt lat="41.72760322247914" lon="19.972872425876833"><ele>267.0</ele><time>2026-04-29T14:38:36Z</time></trkpt><trkpt lat="41.72758127632094" lon="19.972690149716946"><ele>267.0</ele><time>2026-04-29T14:38:37Z</time></trkpt><trkpt lat="41.72754446778301" lon="19.972551675765036"><ele>267.0</ele><time>2026-04-29T14:38:38Z</time></trkpt><trkpt lat="41.72753482678296" lon="19.972421513368477"><ele>267.0</ele><time>2026-04-29T14:38:39Z</time></trkpt><trkpt lat="41.72750315641499" lon="19.97230807431309"><ele>267.0</ele><time>2026-04-29T14:38:40Z</time></trkpt><trkpt lat="41.72753700434858" lon="19.97219309199972"><ele>267.0</ele><time>2026-04-29T14:38:41Z</time></trkpt><trkpt lat="41.72754629002412" lon="19.97206132542658"><ele>267.25</ele><time>2026-04-29T14:38:42Z</time></trkpt><trkpt lat="41.72764839908419" lon="19.97198330512363"><ele>267.5</ele><time>2026-04-29T14:38:43Z</time></trkpt><trkpt lat="41.72773134375484" lon="19.97185203541025"><ele>267.75</ele><time>2026-04-29T14:38:44Z</time></trkpt><trkpt lat="41.72782007491947" lon="19.971691916735406"><ele>268.0</ele><time>2026-04-29T14:38:45Z</time></trkpt><trkpt lat="41.72790918644092" lon="19.971510107002192"><ele>265.3333333333333</ele><time>2026-04-29T14:38:46Z</time></trkpt><trkpt lat="41.72800207186606" lon="19.971321280435347"><ele>262.6666666666667</ele><time>2026-04-29T14:38:47Z</time></trkpt><trkpt lat="41.72809685485991" lon="19.97112313734844"><ele>260.0</ele><time>2026-04-29T14:38:48Z</time></trkpt><trkpt lat="41.72819336171737" lon="19.97091802872335"><ele>263.33333333333337</ele><time>2026-04-29T14:38:49Z</time></trkpt><trkpt lat="41.728292922444176" lon="19.970704750899188"><ele>266.6666666666667</ele><time>2026-04-29T14:38:50Z</time></trkpt><trkpt lat="41.728386583183145" lon="19.97050417800107"><ele>270.0</ele><time>2026-04-29T14:38:51Z</time></trkpt><trkpt lat="41.72847310091277" lon="19.970327043723035"><ele>270.0</ele><time>2026-04-29T14:38:52Z</time></trkpt><trkpt lat="41.72853113069147" lon="19.970139060552977"><ele>270.0</ele><time>2026-04-29T14:38:53Z</time></trkpt><trkpt lat="41.7285496559972" lon="19.969955831401762"><ele>270.0</ele><time>2026-04-29T14:38:54Z</time></trkpt><trkpt lat="41.72856289823497" lon="19.969788249078032"><ele>270.0</ele><time>2026-04-29T14:38:55Z</time></trkpt><trkpt lat="41.728584723691746" lon="19.969613101162622"><ele>268.0</ele><time>2026-04-29T14:38:56Z</time></trkpt><trkpt lat="41.728647236463424" lon="19.969472227726683"><ele>266.0</ele><time>2026-04-29T14:38:57Z</time></trkpt><trkpt lat="41.72874395213143" lon="19.969309860909046"><ele>264.0</ele><time>2026-04-29T14:38:58Z</time></trkpt><trkpt lat="41.72885749860553" lon="19.96913426450342"><ele>268.0</ele><time>2026-04-29T14:38:59Z</time></trkpt><trkpt lat="41.728975784033" lon="19.96895207112713"><ele>272.0</ele><time>2026-04-29T14:39:00Z</time></trkpt><trkpt lat="41.729099276855834" lon="19.968760735574634"><ele>276.0</ele><time>2026-04-29T14:39:01Z</time></trkpt><trkpt lat="41.72922577052824" lon="19.96856574354928"><ele>276.0</ele><time>2026-04-29T14:39:02Z</time></trkpt><trkpt lat="41.72933953071494" lon="19.968388945404037"><ele>276.0</ele><time>2026-04-29T14:39:03Z</time></trkpt><trkpt lat="41.72944146072034" lon="19.96824301423139"><ele>276.0</ele><time>2026-04-29T14:39:04Z</time></trkpt><trkpt lat="41.72954382656408" lon="19.96810263577867"><ele>278.25</ele><time>2026-04-29T14:39:05Z</time></trkpt><trkpt lat="41.72966538149115" lon="19.968030697611447"><ele>280.5</ele><time>2026-04-29T14:39:06Z</time></trkpt><trkpt lat="41.72978688907261" lon="19.967971087078165"><ele>282.75</ele><time>2026-04-29T14:39:07Z</time></trkpt><trkpt lat="41.72991398435934" lon="19.967914966859087"><ele>285.0</ele><time>2026-04-29T14:39:08Z</time></trkpt><trkpt lat="41.73004356145483" lon="19.967905221997267"><ele>285.0</ele><time>2026-04-29T14:39:09Z</time></trkpt><trkpt lat="41.730167074265296" lon="19.967915685759966"><ele>285.0</ele><time>2026-04-29T14:39:10Z</time></trkpt><trkpt lat="41.730286789987396" lon="19.967958488880974"><ele>285.0</ele><time>2026-04-29T14:39:11Z</time></trkpt><trkpt lat="41.73041682009075" lon="19.96800952165962"><ele>285.0</ele><time>2026-04-29T14:39:12Z</time></trkpt><trkpt lat="41.73055017649524" lon="19.96806348065614"><ele>289.6666666666667</ele><time>2026-04-29T14:39:13Z</time></trkpt><trkpt lat="41.73069528509782" lon="19.968099723070363"><ele>294.33333333333337</ele><time>2026-04-29T14:39:14Z</time></trkpt><trkpt lat="41.730846095155435" lon="19.968183092767678"><ele>299.0</ele><time>2026-04-29T14:39:15Z</time></trkpt><trkpt lat="41.73099365347701" lon="19.968277607336695"><ele>299.0</ele><time>2026-04-29T14:39:16Z</time></trkpt><trkpt lat="41.73111912871986" lon="19.96835328058678"><ele>299.0</ele><time>2026-04-29T14:39:17Z</time></trkpt><trkpt lat="41.731230025743805" lon="19.968399887279734"><ele>299.0</ele><time>2026-04-29T14:39:18Z</time></trkpt><trkpt lat="41.7313251392753" lon="19.968449119355903"><ele>299.0</ele><time>2026-04-29T14:39:19Z</time></trkpt><trkpt lat="41.73140995004125" lon="19.968430841592895"><ele>299.0</ele><time>2026-04-29T14:39:20Z</time></trkpt><trkpt lat="41.73147679834181" lon="19.96844884478793"><ele>299.59999999999997</ele><time>2026-04-29T14:39:21Z</time></trkpt><trkpt lat="41.73154487685007" lon="19.96847585722281"><ele>300.2</ele><time>2026-04-29T14:39:22Z</time></trkpt><trkpt lat="41.7316220572987" lon="19.9685306496638"><ele>300.79999999999995</ele><time>2026-04-29T14:39:23Z</time></trkpt><trkpt lat="41.73170146012945" lon="19.968621915327965"><ele>301.4</ele><time>2026-04-29T14:39:24Z</time></trkpt><trkpt lat="41.73177660480173" lon="19.96875072703464"><ele>302.0</ele><time>2026-04-29T14:39:25Z</time></trkpt><trkpt lat="41.73185064820941" lon="19.968906078244895"><ele>300.75</ele><time>2026-04-29T14:39:26Z</time></trkpt><trkpt lat="41.731920146796476" lon="19.96906448224384"><ele>299.5</ele><time>2026-04-29T14:39:27Z</time></trkpt><trkpt lat="41.73197812701275" lon="19.969200520448805"><ele>298.25</ele><time>2026-04-29T14:39:28Z</time></trkpt><trkpt lat="41.7320332522251" lon="19.969317924146"><ele>297.0</ele><time>2026-04-29T14:39:29Z</time></trkpt><trkpt lat="41.732084341708756" lon="19.969424619344327"><ele>297.0</ele><time>2026-04-29T14:39:30Z</time></trkpt><trkpt lat="41.73213337013475" lon="19.969510831633013"><ele>297.0</ele><time>2026-04-29T14:39:31Z</time></trkpt><trkpt lat="41.73218403931321" lon="19.969582974433376"><ele>297.0</ele><time>2026-04-29T14:39:32Z</time></trkpt><trkpt lat="41.73222130161144" lon="19.969665680426573"><ele>297.0</ele><time>2026-04-29T14:39:33Z</time></trkpt><trkpt lat="41.73231195277597" lon="19.9696897360016"><ele>297.0</ele><time>2026-04-29T14:39:34Z</time></trkpt><trkpt lat="41.73239667988754" lon="19.96973319274296"><ele>297.0</ele><time>2026-04-29T14:39:35Z</time></trkpt><trkpt lat="41.73247011179267" lon="19.969772089048014"><ele>297.0</ele><time>2026-04-29T14:39:36Z</time></trkpt><trkpt lat="41.732536681849005" lon="19.96980352657114"><ele>297.0</ele><time>2026-04-29T14:39:37Z</time></trkpt><trkpt lat="41.7326002937579" lon="19.969833390383048"><ele>297.0</ele><time>2026-04-29T14:39:38Z</time></trkpt><trkpt lat="41.73266934057442" lon="19.96986520609614"><ele>297.0</ele><time>2026-04-29T14:39:39Z</time></trkpt><trkpt lat="41.73276486889419" lon="19.969924933154086"><ele>297.0</ele><time>2026-04-29T14:39:40Z</time></trkpt><trkpt lat="41.73287539506582" lon="19.970028857012686"><ele>296.3333333333333</ele><time>2026-04-29T14:39:41Z</time></trkpt><trkpt lat="41.732990444155334" lon="19.970174740924964"><ele>295.66666666666663</ele><time>2026-04-29T14:39:42Z</time></trkpt><trkpt lat="41.733085642337656" lon="19.970341544033932"><ele>295.0</ele><time>2026-04-29T14:39:43Z</time></trkpt><trkpt lat="41.73316012271312" lon="19.9704967883287"><ele>295.0</ele><time>2026-04-29T14:39:44Z</time></trkpt><trkpt lat="41.73322150664816" lon="19.970626426388236"><ele>295.0</ele><time>2026-04-29T14:39:45Z</time></trkpt><trkpt lat="41.73327199091545" lon="19.970749582649518"><ele>295.0</ele><time>2026-04-29T14:39:46Z</time></trkpt><trkpt lat="41.7333026018369" lon="19.970880709791714"><ele>295.0</ele><time>2026-04-29T14:39:47Z</time></trkpt><trkpt lat="41.733313456620664" lon="19.971019925434305"><ele>295.0</ele><time>2026-04-29T14:39:48Z</time></trkpt><trkpt lat="41.73332297533784" lon="19.971174289124708"><ele>294.4</ele><time>2026-04-29T14:39:49Z</time></trkpt><trkpt lat="41.73333622236099" lon="19.971329987052755"><ele>293.8</ele><time>2026-04-29T14:39:50Z</time></trkpt><trkpt lat="41.73334446687195" lon="19.9714655104453"><ele>293.2</ele><time>2026-04-29T14:39:51Z</time></trkpt><trkpt lat="41.733354823098324" lon="19.971594117878286"><ele>292.6</ele><time>2026-04-29T14:39:52Z</time></trkpt><trkpt lat="41.7333710226894" lon="19.971718369849913"><ele>292.0</ele><time>2026-04-29T14:39:53Z</time></trkpt><trkpt lat="41.73336941275095" lon="19.971865854050822"><ele>292.5</ele><time>2026-04-29T14:39:54Z</time></trkpt><trkpt lat="41.733458332721675" lon="19.972002954380613"><ele>293.0</ele><time>2026-04-29T14:39:55Z</time></trkpt><trkpt lat="41.73349726399385" lon="19.9721467942373"><ele>293.5</ele><time>2026-04-29T14:39:56Z</time></trkpt><trkpt lat="41.733546677044146" lon="19.9722780239766"><ele>294.0</ele><time>2026-04-29T14:39:57Z</time></trkpt><trkpt lat="41.733599412771746" lon="19.97241993288948"><ele>292.59999999999997</ele><time>2026-04-29T14:39:58Z</time></trkpt><trkpt lat="41.733667274732824" lon="19.97255643367847"><ele>291.2</ele><time>2026-04-29T14:39:59Z</time></trkpt><trkpt lat="41.73372982645266" lon="19.972679338635444"><ele>289.79999999999995</ele><time>2026-04-29T14:40:00Z</time></trkpt><trkpt lat="41.733804048731244" lon="19.972784735041632"><ele>288.4</ele><time>2026-04-29T14:40:01Z</time></trkpt><trkpt lat="41.733881803836425" lon="19.97286014653023"><ele>287.0</ele><time>2026-04-29T14:40:02Z</time></trkpt><trkpt lat="41.733941231653496" lon="19.972938594567086"><ele>287.0</ele><time>2026-04-29T14:40:03Z</time></trkpt><trkpt lat="41.73404544786199" lon="19.972945697469818"><ele>287.0</ele><time>2026-04-29T14:40:04Z</time></trkpt><trkpt lat="41.734121835541735" lon="19.972942441758637"><ele>287.0</ele><time>2026-04-29T14:40:05Z</time></trkpt><trkpt lat="41.734196474096905" lon="19.97278058652031"><ele>287.0</ele><time>2026-04-29T14:40:06Z</time></trkpt><trkpt lat="41.73423158133455" lon="19.972624766537656"><ele>287.0</ele><time>2026-04-29T14:40:07Z</time></trkpt><trkpt lat="41.734288698179085" lon="19.972477642863257"><ele>287.25</ele><time>2026-04-29T14:40:08Z</time></trkpt><trkpt lat="41.734350431355686" lon="19.972318499359687"><ele>287.5</ele><time>2026-04-29T14:40:09Z</time></trkpt><trkpt lat="41.734428521075024" lon="19.972207016811637"><ele>287.75</ele><time>2026-04-29T14:40:10Z</time></trkpt><trkpt lat="41.734524657672786" lon="19.97210353406405"><ele>288.0</ele><time>2026-04-29T14:40:11Z</time></trkpt><trkpt lat="41.734609752470135" lon="19.972011936526503"><ele>288.0</ele><time>2026-04-29T14:40:12Z</time></trkpt><trkpt lat="41.73468791663597" lon="19.97192946008712"><ele>288.0</ele><time>2026-04-29T14:40:13Z</time></trkpt><trkpt lat="41.734780400007246" lon="19.971908241051555"><ele>288.0</ele><time>2026-04-29T14:40:14Z</time></trkpt><trkpt lat="41.734866150107074" lon="19.971896679207834"><ele>288.0</ele><time>2026-04-29T14:40:15Z</time></trkpt><trkpt lat="41.73494991901219" lon="19.971972019665458"><ele>288.0</ele><time>2026-04-29T14:40:16Z</time></trkpt><trkpt lat="41.73505265443967" lon="19.972027624513018"><ele>288.0</ele><time>2026-04-29T14:40:17Z</time></trkpt><trkpt lat="41.735157138242585" lon="19.972103428415554"><ele>288.0</ele><time>2026-04-29T14:40:18Z</time></trkpt><trkpt lat="41.735256972301606" lon="19.972157561131542"><ele>288.0</ele><time>2026-04-29T14:40:19Z</time></trkpt><trkpt lat="41.7353575289623" lon="19.972189591084536"><ele>288.0</ele><time>2026-04-29T14:40:20Z</time></trkpt><trkpt lat="41.735451835368494" lon="19.972223782197783"><ele>288.0</ele><time>2026-04-29T14:40:21Z</time></trkpt><trkpt lat="41.735532911107285" lon="19.972283502355406"><ele>288.8</ele><time>2026-04-29T14:40:22Z</time></trkpt><trkpt lat="41.735598070724265" lon="19.97238220637893"><ele>289.6</ele><time>2026-04-29T14:40:23Z</time></trkpt><trkpt lat="41.73563366880793" lon="19.972497071271288"><ele>290.4</ele><time>2026-04-29T14:40:24Z</time></trkpt><trkpt lat="41.73565954158037" lon="19.972617876106124"><ele>291.2</ele><time>2026-04-29T14:40:25Z</time></trkpt><trkpt lat="41.73559666470175" lon="19.972768412096258"><ele>292.0</ele><time>2026-04-29T14:40:26Z</time></trkpt><trkpt lat="41.73555424099582" lon="19.972923462567117"><ele>292.0</ele><time>2026-04-29T14:40:27Z</time></trkpt><trkpt lat="41.73556886299694" lon="19.973081862592913"><ele>292.0</ele><time>2026-04-29T14:40:28Z</time></trkpt><trkpt lat="41.73559924071569" lon="19.97320891484058"><ele>292.0</ele><time>2026-04-29T14:40:29Z</time></trkpt><trkpt lat="41.735659309439434" lon="19.973322869822763"><ele>292.0</ele><time>2026-04-29T14:40:30Z</time></trkpt><trkpt lat="41.735745793642664" lon="19.97342209156004"><ele>292.0</ele><time>2026-04-29T14:40:31Z</time></trkpt><trkpt lat="41.735854657957326" lon="19.97352015924838"><ele>292.66666666666663</ele><time>2026-04-29T14:40:32Z</time></trkpt><trkpt lat="41.73597972431323" lon="19.973624420921833"><ele>293.3333333333333</ele><time>2026-04-29T14:40:33Z</time></trkpt><trkpt lat="41.736110078384854" lon="19.973748054755355"><ele>294.0</ele><time>2026-04-29T14:40:34Z</time></trkpt><trkpt lat="41.736229826751156" lon="19.97388901831158"><ele>294.0</ele><time>2026-04-29T14:40:35Z</time></trkpt><trkpt lat="41.736344589006265" lon="19.97403654570804"><ele>294.0</ele><time>2026-04-29T14:40:36Z</time></trkpt><trkpt lat="41.73644825747787" lon="19.974157663701025"><ele>294.0</ele><time>2026-04-29T14:40:37Z</time></trkpt><trkpt lat="41.73654234206132" lon="19.97424623511616"><ele>294.0</ele><time>2026-04-29T14:40:38Z</time></trkpt><trkpt lat="41.73662752081375" lon="19.974295494821718"><ele>293.59999999999997</ele><time>2026-04-29T14:40:39Z</time></trkpt><trkpt lat="41.736699953013215" lon="19.97434830850826"><ele>293.2</ele><time>2026-04-29T14:40:40Z</time></trkpt><trkpt lat="41.73676870455264" lon="19.974387238367562"><ele>292.79999999999995</ele><time>2026-04-29T14:40:41Z</time></trkpt><trkpt lat="41.7368931342377" lon="19.974249684743064"><ele>292.4</ele><time>2026-04-29T14:40:42Z</time></trkpt><trkpt lat="41.73700149584149" lon="19.974199356596646"><ele>292.0</ele><time>2026-04-29T14:40:43Z</time></trkpt><trkpt lat="41.73710200107474" lon="19.974088361876735"><ele>292.0</ele><time>2026-04-29T14:40:44Z</time></trkpt><trkpt lat="41.73721165936532" lon="19.97398561226443"><ele>292.0</ele><time>2026-04-29T14:40:45Z</time></trkpt><trkpt lat="41.73732275403797" lon="19.973896140413938"><ele>292.0</ele><time>2026-04-29T14:40:46Z</time></trkpt><trkpt lat="41.73742878537992" lon="19.97387116247139"><ele>292.0</ele><time>2026-04-29T14:40:47Z</time></trkpt><trkpt lat="41.73752207936623" lon="19.97380911459043"><ele>292.0</ele><time>2026-04-29T14:40:48Z</time></trkpt><trkpt lat="41.73764433589201" lon="19.97383377837327"><ele>292.0</ele><time>2026-04-29T14:40:49Z</time></trkpt><trkpt lat="41.73777534834887" lon="19.973824657834587"><ele>292.0</ele><time>2026-04-29T14:40:50Z</time></trkpt><trkpt lat="41.73791922857712" lon="19.9738012507138"><ele>292.0</ele><time>2026-04-29T14:40:51Z</time></trkpt><trkpt lat="41.738050053252245" lon="19.97378950034083"><ele>291.5</ele><time>2026-04-29T14:40:52Z</time></trkpt><trkpt lat="41.738165844273354" lon="19.973784352150556"><ele>291.0</ele><time>2026-04-29T14:40:53Z</time></trkpt><trkpt lat="41.738283918545825" lon="19.97378836097186"><ele>290.5</ele><time>2026-04-29T14:40:54Z</time></trkpt><trkpt lat="41.738410492797534" lon="19.973805059770626"><ele>290.0</ele><time>2026-04-29T14:40:55Z</time></trkpt><trkpt lat="41.73854811912816" lon="19.973838062925992"><ele>291.33333333333337</ele><time>2026-04-29T14:40:56Z</time></trkpt><trkpt lat="41.73868527163206" lon="19.973902841602655"><ele>292.6666666666667</ele><time>2026-04-29T14:40:57Z</time></trkpt><trkpt lat="41.73883083567582" lon="19.97395794149974"><ele>294.0</ele><time>2026-04-29T14:40:58Z</time></trkpt><trkpt lat="41.73897997413198" lon="19.97401439439779"><ele>294.0</ele><time>2026-04-29T14:40:59Z</time></trkpt><trkpt lat="41.73913367325333" lon="19.974071760376663"><ele>294.0</ele><time>2026-04-29T14:41:00Z</time></trkpt><trkpt lat="41.73928996231173" lon="19.97411698343912"><ele>294.0</ele><time>2026-04-29T14:41:01Z</time></trkpt><trkpt lat="41.73942007346845" lon="19.974172099756274"><ele>295.0</ele><time>2026-04-29T14:41:02Z</time></trkpt><trkpt lat="41.73954094686794" lon="19.974201415165318"><ele>296.0</ele><time>2026-04-29T14:41:03Z</time></trkpt><trkpt lat="41.73967341547473" lon="19.97419604301326"><ele>297.0</ele><time>2026-04-29T14:41:04Z</time></trkpt><trkpt lat="41.739810616590994" lon="19.974159135988494"><ele>298.0</ele><time>2026-04-29T14:41:05Z</time></trkpt><trkpt lat="41.739963891764354" lon="19.974101914117195"><ele>298.0</ele><time>2026-04-29T14:41:06Z</time></trkpt><trkpt lat="41.74013046632305" lon="19.97402268804183"><ele>298.0</ele><time>2026-04-29T14:41:07Z</time></trkpt><trkpt lat="41.74031431337698" lon="19.973930258134775"><ele>298.0</ele><time>2026-04-29T14:41:08Z</time></trkpt><trkpt lat="41.740533792793784" lon="19.973822074218155"><ele>301.5</ele><time>2026-04-29T14:41:09Z</time></trkpt><trkpt lat="41.74078784418581" lon="19.973700319648835"><ele>305.0</ele><time>2026-04-29T14:41:10Z</time></trkpt><trkpt lat="41.74105719469721" lon="19.97357674913313"><ele>306.5</ele><time>2026-04-29T14:41:11Z</time></trkpt><trkpt lat="41.74129516111232" lon="19.97346609889206"><ele>308.0</ele><time>2026-04-29T14:41:12Z</time></trkpt><trkpt lat="41.74149748934343" lon="19.973390078504686"><ele>308.0</ele><time>2026-04-29T14:41:13Z</time></trkpt><trkpt lat="41.74167790322282" lon="19.973305712114875"><ele>308.0</ele><time>2026-04-29T14:41:14Z</time></trkpt><trkpt lat="41.74184678652004" lon="19.97322621794057"><ele>308.0</ele><time>2026-04-29T14:41:15Z</time></trkpt><trkpt lat="41.74199500100284" lon="19.97313355175415"><ele>308.0</ele><time>2026-04-29T14:41:16Z</time></trkpt><trkpt lat="41.742146786828776" lon="19.973091465109903"><ele>308.0</ele><time>2026-04-29T14:41:17Z</time></trkpt><trkpt lat="41.74230778080489" lon="19.973057163001304"><ele>308.0</ele><time>2026-04-29T14:41:18Z</time></trkpt><trkpt lat="41.74247830751687" lon="19.97305455440997"><ele>308.0</ele><time>2026-04-29T14:41:19Z</time></trkpt><trkpt lat="41.74265463446135" lon="19.97305353193521"><ele>308.0</ele><time>2026-04-29T14:41:20Z</time></trkpt><trkpt lat="41.74283744519442" lon="19.973036538474407"><ele>308.0</ele><time>2026-04-29T14:41:21Z</time></trkpt><trkpt lat="41.743004528883" lon="19.973047584168086"><ele>308.5</ele><time>2026-04-29T14:41:22Z</time></trkpt><trkpt lat="41.74314620554861" lon="19.973047776660977"><ele>309.0</ele><time>2026-04-29T14:41:23Z</time></trkpt><trkpt lat="41.74327029443793" lon="19.97304357397811"><ele>309.5</ele><time>2026-04-29T14:41:24Z</time></trkpt><trkpt lat="41.74338139057816" lon="19.973017813902494"><ele>310.0</ele><time>2026-04-29T14:41:25Z</time></trkpt><trkpt lat="41.74348923772627" lon="19.973016617177148"><ele>311.0</ele><time>2026-04-29T14:41:26Z</time></trkpt><trkpt lat="41.74356879974002" lon="19.972895266592875"><ele>312.0</ele><time>2026-04-29T14:41:27Z</time></trkpt><trkpt lat="41.74365131886305" lon="19.972829490281473"><ele>313.0</ele><time>2026-04-29T14:41:28Z</time></trkpt><trkpt lat="41.74372784648075" lon="19.972738376932202"><ele>314.0</ele><time>2026-04-29T14:41:29Z</time></trkpt><trkpt lat="41.74381124955276" lon="19.972638895545483"><ele>315.0</ele><time>2026-04-29T14:41:30Z</time></trkpt><trkpt lat="41.74387814375243" lon="19.97252945089632"><ele>313.8333333333333</ele><time>2026-04-29T14:41:31Z</time></trkpt><trkpt lat="41.743955640660054" lon="19.972460997270264"><ele>312.6666666666667</ele><time>2026-04-29T14:41:32Z</time></trkpt><trkpt lat="41.744031747438385" lon="19.972400131951687"><ele>311.5</ele><time>2026-04-29T14:41:33Z</time></trkpt><trkpt lat="41.74409511378145" lon="19.97235452975272"><ele>310.33333333333337</ele><time>2026-04-29T14:41:34Z</time></trkpt><trkpt lat="41.744156437366456" lon="19.972333295593568"><ele>309.1666666666667</ele><time>2026-04-29T14:41:35Z</time></trkpt><trkpt lat="41.74421942132066" lon="19.972340980097098"><ele>308.0</ele><time>2026-04-29T14:41:36Z</time></trkpt><trkpt lat="41.74428716180789" lon="19.972373378234927"><ele>308.0</ele><time>2026-04-29T14:41:37Z</time></trkpt><trkpt lat="41.74436270308641" lon="19.97243400334607"><ele>308.0</ele><time>2026-04-29T14:41:38Z</time></trkpt><trkpt lat="41.74444177408564" lon="19.972536428251182"><ele>308.0</ele><time>2026-04-29T14:41:39Z</time></trkpt><trkpt lat="41.7445146769023" lon="19.972669984429288"><ele>308.0</ele><time>2026-04-29T14:41:40Z</time></trkpt><trkpt lat="41.74457088608194" lon="19.97280983440796"><ele>308.0</ele><time>2026-04-29T14:41:41Z</time></trkpt><trkpt lat="41.74464245785313" lon="19.972896883935974"><ele>307.75</ele><time>2026-04-29T14:41:42Z</time></trkpt><trkpt lat="41.74475472625551" lon="19.97291608434038"><ele>307.5</ele><time>2026-04-29T14:41:43Z</time></trkpt><trkpt lat="41.74487120535342" lon="19.97289637596998"><ele>307.25</ele><time>2026-04-29T14:41:44Z</time></trkpt><trkpt lat="41.744988380724294" lon="19.972882904189618"><ele>307.0</ele><time>2026-04-29T14:41:45Z</time></trkpt><trkpt lat="41.74510816466321" lon="19.972861665021526"><ele>308.0</ele><time>2026-04-29T14:41:46Z</time></trkpt><trkpt lat="41.7452314244796" lon="19.97283448141527"><ele>309.0</ele><time>2026-04-29T14:41:47Z</time></trkpt><trkpt lat="41.74536090823888" lon="19.972839703529704"><ele>310.0</ele><time>2026-04-29T14:41:48Z</time></trkpt><trkpt lat="41.74547852325547" lon="19.97277683148277"><ele>311.0</ele><time>2026-04-29T14:41:49Z</time></trkpt><trkpt lat="41.74557923759941" lon="19.97273937290335"><ele>311.0</ele><time>2026-04-29T14:41:50Z</time></trkpt><trkpt lat="41.74567060367302" lon="19.972683075335325"><ele>311.0</ele><time>2026-04-29T14:41:51Z</time></trkpt><trkpt lat="41.74576826908852" lon="19.972597618973225"><ele>311.0</ele><time>2026-04-29T14:41:52Z</time></trkpt><trkpt lat="41.74586298652826" lon="19.97249469098769"><ele>311.0</ele><time>2026-04-29T14:41:53Z</time></trkpt><trkpt lat="41.74596359898323" lon="19.972367460735278"><ele>311.33333333333337</ele><time>2026-04-29T14:41:54Z</time></trkpt><trkpt lat="41.746077063782856" lon="19.97221497736294"><ele>311.6666666666667</ele><time>2026-04-29T14:41:55Z</time></trkpt><trkpt lat="41.74618399346395" lon="19.97206579261849"><ele>312.0</ele><time>2026-04-29T14:41:56Z</time></trkpt><trkpt lat="41.74628574368063" lon="19.971925724925665"><ele>312.0</ele><time>2026-04-29T14:41:57Z</time></trkpt><trkpt lat="41.74639295207356" lon="19.97178035084356"><ele>312.0</ele><time>2026-04-29T14:41:58Z</time></trkpt><trkpt lat="41.74658593621995" lon="19.971488636460794"><ele>312.0</ele><time>2026-04-29T14:42:00Z</time></trkpt><trkpt lat="41.7466633480194" lon="19.971323935775942"><ele>309.6666666666667</ele><time>2026-04-29T14:42:01Z</time></trkpt><trkpt lat="41.74673181774392" lon="19.971140122044954"><ele>307.33333333333337</ele><time>2026-04-29T14:42:02Z</time></trkpt><trkpt lat="41.746798708015966" lon="19.9709415479415"><ele>305.0</ele><time>2026-04-29T14:42:03Z</time></trkpt><trkpt lat="41.74686418837927" lon="19.970763959783977"><ele>305.25</ele><time>2026-04-29T14:42:04Z</time></trkpt><trkpt lat="41.74692020663473" lon="19.97060122208805"><ele>305.5</ele><time>2026-04-29T14:42:05Z</time></trkpt><trkpt lat="41.746963718739615" lon="19.970449121620366"><ele>305.75</ele><time>2026-04-29T14:42:06Z</time></trkpt><trkpt lat="41.7469915660183" lon="19.970303984712707"><ele>306.0</ele><time>2026-04-29T14:42:07Z</time></trkpt><trkpt lat="41.74699023791951" lon="19.970163476483222"><ele>306.0</ele><time>2026-04-29T14:42:08Z</time></trkpt><trkpt lat="41.74695042745339" lon="19.970042183283596"><ele>306.0</ele><time>2026-04-29T14:42:09Z</time></trkpt><trkpt lat="41.746878473130515" lon="19.96994667367508"><ele>306.0</ele><time>2026-04-29T14:42:10Z</time></trkpt><trkpt lat="41.74678225612252" lon="19.969870620920634"><ele>306.0</ele><time>2026-04-29T14:42:11Z</time></trkpt><trkpt lat="41.74668076670657" lon="19.96977463015647"><ele>306.0</ele><time>2026-04-29T14:42:12Z</time></trkpt><trkpt lat="41.74658900360552" lon="19.969646094497673"><ele>304.25</ele><time>2026-04-29T14:42:13Z</time></trkpt><trkpt lat="41.74651707821549" lon="19.969483677574775"><ele>302.5</ele><time>2026-04-29T14:42:14Z</time></trkpt><trkpt lat="41.74645483162514" lon="19.969299367886073"><ele>300.75</ele><time>2026-04-29T14:42:15Z</time></trkpt><trkpt lat="41.74640222862799" lon="19.969100830930955"><ele>299.0</ele><time>2026-04-29T14:42:16Z</time></trkpt><trkpt lat="41.746350249987294" lon="19.968881953071204"><ele>299.0</ele><time>2026-04-29T14:42:17Z</time></trkpt><trkpt lat="41.74629828287817" lon="19.9686446708352"><ele>299.0</ele><time>2026-04-29T14:42:18Z</time></trkpt><trkpt lat="41.7462416251539" lon="19.968403852212408"><ele>299.0</ele><time>2026-04-29T14:42:19Z</time></trkpt><trkpt lat="41.746196719165674" lon="19.968204618328446"><ele>298.75</ele><time>2026-04-29T14:42:20Z</time></trkpt><trkpt lat="41.746160394187186" lon="19.968027647238685"><ele>298.5</ele><time>2026-04-29T14:42:21Z</time></trkpt><trkpt lat="41.74614014696625" lon="19.967866654409615"><ele>298.25</ele><time>2026-04-29T14:42:22Z</time></trkpt><trkpt lat="41.74615044913416" lon="19.96771877149787"><ele>298.0</ele><time>2026-04-29T14:42:23Z</time></trkpt><trkpt lat="41.746201552076975" lon="19.967602939405072"><ele>298.0</ele><time>2026-04-29T14:42:24Z</time></trkpt><trkpt lat="41.74629814098601" lon="19.967561810665455"><ele>298.0</ele><time>2026-04-29T14:42:25Z</time></trkpt><trkpt lat="41.746385473214595" lon="19.967486723466934"><ele>298.0</ele><time>2026-04-29T14:42:26Z</time></trkpt><trkpt lat="41.746509758573254" lon="19.9674648967155"><ele>298.0</ele><time>2026-04-29T14:42:27Z</time></trkpt><trkpt lat="41.74664979366992" lon="19.967466292300276"><ele>297.25</ele><time>2026-04-29T14:42:28Z</time></trkpt><trkpt lat="41.746779838814874" lon="19.967501033315955"><ele>296.5</ele><time>2026-04-29T14:42:29Z</time></trkpt><trkpt lat="41.74689084331062" lon="19.96761779821411"><ele>295.75</ele><time>2026-04-29T14:42:30Z</time></trkpt><trkpt lat="41.747025153629934" lon="19.967712971549997"><ele>295.0</ele><time>2026-04-29T14:42:31Z</time></trkpt><trkpt lat="41.74714467970249" lon="19.96779766946756"><ele>296.2</ele><time>2026-04-29T14:42:32Z</time></trkpt><trkpt lat="41.747251663861796" lon="19.96783512895846"><ele>297.4</ele><time>2026-04-29T14:42:33Z</time></trkpt><trkpt lat="41.747340984321134" lon="19.967879391011152"><ele>298.6</ele><time>2026-04-29T14:42:34Z</time></trkpt><trkpt lat="41.74743188887315" lon="19.967899031613232"><ele>299.8</ele><time>2026-04-29T14:42:35Z</time></trkpt><trkpt lat="41.74752262276786" lon="19.967917676967005"><ele>301.0</ele><time>2026-04-29T14:42:36Z</time></trkpt><trkpt lat="41.74761368486481" lon="19.9678639695141"><ele>301.0</ele><time>2026-04-29T14:42:37Z</time></trkpt><trkpt lat="41.74770342293747" lon="19.967805183207325"><ele>301.0</ele><time>2026-04-29T14:42:38Z</time></trkpt><trkpt lat="41.74779597749481" lon="19.967734006992593"><ele>301.0</ele><time>2026-04-29T14:42:39Z</time></trkpt><trkpt lat="41.74790201753095" lon="19.967650873558455"><ele>301.0</ele><time>2026-04-29T14:42:40Z</time></trkpt><trkpt lat="41.7480095875249" lon="19.967578861496648"><ele>300.40000000000003</ele><time>2026-04-29T14:42:41Z</time></trkpt><trkpt lat="41.748113222042115" lon="19.96758938598714"><ele>299.8</ele><time>2026-04-29T14:42:42Z</time></trkpt><trkpt lat="41.74821304767935" lon="19.967647604519765"><ele>299.20000000000005</ele><time>2026-04-29T14:42:43Z</time></trkpt><trkpt lat="41.74830248509677" lon="19.96764162258422"><ele>298.6</ele><time>2026-04-29T14:42:44Z</time></trkpt><trkpt lat="41.748384408161684" lon="19.96763614301823"><ele>298.0</ele><time>2026-04-29T14:42:45Z</time></trkpt><trkpt lat="41.74847807786466" lon="19.967629878056457"><ele>297.4</ele><time>2026-04-29T14:42:46Z</time></trkpt><trkpt lat="41.748572193397" lon="19.96749791123992"><ele>296.8</ele><time>2026-04-29T14:42:47Z</time></trkpt><trkpt lat="41.748637934138465" lon="19.967393050156854"><ele>296.2</ele><time>2026-04-29T14:42:48Z</time></trkpt><trkpt lat="41.74867051284659" lon="19.96727711403582"><ele>295.6</ele><time>2026-04-29T14:42:49Z</time></trkpt><trkpt lat="41.74867770757191" lon="19.967139080132686"><ele>295.0</ele><time>2026-04-29T14:42:50Z</time></trkpt><trkpt lat="41.748683208085836" lon="19.966974627631014"><ele>295.0</ele><time>2026-04-29T14:42:51Z</time></trkpt><trkpt lat="41.74869943514471" lon="19.96679912011178"><ele>295.0</ele><time>2026-04-29T14:42:52Z</time></trkpt><trkpt lat="41.7487247024885" lon="19.966623391027486"><ele>295.0</ele><time>2026-04-29T14:42:53Z</time></trkpt><trkpt lat="41.748760697078595" lon="19.966475338977673"><ele>295.0</ele><time>2026-04-29T14:42:54Z</time></trkpt><trkpt lat="41.74880776410793" lon="19.966360076661303"><ele>294.0</ele><time>2026-04-29T14:42:55Z</time></trkpt><trkpt lat="41.74887801368359" lon="19.966280228278734"><ele>293.0</ele><time>2026-04-29T14:42:56Z</time></trkpt><trkpt lat="41.74897553477938" lon="19.966226063229684"><ele>292.0</ele><time>2026-04-29T14:42:57Z</time></trkpt><trkpt lat="41.74908874716595" lon="19.96616998910168"><ele>291.0</ele><time>2026-04-29T14:42:58Z</time></trkpt><trkpt lat="41.7492019411915" lon="19.966090950262917"><ele>290.0</ele><time>2026-04-29T14:42:59Z</time></trkpt><trkpt lat="41.749296286200796" lon="19.96598511106241"><ele>290.0</ele><time>2026-04-29T14:43:00Z</time></trkpt><trkpt lat="41.749372792858686" lon="19.965888269997222"><ele>290.0</ele><time>2026-04-29T14:43:01Z</time></trkpt><trkpt lat="41.74939229906191" lon="19.965730379953794"><ele>290.0</ele><time>2026-04-29T14:43:02Z</time></trkpt><trkpt lat="41.749402641504396" lon="19.965581858834994"><ele>290.0</ele><time>2026-04-29T14:43:03Z</time></trkpt><trkpt lat="41.74939645629777" lon="19.965410382147837"><ele>290.25</ele><time>2026-04-29T14:43:04Z</time></trkpt><trkpt lat="41.749384515597505" lon="19.96521704707424"><ele>290.5</ele><time>2026-04-29T14:43:05Z</time></trkpt><trkpt lat="41.749362394367004" lon="19.965017011976435"><ele>290.75</ele><time>2026-04-29T14:43:06Z</time></trkpt><trkpt lat="41.74933542608728" lon="19.96484537693962"><ele>291.0</ele><time>2026-04-29T14:43:07Z</time></trkpt><trkpt lat="41.749306987355794" lon="19.964690936453064"><ele>289.75</ele><time>2026-04-29T14:43:08Z</time></trkpt><trkpt lat="41.749293973742944" lon="19.96454304574388"><ele>288.5</ele><time>2026-04-29T14:43:09Z</time></trkpt><trkpt lat="41.74931264135757" lon="19.964380941351884"><ele>287.25</ele><time>2026-04-29T14:43:10Z</time></trkpt><trkpt lat="41.74935971120275" lon="19.964207949598016"><ele>286.0</ele><time>2026-04-29T14:43:11Z</time></trkpt><trkpt lat="41.74941295169229" lon="19.964037699807296"><ele>286.0</ele><time>2026-04-29T14:43:12Z</time></trkpt><trkpt lat="41.74943229513957" lon="19.963875223012487"><ele>286.0</ele><time>2026-04-29T14:43:13Z</time></trkpt><trkpt lat="41.749410623533166" lon="19.963704885073017"><ele>286.0</ele><time>2026-04-29T14:43:14Z</time></trkpt><trkpt lat="41.749359202354704" lon="19.96353093611079"><ele>286.0</ele><time>2026-04-29T14:43:15Z</time></trkpt><trkpt lat="41.74930165564399" lon="19.963348315192405"><ele>282.5</ele><time>2026-04-29T14:43:16Z</time></trkpt><trkpt lat="41.749262085583595" lon="19.963179871723092"><ele>279.0</ele><time>2026-04-29T14:43:17Z</time></trkpt><trkpt lat="41.749219942392045" lon="19.963025920239982"><ele>275.5</ele><time>2026-04-29T14:43:18Z</time></trkpt><trkpt lat="41.74914889195723" lon="19.9628861837013"><ele>272.0</ele><time>2026-04-29T14:43:19Z</time></trkpt><trkpt lat="41.74906225655826" lon="19.96276244095094"><ele>272.0</ele><time>2026-04-29T14:43:20Z</time></trkpt><trkpt lat="41.74897087067267" lon="19.962634414505224"><ele>272.0</ele><time>2026-04-29T14:43:21Z</time></trkpt><trkpt lat="41.74889340507551" lon="19.962510219555963"><ele>272.0</ele><time>2026-04-29T14:43:22Z</time></trkpt><trkpt lat="41.74883624459309" lon="19.962388106584687"><ele>272.0</ele><time>2026-04-29T14:43:23Z</time></trkpt><trkpt lat="41.748802895091245" lon="19.962260259032785"><ele>272.2</ele><time>2026-04-29T14:43:24Z</time></trkpt><trkpt lat="41.74878182196366" lon="19.962117495577477"><ele>272.4</ele><time>2026-04-29T14:43:25Z</time></trkpt><trkpt lat="41.748773284647214" lon="19.961962497706036"><ele>272.6</ele><time>2026-04-29T14:43:26Z</time></trkpt><trkpt lat="41.74879010331353" lon="19.961816144151634"><ele>272.8</ele><time>2026-04-29T14:43:27Z</time></trkpt><trkpt lat="41.74883030822487" lon="19.961693353140774"><ele>273.0</ele><time>2026-04-29T14:43:28Z</time></trkpt><trkpt lat="41.74887305214236" lon="19.961578079678638"><ele>273.0</ele><time>2026-04-29T14:43:29Z</time></trkpt><trkpt lat="41.74889460361964" lon="19.96146158028065"><ele>273.0</ele><time>2026-04-29T14:43:30Z</time></trkpt><trkpt lat="41.74887929208304" lon="19.961339231128285"><ele>273.0</ele><time>2026-04-29T14:43:31Z</time></trkpt><trkpt lat="41.748834399631846" lon="19.96120894217766"><ele>273.0</ele><time>2026-04-29T14:43:32Z</time></trkpt><trkpt lat="41.74877040473214" lon="19.96105959102942"><ele>273.0</ele><time>2026-04-29T14:43:33Z</time></trkpt><trkpt lat="41.748705598987705" lon="19.960898820300905"><ele>272.75</ele><time>2026-04-29T14:43:34Z</time></trkpt><trkpt lat="41.748663748667326" lon="19.96074998817519"><ele>272.5</ele><time>2026-04-29T14:43:35Z</time></trkpt><trkpt lat="41.74864349486373" lon="19.96060403336962"><ele>272.25</ele><time>2026-04-29T14:43:36Z</time></trkpt><trkpt lat="41.74866947680204" lon="19.960450542975742"><ele>272.0</ele><time>2026-04-29T14:43:37Z</time></trkpt><trkpt lat="41.74866937212744" lon="19.960285535764477"><ele>272.0</ele><time>2026-04-29T14:43:38Z</time></trkpt><trkpt lat="41.74871463580462" lon="19.96013085604528"><ele>272.0</ele><time>2026-04-29T14:43:39Z</time></trkpt><trkpt lat="41.748775364599204" lon="19.959998742156635"><ele>272.0</ele><time>2026-04-29T14:43:40Z</time></trkpt><trkpt lat="41.74885735808778" lon="19.959893122497302"><ele>272.0</ele><time>2026-04-29T14:43:41Z</time></trkpt><trkpt lat="41.74895745964966" lon="19.959801937380757"><ele>269.8</ele><time>2026-04-29T14:43:42Z</time></trkpt><trkpt lat="41.74905679812774" lon="19.95972574644098"><ele>267.6</ele><time>2026-04-29T14:43:43Z</time></trkpt><trkpt lat="41.74913150614668" lon="19.959646770009662"><ele>265.40000000000003</ele><time>2026-04-29T14:43:44Z</time></trkpt><trkpt lat="41.749193967535845" lon="19.959569892770666"><ele>263.2</ele><time>2026-04-29T14:43:45Z</time></trkpt><trkpt lat="41.74923213114027" lon="19.9594261085768"><ele>261.0</ele><time>2026-04-29T14:43:46Z</time></trkpt><trkpt lat="41.74925709417631" lon="19.959283290538245"><ele>260.0</ele><time>2026-04-29T14:43:47Z</time></trkpt><trkpt lat="41.74917574639455" lon="19.95910149496807"><ele>259.0</ele><time>2026-04-29T14:43:48Z</time></trkpt><trkpt lat="41.74913830802925" lon="19.958941581786508"><ele>258.0</ele><time>2026-04-29T14:43:49Z</time></trkpt><trkpt lat="41.74911766195049" lon="19.958796589009644"><ele>257.0</ele><time>2026-04-29T14:43:50Z</time></trkpt><trkpt lat="41.749129093875894" lon="19.958683256328882"><ele>257.0</ele><time>2026-04-29T14:43:51Z</time></trkpt><trkpt lat="41.749177893743436" lon="19.958600781250468"><ele>257.0</ele><time>2026-04-29T14:43:52Z</time></trkpt><trkpt lat="41.749238510868274" lon="19.95853336824032"><ele>257.0</ele><time>2026-04-29T14:43:53Z</time></trkpt><trkpt lat="41.74930855291881" lon="19.958462298670018"><ele>257.0</ele><time>2026-04-29T14:43:54Z</time></trkpt><trkpt lat="41.74939822734917" lon="19.95837898632104"><ele>257.0</ele><time>2026-04-29T14:43:55Z</time></trkpt><trkpt lat="41.74948776355189" lon="19.958314657256754"><ele>257.2</ele><time>2026-04-29T14:43:56Z</time></trkpt><trkpt lat="41.74952696447013" lon="19.958196248108045"><ele>257.4</ele><time>2026-04-29T14:43:57Z</time></trkpt><trkpt lat="41.749567363835155" lon="19.958115436144805"><ele>257.6</ele><time>2026-04-29T14:43:58Z</time></trkpt><trkpt lat="41.74954269543672" lon="19.95798212430438"><ele>257.8</ele><time>2026-04-29T14:43:59Z</time></trkpt><trkpt lat="41.74956348546945" lon="19.957840713824712"><ele>258.0</ele><time>2026-04-29T14:44:00Z</time></trkpt><trkpt lat="41.7495791077715" lon="19.957675548767394"><ele>256.0</ele><time>2026-04-29T14:44:01Z</time></trkpt><trkpt lat="41.74958350846631" lon="19.95748365414711"><ele>254.0</ele><time>2026-04-29T14:44:02Z</time></trkpt><trkpt lat="41.74961948759956" lon="19.957301621656907"><ele>252.0</ele><time>2026-04-29T14:44:03Z</time></trkpt><trkpt lat="41.74962957753323" lon="19.957141953807433"><ele>250.0</ele><time>2026-04-29T14:44:04Z</time></trkpt><trkpt lat="41.749617311612305" lon="19.956981550369456"><ele>250.0</ele><time>2026-04-29T14:44:05Z</time></trkpt><trkpt lat="41.74962156279082" lon="19.956834624203537"><ele>250.0</ele><time>2026-04-29T14:44:06Z</time></trkpt><trkpt lat="41.749573477444216" lon="19.95671611217912"><ele>250.0</ele><time>2026-04-29T14:44:07Z</time></trkpt><trkpt lat="41.74953785841712" lon="19.956603818672317"><ele>250.0</ele><time>2026-04-29T14:44:08Z</time></trkpt><trkpt lat="41.74947383604207" lon="19.95649708177344"><ele>250.0</ele><time>2026-04-29T14:44:09Z</time></trkpt><trkpt lat="41.74939765124609" lon="19.95639371008941"><ele>247.5</ele><time>2026-04-29T14:44:10Z</time></trkpt><trkpt lat="41.74933684189224" lon="19.956255208533097"><ele>245.0</ele><time>2026-04-29T14:44:11Z</time></trkpt><trkpt lat="41.7492593871954" lon="19.956116207244023"><ele>242.5</ele><time>2026-04-29T14:44:12Z</time></trkpt><trkpt lat="41.749175748122" lon="19.955968272182044"><ele>240.0</ele><time>2026-04-29T14:44:13Z</time></trkpt><trkpt lat="41.74906612386952" lon="19.955827601820804"><ele>240.0</ele><time>2026-04-29T14:44:14Z</time></trkpt><trkpt lat="41.74895906545042" lon="19.955697279605488"><ele>240.0</ele><time>2026-04-29T14:44:15Z</time></trkpt><trkpt lat="41.74882405252033" lon="19.955590709900573"><ele>240.0</ele><time>2026-04-29T14:44:16Z</time></trkpt><trkpt lat="41.74870643408508" lon="19.95550349532559"><ele>240.0</ele><time>2026-04-29T14:44:17Z</time></trkpt><trkpt lat="41.748581019990404" lon="19.9554103450736"><ele>240.25</ele><time>2026-04-29T14:44:18Z</time></trkpt><trkpt lat="41.74844834207736" lon="19.955311422264906"><ele>240.5</ele><time>2026-04-29T14:44:19Z</time></trkpt><trkpt lat="41.74832937432106" lon="19.955224572005296"><ele>240.75</ele><time>2026-04-29T14:44:20Z</time></trkpt><trkpt lat="41.74821866363344" lon="19.95515557133671"><ele>241.0</ele><time>2026-04-29T14:44:21Z</time></trkpt><trkpt lat="41.748147146670334" lon="19.955019763937933"><ele>241.25</ele><time>2026-04-29T14:44:22Z</time></trkpt><trkpt lat="41.74806015356809" lon="19.954900470501997"><ele>241.5</ele><time>2026-04-29T14:44:23Z</time></trkpt><trkpt lat="41.74798901470209" lon="19.954762508315717"><ele>241.75</ele><time>2026-04-29T14:44:24Z</time></trkpt><trkpt lat="41.74792095501847" lon="19.95463031803818"><ele>242.0</ele><time>2026-04-29T14:44:25Z</time></trkpt><trkpt lat="41.74790595414547" lon="19.954478971290563"><ele>242.0</ele><time>2026-04-29T14:44:26Z</time></trkpt><trkpt lat="41.74788450565287" lon="19.954317149550317"><ele>242.0</ele><time>2026-04-29T14:44:27Z</time></trkpt><trkpt lat="41.747872783388765" lon="19.95413737887626"><ele>242.0</ele><time>2026-04-29T14:44:28Z</time></trkpt><trkpt lat="41.747862096118816" lon="19.95397190436033"><ele>242.0</ele><time>2026-04-29T14:44:29Z</time></trkpt><trkpt lat="41.74785193707483" lon="19.953816951235122"><ele>241.25</ele><time>2026-04-29T14:44:30Z</time></trkpt><trkpt lat="41.74784015814432" lon="19.95363898550375"><ele>240.5</ele><time>2026-04-29T14:44:31Z</time></trkpt><trkpt lat="41.747826676164465" lon="19.953435288670843"><ele>239.75</ele><time>2026-04-29T14:44:32Z</time></trkpt><trkpt lat="41.7478124769384" lon="19.953219396375104"><ele>239.0</ele><time>2026-04-29T14:44:33Z</time></trkpt><trkpt lat="41.747802964286194" lon="19.953037120058692"><ele>239.0</ele><time>2026-04-29T14:44:34Z</time></trkpt><trkpt lat="41.74779647581619" lon="19.952884001580017"><ele>238.99999999999997</ele><time>2026-04-29T14:44:35Z</time></trkpt><trkpt lat="41.74779116080052" lon="19.95274755854195"><ele>238.99999999999997</ele><time>2026-04-29T14:44:36Z</time></trkpt><trkpt lat="41.7477864941612" lon="19.952628651279834"><ele>239.0</ele><time>2026-04-29T14:44:37Z</time></trkpt><trkpt lat="41.747738917346986" lon="19.95252585053641"><ele>239.0</ele><time>2026-04-29T14:44:38Z</time></trkpt><trkpt lat="41.747712423846316" lon="19.952407666923623"><ele>241.75</ele><time>2026-04-29T14:44:39Z</time></trkpt><trkpt lat="41.74761204052945" lon="19.952314153595445"><ele>244.5</ele><time>2026-04-29T14:44:40Z</time></trkpt><trkpt lat="41.74751602729327" lon="19.952197480585255"><ele>247.25</ele><time>2026-04-29T14:44:41Z</time></trkpt><trkpt lat="41.7474059425711" lon="19.952076207463552"><ele>250.0</ele><time>2026-04-29T14:44:42Z</time></trkpt><trkpt lat="41.74727671289584" lon="19.951950332897376"><ele>250.0</ele><time>2026-04-29T14:44:43Z</time></trkpt><trkpt lat="41.74715461769594" lon="19.951836024602876"><ele>250.0</ele><time>2026-04-29T14:44:44Z</time></trkpt><trkpt lat="41.74705555320793" lon="19.951709870763782"><ele>250.0</ele><time>2026-04-29T14:44:45Z</time></trkpt><trkpt lat="41.746950770716886" lon="19.951603444819817"><ele>250.0</ele><time>2026-04-29T14:44:46Z</time></trkpt><trkpt lat="41.74686063513553" lon="19.95151236127783"><ele>251.0</ele><time>2026-04-29T14:44:47Z</time></trkpt><trkpt lat="41.74677375165327" lon="19.951432950364858"><ele>252.0</ele><time>2026-04-29T14:44:48Z</time></trkpt><trkpt lat="41.7467111300603" lon="19.951306404310227"><ele>253.0</ele><time>2026-04-29T14:44:49Z</time></trkpt><trkpt lat="41.74673545514158" lon="19.95113284977748"><ele>254.0</ele><time>2026-04-29T14:44:50Z</time></trkpt><trkpt lat="41.74670676385799" lon="19.950974118404122"><ele>253.5</ele><time>2026-04-29T14:44:51Z</time></trkpt><trkpt lat="41.74667607075514" lon="19.950805733784172"><ele>253.0</ele><time>2026-04-29T14:44:52Z</time></trkpt><trkpt lat="41.74664385387804" lon="19.950631049546065"><ele>252.5</ele><time>2026-04-29T14:44:53Z</time></trkpt><trkpt lat="41.746613550521324" lon="19.950458804660247"><ele>252.0</ele><time>2026-04-29T14:44:54Z</time></trkpt><trkpt lat="41.74652350874326" lon="19.95030897342992"><ele>252.0</ele><time>2026-04-29T14:44:55Z</time></trkpt><trkpt lat="41.74643711250895" lon="19.950173569450325"><ele>252.0</ele><time>2026-04-29T14:44:56Z</time></trkpt><trkpt lat="41.746350250381695" lon="19.950040436093705"><ele>252.0</ele><time>2026-04-29T14:44:57Z</time></trkpt><trkpt lat="41.746253363506234" lon="19.949891559618276"><ele>252.0</ele><time>2026-04-29T14:44:58Z</time></trkpt><trkpt lat="41.74614462707166" lon="19.949724974578142"><ele>254.0</ele><time>2026-04-29T14:44:59Z</time></trkpt><trkpt lat="41.74602181797504" lon="19.94956008755866"><ele>256.0</ele><time>2026-04-29T14:45:00Z</time></trkpt><trkpt lat="41.745933163391555" lon="19.949370631744003"><ele>258.0</ele><time>2026-04-29T14:45:01Z</time></trkpt><trkpt lat="41.74585684310924" lon="19.94921508892275"><ele>257.25</ele><time>2026-04-29T14:45:02Z</time></trkpt><trkpt lat="41.74578083111569" lon="19.94905365458978"><ele>256.5</ele><time>2026-04-29T14:45:03Z</time></trkpt><trkpt lat="41.74575954636501" lon="19.948885712719516"><ele>255.75</ele><time>2026-04-29T14:45:04Z</time></trkpt><trkpt lat="41.74575435631241" lon="19.94874300213003"><ele>255.0</ele><time>2026-04-29T14:45:05Z</time></trkpt><trkpt lat="41.74574673096037" lon="19.948579310837136"><ele>255.0</ele><time>2026-04-29T14:45:06Z</time></trkpt><trkpt lat="41.74573896786125" lon="19.948408741465155"><ele>255.0</ele><time>2026-04-29T14:45:07Z</time></trkpt><trkpt lat="41.74573575571158" lon="19.948231370968124"><ele>255.0</ele><time>2026-04-29T14:45:08Z</time></trkpt><trkpt lat="41.745734234612385" lon="19.948041327815325"><ele>255.0</ele><time>2026-04-29T14:45:09Z</time></trkpt><trkpt lat="41.74573253486566" lon="19.947842247505974"><ele>255.66666666666669</ele><time>2026-04-29T14:45:10Z</time></trkpt><trkpt lat="41.745724532068834" lon="19.947634618790996"><ele>256.33333333333337</ele><time>2026-04-29T14:45:11Z</time></trkpt><trkpt lat="41.74571811408817" lon="19.94741899377121"><ele>257.0</ele><time>2026-04-29T14:45:12.001Z</time></trkpt><trkpt lat="41.74572428111755" lon="19.947210031094514"><ele>257.33333333333337</ele><time>2026-04-29T14:45:13.001Z</time></trkpt><trkpt lat="41.74573786659362" lon="19.947016912370266"><ele>257.6666666666667</ele><time>2026-04-29T14:45:14.001Z</time></trkpt><trkpt lat="41.74575792542774" lon="19.94681181079639"><ele>258.0</ele><time>2026-04-29T14:45:15.001Z</time></trkpt><trkpt lat="41.74578030385545" lon="19.946598171317003"><ele>258.0</ele><time>2026-04-29T14:45:16.001Z</time></trkpt><trkpt lat="41.745809124938944" lon="19.946392504178885"><ele>258.0</ele><time>2026-04-29T14:45:17.001Z</time></trkpt><trkpt lat="41.74583322253265" lon="19.946220145595355"><ele>258.0</ele><time>2026-04-29T14:45:18.001Z</time></trkpt><trkpt lat="41.745849927799725" lon="19.946089862648705"><ele>258.0</ele><time>2026-04-29T14:45:19.001Z</time></trkpt><trkpt lat="41.74586227546747" lon="19.945956502223183"><ele>257.4</ele><time>2026-04-29T14:45:20.001Z</time></trkpt><trkpt lat="41.74586104559281" lon="19.94581133715076"><ele>256.8</ele><time>2026-04-29T14:45:21.001Z</time></trkpt><trkpt lat="41.74584475618752" lon="19.945677027311607"><ele>256.2</ele><time>2026-04-29T14:45:22.001Z</time></trkpt><trkpt lat="41.74578180272555" lon="19.94555405290711"><ele>255.6</ele><time>2026-04-29T14:45:23.001Z</time></trkpt><trkpt lat="41.74572506499479" lon="19.945430500841923"><ele>255.0</ele><time>2026-04-29T14:45:24.001Z</time></trkpt><trkpt lat="41.745670419385135" lon="19.945280975507494"><ele>255.0</ele><time>2026-04-29T14:45:25.001Z</time></trkpt><trkpt lat="41.74560061501779" lon="19.94511104088518"><ele>255.0</ele><time>2026-04-29T14:45:26.001Z</time></trkpt><trkpt lat="41.745518005907044" lon="19.94491222184117"><ele>255.0</ele><time>2026-04-29T14:45:27.001Z</time></trkpt><trkpt lat="41.74542875518151" lon="19.94469661763797"><ele>253.75</ele><time>2026-04-29T14:45:28.001Z</time></trkpt><trkpt lat="41.7453503913079" lon="19.944506207408992"><ele>252.5</ele><time>2026-04-29T14:45:29.001Z</time></trkpt><trkpt lat="41.74528927006119" lon="19.944333958071745"><ele>251.25</ele><time>2026-04-29T14:45:30.001Z</time></trkpt><trkpt lat="41.74522936240262" lon="19.944171483977836"><ele>250.0</ele><time>2026-04-29T14:45:31.001Z</time></trkpt><trkpt lat="41.74517521353147" lon="19.944019331952568"><ele>250.0</ele><time>2026-04-29T14:45:32.001Z</time></trkpt><trkpt lat="41.74512465664457" lon="19.94387788090496"><ele>250.0</ele><time>2026-04-29T14:45:33.001Z</time></trkpt><trkpt lat="41.74507434798217" lon="19.943737842809888"><ele>250.0</ele><time>2026-04-29T14:45:34.001Z</time></trkpt><trkpt lat="41.745016947482775" lon="19.943577873025596"><ele>250.0</ele><time>2026-04-29T14:45:35.001Z</time></trkpt><trkpt lat="41.74495230020136" lon="19.943399988588503"><ele>249.0</ele><time>2026-04-29T14:45:36.001Z</time></trkpt><trkpt lat="41.74488114310938" lon="19.943211255169086"><ele>248.0</ele><time>2026-04-29T14:45:37Z</time></trkpt><trkpt lat="41.74481032147048" lon="19.943023132003468"><ele>247.0</ele><time>2026-04-29T14:45:38Z</time></trkpt><trkpt lat="41.74473696256876" lon="19.942826955234228"><ele>247.0</ele><time>2026-04-29T14:45:39Z</time></trkpt><trkpt lat="41.74465895935321" lon="19.942621673021083"><ele>247.0</ele><time>2026-04-29T14:45:40Z</time></trkpt><trkpt lat="41.74458655178894" lon="19.94243030180548"><ele>247.0</ele><time>2026-04-29T14:45:41Z</time></trkpt><trkpt lat="41.744519334234035" lon="19.942260523625407"><ele>244.66666666666666</ele><time>2026-04-29T14:45:42Z</time></trkpt><trkpt lat="41.74444694225159" lon="19.94208823221688"><ele>242.33333333333331</ele><time>2026-04-29T14:45:43Z</time></trkpt><trkpt lat="41.74436993005791" lon="19.941906567230106"><ele>240.0</ele><time>2026-04-29T14:45:44Z</time></trkpt><trkpt lat="41.74429631078549" lon="19.94173436900985"><ele>241.5</ele><time>2026-04-29T14:45:45Z</time></trkpt><trkpt lat="41.74423699298483" lon="19.94159358355039"><ele>243.0</ele><time>2026-04-29T14:45:46Z</time></trkpt><trkpt lat="41.744190592454714" lon="19.941459256257513"><ele>244.5</ele><time>2026-04-29T14:45:47Z</time></trkpt><trkpt lat="41.74415661524048" lon="19.941311288147794"><ele>246.0</ele><time>2026-04-29T14:45:48Z</time></trkpt><trkpt lat="41.7441262590915" lon="19.94114167856668"><ele>246.0</ele><time>2026-04-29T14:45:49Z</time></trkpt><trkpt lat="41.74411473714132" lon="19.940959465826072"><ele>246.0</ele><time>2026-04-29T14:45:50Z</time></trkpt><trkpt lat="41.7440996233776" lon="19.940755837819545"><ele>246.0</ele><time>2026-04-29T14:45:51Z</time></trkpt><trkpt lat="41.74408342512261" lon="19.94053282803213"><ele>244.66666666666669</ele><time>2026-04-29T14:45:52Z</time></trkpt><trkpt lat="41.74405359092146" lon="19.940300496450043"><ele>243.33333333333334</ele><time>2026-04-29T14:45:53Z</time></trkpt><trkpt lat="41.74404273068658" lon="19.94008889429929"><ele>242.0</ele><time>2026-04-29T14:45:54Z</time></trkpt><trkpt lat="41.744030147335515" lon="19.939906966936263"><ele>241.6</ele><time>2026-04-29T14:45:55Z</time></trkpt><trkpt lat="41.74401250680783" lon="19.939752207247015"><ele>241.2</ele><time>2026-04-29T14:45:56Z</time></trkpt><trkpt lat="41.74397968705961" lon="19.939617023976794"><ele>240.8</ele><time>2026-04-29T14:45:57Z</time></trkpt><trkpt lat="41.74391603092501" lon="19.939501556409834"><ele>240.4</ele><time>2026-04-29T14:45:58Z</time></trkpt><trkpt lat="41.74382932077476" lon="19.939419673742172"><ele>240.0</ele><time>2026-04-29T14:45:59Z</time></trkpt><trkpt lat="41.743736909631544" lon="19.939329133408968"><ele>240.0</ele><time>2026-04-29T14:46:00Z</time></trkpt><trkpt lat="41.74361457725182" lon="19.93927377125349"><ele>240.0</ele><time>2026-04-29T14:46:01Z</time></trkpt><trkpt lat="41.743511016294995" lon="19.939189394306826"><ele>240.0</ele><time>2026-04-29T14:46:02Z</time></trkpt><trkpt lat="41.74343673010049" lon="19.939069961947638"><ele>240.0</ele><time>2026-04-29T14:46:03Z</time></trkpt><trkpt lat="41.743358636368" lon="19.938956050466768"><ele>240.5</ele><time>2026-04-29T14:46:04Z</time></trkpt><trkpt lat="41.74326314122532" lon="19.938846588906998"><ele>241.0</ele><time>2026-04-29T14:46:05Z</time></trkpt><trkpt lat="41.74317318256851" lon="19.938704111806576"><ele>241.5</ele><time>2026-04-29T14:46:06Z</time></trkpt><trkpt lat="41.74309374032441" lon="19.93854523075069"><ele>242.0</ele><time>2026-04-29T14:46:07Z</time></trkpt><trkpt lat="41.74303295102514" lon="19.938385775662"><ele>239.5</ele><time>2026-04-29T14:46:08Z</time></trkpt><trkpt lat="41.74299887604371" lon="19.938219699357887"><ele>237.0</ele><time>2026-04-29T14:46:09Z</time></trkpt><trkpt lat="41.74293826204441" lon="19.938052533446587"><ele>234.5</ele><time>2026-04-29T14:46:10Z</time></trkpt><trkpt lat="41.742908798705514" lon="19.937891130710845"><ele>232.0</ele><time>2026-04-29T14:46:11Z</time></trkpt><trkpt lat="41.74288341857646" lon="19.937740746625618"><ele>232.0</ele><time>2026-04-29T14:46:12Z</time></trkpt><trkpt lat="41.74289596564642" lon="19.937603297493823"><ele>232.0</ele><time>2026-04-29T14:46:13Z</time></trkpt><trkpt lat="41.74292064581272" lon="19.93748575379679"><ele>232.0</ele><time>2026-04-29T14:46:14Z</time></trkpt><trkpt lat="41.7429706799356" lon="19.937367379425712"><ele>232.0</ele><time>2026-04-29T14:46:15Z</time></trkpt><trkpt lat="41.74302634521809" lon="19.937245771117134"><ele>232.0</ele><time>2026-04-29T14:46:16Z</time></trkpt><trkpt lat="41.74307536737929" lon="19.93712854593175"><ele>230.8</ele><time>2026-04-29T14:46:17Z</time></trkpt><trkpt lat="41.743134994947056" lon="19.937019082828904"><ele>229.6</ele><time>2026-04-29T14:46:18Z</time></trkpt><trkpt lat="41.74316608319796" lon="19.936889823257104"><ele>228.40000000000003</ele><time>2026-04-29T14:46:19Z</time></trkpt><trkpt lat="41.743170009606025" lon="19.936761121325038"><ele>227.20000000000002</ele><time>2026-04-29T14:46:20Z</time></trkpt><trkpt lat="41.74316208264765" lon="19.93661021007605"><ele>226.0</ele><time>2026-04-29T14:46:21Z</time></trkpt><trkpt lat="41.74314904030325" lon="19.936444514095648"><ele>225.20000000000002</ele><time>2026-04-29T14:46:22Z</time></trkpt><trkpt lat="41.74313079596788" lon="19.93629886345186"><ele>224.40000000000003</ele><time>2026-04-29T14:46:23Z</time></trkpt><trkpt lat="41.74311015698617" lon="19.936173589429373"><ele>223.6</ele><time>2026-04-29T14:46:24Z</time></trkpt><trkpt lat="41.74310147653113" lon="19.936043743890384"><ele>222.8</ele><time>2026-04-29T14:46:25Z</time></trkpt><trkpt lat="41.74314262802894" lon="19.935913444898038"><ele>222.0</ele><time>2026-04-29T14:46:26Z</time></trkpt><trkpt lat="41.7431779773447" lon="19.935773293103438"><ele>222.0</ele><time>2026-04-29T14:46:27Z</time></trkpt><trkpt lat="41.74322169255227" lon="19.93560596709849"><ele>222.0</ele><time>2026-04-29T14:46:28Z</time></trkpt><trkpt lat="41.74324752052565" lon="19.935447111878076"><ele>222.0</ele><time>2026-04-29T14:46:29Z</time></trkpt><trkpt lat="41.74325297966974" lon="19.93527489340627"><ele>222.0</ele><time>2026-04-29T14:46:30Z</time></trkpt><trkpt lat="41.74322787261967" lon="19.935112515311534"><ele>222.2</ele><time>2026-04-29T14:46:31Z</time></trkpt><trkpt lat="41.74319390679431" lon="19.934972899788352"><ele>222.39999999999998</ele><time>2026-04-29T14:46:32Z</time></trkpt><trkpt lat="41.74314613966455" lon="19.93483580939136"><ele>222.60000000000002</ele><time>2026-04-29T14:46:33Z</time></trkpt><trkpt lat="41.74309572570806" lon="19.93470281909483"><ele>222.8</ele><time>2026-04-29T14:46:34Z</time></trkpt><trkpt lat="41.743042776181355" lon="19.934574792182293"><ele>223.0</ele><time>2026-04-29T14:46:35Z</time></trkpt><trkpt lat="41.74298333490931" lon="19.934447611026666"><ele>223.0</ele><time>2026-04-29T14:46:36Z</time></trkpt><trkpt lat="41.7429278166229" lon="19.93432957016236"><ele>223.0</ele><time>2026-04-29T14:46:37Z</time></trkpt><trkpt lat="41.74288683745064" lon="19.934221463217387"><ele>223.0</ele><time>2026-04-29T14:46:38Z</time></trkpt><trkpt lat="41.74285431910958" lon="19.934105388260026"><ele>223.0</ele><time>2026-04-29T14:46:39Z</time></trkpt><trkpt lat="41.742835901782925" lon="19.933962174432903"><ele>223.0</ele><time>2026-04-29T14:46:40Z</time></trkpt><trkpt lat="41.74282170281926" lon="19.933793178804848"><ele>220.25</ele><time>2026-04-29T14:46:41Z</time></trkpt><trkpt lat="41.74282704357419" lon="19.933629607967653"><ele>217.5</ele><time>2026-04-29T14:46:42Z</time></trkpt><trkpt lat="41.74284324879188" lon="19.93345871389065"><ele>214.75</ele><time>2026-04-29T14:46:43Z</time></trkpt><trkpt lat="41.742857456289485" lon="19.933297343392542"><ele>212.0</ele><time>2026-04-29T14:46:44Z</time></trkpt><trkpt lat="41.74286365584133" lon="19.933137628713972"><ele>211.0</ele><time>2026-04-29T14:46:45Z</time></trkpt><trkpt lat="41.74285276201002" lon="19.932959076598383"><ele>210.0</ele><time>2026-04-29T14:46:46Z</time></trkpt><trkpt lat="41.74283282028452" lon="19.932756003820383"><ele>209.0</ele><time>2026-04-29T14:46:47Z</time></trkpt><trkpt lat="41.74280892420828" lon="19.932554114202144"><ele>208.0</ele><time>2026-04-29T14:46:48Z</time></trkpt><trkpt lat="41.74278578282085" lon="19.932355552244093"><ele>208.0</ele><time>2026-04-29T14:46:49Z</time></trkpt><trkpt lat="41.7427682950324" lon="19.932184424227472"><ele>208.0</ele><time>2026-04-29T14:46:50Z</time></trkpt><trkpt lat="41.74276455584059" lon="19.93201446292967"><ele>208.0</ele><time>2026-04-29T14:46:51Z</time></trkpt><trkpt lat="41.74279188441375" lon="19.93184405115426"><ele>208.0</ele><time>2026-04-29T14:46:52Z</time></trkpt><trkpt lat="41.74282538322153" lon="19.93166231043788"><ele>208.4</ele><time>2026-04-29T14:46:53Z</time></trkpt><trkpt lat="41.742853738520246" lon="19.931502611360603"><ele>208.8</ele><time>2026-04-29T14:46:54Z</time></trkpt><trkpt lat="41.742877302285464" lon="19.931365420543198"><ele>209.2</ele><time>2026-04-29T14:46:55Z</time></trkpt><trkpt lat="41.74292228105856" lon="19.931261268346745"><ele>209.6</ele><time>2026-04-29T14:46:56Z</time></trkpt><trkpt lat="41.742962412270636" lon="19.931156157110255"><ele>210.0</ele><time>2026-04-29T14:46:57Z</time></trkpt><trkpt lat="41.74305696928128" lon="19.931083006740337"><ele>210.0</ele><time>2026-04-29T14:46:58Z</time></trkpt><trkpt lat="41.74317317573658" lon="19.93101843729799"><ele>210.0</ele><time>2026-04-29T14:46:59Z</time></trkpt><trkpt lat="41.74330237177854" lon="19.930948137391816"><ele>210.0</ele><time>2026-04-29T14:47:00Z</time></trkpt><trkpt lat="41.743440291011964" lon="19.9308493527592"><ele>210.0</ele><time>2026-04-29T14:47:01Z</time></trkpt><trkpt lat="41.74358160618674" lon="19.930743147651558"><ele>209.66666666666669</ele><time>2026-04-29T14:47:02Z</time></trkpt><trkpt lat="41.74373074039385" lon="19.930643028391387"><ele>209.33333333333334</ele><time>2026-04-29T14:47:03Z</time></trkpt><trkpt lat="41.74388835336912" lon="19.930547437651725"><ele>209.0</ele><time>2026-04-29T14:47:04Z</time></trkpt><trkpt lat="41.74407225116591" lon="19.93045484076479"><ele>209.0</ele><time>2026-04-29T14:47:05Z</time></trkpt><trkpt lat="41.74425132967762" lon="19.930344647508406"><ele>209.0</ele><time>2026-04-29T14:47:06Z</time></trkpt><trkpt lat="41.74443293525776" lon="19.93023302892619"><ele>209.0</ele><time>2026-04-29T14:47:07Z</time></trkpt><trkpt lat="41.74458751688682" lon="19.930116544495252"><ele>208.66666666666669</ele><time>2026-04-29T14:47:08Z</time></trkpt><trkpt lat="41.744735695522415" lon="19.930027562740673"><ele>208.33333333333331</ele><time>2026-04-29T14:47:09Z</time></trkpt><trkpt lat="41.744883984282765" lon="19.929932371957932"><ele>208.0</ele><time>2026-04-29T14:47:10Z</time></trkpt><trkpt lat="41.74503056500516" lon="19.929838516834618"><ele>208.0</ele><time>2026-04-29T14:47:11Z</time></trkpt><trkpt lat="41.74517612711022" lon="19.929749660606998"><ele>208.0</ele><time>2026-04-29T14:47:12Z</time></trkpt><trkpt lat="41.74532934080577" lon="19.92966177929384"><ele>208.0</ele><time>2026-04-29T14:47:13Z</time></trkpt><trkpt lat="41.74548780420419" lon="19.929577587987318"><ele>206.33333333333331</ele><time>2026-04-29T14:47:14Z</time></trkpt><trkpt lat="41.74564219697155" lon="19.929502040317693"><ele>204.66666666666669</ele><time>2026-04-29T14:47:15Z</time></trkpt><trkpt lat="41.745797827281756" lon="19.92942645558102"><ele>203.0</ele><time>2026-04-29T14:47:16Z</time></trkpt><trkpt lat="41.7459556716238" lon="19.929381192276168"><ele>203.0</ele><time>2026-04-29T14:47:17Z</time></trkpt><trkpt lat="41.746111092901444" lon="19.929314681785282"><ele>203.0</ele><time>2026-04-29T14:47:18.001Z</time></trkpt><trkpt lat="41.746253874880544" lon="19.929253332517174"><ele>203.0</ele><time>2026-04-29T14:47:19.001Z</time></trkpt><trkpt lat="41.74641489162726" lon="19.929184089207276"><ele>203.0</ele><time>2026-04-29T14:47:20.001Z</time></trkpt><trkpt lat="41.746567187145104" lon="19.92911829442335"><ele>203.0</ele><time>2026-04-29T14:47:21.001Z</time></trkpt><trkpt lat="41.74669995116827" lon="19.92905426120277"><ele>203.0</ele><time>2026-04-29T14:47:22.001Z</time></trkpt><trkpt lat="41.74682543097576" lon="19.928992951481398"><ele>203.0</ele><time>2026-04-29T14:47:23.001Z</time></trkpt><trkpt lat="41.746941951383526" lon="19.928936152307795"><ele>202.75</ele><time>2026-04-29T14:47:24.001Z</time></trkpt><trkpt lat="41.74705972916799" lon="19.92889327310024"><ele>202.5</ele><time>2026-04-29T14:47:25.001Z</time></trkpt><trkpt lat="41.74719449341139" lon="19.928868913035004"><ele>202.25</ele><time>2026-04-29T14:47:26.001Z</time></trkpt><trkpt lat="41.74733636688865" lon="19.928875440045456"><ele>202.0</ele><time>2026-04-29T14:47:27.001Z</time></trkpt><trkpt lat="41.74747840539813" lon="19.928905060228395"><ele>202.0</ele><time>2026-04-29T14:47:28.001Z</time></trkpt><trkpt lat="41.7476227952906" lon="19.92891553201551"><ele>202.0</ele><time>2026-04-29T14:47:29.001Z</time></trkpt><trkpt lat="41.747757289660235" lon="19.928949480887006"><ele>202.0</ele><time>2026-04-29T14:47:30.001Z</time></trkpt><trkpt lat="41.747890922016495" lon="19.928982713109015"><ele>202.0</ele><time>2026-04-29T14:47:31.001Z</time></trkpt><trkpt lat="41.74803148306386" lon="19.929028674177143"><ele>201.66666666666666</ele><time>2026-04-29T14:47:32.001Z</time></trkpt><trkpt lat="41.7481850374867" lon="19.92902645450189"><ele>201.33333333333331</ele><time>2026-04-29T14:47:33.001Z</time></trkpt><trkpt lat="41.748337221140936" lon="19.92898658496738"><ele>201.0</ele><time>2026-04-29T14:47:34.001Z</time></trkpt><trkpt lat="41.74848499113493" lon="19.92895134829879"><ele>201.5</ele><time>2026-04-29T14:47:35.001Z</time></trkpt><trkpt lat="41.74862486261108" lon="19.928917704509722"><ele>202.0</ele><time>2026-04-29T14:47:36.001Z</time></trkpt><trkpt lat="41.74876461711563" lon="19.928867320967488"><ele>202.5</ele><time>2026-04-29T14:47:37.001Z</time></trkpt><trkpt lat="41.7489045530847" lon="19.928867916797714"><ele>203.0</ele><time>2026-04-29T14:47:38.001Z</time></trkpt><trkpt lat="41.749046964229464" lon="19.928896552306973"><ele>203.0</ele><time>2026-04-29T14:47:39.001Z</time></trkpt><trkpt lat="41.74918830581795" lon="19.928928139117808"><ele>203.0</ele><time>2026-04-29T14:47:40.001Z</time></trkpt><trkpt lat="41.74932100494937" lon="19.928949572543868"><ele>203.0</ele><time>2026-04-29T14:47:41.001Z</time></trkpt><trkpt lat="41.74944643754433" lon="19.928952043451442"><ele>203.0</ele><time>2026-04-29T14:47:42.001Z</time></trkpt><trkpt lat="41.749565376929745" lon="19.928936395465072"><ele>200.5</ele><time>2026-04-29T14:47:43.001Z</time></trkpt><trkpt lat="41.74968125911029" lon="19.92893176573167"><ele>198.0</ele><time>2026-04-29T14:47:44.001Z</time></trkpt><trkpt lat="41.74978912986621" lon="19.92889401108041"><ele>195.5</ele><time>2026-04-29T14:47:45.001Z</time></trkpt><trkpt lat="41.749878491121464" lon="19.92878727255485"><ele>193.0</ele><time>2026-04-29T14:47:46.001Z</time></trkpt><trkpt lat="41.74996464662443" lon="19.928695312543585"><ele>193.0</ele><time>2026-04-29T14:47:47.001Z</time></trkpt><trkpt lat="41.7500366842937" lon="19.928581090247608"><ele>193.0</ele><time>2026-04-29T14:47:48.001Z</time></trkpt><trkpt lat="41.75011335035051" lon="19.92844168804071"><ele>193.0</ele><time>2026-04-29T14:47:49.001Z</time></trkpt><trkpt lat="41.75020179981489" lon="19.928285990829476"><ele>193.0</ele><time>2026-04-29T14:47:50.001Z</time></trkpt><trkpt lat="41.75029221967596" lon="19.928121006106785"><ele>189.25</ele><time>2026-04-29T14:47:51Z</time></trkpt><trkpt lat="41.75036667256894" lon="19.927959349155973"><ele>185.5</ele><time>2026-04-29T14:47:52Z</time></trkpt><trkpt lat="41.75042592242387" lon="19.927803099920027"><ele>181.75</ele><time>2026-04-29T14:47:53Z</time></trkpt><trkpt lat="41.75046378190021" lon="19.927639575950373"><ele>178.0</ele><time>2026-04-29T14:47:54Z</time></trkpt><trkpt lat="41.750480230365056" lon="19.927474456819585"><ele>178.0</ele><time>2026-04-29T14:47:55Z</time></trkpt><trkpt lat="41.75048158813873" lon="19.927316395227706"><ele>178.0</ele><time>2026-04-29T14:47:56Z</time></trkpt><trkpt lat="41.750463079655844" lon="19.92715750551437"><ele>178.0</ele><time>2026-04-29T14:47:57Z</time></trkpt><trkpt lat="41.75042964655222" lon="19.92698156474489"><ele>178.0</ele><time>2026-04-29T14:47:58Z</time></trkpt><trkpt lat="41.750378156833044" lon="19.926797359822594"><ele>175.0</ele><time>2026-04-29T14:47:59Z</time></trkpt><trkpt lat="41.75031722083161" lon="19.926604620550094"><ele>172.0</ele><time>2026-04-29T14:48:00Z</time></trkpt><trkpt lat="41.75025828889674" lon="19.926403510742507"><ele>169.0</ele><time>2026-04-29T14:48:01Z</time></trkpt><trkpt lat="41.75021206934286" lon="19.92619810469976"><ele>170.0</ele><time>2026-04-29T14:48:02Z</time></trkpt><trkpt lat="41.75018447364429" lon="19.925997592371953"><ele>171.0</ele><time>2026-04-29T14:48:03Z</time></trkpt><trkpt lat="41.75016295894862" lon="19.925808194733154"><ele>172.0</ele><time>2026-04-29T14:48:04Z</time></trkpt><trkpt lat="41.75014417297711" lon="19.92562509701873"><ele>173.0</ele><time>2026-04-29T14:48:05Z</time></trkpt><trkpt lat="41.75012531044047" lon="19.92545034108291"><ele>170.75</ele><time>2026-04-29T14:48:06Z</time></trkpt><trkpt lat="41.750106362393744" lon="19.92528372679076"><ele>168.5</ele><time>2026-04-29T14:48:07Z</time></trkpt><trkpt lat="41.75009238345764" lon="19.925121423274927"><ele>166.25</ele><time>2026-04-29T14:48:08Z</time></trkpt><trkpt lat="41.75008081382311" lon="19.924964379841597"><ele>164.0</ele><time>2026-04-29T14:48:09Z</time></trkpt><trkpt lat="41.750066180419395" lon="19.92481021976731"><ele>163.0</ele><time>2026-04-29T14:48:10Z</time></trkpt><trkpt lat="41.75005291647091" lon="19.9246497598978"><ele>162.0</ele><time>2026-04-29T14:48:11Z</time></trkpt><trkpt lat="41.75004141023999" lon="19.924468805052026"><ele>161.0</ele><time>2026-04-29T14:48:12Z</time></trkpt><trkpt lat="41.75003961959323" lon="19.924272165904704"><ele>160.0</ele><time>2026-04-29T14:48:13Z</time></trkpt><trkpt lat="41.75005287931926" lon="19.924065566194773"><ele>159.25</ele><time>2026-04-29T14:48:14Z</time></trkpt><trkpt lat="41.75007376347065" lon="19.92386377408187"><ele>158.5</ele><time>2026-04-29T14:48:15Z</time></trkpt><trkpt lat="41.750086255412434" lon="19.923678108435453"><ele>157.75</ele><time>2026-04-29T14:48:16Z</time></trkpt><trkpt lat="41.750096814834045" lon="19.923503491109802"><ele>157.0</ele><time>2026-04-29T14:48:17Z</time></trkpt><trkpt lat="41.750114986077286" lon="19.923335430421027"><ele>156.25</ele><time>2026-04-29T14:48:18Z</time></trkpt><trkpt lat="41.750139131303705" lon="19.923171691394234"><ele>155.5</ele><time>2026-04-29T14:48:19Z</time></trkpt><trkpt lat="41.750167395157746" lon="19.92299823602891"><ele>154.75</ele><time>2026-04-29T14:48:20Z</time></trkpt><trkpt lat="41.75020036939473" lon="19.922810245660347"><ele>154.0</ele><time>2026-04-29T14:48:21Z</time></trkpt><trkpt lat="41.7502443129027" lon="19.922613157169188"><ele>149.5</ele><time>2026-04-29T14:48:22Z</time></trkpt><trkpt lat="41.75029719651779" lon="19.922414704396303"><ele>145.0</ele><time>2026-04-29T14:48:23Z</time></trkpt><trkpt lat="41.750353891316664" lon="19.92223277537582"><ele>140.5</ele><time>2026-04-29T14:48:24Z</time></trkpt><trkpt lat="41.7504193357408" lon="19.922066481224487"><ele>136.0</ele><time>2026-04-29T14:48:25Z</time></trkpt><trkpt lat="41.75051088665213" lon="19.921912553498643"><ele>137.0</ele><time>2026-04-29T14:48:26Z</time></trkpt><trkpt lat="41.75058353040335" lon="19.92172739289364"><ele>138.0</ele><time>2026-04-29T14:48:27Z</time></trkpt><trkpt lat="41.75068430064921" lon="19.921565195581984"><ele>139.0</ele><time>2026-04-29T14:48:28Z</time></trkpt><trkpt lat="41.7507883703235" lon="19.921422888856046"><ele>139.0</ele><time>2026-04-29T14:48:29Z</time></trkpt><trkpt lat="41.75089230451135" lon="19.921291493391976"><ele>139.0</ele><time>2026-04-29T14:48:30Z</time></trkpt><trkpt lat="41.75099838665528" lon="19.921167118721744"><ele>139.0</ele><time>2026-04-29T14:48:31Z</time></trkpt><trkpt lat="41.7511096713406" lon="19.921057384845334"><ele>139.0</ele><time>2026-04-29T14:48:32Z</time></trkpt><trkpt lat="41.751219648461976" lon="19.920953349543566"><ele>135.0</ele><time>2026-04-29T14:48:33Z</time></trkpt><trkpt lat="41.75131945728878" lon="19.920836595273162"><ele>131.0</ele><time>2026-04-29T14:48:34Z</time></trkpt><trkpt lat="41.75140099536912" lon="19.92070195315061"><ele>127.0</ele><time>2026-04-29T14:48:35Z</time></trkpt><trkpt lat="41.75146043019884" lon="19.92053189010654"><ele>123.0</ele><time>2026-04-29T14:48:36Z</time></trkpt><trkpt lat="41.75151461483971" lon="19.920331986172023"><ele>123.0</ele><time>2026-04-29T14:48:37Z</time></trkpt><trkpt lat="41.751567631349346" lon="19.920109407796616"><ele>123.0</ele><time>2026-04-29T14:48:38Z</time></trkpt><trkpt lat="41.75162481676711" lon="19.919876441945313"><ele>123.0</ele><time>2026-04-29T14:48:39Z</time></trkpt><trkpt lat="41.75168247829572" lon="19.91963098560495"><ele>122.33333333333334</ele><time>2026-04-29T14:48:40Z</time></trkpt><trkpt lat="41.751737495278824" lon="19.91937486680789"><ele>121.66666666666667</ele><time>2026-04-29T14:48:41Z</time></trkpt><trkpt lat="41.75179177116696" lon="19.919112626222343"><ele>121.0</ele><time>2026-04-29T14:48:42Z</time></trkpt><trkpt lat="41.7518477628702" lon="19.91884333759902"><ele>120.0</ele><time>2026-04-29T14:48:43Z</time></trkpt><trkpt lat="41.751905357246144" lon="19.918583429197337"><ele>119.0</ele><time>2026-04-29T14:48:44Z</time></trkpt><trkpt lat="41.75196126429356" lon="19.918351855488837"><ele>118.0</ele><time>2026-04-29T14:48:45Z</time></trkpt><trkpt lat="41.7520150052176" lon="19.918133011147525"><ele>118.0</ele><time>2026-04-29T14:48:46Z</time></trkpt><trkpt lat="41.75206705178505" lon="19.917935951362"><ele>118.0</ele><time>2026-04-29T14:48:47Z</time></trkpt><trkpt lat="41.752110888310035" lon="19.91774863519665"><ele>118.0</ele><time>2026-04-29T14:48:48Z</time></trkpt><trkpt lat="41.752150929244536" lon="19.91757171907848"><ele>118.0</ele><time>2026-04-29T14:48:49Z</time></trkpt><trkpt lat="41.75219980431726" lon="19.917391064308482"><ele>118.0</ele><time>2026-04-29T14:48:50Z</time></trkpt><trkpt lat="41.75223867729964" lon="19.91721805137531"><ele>118.0</ele><time>2026-04-29T14:48:51Z</time></trkpt><trkpt lat="41.75227365988741" lon="19.9170680274594"><ele>118.0</ele><time>2026-04-29T14:48:52Z</time></trkpt><trkpt lat="41.75229425060891" lon="19.91692716974288"><ele>118.0</ele><time>2026-04-29T14:48:53Z</time></trkpt><trkpt lat="41.752312445442826" lon="19.916807223230293"><ele>118.5</ele><time>2026-04-29T14:48:54Z</time></trkpt><trkpt lat="41.752244475360996" lon="19.916681185634097"><ele>119.0</ele><time>2026-04-29T14:48:55Z</time></trkpt><trkpt lat="41.75217662827342" lon="19.91656006074584"><ele>119.5</ele><time>2026-04-29T14:48:56Z</time></trkpt><trkpt lat="41.7520866581444" lon="19.9164299322357"><ele>120.0</ele><time>2026-04-29T14:48:57Z</time></trkpt><trkpt lat="41.751985574263614" lon="19.916284180055865"><ele>120.0</ele><time>2026-04-29T14:48:58Z</time></trkpt><trkpt lat="41.75190053062384" lon="19.916120643505902"><ele>120.0</ele><time>2026-04-29T14:48:59Z</time></trkpt><trkpt lat="41.75184932739031" lon="19.915954392269487"><ele>120.0</ele><time>2026-04-29T14:49:00Z</time></trkpt><trkpt lat="41.751826265640894" lon="19.915775049362008"><ele>120.0</ele><time>2026-04-29T14:49:01Z</time></trkpt><trkpt lat="41.75182973281157" lon="19.915578003828596"><ele>119.33333333333334</ele><time>2026-04-29T14:49:02Z</time></trkpt><trkpt lat="41.751848856765726" lon="19.915359303891115"><ele>118.66666666666667</ele><time>2026-04-29T14:49:03Z</time></trkpt><trkpt lat="41.75186416895872" lon="19.915120539379142"><ele>118.0</ele><time>2026-04-29T14:49:04Z</time></trkpt><trkpt lat="41.751868465730126" lon="19.91486631692935"><ele>118.0</ele><time>2026-04-29T14:49:05Z</time></trkpt><trkpt lat="41.75186963192095" lon="19.914642094566158"><ele>118.0</ele><time>2026-04-29T14:49:06Z</time></trkpt><trkpt lat="41.7518880242683" lon="19.91442964428535"><ele>118.0</ele><time>2026-04-29T14:49:07Z</time></trkpt><trkpt lat="41.75189686838402" lon="19.914203585328885"><ele>120.66666666666667</ele><time>2026-04-29T14:49:08Z</time></trkpt><trkpt lat="41.751923366636454" lon="19.91397711406935"><ele>123.33333333333334</ele><time>2026-04-29T14:49:09Z</time></trkpt><trkpt lat="41.751954946039355" lon="19.913746383423515"><ele>126.0</ele><time>2026-04-29T14:49:10Z</time></trkpt><trkpt lat="41.752017029886254" lon="19.913519554860635"><ele>126.0</ele><time>2026-04-29T14:49:11Z</time></trkpt><trkpt lat="41.75208270068547" lon="19.913293360234267"><ele>126.0</ele><time>2026-04-29T14:49:12Z</time></trkpt><trkpt lat="41.75214710881624" lon="19.913058474727336"><ele>126.0</ele><time>2026-04-29T14:49:13Z</time></trkpt><trkpt lat="41.75220353613866" lon="19.912848934272457"><ele>126.0</ele><time>2026-04-29T14:49:14Z</time></trkpt><trkpt lat="41.75225794790091" lon="19.912639820060768"><ele>126.0</ele><time>2026-04-29T14:49:15Z</time></trkpt><trkpt lat="41.75231408288051" lon="19.912427119257817"><ele>126.0</ele><time>2026-04-29T14:49:16Z</time></trkpt><trkpt lat="41.75237231305862" lon="19.912209660943354"><ele>123.66666666666666</ele><time>2026-04-29T14:49:17Z</time></trkpt><trkpt lat="41.752429500008304" lon="19.911985630099384"><ele>121.33333333333333</ele><time>2026-04-29T14:49:18Z</time></trkpt><trkpt lat="41.752490143582676" lon="19.911760301173288"><ele>119.0</ele><time>2026-04-29T14:49:19Z</time></trkpt><trkpt lat="41.7525503994201" lon="19.911542916492706"><ele>119.0</ele><time>2026-04-29T14:49:20Z</time></trkpt><trkpt lat="41.75261066130028" lon="19.91132119098167"><ele>119.0</ele><time>2026-04-29T14:49:21Z</time></trkpt><trkpt lat="41.75266932837174" lon="19.911091477213606"><ele>119.0</ele><time>2026-04-29T14:49:22Z</time></trkpt><trkpt lat="41.75274441861984" lon="19.91086434819779"><ele>119.0</ele><time>2026-04-29T14:49:23Z</time></trkpt><trkpt lat="41.752804217325235" lon="19.91062680603503"><ele>119.0</ele><time>2026-04-29T14:49:24.001Z</time></trkpt><trkpt lat="41.752847505667546" lon="19.910379189428486"><ele>119.0</ele><time>2026-04-29T14:49:25.001Z</time></trkpt><trkpt lat="41.752901590260244" lon="19.910134199885444"><ele>117.66666666666666</ele><time>2026-04-29T14:49:26.001Z</time></trkpt><trkpt lat="41.75296954114848" lon="19.90988179136625"><ele>116.33333333333334</ele><time>2026-04-29T14:49:27.001Z</time></trkpt><trkpt lat="41.75299731008918" lon="19.909581100032955"><ele>115.0</ele><time>2026-04-29T14:49:28.001Z</time></trkpt><trkpt lat="41.75299757368244" lon="19.9092310048733"><ele>113.5</ele><time>2026-04-29T14:49:29.001Z</time></trkpt><trkpt lat="41.753025507962306" lon="19.90885478928893"><ele>112.0</ele><time>2026-04-29T14:49:30.001Z</time></trkpt><trkpt lat="41.75303586766151" lon="19.90849669056847"><ele>111.66666666666667</ele><time>2026-04-29T14:49:31.001Z</time></trkpt><trkpt lat="41.753044766601434" lon="19.90821390929457"><ele>111.33333333333334</ele><time>2026-04-29T14:49:32.001Z</time></trkpt><trkpt lat="41.753037256124074" lon="19.907985113730746"><ele>111.0</ele><time>2026-04-29T14:49:33.001Z</time></trkpt><trkpt lat="41.75304870662556" lon="19.90777372125462"><ele>110.0</ele><time>2026-04-29T14:49:34.001Z</time></trkpt><trkpt lat="41.753066363032495" lon="19.9075671134015"><ele>109.0</ele><time>2026-04-29T14:49:35.001Z</time></trkpt><trkpt lat="41.753101469845035" lon="19.907378914510954"><ele>108.0</ele><time>2026-04-29T14:49:36.001Z</time></trkpt><trkpt lat="41.75316077532622" lon="19.9072070807884"><ele>107.0</ele><time>2026-04-29T14:49:37.001Z</time></trkpt><trkpt lat="41.753270914142114" lon="19.90706914158129"><ele>107.0</ele><time>2026-04-29T14:49:38.001Z</time></trkpt><trkpt lat="41.75335234720954" lon="19.90688663368439"><ele>107.0</ele><time>2026-04-29T14:49:39.001Z</time></trkpt><trkpt lat="41.75344415364264" lon="19.906739235834046"><ele>107.0</ele><time>2026-04-29T14:49:40.001Z</time></trkpt><trkpt lat="41.75351918382201" lon="19.90660172423603"><ele>107.0</ele><time>2026-04-29T14:49:41.001Z</time></trkpt><trkpt lat="41.75358601816512" lon="19.906477642765342"><ele>108.75</ele><time>2026-04-29T14:49:42.001Z</time></trkpt><trkpt lat="41.75365414370091" lon="19.90635199480772"><ele>110.5</ele><time>2026-04-29T14:49:43.001Z</time></trkpt><trkpt lat="41.75372926078986" lon="19.906218680626534"><ele>112.25</ele><time>2026-04-29T14:49:44.001Z</time></trkpt><trkpt lat="41.75379801441266" lon="19.90607081174726"><ele>114.0</ele><time>2026-04-29T14:49:45Z</time></trkpt><trkpt lat="41.753850912799344" lon="19.90591923030808"><ele>113.75</ele><time>2026-04-29T14:49:46Z</time></trkpt><trkpt lat="41.753885187099826" lon="19.905760448988236"><ele>113.5</ele><time>2026-04-29T14:49:47Z</time></trkpt><trkpt lat="41.75390557886219" lon="19.905592356024396"><ele>113.25</ele><time>2026-04-29T14:49:48Z</time></trkpt><trkpt lat="41.75391214280574" lon="19.905413207517007"><ele>113.0</ele><time>2026-04-29T14:49:49Z</time></trkpt><trkpt lat="41.753912734504745" lon="19.9052232256184"><ele>113.0</ele><time>2026-04-29T14:49:50Z</time></trkpt><trkpt lat="41.753916777116196" lon="19.905010159848427"><ele>113.0</ele><time>2026-04-29T14:49:51Z</time></trkpt><trkpt lat="41.75392306445166" lon="19.904780283177896"><ele>113.0</ele><time>2026-04-29T14:49:52Z</time></trkpt><trkpt lat="41.75393496595402" lon="19.904570953413856"><ele>113.0</ele><time>2026-04-29T14:49:53Z</time></trkpt><trkpt lat="41.75395658690851" lon="19.904387668934675"><ele>113.0</ele><time>2026-04-29T14:49:54Z</time></trkpt><trkpt lat="41.754010585790844" lon="19.904217660697736"><ele>113.0</ele><time>2026-04-29T14:49:55Z</time></trkpt><trkpt lat="41.75406695885259" lon="19.90402472496452"><ele>113.0</ele><time>2026-04-29T14:49:56Z</time></trkpt><trkpt lat="41.754154709315145" lon="19.903834481311314"><ele>113.66666666666666</ele><time>2026-04-29T14:49:57Z</time></trkpt><trkpt lat="41.754243252032346" lon="19.90364578431525"><ele>114.33333333333334</ele><time>2026-04-29T14:49:58Z</time></trkpt><trkpt lat="41.75431756086941" lon="19.90346282376778"><ele>115.0</ele><time>2026-04-29T14:49:59Z</time></trkpt><trkpt lat="41.754371594387855" lon="19.903264492838197"><ele>115.0</ele><time>2026-04-29T14:50:00Z</time></trkpt><trkpt lat="41.754413981983404" lon="19.903070539766734"><ele>115.0</ele><time>2026-04-29T14:50:01Z</time></trkpt><trkpt lat="41.75443894842714" lon="19.902843176909"><ele>115.0</ele><time>2026-04-29T14:50:02Z</time></trkpt><trkpt lat="41.75445805470878" lon="19.902603632828193"><ele>114.33333333333334</ele><time>2026-04-29T14:50:03Z</time></trkpt><trkpt lat="41.75448445829238" lon="19.90234437038436"><ele>113.66666666666666</ele><time>2026-04-29T14:50:04Z</time></trkpt><trkpt lat="41.754513839401646" lon="19.902077343907834"><ele>113.0</ele><time>2026-04-29T14:50:05Z</time></trkpt><trkpt lat="41.754544029038826" lon="19.901802542806834"><ele>113.0</ele><time>2026-04-29T14:50:06Z</time></trkpt><trkpt lat="41.75457350561708" lon="19.901526928266026"><ele>113.0</ele><time>2026-04-29T14:50:07Z</time></trkpt><trkpt lat="41.754601638541956" lon="19.901271303927317"><ele>113.0</ele><time>2026-04-29T14:50:08Z</time></trkpt><trkpt lat="41.75462727186431" lon="19.901037357044313"><ele>111.66666666666666</ele><time>2026-04-29T14:50:09Z</time></trkpt><trkpt lat="41.7546526909771" lon="19.90081878955336"><ele>110.33333333333334</ele><time>2026-04-29T14:50:10Z</time></trkpt><trkpt lat="41.75467700847453" lon="19.90061412144792"><ele>109.0</ele><time>2026-04-29T14:50:11Z</time></trkpt><trkpt lat="41.75469659290718" lon="19.90042261677603"><ele>109.0</ele><time>2026-04-29T14:50:12Z</time></trkpt><trkpt lat="41.75471359445218" lon="19.90023159298014"><ele>109.0</ele><time>2026-04-29T14:50:13Z</time></trkpt><trkpt lat="41.75472960149271" lon="19.900029253628592"><ele>109.0</ele><time>2026-04-29T14:50:14Z</time></trkpt><trkpt lat="41.75476914434741" lon="19.8998268046655"><ele>107.66666666666667</ele><time>2026-04-29T14:50:15Z</time></trkpt><trkpt lat="41.75479428228144" lon="19.899614787804904"><ele>106.33333333333334</ele><time>2026-04-29T14:50:16Z</time></trkpt><trkpt lat="41.75480438353496" lon="19.899396426452295"><ele>105.0</ele><time>2026-04-29T14:50:17Z</time></trkpt><trkpt lat="41.75483945890592" lon="19.899186111002944"><ele>104.5</ele><time>2026-04-29T14:50:18Z</time></trkpt><trkpt lat="41.754868232893685" lon="19.89899411209872"><ele>104.0</ele><time>2026-04-29T14:50:19Z</time></trkpt><trkpt lat="41.75488828922578" lon="19.898818054648817"><ele>103.5</ele><time>2026-04-29T14:50:20Z</time></trkpt><trkpt lat="41.75490754526596" lon="19.898630945117905"><ele>103.0</ele><time>2026-04-29T14:50:21Z</time></trkpt><trkpt lat="41.75492789464923" lon="19.89843049099054"><ele>102.75</ele><time>2026-04-29T14:50:22Z</time></trkpt><trkpt lat="41.754951750142844" lon="19.89823728990145"><ele>102.5</ele><time>2026-04-29T14:50:23Z</time></trkpt><trkpt lat="41.754973670675604" lon="19.898054781242216"><ele>102.25</ele><time>2026-04-29T14:50:24Z</time></trkpt><trkpt lat="41.75498862196" lon="19.897888855301392"><ele>102.0</ele><time>2026-04-29T14:50:25Z</time></trkpt><trkpt lat="41.75500448817801" lon="19.897751076409392"><ele>102.0</ele><time>2026-04-29T14:50:26Z</time></trkpt><trkpt lat="41.755021625100284" lon="19.89763334221621"><ele>102.0</ele><time>2026-04-29T14:50:27Z</time></trkpt><trkpt lat="41.75504466123411" lon="19.897524660704303"><ele>102.0</ele><time>2026-04-29T14:50:28Z</time></trkpt><trkpt lat="41.75507588745601" lon="19.89740863412188"><ele>102.0</ele><time>2026-04-29T14:50:29Z</time></trkpt><trkpt lat="41.755114257983244" lon="19.89728277960183"><ele>102.0</ele><time>2026-04-29T14:50:30Z</time></trkpt><trkpt lat="41.75515612734514" lon="19.89716837019792"><ele>102.8</ele><time>2026-04-29T14:50:31Z</time></trkpt><trkpt lat="41.755220855044044" lon="19.897102464290835"><ele>103.6</ele><time>2026-04-29T14:50:32Z</time></trkpt><trkpt lat="41.7552767009809" lon="19.897025692760916"><ele>104.39999999999999</ele><time>2026-04-29T14:50:33Z</time></trkpt><trkpt lat="41.755348116567276" lon="19.89694382596985"><ele>105.19999999999999</ele><time>2026-04-29T14:50:34Z</time></trkpt><trkpt lat="41.75545973826758" lon="19.896881007187897"><ele>106.0</ele><time>2026-04-29T14:50:35Z</time></trkpt><trkpt lat="41.75558554966391" lon="19.89680122167919"><ele>105.5</ele><time>2026-04-29T14:50:36Z</time></trkpt><trkpt lat="41.755720000327564" lon="19.89670015930352"><ele>105.0</ele><time>2026-04-29T14:50:37Z</time></trkpt><trkpt lat="41.75585067468913" lon="19.896596415772557"><ele>104.5</ele><time>2026-04-29T14:50:38Z</time></trkpt><trkpt lat="41.75596903059974" lon="19.896506421054468"><ele>104.0</ele><time>2026-04-29T14:50:39Z</time></trkpt><trkpt lat="41.7560889617257" lon="19.89641366647074"><ele>106.5</ele><time>2026-04-29T14:50:40Z</time></trkpt><trkpt lat="41.75620125801429" lon="19.89633418965351"><ele>109.0</ele><time>2026-04-29T14:50:41Z</time></trkpt><trkpt lat="41.75629535892857" lon="19.89625527264161"><ele>111.5</ele><time>2026-04-29T14:50:42Z</time></trkpt><trkpt lat="41.756374770709016" lon="19.896150697708872"><ele>114.0</ele><time>2026-04-29T14:50:43Z</time></trkpt><trkpt lat="41.75643702710592" lon="19.89602447271611"><ele>112.0</ele><time>2026-04-29T14:50:44Z</time></trkpt><trkpt lat="41.756478355540295" lon="19.89587024888019"><ele>110.0</ele><time>2026-04-29T14:50:45Z</time></trkpt><trkpt lat="41.756503386879864" lon="19.895697177304893"><ele>108.0</ele><time>2026-04-29T14:50:46Z</time></trkpt><trkpt lat="41.75652539693441" lon="19.895517876043375"><ele>106.0</ele><time>2026-04-29T14:50:47Z</time></trkpt><trkpt lat="41.75655320244226" lon="19.895343114275338"><ele>106.0</ele><time>2026-04-29T14:50:48Z</time></trkpt><trkpt lat="41.75658922677104" lon="19.895186037971655"><ele>106.0</ele><time>2026-04-29T14:50:49Z</time></trkpt><trkpt lat="41.75664911138969" lon="19.895052417566244"><ele>106.0</ele><time>2026-04-29T14:50:50Z</time></trkpt><trkpt lat="41.7567340274589" lon="19.894935281825394"><ele>106.0</ele><time>2026-04-29T14:50:51Z</time></trkpt><trkpt lat="41.75684717344944" lon="19.894851547768706"><ele>107.5</ele><time>2026-04-29T14:50:52Z</time></trkpt><trkpt lat="41.756948766702855" lon="19.894739059246685"><ele>109.0</ele><time>2026-04-29T14:50:53Z</time></trkpt><trkpt lat="41.757069303706" lon="19.894646062896545"><ele>110.5</ele><time>2026-04-29T14:50:54Z</time></trkpt><trkpt lat="41.75718561068058" lon="19.89454051766034"><ele>112.0</ele><time>2026-04-29T14:50:55Z</time></trkpt><trkpt lat="41.75728784400599" lon="19.894429000639462"><ele>112.0</ele><time>2026-04-29T14:50:56Z</time></trkpt><trkpt lat="41.75737623608084" lon="19.894298899956887"><ele>112.0</ele><time>2026-04-29T14:50:57Z</time></trkpt><trkpt lat="41.757458436651824" lon="19.894144618948438"><ele>112.0</ele><time>2026-04-29T14:50:58Z</time></trkpt><trkpt lat="41.757541138182795" lon="19.89397477969404"><ele>112.0</ele><time>2026-04-29T14:50:59Z</time></trkpt><trkpt lat="41.75761867337044" lon="19.89379411200049"><ele>111.33333333333334</ele><time>2026-04-29T14:51:00Z</time></trkpt><trkpt lat="41.757694885501365" lon="19.893602177945677"><ele>110.66666666666666</ele><time>2026-04-29T14:51:01Z</time></trkpt><trkpt lat="41.75776611299484" lon="19.89342012748845"><ele>110.0</ele><time>2026-04-29T14:51:02Z</time></trkpt><trkpt lat="41.757830209582146" lon="19.893255398954018"><ele>110.0</ele><time>2026-04-29T14:51:03Z</time></trkpt><trkpt lat="41.75789332234151" lon="19.89308464089591"><ele>110.0</ele><time>2026-04-29T14:51:04Z</time></trkpt><trkpt lat="41.757942785937736" lon="19.89290450052374"><ele>110.0</ele><time>2026-04-29T14:51:05Z</time></trkpt><trkpt lat="41.75796544843858" lon="19.892726778895266"><ele>110.0</ele><time>2026-04-29T14:51:06Z</time></trkpt><trkpt lat="41.75797428340905" lon="19.89253926035131"><ele>109.25</ele><time>2026-04-29T14:51:07Z</time></trkpt><trkpt lat="41.75797264132753" lon="19.892348375896237"><ele>108.5</ele><time>2026-04-29T14:51:08Z</time></trkpt><trkpt lat="41.757976544734326" lon="19.892147927063494"><ele>107.75</ele><time>2026-04-29T14:51:09Z</time></trkpt><trkpt lat="41.7579974638602" lon="19.891967400086312"><ele>107.0</ele><time>2026-04-29T14:51:10Z</time></trkpt><trkpt lat="41.758035824558775" lon="19.891791686264735"><ele>106.0</ele><time>2026-04-29T14:51:11Z</time></trkpt><trkpt lat="41.75809031117451" lon="19.891623857940036"><ele>105.0</ele><time>2026-04-29T14:51:12Z</time></trkpt><trkpt lat="41.75815677654272" lon="19.891481834464145"><ele>104.0</ele><time>2026-04-29T14:51:13Z</time></trkpt><trkpt lat="41.75823906981084" lon="19.89137122941083"><ele>103.0</ele><time>2026-04-29T14:51:14Z</time></trkpt><trkpt lat="41.758350334320916" lon="19.891329895159267"><ele>103.0</ele><time>2026-04-29T14:51:15Z</time></trkpt><trkpt lat="41.75846173873326" lon="19.891273466734994"><ele>103.0</ele><time>2026-04-29T14:51:16Z</time></trkpt><trkpt lat="41.758592643986375" lon="19.89125445058056"><ele>103.0</ele><time>2026-04-29T14:51:17Z</time></trkpt><trkpt lat="41.758731878449545" lon="19.891235765761053"><ele>103.0</ele><time>2026-04-29T14:51:18Z</time></trkpt><trkpt lat="41.758877953234254" lon="19.891207984847274"><ele>104.25</ele><time>2026-04-29T14:51:19Z</time></trkpt><trkpt lat="41.75902926449636" lon="19.891173505438857"><ele>105.5</ele><time>2026-04-29T14:51:20Z</time></trkpt><trkpt lat="41.75917592435782" lon="19.891144867593216"><ele>106.75</ele><time>2026-04-29T14:51:21Z</time></trkpt><trkpt lat="41.75931340938699" lon="19.891116214574726"><ele>108.0</ele><time>2026-04-29T14:51:22Z</time></trkpt><trkpt lat="41.75944670824232" lon="19.89108186701224"><ele>108.0</ele><time>2026-04-29T14:51:23Z</time></trkpt><trkpt lat="41.75957232251039" lon="19.891039252216967"><ele>108.0</ele><time>2026-04-29T14:51:24Z</time></trkpt><trkpt lat="41.759695593154255" lon="19.890986940908732"><ele>108.0</ele><time>2026-04-29T14:51:25Z</time></trkpt><trkpt lat="41.75981853422196" lon="19.890923917869475"><ele>108.0</ele><time>2026-04-29T14:51:26Z</time></trkpt><trkpt lat="41.75992555415785" lon="19.89085420209342"><ele>105.5</ele><time>2026-04-29T14:51:27Z</time></trkpt><trkpt lat="41.76003399242287" lon="19.89075964616721"><ele>103.0</ele><time>2026-04-29T14:51:28Z</time></trkpt><trkpt lat="41.760147768702126" lon="19.8906538650662"><ele>100.5</ele><time>2026-04-29T14:51:29Z</time></trkpt><trkpt lat="41.760267804093374" lon="19.890548227237723"><ele>98.0</ele><time>2026-04-29T14:51:30Z</time></trkpt><trkpt lat="41.76039051632134" lon="19.890431317753563"><ele>98.0</ele><time>2026-04-29T14:51:31Z</time></trkpt><trkpt lat="41.76051852793262" lon="19.890305901331583"><ele>98.0</ele><time>2026-04-29T14:51:32Z</time></trkpt><trkpt lat="41.76064704407863" lon="19.89019646713928"><ele>98.0</ele><time>2026-04-29T14:51:33Z</time></trkpt><trkpt lat="41.760762885908036" lon="19.890117037774488"><ele>98.0</ele><time>2026-04-29T14:51:34Z</time></trkpt><trkpt lat="41.76088413195357" lon="19.890099438456993"><ele>98.0</ele><time>2026-04-29T14:51:35Z</time></trkpt><trkpt lat="41.761014671042496" lon="19.890106221039836"><ele>98.0</ele><time>2026-04-29T14:51:36Z</time></trkpt><trkpt lat="41.761155936410866" lon="19.890130713522325"><ele>98.0</ele><time>2026-04-29T14:51:37Z</time></trkpt><trkpt lat="41.76130211590125" lon="19.890127174763894"><ele>98.0</ele><time>2026-04-29T14:51:38Z</time></trkpt><trkpt lat="41.761458565887814" lon="19.890137956138275"><ele>97.66666666666666</ele><time>2026-04-29T14:51:39.001Z</time></trkpt><trkpt lat="41.76162157073164" lon="19.89012465783471"><ele>97.33333333333334</ele><time>2026-04-29T14:51:40.001Z</time></trkpt><trkpt lat="41.76178537884727" lon="19.890100631318678"><ele>97.0</ele><time>2026-04-29T14:51:41.001Z</time></trkpt><trkpt lat="41.76192722214789" lon="19.890081093820616"><ele>97.0</ele><time>2026-04-29T14:51:42.001Z</time></trkpt><trkpt lat="41.762057191611945" lon="19.890067253991653"><ele>97.0</ele><time>2026-04-29T14:51:43.001Z</time></trkpt><trkpt lat="41.76217528029292" lon="19.890059509119183"><ele>97.0</ele><time>2026-04-29T14:51:44Z</time></trkpt><trkpt lat="41.76227471786263" lon="19.890051991583697"><ele>97.0</ele><time>2026-04-29T14:51:45Z</time></trkpt><trkpt lat="41.76235510297126" lon="19.89004465258499"><ele>97.0</ele><time>2026-04-29T14:51:46Z</time></trkpt><trkpt lat="41.76241995629739" lon="19.890021570433685"><ele>97.00000000000001</ele><time>2026-04-29T14:51:47Z</time></trkpt><trkpt lat="41.76246962887954" lon="19.889964110381467"><ele>97.0</ele><time>2026-04-29T14:51:48Z</time></trkpt><trkpt lat="41.762510696563346" lon="19.889871614278"><ele>97.0</ele><time>2026-04-29T14:51:49Z</time></trkpt><trkpt lat="41.76253686119074" lon="19.88975928911423"><ele>97.0</ele><time>2026-04-29T14:51:50Z</time></trkpt><trkpt lat="41.76254295669403" lon="19.889632180219657"><ele>97.00000000000001</ele><time>2026-04-29T14:51:51Z</time></trkpt><trkpt lat="41.76254824717819" lon="19.88949394422904"><ele>97.0</ele><time>2026-04-29T14:51:52Z</time></trkpt><trkpt lat="41.7625613078633" lon="19.8893577895353"><ele>96.25</ele><time>2026-04-29T14:51:53Z</time></trkpt><trkpt lat="41.76257790443321" lon="19.889214856869742"><ele>95.5</ele><time>2026-04-29T14:51:54Z</time></trkpt><trkpt lat="41.76259164923737" lon="19.889060943146834"><ele>94.75</ele><time>2026-04-29T14:51:55Z</time></trkpt><trkpt lat="41.76260442296777" lon="19.88889851033633"><ele>94.0</ele><time>2026-04-29T14:51:56Z</time></trkpt><trkpt lat="41.762617250862064" lon="19.88872972833032"><ele>94.0</ele><time>2026-04-29T14:51:57Z</time></trkpt><trkpt lat="41.762634935194974" lon="19.88855893535576"><ele>94.0</ele><time>2026-04-29T14:51:58Z</time></trkpt><trkpt lat="41.76265575549244" lon="19.88838377692021"><ele>94.0</ele><time>2026-04-29T14:51:59Z</time></trkpt><trkpt lat="41.76267834952603" lon="19.8882000827288"><ele>94.0</ele><time>2026-04-29T14:52:00Z</time></trkpt><trkpt lat="41.762702334294" lon="19.888016330191878"><ele>93.25</ele><time>2026-04-29T14:52:01Z</time></trkpt><trkpt lat="41.762730922052484" lon="19.887825476108066"><ele>92.5</ele><time>2026-04-29T14:52:02Z</time></trkpt><trkpt lat="41.76275417463974" lon="19.887632476131675"><ele>91.75</ele><time>2026-04-29T14:52:03Z</time></trkpt><trkpt lat="41.76276622081962" lon="19.887428634719313"><ele>91.0</ele><time>2026-04-29T14:52:04Z</time></trkpt><trkpt lat="41.76277461175046" lon="19.88722321404067"><ele>91.0</ele><time>2026-04-29T14:52:05Z</time></trkpt><trkpt lat="41.76278461465029" lon="19.88702357940075"><ele>91.0</ele><time>2026-04-29T14:52:06Z</time></trkpt><trkpt lat="41.76280260120533" lon="19.88684849682106"><ele>91.0</ele><time>2026-04-29T14:52:07Z</time></trkpt><trkpt lat="41.76283831023748" lon="19.886684863994144"><ele>91.0</ele><time>2026-04-29T14:52:08Z</time></trkpt><trkpt lat="41.76290035443908" lon="19.886517319051464"><ele>91.0</ele><time>2026-04-29T14:52:09Z</time></trkpt><trkpt lat="41.76297373371903" lon="19.88634605832243"><ele>91.0</ele><time>2026-04-29T14:52:10Z</time></trkpt><trkpt lat="41.763040115690906" lon="19.886168349005587"><ele>91.0</ele><time>2026-04-29T14:52:11Z</time></trkpt><trkpt lat="41.76309988099863" lon="19.885990037766295"><ele>91.0</ele><time>2026-04-29T14:52:12Z</time></trkpt><trkpt lat="41.76314958722316" lon="19.885830668131028"><ele>91.5</ele><time>2026-04-29T14:52:13Z</time></trkpt><trkpt lat="41.763198120354005" lon="19.88567524969141"><ele>92.0</ele><time>2026-04-29T14:52:14Z</time></trkpt><trkpt lat="41.763240359324804" lon="19.88552764575236"><ele>92.5</ele><time>2026-04-29T14:52:15Z</time></trkpt><trkpt lat="41.76328019308479" lon="19.885383217015285"><ele>93.0</ele><time>2026-04-29T14:52:16Z</time></trkpt><trkpt lat="41.763338250879656" lon="19.885242009912986"><ele>93.0</ele><time>2026-04-29T14:52:17Z</time></trkpt><trkpt lat="41.76341541774398" lon="19.885106249865657"><ele>93.0</ele><time>2026-04-29T14:52:18Z</time></trkpt><trkpt lat="41.763498436397" lon="19.884963090795075"><ele>93.0</ele><time>2026-04-29T14:52:19Z</time></trkpt><trkpt lat="41.76358065121621" lon="19.884811345570153"><ele>93.0</ele><time>2026-04-29T14:52:20Z</time></trkpt><trkpt lat="41.763657264255954" lon="19.884670939066687"><ele>93.25</ele><time>2026-04-29T14:52:21Z</time></trkpt><trkpt lat="41.76373567954233" lon="19.884535192732987"><ele>93.5</ele><time>2026-04-29T14:52:22Z</time></trkpt><trkpt lat="41.7638135766065" lon="19.884421874881184"><ele>93.75</ele><time>2026-04-29T14:52:23Z</time></trkpt><trkpt lat="41.76390360471932" lon="19.8843189339641"><ele>94.0</ele><time>2026-04-29T14:52:24Z</time></trkpt><trkpt lat="41.76402263151046" lon="19.88425621585839"><ele>94.0</ele><time>2026-04-29T14:52:25Z</time></trkpt><trkpt lat="41.764140455404224" lon="19.884169589410938"><ele>94.0</ele><time>2026-04-29T14:52:26Z</time></trkpt><trkpt lat="41.764254771275944" lon="19.884059168805024"><ele>94.0</ele><time>2026-04-29T14:52:27Z</time></trkpt><trkpt lat="41.76437771897245" lon="19.883957330198964"><ele>94.0</ele><time>2026-04-29T14:52:28Z</time></trkpt><trkpt lat="41.76451001989218" lon="19.883870085036342"><ele>93.5</ele><time>2026-04-29T14:52:29Z</time></trkpt><trkpt lat="41.76461544216489" lon="19.883754558993072"><ele>93.0</ele><time>2026-04-29T14:52:30Z</time></trkpt><trkpt lat="41.76471573683626" lon="19.88366501954422"><ele>92.5</ele><time>2026-04-29T14:52:31Z</time></trkpt><trkpt lat="41.764804034147545" lon="19.88355916634956"><ele>92.0</ele><time>2026-04-29T14:52:32Z</time></trkpt><trkpt lat="41.764886250896225" lon="19.88343240251868"><ele>92.25</ele><time>2026-04-29T14:52:33Z</time></trkpt><trkpt lat="41.764955842933865" lon="19.883309636574523"><ele>92.5</ele><time>2026-04-29T14:52:34Z</time></trkpt><trkpt lat="41.765020140239635" lon="19.883183885706845"><ele>92.75</ele><time>2026-04-29T14:52:35Z</time></trkpt><trkpt lat="41.76508491827073" lon="19.883036653246226"><ele>93.0</ele><time>2026-04-29T14:52:36Z</time></trkpt><trkpt lat="41.765164867355814" lon="19.882890380483897"><ele>92.5</ele><time>2026-04-29T14:52:37Z</time></trkpt><trkpt lat="41.76523793981726" lon="19.8827339989653"><ele>92.0</ele><time>2026-04-29T14:52:38Z</time></trkpt><trkpt lat="41.76530087780961" lon="19.88258812319146"><ele>91.5</ele><time>2026-04-29T14:52:39Z</time></trkpt><trkpt lat="41.765362344996085" lon="19.882448189145702"><ele>91.0</ele><time>2026-04-29T14:52:40Z</time></trkpt><trkpt lat="41.76540877523989" lon="19.8822984944297"><ele>90.8</ele><time>2026-04-29T14:52:41Z</time></trkpt><trkpt lat="41.76547151989208" lon="19.882170522792244"><ele>90.6</ele><time>2026-04-29T14:52:42Z</time></trkpt><trkpt lat="41.76553106105152" lon="19.88205326354065"><ele>90.4</ele><time>2026-04-29T14:52:43Z</time></trkpt><trkpt lat="41.7655871095683" lon="19.881922888963423"><ele>90.2</ele><time>2026-04-29T14:52:44Z</time></trkpt><trkpt lat="41.76563248824798" lon="19.881790743898723"><ele>90.0</ele><time>2026-04-29T14:52:45Z</time></trkpt><trkpt lat="41.765660234898355" lon="19.881662245593976"><ele>89.8</ele><time>2026-04-29T14:52:46Z</time></trkpt><trkpt lat="41.765678843137124" lon="19.88153447483549"><ele>89.6</ele><time>2026-04-29T14:52:47Z</time></trkpt><trkpt lat="41.76568661236056" lon="19.881403009168054"><ele>89.4</ele><time>2026-04-29T14:52:48Z</time></trkpt><trkpt lat="41.765690924471734" lon="19.881277504009297"><ele>89.2</ele><time>2026-04-29T14:52:49Z</time></trkpt><trkpt lat="41.76569628932358" lon="19.88117139603464"><ele>89.0</ele><time>2026-04-29T14:52:50Z</time></trkpt><trkpt lat="41.76570685696807" lon="19.88104290144701"><ele>89.0</ele><time>2026-04-29T14:52:51Z</time></trkpt><trkpt lat="41.765726632652154" lon="19.880908810608787"><ele>89.0</ele><time>2026-04-29T14:52:52Z</time></trkpt><trkpt lat="41.76575974017809" lon="19.880785555204803"><ele>89.0</ele><time>2026-04-29T14:52:53Z</time></trkpt><trkpt lat="41.765803210124396" lon="19.88067046967724"><ele>89.0</ele><time>2026-04-29T14:52:54Z</time></trkpt><trkpt lat="41.76584725177963" lon="19.88056083090072"><ele>89.0</ele><time>2026-04-29T14:52:55Z</time></trkpt><trkpt lat="41.7658936734736" lon="19.880442837694904"><ele>89.0</ele><time>2026-04-29T14:52:56Z</time></trkpt><trkpt lat="41.76594612551644" lon="19.880315078037487"><ele>89.0</ele><time>2026-04-29T14:52:57Z</time></trkpt><trkpt lat="41.76600082990181" lon="19.88018737065786"><ele>89.0</ele><time>2026-04-29T14:52:58Z</time></trkpt><trkpt lat="41.766066520372185" lon="19.880084757731773"><ele>89.0</ele><time>2026-04-29T14:52:59Z</time></trkpt><trkpt lat="41.76612200494922" lon="19.87996565284592"><ele>89.0</ele><time>2026-04-29T14:53:00Z</time></trkpt><trkpt lat="41.76618302427157" lon="19.879834672666437"><ele>88.0</ele><time>2026-04-29T14:53:01Z</time></trkpt><trkpt lat="41.76625283478884" lon="19.87968701945928"><ele>87.0</ele><time>2026-04-29T14:53:02Z</time></trkpt><trkpt lat="41.76633202329284" lon="19.879517043326505"><ele>86.0</ele><time>2026-04-29T14:53:03Z</time></trkpt><trkpt lat="41.76641704437669" lon="19.879335378242917"><ele>85.0</ele><time>2026-04-29T14:53:04Z</time></trkpt><trkpt lat="41.76650330869262" lon="19.879152320628005"><ele>85.0</ele><time>2026-04-29T14:53:05Z</time></trkpt><trkpt lat="41.766583453187316" lon="19.878980431413233"><ele>85.0</ele><time>2026-04-29T14:53:06Z</time></trkpt><trkpt lat="41.76664061979376" lon="19.878819833203288"><ele>85.0</ele><time>2026-04-29T14:53:07Z</time></trkpt><trkpt lat="41.76671046720254" lon="19.87867759669977"><ele>85.0</ele><time>2026-04-29T14:53:08Z</time></trkpt><trkpt lat="41.76678266815998" lon="19.878526678096446"><ele>85.0</ele><time>2026-04-29T14:53:09Z</time></trkpt><trkpt lat="41.76685809845386" lon="19.878375890388988"><ele>85.0</ele><time>2026-04-29T14:53:10Z</time></trkpt><trkpt lat="41.76693626421031" lon="19.878221960167036"><ele>85.0</ele><time>2026-04-29T14:53:11Z</time></trkpt><trkpt lat="41.76701172118145" lon="19.878063226523587"><ele>85.0</ele><time>2026-04-29T14:53:12Z</time></trkpt><trkpt lat="41.76708117593408" lon="19.877921427821008"><ele>85.0</ele><time>2026-04-29T14:53:13Z</time></trkpt><trkpt lat="41.76714733761466" lon="19.877797857564133"><ele>85.0</ele><time>2026-04-29T14:53:14Z</time></trkpt><trkpt lat="41.76721982422674" lon="19.87767281114878"><ele>85.0</ele><time>2026-04-29T14:53:15Z</time></trkpt><trkpt lat="41.76730946531708" lon="19.87756446839677"><ele>85.0</ele><time>2026-04-29T14:53:16Z</time></trkpt><trkpt lat="41.76741246171862" lon="19.87750668449014"><ele>85.2</ele><time>2026-04-29T14:53:17Z</time></trkpt><trkpt lat="41.767492661866676" lon="19.877418257553316"><ele>85.4</ele><time>2026-04-29T14:53:18Z</time></trkpt><trkpt lat="41.767575206808985" lon="19.877354420276156"><ele>85.6</ele><time>2026-04-29T14:53:19Z</time></trkpt><trkpt lat="41.767669108055784" lon="19.877304376859996"><ele>85.8</ele><time>2026-04-29T14:53:20Z</time></trkpt><trkpt lat="41.76776196085462" lon="19.87723118338719"><ele>86.0</ele><time>2026-04-29T14:53:21Z</time></trkpt><trkpt lat="41.76784610816001" lon="19.87716485227879"><ele>86.0</ele><time>2026-04-29T14:53:22Z</time></trkpt><trkpt lat="41.76791917294019" lon="19.877107257189547"><ele>86.0</ele><time>2026-04-29T14:53:23Z</time></trkpt><trkpt lat="41.76798684641722" lon="19.877039522480068"><ele>86.0</ele><time>2026-04-29T14:53:24Z</time></trkpt><trkpt lat="41.768067206640254" lon="19.876986773791796"><ele>86.0</ele><time>2026-04-29T14:53:25Z</time></trkpt><trkpt lat="41.76815732982465" lon="19.87692269111902"><ele>86.0</ele><time>2026-04-29T14:53:26Z</time></trkpt><trkpt lat="41.7682555194608" lon="19.8768489132785"><ele>86.0</ele><time>2026-04-29T14:53:27Z</time></trkpt><trkpt lat="41.768355891010145" lon="19.87677424953306"><ele>86.0</ele><time>2026-04-29T14:53:28Z</time></trkpt><trkpt lat="41.76843605444745" lon="19.876718995482538"><ele>86.0</ele><time>2026-04-29T14:53:29Z</time></trkpt><trkpt lat="41.76854408721521" lon="19.87663299551521"><ele>86.0</ele><time>2026-04-29T14:53:31Z</time></trkpt><trkpt lat="41.76860211958931" lon="19.876580695515983"><ele>86.0</ele><time>2026-04-29T14:53:32Z</time></trkpt><trkpt lat="41.768678144058775" lon="19.87651913624032"><ele>86.0</ele><time>2026-04-29T14:53:33Z</time></trkpt><trkpt lat="41.76876415649182" lon="19.87645247548527"><ele>86.0</ele><time>2026-04-29T14:53:34Z</time></trkpt><trkpt lat="41.76885425103453" lon="19.876369849075743"><ele>86.0</ele><time>2026-04-29T14:53:35Z</time></trkpt><trkpt lat="41.76894194817803" lon="19.876291384665837"><ele>86.0</ele><time>2026-04-29T14:53:36Z</time></trkpt><trkpt lat="41.76902133349373" lon="19.876230243319377"><ele>86.0</ele><time>2026-04-29T14:53:37Z</time></trkpt><trkpt lat="41.769087097145615" lon="19.876172048729167"><ele>86.0</ele><time>2026-04-29T14:53:38Z</time></trkpt><trkpt lat="41.769147333976306" lon="19.87611565026094"><ele>86.0</ele><time>2026-04-29T14:53:39Z</time></trkpt><trkpt lat="41.76921847943517" lon="19.876064683540378"><ele>86.0</ele><time>2026-04-29T14:53:40Z</time></trkpt><trkpt lat="41.76930192460707" lon="19.875996599757112"><ele>86.0</ele><time>2026-04-29T14:53:41Z</time></trkpt><trkpt lat="41.76939303917452" lon="19.875927588782556"><ele>86.0</ele><time>2026-04-29T14:53:42Z</time></trkpt><trkpt lat="41.76947990908516" lon="19.87585339271646"><ele>86.19999999999999</ele><time>2026-04-29T14:53:43Z</time></trkpt><trkpt lat="41.76955366595406" lon="19.875785905795652"><ele>86.39999999999999</ele><time>2026-04-29T14:53:44Z</time></trkpt><trkpt lat="41.76962570189494" lon="19.87571729886686"><ele>86.6</ele><time>2026-04-29T14:53:45Z</time></trkpt><trkpt lat="41.769691809241536" lon="19.875633449740494"><ele>86.8</ele><time>2026-04-29T14:53:46Z</time></trkpt><trkpt lat="41.769744688882554" lon="19.875523424833776"><ele>87.0</ele><time>2026-04-29T14:53:47Z</time></trkpt><trkpt lat="41.769779797565924" lon="19.875398766683585"><ele>87.0</ele><time>2026-04-29T14:53:48Z</time></trkpt><trkpt lat="41.769803949850456" lon="19.87526856878797"><ele>87.0</ele><time>2026-04-29T14:53:49Z</time></trkpt><trkpt lat="41.76981691541238" lon="19.87513599050925"><ele>87.0</ele><time>2026-04-29T14:53:50Z</time></trkpt><trkpt lat="41.769818214075585" lon="19.875001601312064"><ele>87.0</ele><time>2026-04-29T14:53:51Z</time></trkpt><trkpt lat="41.76980511430128" lon="19.87486574169104"><ele>87.0</ele><time>2026-04-29T14:53:52Z</time></trkpt><trkpt lat="41.76978178699597" lon="19.874721514511176"><ele>86.75</ele><time>2026-04-29T14:53:53Z</time></trkpt><trkpt lat="41.76975879944817" lon="19.87457122710385"><ele>86.5</ele><time>2026-04-29T14:53:54Z</time></trkpt><trkpt lat="41.76973008181925" lon="19.87441835511113"><ele>86.25</ele><time>2026-04-29T14:53:55Z</time></trkpt><trkpt lat="41.76971741598306" lon="19.87425682721791"><ele>86.0</ele><time>2026-04-29T14:53:56Z</time></trkpt><trkpt lat="41.76969453358922" lon="19.87411273169728"><ele>86.0</ele><time>2026-04-29T14:53:57Z</time></trkpt><trkpt lat="41.76967242444023" lon="19.873973505106513"><ele>86.0</ele><time>2026-04-29T14:53:58Z</time></trkpt><trkpt lat="41.76964182582407" lon="19.87382049341591"><ele>86.0</ele><time>2026-04-29T14:53:59Z</time></trkpt><trkpt lat="41.76960486879504" lon="19.873668200733455"><ele>86.0</ele><time>2026-04-29T14:54:00Z</time></trkpt><trkpt lat="41.769583465513335" lon="19.873531145698465"><ele>86.0</ele><time>2026-04-29T14:54:01Z</time></trkpt><trkpt lat="41.76956226722509" lon="19.873406316221"><ele>85.83333333333334</ele><time>2026-04-29T14:54:02Z</time></trkpt><trkpt lat="41.769544960077766" lon="19.873292959462717"><ele>85.66666666666667</ele><time>2026-04-29T14:54:03Z</time></trkpt><trkpt lat="41.76954125092406" lon="19.873186890931862"><ele>85.5</ele><time>2026-04-29T14:54:04Z</time></trkpt><trkpt lat="41.76955149000704" lon="19.873088690860673"><ele>85.33333333333333</ele><time>2026-04-29T14:54:05Z</time></trkpt><trkpt lat="41.76958739799491" lon="19.873008700438877"><ele>85.16666666666666</ele><time>2026-04-29T14:54:06Z</time></trkpt><trkpt lat="41.76963398002001" lon="19.872923485379513"><ele>85.0</ele><time>2026-04-29T14:54:07Z</time></trkpt><trkpt lat="41.76969939612675" lon="19.872839746127823"><ele>85.0</ele><time>2026-04-29T14:54:08Z</time></trkpt><trkpt lat="41.76977759447025" lon="19.87275350517976"><ele>85.0</ele><time>2026-04-29T14:54:09Z</time></trkpt><trkpt lat="41.76986077317575" lon="19.872662955432247"><ele>85.0</ele><time>2026-04-29T14:54:10Z</time></trkpt><trkpt lat="41.769940413122725" lon="19.872583079655346"><ele>85.0</ele><time>2026-04-29T14:54:11Z</time></trkpt><trkpt lat="41.770024126426755" lon="19.872511851941784"><ele>85.0</ele><time>2026-04-29T14:54:12Z</time></trkpt><trkpt lat="41.77010200688176" lon="19.872414239932645"><ele>85.25</ele><time>2026-04-29T14:54:13Z</time></trkpt><trkpt lat="41.77019024266335" lon="19.872317234064223"><ele>85.5</ele><time>2026-04-29T14:54:14Z</time></trkpt><trkpt lat="41.770290978149404" lon="19.872232113549288"><ele>85.75</ele><time>2026-04-29T14:54:15Z</time></trkpt><trkpt lat="41.77037176078789" lon="19.87210338211436"><ele>86.0</ele><time>2026-04-29T14:54:16Z</time></trkpt><trkpt lat="41.77046027609863" lon="19.87197248196309"><ele>85.25</ele><time>2026-04-29T14:54:17Z</time></trkpt><trkpt lat="41.77055345223744" lon="19.871836340474257"><ele>84.5</ele><time>2026-04-29T14:54:18Z</time></trkpt><trkpt lat="41.77064694309779" lon="19.87170031050191"><ele>83.75</ele><time>2026-04-29T14:54:19Z</time></trkpt><trkpt lat="41.770735733183145" lon="19.87156659828855"><ele>83.0</ele><time>2026-04-29T14:54:20Z</time></trkpt><trkpt lat="41.77081428035331" lon="19.871448696445643"><ele>83.0</ele><time>2026-04-29T14:54:21Z</time></trkpt><trkpt lat="41.770883042295644" lon="19.871342974278036"><ele>83.0</ele><time>2026-04-29T14:54:22Z</time></trkpt><trkpt lat="41.77095424339716" lon="19.871244430771398"><ele>83.0</ele><time>2026-04-29T14:54:23Z</time></trkpt><trkpt lat="41.77102406356249" lon="19.871144649006837"><ele>83.0</ele><time>2026-04-29T14:54:24Z</time></trkpt><trkpt lat="41.77109129595661" lon="19.871044710724426"><ele>83.0</ele><time>2026-04-29T14:54:25Z</time></trkpt><trkpt lat="41.77115813158401" lon="19.870942743011266"><ele>82.80000000000001</ele><time>2026-04-29T14:54:26Z</time></trkpt><trkpt lat="41.771224206829906" lon="19.87084032671438"><ele>82.6</ele><time>2026-04-29T14:54:27Z</time></trkpt><trkpt lat="41.771290705967125" lon="19.870731724514645"><ele>82.4</ele><time>2026-04-29T14:54:28Z</time></trkpt><trkpt lat="41.77135554721722" lon="19.870615231048717"><ele>82.19999999999999</ele><time>2026-04-29T14:54:29Z</time></trkpt><trkpt lat="41.77141821051987" lon="19.870494436629738"><ele>82.0</ele><time>2026-04-29T14:54:30Z</time></trkpt><trkpt lat="41.77146939729321" lon="19.87037158545434"><ele>82.0</ele><time>2026-04-29T14:54:31Z</time></trkpt><trkpt lat="41.77151364814908" lon="19.870269607560985"><ele>82.0</ele><time>2026-04-29T14:54:32Z</time></trkpt><trkpt lat="41.77155657700146" lon="19.870173022138676"><ele>82.0</ele><time>2026-04-29T14:54:33Z</time></trkpt><trkpt lat="41.771599165595696" lon="19.87007607461602"><ele>82.0</ele><time>2026-04-29T14:54:34Z</time></trkpt><trkpt lat="41.77164026167011" lon="19.86999379461074"><ele>82.0</ele><time>2026-04-29T14:54:35Z</time></trkpt><trkpt lat="41.77169274214921" lon="19.86988938030853"><ele>82.0</ele><time>2026-04-29T14:54:36Z</time></trkpt><trkpt lat="41.77174881296336" lon="19.86977861398398"><ele>82.0</ele><time>2026-04-29T14:54:37Z</time></trkpt><trkpt lat="41.77179374666846" lon="19.86968930207797"><ele>82.0</ele><time>2026-04-29T14:54:38Z</time></trkpt><trkpt lat="41.77184022688832" lon="19.869609479271066"><ele>82.0</ele><time>2026-04-29T14:54:40Z</time></trkpt><trkpt lat="41.77187796292573" lon="19.869540117004174"><ele>82.0</ele><time>2026-04-29T14:54:42Z</time></trkpt><trkpt lat="41.771914448089255" lon="19.86944282780147"><ele>82.0</ele><time>2026-04-29T14:54:44Z</time></trkpt><trkpt lat="41.77198567364828" lon="19.869284015004116"><ele>82.0</ele><time>2026-04-29T14:54:46Z</time></trkpt><trkpt lat="41.772022371625404" lon="19.86920348172399"><ele>82.0</ele><time>2026-04-29T14:54:47Z</time></trkpt><trkpt lat="41.77205924623324" lon="19.8691323376913"><ele>82.0</ele><time>2026-04-29T14:54:48Z</time></trkpt><trkpt lat="41.77212366114172" lon="19.869030502422255"><ele>82.0</ele><time>2026-04-29T14:54:50Z</time></trkpt><trkpt lat="41.7721766520541" lon="19.86896402152117"><ele>82.0</ele><time>2026-04-29T14:54:52Z</time></trkpt><trkpt lat="41.772239143972335" lon="19.86893017816924"><ele>82.0</ele><time>2026-04-29T14:54:55Z</time></trkpt><trkpt lat="41.77231809078939" lon="19.868874771581147"><ele>82.0</ele><time>2026-04-29T14:55:14Z</time></trkpt><trkpt lat="41.77241395333562" lon="19.868845002308536"><ele>82.0</ele><time>2026-04-29T14:55:16Z</time></trkpt><trkpt lat="41.77250561887422" lon="19.868829786909046"><ele>82.0</ele><time>2026-04-29T14:55:18Z</time></trkpt><trkpt lat="41.77261588302088" lon="19.868839883782837"><ele>82.0</ele><time>2026-04-29T14:55:20Z</time></trkpt><trkpt lat="41.77268678232996" lon="19.868840570295205"><ele>82.0</ele><time>2026-04-29T14:55:21Z</time></trkpt><trkpt lat="41.77277153974571" lon="19.868845351783964"><ele>82.0</ele><time>2026-04-29T14:55:22Z</time></trkpt><trkpt lat="41.77283870927714" lon="19.86886231510763"><ele>82.0</ele><time>2026-04-29T14:55:23Z</time></trkpt><trkpt lat="41.77293547001367" lon="19.868883969393003"><ele>81.66666666666666</ele><time>2026-04-29T14:55:25Z</time></trkpt><trkpt lat="41.773019387357536" lon="19.868918696998787"><ele>81.33333333333333</ele><time>2026-04-29T14:55:27Z</time></trkpt><trkpt lat="41.77306417751838" lon="19.868986539350818"><ele>81.0</ele><time>2026-04-29T14:55:29Z</time></trkpt><trkpt lat="41.773090820938705" lon="19.869088143614935"><ele>80.66666666666667</ele><time>2026-04-29T14:55:32Z</time></trkpt><trkpt lat="41.7730929690799" lon="19.86899237647159"><ele>80.33333333333334</ele><time>2026-04-29T14:57:04Z</time></trkpt><trkpt lat="41.77306787087265" lon="19.869143157512976"><ele>80.0</ele><time>2026-04-29T15:02:17Z</time></trkpt><trkpt lat="41.773082502953635" lon="19.868990585540764"><ele>80.0</ele><time>2026-04-29T15:02:20Z</time></trkpt><trkpt lat="41.77307819894342" lon="19.869155984853112"><ele>80.0</ele><time>2026-04-29T15:09:37Z</time></trkpt><trkpt lat="41.773094688323866" lon="19.868992670735008"><ele>80.0</ele><time>2026-04-29T15:09:40Z</time></trkpt><trkpt lat="41.77307544434365" lon="19.869138288754872"><ele>80.0</ele><time>2026-04-29T15:09:50Z</time></trkpt><trkpt lat="41.773084749063294" lon="19.868990969955714"><ele>80.0</ele><time>2026-04-29T15:10:02Z</time></trkpt><trkpt lat="41.773139795714975" lon="19.869180799081427"><ele>80.0</ele><time>2026-04-29T15:10:09Z</time></trkpt><trkpt lat="41.773203822038035" lon="19.8691692556713"><ele>80.0</ele><time>2026-04-29T15:10:16Z</time></trkpt><trkpt lat="41.77326401558001" lon="19.86912278075095"><ele>80.0</ele><time>2026-04-29T15:10:18Z</time></trkpt><trkpt lat="41.773329186034516" lon="19.869053126060695"><ele>80.0</ele><time>2026-04-29T15:10:20Z</time></trkpt><trkpt lat="41.77339278905556" lon="19.868967307253392"><ele>80.0</ele><time>2026-04-29T15:10:22Z</time></trkpt><trkpt lat="41.77349766007741" lon="19.86884501806179"><ele>80.0</ele><time>2026-04-29T15:10:24Z</time></trkpt><trkpt lat="41.7735640932608" lon="19.868804011076936"><ele>80.0</ele><time>2026-04-29T15:10:25Z</time></trkpt><trkpt lat="41.773641953356716" lon="19.86876425396568"><ele>80.0</ele><time>2026-04-29T15:10:26Z</time></trkpt><trkpt lat="41.77372538218081" lon="19.868717254197414"><ele>80.0</ele><time>2026-04-29T15:10:27Z</time></trkpt><trkpt lat="41.77381407789518" lon="19.868667153533938"><ele>80.5</ele><time>2026-04-29T15:10:28Z</time></trkpt><trkpt lat="41.77391957859677" lon="19.868608459777217"><ele>81.0</ele><time>2026-04-29T15:10:29Z</time></trkpt><trkpt lat="41.77403163860071" lon="19.868541477429034"><ele>81.5</ele><time>2026-04-29T15:10:30Z</time></trkpt><trkpt lat="41.77413624249881" lon="19.868468735209113"><ele>82.0</ele><time>2026-04-29T15:10:31Z</time></trkpt><trkpt lat="41.77421651159231" lon="19.868381107322914"><ele>81.75</ele><time>2026-04-29T15:10:32Z</time></trkpt><trkpt lat="41.77431533091582" lon="19.868291757621186"><ele>81.5</ele><time>2026-04-29T15:10:33Z</time></trkpt><trkpt lat="41.77436975456592" lon="19.868129390893824"><ele>81.25</ele><time>2026-04-29T15:10:34Z</time></trkpt><trkpt lat="41.77443371398449" lon="19.867995062022427"><ele>81.0</ele><time>2026-04-29T15:10:35Z</time></trkpt><trkpt lat="41.77448086349388" lon="19.867889062178556"><ele>81.0</ele><time>2026-04-29T15:10:36Z</time></trkpt><trkpt lat="41.77452585255979" lon="19.867783683999843"><ele>81.0</ele><time>2026-04-29T15:10:37Z</time></trkpt><trkpt lat="41.77457998893652" lon="19.86766210187869"><ele>81.0</ele><time>2026-04-29T15:10:38Z</time></trkpt><trkpt lat="41.7746356325438" lon="19.867529887764746"><ele>81.0</ele><time>2026-04-29T15:10:39Z</time></trkpt><trkpt lat="41.774691993611235" lon="19.867387868697275"><ele>81.0</ele><time>2026-04-29T15:10:40Z</time></trkpt><trkpt lat="41.77476878555503" lon="19.867252001802036"><ele>81.75</ele><time>2026-04-29T15:10:41Z</time></trkpt><trkpt lat="41.774830464888225" lon="19.86709453299935"><ele>82.5</ele><time>2026-04-29T15:10:42Z</time></trkpt><trkpt lat="41.774878996729605" lon="19.86692120990141"><ele>83.25</ele><time>2026-04-29T15:10:43Z</time></trkpt><trkpt lat="41.77492399684915" lon="19.86673318844371"><ele>84.0</ele><time>2026-04-29T15:10:44Z</time></trkpt><trkpt lat="41.77493340717322" lon="19.866485034190013"><ele>84.66666666666667</ele><time>2026-04-29T15:10:45Z</time></trkpt><trkpt lat="41.77492697403389" lon="19.866208831989145"><ele>85.33333333333334</ele><time>2026-04-29T15:10:46Z</time></trkpt><trkpt lat="41.77494421375887" lon="19.86588963321926"><ele>86.0</ele><time>2026-04-29T15:10:47Z</time></trkpt><trkpt lat="41.774957890323556" lon="19.865543925868305"><ele>86.0</ele><time>2026-04-29T15:10:48Z</time></trkpt><trkpt lat="41.77496936728841" lon="19.865227940035965"><ele>86.0</ele><time>2026-04-29T15:10:49Z</time></trkpt><trkpt lat="41.774979937608606" lon="19.864938870451972"><ele>85.66666666666667</ele><time>2026-04-29T15:10:50Z</time></trkpt><trkpt lat="41.7749916362377" lon="19.864669919395485"><ele>85.33333333333333</ele><time>2026-04-29T15:10:51Z</time></trkpt><trkpt lat="41.775003495933184" lon="19.864417365982625"><ele>85.0</ele><time>2026-04-29T15:10:52Z</time></trkpt><trkpt lat="41.77501292623468" lon="19.864180770290286"><ele>84.33333333333333</ele><time>2026-04-29T15:10:53Z</time></trkpt><trkpt lat="41.775020670673506" lon="19.863961559601403"><ele>83.66666666666667</ele><time>2026-04-29T15:10:54Z</time></trkpt><trkpt lat="41.77503011459269" lon="19.863739613087745"><ele>83.0</ele><time>2026-04-29T15:10:55Z</time></trkpt><trkpt lat="41.7750412453699" lon="19.86351711458588"><ele>83.0</ele><time>2026-04-29T15:10:56Z</time></trkpt><trkpt lat="41.775049931987986" lon="19.863293857737183"><ele>83.0</ele><time>2026-04-29T15:10:57Z</time></trkpt><trkpt lat="41.77505169427935" lon="19.863087574367338"><ele>83.0</ele><time>2026-04-29T15:10:58Z</time></trkpt><trkpt lat="41.775061270219865" lon="19.86288159429304"><ele>83.0</ele><time>2026-04-29T15:10:59Z</time></trkpt><trkpt lat="41.77502499543129" lon="19.86265624191386"><ele>83.0</ele><time>2026-04-29T15:11:00Z</time></trkpt><trkpt lat="41.7749897236813" lon="19.862443572988898"><ele>83.0</ele><time>2026-04-29T15:11:01Z</time></trkpt><trkpt lat="41.774957427841485" lon="19.862250175261075"><ele>82.25</ele><time>2026-04-29T15:11:02Z</time></trkpt><trkpt lat="41.77492915170874" lon="19.86206582007099"><ele>81.5</ele><time>2026-04-29T15:11:03Z</time></trkpt><trkpt lat="41.77490281241092" lon="19.86188565691309"><ele>80.75</ele><time>2026-04-29T15:11:04Z</time></trkpt><trkpt lat="41.77487276140404" lon="19.861707174250697"><ele>80.0</ele><time>2026-04-29T15:11:05Z</time></trkpt><trkpt lat="41.77489634242112" lon="19.861508391316715"><ele>80.0</ele><time>2026-04-29T15:11:06Z</time></trkpt><trkpt lat="41.77492634562633" lon="19.861304660172355"><ele>80.0</ele><time>2026-04-29T15:11:07Z</time></trkpt><trkpt lat="41.77495257574691" lon="19.861089509200273"><ele>80.0</ele><time>2026-04-29T15:11:08Z</time></trkpt><trkpt lat="41.774979643015286" lon="19.86086610014592"><ele>79.0</ele><time>2026-04-29T15:11:09Z</time></trkpt><trkpt lat="41.774991225726644" lon="19.860637605744614"><ele>78.0</ele><time>2026-04-29T15:11:10Z</time></trkpt><trkpt lat="41.775018242684155" lon="19.860437204491788"><ele>77.0</ele><time>2026-04-29T15:11:11Z</time></trkpt><trkpt lat="41.77504179334334" lon="19.86023432842665"><ele>77.75</ele><time>2026-04-29T15:11:12Z</time></trkpt><trkpt lat="41.77506004203628" lon="19.86004456228225"><ele>78.5</ele><time>2026-04-29T15:11:13Z</time></trkpt><trkpt lat="41.77508084019999" lon="19.859870004348334"><ele>79.25</ele><time>2026-04-29T15:11:14Z</time></trkpt><trkpt lat="41.77510515870535" lon="19.85971158549542"><ele>80.0</ele><time>2026-04-29T15:11:15Z</time></trkpt><trkpt lat="41.77513535312579" lon="19.85957201097448"><ele>80.0</ele><time>2026-04-29T15:11:16Z</time></trkpt><trkpt lat="41.775177499099016" lon="19.859460912345362"><ele>80.0</ele><time>2026-04-29T15:11:17Z</time></trkpt><trkpt lat="41.77523965506056" lon="19.85939100405893"><ele>80.0</ele><time>2026-04-29T15:11:18Z</time></trkpt><trkpt lat="41.775313491172525" lon="19.859447283367736"><ele>80.0</ele><time>2026-04-29T15:11:19Z</time></trkpt><trkpt lat="41.775409395579956" lon="19.859450147316362"><ele>80.0</ele><time>2026-04-29T15:11:20Z</time></trkpt><trkpt lat="41.775517376119645" lon="19.859456073829126"><ele>78.75</ele><time>2026-04-29T15:11:21Z</time></trkpt><trkpt lat="41.77563897220617" lon="19.859462747627997"><ele>77.5</ele><time>2026-04-29T15:11:22Z</time></trkpt><trkpt lat="41.77577485336881" lon="19.85945371151616"><ele>76.25</ele><time>2026-04-29T15:11:23Z</time></trkpt><trkpt lat="41.77591777765396" lon="19.859466310955113"><ele>75.0</ele><time>2026-04-29T15:11:24Z</time></trkpt><trkpt lat="41.77606479646467" lon="19.859481473641395"><ele>78.75</ele><time>2026-04-29T15:11:25Z</time></trkpt><trkpt lat="41.77621450700178" lon="19.85949361507211"><ele>82.5</ele><time>2026-04-29T15:11:26Z</time></trkpt><trkpt lat="41.77634831649467" lon="19.85949770430838"><ele>86.25</ele><time>2026-04-29T15:11:27Z</time></trkpt><trkpt lat="41.77648033514073" lon="19.85950077751792"><ele>90.0</ele><time>2026-04-29T15:11:28Z</time></trkpt><trkpt lat="41.77660000545736" lon="19.859522997642912"><ele>90.0</ele><time>2026-04-29T15:11:29Z</time></trkpt><trkpt lat="41.776714901973804" lon="19.859490207550586"><ele>90.0</ele><time>2026-04-29T15:11:30Z</time></trkpt><trkpt lat="41.77681796062579" lon="19.859418712757055"><ele>90.0</ele><time>2026-04-29T15:11:31Z</time></trkpt><trkpt lat="41.77692726998564" lon="19.859336528003052"><ele>90.0</ele><time>2026-04-29T15:11:32Z</time></trkpt><trkpt lat="41.77703034835384" lon="19.859232810765942"><ele>91.75</ele><time>2026-04-29T15:11:33Z</time></trkpt><trkpt lat="41.777119393760216" lon="19.859099240902427"><ele>93.5</ele><time>2026-04-29T15:11:34Z</time></trkpt><trkpt lat="41.77721566974524" lon="19.858963247200816"><ele>95.25</ele><time>2026-04-29T15:11:35Z</time></trkpt><trkpt lat="41.777317073759264" lon="19.858838803121024"><ele>97.0</ele><time>2026-04-29T15:11:36Z</time></trkpt><trkpt lat="41.77742658555427" lon="19.858730529236084"><ele>97.0</ele><time>2026-04-29T15:11:37Z</time></trkpt><trkpt lat="41.777531098547755" lon="19.858601709541826"><ele>97.0</ele><time>2026-04-29T15:11:38Z</time></trkpt><trkpt lat="41.77762733413815" lon="19.858510312665775"><ele>97.0</ele><time>2026-04-29T15:11:39Z</time></trkpt><trkpt lat="41.77774224352263" lon="19.858459374374064"><ele>97.0</ele><time>2026-04-29T15:11:40Z</time></trkpt><trkpt lat="41.77785186911705" lon="19.858390053409618"><ele>99.25</ele><time>2026-04-29T15:11:41Z</time></trkpt><trkpt lat="41.777941460900216" lon="19.858295685658167"><ele>101.5</ele><time>2026-04-29T15:11:42Z</time></trkpt><trkpt lat="41.77800680710889" lon="19.858163803535437"><ele>103.75</ele><time>2026-04-29T15:11:43Z</time></trkpt><trkpt lat="41.778063449309755" lon="19.858010365991863"><ele>106.0</ele><time>2026-04-29T15:11:44Z</time></trkpt><trkpt lat="41.778104879226134" lon="19.857846051430656"><ele>106.0</ele><time>2026-04-29T15:11:45Z</time></trkpt><trkpt lat="41.77812894238069" lon="19.857672663828954"><ele>106.0</ele><time>2026-04-29T15:11:46Z</time></trkpt><trkpt lat="41.77814168453898" lon="19.85749762250547"><ele>106.0</ele><time>2026-04-29T15:11:47Z</time></trkpt><trkpt lat="41.778175550962644" lon="19.857339367226565"><ele>106.0</ele><time>2026-04-29T15:11:48Z</time></trkpt><trkpt lat="41.778257050482644" lon="19.85724171763141"><ele>104.66666666666667</ele><time>2026-04-29T15:11:49Z</time></trkpt><trkpt lat="41.7783543820306" lon="19.85718408426306"><ele>103.33333333333334</ele><time>2026-04-29T15:11:50Z</time></trkpt><trkpt lat="41.77845110876145" lon="19.857134854242645"><ele>102.0</ele><time>2026-04-29T15:11:51Z</time></trkpt><trkpt lat="41.77853603676255" lon="19.85711310434462"><ele>100.66666666666666</ele><time>2026-04-29T15:11:52Z</time></trkpt><trkpt lat="41.77859398989124" lon="19.857154741278624"><ele>99.33333333333333</ele><time>2026-04-29T15:11:53Z</time></trkpt><trkpt lat="41.778659188779336" lon="19.85722739802181"><ele>98.0</ele><time>2026-04-29T15:11:54Z</time></trkpt><trkpt lat="41.77872774862636" lon="19.857343336128995"><ele>100.66666666666666</ele><time>2026-04-29T15:11:55Z</time></trkpt><trkpt lat="41.77879943423977" lon="19.857505716998116"><ele>103.33333333333334</ele><time>2026-04-29T15:11:56Z</time></trkpt><trkpt lat="41.77887789890534" lon="19.85769811804397"><ele>106.0</ele><time>2026-04-29T15:11:57Z</time></trkpt><trkpt lat="41.778927563714845" lon="19.85793798293955"><ele>106.0</ele><time>2026-04-29T15:11:58Z</time></trkpt><trkpt lat="41.778952371397445" lon="19.858180801069317"><ele>106.0</ele><time>2026-04-29T15:11:59Z</time></trkpt><trkpt lat="41.77896140279701" lon="19.85836730874164"><ele>106.0</ele><time>2026-04-29T15:12:00Z</time></trkpt><trkpt lat="41.77899367294046" lon="19.85852964357394"><ele>106.0</ele><time>2026-04-29T15:12:01Z</time></trkpt><trkpt lat="41.779069942985146" lon="19.85869210559657"><ele>107.0</ele><time>2026-04-29T15:12:02Z</time></trkpt><trkpt lat="41.77918171190003" lon="19.858843494683512"><ele>108.0</ele><time>2026-04-29T15:12:03Z</time></trkpt><trkpt lat="41.77930375584747" lon="19.858967206622435"><ele>109.0</ele><time>2026-04-29T15:12:04Z</time></trkpt><trkpt lat="41.77940232121481" lon="19.859045078891338"><ele>110.0</ele><time>2026-04-29T15:12:05Z</time></trkpt><trkpt lat="41.7795265598513" lon="19.859101584818664"><ele>110.0</ele><time>2026-04-29T15:12:06Z</time></trkpt><trkpt lat="41.779690873464034" lon="19.859125655705867"><ele>110.0</ele><time>2026-04-29T15:12:07Z</time></trkpt><trkpt lat="41.779893360659926" lon="19.859139208131324"><ele>110.0</ele><time>2026-04-29T15:12:08Z</time></trkpt><trkpt lat="41.78011014668892" lon="19.85924635633271"><ele>116.33333333333333</ele><time>2026-04-29T15:12:09Z</time></trkpt><trkpt lat="41.78030894709653" lon="19.859342183019862"><ele>122.66666666666666</ele><time>2026-04-29T15:12:10Z</time></trkpt><trkpt lat="41.78046870148778" lon="19.859393814445763"><ele>129.0</ele><time>2026-04-29T15:12:11Z</time></trkpt><trkpt lat="41.78062956358741" lon="19.859390303216273"><ele>129.0</ele><time>2026-04-29T15:12:12Z</time></trkpt><trkpt lat="41.78079845832614" lon="19.859398681253168"><ele>129.0</ele><time>2026-04-29T15:12:13Z</time></trkpt><trkpt lat="41.78096178783527" lon="19.85944550795013"><ele>129.0</ele><time>2026-04-29T15:12:14Z</time></trkpt><trkpt lat="41.78113394208701" lon="19.859565993044253"><ele>123.66666666666666</ele><time>2026-04-29T15:12:15Z</time></trkpt><trkpt lat="41.78133135945849" lon="19.859717532374376"><ele>118.33333333333333</ele><time>2026-04-29T15:12:16Z</time></trkpt><trkpt lat="41.78151772818283" lon="19.859857846502504"><ele>113.0</ele><time>2026-04-29T15:12:17Z</time></trkpt><trkpt lat="41.78167086989449" lon="19.859981408529805"><ele>113.0</ele><time>2026-04-29T15:12:18Z</time></trkpt><trkpt lat="41.78179057223502" lon="19.860094243575098"><ele>113.0</ele><time>2026-04-29T15:12:19Z</time></trkpt><trkpt lat="41.78187885831449" lon="19.860231021376016"><ele>113.0</ele><time>2026-04-29T15:12:20Z</time></trkpt><trkpt lat="41.78195702979548" lon="19.860412138097164"><ele>113.0</ele><time>2026-04-29T15:12:21Z</time></trkpt><trkpt lat="41.78203804156802" lon="19.860628687888827"><ele>113.33333333333333</ele><time>2026-04-29T15:12:22Z</time></trkpt><trkpt lat="41.78209838791451" lon="19.86088480968226"><ele>113.66666666666666</ele><time>2026-04-29T15:12:23Z</time></trkpt><trkpt lat="41.78218286857296" lon="19.8611537664403"><ele>114.0</ele><time>2026-04-29T15:12:24Z</time></trkpt><trkpt lat="41.78226192344176" lon="19.861379899155185"><ele>115.33333333333334</ele><time>2026-04-29T15:12:25Z</time></trkpt><trkpt lat="41.782307558918255" lon="19.86158542676707"><ele>116.66666666666667</ele><time>2026-04-29T15:12:26Z</time></trkpt><trkpt lat="41.78231697427133" lon="19.86178713505611"><ele>118.0</ele><time>2026-04-29T15:12:27Z</time></trkpt><trkpt lat="41.782292402100815" lon="19.86200636305455"><ele>119.66666666666667</ele><time>2026-04-29T15:12:28Z</time></trkpt><trkpt lat="41.782248805998904" lon="19.862221158555077"><ele>121.33333333333334</ele><time>2026-04-29T15:12:28.999Z</time></trkpt><trkpt lat="41.78222572428239" lon="19.862436742407702"><ele>123.0</ele><time>2026-04-29T15:12:29.999Z</time></trkpt><trkpt lat="41.78225223410414" lon="19.86269184069017"><ele>123.66666666666666</ele><time>2026-04-29T15:12:30.999Z</time></trkpt><trkpt lat="41.7823077903502" lon="19.862984624018864"><ele>124.33333333333333</ele><time>2026-04-29T15:12:31.999Z</time></trkpt><trkpt lat="41.782369798268704" lon="19.86325096202836"><ele>125.0</ele><time>2026-04-29T15:12:32.999Z</time></trkpt><trkpt lat="41.782425049791954" lon="19.86345822905741"><ele>125.0</ele><time>2026-04-29T15:12:33.999Z</time></trkpt><trkpt lat="41.78248757241561" lon="19.863623738343218"><ele>125.0</ele><time>2026-04-29T15:12:34.999Z</time></trkpt><trkpt lat="41.78256750908025" lon="19.863769410976282"><ele>125.0</ele><time>2026-04-29T15:12:35.999Z</time></trkpt><trkpt lat="41.78267482496231" lon="19.86393239448134"><ele>125.0</ele><time>2026-04-29T15:12:36.999Z</time></trkpt><trkpt lat="41.7828068524475" lon="19.864120140454926"><ele>124.0</ele><time>2026-04-29T15:12:37.999Z</time></trkpt><trkpt lat="41.782962943970375" lon="19.864299801798953"><ele>123.0</ele><time>2026-04-29T15:12:38.999Z</time></trkpt><trkpt lat="41.78313311442913" lon="19.864460558670707"><ele>122.0</ele><time>2026-04-29T15:12:39.999Z</time></trkpt><trkpt lat="41.783315877277026" lon="19.86460876847296"><ele>122.0</ele><time>2026-04-29T15:12:40.999Z</time></trkpt><trkpt lat="41.78348600016967" lon="19.864741362793957"><ele>122.0</ele><time>2026-04-29T15:12:41.999Z</time></trkpt><trkpt lat="41.78362011992886" lon="19.864878487549223"><ele>122.0</ele><time>2026-04-29T15:12:42.999Z</time></trkpt><trkpt lat="41.783744587559184" lon="19.864987284807075"><ele>123.0</ele><time>2026-04-29T15:12:43.999Z</time></trkpt><trkpt lat="41.783862113329555" lon="19.865055340188967"><ele>124.0</ele><time>2026-04-29T15:12:44.999Z</time></trkpt><trkpt lat="41.78397471137106" lon="19.865085775973498"><ele>125.0</ele><time>2026-04-29T15:12:45.999Z</time></trkpt><trkpt lat="41.784103902366176" lon="19.86506195370155"><ele>126.0</ele><time>2026-04-29T15:12:46.999Z</time></trkpt><trkpt lat="41.78423953888572" lon="19.86497503645935"><ele>127.66666666666666</ele><time>2026-04-29T15:12:47.999Z</time></trkpt><trkpt lat="41.78439544936106" lon="19.864895122426205"><ele>129.33333333333331</ele><time>2026-04-29T15:12:48.999Z</time></trkpt><trkpt lat="41.784558067736555" lon="19.86481896430597"><ele>131.0</ele><time>2026-04-29T15:12:49.999Z</time></trkpt><trkpt lat="41.78472061595995" lon="19.864745302030368"><ele>131.0</ele><time>2026-04-29T15:12:50.999Z</time></trkpt><trkpt lat="41.784884321934605" lon="19.86466545498043"><ele>131.0</ele><time>2026-04-29T15:12:51.999Z</time></trkpt><trkpt lat="41.785064986259215" lon="19.86461965583861"><ele>131.0</ele><time>2026-04-29T15:12:52.999Z</time></trkpt><trkpt lat="41.78523989353037" lon="19.864530635272242"><ele>133.0</ele><time>2026-04-29T15:12:53.999Z</time></trkpt><trkpt lat="41.7854235628231" lon="19.864478418430632"><ele>135.0</ele><time>2026-04-29T15:12:54.999Z</time></trkpt><trkpt lat="41.78561052792826" lon="19.864418377236724"><ele>137.0</ele><time>2026-04-29T15:12:55.999Z</time></trkpt><trkpt lat="41.78576426712585" lon="19.864365502919263"><ele>137.0</ele><time>2026-04-29T15:12:56.999Z</time></trkpt><trkpt lat="41.785891371266494" lon="19.86432897410377"><ele>137.0</ele><time>2026-04-29T15:12:57.999Z</time></trkpt><trkpt lat="41.78599069180277" lon="19.864328240566373"><ele>137.0</ele><time>2026-04-29T15:12:58.999Z</time></trkpt><trkpt lat="41.78609398714088" lon="19.86436973712945"><ele>137.0</ele><time>2026-04-29T15:12:59.999Z</time></trkpt><trkpt lat="41.78619663089568" lon="19.864453003357742"><ele>139.0</ele><time>2026-04-29T15:13:01Z</time></trkpt><trkpt lat="41.786289933229526" lon="19.86456507028331"><ele>141.0</ele><time>2026-04-29T15:13:02Z</time></trkpt><trkpt lat="41.7863914766982" lon="19.864683606054218"><ele>143.0</ele><time>2026-04-29T15:13:03Z</time></trkpt><trkpt lat="41.786482704643035" lon="19.864766278885753"><ele>145.0</ele><time>2026-04-29T15:13:04Z</time></trkpt><trkpt lat="41.786535511649355" lon="19.86483881343453"><ele>147.0</ele><time>2026-04-29T15:13:05Z</time></trkpt><trkpt lat="41.78656454600663" lon="19.86492835565942"><ele>147.0</ele><time>2026-04-29T15:13:06Z</time></trkpt><trkpt lat="41.78654213383159" lon="19.865056167388495"><ele>147.0</ele><time>2026-04-29T15:13:07Z</time></trkpt><trkpt lat="41.78652491390947" lon="19.865203493150393"><ele>147.0</ele><time>2026-04-29T15:13:08Z</time></trkpt><trkpt lat="41.78654768886262" lon="19.865370545312125"><ele>147.0</ele><time>2026-04-29T15:13:09Z</time></trkpt><trkpt lat="41.786599933978046" lon="19.86551666558236"><ele>146.0</ele><time>2026-04-29T15:13:10Z</time></trkpt><trkpt lat="41.786696411012365" lon="19.86563470808371"><ele>145.0</ele><time>2026-04-29T15:13:11Z</time></trkpt><trkpt lat="41.786825604865584" lon="19.865740627992537"><ele>144.0</ele><time>2026-04-29T15:13:12Z</time></trkpt><trkpt lat="41.786984158979486" lon="19.865863167018826"><ele>144.0</ele><time>2026-04-29T15:13:13Z</time></trkpt><trkpt lat="41.787172663651006" lon="19.866029027195303"><ele>144.0</ele><time>2026-04-29T15:13:14Z</time></trkpt><trkpt lat="41.78735559266125" lon="19.866189373513045"><ele>144.0</ele><time>2026-04-29T15:13:15Z</time></trkpt><trkpt lat="41.78751212761335" lon="19.86630155230525"><ele>144.0</ele><time>2026-04-29T15:13:16Z</time></trkpt><trkpt lat="41.78765094159846" lon="19.866385190428275"><ele>144.0</ele><time>2026-04-29T15:13:17Z</time></trkpt><trkpt lat="41.78777577165748" lon="19.866453773115662"><ele>144.0</ele><time>2026-04-29T15:13:18Z</time></trkpt><trkpt lat="41.787910145719174" lon="19.86652545502311"><ele>144.0</ele><time>2026-04-29T15:13:19Z</time></trkpt><trkpt lat="41.78803652679199" lon="19.866597959651177"><ele>145.5</ele><time>2026-04-29T15:13:20Z</time></trkpt><trkpt lat="41.788143970814964" lon="19.866669809835297"><ele>147.0</ele><time>2026-04-29T15:13:21Z</time></trkpt><trkpt lat="41.788237745134715" lon="19.866760867341075"><ele>148.5</ele><time>2026-04-29T15:13:22Z</time></trkpt><trkpt lat="41.78828676186088" lon="19.86689348508471"><ele>150.0</ele><time>2026-04-29T15:13:23Z</time></trkpt><trkpt lat="41.78832074260995" lon="19.867065947533245"><ele>150.0</ele><time>2026-04-29T15:13:24Z</time></trkpt><trkpt lat="41.788335181956974" lon="19.867248755607733"><ele>150.0</ele><time>2026-04-29T15:13:25Z</time></trkpt><trkpt lat="41.788323749945405" lon="19.867408422706873"><ele>150.0</ele><time>2026-04-29T15:13:26Z</time></trkpt><trkpt lat="41.78830520224845" lon="19.867594639470695"><ele>150.0</ele><time>2026-04-29T15:13:27Z</time></trkpt><trkpt lat="41.78828228711855" lon="19.86782340826088"><ele>152.66666666666666</ele><time>2026-04-29T15:13:28Z</time></trkpt><trkpt lat="41.78826097904489" lon="19.86805310172486"><ele>155.33333333333331</ele><time>2026-04-29T15:13:29Z</time></trkpt><trkpt lat="41.78823943648601" lon="19.868281692679627"><ele>158.0</ele><time>2026-04-29T15:13:30Z</time></trkpt><trkpt lat="41.788217187547446" lon="19.868521009036932"><ele>159.0</ele><time>2026-04-29T15:13:31Z</time></trkpt><trkpt lat="41.78819401885398" lon="19.86877503937531"><ele>160.0</ele><time>2026-04-29T15:13:32Z</time></trkpt><trkpt lat="41.788172356017306" lon="19.869011077268464"><ele>161.0</ele><time>2026-04-29T15:13:33Z</time></trkpt><trkpt lat="41.788153086061186" lon="19.86922312020088"><ele>162.25</ele><time>2026-04-29T15:13:34Z</time></trkpt><trkpt lat="41.788150732277686" lon="19.86943193283493"><ele>163.5</ele><time>2026-04-29T15:13:35Z</time></trkpt><trkpt lat="41.78816858001615" lon="19.869635092628883"><ele>164.75</ele><time>2026-04-29T15:13:36Z</time></trkpt><trkpt lat="41.788187334173635" lon="19.869811379889725"><ele>166.0</ele><time>2026-04-29T15:13:37Z</time></trkpt><trkpt lat="41.78820481243994" lon="19.869972041786713"><ele>165.25</ele><time>2026-04-29T15:13:38Z</time></trkpt><trkpt lat="41.78824897486292" lon="19.870115655925478"><ele>164.5</ele><time>2026-04-29T15:13:39Z</time></trkpt><trkpt lat="41.78832379827491" lon="19.870249133064434"><ele>163.75</ele><time>2026-04-29T15:13:40Z</time></trkpt><trkpt lat="41.7884177263248" lon="19.87036975632929"><ele>163.0</ele><time>2026-04-29T15:13:41Z</time></trkpt><trkpt lat="41.7885222741195" lon="19.87048065509697"><ele>166.66666666666669</ele><time>2026-04-29T15:13:42Z</time></trkpt><trkpt lat="41.788641724692155" lon="19.870574077931725"><ele>170.33333333333334</ele><time>2026-04-29T15:13:43Z</time></trkpt><trkpt lat="41.788786585418556" lon="19.87064808952046"><ele>174.0</ele><time>2026-04-29T15:13:44Z</time></trkpt><trkpt lat="41.78897369528783" lon="19.870734129792417"><ele>174.0</ele><time>2026-04-29T15:13:45Z</time></trkpt><trkpt lat="41.789137670032" lon="19.870878282042717"><ele>174.0</ele><time>2026-04-29T15:13:46Z</time></trkpt><trkpt lat="41.78928073726545" lon="19.870969371247167"><ele>174.0</ele><time>2026-04-29T15:13:47Z</time></trkpt><trkpt lat="41.789402448579395" lon="19.871052857429323"><ele>174.0</ele><time>2026-04-29T15:13:48Z</time></trkpt><trkpt lat="41.789536360349985" lon="19.87109285040344"><ele>174.0</ele><time>2026-04-29T15:13:49Z</time></trkpt><trkpt lat="41.78966757885907" lon="19.8710841187216"><ele>174.0</ele><time>2026-04-29T15:13:50Z</time></trkpt><trkpt lat="41.789808100292404" lon="19.87103908164151"><ele>174.0</ele><time>2026-04-29T15:13:51Z</time></trkpt><trkpt lat="41.78997158843357" lon="19.870963085190493"><ele>177.33333333333334</ele><time>2026-04-29T15:13:52Z</time></trkpt><trkpt lat="41.790160538362116" lon="19.870892650911912"><ele>180.66666666666669</ele><time>2026-04-29T15:13:53Z</time></trkpt><trkpt lat="41.7903317403436" lon="19.87082967210508"><ele>184.0</ele><time>2026-04-29T15:13:54Z</time></trkpt><trkpt lat="41.79046235888161" lon="19.87079623822204"><ele>185.2</ele><time>2026-04-29T15:13:55Z</time></trkpt><trkpt lat="41.79056526488995" lon="19.87074289819301"><ele>186.39999999999998</ele><time>2026-04-29T15:13:56Z</time></trkpt><trkpt lat="41.79065385590195" lon="19.870688064797704"><ele>187.6</ele><time>2026-04-29T15:13:57Z</time></trkpt><trkpt lat="41.79071521198018" lon="19.870589793419608"><ele>188.8</ele><time>2026-04-29T15:13:58Z</time></trkpt><trkpt lat="41.79074435047522" lon="19.870458683498576"><ele>190.0</ele><time>2026-04-29T15:13:59Z</time></trkpt><trkpt lat="41.79074632697326" lon="19.87029869115757"><ele>190.0</ele><time>2026-04-29T15:14:00Z</time></trkpt><trkpt lat="41.79074516535297" lon="19.870117988314195"><ele>190.0</ele><time>2026-04-29T15:14:01Z</time></trkpt><trkpt lat="41.79076761992685" lon="19.869954501470733"><ele>190.0</ele><time>2026-04-29T15:14:02Z</time></trkpt><trkpt lat="41.79084952087046" lon="19.869872607259612"><ele>190.0</ele><time>2026-04-29T15:14:03Z</time></trkpt><trkpt lat="41.79093430014756" lon="19.869791070256642"><ele>193.5</ele><time>2026-04-29T15:14:04Z</time></trkpt><trkpt lat="41.7910553075703" lon="19.869796905632214"><ele>197.0</ele><time>2026-04-29T15:14:05Z</time></trkpt><trkpt lat="41.7911837970918" lon="19.86980504464202"><ele>200.5</ele><time>2026-04-29T15:14:06Z</time></trkpt><trkpt lat="41.7913475370663" lon="19.869818577266216"><ele>204.0</ele><time>2026-04-29T15:14:07Z</time></trkpt><trkpt lat="41.79154448366725" lon="19.86981911212054"><ele>204.0</ele><time>2026-04-29T15:14:08Z</time></trkpt><trkpt lat="41.791727138536594" lon="19.869830746505365"><ele>204.0</ele><time>2026-04-29T15:14:09Z</time></trkpt><trkpt lat="41.79186890185871" lon="19.869860781236792"><ele>204.0</ele><time>2026-04-29T15:14:10Z</time></trkpt><trkpt lat="41.79197321747547" lon="19.869868550901575"><ele>204.0</ele><time>2026-04-29T15:14:11Z</time></trkpt><trkpt lat="41.79202996833307" lon="19.86993045557015"><ele>206.25</ele><time>2026-04-29T15:14:12Z</time></trkpt><trkpt lat="41.792092848922486" lon="19.870015597298114"><ele>208.5</ele><time>2026-04-29T15:14:13Z</time></trkpt><trkpt lat="41.79213592764989" lon="19.870160624621334"><ele>210.75</ele><time>2026-04-29T15:14:14Z</time></trkpt><trkpt lat="41.79217657212289" lon="19.8703143542306"><ele>213.0</ele><time>2026-04-29T15:14:15Z</time></trkpt><trkpt lat="41.79224296898187" lon="19.870454319186408"><ele>213.66666666666669</ele><time>2026-04-29T15:14:16Z</time></trkpt><trkpt lat="41.79234530124166" lon="19.870593196594278"><ele>214.33333333333334</ele><time>2026-04-29T15:14:17Z</time></trkpt><trkpt lat="41.79248179334162" lon="19.870793955699558"><ele>215.0</ele><time>2026-04-29T15:14:18Z</time></trkpt><trkpt lat="41.79262312415543" lon="19.871007111328996"><ele>216.25</ele><time>2026-04-29T15:14:19Z</time></trkpt><trkpt lat="41.79273937177542" lon="19.871145003164404"><ele>217.5</ele><time>2026-04-29T15:14:20Z</time></trkpt><trkpt lat="41.79285733528241" lon="19.871214943649992"><ele>218.75</ele><time>2026-04-29T15:14:21Z</time></trkpt><trkpt lat="41.79295828821003" lon="19.871239564358714"><ele>220.0</ele><time>2026-04-29T15:14:22Z</time></trkpt><trkpt lat="41.79303540698753" lon="19.87125600385928"><ele>220.0</ele><time>2026-04-29T15:14:24Z</time></trkpt><trkpt lat="41.79313063083015" lon="19.871076655802508"><ele>220.0</ele><time>2026-04-29T15:14:28Z</time></trkpt><trkpt lat="41.793197287447754" lon="19.87105357058572"><ele>220.0</ele><time>2026-04-29T15:14:29Z</time></trkpt><trkpt lat="41.793280912762654" lon="19.871031649758383"><ele>220.0</ele><time>2026-04-29T15:14:30Z</time></trkpt><trkpt lat="41.793392024015205" lon="19.870985190628552"><ele>220.0</ele><time>2026-04-29T15:14:31Z</time></trkpt><trkpt lat="41.793548495229764" lon="19.87091548210566"><ele>222.0</ele><time>2026-04-29T15:14:32Z</time></trkpt><trkpt lat="41.79370941521043" lon="19.870844322211344"><ele>224.0</ele><time>2026-04-29T15:14:33Z</time></trkpt><trkpt lat="41.79385331748549" lon="19.870788545693664"><ele>226.0</ele><time>2026-04-29T15:14:33.999Z</time></trkpt><trkpt lat="41.793981324013195" lon="19.87066865483087"><ele>226.0</ele><time>2026-04-29T15:14:34.999Z</time></trkpt><trkpt lat="41.79410097539316" lon="19.870522123140816"><ele>226.0</ele><time>2026-04-29T15:14:35.999Z</time></trkpt><trkpt lat="41.79421374451093" lon="19.87038018693101"><ele>226.0</ele><time>2026-04-29T15:14:36.999Z</time></trkpt><trkpt lat="41.794310616905086" lon="19.870256701855954"><ele>227.25</ele><time>2026-04-29T15:14:37.999Z</time></trkpt><trkpt lat="41.79440566975264" lon="19.870124128977157"><ele>228.5</ele><time>2026-04-29T15:14:38.999Z</time></trkpt><trkpt lat="41.794493709809174" lon="19.869997621342346"><ele>229.75</ele><time>2026-04-29T15:14:39.999Z</time></trkpt><trkpt lat="41.794566925651196" lon="19.869892162322415"><ele>231.0</ele><time>2026-04-29T15:14:40.999Z</time></trkpt><trkpt lat="41.79462677432851" lon="19.869792740455242"><ele>228.60000000000002</ele><time>2026-04-29T15:14:41.999Z</time></trkpt><trkpt lat="41.79471144818769" lon="19.869741934871872"><ele>226.20000000000002</ele><time>2026-04-29T15:14:42.999Z</time></trkpt><trkpt lat="41.79480424312217" lon="19.869738618323666"><ele>223.79999999999998</ele><time>2026-04-29T15:14:43.999Z</time></trkpt><trkpt lat="41.794910068253806" lon="19.86979904119911"><ele>221.39999999999998</ele><time>2026-04-29T15:14:44.999Z</time></trkpt><trkpt lat="41.79501363444671" lon="19.86985503152193"><ele>219.0</ele><time>2026-04-29T15:14:45.999Z</time></trkpt><trkpt lat="41.79509768506977" lon="19.869919731380907"><ele>219.75</ele><time>2026-04-29T15:14:46.999Z</time></trkpt><trkpt lat="41.79520163282203" lon="19.869937508335767"><ele>220.5</ele><time>2026-04-29T15:14:47.999Z</time></trkpt><trkpt lat="41.79531184685953" lon="19.86988429152431"><ele>221.25</ele><time>2026-04-29T15:14:48.999Z</time></trkpt><trkpt lat="41.79539528778969" lon="19.869773884475485"><ele>222.0</ele><time>2026-04-29T15:14:49.999Z</time></trkpt><trkpt lat="41.795471684785646" lon="19.86964376702878"><ele>222.0</ele><time>2026-04-29T15:14:50.999Z</time></trkpt><trkpt lat="41.79553610582434" lon="19.869473311670877"><ele>222.0</ele><time>2026-04-29T15:14:51.999Z</time></trkpt><trkpt lat="41.7955845644216" lon="19.86932888015697"><ele>222.0</ele><time>2026-04-29T15:14:52.999Z</time></trkpt><trkpt lat="41.79559055116982" lon="19.869136689416543"><ele>222.0</ele><time>2026-04-29T15:14:53.999Z</time></trkpt><trkpt lat="41.79560303357597" lon="19.868970923699422"><ele>220.39999999999998</ele><time>2026-04-29T15:14:54.999Z</time></trkpt><trkpt lat="41.795629004701574" lon="19.868850285235187"><ele>218.79999999999998</ele><time>2026-04-29T15:14:55.999Z</time></trkpt><trkpt lat="41.79568197751397" lon="19.868754876279972"><ele>217.2</ele><time>2026-04-29T15:14:56.999Z</time></trkpt><trkpt lat="41.795767689662874" lon="19.868698964058666"><ele>215.6</ele><time>2026-04-29T15:14:57.999Z</time></trkpt><trkpt lat="41.79590224135211" lon="19.86861370327624"><ele>214.0</ele><time>2026-04-29T15:14:58.999Z</time></trkpt><trkpt lat="41.79606890655398" lon="19.868511812720396"><ele>206.66666666666666</ele><time>2026-04-29T15:14:59.999Z</time></trkpt><trkpt lat="41.79621154391221" lon="19.86834535570605"><ele>199.33333333333331</ele><time>2026-04-29T15:15:00.999Z</time></trkpt><trkpt lat="41.7963282651716" lon="19.8682314665526"><ele>192.0</ele><time>2026-04-29T15:15:01.999Z</time></trkpt><trkpt lat="41.79644405016478" lon="19.86814987333449"><ele>192.0</ele><time>2026-04-29T15:15:03Z</time></trkpt><trkpt lat="41.79656649015718" lon="19.8681043112916"><ele>192.0</ele><time>2026-04-29T15:15:04Z</time></trkpt><trkpt lat="41.796719507332504" lon="19.86804034520323"><ele>192.0</ele><time>2026-04-29T15:15:05Z</time></trkpt><trkpt lat="41.7968686114892" lon="19.86800548424935"><ele>192.0</ele><time>2026-04-29T15:15:06Z</time></trkpt><trkpt lat="41.796987344735754" lon="19.867972634884488"><ele>191.25</ele><time>2026-04-29T15:15:07Z</time></trkpt><trkpt lat="41.79706672281033" lon="19.867936423458435"><ele>190.5</ele><time>2026-04-29T15:15:08Z</time></trkpt><trkpt lat="41.79715252597679" lon="19.86781346761322"><ele>189.75</ele><time>2026-04-29T15:15:10Z</time></trkpt><trkpt lat="41.79709951383769" lon="19.867661499100997"><ele>189.0</ele><time>2026-04-29T15:15:11Z</time></trkpt><trkpt lat="41.797007943272035" lon="19.867540559323267"><ele>187.75</ele><time>2026-04-29T15:15:12Z</time></trkpt><trkpt lat="41.796906250340726" lon="19.86737126587579"><ele>186.5</ele><time>2026-04-29T15:15:13Z</time></trkpt><trkpt lat="41.79684920208158" lon="19.867206009544503"><ele>185.25</ele><time>2026-04-29T15:15:14Z</time></trkpt><trkpt lat="41.796803198309085" lon="19.86709009921891"><ele>184.0</ele><time>2026-04-29T15:15:15Z</time></trkpt><trkpt lat="41.796840047535675" lon="19.866981129836827"><ele>188.0</ele><time>2026-04-29T15:15:16Z</time></trkpt><trkpt lat="41.796909444669645" lon="19.86689867275464"><ele>192.0</ele><time>2026-04-29T15:15:17Z</time></trkpt><trkpt lat="41.79701416324383" lon="19.866811862571062"><ele>196.0</ele><time>2026-04-29T15:15:18Z</time></trkpt><trkpt lat="41.79713061715137" lon="19.866680137131745"><ele>200.0</ele><time>2026-04-29T15:15:19Z</time></trkpt><trkpt lat="41.79721576841006" lon="19.866536964090578"><ele>200.0</ele><time>2026-04-29T15:15:20Z</time></trkpt><trkpt lat="41.79723763687009" lon="19.866332923266324"><ele>200.0</ele><time>2026-04-29T15:15:21Z</time></trkpt><trkpt lat="41.797262935552084" lon="19.866121804560446"><ele>200.0</ele><time>2026-04-29T15:15:22Z</time></trkpt><trkpt lat="41.7972841038473" lon="19.865884677715343"><ele>198.5</ele><time>2026-04-29T15:15:23Z</time></trkpt><trkpt lat="41.79728962331159" lon="19.865691145537035"><ele>197.0</ele><time>2026-04-29T15:15:24Z</time></trkpt><trkpt lat="41.797303061584834" lon="19.86554074165031"><ele>195.5</ele><time>2026-04-29T15:15:25Z</time></trkpt><trkpt lat="41.79732658036601" lon="19.865396450658427"><ele>194.0</ele><time>2026-04-29T15:15:26Z</time></trkpt><trkpt lat="41.797353756849944" lon="19.865272868876552"><ele>194.0</ele><time>2026-04-29T15:15:27Z</time></trkpt><trkpt lat="41.79738317957227" lon="19.865127137219936"><ele>194.0</ele><time>2026-04-29T15:15:28Z</time></trkpt><trkpt lat="41.79740889888385" lon="19.864973018797244"><ele>194.0</ele><time>2026-04-29T15:15:29Z</time></trkpt><trkpt lat="41.79743798452837" lon="19.864808999387165"><ele>194.0</ele><time>2026-04-29T15:15:30Z</time></trkpt><trkpt lat="41.797481896560654" lon="19.864638506027877"><ele>190.75</ele><time>2026-04-29T15:15:31Z</time></trkpt><trkpt lat="41.79754307803399" lon="19.86447112184736"><ele>187.5</ele><time>2026-04-29T15:15:32Z</time></trkpt><trkpt lat="41.79760993149926" lon="19.864328539751373"><ele>184.25</ele><time>2026-04-29T15:15:33Z</time></trkpt><trkpt lat="41.797679033216816" lon="19.864221228353774"><ele>181.0</ele><time>2026-04-29T15:15:34Z</time></trkpt><trkpt lat="41.79775494834839" lon="19.864132799503658"><ele>181.0</ele><time>2026-04-29T15:15:35Z</time></trkpt><trkpt lat="41.797833278051186" lon="19.8640586106175"><ele>181.0</ele><time>2026-04-29T15:15:36Z</time></trkpt><trkpt lat="41.79791133075423" lon="19.86399739609473"><ele>181.0</ele><time>2026-04-29T15:15:37Z</time></trkpt><trkpt lat="41.79798076499049" lon="19.863961548916304"><ele>181.0</ele><time>2026-04-29T15:15:38Z</time></trkpt><trkpt lat="41.79808815078746" lon="19.863928461136357"><ele>181.0</ele><time>2026-04-29T15:15:40Z</time></trkpt><trkpt lat="41.79816004847795" lon="19.863926370158982"><ele>181.0</ele><time>2026-04-29T15:15:42Z</time></trkpt><trkpt lat="41.79822238200488" lon="19.86394260634766"><ele>181.0</ele><time>2026-04-29T15:15:44Z</time></trkpt><trkpt lat="41.79828575558406" lon="19.86397041427356"><ele>181.0</ele><time>2026-04-29T15:15:46Z</time></trkpt><trkpt lat="41.79834819633081" lon="19.863992135614794"><ele>181.0</ele><time>2026-04-29T15:15:49Z</time></trkpt><trkpt lat="41.79841371617469" lon="19.864019845162105"><ele>181.0</ele><time>2026-04-29T15:16:19Z</time></trkpt><trkpt lat="41.79847901799019" lon="19.86402614212751"><ele>181.0</ele><time>2026-04-29T15:16:20Z</time></trkpt><trkpt lat="41.79854345564728" lon="19.8640144857073"><ele>181.0</ele><time>2026-04-29T15:16:21Z</time></trkpt><trkpt lat="41.79860697362758" lon="19.86395747415293"><ele>181.0</ele><time>2026-04-29T15:16:22Z</time></trkpt><trkpt lat="41.79867576139254" lon="19.86393662276142"><ele>179.16666666666669</ele><time>2026-04-29T15:16:23Z</time></trkpt><trkpt lat="41.798731526293764" lon="19.863863948475096"><ele>177.33333333333334</ele><time>2026-04-29T15:16:24Z</time></trkpt><trkpt lat="41.798793616888" lon="19.863805500096145"><ele>175.5</ele><time>2026-04-29T15:16:25Z</time></trkpt><trkpt lat="41.79885220775862" lon="19.863737885821994"><ele>173.66666666666666</ele><time>2026-04-29T15:16:26Z</time></trkpt><trkpt lat="41.79891229816834" lon="19.863665395386548"><ele>171.83333333333331</ele><time>2026-04-29T15:16:27Z</time></trkpt><trkpt lat="41.79896784055466" lon="19.863600265244955"><ele>170.0</ele><time>2026-04-29T15:16:28Z</time></trkpt><trkpt lat="41.79904547448985" lon="19.863492157582986"><ele>169.0</ele><time>2026-04-29T15:16:30Z</time></trkpt><trkpt lat="41.799060877409815" lon="19.863400361962803"><ele>168.0</ele><time>2026-04-29T15:16:32Z</time></trkpt><trkpt lat="41.7990838143096" lon="19.86331985812727"><ele>167.0</ele><time>2026-04-29T15:16:36Z</time></trkpt><trkpt lat="41.799105469683774" lon="19.863195631305405"><ele>166.0</ele><time>2026-04-29T15:16:57Z</time></trkpt><trkpt lat="41.799128333270076" lon="19.8630437571786"><ele>165.0</ele><time>2026-04-29T15:16:59Z</time></trkpt><trkpt lat="41.79914372262365" lon="19.862955411929256"><ele>164.0</ele><time>2026-04-29T15:17:00Z</time></trkpt><trkpt lat="41.79915896268142" lon="19.86286427463326"><ele>164.0</ele><time>2026-04-29T15:17:01Z</time></trkpt><trkpt lat="41.79917579830318" lon="19.86277045759061"><ele>164.0</ele><time>2026-04-29T15:17:02Z</time></trkpt><trkpt lat="41.799195178958605" lon="19.86267506575431"><ele>164.0</ele><time>2026-04-29T15:17:03Z</time></trkpt><trkpt lat="41.79921318765146" lon="19.862576828659613"><ele>164.0</ele><time>2026-04-29T15:17:04Z</time></trkpt><trkpt lat="41.79923463302617" lon="19.862462567822014"><ele>164.0</ele><time>2026-04-29T15:17:05Z</time></trkpt><trkpt lat="41.79925747260556" lon="19.862337452628687"><ele>164.0</ele><time>2026-04-29T15:17:06Z</time></trkpt><trkpt lat="41.79928251193168" lon="19.862207583425725"><ele>158.0</ele><time>2026-04-29T15:17:07Z</time></trkpt><trkpt lat="41.79931525909245" lon="19.86206982103844"><ele>152.0</ele><time>2026-04-29T15:17:08Z</time></trkpt><trkpt lat="41.79934752014318" lon="19.861924910898654"><ele>146.0</ele><time>2026-04-29T15:17:09Z</time></trkpt><trkpt lat="41.79937674711624" lon="19.861776515951554"><ele>140.0</ele><time>2026-04-29T15:17:10Z</time></trkpt><trkpt lat="41.7994061150115" lon="19.861623241894677"><ele>131.5</ele><time>2026-04-29T15:17:11Z</time></trkpt><trkpt lat="41.79943727871411" lon="19.861468458615942"><ele>123.0</ele><time>2026-04-29T15:17:12Z</time></trkpt><trkpt lat="41.79946952868716" lon="19.861306592553756"><ele>114.5</ele><time>2026-04-29T15:17:13Z</time></trkpt><trkpt lat="41.799502880078194" lon="19.861143398444653"><ele>106.0</ele><time>2026-04-29T15:17:14Z</time></trkpt><trkpt lat="41.79953679353068" lon="19.86097320977742"><ele>103.0</ele><time>2026-04-29T15:17:15Z</time></trkpt><trkpt lat="41.799570945927684" lon="19.860801334814052"><ele>100.0</ele><time>2026-04-29T15:17:16Z</time></trkpt><trkpt lat="41.799604837901285" lon="19.860628533151985"><ele>97.0</ele><time>2026-04-29T15:17:17Z</time></trkpt><trkpt lat="41.79963793486899" lon="19.860450792901034"><ele>94.0</ele><time>2026-04-29T15:17:18Z</time></trkpt><trkpt lat="41.79967211310126" lon="19.860270876481255"><ele>98.0</ele><time>2026-04-29T15:17:19Z</time></trkpt><trkpt lat="41.79970603818356" lon="19.86011578482069"><ele>102.0</ele><time>2026-04-29T15:17:20Z</time></trkpt><trkpt lat="41.79973677369438" lon="19.859976552623028"><ele>106.0</ele><time>2026-04-29T15:17:21Z</time></trkpt><trkpt lat="41.79976695819979" lon="19.859838218359737"><ele>110.0</ele><time>2026-04-29T15:17:22Z</time></trkpt><trkpt lat="41.79979657358604" lon="19.859693211236607"><ele>114.0</ele><time>2026-04-29T15:17:23Z</time></trkpt><trkpt lat="41.79982417388668" lon="19.859544752677575"><ele>114.0</ele><time>2026-04-29T15:17:24Z</time></trkpt><trkpt lat="41.79985351782724" lon="19.859393740657143"><ele>114.0</ele><time>2026-04-29T15:17:25Z</time></trkpt><trkpt lat="41.79988458427232" lon="19.859239305892622"><ele>114.0</ele><time>2026-04-29T15:17:26Z</time></trkpt><trkpt lat="41.7999160835389" lon="19.859084384965758"><ele>114.0</ele><time>2026-04-29T15:17:27Z</time></trkpt><trkpt lat="41.79994061958969" lon="19.858956173349785"><ele>120.83333333333333</ele><time>2026-04-29T15:17:28Z</time></trkpt><trkpt lat="41.79997365978241" lon="19.858843697594295"><ele>127.66666666666666</ele><time>2026-04-29T15:17:29Z</time></trkpt><trkpt lat="41.79998075799461" lon="19.85873899622241"><ele>134.5</ele><time>2026-04-29T15:17:30Z</time></trkpt><trkpt lat="41.79994153425338" lon="19.858632190794708"><ele>141.33333333333331</ele><time>2026-04-29T15:17:31Z</time></trkpt><trkpt lat="41.79988839947392" lon="19.8585375169205"><ele>148.16666666666666</ele><time>2026-04-29T15:17:32Z</time></trkpt><trkpt lat="41.79980613343128" lon="19.858482478649304"><ele>155.0</ele><time>2026-04-29T15:17:33Z</time></trkpt><trkpt lat="41.79970428064134" lon="19.85846361261459"><ele>155.0</ele><time>2026-04-29T15:17:34Z</time></trkpt><trkpt lat="41.79959902173461" lon="19.858469916682605"><ele>155.0</ele><time>2026-04-29T15:17:35Z</time></trkpt><trkpt lat="41.799504340065376" lon="19.85848191140902"><ele>155.0</ele><time>2026-04-29T15:17:36Z</time></trkpt><trkpt lat="41.79940786561449" lon="19.858496306390357"><ele>155.0</ele><time>2026-04-29T15:17:37Z</time></trkpt><trkpt lat="41.79931109204505" lon="19.858545030613122"><ele>155.0</ele><time>2026-04-29T15:17:38Z</time></trkpt><trkpt lat="41.79921157760475" lon="19.858532996719415"><ele>153.2</ele><time>2026-04-29T15:17:39Z</time></trkpt><trkpt lat="41.79911207406347" lon="19.858503819192702"><ele>151.4</ele><time>2026-04-29T15:17:40Z</time></trkpt><trkpt lat="41.799013023268444" lon="19.858470247481517"><ele>149.6</ele><time>2026-04-29T15:17:41Z</time></trkpt><trkpt lat="41.79891962257191" lon="19.858407361112043"><ele>147.8</ele><time>2026-04-29T15:17:42Z</time></trkpt><trkpt lat="41.79882303209172" lon="19.85836485129123"><ele>146.0</ele><time>2026-04-29T15:17:43Z</time></trkpt><trkpt lat="41.79872925509344" lon="19.858322434421208"><ele>152.0</ele><time>2026-04-29T15:17:44Z</time></trkpt><trkpt lat="41.79863696968708" lon="19.858273989437723"><ele>158.0</ele><time>2026-04-29T15:17:45Z</time></trkpt><trkpt lat="41.798557197910405" lon="19.8582312325212"><ele>164.0</ele><time>2026-04-29T15:17:46Z</time></trkpt><trkpt lat="41.79847277424773" lon="19.858142274490007"><ele>170.0</ele><time>2026-04-29T15:17:48Z</time></trkpt><trkpt lat="41.79843264170073" lon="19.8580244179916"><ele>176.0</ele><time>2026-04-29T15:17:50Z</time></trkpt><trkpt lat="41.79843522832161" lon="19.85793370465845"><ele>176.0</ele><time>2026-04-29T15:17:52Z</time></trkpt><trkpt lat="41.7984853635345" lon="19.85777511940808"><ele>176.0</ele><time>2026-04-29T15:17:54Z</time></trkpt><trkpt lat="41.79854054395046" lon="19.85771602062234"><ele>176.0</ele><time>2026-04-29T15:17:55Z</time></trkpt><trkpt lat="41.79859762809883" lon="19.8576445902617"><ele>176.0</ele><time>2026-04-29T15:17:56Z</time></trkpt><trkpt lat="41.79869271489296" lon="19.85764136221816"><ele>176.0</ele><time>2026-04-29T15:17:57Z</time></trkpt><trkpt lat="41.79877704457369" lon="19.857605533476484"><ele>181.60000000000002</ele><time>2026-04-29T15:17:58Z</time></trkpt><trkpt lat="41.79889681376073" lon="19.85760621308386"><ele>187.2</ele><time>2026-04-29T15:18:00Z</time></trkpt><trkpt lat="41.798973021679764" lon="19.857595940002167"><ele>192.8</ele><time>2026-04-29T15:18:01Z</time></trkpt><trkpt lat="41.7990613399424" lon="19.857585385204125"><ele>198.39999999999998</ele><time>2026-04-29T15:18:02Z</time></trkpt><trkpt lat="41.79915118923683" lon="19.85757523383288"><ele>204.0</ele><time>2026-04-29T15:18:03Z</time></trkpt><trkpt lat="41.799241123104586" lon="19.85757116826321"><ele>206.0</ele><time>2026-04-29T15:18:04Z</time></trkpt><trkpt lat="41.79933890404572" lon="19.857569985144135"><ele>208.0</ele><time>2026-04-29T15:18:06Z</time></trkpt><trkpt lat="41.79940213303061" lon="19.85756712176358"><ele>210.0</ele><time>2026-04-29T15:18:07Z</time></trkpt><trkpt lat="41.79948764210512" lon="19.857584755243177"><ele>212.0</ele><time>2026-04-29T15:18:08Z</time></trkpt><trkpt lat="41.7995831434697" lon="19.857571957118644"><ele>214.0</ele><time>2026-04-29T15:18:09Z</time></trkpt><trkpt lat="41.79968217782894" lon="19.85756061471259"><ele>216.0</ele><time>2026-04-29T15:18:10Z</time></trkpt><trkpt lat="41.79978498386405" lon="19.857549274842036"><ele>216.0</ele><time>2026-04-29T15:18:11Z</time></trkpt><trkpt lat="41.7998902916314" lon="19.857542758445284"><ele>216.00000000000003</ele><time>2026-04-29T15:18:12Z</time></trkpt><trkpt lat="41.80000086183691" lon="19.857542235037076"><ele>216.00000000000003</ele><time>2026-04-29T15:18:13Z</time></trkpt><trkpt lat="41.80011299645849" lon="19.857541129460802"><ele>216.0</ele><time>2026-04-29T15:18:14Z</time></trkpt><trkpt lat="41.80022810392546" lon="19.85753672694301"><ele>216.0</ele><time>2026-04-29T15:18:15Z</time></trkpt><trkpt lat="41.80034661696285" lon="19.85753116842011"><ele>217.60000000000002</ele><time>2026-04-29T15:18:16Z</time></trkpt><trkpt lat="41.80045717487773" lon="19.85753550485791"><ele>219.20000000000002</ele><time>2026-04-29T15:18:17Z</time></trkpt><trkpt lat="41.80057275944527" lon="19.857536814700115"><ele>220.79999999999998</ele><time>2026-04-29T15:18:18Z</time></trkpt><trkpt lat="41.800666885546015" lon="19.857561401091573"><ele>222.39999999999998</ele><time>2026-04-29T15:18:19Z</time></trkpt><trkpt lat="41.800727051203864" lon="19.857605799294085"><ele>224.0</ele><time>2026-04-29T15:18:20Z</time></trkpt><trkpt lat="41.800840296265" lon="19.857647033353196"><ele>224.83333333333334</ele><time>2026-04-29T15:18:22Z</time></trkpt><trkpt lat="41.80091131600647" lon="19.857673043883477"><ele>225.66666666666669</ele><time>2026-04-29T15:18:23Z</time></trkpt><trkpt lat="41.800981655099875" lon="19.857699296546215"><ele>226.5</ele><time>2026-04-29T15:18:24Z</time></trkpt><trkpt lat="41.801057803396915" lon="19.857709065538803"><ele>227.33333333333331</ele><time>2026-04-29T15:18:25Z</time></trkpt><trkpt lat="41.80112864448839" lon="19.85774308334089"><ele>228.16666666666666</ele><time>2026-04-29T15:18:26Z</time></trkpt><trkpt lat="41.801207796964654" lon="19.857777408724314"><ele>229.0</ele><time>2026-04-29T15:18:27Z</time></trkpt><trkpt lat="41.801299361319" lon="19.857813864518015"><ele>229.0</ele><time>2026-04-29T15:18:28Z</time></trkpt><trkpt lat="41.801395475663895" lon="19.857857731704204"><ele>228.99999999999997</ele><time>2026-04-29T15:18:29Z</time></trkpt><trkpt lat="41.80148587895058" lon="19.857937762369847"><ele>228.99999999999997</ele><time>2026-04-29T15:18:30Z</time></trkpt><trkpt lat="41.801584262108825" lon="19.85800940168517"><ele>229.0</ele><time>2026-04-29T15:18:31Z</time></trkpt><trkpt lat="41.80168861510369" lon="19.858058815359684"><ele>229.0</ele><time>2026-04-29T15:18:32Z</time></trkpt><trkpt lat="41.80179240257406" lon="19.85807934647391"><ele>227.79999999999998</ele><time>2026-04-29T15:18:33.001Z</time></trkpt><trkpt lat="41.80189436299009" lon="19.85802917371962"><ele>226.59999999999997</ele><time>2026-04-29T15:18:34.001Z</time></trkpt><trkpt lat="41.80196872714521" lon="19.85797178753506"><ele>225.4</ele><time>2026-04-29T15:18:35.001Z</time></trkpt><trkpt lat="41.80205265437227" lon="19.857887828268243"><ele>224.2</ele><time>2026-04-29T15:18:36.001Z</time></trkpt><trkpt lat="41.802123582637634" lon="19.857775020322503"><ele>223.0</ele><time>2026-04-29T15:18:37.001Z</time></trkpt><trkpt lat="41.802158632701946" lon="19.857660007232017"><ele>224.0</ele><time>2026-04-29T15:18:38.001Z</time></trkpt><trkpt lat="41.80216337319924" lon="19.85752787419468"><ele>225.0</ele><time>2026-04-29T15:18:39.001Z</time></trkpt><trkpt lat="41.80214012729464" lon="19.85735661776867"><ele>226.0</ele><time>2026-04-29T15:18:40.001Z</time></trkpt><trkpt lat="41.802141369875464" lon="19.85718230271413"><ele>227.0</ele><time>2026-04-29T15:18:41.001Z</time></trkpt><trkpt lat="41.80218039122183" lon="19.857065610863728"><ele>227.0</ele><time>2026-04-29T15:18:42.001Z</time></trkpt><trkpt lat="41.80221481774007" lon="19.856957743971574"><ele>227.0</ele><time>2026-04-29T15:18:43.001Z</time></trkpt><trkpt lat="41.802303378076026" lon="19.856918288127527"><ele>227.0</ele><time>2026-04-29T15:18:44.001Z</time></trkpt><trkpt lat="41.80242631129741" lon="19.8568892116333"><ele>227.0</ele><time>2026-04-29T15:18:45.001Z</time></trkpt><trkpt lat="41.802567787475" lon="19.85677666596618"><ele>222.33333333333334</ele><time>2026-04-29T15:18:46Z</time></trkpt><trkpt lat="41.802730183744536" lon="19.8565545864562"><ele>217.66666666666669</ele><time>2026-04-29T15:18:47Z</time></trkpt><trkpt lat="41.802886004435834" lon="19.85641593223478"><ele>213.0</ele><time>2026-04-29T15:18:48Z</time></trkpt><trkpt lat="41.80301313889563" lon="19.856279877221617"><ele>213.0</ele><time>2026-04-29T15:18:49Z</time></trkpt><trkpt lat="41.803118513340316" lon="19.85612445972676"><ele>213.0</ele><time>2026-04-29T15:18:50Z</time></trkpt><trkpt lat="41.803232723100614" lon="19.855951785571634"><ele>213.0</ele><time>2026-04-29T15:18:51Z</time></trkpt><trkpt lat="41.80333974068141" lon="19.855746050626973"><ele>211.33333333333331</ele><time>2026-04-29T15:18:52Z</time></trkpt><trkpt lat="41.80345841391596" lon="19.85558565810987"><ele>209.66666666666666</ele><time>2026-04-29T15:18:53Z</time></trkpt><trkpt lat="41.80355099959342" lon="19.855435192955273"><ele>208.0</ele><time>2026-04-29T15:18:54Z</time></trkpt><trkpt lat="41.80364705333672" lon="19.855305889035964"><ele>208.0</ele><time>2026-04-29T15:18:55Z</time></trkpt><trkpt lat="41.80374004441401" lon="19.85520373562513"><ele>208.0</ele><time>2026-04-29T15:18:56Z</time></trkpt><trkpt lat="41.8038281277629" lon="19.855122185410156"><ele>208.0</ele><time>2026-04-29T15:18:57Z</time></trkpt><trkpt lat="41.803915710566535" lon="19.855081828405424"><ele>208.0</ele><time>2026-04-29T15:18:58Z</time></trkpt><trkpt lat="41.80401430883291" lon="19.85509838069146"><ele>208.0</ele><time>2026-04-29T15:18:59Z</time></trkpt><trkpt lat="41.80413519837258" lon="19.855088534084967"><ele>210.75</ele><time>2026-04-29T15:19:00Z</time></trkpt><trkpt lat="41.80426203038729" lon="19.855087317987806"><ele>213.5</ele><time>2026-04-29T15:19:01Z</time></trkpt><trkpt lat="41.804381291628445" lon="19.855021334188947"><ele>216.25</ele><time>2026-04-29T15:19:02Z</time></trkpt><trkpt lat="41.80450193909848" lon="19.854913944907782"><ele>219.0</ele><time>2026-04-29T15:19:03Z</time></trkpt><trkpt lat="41.8046323502097" lon="19.854843483932463"><ele>219.0</ele><time>2026-04-29T15:19:04Z</time></trkpt><trkpt lat="41.804733669571824" lon="19.85476337323533"><ele>218.99999999999997</ele><time>2026-04-29T15:19:05Z</time></trkpt><trkpt lat="41.80484258984289" lon="19.854771896858857"><ele>218.99999999999997</ele><time>2026-04-29T15:19:06Z</time></trkpt><trkpt lat="41.80493097062879" lon="19.85483568339562"><ele>219.0</ele><time>2026-04-29T15:19:07Z</time></trkpt><trkpt lat="41.80495713766955" lon="19.85496965126045"><ele>219.0</ele><time>2026-04-29T15:19:08Z</time></trkpt><trkpt lat="41.80497892865964" lon="19.855088410154156"><ele>217.25</ele><time>2026-04-29T15:19:09Z</time></trkpt><trkpt lat="41.804991308578686" lon="19.855245324074527"><ele>215.5</ele><time>2026-04-29T15:19:10Z</time></trkpt><trkpt lat="41.804959143173214" lon="19.85542793853252"><ele>213.75</ele><time>2026-04-29T15:19:11Z</time></trkpt><trkpt lat="41.804915382867755" lon="19.85561016465984"><ele>212.0</ele><time>2026-04-29T15:19:12Z</time></trkpt><trkpt lat="41.80488982437127" lon="19.855764927109814"><ele>212.0</ele><time>2026-04-29T15:19:13Z</time></trkpt><trkpt lat="41.804886538959465" lon="19.855924183739027"><ele>212.0</ele><time>2026-04-29T15:19:14Z</time></trkpt><trkpt lat="41.80490422836719" lon="19.856104021452726"><ele>212.0</ele><time>2026-04-29T15:19:15Z</time></trkpt><trkpt lat="41.80494126955588" lon="19.856289344586955"><ele>212.0</ele><time>2026-04-29T15:19:16Z</time></trkpt><trkpt lat="41.80499568118713" lon="19.85643766235231"><ele>211.0</ele><time>2026-04-29T15:19:17Z</time></trkpt><trkpt lat="41.805063624903596" lon="19.856536663001815"><ele>210.0</ele><time>2026-04-29T15:19:18Z</time></trkpt><trkpt lat="41.80514240211644" lon="19.85658550426908"><ele>209.0</ele><time>2026-04-29T15:19:19Z</time></trkpt><trkpt lat="41.80526059675182" lon="19.856577317795896"><ele>208.0</ele><time>2026-04-29T15:19:21Z</time></trkpt><trkpt lat="41.80533299619359" lon="19.85652956343958"><ele>207.0</ele><time>2026-04-29T15:19:22Z</time></trkpt><trkpt lat="41.80540930326131" lon="19.856452713219767"><ele>205.75</ele><time>2026-04-29T15:19:23Z</time></trkpt><trkpt lat="41.80548997834918" lon="19.856341907251128"><ele>204.5</ele><time>2026-04-29T15:19:24Z</time></trkpt><trkpt lat="41.805566143390266" lon="19.856204454685372"><ele>203.25</ele><time>2026-04-29T15:19:25Z</time></trkpt><trkpt lat="41.80564121278666" lon="19.856058065392098"><ele>202.0</ele><time>2026-04-29T15:19:26Z</time></trkpt><trkpt lat="41.805733581265955" lon="19.8559218655967"><ele>203.75</ele><time>2026-04-29T15:19:27Z</time></trkpt><trkpt lat="41.805841755146766" lon="19.85579669635969"><ele>205.5</ele><time>2026-04-29T15:19:28Z</time></trkpt><trkpt lat="41.80596065786994" lon="19.8556752019419"><ele>207.25</ele><time>2026-04-29T15:19:29Z</time></trkpt><trkpt lat="41.80608842936487" lon="19.855562786970392"><ele>209.0</ele><time>2026-04-29T15:19:30Z</time></trkpt><trkpt lat="41.80623765392603" lon="19.855488892256854"><ele>209.0</ele><time>2026-04-29T15:19:31Z</time></trkpt><trkpt lat="41.806372787458976" lon="19.85539074241465"><ele>209.0</ele><time>2026-04-29T15:19:32Z</time></trkpt><trkpt lat="41.806488431025464" lon="19.85533385946515"><ele>209.0</ele><time>2026-04-29T15:19:33Z</time></trkpt><trkpt lat="41.80658096088886" lon="19.855276773108212"><ele>209.0</ele><time>2026-04-29T15:19:34Z</time></trkpt><trkpt lat="41.806642359477685" lon="19.85520426966154"><ele>211.79999999999998</ele><time>2026-04-29T15:19:35Z</time></trkpt><trkpt lat="41.806678093724386" lon="19.85510588477604"><ele>214.6</ele><time>2026-04-29T15:19:36Z</time></trkpt><trkpt lat="41.806694491391404" lon="19.854978279002445"><ele>217.4</ele><time>2026-04-29T15:19:37Z</time></trkpt><trkpt lat="41.8067302835024" lon="19.85483885753249"><ele>220.2</ele><time>2026-04-29T15:19:38Z</time></trkpt><trkpt lat="41.806758699343135" lon="19.8546864462764"><ele>223.0</ele><time>2026-04-29T15:19:39Z</time></trkpt><trkpt lat="41.80679623855016" lon="19.85457266784806"><ele>217.60000000000002</ele><time>2026-04-29T15:19:40Z</time></trkpt><trkpt lat="41.806836480221556" lon="19.854468970658463"><ele>212.20000000000002</ele><time>2026-04-29T15:19:41Z</time></trkpt><trkpt lat="41.806891812688235" lon="19.85438769509029"><ele>206.8</ele><time>2026-04-29T15:19:42Z</time></trkpt><trkpt lat="41.806966501730145" lon="19.854305115167964"><ele>201.4</ele><time>2026-04-29T15:19:43Z</time></trkpt><trkpt lat="41.80703432012995" lon="19.854205695377992"><ele>196.0</ele><time>2026-04-29T15:19:44Z</time></trkpt><trkpt lat="41.80711543772973" lon="19.854134889355212"><ele>195.99999999999997</ele><time>2026-04-29T15:19:45Z</time></trkpt><trkpt lat="41.80718366630662" lon="19.854068069607738"><ele>196.0</ele><time>2026-04-29T15:19:46Z</time></trkpt><trkpt lat="41.807233494419" lon="19.853983643924604"><ele>196.0</ele><time>2026-04-29T15:19:47Z</time></trkpt><trkpt lat="41.807285516708184" lon="19.853900605771567"><ele>196.0</ele><time>2026-04-29T15:19:48Z</time></trkpt><trkpt lat="41.80731354847203" lon="19.85376979628261"><ele>195.99999999999997</ele><time>2026-04-29T15:19:49Z</time></trkpt><trkpt lat="41.80734307151002" lon="19.853643954315658"><ele>196.0</ele><time>2026-04-29T15:19:50Z</time></trkpt><trkpt lat="41.80736909161934" lon="19.85353207630399"><ele>198.20000000000002</ele><time>2026-04-29T15:19:51Z</time></trkpt><trkpt lat="41.80738970215453" lon="19.853427488384828"><ele>200.4</ele><time>2026-04-29T15:19:52Z</time></trkpt><trkpt lat="41.80738451541895" lon="19.85330404280269"><ele>202.6</ele><time>2026-04-29T15:19:53Z</time></trkpt><trkpt lat="41.80733580756804" lon="19.853183636159176"><ele>204.8</ele><time>2026-04-29T15:19:54Z</time></trkpt><trkpt lat="41.807340915606" lon="19.853050631695645"><ele>207.0</ele><time>2026-04-29T15:19:55.001Z</time></trkpt><trkpt lat="41.80734415567554" lon="19.852929591357896"><ele>207.0</ele><time>2026-04-29T15:19:56.001Z</time></trkpt><trkpt lat="41.80739675168955" lon="19.852844068028844"><ele>207.0</ele><time>2026-04-29T15:19:57.001Z</time></trkpt><trkpt lat="41.80745800953716" lon="19.85274967221652"><ele>207.0</ele><time>2026-04-29T15:19:58.001Z</time></trkpt><trkpt lat="41.80750964875138" lon="19.852629718123524"><ele>207.0</ele><time>2026-04-29T15:19:59.001Z</time></trkpt><trkpt lat="41.80755383010955" lon="19.852515843185646"><ele>207.0</ele><time>2026-04-29T15:20:00.001Z</time></trkpt><trkpt lat="41.80757291812816" lon="19.85237980257554"><ele>208.8</ele><time>2026-04-29T15:20:01.001Z</time></trkpt><trkpt lat="41.80759196026555" lon="19.852235581115867"><ele>210.6</ele><time>2026-04-29T15:20:02.001Z</time></trkpt><trkpt lat="41.807630527330666" lon="19.85209713615188"><ele>212.40000000000003</ele><time>2026-04-29T15:20:03.001Z</time></trkpt><trkpt lat="41.807667443195" lon="19.85197809238825"><ele>214.20000000000002</ele><time>2026-04-29T15:20:04.001Z</time></trkpt><trkpt lat="41.80767185136283" lon="19.851865691354398"><ele>216.0</ele><time>2026-04-29T15:20:05.001Z</time></trkpt><trkpt lat="41.80764232287559" lon="19.851743491927493"><ele>217.5</ele><time>2026-04-29T15:20:06.001Z</time></trkpt><trkpt lat="41.80760849008839" lon="19.851628930669484"><ele>219.0</ele><time>2026-04-29T15:20:07.001Z</time></trkpt><trkpt lat="41.8075966716962" lon="19.85152883529903"><ele>220.5</ele><time>2026-04-29T15:20:08.001Z</time></trkpt><trkpt lat="41.807661726791316" lon="19.851460499872026"><ele>222.0</ele><time>2026-04-29T15:20:09.001Z</time></trkpt><trkpt lat="41.807769490294" lon="19.851401706364573"><ele>223.5</ele><time>2026-04-29T15:20:11.001Z</time></trkpt><trkpt lat="41.80784468951236" lon="19.851380194371757"><ele>225.0</ele><time>2026-04-29T15:20:12.001Z</time></trkpt><trkpt lat="41.807936736228726" lon="19.851356496965785"><ele>219.33333333333334</ele><time>2026-04-29T15:20:13.001Z</time></trkpt><trkpt lat="41.80803281563591" lon="19.851342800555027"><ele>213.66666666666666</ele><time>2026-04-29T15:20:14.001Z</time></trkpt><trkpt lat="41.80811444547523" lon="19.85130163638801"><ele>208.0</ele><time>2026-04-29T15:20:15.001Z</time></trkpt><trkpt lat="41.80818360903157" lon="19.851265609876673"><ele>202.33333333333331</ele><time>2026-04-29T15:20:16.001Z</time></trkpt><trkpt lat="41.80825765638135" lon="19.851232254150048"><ele>196.66666666666666</ele><time>2026-04-29T15:20:17.001Z</time></trkpt><trkpt lat="41.808324304937436" lon="19.851181810257664"><ele>191.0</ele><time>2026-04-29T15:20:18.001Z</time></trkpt><trkpt lat="41.80839832035965" lon="19.851147097700583"><ele>191.0</ele><time>2026-04-29T15:20:19.001Z</time></trkpt><trkpt lat="41.80849113835954" lon="19.85112395804427"><ele>191.0</ele><time>2026-04-29T15:20:20.001Z</time></trkpt><trkpt lat="41.80858107984983" lon="19.851102934210722"><ele>191.0</ele><time>2026-04-29T15:20:21.001Z</time></trkpt><trkpt lat="41.80865714769678" lon="19.85108483213682"><ele>191.0</ele><time>2026-04-29T15:20:22.001Z</time></trkpt><trkpt lat="41.808713161168676" lon="19.851020663298215"><ele>191.0</ele><time>2026-04-29T15:20:23.001Z</time></trkpt><trkpt lat="41.808780591129164" lon="19.850887705105535"><ele>190.0</ele><time>2026-04-29T15:20:25.001Z</time></trkpt><trkpt lat="41.80880278501997" lon="19.85080630465111"><ele>189.0</ele><time>2026-04-29T15:20:26.001Z</time></trkpt><trkpt lat="41.808773864649254" lon="19.85069693519611"><ele>188.0</ele><time>2026-04-29T15:20:27.001Z</time></trkpt><trkpt lat="41.80875528261164" lon="19.850583197070655"><ele>187.0</ele><time>2026-04-29T15:20:28.001Z</time></trkpt><trkpt lat="41.808748128492745" lon="19.850462164498254"><ele>186.0</ele><time>2026-04-29T15:20:29.001Z</time></trkpt><trkpt lat="41.80878211106759" lon="19.850351768965712"><ele>185.0</ele><time>2026-04-29T15:20:30.001Z</time></trkpt><trkpt lat="41.80884011909547" lon="19.850271137198856"><ele>185.0</ele><time>2026-04-29T15:20:31.001Z</time></trkpt><trkpt lat="41.808907016489876" lon="19.850185215205936"><ele>185.0</ele><time>2026-04-29T15:20:32.001Z</time></trkpt><trkpt lat="41.80897141075278" lon="19.850080366261775"><ele>185.0</ele><time>2026-04-29T15:20:33.001Z</time></trkpt><trkpt lat="41.80906498844606" lon="19.850036421889246"><ele>185.0</ele><time>2026-04-29T15:20:34.001Z</time></trkpt><trkpt lat="41.80914095753153" lon="19.850024037348973"><ele>185.0</ele><time>2026-04-29T15:20:35.001Z</time></trkpt><trkpt lat="41.80922021582364" lon="19.850046843496184"><ele>184.4</ele><time>2026-04-29T15:20:36.001Z</time></trkpt><trkpt lat="41.80931639124573" lon="19.85005736850578"><ele>183.8</ele><time>2026-04-29T15:20:37.001Z</time></trkpt><trkpt lat="41.80941975686728" lon="19.85006389435099"><ele>183.2</ele><time>2026-04-29T15:20:38.001Z</time></trkpt><trkpt lat="41.809525161603595" lon="19.850013636824855"><ele>182.6</ele><time>2026-04-29T15:20:39.001Z</time></trkpt><trkpt lat="41.80963654442734" lon="19.849920807356256"><ele>182.0</ele><time>2026-04-29T15:20:40.001Z</time></trkpt><trkpt lat="41.809761354845534" lon="19.849813668145174"><ele>182.0</ele><time>2026-04-29T15:20:41.001Z</time></trkpt><trkpt lat="41.80988131846029" lon="19.849726944920626"><ele>182.0</ele><time>2026-04-29T15:20:42.001Z</time></trkpt><trkpt lat="41.809975612199004" lon="19.84966879732649"><ele>182.0</ele><time>2026-04-29T15:20:43.001Z</time></trkpt><trkpt lat="41.810046740459065" lon="19.849618989511004"><ele>182.0</ele><time>2026-04-29T15:20:44.001Z</time></trkpt><trkpt lat="41.8100971738503" lon="19.849547983270757"><ele>182.0</ele><time>2026-04-29T15:20:45.001Z</time></trkpt><trkpt lat="41.810125374517625" lon="19.84945859939144"><ele>182.0</ele><time>2026-04-29T15:20:46.001Z</time></trkpt><trkpt lat="41.810126001360096" lon="19.849354511049324"><ele>182.0</ele><time>2026-04-29T15:20:47.001Z</time></trkpt><trkpt lat="41.81010357483604" lon="19.849226959555246"><ele>182.0</ele><time>2026-04-29T15:20:48.001Z</time></trkpt><trkpt lat="41.81005999507843" lon="19.849084561535264"><ele>182.0</ele><time>2026-04-29T15:20:49.001Z</time></trkpt><trkpt lat="41.81000322120681" lon="19.848929222436258"><ele>182.0</ele><time>2026-04-29T15:20:50.001Z</time></trkpt><trkpt lat="41.80995915501205" lon="19.84874874211816"><ele>183.0</ele><time>2026-04-29T15:20:51.001Z</time></trkpt><trkpt lat="41.809892143125964" lon="19.848568435051607"><ele>184.0</ele><time>2026-04-29T15:20:52Z</time></trkpt><trkpt lat="41.809854509365465" lon="19.84839466002002"><ele>185.0</ele><time>2026-04-29T15:20:53Z</time></trkpt><trkpt lat="41.8098476922677" lon="19.848234616507742"><ele>186.0</ele><time>2026-04-29T15:20:54Z</time></trkpt><trkpt lat="41.80982025184759" lon="19.8480769348633"><ele>186.0</ele><time>2026-04-29T15:20:55Z</time></trkpt><trkpt lat="41.809836107188616" lon="19.84791349518392"><ele>186.0</ele><time>2026-04-29T15:20:56Z</time></trkpt><trkpt lat="41.80984170143288" lon="19.84778174385168"><ele>186.0</ele><time>2026-04-29T15:20:57Z</time></trkpt><trkpt lat="41.809861241565855" lon="19.84768194870193"><ele>186.0</ele><time>2026-04-29T15:20:58Z</time></trkpt><trkpt lat="41.80988098216121" lon="19.847591684949265"><ele>186.0</ele><time>2026-04-29T15:20:59Z</time></trkpt><trkpt lat="41.80995960883145" lon="19.84753505022861"><ele>186.0</ele><time>2026-04-29T15:21:01Z</time></trkpt><trkpt lat="41.810042891882226" lon="19.847595143786865"><ele>186.0</ele><time>2026-04-29T15:21:03Z</time></trkpt><trkpt lat="41.81012180418682" lon="19.84763711235047"><ele>186.0</ele><time>2026-04-29T15:21:04Z</time></trkpt><trkpt lat="41.8101923887862" lon="19.847697299368427"><ele>186.0</ele><time>2026-04-29T15:21:05Z</time></trkpt><trkpt lat="41.81029603691786" lon="19.84766102303509"><ele>186.0</ele><time>2026-04-29T15:21:06Z</time></trkpt><trkpt lat="41.810392822092375" lon="19.847612639566574"><ele>183.25</ele><time>2026-04-29T15:21:07Z</time></trkpt><trkpt lat="41.810486657258444" lon="19.847535634866983"><ele>180.5</ele><time>2026-04-29T15:21:08Z</time></trkpt><trkpt lat="41.81058282241976" lon="19.847444322654137"><ele>177.75</ele><time>2026-04-29T15:21:09Z</time></trkpt><trkpt lat="41.81069494525705" lon="19.847365925325544"><ele>175.0</ele><time>2026-04-29T15:21:10Z</time></trkpt><trkpt lat="41.81078552089348" lon="19.84722783393398"><ele>175.0</ele><time>2026-04-29T15:21:11Z</time></trkpt><trkpt lat="41.81085996475075" lon="19.84710811998684"><ele>175.0</ele><time>2026-04-29T15:21:12Z</time></trkpt><trkpt lat="41.81093454311961" lon="19.846987615331113"><ele>175.0</ele><time>2026-04-29T15:21:13Z</time></trkpt><trkpt lat="41.810993058029" lon="19.84683295250984"><ele>175.0</ele><time>2026-04-29T15:21:14Z</time></trkpt><trkpt lat="41.811049806488356" lon="19.846670297205968"><ele>173.0</ele><time>2026-04-29T15:21:15Z</time></trkpt><trkpt lat="41.811108987545644" lon="19.846499822848777"><ele>171.0</ele><time>2026-04-29T15:21:16Z</time></trkpt><trkpt lat="41.81117134162225" lon="19.84631897344425"><ele>169.0</ele><time>2026-04-29T15:21:17Z</time></trkpt><trkpt lat="41.81123497032303" lon="19.846134251379283"><ele>167.0</ele><time>2026-04-29T15:21:18Z</time></trkpt><trkpt lat="41.81129081476028" lon="19.845968950887297"><ele>168.8</ele><time>2026-04-29T15:21:19.001Z</time></trkpt><trkpt lat="41.811340545340336" lon="19.845821141121842"><ele>170.6</ele><time>2026-04-29T15:21:20.001Z</time></trkpt><trkpt lat="41.811382819490895" lon="19.845694656247034"><ele>172.4</ele><time>2026-04-29T15:21:21.001Z</time></trkpt><trkpt lat="41.811413121772276" lon="19.84556505511621"><ele>174.20000000000002</ele><time>2026-04-29T15:21:22.001Z</time></trkpt><trkpt lat="41.81143092977909" lon="19.845452970229985"><ele>176.0</ele><time>2026-04-29T15:21:23.001Z</time></trkpt><trkpt lat="41.81139847574708" lon="19.84530686768144"><ele>176.0</ele><time>2026-04-29T15:21:24.001Z</time></trkpt><trkpt lat="41.81136895972984" lon="19.845188029769602"><ele>176.0</ele><time>2026-04-29T15:21:25.001Z</time></trkpt><trkpt lat="41.811319045475905" lon="19.845074806933418"><ele>176.0</ele><time>2026-04-29T15:21:26.001Z</time></trkpt><trkpt lat="41.811260574270406" lon="19.84497521988032"><ele>176.0</ele><time>2026-04-29T15:21:27.001Z</time></trkpt><trkpt lat="41.81121634671901" lon="19.84486259533415"><ele>176.0</ele><time>2026-04-29T15:21:28.001Z</time></trkpt><trkpt lat="41.81117551048597" lon="19.84474219278404"><ele>176.5</ele><time>2026-04-29T15:21:29.001Z</time></trkpt><trkpt lat="41.81115614530973" lon="19.84461453197586"><ele>177.0</ele><time>2026-04-29T15:21:30.001Z</time></trkpt><trkpt lat="41.81113839698079" lon="19.84448478833077"><ele>177.5</ele><time>2026-04-29T15:21:31.001Z</time></trkpt><trkpt lat="41.811138692151786" lon="19.84438357135564"><ele>178.0</ele><time>2026-04-29T15:21:32.001Z</time></trkpt><trkpt lat="41.81114540249961" lon="19.844286335899636"><ele>178.5</ele><time>2026-04-29T15:21:33.001Z</time></trkpt><trkpt lat="41.811176893530096" lon="19.84417082011369"><ele>179.0</ele><time>2026-04-29T15:21:34.001Z</time></trkpt><trkpt lat="41.81124906020297" lon="19.84407943768013"><ele>177.6</ele><time>2026-04-29T15:21:35.001Z</time></trkpt><trkpt lat="41.811340215396555" lon="19.843981240359142"><ele>176.2</ele><time>2026-04-29T15:21:36.001Z</time></trkpt><trkpt lat="41.81126098819507" lon="19.843998470457805"><ele>174.79999999999998</ele><time>2026-04-29T15:21:37.001Z</time></trkpt><trkpt lat="41.811333505723894" lon="19.843893500975785"><ele>173.39999999999998</ele><time>2026-04-29T15:21:38.001Z</time></trkpt><trkpt lat="41.811412333740925" lon="19.84382910279727"><ele>172.0</ele><time>2026-04-29T15:21:39.001Z</time></trkpt><trkpt lat="41.81150182919735" lon="19.84381477712901"><ele>172.0</ele><time>2026-04-29T15:21:40.001Z</time></trkpt><trkpt lat="41.81161926701158" lon="19.84378806228604"><ele>172.0</ele><time>2026-04-29T15:21:41.001Z</time></trkpt><trkpt lat="41.81175006477914" lon="19.84376913744976"><ele>172.0</ele><time>2026-04-29T15:21:42.001Z</time></trkpt><trkpt lat="41.81187755387542" lon="19.843757827557827"><ele>172.0</ele><time>2026-04-29T15:21:43.001Z</time></trkpt><trkpt lat="41.8119988879923" lon="19.84375278622743"><ele>175.39999999999998</ele><time>2026-04-29T15:21:44.001Z</time></trkpt><trkpt lat="41.812116437513225" lon="19.843787260366334"><ele>178.79999999999998</ele><time>2026-04-29T15:21:45.001Z</time></trkpt><trkpt lat="41.81222815078621" lon="19.843830851329113"><ele>182.2</ele><time>2026-04-29T15:21:46.001Z</time></trkpt><trkpt lat="41.81231846245499" lon="19.843882729295036"><ele>185.6</ele><time>2026-04-29T15:21:47.001Z</time></trkpt><trkpt lat="41.812369148004855" lon="19.84396704345206"><ele>189.0</ele><time>2026-04-29T15:21:48.001Z</time></trkpt><trkpt lat="41.81231536678511" lon="19.844089089723365"><ele>189.0</ele><time>2026-04-29T15:21:49.001Z</time></trkpt><trkpt lat="41.81226904173062" lon="19.844177696606575"><ele>189.0</ele><time>2026-04-29T15:21:50.001Z</time></trkpt><trkpt lat="41.81218855411426" lon="19.8442930696615"><ele>189.0</ele><time>2026-04-29T15:21:51.001Z</time></trkpt><trkpt lat="41.81209891618516" lon="19.84443864524188"><ele>189.0</ele><time>2026-04-29T15:21:52.001Z</time></trkpt><trkpt lat="41.81208068550592" lon="19.84457564109185"><ele>189.0</ele><time>2026-04-29T15:21:53.001Z</time></trkpt><trkpt lat="41.81207470255874" lon="19.844698660078112"><ele>190.75</ele><time>2026-04-29T15:21:54.001Z</time></trkpt><trkpt lat="41.81211257895575" lon="19.844809104469192"><ele>192.5</ele><time>2026-04-29T15:21:55.001Z</time></trkpt><trkpt lat="41.81217983837108" lon="19.844918290609037"><ele>194.25</ele><time>2026-04-29T15:21:56.001Z</time></trkpt><trkpt lat="41.81228122434305" lon="19.845020358830396"><ele>196.0</ele><time>2026-04-29T15:21:57.001Z</time></trkpt><trkpt lat="41.81241701386846" lon="19.84511783030634"><ele>196.25</ele><time>2026-04-29T15:21:58.001Z</time></trkpt><trkpt lat="41.81251910337961" lon="19.84520731443621"><ele>196.5</ele><time>2026-04-29T15:21:59.001Z</time></trkpt><trkpt lat="41.81253774614578" lon="19.845316783591553"><ele>196.75</ele><time>2026-04-29T15:22:00.001Z</time></trkpt><trkpt lat="41.81249050560217" lon="19.845509080459053"><ele>197.0</ele><time>2026-04-29T15:22:01.001Z</time></trkpt><trkpt lat="41.812525539925424" lon="19.84574788178311"><ele>199.0</ele><time>2026-04-29T15:22:02.001Z</time></trkpt><trkpt lat="41.81255332812803" lon="19.846045074068343"><ele>201.0</ele><time>2026-04-29T15:22:03.001Z</time></trkpt><trkpt lat="41.812547900475074" lon="19.846289397477996"><ele>203.0</ele><time>2026-04-29T15:22:04.001Z</time></trkpt><trkpt lat="41.81245590454987" lon="19.846469314444303"><ele>203.0</ele><time>2026-04-29T15:22:05.001Z</time></trkpt><trkpt lat="41.81242911761715" lon="19.846678458821906"><ele>203.0</ele><time>2026-04-29T15:22:06.001Z</time></trkpt><trkpt lat="41.8123884658586" lon="19.846916768464364"><ele>203.0</ele><time>2026-04-29T15:22:07.001Z</time></trkpt><trkpt lat="41.81229736729334" lon="19.84714806543982"><ele>202.8</ele><time>2026-04-29T15:22:08.001Z</time></trkpt><trkpt lat="41.812260194412126" lon="19.847323950037712"><ele>202.60000000000002</ele><time>2026-04-29T15:22:09.001Z</time></trkpt><trkpt lat="41.81229505402694" lon="19.84746980764818"><ele>202.39999999999998</ele><time>2026-04-29T15:22:10.001Z</time></trkpt><trkpt lat="41.81229329626463" lon="19.847581308745323"><ele>202.2</ele><time>2026-04-29T15:22:11.001Z</time></trkpt><trkpt lat="41.8123963520844" lon="19.84765177525884"><ele>202.0</ele><time>2026-04-29T15:22:12.001Z</time></trkpt><trkpt lat="41.81251302930865" lon="19.8477656910078"><ele>202.39999999999998</ele><time>2026-04-29T15:22:13.001Z</time></trkpt><trkpt lat="41.81261999677234" lon="19.847864516317678"><ele>202.79999999999998</ele><time>2026-04-29T15:22:14.001Z</time></trkpt><trkpt lat="41.8126886662887" lon="19.847931754358324"><ele>203.2</ele><time>2026-04-29T15:22:15.001Z</time></trkpt><trkpt lat="41.81275546650241" lon="19.84796565942757"><ele>203.6</ele><time>2026-04-29T15:22:16.001Z</time></trkpt><trkpt lat="41.8128285265424" lon="19.847938729790428"><ele>204.0</ele><time>2026-04-29T15:22:17.001Z</time></trkpt><trkpt lat="41.812906574391384" lon="19.84785415695597"><ele>204.0</ele><time>2026-04-29T15:22:18.001Z</time></trkpt><trkpt lat="41.81300001411446" lon="19.847762750474878"><ele>204.0</ele><time>2026-04-29T15:22:19.001Z</time></trkpt><trkpt lat="41.813113962885936" lon="19.84766410237159"><ele>204.0</ele><time>2026-04-29T15:22:20.001Z</time></trkpt><trkpt lat="41.81326949785042" lon="19.84756778561049"><ele>204.0</ele><time>2026-04-29T15:22:21.001Z</time></trkpt><trkpt lat="41.813455678708436" lon="19.847445914202027"><ele>211.5</ele><time>2026-04-29T15:22:22.001Z</time></trkpt><trkpt lat="41.8135693936809" lon="19.84731682737719"><ele>219.0</ele><time>2026-04-29T15:22:23.001Z</time></trkpt><trkpt lat="41.81365451280562" lon="19.847198406993552"><ele>226.5</ele><time>2026-04-29T15:22:24.001Z</time></trkpt><trkpt lat="41.81375286167204" lon="19.847076548882868"><ele>234.0</ele><time>2026-04-29T15:22:25.001Z</time></trkpt><trkpt lat="41.81382173403288" lon="19.84700770137479"><ele>234.0</ele><time>2026-04-29T15:22:26.001Z</time></trkpt><trkpt lat="41.81393313493178" lon="19.84697333182708"><ele>233.99999999999997</ele><time>2026-04-29T15:22:28.001Z</time></trkpt><trkpt lat="41.81399678823197" lon="19.84699946399619"><ele>233.99999999999997</ele><time>2026-04-29T15:22:29.001Z</time></trkpt><trkpt lat="41.81403906736598" lon="19.84709301920462"><ele>234.0</ele><time>2026-04-29T15:22:30.001Z</time></trkpt><trkpt lat="41.81404907944568" lon="19.84722710401931"><ele>234.0</ele><time>2026-04-29T15:22:31.001Z</time></trkpt><trkpt lat="41.81406165328548" lon="19.847392521638636"><ele>234.0</ele><time>2026-04-29T15:22:32.001Z</time></trkpt><trkpt lat="41.81404805322628" lon="19.84757567506813"><ele>234.0</ele><time>2026-04-29T15:22:33.001Z</time></trkpt><trkpt lat="41.81401598904462" lon="19.847808798480578"><ele>234.0</ele><time>2026-04-29T15:22:34.001Z</time></trkpt><trkpt lat="41.81394990343368" lon="19.848061609814994"><ele>236.33333333333331</ele><time>2026-04-29T15:22:35.001Z</time></trkpt><trkpt lat="41.81388795219685" lon="19.848290267576854"><ele>238.66666666666666</ele><time>2026-04-29T15:22:36.001Z</time></trkpt><trkpt lat="41.81382723194388" lon="19.848506241310467"><ele>241.0</ele><time>2026-04-29T15:22:37.001Z</time></trkpt><trkpt lat="41.81378906592397" lon="19.848666493535223"><ele>241.5</ele><time>2026-04-29T15:22:38.001Z</time></trkpt><trkpt lat="41.81381410157976" lon="19.84882959836239"><ele>242.0</ele><time>2026-04-29T15:22:39.001Z</time></trkpt><trkpt lat="41.81383335462912" lon="19.84897299161238"><ele>242.5</ele><time>2026-04-29T15:22:40.001Z</time></trkpt><trkpt lat="41.81387625964416" lon="19.849147839184504"><ele>243.0</ele><time>2026-04-29T15:22:41.001Z</time></trkpt><trkpt lat="41.81392460141446" lon="19.84932358305496"><ele>238.60000000000002</ele><time>2026-04-29T15:22:42.001Z</time></trkpt><trkpt lat="41.8139761163602" lon="19.849448242019115"><ele>234.20000000000002</ele><time>2026-04-29T15:22:43.001Z</time></trkpt><trkpt lat="41.81403751674413" lon="19.849522470896463"><ele>229.8</ele><time>2026-04-29T15:22:44.001Z</time></trkpt><trkpt lat="41.81412737409548" lon="19.84954703993394"><ele>225.4</ele><time>2026-04-29T15:22:45.001Z</time></trkpt><trkpt lat="41.814247207507755" lon="19.849537954084116"><ele>221.0</ele><time>2026-04-29T15:22:46.001Z</time></trkpt><trkpt lat="41.81440326953005" lon="19.84949384973226"><ele>221.0</ele><time>2026-04-29T15:22:47.001Z</time></trkpt><trkpt lat="41.81452010857404" lon="19.849439882923665"><ele>221.0</ele><time>2026-04-29T15:22:48.001Z</time></trkpt><trkpt lat="41.81461515882629" lon="19.849344125096096"><ele>221.0</ele><time>2026-04-29T15:22:49.001Z</time></trkpt><trkpt lat="41.81470011512357" lon="19.849212860863776"><ele>221.0</ele><time>2026-04-29T15:22:50.001Z</time></trkpt><trkpt lat="41.814812427247766" lon="19.849079131992568"><ele>226.5</ele><time>2026-04-29T15:22:51.001Z</time></trkpt><trkpt lat="41.81493326821767" lon="19.84898963869375"><ele>232.0</ele><time>2026-04-29T15:22:52.001Z</time></trkpt><trkpt lat="41.81505442268744" lon="19.84892208857074"><ele>237.5</ele><time>2026-04-29T15:22:53.001Z</time></trkpt><trkpt lat="41.81519221758026" lon="19.848899555908083"><ele>243.0</ele><time>2026-04-29T15:22:54.001Z</time></trkpt><trkpt lat="41.81534935474611" lon="19.848858039968484"><ele>243.0</ele><time>2026-04-29T15:22:55.001Z</time></trkpt><trkpt lat="41.81550065143285" lon="19.848806027199586"><ele>243.0</ele><time>2026-04-29T15:22:56.001Z</time></trkpt><trkpt lat="41.81565199634722" lon="19.84868994753535"><ele>243.0</ele><time>2026-04-29T15:22:57.001Z</time></trkpt><trkpt lat="41.81582577500231" lon="19.84853004706653"><ele>251.0</ele><time>2026-04-29T15:22:58.001Z</time></trkpt><trkpt lat="41.81604140238018" lon="19.848390740338033"><ele>259.0</ele><time>2026-04-29T15:22:59.001Z</time></trkpt><trkpt lat="41.81623993400997" lon="19.848265456105658"><ele>259.0</ele><time>2026-04-29T15:23:00.001Z</time></trkpt><trkpt lat="41.81637851621767" lon="19.848150017489477"><ele>259.0</ele><time>2026-04-29T15:23:01.001Z</time></trkpt><trkpt lat="41.81650411493329" lon="19.848070820225878"><ele>259.0</ele><time>2026-04-29T15:23:02.001Z</time></trkpt><trkpt lat="41.81662294813367" lon="19.847962036970603"><ele>259.0</ele><time>2026-04-29T15:23:03.001Z</time></trkpt><trkpt lat="41.81670867219311" lon="19.847837292594615"><ele>259.0</ele><time>2026-04-29T15:23:04.001Z</time></trkpt><trkpt lat="41.816768755555444" lon="19.847686492247174"><ele>259.0</ele><time>2026-04-29T15:23:05.001Z</time></trkpt><trkpt lat="41.81683454122096" lon="19.84753990677344"><ele>259.0</ele><time>2026-04-29T15:23:06.001Z</time></trkpt><trkpt lat="41.81694543264095" lon="19.84748170277443"><ele>259.0</ele><time>2026-04-29T15:23:07.001Z</time></trkpt><trkpt lat="41.81707786820796" lon="19.847434079393356"><ele>264.66666666666663</ele><time>2026-04-29T15:23:08.001Z</time></trkpt><trkpt lat="41.81724483860671" lon="19.847372733876497"><ele>270.3333333333333</ele><time>2026-04-29T15:23:09.001Z</time></trkpt><trkpt lat="41.81741050447513" lon="19.847308334394516"><ele>276.0</ele><time>2026-04-29T15:23:10.001Z</time></trkpt><trkpt lat="41.81752547264216" lon="19.847231461571504"><ele>276.0</ele><time>2026-04-29T15:23:11.001Z</time></trkpt><trkpt lat="41.81760790970822" lon="19.847136582057658"><ele>276.0</ele><time>2026-04-29T15:23:12.001Z</time></trkpt><trkpt lat="41.81766964785345" lon="19.84700864359498"><ele>276.0</ele><time>2026-04-29T15:23:13.001Z</time></trkpt><trkpt lat="41.817710569797725" lon="19.84685076284844"><ele>276.0</ele><time>2026-04-29T15:23:14.001Z</time></trkpt><trkpt lat="41.81773942783054" lon="19.84665971077549"><ele>278.8</ele><time>2026-04-29T15:23:15.001Z</time></trkpt><trkpt lat="41.81780181689291" lon="19.846517253155916"><ele>281.6</ele><time>2026-04-29T15:23:16.001Z</time></trkpt><trkpt lat="41.81787245965611" lon="19.84645889779085"><ele>284.4</ele><time>2026-04-29T15:23:17.001Z</time></trkpt><trkpt lat="41.81795672453513" lon="19.84648904148378"><ele>287.2</ele><time>2026-04-29T15:23:18.001Z</time></trkpt><trkpt lat="41.81807674656332" lon="19.84647612317641"><ele>290.0</ele><time>2026-04-29T15:23:19.001Z</time></trkpt><trkpt lat="41.81821841639704" lon="19.846473263572467"><ele>290.0</ele><time>2026-04-29T15:23:20.001Z</time></trkpt><trkpt lat="41.81834153078542" lon="19.846458169422295"><ele>290.0</ele><time>2026-04-29T15:23:21.001Z</time></trkpt><trkpt lat="41.81842926933196" lon="19.846417349818186"><ele>290.0</ele><time>2026-04-29T15:23:22.001Z</time></trkpt><trkpt lat="41.818496911023104" lon="19.846313798498095"><ele>290.0</ele><time>2026-04-29T15:23:23.001Z</time></trkpt><trkpt lat="41.81854914067064" lon="19.84615870430463"><ele>290.0</ele><time>2026-04-29T15:23:24.001Z</time></trkpt><trkpt lat="41.81857004043971" lon="19.845973771389747"><ele>288.33333333333337</ele><time>2026-04-29T15:23:25.001Z</time></trkpt><trkpt lat="41.8185795807604" lon="19.84576503226057"><ele>286.6666666666667</ele><time>2026-04-29T15:23:26.001Z</time></trkpt><trkpt lat="41.81864937951806" lon="19.845576818101154"><ele>285.0</ele><time>2026-04-29T15:23:27.001Z</time></trkpt><trkpt lat="41.81875262652248" lon="19.845379636784674"><ele>285.0</ele><time>2026-04-29T15:23:28.001Z</time></trkpt><trkpt lat="41.81886662567499" lon="19.845149284804215"><ele>285.0</ele><time>2026-04-29T15:23:29.001Z</time></trkpt><trkpt lat="41.81894317301578" lon="19.845004395282864"><ele>285.0</ele><time>2026-04-29T15:23:30.001Z</time></trkpt><trkpt lat="41.818987319822305" lon="19.844910782373553"><ele>285.0</ele><time>2026-04-29T15:23:31.001Z</time></trkpt><trkpt lat="41.819025012702674" lon="19.84481745734654"><ele>289.6</ele><time>2026-04-29T15:23:32.001Z</time></trkpt><trkpt lat="41.81905146347299" lon="19.844703120669504"><ele>294.2</ele><time>2026-04-29T15:23:33.001Z</time></trkpt><trkpt lat="41.81909634994644" lon="19.84459211889074"><ele>298.8</ele><time>2026-04-29T15:23:34.001Z</time></trkpt><trkpt lat="41.8191411619441" lon="19.84448014672573"><ele>303.4</ele><time>2026-04-29T15:23:35.001Z</time></trkpt><trkpt lat="41.81921609693996" lon="19.844392834682022"><ele>308.0</ele><time>2026-04-29T15:23:36.001Z</time></trkpt><trkpt lat="41.819277101275794" lon="19.84431016475881"><ele>309.0</ele><time>2026-04-29T15:23:37.001Z</time></trkpt><trkpt lat="41.81936092788124" lon="19.844282892454036"><ele>310.0</ele><time>2026-04-29T15:23:38.001Z</time></trkpt><trkpt lat="41.8194636230218" lon="19.844268115311205"><ele>311.0</ele><time>2026-04-29T15:23:39.001Z</time></trkpt><trkpt lat="41.819588065188" lon="19.844283652558016"><ele>312.0</ele><time>2026-04-29T15:23:40.001Z</time></trkpt><trkpt lat="41.81970181454039" lon="19.844271920546536"><ele>313.0</ele><time>2026-04-29T15:23:41.001Z</time></trkpt><trkpt lat="41.819783747642155" lon="19.8442233090569"><ele>313.0</ele><time>2026-04-29T15:23:42.001Z</time></trkpt><trkpt lat="41.81983360950353" lon="19.84414561162945"><ele>313.0</ele><time>2026-04-29T15:23:43.001Z</time></trkpt><trkpt lat="41.81985706172143" lon="19.84404428501895"><ele>313.0</ele><time>2026-04-29T15:23:44.001Z</time></trkpt><trkpt lat="41.8198619742778" lon="19.84391730463768"><ele>313.0</ele><time>2026-04-29T15:23:45.001Z</time></trkpt><trkpt lat="41.81986331570142" lon="19.843759936059737"><ele>313.0</ele><time>2026-04-29T15:23:46.001Z</time></trkpt><trkpt lat="41.819866924390354" lon="19.843585712414566"><ele>317.25</ele><time>2026-04-29T15:23:47.001Z</time></trkpt><trkpt lat="41.81990741344228" lon="19.843405132527465"><ele>321.5</ele><time>2026-04-29T15:23:48.001Z</time></trkpt><trkpt lat="41.81995753722294" lon="19.84321414724105"><ele>325.75</ele><time>2026-04-29T15:23:49.001Z</time></trkpt><trkpt lat="41.82001580793564" lon="19.84305494315933"><ele>330.0</ele><time>2026-04-29T15:23:50.001Z</time></trkpt><trkpt lat="41.820074642372504" lon="19.84290966592186"><ele>330.0</ele><time>2026-04-29T15:23:51.001Z</time></trkpt><trkpt lat="41.82012702868002" lon="19.84277551928993"><ele>330.0</ele><time>2026-04-29T15:23:52.001Z</time></trkpt><trkpt lat="41.820208713913416" lon="19.842693602919642"><ele>330.0</ele><time>2026-04-29T15:23:53.001Z</time></trkpt><trkpt lat="41.82027489476315" lon="19.84260151999382"><ele>330.0</ele><time>2026-04-29T15:23:54.001Z</time></trkpt><trkpt lat="41.82038399854373" lon="19.842607044447092"><ele>330.0</ele><time>2026-04-29T15:23:55.001Z</time></trkpt><trkpt lat="41.82049777166292" lon="19.842573558532298"><ele>330.0</ele><time>2026-04-29T15:23:56.001Z</time></trkpt><trkpt lat="41.82060238867874" lon="19.842513660183204"><ele>330.0</ele><time>2026-04-29T15:23:57.001Z</time></trkpt><trkpt lat="41.820709084959454" lon="19.84242260372347"><ele>330.0</ele><time>2026-04-29T15:23:58.001Z</time></trkpt><trkpt lat="41.82081329157149" lon="19.842286743780598"><ele>330.0</ele><time>2026-04-29T15:23:59.001Z</time></trkpt><trkpt lat="41.820929042317395" lon="19.84214510787024"><ele>329.25</ele><time>2026-04-29T15:24:00.001Z</time></trkpt><trkpt lat="41.82104011344353" lon="19.84203058363436"><ele>328.5</ele><time>2026-04-29T15:24:01.001Z</time></trkpt><trkpt lat="41.82113630834846" lon="19.841934785584314"><ele>327.75</ele><time>2026-04-29T15:24:02.001Z</time></trkpt><trkpt lat="41.82119943476347" lon="19.84183708555738"><ele>327.0</ele><time>2026-04-29T15:24:03.001Z</time></trkpt><trkpt lat="41.82123406109355" lon="19.84172047782791"><ele>328.6</ele><time>2026-04-29T15:24:04.001Z</time></trkpt><trkpt lat="41.8212530916812" lon="19.841578346207243"><ele>330.20000000000005</ele><time>2026-04-29T15:24:05.001Z</time></trkpt><trkpt lat="41.82130430224769" lon="19.84145454643206"><ele>331.8</ele><time>2026-04-29T15:24:06.001Z</time></trkpt><trkpt lat="41.82132991495453" lon="19.84135577605266"><ele>333.4</ele><time>2026-04-29T15:24:07.001Z</time></trkpt><trkpt lat="41.8214081302098" lon="19.841329370389523"><ele>335.0</ele><time>2026-04-29T15:24:08.001Z</time></trkpt><trkpt lat="41.821489925127906" lon="19.841371395496083"><ele>335.0</ele><time>2026-04-29T15:24:09.001Z</time></trkpt><trkpt lat="41.82155418574047" lon="19.841418715402057"><ele>335.0</ele><time>2026-04-29T15:24:10.001Z</time></trkpt><trkpt lat="41.82159425245398" lon="19.841537077955117"><ele>335.0</ele><time>2026-04-29T15:24:11.001Z</time></trkpt><trkpt lat="41.821621952549634" lon="19.841698654223354"><ele>335.0</ele><time>2026-04-29T15:24:12.001Z</time></trkpt><trkpt lat="41.82164896673719" lon="19.841904078912645"><ele>335.0</ele><time>2026-04-29T15:24:13.001Z</time></trkpt><trkpt lat="41.82168206304081" lon="19.842120202666884"><ele>333.0</ele><time>2026-04-29T15:24:14.001Z</time></trkpt><trkpt lat="41.82170317855944" lon="19.842321180476894"><ele>331.0</ele><time>2026-04-29T15:24:15.001Z</time></trkpt><trkpt lat="41.82167889605726" lon="19.84251005315969"><ele>329.0</ele><time>2026-04-29T15:24:16.001Z</time></trkpt><trkpt lat="41.82171221338046" lon="19.842652928876213"><ele>327.0</ele><time>2026-04-29T15:24:17.001Z</time></trkpt><trkpt lat="41.82175777628498" lon="19.84276594867159"><ele>328.20000000000005</ele><time>2026-04-29T15:24:18.001Z</time></trkpt><trkpt lat="41.821828066705294" lon="19.842848562608186"><ele>329.4</ele><time>2026-04-29T15:24:19.001Z</time></trkpt><trkpt lat="41.821912243311225" lon="19.842889857891823"><ele>330.6</ele><time>2026-04-29T15:24:20.001Z</time></trkpt><trkpt lat="41.822002411307885" lon="19.842877135490575"><ele>331.79999999999995</ele><time>2026-04-29T15:24:21.001Z</time></trkpt><trkpt lat="41.8221043303104" lon="19.84281656665009"><ele>333.0</ele><time>2026-04-29T15:24:22.001Z</time></trkpt><trkpt lat="41.82222371368977" lon="19.84273422557297"><ele>333.0</ele><time>2026-04-29T15:24:23.001Z</time></trkpt><trkpt lat="41.82237428205213" lon="19.842678200754236"><ele>333.0</ele><time>2026-04-29T15:24:24.001Z</time></trkpt><trkpt lat="41.82249742717586" lon="19.842645914336753"><ele>333.0</ele><time>2026-04-29T15:24:25.001Z</time></trkpt><trkpt lat="41.82260456753553" lon="19.842641604796984"><ele>333.0</ele><time>2026-04-29T15:24:26.001Z</time></trkpt><trkpt lat="41.82268234101637" lon="19.84264972230631"><ele>333.0</ele><time>2026-04-29T15:24:27.001Z</time></trkpt><trkpt lat="41.82275392300506" lon="19.842751224793375"><ele>333.0</ele><time>2026-04-29T15:24:29.001Z</time></trkpt><trkpt lat="41.82274043681636" lon="19.842846789072023"><ele>333.0</ele><time>2026-04-29T15:24:30.001Z</time></trkpt><trkpt lat="41.822698965307985" lon="19.842962117475004"><ele>333.0</ele><time>2026-04-29T15:24:31.001Z</time></trkpt><trkpt lat="41.82264418470274" lon="19.843094744956687"><ele>333.0</ele><time>2026-04-29T15:24:32.001Z</time></trkpt><trkpt lat="41.82257419629107" lon="19.84326154347174"><ele>333.0</ele><time>2026-04-29T15:24:33.001Z</time></trkpt><trkpt lat="41.82255584598949" lon="19.843463085641503"><ele>333.0</ele><time>2026-04-29T15:24:34.001Z</time></trkpt><trkpt lat="41.82256465573852" lon="19.843724753702872"><ele>333.0</ele><time>2026-04-29T15:24:35.001Z</time></trkpt><trkpt lat="41.822558240619806" lon="19.84403991223215"><ele>338.0</ele><time>2026-04-29T15:24:36.001Z</time></trkpt><trkpt lat="41.82253899337907" lon="19.84433854940353"><ele>343.0</ele><time>2026-04-29T15:24:37.001Z</time></trkpt><trkpt lat="41.82250993503639" lon="19.844579368224377"><ele>348.0</ele><time>2026-04-29T15:24:38.001Z</time></trkpt><trkpt lat="41.8224625650132" lon="19.84480401073301"><ele>348.0</ele><time>2026-04-29T15:24:39.001Z</time></trkpt><trkpt lat="41.82237948829932" lon="19.84499498180676"><ele>348.0</ele><time>2026-04-29T15:24:40.001Z</time></trkpt><trkpt lat="41.82231059505745" lon="19.84517105821843"><ele>348.0</ele><time>2026-04-29T15:24:41.001Z</time></trkpt><trkpt lat="41.82228272439955" lon="19.845323860194448"><ele>348.0</ele><time>2026-04-29T15:24:42.001Z</time></trkpt><trkpt lat="41.82227246410333" lon="19.845479526351546"><ele>348.0</ele><time>2026-04-29T15:24:43.001Z</time></trkpt><trkpt lat="41.822297088635274" lon="19.845648724780286"><ele>348.0</ele><time>2026-04-29T15:24:44.001Z</time></trkpt><trkpt lat="41.82235461850385" lon="19.845828762731703"><ele>348.0</ele><time>2026-04-29T15:24:45.001Z</time></trkpt><trkpt lat="41.82243045230607" lon="19.846036974533714"><ele>348.0</ele><time>2026-04-29T15:24:46.001Z</time></trkpt><trkpt lat="41.82248731426812" lon="19.846260205773337"><ele>347.25</ele><time>2026-04-29T15:24:47.001Z</time></trkpt><trkpt lat="41.82247280623764" lon="19.846461043395905"><ele>346.5</ele><time>2026-04-29T15:24:48.001Z</time></trkpt><trkpt lat="41.822478089541" lon="19.846636799496753"><ele>345.75</ele><time>2026-04-29T15:24:49.001Z</time></trkpt><trkpt lat="41.82248335587481" lon="19.846820453941298"><ele>345.0</ele><time>2026-04-29T15:24:50.001Z</time></trkpt><trkpt lat="41.82248999523765" lon="19.847051991022077"><ele>344.5</ele><time>2026-04-29T15:24:51.001Z</time></trkpt><trkpt lat="41.822489382157066" lon="19.847288848082336"><ele>344.0</ele><time>2026-04-29T15:24:52.001Z</time></trkpt><trkpt lat="41.82244091887411" lon="19.847468022041536"><ele>343.5</ele><time>2026-04-29T15:24:53.001Z</time></trkpt><trkpt lat="41.822391119812146" lon="19.847626552704984"><ele>343.0</ele><time>2026-04-29T15:24:54.001Z</time></trkpt><trkpt lat="41.82236089053313" lon="19.84776346339328"><ele>341.2</ele><time>2026-04-29T15:24:55.001Z</time></trkpt><trkpt lat="41.82236980139711" lon="19.84787996167401"><ele>339.4</ele><time>2026-04-29T15:24:56.001Z</time></trkpt><trkpt lat="41.82235410145695" lon="19.847982611989124"><ele>337.59999999999997</ele><time>2026-04-29T15:24:57.001Z</time></trkpt><trkpt lat="41.82244948893539" lon="19.848080460433646"><ele>335.79999999999995</ele><time>2026-04-29T15:24:58.001Z</time></trkpt><trkpt lat="41.82252916921257" lon="19.848161772038807"><ele>334.0</ele><time>2026-04-29T15:24:59.001Z</time></trkpt><trkpt lat="41.82261663197278" lon="19.848206254887113"><ele>330.59999999999997</ele><time>2026-04-29T15:25:00.001Z</time></trkpt><trkpt lat="41.8227043058606" lon="19.84820494372967"><ele>327.2</ele><time>2026-04-29T15:25:01.001Z</time></trkpt><trkpt lat="41.82280536629714" lon="19.84817241125587"><ele>323.79999999999995</ele><time>2026-04-29T15:25:02.001Z</time></trkpt><trkpt lat="41.82288175417706" lon="19.848101051669886"><ele>320.4</ele><time>2026-04-29T15:25:03.001Z</time></trkpt><trkpt lat="41.82294050668362" lon="19.847995645240808"><ele>317.0</ele><time>2026-04-29T15:25:04.001Z</time></trkpt><trkpt lat="41.822978189747666" lon="19.84786122595066"><ele>317.0</ele><time>2026-04-29T15:25:05.001Z</time></trkpt><trkpt lat="41.82299389539537" lon="19.84771793341028"><ele>317.0</ele><time>2026-04-29T15:25:06.001Z</time></trkpt><trkpt lat="41.82298713030483" lon="19.847569746067705"><ele>317.0</ele><time>2026-04-29T15:25:07.001Z</time></trkpt><trkpt lat="41.82296622802482" lon="19.84743118974352"><ele>317.0</ele><time>2026-04-29T15:25:08.001Z</time></trkpt><trkpt lat="41.822946130442936" lon="19.847302423141606"><ele>317.0</ele><time>2026-04-29T15:25:09.001Z</time></trkpt><trkpt lat="41.82293503914424" lon="19.847162907263126"><ele>317.0</ele><time>2026-04-29T15:25:10.001Z</time></trkpt><trkpt lat="41.82296260159268" lon="19.847015053882025"><ele>317.0</ele><time>2026-04-29T15:25:11.001Z</time></trkpt><trkpt lat="41.8229929057616" lon="19.84688710792188"><ele>317.0</ele><time>2026-04-29T15:25:12.001Z</time></trkpt><trkpt lat="41.8230535719027" lon="19.846794555030296"><ele>317.0</ele><time>2026-04-29T15:25:13.001Z</time></trkpt><trkpt lat="41.82312067161201" lon="19.846725882117173"><ele>317.0</ele><time>2026-04-29T15:25:14.001Z</time></trkpt><trkpt lat="41.823187300679486" lon="19.8466332647979"><ele>320.4</ele><time>2026-04-29T15:25:15.001Z</time></trkpt><trkpt lat="41.823263911192925" lon="19.84655092524827"><ele>323.79999999999995</ele><time>2026-04-29T15:25:16.001Z</time></trkpt><trkpt lat="41.823339289857365" lon="19.84646792256719"><ele>327.2</ele><time>2026-04-29T15:25:17.001Z</time></trkpt><trkpt lat="41.823406245679294" lon="19.846394322490617"><ele>330.59999999999997</ele><time>2026-04-29T15:25:18.001Z</time></trkpt><trkpt lat="41.823504708168194" lon="19.846363265176514"><ele>334.0</ele><time>2026-04-29T15:25:20.001Z</time></trkpt><trkpt lat="41.823619875881654" lon="19.846437325451717"><ele>334.0</ele><time>2026-04-29T15:25:22.001Z</time></trkpt><trkpt lat="41.823637116524004" lon="19.846584358204908"><ele>334.0</ele><time>2026-04-29T15:25:23.001Z</time></trkpt><trkpt lat="41.82369332158796" lon="19.846693046855783"><ele>334.0</ele><time>2026-04-29T15:25:24.001Z</time></trkpt><trkpt lat="41.823787081342985" lon="19.8468026383983"><ele>334.0</ele><time>2026-04-29T15:25:25.001Z</time></trkpt><trkpt lat="41.82391147674729" lon="19.8468819527245"><ele>328.25</ele><time>2026-04-29T15:25:26.001Z</time></trkpt><trkpt lat="41.82405455137813" lon="19.84694787452187"><ele>322.5</ele><time>2026-04-29T15:25:27.001Z</time></trkpt><trkpt lat="41.82420941645921" lon="19.84700220776596"><ele>316.75</ele><time>2026-04-29T15:25:29.001Z</time></trkpt><trkpt lat="41.82431525930291" lon="19.847048203054413"><ele>311.0</ele><time>2026-04-29T15:25:30.001Z</time></trkpt><trkpt lat="41.824408939476946" lon="19.847097025219554"><ele>311.0</ele><time>2026-04-29T15:25:31.001Z</time></trkpt><trkpt lat="41.824509083737716" lon="19.847097477488806"><ele>311.0</ele><time>2026-04-29T15:25:32.001Z</time></trkpt><trkpt lat="41.824615676143026" lon="19.847056955294324"><ele>311.0</ele><time>2026-04-29T15:25:33.001Z</time></trkpt><trkpt lat="41.82472423605955" lon="19.84698335814782"><ele>311.0</ele><time>2026-04-29T15:25:34.001Z</time></trkpt><trkpt lat="41.82482660605863" lon="19.846974492741815"><ele>311.0</ele><time>2026-04-29T15:25:35.001Z</time></trkpt><trkpt lat="41.8249058721678" lon="19.846991141429502"><ele>311.0</ele><time>2026-04-29T15:25:36.001Z</time></trkpt><trkpt lat="41.82496805979528" lon="19.84705490966741"><ele>311.0</ele><time>2026-04-29T15:25:37.001Z</time></trkpt><trkpt lat="41.825036664184736" lon="19.847163080956364"><ele>311.0</ele><time>2026-04-29T15:25:38.001Z</time></trkpt><trkpt lat="41.82509392523773" lon="19.84731585027787"><ele>311.0</ele><time>2026-04-29T15:25:39.001Z</time></trkpt><trkpt lat="41.82513422323676" lon="19.847512971603717"><ele>311.75</ele><time>2026-04-29T15:25:40.001Z</time></trkpt><trkpt lat="41.825184699493484" lon="19.847700165468375"><ele>312.5</ele><time>2026-04-29T15:25:41.001Z</time></trkpt><trkpt lat="41.82521970439009" lon="19.84787170688926"><ele>313.25</ele><time>2026-04-29T15:25:42.001Z</time></trkpt><trkpt lat="41.825299840808526" lon="19.848001511494576"><ele>314.0</ele><time>2026-04-29T15:25:43.001Z</time></trkpt><trkpt lat="41.825423987247696" lon="19.848118386621817"><ele>314.0</ele><time>2026-04-29T15:25:44.001Z</time></trkpt><trkpt lat="41.82554393956816" lon="19.848219273595195"><ele>314.0</ele><time>2026-04-29T15:25:45.001Z</time></trkpt><trkpt lat="41.82559690566502" lon="19.848372477019915"><ele>314.0</ele><time>2026-04-29T15:25:46.001Z</time></trkpt><trkpt lat="41.82560450254085" lon="19.84855409340537"><ele>314.0</ele><time>2026-04-29T15:25:47.001Z</time></trkpt><trkpt lat="41.825679874323576" lon="19.848705582270107"><ele>306.0</ele><time>2026-04-29T15:25:48.001Z</time></trkpt><trkpt lat="41.82576182415193" lon="19.848884148408704"><ele>298.0</ele><time>2026-04-29T15:25:49.001Z</time></trkpt><trkpt lat="41.825873333679326" lon="19.849053900111745"><ele>290.0</ele><time>2026-04-29T15:25:50.001Z</time></trkpt><trkpt lat="41.82596744731604" lon="19.84922308070634"><ele>284.75</ele><time>2026-04-29T15:25:51.001Z</time></trkpt><trkpt lat="41.82602374596405" lon="19.8494030827784"><ele>279.5</ele><time>2026-04-29T15:25:52.001Z</time></trkpt><trkpt lat="41.826063841183945" lon="19.849574318118623"><ele>274.25</ele><time>2026-04-29T15:25:53.001Z</time></trkpt><trkpt lat="41.82606552166856" lon="19.849752640680464"><ele>269.0</ele><time>2026-04-29T15:25:54.001Z</time></trkpt><trkpt lat="41.82603748159424" lon="19.849949697904414"><ele>265.33333333333337</ele><time>2026-04-29T15:25:55.001Z</time></trkpt><trkpt lat="41.826007451699375" lon="19.85017154952492"><ele>261.6666666666667</ele><time>2026-04-29T15:25:56.001Z</time></trkpt><trkpt lat="41.826000744573165" lon="19.85037670319654"><ele>258.0</ele><time>2026-04-29T15:25:57.001Z</time></trkpt><trkpt lat="41.8260231598368" lon="19.850589436946017"><ele>258.0</ele><time>2026-04-29T15:25:58.001Z</time></trkpt><trkpt lat="41.82609834931932" lon="19.850834279633002"><ele>258.0</ele><time>2026-04-29T15:25:59.001Z</time></trkpt><trkpt lat="41.82611364854466" lon="19.851055560816068"><ele>258.0</ele><time>2026-04-29T15:26:00.001Z</time></trkpt><trkpt lat="41.82609977100215" lon="19.851244587531856"><ele>258.75</ele><time>2026-04-29T15:26:01.001Z</time></trkpt><trkpt lat="41.82606038271237" lon="19.851435886553062"><ele>259.5</ele><time>2026-04-29T15:26:02.001Z</time></trkpt><trkpt lat="41.82598812766134" lon="19.85161103549272"><ele>260.25</ele><time>2026-04-29T15:26:03.001Z</time></trkpt><trkpt lat="41.82590742365154" lon="19.851744132826337"><ele>261.0</ele><time>2026-04-29T15:26:04.001Z</time></trkpt><trkpt lat="41.82586556575133" lon="19.851859239967588"><ele>258.0</ele><time>2026-04-29T15:26:05.001Z</time></trkpt><trkpt lat="41.82583384957191" lon="19.851946456615174"><ele>255.00000000000003</ele><time>2026-04-29T15:26:06.001Z</time></trkpt><trkpt lat="41.82585333534542" lon="19.85206687849239"><ele>252.00000000000003</ele><time>2026-04-29T15:26:07.001Z</time></trkpt><trkpt lat="41.825989392482185" lon="19.852124169677115"><ele>249.0</ele><time>2026-04-29T15:26:08.001Z</time></trkpt><trkpt lat="41.82607063980199" lon="19.852119532477477"><ele>246.0</ele><time>2026-04-29T15:26:09.001Z</time></trkpt><trkpt lat="41.82613904571727" lon="19.852025513917063"><ele>246.25</ele><time>2026-04-29T15:26:10.001Z</time></trkpt><trkpt lat="41.82622313958454" lon="19.851937293987024"><ele>246.5</ele><time>2026-04-29T15:26:11.001Z</time></trkpt><trkpt lat="41.826291195831836" lon="19.851769430773814"><ele>246.75</ele><time>2026-04-29T15:26:12.001Z</time></trkpt><trkpt lat="41.8263548563764" lon="19.851577614176794"><ele>247.0</ele><time>2026-04-29T15:26:13.001Z</time></trkpt><trkpt lat="41.826416148042526" lon="19.85137352578862"><ele>247.0</ele><time>2026-04-29T15:26:14.001Z</time></trkpt><trkpt lat="41.826471971471065" lon="19.85116830587595"><ele>247.0</ele><time>2026-04-29T15:26:15.001Z</time></trkpt><trkpt lat="41.82650914707784" lon="19.850975581186166"><ele>247.0</ele><time>2026-04-29T15:26:16.001Z</time></trkpt><trkpt lat="41.82652637268365" lon="19.85079124734028"><ele>249.75</ele><time>2026-04-29T15:26:17.001Z</time></trkpt><trkpt lat="41.826535631174856" lon="19.850611568014106"><ele>252.5</ele><time>2026-04-29T15:26:18.001Z</time></trkpt><trkpt lat="41.82654808970652" lon="19.85044429785657"><ele>255.25</ele><time>2026-04-29T15:26:19.001Z</time></trkpt><trkpt lat="41.82659308258263" lon="19.850290832196617"><ele>258.0</ele><time>2026-04-29T15:26:20.001Z</time></trkpt><trkpt lat="41.82662344597056" lon="19.850133766164568"><ele>257.5</ele><time>2026-04-29T15:26:21.001Z</time></trkpt><trkpt lat="41.826667034374275" lon="19.849982241369773"><ele>257.0</ele><time>2026-04-29T15:26:22.001Z</time></trkpt><trkpt lat="41.82674320969074" lon="19.84984557624799"><ele>256.5</ele><time>2026-04-29T15:26:23.001Z</time></trkpt><trkpt lat="41.82684054176862" lon="19.849695860145665"><ele>256.0</ele><time>2026-04-29T15:26:24.001Z</time></trkpt><trkpt lat="41.82693311086307" lon="19.849553955258806"><ele>256.0</ele><time>2026-04-29T15:26:25.001Z</time></trkpt><trkpt lat="41.82702188373063" lon="19.849448264111118"><ele>256.0</ele><time>2026-04-29T15:26:26.001Z</time></trkpt><trkpt lat="41.827115808826704" lon="19.849359549279104"><ele>256.0</ele><time>2026-04-29T15:26:27.001Z</time></trkpt><trkpt lat="41.827196184474495" lon="19.849286831118683"><ele>256.0</ele><time>2026-04-29T15:26:28.001Z</time></trkpt><trkpt lat="41.82726766897896" lon="19.84922804007791"><ele>256.0</ele><time>2026-04-29T15:26:29.001Z</time></trkpt><trkpt lat="41.827380598984924" lon="19.849249667118627"><ele>256.0</ele><time>2026-04-29T15:26:31.001Z</time></trkpt><trkpt lat="41.82743842425582" lon="19.84942789190764"><ele>256.0</ele><time>2026-04-29T15:26:33.001Z</time></trkpt><trkpt lat="41.827447789882825" lon="19.849608199775606"><ele>256.0</ele><time>2026-04-29T15:26:34.001Z</time></trkpt><trkpt lat="41.827455734456485" lon="19.849813889678664"><ele>256.0</ele><time>2026-04-29T15:26:35.001Z</time></trkpt><trkpt lat="41.82748497902433" lon="19.850018213730902"><ele>259.0</ele><time>2026-04-29T15:26:36.001Z</time></trkpt><trkpt lat="41.82754321461886" lon="19.85022841141578"><ele>262.0</ele><time>2026-04-29T15:26:37.001Z</time></trkpt><trkpt lat="41.827621063676524" lon="19.85045012684543"><ele>265.0</ele><time>2026-04-29T15:26:38.001Z</time></trkpt><trkpt lat="41.82770565222162" lon="19.8506750975744"><ele>265.0</ele><time>2026-04-29T15:26:39.001Z</time></trkpt><trkpt lat="41.82777753656054" lon="19.85088248520596"><ele>265.0</ele><time>2026-04-29T15:26:40.001Z</time></trkpt><trkpt lat="41.8278105854938" lon="19.851081221650265"><ele>265.0</ele><time>2026-04-29T15:26:41.001Z</time></trkpt><trkpt lat="41.82785226854365" lon="19.85126434917291"><ele>262.25</ele><time>2026-04-29T15:26:42.001Z</time></trkpt><trkpt lat="41.82789166155999" lon="19.851436775734715"><ele>259.5</ele><time>2026-04-29T15:26:43.001Z</time></trkpt><trkpt lat="41.82791956528545" lon="19.851615201237397"><ele>256.75</ele><time>2026-04-29T15:26:44.001Z</time></trkpt><trkpt lat="41.82794658738199" lon="19.851813801765655"><ele>254.0</ele><time>2026-04-29T15:26:45.001Z</time></trkpt><trkpt lat="41.82796692445863" lon="19.85202819450801"><ele>251.66666666666669</ele><time>2026-04-29T15:26:46.001Z</time></trkpt><trkpt lat="41.82799837927195" lon="19.85225241568813"><ele>249.33333333333331</ele><time>2026-04-29T15:26:47.001Z</time></trkpt><trkpt lat="41.8280765855551" lon="19.85246704431943"><ele>247.0</ele><time>2026-04-29T15:26:48.001Z</time></trkpt><trkpt lat="41.82813922234038" lon="19.852680022413733"><ele>246.0</ele><time>2026-04-29T15:26:49.001Z</time></trkpt><trkpt lat="41.82819027976397" lon="19.852879645283494"><ele>245.0</ele><time>2026-04-29T15:26:50.001Z</time></trkpt><trkpt lat="41.82822648492521" lon="19.853064737132346"><ele>244.0</ele><time>2026-04-29T15:26:51.001Z</time></trkpt><trkpt lat="41.82825453996659" lon="19.853218939984437"><ele>243.0</ele><time>2026-04-29T15:26:52.001Z</time></trkpt><trkpt lat="41.82828337707774" lon="19.853350443823395"><ele>245.25</ele><time>2026-04-29T15:26:53.001Z</time></trkpt><trkpt lat="41.82836493445356" lon="19.853462149523054"><ele>247.5</ele><time>2026-04-29T15:26:54.001Z</time></trkpt><trkpt lat="41.828470693849376" lon="19.853540219411066"><ele>249.75</ele><time>2026-04-29T15:26:55.001Z</time></trkpt><trkpt lat="41.82859081011189" lon="19.853589194980135"><ele>252.0</ele><time>2026-04-29T15:26:56.001Z</time></trkpt><trkpt lat="41.82869177948687" lon="19.853633154773693"><ele>248.2</ele><time>2026-04-29T15:26:57.001Z</time></trkpt><trkpt lat="41.82878576008737" lon="19.853673801852977"><ele>244.39999999999998</ele><time>2026-04-29T15:26:58.001Z</time></trkpt><trkpt lat="41.82886858024829" lon="19.85372274027992"><ele>240.60000000000002</ele><time>2026-04-29T15:26:59.001Z</time></trkpt><trkpt lat="41.82895869030097" lon="19.853808698157202"><ele>236.8</ele><time>2026-04-29T15:27:00.001Z</time></trkpt><trkpt lat="41.829046703168736" lon="19.853925699530222"><ele>233.0</ele><time>2026-04-29T15:27:01.001Z</time></trkpt><trkpt lat="41.82913521034916" lon="19.85404529178108"><ele>233.0</ele><time>2026-04-29T15:27:02.001Z</time></trkpt><trkpt lat="41.829227227407245" lon="19.854162875535724"><ele>233.0</ele><time>2026-04-29T15:27:03.001Z</time></trkpt><trkpt lat="41.82931999564199" lon="19.854275956307966"><ele>233.0</ele><time>2026-04-29T15:27:04.001Z</time></trkpt><trkpt lat="41.82941709708392" lon="19.854381347099633"><ele>233.0</ele><time>2026-04-29T15:27:05.001Z</time></trkpt><trkpt lat="41.82952065141413" lon="19.854474950915773"><ele>228.0</ele><time>2026-04-29T15:27:06.001Z</time></trkpt><trkpt lat="41.82962497926992" lon="19.854560099817412"><ele>223.0</ele><time>2026-04-29T15:27:07.001Z</time></trkpt><trkpt lat="41.82972949168838" lon="19.854646605113903"><ele>218.0</ele><time>2026-04-29T15:27:08.001Z</time></trkpt><trkpt lat="41.82983183596196" lon="19.8547397067094"><ele>213.0</ele><time>2026-04-29T15:27:09.001Z</time></trkpt><trkpt lat="41.829934308773225" lon="19.854833956323358"><ele>213.0</ele><time>2026-04-29T15:27:10.001Z</time></trkpt><trkpt lat="41.83003697233195" lon="19.85492849797842"><ele>213.0</ele><time>2026-04-29T15:27:11.001Z</time></trkpt><trkpt lat="41.83013704134998" lon="19.855019381774063"><ele>213.0</ele><time>2026-04-29T15:27:12.001Z</time></trkpt><trkpt lat="41.83026155382246" lon="19.8550790434977"><ele>213.0</ele><time>2026-04-29T15:27:13.001Z</time></trkpt><trkpt lat="41.8304010446312" lon="19.855070480813364"><ele>206.5</ele><time>2026-04-29T15:27:14.001Z</time></trkpt><trkpt lat="41.83052671796882" lon="19.85507230943207"><ele>200.0</ele><time>2026-04-29T15:27:15.001Z</time></trkpt><trkpt lat="41.83064985603253" lon="19.855079250812825"><ele>193.5</ele><time>2026-04-29T15:27:16.001Z</time></trkpt><trkpt lat="41.83077613872868" lon="19.855076433279574"><ele>187.0</ele><time>2026-04-29T15:27:17.001Z</time></trkpt><trkpt lat="41.830894009104135" lon="19.855109746609596"><ele>184.5</ele><time>2026-04-29T15:27:18.001Z</time></trkpt><trkpt lat="41.83100780528349" lon="19.855155462830506"><ele>182.0</ele><time>2026-04-29T15:27:19.001Z</time></trkpt><trkpt lat="41.831120016440515" lon="19.855215699592577"><ele>179.5</ele><time>2026-04-29T15:27:20.001Z</time></trkpt><trkpt lat="41.8312312840387" lon="19.85529371932488"><ele>177.0</ele><time>2026-04-29T15:27:21.001Z</time></trkpt><trkpt lat="41.83133241038324" lon="19.855393574572652"><ele>177.0</ele><time>2026-04-29T15:27:22.001Z</time></trkpt><trkpt lat="41.831402751242834" lon="19.855541483703117"><ele>177.0</ele><time>2026-04-29T15:27:23.001Z</time></trkpt><trkpt lat="41.831486081738184" lon="19.855686895402886"><ele>177.0</ele><time>2026-04-29T15:27:24.001Z</time></trkpt><trkpt lat="41.83157139459603" lon="19.855873141844985"><ele>177.0</ele><time>2026-04-29T15:27:25.001Z</time></trkpt><trkpt lat="41.831673496576144" lon="19.856069880748674"><ele>178.0</ele><time>2026-04-29T15:27:26.001Z</time></trkpt><trkpt lat="41.831768923120755" lon="19.856283179552715"><ele>179.0</ele><time>2026-04-29T15:27:27.001Z</time></trkpt><trkpt lat="41.831864535399575" lon="19.85648524308821"><ele>180.0</ele><time>2026-04-29T15:27:28.001Z</time></trkpt><trkpt lat="41.83195403065055" lon="19.85666536616246"><ele>173.0</ele><time>2026-04-29T15:27:29.001Z</time></trkpt><trkpt lat="41.832043234258094" lon="19.856831007077563"><ele>166.0</ele><time>2026-04-29T15:27:30.001Z</time></trkpt><trkpt lat="41.83211807773687" lon="19.85699637196182"><ele>159.0</ele><time>2026-04-29T15:27:31.001Z</time></trkpt><trkpt lat="41.83213189274684" lon="19.857193208396897"><ele>152.0</ele><time>2026-04-29T15:27:32.001Z</time></trkpt><trkpt lat="41.83215814735532" lon="19.85740547612821"><ele>154.75</ele><time>2026-04-29T15:27:33.001Z</time></trkpt><trkpt lat="41.83218627167409" lon="19.857620097519888"><ele>157.5</ele><time>2026-04-29T15:27:34.001Z</time></trkpt><trkpt lat="41.83221243496439" lon="19.857804564342427"><ele>160.25</ele><time>2026-04-29T15:27:35.001Z</time></trkpt><trkpt lat="41.832256481393834" lon="19.85798158308196"><ele>163.0</ele><time>2026-04-29T15:27:36.001Z</time></trkpt><trkpt lat="41.83234987129677" lon="19.85816168977252"><ele>163.0</ele><time>2026-04-29T15:27:37.001Z</time></trkpt><trkpt lat="41.832415273648714" lon="19.85833620202439"><ele>163.0</ele><time>2026-04-29T15:27:38.001Z</time></trkpt><trkpt lat="41.832497704261236" lon="19.85849221202476"><ele>163.0</ele><time>2026-04-29T15:27:39.001Z</time></trkpt><trkpt lat="41.8325921035444" lon="19.858670987842203"><ele>170.75</ele><time>2026-04-29T15:27:40.001Z</time></trkpt><trkpt lat="41.83268089855759" lon="19.858848198992835"><ele>178.5</ele><time>2026-04-29T15:27:41.001Z</time></trkpt><trkpt lat="41.832767982110255" lon="19.85897636847706"><ele>186.25</ele><time>2026-04-29T15:27:42.001Z</time></trkpt><trkpt lat="41.83285782821923" lon="19.8590988840953"><ele>194.0</ele><time>2026-04-29T15:27:43.001Z</time></trkpt><trkpt lat="41.83296460729543" lon="19.85920133672825"><ele>194.0</ele><time>2026-04-29T15:27:44.001Z</time></trkpt><trkpt lat="41.833048095379176" lon="19.859278394525013"><ele>194.0</ele><time>2026-04-29T15:27:45.001Z</time></trkpt><trkpt lat="41.83310929793297" lon="19.85932950031924"><ele>194.0</ele><time>2026-04-29T15:27:46.001Z</time></trkpt><trkpt lat="41.83317535158872" lon="19.85935690467729"><ele>194.0</ele><time>2026-04-29T15:27:47.001Z</time></trkpt><trkpt lat="41.83327803573816" lon="19.859296902322463"><ele>194.0</ele><time>2026-04-29T15:27:48.001Z</time></trkpt><trkpt lat="41.83325277913498" lon="19.859043425521246"><ele>194.0</ele><time>2026-04-29T15:27:49.001Z</time></trkpt><trkpt lat="41.83326543661594" lon="19.858894481676387"><ele>194.0</ele><time>2026-04-29T15:27:50.001Z</time></trkpt><trkpt lat="41.83329923714329" lon="19.85874824155793"><ele>194.0</ele><time>2026-04-29T15:27:51.001Z</time></trkpt><trkpt lat="41.833368258149825" lon="19.858663435993222"><ele>194.0</ele><time>2026-04-29T15:27:52.001Z</time></trkpt><trkpt lat="41.833470512247" lon="19.858626037700887"><ele>194.0</ele><time>2026-04-29T15:27:53.001Z</time></trkpt><trkpt lat="41.83358184583985" lon="19.858602885618588"><ele>196.5</ele><time>2026-04-29T15:27:54.001Z</time></trkpt><trkpt lat="41.833697643736954" lon="19.85858195464254"><ele>199.0</ele><time>2026-04-29T15:27:55.001Z</time></trkpt><trkpt lat="41.833801253506124" lon="19.858488633982237"><ele>201.5</ele><time>2026-04-29T15:27:56.001Z</time></trkpt><trkpt lat="41.83386251218674" lon="19.85833390218784"><ele>204.0</ele><time>2026-04-29T15:27:57.001Z</time></trkpt><trkpt lat="41.83393706606452" lon="19.8581934509242"><ele>204.0</ele><time>2026-04-29T15:27:58.001Z</time></trkpt><trkpt lat="41.834025595806224" lon="19.85807118024151"><ele>204.0</ele><time>2026-04-29T15:27:59.001Z</time></trkpt><trkpt lat="41.83413012524266" lon="19.85799433599206"><ele>204.0</ele><time>2026-04-29T15:28:00.001Z</time></trkpt><trkpt lat="41.83424440836017" lon="19.85797137648282"><ele>204.0</ele><time>2026-04-29T15:28:01.001Z</time></trkpt><trkpt lat="41.834355728316524" lon="19.85800339637268"><ele>203.2</ele><time>2026-04-29T15:28:02.001Z</time></trkpt><trkpt lat="41.83443586139692" lon="19.858104921704864"><ele>202.39999999999998</ele><time>2026-04-29T15:28:03.001Z</time></trkpt><trkpt lat="41.83450353551346" lon="19.85821249456873"><ele>201.6</ele><time>2026-04-29T15:28:04.001Z</time></trkpt><trkpt lat="41.83457702530612" lon="19.85831215659733"><ele>200.8</ele><time>2026-04-29T15:28:05.001Z</time></trkpt><trkpt lat="41.834616490972" lon="19.858404926163754"><ele>200.0</ele><time>2026-04-29T15:28:06.001Z</time></trkpt><trkpt lat="41.83467197619446" lon="19.858482880168197"><ele>204.8</ele><time>2026-04-29T15:28:07.001Z</time></trkpt><trkpt lat="41.83474713832056" lon="19.858547439332497"><ele>209.6</ele><time>2026-04-29T15:28:08.001Z</time></trkpt><trkpt lat="41.83482997982626" lon="19.858615713491677"><ele>214.39999999999998</ele><time>2026-04-29T15:28:09.001Z</time></trkpt><trkpt lat="41.834910463896875" lon="19.858675893991308"><ele>219.2</ele><time>2026-04-29T15:28:10.001Z</time></trkpt><trkpt lat="41.83497615145535" lon="19.858745795366822"><ele>224.0</ele><time>2026-04-29T15:28:11.001Z</time></trkpt><trkpt lat="41.83503951089836" lon="19.858865539495536"><ele>224.0</ele><time>2026-04-29T15:28:13.001Z</time></trkpt><trkpt lat="41.835023872577416" lon="19.85901408564905"><ele>223.99999999999997</ele><time>2026-04-29T15:28:15.001Z</time></trkpt><trkpt lat="41.834966762466166" lon="19.859063548396744"><ele>223.99999999999997</ele><time>2026-04-29T15:28:16.001Z</time></trkpt><trkpt lat="41.834838734273575" lon="19.85905498562431"><ele>224.0</ele><time>2026-04-29T15:28:18.001Z</time></trkpt><trkpt lat="41.83476159324436" lon="19.859015655391815"><ele>224.0</ele><time>2026-04-29T15:28:19.001Z</time></trkpt><trkpt lat="41.83467606707474" lon="19.858981196537172"><ele>224.0</ele><time>2026-04-29T15:28:20.001Z</time></trkpt><trkpt lat="41.83458722373278" lon="19.858967734094364"><ele>223.99999999999997</ele><time>2026-04-29T15:28:21.001Z</time></trkpt><trkpt lat="41.834511572253845" lon="19.858933245082362"><ele>223.99999999999997</ele><time>2026-04-29T15:28:22.001Z</time></trkpt><trkpt lat="41.83441817761189" lon="19.858905002916533"><ele>224.0</ele><time>2026-04-29T15:28:23.001Z</time></trkpt><trkpt lat="41.83431576187019" lon="19.858874350180542"><ele>224.0</ele><time>2026-04-29T15:28:24.001Z</time></trkpt><trkpt lat="41.834231776567435" lon="19.85884921354932"><ele>223.0</ele><time>2026-04-29T15:28:25.001Z</time></trkpt><trkpt lat="41.83415739067209" lon="19.858826971741152"><ele>221.99999999999997</ele><time>2026-04-29T15:28:26.001Z</time></trkpt><trkpt lat="41.83407905251611" lon="19.858823429430565"><ele>220.99999999999997</ele><time>2026-04-29T15:28:27.001Z</time></trkpt><trkpt lat="41.83400155650829" lon="19.858854068540875"><ele>220.0</ele><time>2026-04-29T15:28:28.001Z</time></trkpt><trkpt lat="41.83393518700267" lon="19.85900834988156"><ele>219.0</ele><time>2026-04-29T15:28:29.001Z</time></trkpt><trkpt lat="41.83394712813157" lon="19.85915664165775"><ele>219.0</ele><time>2026-04-29T15:28:30.001Z</time></trkpt><trkpt lat="41.83402378367513" lon="19.85926991079819"><ele>218.99999999999997</ele><time>2026-04-29T15:28:31.001Z</time></trkpt><trkpt lat="41.83407935715814" lon="19.859382475672028"><ele>218.99999999999997</ele><time>2026-04-29T15:28:32.001Z</time></trkpt><trkpt lat="41.83412170860301" lon="19.859496386575323"><ele>219.0</ele><time>2026-04-29T15:28:33.001Z</time></trkpt><trkpt lat="41.83415937801245" lon="19.8596195211837"><ele>219.0</ele><time>2026-04-29T15:28:34.001Z</time></trkpt><trkpt lat="41.834192679287675" lon="19.859750140355057"><ele>220.6</ele><time>2026-04-29T15:28:35.001Z</time></trkpt><trkpt lat="41.834229490337364" lon="19.859888587367006"><ele>222.2</ele><time>2026-04-29T15:28:36.001Z</time></trkpt><trkpt lat="41.8342633874246" lon="19.86002595805762"><ele>223.79999999999998</ele><time>2026-04-29T15:28:37.001Z</time></trkpt><trkpt lat="41.83429432608707" lon="19.860167147959544"><ele>225.39999999999998</ele><time>2026-04-29T15:28:38.001Z</time></trkpt><trkpt lat="41.83431672058069" lon="19.860310645859702"><ele>227.0</ele><time>2026-04-29T15:28:39.001Z</time></trkpt><trkpt lat="41.83437531279367" lon="19.860435082734845"><ele>234.2</ele><time>2026-04-29T15:28:40.001Z</time></trkpt><trkpt lat="41.83441880339522" lon="19.86056717948737"><ele>241.39999999999998</ele><time>2026-04-29T15:28:41.001Z</time></trkpt><trkpt lat="41.83446955300138" lon="19.860695850028463"><ele>248.60000000000002</ele><time>2026-04-29T15:28:42.001Z</time></trkpt><trkpt lat="41.83450961766174" lon="19.860835935846225"><ele>255.8</ele><time>2026-04-29T15:28:43.001Z</time></trkpt><trkpt lat="41.83455278636896" lon="19.860955268503005"><ele>263.0</ele><time>2026-04-29T15:28:44.001Z</time></trkpt><trkpt lat="41.834597298525715" lon="19.861044969297527"><ele>263.6666666666667</ele><time>2026-04-29T15:28:45.001Z</time></trkpt><trkpt lat="41.834621758725326" lon="19.861146922431352"><ele>264.33333333333337</ele><time>2026-04-29T15:28:46.001Z</time></trkpt><trkpt lat="41.834634230310996" lon="19.8612557087701"><ele>265.0</ele><time>2026-04-29T15:28:47.001Z</time></trkpt><trkpt lat="41.83464351248644" lon="19.86136570320056"><ele>265.6666666666667</ele><time>2026-04-29T15:28:48.001Z</time></trkpt><trkpt lat="41.834645445851386" lon="19.861471241471843"><ele>266.3333333333333</ele><time>2026-04-29T15:28:49.001Z</time></trkpt><trkpt lat="41.83463668199869" lon="19.861574684785356"><ele>267.0</ele><time>2026-04-29T15:28:50.001Z</time></trkpt><trkpt lat="41.8346305748906" lon="19.861679555482336"><ele>267.8</ele><time>2026-04-29T15:28:51.001Z</time></trkpt><trkpt lat="41.83462793101781" lon="19.861786633496195"><ele>268.6</ele><time>2026-04-29T15:28:52.001Z</time></trkpt><trkpt lat="41.83464499199659" lon="19.861906458279726"><ele>269.40000000000003</ele><time>2026-04-29T15:28:53.001Z</time></trkpt><trkpt lat="41.834680030924" lon="19.86203179776404"><ele>270.2</ele><time>2026-04-29T15:28:54.001Z</time></trkpt><trkpt lat="41.834722271007394" lon="19.862154412087936"><ele>271.0</ele><time>2026-04-29T15:28:55.001Z</time></trkpt><trkpt lat="41.834787230776946" lon="19.86232049642459"><ele>271.0</ele><time>2026-04-29T15:28:57.001Z</time></trkpt><trkpt lat="41.8348044027837" lon="19.86243474621887"><ele>271.0</ele><time>2026-04-29T15:28:58.001Z</time></trkpt><trkpt lat="41.83480045628065" lon="19.86255855591069"><ele>271.0</ele><time>2026-04-29T15:28:59.001Z</time></trkpt><trkpt lat="41.834782909281515" lon="19.862694475856653"><ele>271.0</ele><time>2026-04-29T15:29:00.001Z</time></trkpt><trkpt lat="41.83476232877649" lon="19.862851420392822"><ele>271.0</ele><time>2026-04-29T15:29:01.001Z</time></trkpt><trkpt lat="41.83473030098401" lon="19.863014471822808"><ele>272.0</ele><time>2026-04-29T15:29:02.001Z</time></trkpt><trkpt lat="41.83470242765872" lon="19.863152593470037"><ele>273.0</ele><time>2026-04-29T15:29:03.001Z</time></trkpt><trkpt lat="41.834688025936956" lon="19.86326148141704"><ele>274.0</ele><time>2026-04-29T15:29:04.001Z</time></trkpt><trkpt lat="41.83468982155945" lon="19.863347350845974"><ele>275.0</ele><time>2026-04-29T15:29:05.001Z</time></trkpt><trkpt lat="41.83477067422111" lon="19.863428177965876"><ele>276.0</ele><time>2026-04-29T15:29:07.001Z</time></trkpt><trkpt lat="41.834837832322705" lon="19.863435689917157"><ele>277.0</ele><time>2026-04-29T15:29:08.001Z</time></trkpt><trkpt lat="41.83490316715462" lon="19.86336206454181"><ele>277.0</ele><time>2026-04-29T15:29:09.001Z</time></trkpt><trkpt lat="41.83489478375079" lon="19.863190716424928"><ele>277.0</ele><time>2026-04-29T15:29:10.001Z</time></trkpt><trkpt lat="41.83490731850074" lon="19.863033629232834"><ele>277.0</ele><time>2026-04-29T15:29:11.001Z</time></trkpt><trkpt lat="41.83492558903541" lon="19.862849490378604"><ele>277.0</ele><time>2026-04-29T15:29:12.001Z</time></trkpt><trkpt lat="41.83500052890073" lon="19.862709031785563"><ele>275.5</ele><time>2026-04-29T15:29:13.001Z</time></trkpt><trkpt lat="41.83508967870222" lon="19.8625777463898"><ele>274.0</ele><time>2026-04-29T15:29:14.001Z</time></trkpt><trkpt lat="41.835156923177" lon="19.862409891920834"><ele>272.5</ele><time>2026-04-29T15:29:15.001Z</time></trkpt><trkpt lat="41.8352075850007" lon="19.86223409223202"><ele>271.0</ele><time>2026-04-29T15:29:16Z</time></trkpt><trkpt lat="41.835222949034744" lon="19.862036199119277"><ele>281.25</ele><time>2026-04-29T15:29:17Z</time></trkpt><trkpt lat="41.83524100230965" lon="19.861859984835956"><ele>291.5</ele><time>2026-04-29T15:29:18Z</time></trkpt><trkpt lat="41.83529302520721" lon="19.861740648131203"><ele>301.75</ele><time>2026-04-29T15:29:19Z</time></trkpt><trkpt lat="41.83539743504339" lon="19.861666878651327"><ele>312.0</ele><time>2026-04-29T15:29:20Z</time></trkpt><trkpt lat="41.83548026474851" lon="19.8615545929366"><ele>312.0</ele><time>2026-04-29T15:29:21Z</time></trkpt><trkpt lat="41.83553123890101" lon="19.861409714101246"><ele>312.0</ele><time>2026-04-29T15:29:22Z</time></trkpt><trkpt lat="41.83552787588183" lon="19.86123667084136"><ele>312.0</ele><time>2026-04-29T15:29:23Z</time></trkpt><trkpt lat="41.83551233141191" lon="19.861062091427613"><ele>312.0</ele><time>2026-04-29T15:29:24Z</time></trkpt><trkpt lat="41.83548794743674" lon="19.860882571159024"><ele>310.8</ele><time>2026-04-29T15:29:25Z</time></trkpt><trkpt lat="41.83547304480445" lon="19.860734863333246"><ele>309.6</ele><time>2026-04-29T15:29:26Z</time></trkpt><trkpt lat="41.83548166562508" lon="19.860642495581367"><ele>308.40000000000003</ele><time>2026-04-29T15:29:27Z</time></trkpt><trkpt lat="41.83556597049229" lon="19.860631136664445"><ele>307.2</ele><time>2026-04-29T15:29:29Z</time></trkpt><trkpt lat="41.83559454098112" lon="19.860709427394045"><ele>306.0</ele><time>2026-04-29T15:29:30Z</time></trkpt><trkpt lat="41.835642691657334" lon="19.86088858569357"><ele>307.5</ele><time>2026-04-29T15:29:32Z</time></trkpt><trkpt lat="41.83566241649851" lon="19.861042898703932"><ele>309.0</ele><time>2026-04-29T15:29:33Z</time></trkpt><trkpt lat="41.83570455344545" lon="19.86120279081087"><ele>310.5</ele><time>2026-04-29T15:29:34Z</time></trkpt><trkpt lat="41.83574486724419" lon="19.861354336755547"><ele>312.0</ele><time>2026-04-29T15:29:35Z</time></trkpt><trkpt lat="41.835769094668485" lon="19.861507760892554"><ele>312.0</ele><time>2026-04-29T15:29:36Z</time></trkpt><trkpt lat="41.835762079927704" lon="19.86164291481636"><ele>312.0</ele><time>2026-04-29T15:29:37Z</time></trkpt><trkpt lat="41.8356833280498" lon="19.861752760210162"><ele>312.0</ele><time>2026-04-29T15:29:38Z</time></trkpt><trkpt lat="41.83563574071682" lon="19.861901393706923"><ele>312.0</ele><time>2026-04-29T15:29:39Z</time></trkpt><trkpt lat="41.8356223560906" lon="19.862071322842162"><ele>312.75</ele><time>2026-04-29T15:29:40Z</time></trkpt><trkpt lat="41.83569233684595" lon="19.862238927433612"><ele>313.5</ele><time>2026-04-29T15:29:41Z</time></trkpt><trkpt lat="41.83576205564708" lon="19.862419244713625"><ele>314.25</ele><time>2026-04-29T15:29:42Z</time></trkpt><trkpt lat="41.83582377206875" lon="19.862602785754035"><ele>315.0</ele><time>2026-04-29T15:29:43Z</time></trkpt><trkpt lat="41.83580987959275" lon="19.86277117287034"><ele>316.0</ele><time>2026-04-29T15:29:44Z</time></trkpt><trkpt lat="41.83580346765729" lon="19.86295791627664"><ele>317.0</ele><time>2026-04-29T15:29:45Z</time></trkpt><trkpt lat="41.83584166832918" lon="19.86316012162328"><ele>318.0</ele><time>2026-04-29T15:29:46Z</time></trkpt><trkpt lat="41.835867725650544" lon="19.863412220507385"><ele>319.6666666666667</ele><time>2026-04-29T15:29:47Z</time></trkpt><trkpt lat="41.83585613322328" lon="19.863684248449715"><ele>321.33333333333337</ele><time>2026-04-29T15:29:48Z</time></trkpt><trkpt lat="41.83581267420769" lon="19.863953434925197"><ele>323.0</ele><time>2026-04-29T15:29:49Z</time></trkpt><trkpt lat="41.83582270194384" lon="19.864231683023814"><ele>324.6666666666667</ele><time>2026-04-29T15:29:50Z</time></trkpt><trkpt lat="41.83588710729814" lon="19.864514688236127"><ele>326.3333333333333</ele><time>2026-04-29T15:29:51Z</time></trkpt><trkpt lat="41.835941124268246" lon="19.864798036479822"><ele>328.0</ele><time>2026-04-29T15:29:52Z</time></trkpt><trkpt lat="41.835932307394344" lon="19.865031279631356"><ele>330.66666666666663</ele><time>2026-04-29T15:29:53Z</time></trkpt><trkpt lat="41.83593671404222" lon="19.865272959361747"><ele>333.3333333333333</ele><time>2026-04-29T15:29:54Z</time></trkpt><trkpt lat="41.83592441807126" lon="19.86552123986063"><ele>336.0</ele><time>2026-04-29T15:29:55Z</time></trkpt><trkpt lat="41.83592855770163" lon="19.865737998088782"><ele>336.0</ele><time>2026-04-29T15:29:56Z</time></trkpt><trkpt lat="41.83593626836088" lon="19.865928470512273"><ele>336.0</ele><time>2026-04-29T15:29:57Z</time></trkpt><trkpt lat="41.83597954796053" lon="19.866113330937335"><ele>336.0</ele><time>2026-04-29T15:29:58Z</time></trkpt><trkpt lat="41.83604331184402" lon="19.866300629600335"><ele>336.0</ele><time>2026-04-29T15:29:59Z</time></trkpt><trkpt lat="41.836108382429764" lon="19.866493243689288"><ele>336.75</ele><time>2026-04-29T15:30:00Z</time></trkpt><trkpt lat="41.836159231169574" lon="19.866682121263022"><ele>337.5</ele><time>2026-04-29T15:30:01Z</time></trkpt><trkpt lat="41.83618992343438" lon="19.866839830188415"><ele>338.25</ele><time>2026-04-29T15:30:02.001Z</time></trkpt><trkpt lat="41.8362033063599" lon="19.86698354352025"><ele>339.0</ele><time>2026-04-29T15:30:03.001Z</time></trkpt><trkpt lat="41.836191588078236" lon="19.867124811769546"><ele>339.0</ele><time>2026-04-29T15:30:04.001Z</time></trkpt><trkpt lat="41.836132322341015" lon="19.867262120510958"><ele>339.0</ele><time>2026-04-29T15:30:05.001Z</time></trkpt><trkpt lat="41.836112789071805" lon="19.86742670379472"><ele>339.0</ele><time>2026-04-29T15:30:06.001Z</time></trkpt><trkpt lat="41.83609637041006" lon="19.867603350657213"><ele>339.0</ele><time>2026-04-29T15:30:07.001Z</time></trkpt><trkpt lat="41.83612071762498" lon="19.867793941552964"><ele>336.25</ele><time>2026-04-29T15:30:08.001Z</time></trkpt><trkpt lat="41.83614948381616" lon="19.867967175408133"><ele>333.5</ele><time>2026-04-29T15:30:09.001Z</time></trkpt><trkpt lat="41.8361223886748" lon="19.86812606103055"><ele>330.75</ele><time>2026-04-29T15:30:10.001Z</time></trkpt><trkpt lat="41.83609131306976" lon="19.86828573439698"><ele>328.0</ele><time>2026-04-29T15:30:11.001Z</time></trkpt><trkpt lat="41.836017766233056" lon="19.868407372240476"><ele>329.59999999999997</ele><time>2026-04-29T15:30:12.001Z</time></trkpt><trkpt lat="41.83595686374879" lon="19.86851787027404"><ele>331.2</ele><time>2026-04-29T15:30:13.001Z</time></trkpt><trkpt lat="41.83593233858039" lon="19.86862754941753"><ele>332.8</ele><time>2026-04-29T15:30:14.001Z</time></trkpt><trkpt lat="41.83594984744885" lon="19.86873711015974"><ele>334.4</ele><time>2026-04-29T15:30:15.001Z</time></trkpt><trkpt lat="41.83600001090943" lon="19.868852180085284"><ele>336.0</ele><time>2026-04-29T15:30:16.001Z</time></trkpt><trkpt lat="41.83607111300257" lon="19.86898375026692"><ele>336.0</ele><time>2026-04-29T15:30:17.001Z</time></trkpt><trkpt lat="41.83613573178129" lon="19.869133011528913"><ele>336.0</ele><time>2026-04-29T15:30:18.001Z</time></trkpt><trkpt lat="41.83620954806416" lon="19.869289776720205"><ele>336.0</ele><time>2026-04-29T15:30:19.001Z</time></trkpt><trkpt lat="41.8362719992849" lon="19.869438603217016"><ele>336.0</ele><time>2026-04-29T15:30:20.001Z</time></trkpt><trkpt lat="41.836325874278714" lon="19.869567302505136"><ele>336.0</ele><time>2026-04-29T15:30:21.001Z</time></trkpt><trkpt lat="41.83636126603077" lon="19.869696631161062"><ele>336.0</ele><time>2026-04-29T15:30:22.001Z</time></trkpt><trkpt lat="41.83636560069095" lon="19.869818069205888"><ele>336.0</ele><time>2026-04-29T15:30:23.001Z</time></trkpt><trkpt lat="41.83631526376661" lon="19.869960588343776"><ele>336.0</ele><time>2026-04-29T15:30:24.001Z</time></trkpt><trkpt lat="41.83627770474774" lon="19.870129987011904"><ele>336.0</ele><time>2026-04-29T15:30:25.001Z</time></trkpt><trkpt lat="41.83623320496417" lon="19.870285021086506"><ele>335.6</ele><time>2026-04-29T15:30:26.001Z</time></trkpt><trkpt lat="41.836196793957555" lon="19.870420340031124"><ele>335.20000000000005</ele><time>2026-04-29T15:30:27.001Z</time></trkpt><trkpt lat="41.836165861933004" lon="19.870529404217695"><ele>334.79999999999995</ele><time>2026-04-29T15:30:28.001Z</time></trkpt><trkpt lat="41.8361495965339" lon="19.870618864028945"><ele>334.4</ele><time>2026-04-29T15:30:29.001Z</time></trkpt><trkpt lat="41.836219970842" lon="19.870750771969806"><ele>334.0</ele><time>2026-04-29T15:30:31.001Z</time></trkpt><trkpt lat="41.836285790084126" lon="19.87077675962866"><ele>334.0</ele><time>2026-04-29T15:30:32.001Z</time></trkpt><trkpt lat="41.83636466090468" lon="19.870790654920647"><ele>334.0</ele><time>2026-04-29T15:30:33.001Z</time></trkpt><trkpt lat="41.836458973660164" lon="19.870807448927337"><ele>334.0</ele><time>2026-04-29T15:30:34.001Z</time></trkpt><trkpt lat="41.836569071750596" lon="19.87083202361525"><ele>334.0</ele><time>2026-04-29T15:30:35.001Z</time></trkpt><trkpt lat="41.83668289983572" lon="19.870853136057768"><ele>334.0</ele><time>2026-04-29T15:30:36.001Z</time></trkpt><trkpt lat="41.83680372425007" lon="19.870869662444374"><ele>333.75</ele><time>2026-04-29T15:30:37.001Z</time></trkpt><trkpt lat="41.83693057008006" lon="19.870890563046594"><ele>333.5</ele><time>2026-04-29T15:30:38.001Z</time></trkpt><trkpt lat="41.83705672291802" lon="19.870926123501437"><ele>333.25</ele><time>2026-04-29T15:30:39.001Z</time></trkpt><trkpt lat="41.837159583978945" lon="19.870970204241253"><ele>333.0</ele><time>2026-04-29T15:30:40.001Z</time></trkpt><trkpt lat="41.83724244364057" lon="19.871012918128088"><ele>333.1666666666667</ele><time>2026-04-29T15:30:41.001Z</time></trkpt><trkpt lat="41.83731282842599" lon="19.87103506980941"><ele>333.3333333333333</ele><time>2026-04-29T15:30:42.001Z</time></trkpt><trkpt lat="41.837397791950515" lon="19.871064598322864"><ele>333.5</ele><time>2026-04-29T15:30:43.001Z</time></trkpt><trkpt lat="41.83747652839598" lon="19.87111924682964"><ele>333.66666666666663</ele><time>2026-04-29T15:30:44.001Z</time></trkpt><trkpt lat="41.83754433814386" lon="19.871198033655226"><ele>333.8333333333333</ele><time>2026-04-29T15:30:45.001Z</time></trkpt><trkpt lat="41.83760667523685" lon="19.871285196774366"><ele>334.0</ele><time>2026-04-29T15:30:46.001Z</time></trkpt><trkpt lat="41.83767100550195" lon="19.871342749177533"><ele>334.0</ele><time>2026-04-29T15:30:47.001Z</time></trkpt><trkpt lat="41.8377292054887" lon="19.871398224217884"><ele>334.0</ele><time>2026-04-29T15:30:48.001Z</time></trkpt><trkpt lat="41.83781847981671" lon="19.8713744015362"><ele>334.0</ele><time>2026-04-29T15:30:49.001Z</time></trkpt><trkpt lat="41.83791334090147" lon="19.871362741022782"><ele>334.0</ele><time>2026-04-29T15:30:50.001Z</time></trkpt><trkpt lat="41.83802431112172" lon="19.871350889136394"><ele>334.0</ele><time>2026-04-29T15:30:51.001Z</time></trkpt><trkpt lat="41.83815281204206" lon="19.871348439626523"><ele>334.0</ele><time>2026-04-29T15:30:52.001Z</time></trkpt><trkpt lat="41.838286556762306" lon="19.871358131898518"><ele>334.0</ele><time>2026-04-29T15:30:53.001Z</time></trkpt><trkpt lat="41.83841058282279" lon="19.871379793010163"><ele>334.0</ele><time>2026-04-29T15:30:54.001Z</time></trkpt><trkpt lat="41.83854329105678" lon="19.871396337752472"><ele>334.0</ele><time>2026-04-29T15:30:55.001Z</time></trkpt><trkpt lat="41.838669299510414" lon="19.8714032901607"><ele>335.5</ele><time>2026-04-29T15:30:56.001Z</time></trkpt><trkpt lat="41.8387764674582" lon="19.87141911887602"><ele>337.0</ele><time>2026-04-29T15:30:57.001Z</time></trkpt><trkpt lat="41.838880678470844" lon="19.871464169602714"><ele>338.5</ele><time>2026-04-29T15:30:58.001Z</time></trkpt><trkpt lat="41.83898413928467" lon="19.871531939943285"><ele>340.0</ele><time>2026-04-29T15:30:59.001Z</time></trkpt><trkpt lat="41.839097407256205" lon="19.87161564859678"><ele>340.0</ele><time>2026-04-29T15:31:00.001Z</time></trkpt><trkpt lat="41.8392030414725" lon="19.87168842873295"><ele>340.0</ele><time>2026-04-29T15:31:01.001Z</time></trkpt><trkpt lat="41.839310188274254" lon="19.87174941324425"><ele>340.0</ele><time>2026-04-29T15:31:02.001Z</time></trkpt><trkpt lat="41.83940469515971" lon="19.871805551392363"><ele>340.0</ele><time>2026-04-29T15:31:03.001Z</time></trkpt><trkpt lat="41.839503655151915" lon="19.871860166522886"><ele>340.0</ele><time>2026-04-29T15:31:04.001Z</time></trkpt><trkpt lat="41.83961643476929" lon="19.871889901135496"><ele>341.5</ele><time>2026-04-29T15:31:05.001Z</time></trkpt><trkpt lat="41.83974097206914" lon="19.871893858701878"><ele>343.0</ele><time>2026-04-29T15:31:06.001Z</time></trkpt><trkpt lat="41.83987982869176" lon="19.871898519698703"><ele>344.5</ele><time>2026-04-29T15:31:07.001Z</time></trkpt><trkpt lat="41.840026556897605" lon="19.871915409854154"><ele>346.0</ele><time>2026-04-29T15:31:08.001Z</time></trkpt><trkpt lat="41.84019360746057" lon="19.871939204723763"><ele>346.66666666666663</ele><time>2026-04-29T15:31:09.001Z</time></trkpt><trkpt lat="41.84036691134756" lon="19.871963588525908"><ele>347.3333333333333</ele><time>2026-04-29T15:31:10.001Z</time></trkpt><trkpt lat="41.84054138236447" lon="19.871989285232125"><ele>348.0</ele><time>2026-04-29T15:31:11.001Z</time></trkpt><trkpt lat="41.840709254817185" lon="19.872014472021192"><ele>348.0</ele><time>2026-04-29T15:31:12.001Z</time></trkpt><trkpt lat="41.84086447587788" lon="19.87203902545479"><ele>348.0</ele><time>2026-04-29T15:31:13.001Z</time></trkpt><trkpt lat="41.84100068930928" lon="19.872066073684074"><ele>348.0</ele><time>2026-04-29T15:31:14.001Z</time></trkpt><trkpt lat="41.84114123817685" lon="19.872092442275257"><ele>348.0</ele><time>2026-04-29T15:31:15.001Z</time></trkpt><trkpt lat="41.84128835193316" lon="19.872121037997644"><ele>349.25</ele><time>2026-04-29T15:31:16.001Z</time></trkpt><trkpt lat="41.84143596834406" lon="19.872149412808"><ele>350.5</ele><time>2026-04-29T15:31:17.001Z</time></trkpt><trkpt lat="41.84158427900416" lon="19.872169759540903"><ele>351.75</ele><time>2026-04-29T15:31:18.001Z</time></trkpt><trkpt lat="41.841723590595116" lon="19.8721745983894"><ele>353.0</ele><time>2026-04-29T15:31:19.001Z</time></trkpt><trkpt lat="41.8418613225279" lon="19.87215985062149"><ele>355.75</ele><time>2026-04-29T15:31:20.001Z</time></trkpt><trkpt lat="41.84199278357989" lon="19.872132549044473"><ele>358.5</ele><time>2026-04-29T15:31:21.001Z</time></trkpt><trkpt lat="41.84213922562311" lon="19.87210543966322"><ele>361.25</ele><time>2026-04-29T15:31:22Z</time></trkpt><trkpt lat="41.84227842240591" lon="19.872085553836"><ele>364.0</ele><time>2026-04-29T15:31:23Z</time></trkpt><trkpt lat="41.84242613397015" lon="19.87206854740245"><ele>364.0</ele><time>2026-04-29T15:31:24Z</time></trkpt><trkpt lat="41.842573556900966" lon="19.872059728531934"><ele>364.0</ele><time>2026-04-29T15:31:25Z</time></trkpt><trkpt lat="41.84271664799621" lon="19.872065911339426"><ele>364.0</ele><time>2026-04-29T15:31:26Z</time></trkpt><trkpt lat="41.84284732041414" lon="19.872122153448565"><ele>364.0</ele><time>2026-04-29T15:31:27Z</time></trkpt><trkpt lat="41.842974441903614" lon="19.872133847941516"><ele>364.0</ele><time>2026-04-29T15:31:28Z</time></trkpt><trkpt lat="41.84309294333168" lon="19.87217126944799"><ele>364.0</ele><time>2026-04-29T15:31:29Z</time></trkpt><trkpt lat="41.843202992135645" lon="19.8721817901991"><ele>364.0</ele><time>2026-04-29T15:31:30Z</time></trkpt><trkpt lat="41.84330301585046" lon="19.872169475096126"><ele>364.0</ele><time>2026-04-29T15:31:31Z</time></trkpt><trkpt lat="41.84340489356116" lon="19.872134826622652"><ele>364.0</ele><time>2026-04-29T15:31:32Z</time></trkpt><trkpt lat="41.843506184433146" lon="19.87208737815478"><ele>363.79999999999995</ele><time>2026-04-29T15:31:33Z</time></trkpt><trkpt lat="41.8436001972009" lon="19.872039425541963"><ele>363.59999999999997</ele><time>2026-04-29T15:31:34Z</time></trkpt><trkpt lat="41.84369518375488" lon="19.87203804335657"><ele>363.4</ele><time>2026-04-29T15:31:35Z</time></trkpt><trkpt lat="41.843787516712084" lon="19.872039291687333"><ele>363.2</ele><time>2026-04-29T15:31:36Z</time></trkpt><trkpt lat="41.843892143790505" lon="19.87203836800967"><ele>363.0</ele><time>2026-04-29T15:31:37Z</time></trkpt><trkpt lat="41.84400017416205" lon="19.872057067494456"><ele>363.0</ele><time>2026-04-29T15:31:38Z</time></trkpt><trkpt lat="41.84410876315574" lon="19.872063331562856"><ele>363.0</ele><time>2026-04-29T15:31:39Z</time></trkpt><trkpt lat="41.84421787567926" lon="19.87210633837732"><ele>363.0</ele><time>2026-04-29T15:31:40Z</time></trkpt><trkpt lat="41.8443054577717" lon="19.87215043420861"><ele>363.0</ele><time>2026-04-29T15:31:41Z</time></trkpt><trkpt lat="41.84439312481802" lon="19.87219307280575"><ele>363.0</ele><time>2026-04-29T15:31:42Z</time></trkpt><trkpt lat="41.84448377228298" lon="19.87226555269868"><ele>363.25</ele><time>2026-04-29T15:31:43Z</time></trkpt><trkpt lat="41.84459267499115" lon="19.872318089562363"><ele>363.5</ele><time>2026-04-29T15:31:44Z</time></trkpt><trkpt lat="41.844704517344844" lon="19.872350321530444"><ele>363.75</ele><time>2026-04-29T15:31:45Z</time></trkpt><trkpt lat="41.844817088765474" lon="19.872376561808775"><ele>364.0</ele><time>2026-04-29T15:31:46Z</time></trkpt><trkpt lat="41.844939149143485" lon="19.87241693389391"><ele>364.0</ele><time>2026-04-29T15:31:47Z</time></trkpt><trkpt lat="41.84505186136998" lon="19.872472849823204"><ele>364.0</ele><time>2026-04-29T15:31:48Z</time></trkpt><trkpt lat="41.845144139815694" lon="19.872532869673787"><ele>364.0</ele><time>2026-04-29T15:31:49Z</time></trkpt><trkpt lat="41.845214877822215" lon="19.872600457598754"><ele>364.0</ele><time>2026-04-29T15:31:50Z</time></trkpt><trkpt lat="41.84527344399825" lon="19.872672654732128"><ele>364.0</ele><time>2026-04-29T15:31:51Z</time></trkpt><trkpt lat="41.8453383087548" lon="19.872739971832164"><ele>363.79999999999995</ele><time>2026-04-29T15:31:52Z</time></trkpt><trkpt lat="41.84541586282406" lon="19.87281486403476"><ele>363.59999999999997</ele><time>2026-04-29T15:31:53Z</time></trkpt><trkpt lat="41.84550836609255" lon="19.872891740555"><ele>363.4</ele><time>2026-04-29T15:31:54Z</time></trkpt><trkpt lat="41.8456079537292" lon="19.872951838895105"><ele>363.2</ele><time>2026-04-29T15:31:55Z</time></trkpt><trkpt lat="41.845711747167485" lon="19.87300448232421"><ele>363.0</ele><time>2026-04-29T15:31:56Z</time></trkpt><trkpt lat="41.8458147321148" lon="19.873078297604522"><ele>363.0</ele><time>2026-04-29T15:31:57Z</time></trkpt><trkpt lat="41.84589830476771" lon="19.873164695659668"><ele>363.0</ele><time>2026-04-29T15:31:58Z</time></trkpt><trkpt lat="41.84596313019969" lon="19.873254673557653"><ele>363.0</ele><time>2026-04-29T15:31:59Z</time></trkpt><trkpt lat="41.84601296693321" lon="19.873344462328294"><ele>363.0</ele><time>2026-04-29T15:32:00Z</time></trkpt><trkpt lat="41.84604724025071" lon="19.873444180564594"><ele>363.0</ele><time>2026-04-29T15:32:01Z</time></trkpt><trkpt lat="41.846076175868824" lon="19.87356262352389"><ele>366.0</ele><time>2026-04-29T15:32:02Z</time></trkpt><trkpt lat="41.84609842045433" lon="19.87369933849951"><ele>369.0</ele><time>2026-04-29T15:32:03Z</time></trkpt><trkpt lat="41.846114536341304" lon="19.873843633778627"><ele>372.0</ele><time>2026-04-29T15:32:04Z</time></trkpt><trkpt lat="41.84613798476317" lon="19.874006919786844"><ele>375.0</ele><time>2026-04-29T15:32:05Z</time></trkpt><trkpt lat="41.84616895733549" lon="19.874168297135142"><ele>374.6666666666667</ele><time>2026-04-29T15:32:06Z</time></trkpt><trkpt lat="41.84619956446746" lon="19.874299583959296"><ele>374.3333333333333</ele><time>2026-04-29T15:32:07Z</time></trkpt><trkpt lat="41.846233189635534" lon="19.874414431463556"><ele>374.0</ele><time>2026-04-29T15:32:08Z</time></trkpt><trkpt lat="41.84627151535794" lon="19.874498282655768"><ele>373.66666666666663</ele><time>2026-04-29T15:32:09Z</time></trkpt><trkpt lat="41.84632096587" lon="19.874550582000133"><ele>373.3333333333333</ele><time>2026-04-29T15:32:10Z</time></trkpt><trkpt lat="41.84637119353143" lon="19.87460836276922"><ele>373.0</ele><time>2026-04-29T15:32:11Z</time></trkpt><trkpt lat="41.846467495255816" lon="19.874608520515554"><ele>373.0</ele><time>2026-04-29T15:32:12Z</time></trkpt><trkpt lat="41.84656834807982" lon="19.874615673946185"><ele>373.0</ele><time>2026-04-29T15:32:13Z</time></trkpt><trkpt lat="41.8466807619618" lon="19.874616221552984"><ele>373.0</ele><time>2026-04-29T15:32:14Z</time></trkpt><trkpt lat="41.8468057570068" lon="19.87462750114658"><ele>373.0</ele><time>2026-04-29T15:32:15Z</time></trkpt><trkpt lat="41.84692297817802" lon="19.87465156935858"><ele>373.4</ele><time>2026-04-29T15:32:16Z</time></trkpt><trkpt lat="41.84702079527112" lon="19.874685610699864"><ele>373.79999999999995</ele><time>2026-04-29T15:32:17Z</time></trkpt><trkpt lat="41.84709174276559" lon="19.874730102461054"><ele>374.2</ele><time>2026-04-29T15:32:18Z</time></trkpt><trkpt lat="41.84715657252865" lon="19.874792139830067"><ele>374.6</ele><time>2026-04-29T15:32:19Z</time></trkpt><trkpt lat="41.847229321794295" lon="19.87486438152731"><ele>375.0</ele><time>2026-04-29T15:32:20Z</time></trkpt><trkpt lat="41.84731247330466" lon="19.874950730334934"><ele>375.0</ele><time>2026-04-29T15:32:21Z</time></trkpt><trkpt lat="41.847398780744406" lon="19.875050214744295"><ele>375.0</ele><time>2026-04-29T15:32:22Z</time></trkpt><trkpt lat="41.847483086849586" lon="19.875140649682084"><ele>375.0</ele><time>2026-04-29T15:32:23Z</time></trkpt><trkpt lat="41.8475576469243" lon="19.875223040388878"><ele>375.0</ele><time>2026-04-29T15:32:24Z</time></trkpt><trkpt lat="41.84764088079052" lon="19.875308053253796"><ele>375.0</ele><time>2026-04-29T15:32:25Z</time></trkpt><trkpt lat="41.84771900447162" lon="19.875388658684475"><ele>374.2</ele><time>2026-04-29T15:32:26Z</time></trkpt><trkpt lat="41.847794063016316" lon="19.875473000597445"><ele>373.4</ele><time>2026-04-29T15:32:27Z</time></trkpt><trkpt lat="41.84786246674598" lon="19.875565004104512"><ele>372.6</ele><time>2026-04-29T15:32:28.001Z</time></trkpt><trkpt lat="41.847923942774976" lon="19.875657527318992"><ele>371.8</ele><time>2026-04-29T15:32:29.001Z</time></trkpt><trkpt lat="41.84798091920306" lon="19.875748587695153"><ele>371.0</ele><time>2026-04-29T15:32:30.001Z</time></trkpt><trkpt lat="41.84804597251147" lon="19.875829339698782"><ele>371.0</ele><time>2026-04-29T15:32:31.001Z</time></trkpt><trkpt lat="41.84811998578191" lon="19.875884180351633"><ele>371.0</ele><time>2026-04-29T15:32:32.001Z</time></trkpt><trkpt lat="41.848204435213525" lon="19.875927253530207"><ele>371.0</ele><time>2026-04-29T15:32:33.001Z</time></trkpt><trkpt lat="41.84830151939144" lon="19.875971608651895"><ele>371.0</ele><time>2026-04-29T15:32:34.001Z</time></trkpt><trkpt lat="41.848387100302055" lon="19.87600842898363"><ele>371.0</ele><time>2026-04-29T15:32:35.001Z</time></trkpt><trkpt lat="41.848473250013484" lon="19.876037367200194"><ele>371.0</ele><time>2026-04-29T15:32:36.001Z</time></trkpt><trkpt lat="41.848553504705485" lon="19.876049014914507"><ele>371.0</ele><time>2026-04-29T15:32:37.001Z</time></trkpt><trkpt lat="41.84863211085327" lon="19.876071509604877"><ele>371.0</ele><time>2026-04-29T15:32:38.001Z</time></trkpt><trkpt lat="41.84870861901839" lon="19.876023797822032"><ele>371.0</ele><time>2026-04-29T15:32:39.001Z</time></trkpt><trkpt lat="41.84877731787881" lon="19.875981132758454"><ele>371.0</ele><time>2026-04-29T15:32:40.001Z</time></trkpt><trkpt lat="41.84886655283681" lon="19.87592224217872"><ele>371.0</ele><time>2026-04-29T15:32:41.001Z</time></trkpt><trkpt lat="41.84897137100982" lon="19.875858607686514"><ele>371.0</ele><time>2026-04-29T15:32:42.001Z</time></trkpt><trkpt lat="41.84908003653741" lon="19.875781420716528"><ele>371.0</ele><time>2026-04-29T15:32:43.001Z</time></trkpt><trkpt lat="41.849177622067764" lon="19.87570886895469"><ele>371.0</ele><time>2026-04-29T15:32:44.001Z</time></trkpt><trkpt lat="41.84926141251316" lon="19.875635740723194"><ele>371.0</ele><time>2026-04-29T15:32:45.001Z</time></trkpt><trkpt lat="41.849341926614734" lon="19.87555076016002"><ele>371.0</ele><time>2026-04-29T15:32:46.001Z</time></trkpt><trkpt lat="41.84940981843849" lon="19.875465896427368"><ele>369.83333333333337</ele><time>2026-04-29T15:32:47.001Z</time></trkpt><trkpt lat="41.849460982238696" lon="19.875391279547483"><ele>368.6666666666667</ele><time>2026-04-29T15:32:48.001Z</time></trkpt><trkpt lat="41.84950900349104" lon="19.875333706082078"><ele>367.5</ele><time>2026-04-29T15:32:49.001Z</time></trkpt><trkpt lat="41.849570616882986" lon="19.875288633653017"><ele>366.3333333333333</ele><time>2026-04-29T15:32:50.001Z</time></trkpt><trkpt lat="41.84964388881707" lon="19.87525627487909"><ele>365.16666666666663</ele><time>2026-04-29T15:32:51.001Z</time></trkpt><trkpt lat="41.849740633847524" lon="19.87523510428692"><ele>364.0</ele><time>2026-04-29T15:32:52.001Z</time></trkpt><trkpt lat="41.849856269145334" lon="19.875225536738263"><ele>364.0</ele><time>2026-04-29T15:32:53.001Z</time></trkpt><trkpt lat="41.84997451966159" lon="19.87523028796916"><ele>364.0</ele><time>2026-04-29T15:32:54.001Z</time></trkpt><trkpt lat="41.85007961731926" lon="19.875222096083444"><ele>364.0</ele><time>2026-04-29T15:32:55.001Z</time></trkpt><trkpt lat="41.85018067027828" lon="19.875200570289124"><ele>364.0</ele><time>2026-04-29T15:32:56.001Z</time></trkpt><trkpt lat="41.850284897409104" lon="19.87516899612922"><ele>364.0</ele><time>2026-04-29T15:32:57.001Z</time></trkpt><trkpt lat="41.850395207825976" lon="19.87512595255902"><ele>361.5</ele><time>2026-04-29T15:32:58.001Z</time></trkpt><trkpt lat="41.85050803053953" lon="19.875064076002225"><ele>359.0</ele><time>2026-04-29T15:32:59.001Z</time></trkpt><trkpt lat="41.85062227317928" lon="19.87498240360495"><ele>356.5</ele><time>2026-04-29T15:33:00.001Z</time></trkpt><trkpt lat="41.85073299165377" lon="19.87488654519715"><ele>354.0</ele><time>2026-04-29T15:33:01.001Z</time></trkpt><trkpt lat="41.85082961627066" lon="19.87480524919462"><ele>354.0</ele><time>2026-04-29T15:33:02.001Z</time></trkpt><trkpt lat="41.850917205364794" lon="19.87473192999693"><ele>354.0</ele><time>2026-04-29T15:33:03.001Z</time></trkpt><trkpt lat="41.85099550813015" lon="19.874680139680112"><ele>354.0</ele><time>2026-04-29T15:33:04.001Z</time></trkpt><trkpt lat="41.85107926780132" lon="19.874653954203993"><ele>354.0</ele><time>2026-04-29T15:33:05.001Z</time></trkpt><trkpt lat="41.85118430983773" lon="19.87463743687548"><ele>354.0</ele><time>2026-04-29T15:33:06.001Z</time></trkpt><trkpt lat="41.85128446979576" lon="19.874620679956795"><ele>352.6</ele><time>2026-04-29T15:33:07.001Z</time></trkpt><trkpt lat="41.85138066940979" lon="19.874598362712504"><ele>351.2</ele><time>2026-04-29T15:33:08.001Z</time></trkpt><trkpt lat="41.851466612326256" lon="19.87456391664069"><ele>349.8</ele><time>2026-04-29T15:33:09.001Z</time></trkpt><trkpt lat="41.85154145294772" lon="19.87451358538687"><ele>348.40000000000003</ele><time>2026-04-29T15:33:10.001Z</time></trkpt><trkpt lat="41.85161874473037" lon="19.874447028228715"><ele>347.0</ele><time>2026-04-29T15:33:11.001Z</time></trkpt><trkpt lat="41.85170073040159" lon="19.87438125251987"><ele>346.33333333333337</ele><time>2026-04-29T15:33:12.001Z</time></trkpt><trkpt lat="41.851799031076965" lon="19.874328222701223"><ele>345.6666666666667</ele><time>2026-04-29T15:33:13.001Z</time></trkpt><trkpt lat="41.85190111432819" lon="19.874299665439953"><ele>345.0</ele><time>2026-04-29T15:33:14.001Z</time></trkpt><trkpt lat="41.85198796133967" lon="19.874287713713912"><ele>344.3333333333333</ele><time>2026-04-29T15:33:15.001Z</time></trkpt><trkpt lat="41.85205832384743" lon="19.874264768507626"><ele>343.66666666666663</ele><time>2026-04-29T15:33:16.001Z</time></trkpt><trkpt lat="41.8521180142533" lon="19.874223793006017"><ele>343.0</ele><time>2026-04-29T15:33:17.001Z</time></trkpt><trkpt lat="41.85217302949473" lon="19.87415898011685"><ele>343.0</ele><time>2026-04-29T15:33:18.001Z</time></trkpt><trkpt lat="41.85223923974469" lon="19.874062465848475"><ele>343.0</ele><time>2026-04-29T15:33:19.001Z</time></trkpt><trkpt lat="41.85229894702348" lon="19.87394997837719"><ele>343.0</ele><time>2026-04-29T15:33:20.001Z</time></trkpt><trkpt lat="41.852346860520534" lon="19.87383943594611"><ele>343.0</ele><time>2026-04-29T15:33:21.001Z</time></trkpt><trkpt lat="41.85239584040445" lon="19.87373669103429"><ele>343.0</ele><time>2026-04-29T15:33:22.001Z</time></trkpt><trkpt lat="41.852444398164764" lon="19.873641142771866"><ele>343.0</ele><time>2026-04-29T15:33:23.001Z</time></trkpt><trkpt lat="41.852501148974085" lon="19.87355609487139"><ele>343.0</ele><time>2026-04-29T15:33:24.001Z</time></trkpt><trkpt lat="41.85255885805887" lon="19.873478737215837"><ele>343.0</ele><time>2026-04-29T15:33:25.001Z</time></trkpt><trkpt lat="41.85261626464204" lon="19.873417144213285"><ele>343.0</ele><time>2026-04-29T15:33:26.001Z</time></trkpt><trkpt lat="41.85268498895826" lon="19.873374806447952"><ele>343.0</ele><time>2026-04-29T15:33:27.001Z</time></trkpt><trkpt lat="41.85276846137447" lon="19.873341037977635"><ele>343.0</ele><time>2026-04-29T15:33:28Z</time></trkpt><trkpt lat="41.85284146135953" lon="19.873312250536813"><ele>343.14285714285717</ele><time>2026-04-29T15:33:29Z</time></trkpt><trkpt lat="41.85290349425968" lon="19.873279227345567"><ele>343.2857142857143</ele><time>2026-04-29T15:33:30Z</time></trkpt><trkpt lat="41.85296397445459" lon="19.8732547040024"><ele>343.42857142857144</ele><time>2026-04-29T15:33:31Z</time></trkpt><trkpt lat="41.85302538246786" lon="19.87323386010993"><ele>343.57142857142856</ele><time>2026-04-29T15:33:32Z</time></trkpt><trkpt lat="41.85309052500628" lon="19.873206912034753"><ele>343.7142857142857</ele><time>2026-04-29T15:33:33Z</time></trkpt><trkpt lat="41.853150880076825" lon="19.873174079457588"><ele>343.8571428571429</ele><time>2026-04-29T15:33:34Z</time></trkpt><trkpt lat="41.85325954341697" lon="19.87311083287085"><ele>344.0</ele><time>2026-04-29T15:33:36Z</time></trkpt><trkpt lat="41.85331987245088" lon="19.873060877223995"><ele>344.0</ele><time>2026-04-29T15:33:37Z</time></trkpt><trkpt lat="41.853398693636535" lon="19.873016321041852"><ele>344.0</ele><time>2026-04-29T15:33:38Z</time></trkpt><trkpt lat="41.8534175439899" lon="19.872863705441883"><ele>344.0</ele><time>2026-04-29T15:33:39Z</time></trkpt><trkpt lat="41.8534657996852" lon="19.872777839160634"><ele>344.0</ele><time>2026-04-29T15:33:40Z</time></trkpt><trkpt lat="41.85350360919121" lon="19.87269006569641"><ele>344.0</ele><time>2026-04-29T15:33:41Z</time></trkpt><trkpt lat="41.85354658550688" lon="19.872604568404963"><ele>344.0</ele><time>2026-04-29T15:33:42Z</time></trkpt><trkpt lat="41.85360047270249" lon="19.872514002579916"><ele>344.6</ele><time>2026-04-29T15:33:43Z</time></trkpt><trkpt lat="41.853656765929315" lon="19.87243284659432"><ele>345.2</ele><time>2026-04-29T15:33:44Z</time></trkpt><trkpt lat="41.853719711207496" lon="19.872340059701937"><ele>345.8</ele><time>2026-04-29T15:33:45Z</time></trkpt><trkpt lat="41.85378322431063" lon="19.87227356518542"><ele>346.40000000000003</ele><time>2026-04-29T15:33:46Z</time></trkpt><trkpt lat="41.85379895029023" lon="19.872141862263945"><ele>347.0</ele><time>2026-04-29T15:33:47Z</time></trkpt><trkpt lat="41.853822495854416" lon="19.872009431627525"><ele>347.0</ele><time>2026-04-29T15:33:48Z</time></trkpt><trkpt lat="41.85383494963489" lon="19.871889005674905"><ele>347.0</ele><time>2026-04-29T15:33:49Z</time></trkpt><trkpt lat="41.85384587557758" lon="19.871780406650455"><ele>347.0</ele><time>2026-04-29T15:33:50Z</time></trkpt><trkpt lat="41.85385610731855" lon="19.87167603990858"><ele>347.0</ele><time>2026-04-29T15:33:51Z</time></trkpt><trkpt lat="41.85386700848876" lon="19.871582287851194"><ele>347.0</ele><time>2026-04-29T15:33:52Z</time></trkpt><trkpt lat="41.8538766070668" lon="19.871477965162594"><ele>347.0</ele><time>2026-04-29T15:33:53Z</time></trkpt><trkpt lat="41.85387626696917" lon="19.87138087614835"><ele>346.5</ele><time>2026-04-29T15:33:54Z</time></trkpt><trkpt lat="41.85385598957665" lon="19.871291135118742"><ele>346.0</ele><time>2026-04-29T15:33:55Z</time></trkpt><trkpt lat="41.85381165520909" lon="19.871212064682435"><ele>345.5</ele><time>2026-04-29T15:33:56Z</time></trkpt><trkpt lat="41.85374424389683" lon="19.871139408361785"><ele>345.0</ele><time>2026-04-29T15:33:57Z</time></trkpt><trkpt lat="41.85365456331717" lon="19.87107910645032"><ele>344.5</ele><time>2026-04-29T15:33:58Z</time></trkpt><trkpt lat="41.853563192456924" lon="19.871020360377262"><ele>344.0</ele><time>2026-04-29T15:33:59Z</time></trkpt><trkpt lat="41.853478265369574" lon="19.87096193369671"><ele>341.6666666666667</ele><time>2026-04-29T15:34:00Z</time></trkpt><trkpt lat="41.85340547176033" lon="19.870907904872485"><ele>339.33333333333337</ele><time>2026-04-29T15:34:01Z</time></trkpt><trkpt lat="41.85334047434033" lon="19.8708526810257"><ele>337.0</ele><time>2026-04-29T15:34:02Z</time></trkpt><trkpt lat="41.85328604128949" lon="19.870789248359895"><ele>334.6666666666667</ele><time>2026-04-29T15:34:03Z</time></trkpt><trkpt lat="41.8532400859078" lon="19.870707838306917"><ele>332.3333333333333</ele><time>2026-04-29T15:34:04Z</time></trkpt><trkpt lat="41.853208364791605" lon="19.870606474848724"><ele>330.0</ele><time>2026-04-29T15:34:05Z</time></trkpt><trkpt lat="41.85320863687153" lon="19.870482525732772"><ele>330.0</ele><time>2026-04-29T15:34:06Z</time></trkpt><trkpt lat="41.85321234096977" lon="19.870370595615196"><ele>330.0</ele><time>2026-04-29T15:34:07Z</time></trkpt><trkpt lat="41.85323105216778" lon="19.870257323864607"><ele>330.0</ele><time>2026-04-29T15:34:08Z</time></trkpt><trkpt lat="41.85323566166158" lon="19.87014695784368"><ele>330.0</ele><time>2026-04-29T15:34:09Z</time></trkpt><trkpt lat="41.85320497675117" lon="19.87003581340744"><ele>330.0</ele><time>2026-04-29T15:34:10Z</time></trkpt><trkpt lat="41.85318932700006" lon="19.869932802515653"><ele>330.0</ele><time>2026-04-29T15:34:11Z</time></trkpt><trkpt lat="41.85314909882062" lon="19.869833862296392"><ele>330.3333333333333</ele><time>2026-04-29T15:34:12Z</time></trkpt><trkpt lat="41.8531118627242" lon="19.869720843543735"><ele>330.6666666666667</ele><time>2026-04-29T15:34:13Z</time></trkpt><trkpt lat="41.853048345223556" lon="19.869642814649236"><ele>331.0</ele><time>2026-04-29T15:34:14Z</time></trkpt><trkpt lat="41.85301160383308" lon="19.869547267167473"><ele>331.33333333333337</ele><time>2026-04-29T15:34:15Z</time></trkpt><trkpt lat="41.8529118336833" lon="19.869514147623455"><ele>331.6666666666667</ele><time>2026-04-29T15:34:16Z</time></trkpt><trkpt lat="41.85283036979574" lon="19.86946867934329"><ele>332.0</ele><time>2026-04-29T15:34:17Z</time></trkpt><trkpt lat="41.85276743697565" lon="19.869402075744"><ele>332.0</ele><time>2026-04-29T15:34:18Z</time></trkpt><trkpt lat="41.85272551444229" lon="19.869297533649664"><ele>332.0</ele><time>2026-04-29T15:34:19Z</time></trkpt><trkpt lat="41.85270332974795" lon="19.86917863865711"><ele>332.0</ele><time>2026-04-29T15:34:20Z</time></trkpt><trkpt lat="41.852738105652136" lon="19.86907055958809"><ele>332.0</ele><time>2026-04-29T15:34:21Z</time></trkpt><trkpt lat="41.85276141713045" lon="19.86895689516962"><ele>332.0</ele><time>2026-04-29T15:34:22.001Z</time></trkpt><trkpt lat="41.852784457833394" lon="19.868847006253823"><ele>332.0</ele><time>2026-04-29T15:34:23.001Z</time></trkpt><trkpt lat="41.852756981475416" lon="19.868734705660135"><ele>331.6</ele><time>2026-04-29T15:34:24.001Z</time></trkpt><trkpt lat="41.85271462264171" lon="19.868647346137426"><ele>331.20000000000005</ele><time>2026-04-29T15:34:25.001Z</time></trkpt><trkpt lat="41.85265280761129" lon="19.8685552010005"><ele>330.8</ele><time>2026-04-29T15:34:26.001Z</time></trkpt><trkpt lat="41.85258302566436" lon="19.868453208511767"><ele>330.4</ele><time>2026-04-29T15:34:27.001Z</time></trkpt><trkpt lat="41.852515116896924" lon="19.868347846344292"><ele>330.0</ele><time>2026-04-29T15:34:28.001Z</time></trkpt><trkpt lat="41.852440960928014" lon="19.868266538887497"><ele>326.0</ele><time>2026-04-29T15:34:29.001Z</time></trkpt><trkpt lat="41.85237383683397" lon="19.868203325125403"><ele>322.0</ele><time>2026-04-29T15:34:30.001Z</time></trkpt><trkpt lat="41.85231382121984" lon="19.8681272344818"><ele>318.0</ele><time>2026-04-29T15:34:31.001Z</time></trkpt><trkpt lat="41.85226240631954" lon="19.868035095116426"><ele>314.0</ele><time>2026-04-29T15:34:32.001Z</time></trkpt><trkpt lat="41.8522074333787" lon="19.867921622498464"><ele>310.0</ele><time>2026-04-29T15:34:33.001Z</time></trkpt><trkpt lat="41.85214806872659" lon="19.867793026949144"><ele>310.0</ele><time>2026-04-29T15:34:34.001Z</time></trkpt><trkpt lat="41.85212258123852" lon="19.867665115891974"><ele>310.0</ele><time>2026-04-29T15:34:35.001Z</time></trkpt><trkpt lat="41.85208899442935" lon="19.867540694921274"><ele>310.0</ele><time>2026-04-29T15:34:36.001Z</time></trkpt><trkpt lat="41.852055025442574" lon="19.867411298659324"><ele>310.0</ele><time>2026-04-29T15:34:37.001Z</time></trkpt><trkpt lat="41.852022444546236" lon="19.86728858394439"><ele>310.0</ele><time>2026-04-29T15:34:38.001Z</time></trkpt><trkpt lat="41.851981443716596" lon="19.867166459500552"><ele>309.4</ele><time>2026-04-29T15:34:39.001Z</time></trkpt><trkpt lat="41.851937037676876" lon="19.86706232988548"><ele>308.8</ele><time>2026-04-29T15:34:40.001Z</time></trkpt><trkpt lat="41.8518778328429" lon="19.86697415174166"><ele>308.2</ele><time>2026-04-29T15:34:41.001Z</time></trkpt><trkpt lat="41.85178820198088" lon="19.866901894864395"><ele>307.6</ele><time>2026-04-29T15:34:42.001Z</time></trkpt><trkpt lat="41.85170842485485" lon="19.866827147104125"><ele>307.0</ele><time>2026-04-29T15:34:43.001Z</time></trkpt><trkpt lat="41.85163894403089" lon="19.866762047207132"><ele>305.57142857142856</ele><time>2026-04-29T15:34:44.001Z</time></trkpt><trkpt lat="41.85159912070945" lon="19.866693436148488"><ele>304.1428571428571</ele><time>2026-04-29T15:34:45.001Z</time></trkpt><trkpt lat="41.85155791574404" lon="19.86662353401301"><ele>302.7142857142857</ele><time>2026-04-29T15:34:46.001Z</time></trkpt><trkpt lat="41.851520222562684" lon="19.866553139384916"><ele>301.2857142857143</ele><time>2026-04-29T15:34:47.001Z</time></trkpt><trkpt lat="41.8515402326009" lon="19.86642607910347"><ele>299.8571428571429</ele><time>2026-04-29T15:34:49.001Z</time></trkpt><trkpt lat="41.85161751585905" lon="19.8663840847437"><ele>298.42857142857144</ele><time>2026-04-29T15:34:51.001Z</time></trkpt><trkpt lat="41.85167916339519" lon="19.866414736821124"><ele>297.0</ele><time>2026-04-29T15:34:52.001Z</time></trkpt><trkpt lat="41.85176212386961" lon="19.86647385370088"><ele>295.0</ele><time>2026-04-29T15:34:53.001Z</time></trkpt><trkpt lat="41.85184851788788" lon="19.866583417111748"><ele>293.0</ele><time>2026-04-29T15:34:54.001Z</time></trkpt><trkpt lat="41.851951872080896" lon="19.866667837313617"><ele>291.0</ele><time>2026-04-29T15:34:55.001Z</time></trkpt><trkpt lat="41.852048944459085" lon="19.866750303092132"><ele>289.0</ele><time>2026-04-29T15:34:56.001Z</time></trkpt><trkpt lat="41.85213519627337" lon="19.86683437582444"><ele>292.59999999999997</ele><time>2026-04-29T15:34:57.001Z</time></trkpt><trkpt lat="41.85222402730263" lon="19.866877652868755"><ele>296.2</ele><time>2026-04-29T15:34:58.001Z</time></trkpt><trkpt lat="41.8523148602445" lon="19.866922034552353"><ele>299.79999999999995</ele><time>2026-04-29T15:34:59.001Z</time></trkpt><trkpt lat="41.852424433986705" lon="19.86692225639067"><ele>303.4</ele><time>2026-04-29T15:35:00.001Z</time></trkpt><trkpt lat="41.85251448841296" lon="19.866931122027466"><ele>307.0</ele><time>2026-04-29T15:35:01.001Z</time></trkpt><trkpt lat="41.85259609617199" lon="19.866922405407458"><ele>305.5</ele><time>2026-04-29T15:35:02.001Z</time></trkpt><trkpt lat="41.85267487258587" lon="19.866921168328084"><ele>304.0</ele><time>2026-04-29T15:35:03.001Z</time></trkpt><trkpt lat="41.85276578899146" lon="19.866884917657636"><ele>302.5</ele><time>2026-04-29T15:35:04.001Z</time></trkpt><trkpt lat="41.852842297649055" lon="19.86682700097002"><ele>301.0</ele><time>2026-04-29T15:35:05.001Z</time></trkpt><trkpt lat="41.85290625242737" lon="19.866788005693564"><ele>299.5</ele><time>2026-04-29T15:35:06.001Z</time></trkpt><trkpt lat="41.852970900136754" lon="19.86678809951894"><ele>298.0</ele><time>2026-04-29T15:35:07.001Z</time></trkpt><trkpt lat="41.85303651751931" lon="19.866814547511694"><ele>298.0</ele><time>2026-04-29T15:35:08.001Z</time></trkpt><trkpt lat="41.8531170782368" lon="19.866869773900397"><ele>298.0</ele><time>2026-04-29T15:35:09.001Z</time></trkpt><trkpt lat="41.85319502287678" lon="19.866960169164066"><ele>298.0</ele><time>2026-04-29T15:35:10.001Z</time></trkpt><trkpt lat="41.85326636441931" lon="19.867021231114656"><ele>298.0</ele><time>2026-04-29T15:35:11.001Z</time></trkpt><trkpt lat="41.853321203477876" lon="19.867068431567045"><ele>298.0</ele><time>2026-04-29T15:35:12.001Z</time></trkpt><trkpt lat="41.853387351898306" lon="19.867101708374697"><ele>298.0</ele><time>2026-04-29T15:35:13.001Z</time></trkpt><trkpt lat="41.85345610280869" lon="19.86710379169811"><ele>296.4</ele><time>2026-04-29T15:35:14.001Z</time></trkpt><trkpt lat="41.8535240664731" lon="19.866994121858088"><ele>294.8</ele><time>2026-04-29T15:35:15.001Z</time></trkpt><trkpt lat="41.85359558487585" lon="19.866992917028238"><ele>293.2</ele><time>2026-04-29T15:35:16.001Z</time></trkpt><trkpt lat="41.85369065646096" lon="19.867062311976827"><ele>291.6</ele><time>2026-04-29T15:35:18.001Z</time></trkpt><trkpt lat="41.853768714514175" lon="19.867128046795564"><ele>290.0</ele><time>2026-04-29T15:35:19.001Z</time></trkpt><trkpt lat="41.85385194840332" lon="19.86718788479775"><ele>290.0</ele><time>2026-04-29T15:35:20.001Z</time></trkpt><trkpt lat="41.85391320932667" lon="19.86722579886626"><ele>290.0</ele><time>2026-04-29T15:35:21.001Z</time></trkpt><trkpt lat="41.8540511800402" lon="19.867235206327663"><ele>290.0</ele><time>2026-04-29T15:35:23.001Z</time></trkpt><trkpt lat="41.85413028250525" lon="19.867145884834546"><ele>290.0</ele><time>2026-04-29T15:35:24.001Z</time></trkpt><trkpt lat="41.85419068066185" lon="19.867082711134024"><ele>290.0</ele><time>2026-04-29T15:35:25.001Z</time></trkpt><trkpt lat="41.85420472146055" lon="19.86692514925321"><ele>290.0</ele><time>2026-04-29T15:35:26.001Z</time></trkpt><trkpt lat="41.85423421972505" lon="19.866809837460355"><ele>290.0</ele><time>2026-04-29T15:35:27.001Z</time></trkpt><trkpt lat="41.854277568601084" lon="19.866730575209665"><ele>290.0</ele><time>2026-04-29T15:35:28.001Z</time></trkpt><trkpt lat="41.85434114711653" lon="19.866695490050468"><ele>290.0</ele><time>2026-04-29T15:35:29.001Z</time></trkpt><trkpt lat="41.854436641699856" lon="19.86667574141718"><ele>290.0</ele><time>2026-04-29T15:35:30.001Z</time></trkpt><trkpt lat="41.8545364691469" lon="19.866719910347964"><ele>290.0</ele><time>2026-04-29T15:35:31.001Z</time></trkpt><trkpt lat="41.85463640581455" lon="19.866727211267097"><ele>288.1666666666667</ele><time>2026-04-29T15:35:32.001Z</time></trkpt><trkpt lat="41.854736471786254" lon="19.866714748922572"><ele>286.33333333333337</ele><time>2026-04-29T15:35:33.001Z</time></trkpt><trkpt lat="41.85480561683163" lon="19.86670103557565"><ele>284.5</ele><time>2026-04-29T15:35:34.001Z</time></trkpt><trkpt lat="41.854862515217626" lon="19.866626338377934"><ele>282.6666666666667</ele><time>2026-04-29T15:35:35.001Z</time></trkpt><trkpt lat="41.85490002714166" lon="19.8665265472726"><ele>280.8333333333333</ele><time>2026-04-29T15:35:36.001Z</time></trkpt><trkpt lat="41.85490617233797" lon="19.866410920796902"><ele>279.0</ele><time>2026-04-29T15:35:37.001Z</time></trkpt><trkpt lat="41.854841171172794" lon="19.86628100858386"><ele>279.0</ele><time>2026-04-29T15:35:38.001Z</time></trkpt><trkpt lat="41.85482656235574" lon="19.866132567892073"><ele>279.0</ele><time>2026-04-29T15:35:39.001Z</time></trkpt><trkpt lat="41.85480335057527" lon="19.86600423290688"><ele>279.0</ele><time>2026-04-29T15:35:40.001Z</time></trkpt><trkpt lat="41.85477927176336" lon="19.865868395216456"><ele>279.0</ele><time>2026-04-29T15:35:41.001Z</time></trkpt><trkpt lat="41.85475967812012" lon="19.86575381063456"><ele>279.0</ele><time>2026-04-29T15:35:42.001Z</time></trkpt><trkpt lat="41.85473285479984" lon="19.865646422473542"><ele>279.4</ele><time>2026-04-29T15:35:43.001Z</time></trkpt><trkpt lat="41.85468037504803" lon="19.865538186031777"><ele>279.79999999999995</ele><time>2026-04-29T15:35:44.001Z</time></trkpt><trkpt lat="41.85463863904832" lon="19.865398323557862"><ele>280.20000000000005</ele><time>2026-04-29T15:35:45.001Z</time></trkpt><trkpt lat="41.8545912943201" lon="19.865279351923927"><ele>280.6</ele><time>2026-04-29T15:35:46.001Z</time></trkpt><trkpt lat="41.85454732188426" lon="19.86516885430891"><ele>281.0</ele><time>2026-04-29T15:35:47.001Z</time></trkpt><trkpt lat="41.854508330377065" lon="19.865070876211814"><ele>281.00000000000006</ele><time>2026-04-29T15:35:48.001Z</time></trkpt><trkpt lat="41.85443997677541" lon="19.8650107754578"><ele>281.0</ele><time>2026-04-29T15:35:49.001Z</time></trkpt><trkpt lat="41.85437732443697" lon="19.86494800859535"><ele>281.0</ele><time>2026-04-29T15:35:50.001Z</time></trkpt><trkpt lat="41.85431150092086" lon="19.86489819735493"><ele>281.0</ele><time>2026-04-29T15:35:51.001Z</time></trkpt><trkpt lat="41.85425078262037" lon="19.864854364618434"><ele>281.0</ele><time>2026-04-29T15:35:52.001Z</time></trkpt><trkpt lat="41.85419618650498" lon="19.864806802564996"><ele>281.00000000000006</ele><time>2026-04-29T15:35:53.001Z</time></trkpt><trkpt lat="41.85416521474407" lon="19.864723343540827"><ele>281.0</ele><time>2026-04-29T15:35:54.001Z</time></trkpt><trkpt lat="41.85412950765411" lon="19.864635446691846"><ele>276.5</ele><time>2026-04-29T15:35:55.001Z</time></trkpt><trkpt lat="41.85407214503264" lon="19.864509864287008"><ele>272.0</ele><time>2026-04-29T15:35:56.001Z</time></trkpt><trkpt lat="41.8539974140348" lon="19.864394864259634"><ele>267.5</ele><time>2026-04-29T15:35:57.001Z</time></trkpt><trkpt lat="41.85390196501757" lon="19.86429630534977"><ele>263.0</ele><time>2026-04-29T15:35:58.001Z</time></trkpt><trkpt lat="41.85380863691867" lon="19.864203271049846"><ele>263.0</ele><time>2026-04-29T15:35:59.001Z</time></trkpt><trkpt lat="41.85371460484665" lon="19.86413713521692"><ele>263.0</ele><time>2026-04-29T15:36:00.001Z</time></trkpt><trkpt lat="41.853636899782934" lon="19.864078448579093"><ele>263.0</ele><time>2026-04-29T15:36:01.001Z</time></trkpt><trkpt lat="41.85359511025087" lon="19.86398301131535"><ele>263.0</ele><time>2026-04-29T15:36:02.001Z</time></trkpt><trkpt lat="41.853540507392964" lon="19.86390213786936"><ele>263.0</ele><time>2026-04-29T15:36:03.001Z</time></trkpt><trkpt lat="41.85350551582853" lon="19.86381033299266"><ele>263.0</ele><time>2026-04-29T15:36:04.001Z</time></trkpt><trkpt lat="41.85349902467606" lon="19.863693856069183"><ele>263.0</ele><time>2026-04-29T15:36:05.001Z</time></trkpt><trkpt lat="41.85350900709137" lon="19.863567839024725"><ele>263.0</ele><time>2026-04-29T15:36:06.001Z</time></trkpt><trkpt lat="41.85352794003453" lon="19.8634388972192"><ele>263.0</ele><time>2026-04-29T15:36:07.001Z</time></trkpt><trkpt lat="41.85354768848939" lon="19.863328136093276"><ele>263.0</ele><time>2026-04-29T15:36:08.001Z</time></trkpt><trkpt lat="41.853536861623205" lon="19.863225937610487"><ele>263.0</ele><time>2026-04-29T15:36:09.001Z</time></trkpt><trkpt lat="41.85351105802943" lon="19.86312019245204"><ele>263.0</ele><time>2026-04-29T15:36:10.001Z</time></trkpt><trkpt lat="41.853471107282495" lon="19.863017304928402"><ele>260.33333333333337</ele><time>2026-04-29T15:36:11.001Z</time></trkpt><trkpt lat="41.853418725416816" lon="19.862938334529435"><ele>257.6666666666667</ele><time>2026-04-29T15:36:12.001Z</time></trkpt><trkpt lat="41.85334774716198" lon="19.862869263283063"><ele>255.0</ele><time>2026-04-29T15:36:13.001Z</time></trkpt><trkpt lat="41.85327156826628" lon="19.862840553416202"><ele>252.33333333333331</ele><time>2026-04-29T15:36:14.001Z</time></trkpt><trkpt lat="41.85318813964693" lon="19.862855417348914"><ele>249.66666666666666</ele><time>2026-04-29T15:36:15.001Z</time></trkpt><trkpt lat="41.85308841443988" lon="19.862890650244776"><ele>247.0</ele><time>2026-04-29T15:36:16.001Z</time></trkpt><trkpt lat="41.85301307567304" lon="19.862881415492346"><ele>246.99999999999997</ele><time>2026-04-29T15:36:17.001Z</time></trkpt><trkpt lat="41.85294802218079" lon="19.862875159505794"><ele>247.0</ele><time>2026-04-29T15:36:18.001Z</time></trkpt><trkpt lat="41.85290663595605" lon="19.8627909949836"><ele>247.0</ele><time>2026-04-29T15:36:19.001Z</time></trkpt><trkpt lat="41.85286182616594" lon="19.862695722244027"><ele>247.0</ele><time>2026-04-29T15:36:20.001Z</time></trkpt><trkpt lat="41.85280040615768" lon="19.862592664227453"><ele>246.99999999999997</ele><time>2026-04-29T15:36:21.001Z</time></trkpt><trkpt lat="41.85275443168041" lon="19.862515658724014"><ele>247.0</ele><time>2026-04-29T15:36:22.001Z</time></trkpt><trkpt lat="41.85274935436128" lon="19.86241210515804"><ele>248.39999999999998</ele><time>2026-04-29T15:36:23.001Z</time></trkpt><trkpt lat="41.85273944724452" lon="19.862277051838966"><ele>249.79999999999998</ele><time>2026-04-29T15:36:24.001Z</time></trkpt><trkpt lat="41.85271042023156" lon="19.862171105165682"><ele>251.2</ele><time>2026-04-29T15:36:25.001Z</time></trkpt><trkpt lat="41.852647066938886" lon="19.862086322797666"><ele>252.6</ele><time>2026-04-29T15:36:26.001Z</time></trkpt><trkpt lat="41.85258243610876" lon="19.861980786070564"><ele>254.0</ele><time>2026-04-29T15:36:27.001Z</time></trkpt><trkpt lat="41.852522286383596" lon="19.86187819817817"><ele>251.39999999999998</ele><time>2026-04-29T15:36:28.001Z</time></trkpt><trkpt lat="41.85246739640094" lon="19.861764787001007"><ele>248.79999999999998</ele><time>2026-04-29T15:36:29.001Z</time></trkpt><trkpt lat="41.85242338644182" lon="19.861628200141915"><ele>246.20000000000002</ele><time>2026-04-29T15:36:30.001Z</time></trkpt><trkpt lat="41.85237168291252" lon="19.86150391325181"><ele>243.60000000000002</ele><time>2026-04-29T15:36:31.001Z</time></trkpt><trkpt lat="41.85229687288105" lon="19.861396750976784"><ele>241.0</ele><time>2026-04-29T15:36:32.001Z</time></trkpt><trkpt lat="41.85220473893024" lon="19.86130695345154"><ele>241.0</ele><time>2026-04-29T15:36:33.001Z</time></trkpt><trkpt lat="41.85211065726588" lon="19.861194671303334"><ele>241.00000000000003</ele><time>2026-04-29T15:36:34.001Z</time></trkpt><trkpt lat="41.85204033847028" lon="19.86109162253004"><ele>241.00000000000003</ele><time>2026-04-29T15:36:35.001Z</time></trkpt><trkpt lat="41.852000053548835" lon="19.86098431988247"><ele>241.0</ele><time>2026-04-29T15:36:36.001Z</time></trkpt><trkpt lat="41.851966593795" lon="19.860891462141325"><ele>241.0</ele><time>2026-04-29T15:36:37.001Z</time></trkpt><trkpt lat="41.851925251628344" lon="19.860767794655686"><ele>242.0</ele><time>2026-04-29T15:36:38.001Z</time></trkpt><trkpt lat="41.85190280028772" lon="19.86062159403083"><ele>243.00000000000003</ele><time>2026-04-29T15:36:39.001Z</time></trkpt><trkpt lat="41.85186170991922" lon="19.860488100563458"><ele>244.00000000000003</ele><time>2026-04-29T15:36:40.001Z</time></trkpt><trkpt lat="41.85182422453325" lon="19.860372400664698"><ele>245.0</ele><time>2026-04-29T15:36:41.001Z</time></trkpt><trkpt lat="41.85175236997307" lon="19.86028929487065"><ele>246.0</ele><time>2026-04-29T15:36:42.001Z</time></trkpt><trkpt lat="41.8517060396744" lon="19.860202771021072"><ele>241.4</ele><time>2026-04-29T15:36:43.001Z</time></trkpt><trkpt lat="41.85165143588206" lon="19.860131736778758"><ele>236.8</ele><time>2026-04-29T15:36:44.001Z</time></trkpt><trkpt lat="41.85164349119125" lon="19.86001672712461"><ele>232.20000000000002</ele><time>2026-04-29T15:36:45.001Z</time></trkpt><trkpt lat="41.85166309292547" lon="19.859867694355252"><ele>227.60000000000002</ele><time>2026-04-29T15:36:46.001Z</time></trkpt><trkpt lat="41.85167562771879" lon="19.859703602847794"><ele>223.0</ele><time>2026-04-29T15:36:47.001Z</time></trkpt><trkpt lat="41.8516662193558" lon="19.859579180502756"><ele>223.0</ele><time>2026-04-29T15:36:48.001Z</time></trkpt><trkpt lat="41.85166476504457" lon="19.859488859809726"><ele>223.0</ele><time>2026-04-29T15:36:49.001Z</time></trkpt><trkpt lat="41.85167096851837" lon="19.859355285446945"><ele>223.0</ele><time>2026-04-29T15:36:51.001Z</time></trkpt><trkpt lat="41.851784264533165" lon="19.859326455732784"><ele>223.0</ele><time>2026-04-29T15:36:53.001Z</time></trkpt><trkpt lat="41.85186137321974" lon="19.859359414956558"><ele>223.0</ele><time>2026-04-29T15:36:54.001Z</time></trkpt><trkpt lat="41.85195841367616" lon="19.859409715355863"><ele>226.0</ele><time>2026-04-29T15:36:55.001Z</time></trkpt><trkpt lat="41.85206635189402" lon="19.859418954612757"><ele>229.0</ele><time>2026-04-29T15:36:56.001Z</time></trkpt><trkpt lat="41.85218257771714" lon="19.859371510246856"><ele>232.0</ele><time>2026-04-29T15:36:57.001Z</time></trkpt><trkpt lat="41.852277931126686" lon="19.859317375405656"><ele>235.0</ele><time>2026-04-29T15:36:58.001Z</time></trkpt><trkpt lat="41.852356293581494" lon="19.85929330561523"><ele>238.0</ele><time>2026-04-29T15:36:59.001Z</time></trkpt><trkpt lat="41.85243803034386" lon="19.85931757873243"><ele>238.0</ele><time>2026-04-29T15:37:00.001Z</time></trkpt><trkpt lat="41.85252150373684" lon="19.85941949877739"><ele>238.0</ele><time>2026-04-29T15:37:01.001Z</time></trkpt><trkpt lat="41.85262919668026" lon="19.859493498180356"><ele>238.0</ele><time>2026-04-29T15:37:02.001Z</time></trkpt><trkpt lat="41.85275076222599" lon="19.85956137625243"><ele>238.0</ele><time>2026-04-29T15:37:03.001Z</time></trkpt><trkpt lat="41.85286748968156" lon="19.859585700051678"><ele>236.8</ele><time>2026-04-29T15:37:04.001Z</time></trkpt><trkpt lat="41.85297648847535" lon="19.85961476735707"><ele>235.60000000000002</ele><time>2026-04-29T15:37:05.001Z</time></trkpt><trkpt lat="41.853090571978306" lon="19.859659245219923"><ele>234.39999999999998</ele><time>2026-04-29T15:37:06.001Z</time></trkpt><trkpt lat="41.85318987106171" lon="19.85969795895952"><ele>233.2</ele><time>2026-04-29T15:37:07.001Z</time></trkpt><trkpt lat="41.8532960614988" lon="19.859714420852963"><ele>232.0</ele><time>2026-04-29T15:37:08.001Z</time></trkpt><trkpt lat="41.85339146240056" lon="19.85971116127667"><ele>230.16666666666666</ele><time>2026-04-29T15:37:09.001Z</time></trkpt><trkpt lat="41.85347179883613" lon="19.859695619284732"><ele>228.33333333333331</ele><time>2026-04-29T15:37:10.001Z</time></trkpt><trkpt lat="41.85354263001377" lon="19.859629701539077"><ele>226.5</ele><time>2026-04-29T15:37:11.001Z</time></trkpt><trkpt lat="41.85362695229645" lon="19.859564605495265"><ele>224.66666666666669</ele><time>2026-04-29T15:37:12.001Z</time></trkpt><trkpt lat="41.85369106702232" lon="19.859485188636167"><ele>222.83333333333334</ele><time>2026-04-29T15:37:13.001Z</time></trkpt><trkpt lat="41.85375391716684" lon="19.859445606462327"><ele>221.0</ele><time>2026-04-29T15:37:14.001Z</time></trkpt><trkpt lat="41.853825352623545" lon="19.85945024748"><ele>221.00000000000003</ele><time>2026-04-29T15:37:15.001Z</time></trkpt><trkpt lat="41.85390383528486" lon="19.85950011985534"><ele>221.0</ele><time>2026-04-29T15:37:16.001Z</time></trkpt><trkpt lat="41.853960371203755" lon="19.859601860606176"><ele>221.0</ele><time>2026-04-29T15:37:17.001Z</time></trkpt><trkpt lat="41.85403512545301" lon="19.85964328728982"><ele>221.0</ele><time>2026-04-29T15:37:18.001Z</time></trkpt><trkpt lat="41.85409640227518" lon="19.859707554836955"><ele>221.00000000000003</ele><time>2026-04-29T15:37:19.001Z</time></trkpt><trkpt lat="41.85417769861327" lon="19.859677288437467"><ele>221.0</ele><time>2026-04-29T15:37:20.001Z</time></trkpt><trkpt lat="41.85425851995463" lon="19.859655477518945"><ele>220.50000000000003</ele><time>2026-04-29T15:37:21.001Z</time></trkpt><trkpt lat="41.85435046029442" lon="19.859657430477338"><ele>220.0</ele><time>2026-04-29T15:37:22.001Z</time></trkpt><trkpt lat="41.85442931359747" lon="19.85973443089921"><ele>219.5</ele><time>2026-04-29T15:37:23.001Z</time></trkpt><trkpt lat="41.85450978862667" lon="19.85978665595643"><ele>219.0</ele><time>2026-04-29T15:37:24.001Z</time></trkpt><trkpt lat="41.854584107945634" lon="19.859835287187465"><ele>218.50000000000003</ele><time>2026-04-29T15:37:25.001Z</time></trkpt><trkpt lat="41.85465991474024" lon="19.859863870047256"><ele>218.0</ele><time>2026-04-29T15:37:26.001Z</time></trkpt><trkpt lat="41.854749938811885" lon="19.859855903580566"><ele>218.00000000000003</ele><time>2026-04-29T15:37:27.001Z</time></trkpt><trkpt lat="41.8548275821076" lon="19.859810660066632"><ele>218.0</ele><time>2026-04-29T15:37:28.001Z</time></trkpt><trkpt lat="41.854883419290466" lon="19.859706613061213"><ele>218.0</ele><time>2026-04-29T15:37:29.001Z</time></trkpt><trkpt lat="41.854933668508636" lon="19.859612632291093"><ele>218.0</ele><time>2026-04-29T15:37:30.001Z</time></trkpt><trkpt lat="41.854955220588096" lon="19.859503325651634"><ele>218.00000000000003</ele><time>2026-04-29T15:37:31.001Z</time></trkpt><trkpt lat="41.85496178030512" lon="19.8593982603525"><ele>218.0</ele><time>2026-04-29T15:37:32.001Z</time></trkpt><trkpt lat="41.855007742445494" lon="19.85927247017835"><ele>215.33333333333334</ele><time>2026-04-29T15:37:34.001Z</time></trkpt><trkpt lat="41.85506561282671" lon="19.859238006316524"><ele>212.66666666666669</ele><time>2026-04-29T15:37:35.001Z</time></trkpt><trkpt lat="41.85515088136827" lon="19.859262845073197"><ele>210.0</ele><time>2026-04-29T15:37:36.001Z</time></trkpt><trkpt lat="41.855239242866865" lon="19.85920834006488"><ele>207.33333333333331</ele><time>2026-04-29T15:37:37.001Z</time></trkpt><trkpt lat="41.85532927830354" lon="19.859195366935985"><ele>204.66666666666666</ele><time>2026-04-29T15:37:38.001Z</time></trkpt><trkpt lat="41.855395059293606" lon="19.8590782734362"><ele>202.0</ele><time>2026-04-29T15:37:39.001Z</time></trkpt><trkpt lat="41.85547257867344" lon="19.859008125598656"><ele>202.0</ele><time>2026-04-29T15:37:40.001Z</time></trkpt><trkpt lat="41.855561067892225" lon="19.85896046585698"><ele>202.0</ele><time>2026-04-29T15:37:41.001Z</time></trkpt><trkpt lat="41.85565056437047" lon="19.85894189387821"><ele>202.0</ele><time>2026-04-29T15:37:42.001Z</time></trkpt><trkpt lat="41.85574741364497" lon="19.85893534287743"><ele>202.0</ele><time>2026-04-29T15:37:43.001Z</time></trkpt><trkpt lat="41.85584251385029" lon="19.858951569187226"><ele>202.0</ele><time>2026-04-29T15:37:44.001Z</time></trkpt><trkpt lat="41.855920470602996" lon="19.858989549383082"><ele>204.2</ele><time>2026-04-29T15:37:45.001Z</time></trkpt><trkpt lat="41.85597669618181" lon="19.859063603608515"><ele>206.39999999999998</ele><time>2026-04-29T15:37:46.001Z</time></trkpt><trkpt lat="41.85604148461813" lon="19.8590920645959"><ele>208.60000000000002</ele><time>2026-04-29T15:37:47.001Z</time></trkpt><trkpt lat="41.85616010042024" lon="19.859071883633845"><ele>210.8</ele><time>2026-04-29T15:37:49.001Z</time></trkpt><trkpt lat="41.8562108759934" lon="19.858955723280253"><ele>213.0</ele><time>2026-04-29T15:37:51.001Z</time></trkpt><trkpt lat="41.85616638856817" lon="19.85884594987627"><ele>213.0</ele><time>2026-04-29T15:37:52.001Z</time></trkpt><trkpt lat="41.85613396297008" lon="19.858743525269873"><ele>213.0</ele><time>2026-04-29T15:37:53.001Z</time></trkpt><trkpt lat="41.856085815909395" lon="19.858634317815426"><ele>213.0</ele><time>2026-04-29T15:37:54.001Z</time></trkpt><trkpt lat="41.85605077960886" lon="19.858508739004925"><ele>213.0</ele><time>2026-04-29T15:37:55.001Z</time></trkpt><trkpt lat="41.85602500941763" lon="19.858417030826228"><ele>213.0</ele><time>2026-04-29T15:37:56.001Z</time></trkpt><trkpt lat="41.85601337191873" lon="19.85832125260898"><ele>213.0</ele><time>2026-04-29T15:37:57.001Z</time></trkpt><trkpt lat="41.85602427657003" lon="19.858226068926903"><ele>211.4</ele><time>2026-04-29T15:37:58.001Z</time></trkpt><trkpt lat="41.856036341715985" lon="19.858120596532927"><ele>209.8</ele><time>2026-04-29T15:37:59.001Z</time></trkpt><trkpt lat="41.8561224168498" lon="19.85803799621314"><ele>208.2</ele><time>2026-04-29T15:38:00.001Z</time></trkpt><trkpt lat="41.856194965602235" lon="19.857922169774323"><ele>206.6</ele><time>2026-04-29T15:38:01.001Z</time></trkpt><trkpt lat="41.85626988710223" lon="19.857802558489215"><ele>205.0</ele><time>2026-04-29T15:38:02.001Z</time></trkpt><trkpt lat="41.85631666074634" lon="19.857642662275175"><ele>202.0</ele><time>2026-04-29T15:38:03.001Z</time></trkpt><trkpt lat="41.856400122250996" lon="19.857516472449188"><ele>199.0</ele><time>2026-04-29T15:38:04.001Z</time></trkpt><trkpt lat="41.856479761124966" lon="19.857374200682212"><ele>196.0</ele><time>2026-04-29T15:38:05.001Z</time></trkpt><trkpt lat="41.85657922082139" lon="19.85725614701153"><ele>193.0</ele><time>2026-04-29T15:38:06.001Z</time></trkpt><trkpt lat="41.856671498383825" lon="19.857126001174322"><ele>193.0</ele><time>2026-04-29T15:38:07.001Z</time></trkpt><trkpt lat="41.856745367182" lon="19.85701802873636"><ele>193.0</ele><time>2026-04-29T15:38:08.001Z</time></trkpt><trkpt lat="41.8568274550337" lon="19.85693162151473"><ele>193.0</ele><time>2026-04-29T15:38:09.001Z</time></trkpt><trkpt lat="41.85691136153184" lon="19.85681027573325"><ele>193.0</ele><time>2026-04-29T15:38:10.001Z</time></trkpt><trkpt lat="41.85701518272637" lon="19.856720329013527"><ele>193.0</ele><time>2026-04-29T15:38:11.001Z</time></trkpt><trkpt lat="41.85711697894142" lon="19.856625426193492"><ele>193.0</ele><time>2026-04-29T15:38:12.001Z</time></trkpt><trkpt lat="41.85722127737628" lon="19.85656786764053"><ele>193.0</ele><time>2026-04-29T15:38:13.001Z</time></trkpt><trkpt lat="41.85734054569474" lon="19.85652128343099"><ele>193.0</ele><time>2026-04-29T15:38:14.001Z</time></trkpt><trkpt lat="41.85747144886485" lon="19.85648226186815"><ele>193.0</ele><time>2026-04-29T15:38:15.001Z</time></trkpt><trkpt lat="41.85760357572435" lon="19.856442875547142"><ele>193.0</ele><time>2026-04-29T15:38:16.001Z</time></trkpt><trkpt lat="41.85774324790853" lon="19.856401239981068"><ele>193.0</ele><time>2026-04-29T15:38:17.001Z</time></trkpt><trkpt lat="41.85788278400724" lon="19.856324370992617"><ele>193.0</ele><time>2026-04-29T15:38:18.001Z</time></trkpt><trkpt lat="41.85802067365687" lon="19.856290367369333"><ele>193.75</ele><time>2026-04-29T15:38:19.001Z</time></trkpt><trkpt lat="41.858130634989" lon="19.85622937334482"><ele>194.5</ele><time>2026-04-29T15:38:20.001Z</time></trkpt><trkpt lat="41.858230215761814" lon="19.85614490720353"><ele>195.25</ele><time>2026-04-29T15:38:21.001Z</time></trkpt><trkpt lat="41.858361291421716" lon="19.856032209938537"><ele>196.0</ele><time>2026-04-29T15:38:22.001Z</time></trkpt><trkpt lat="41.858503215306335" lon="19.855902915711113"><ele>196.0</ele><time>2026-04-29T15:38:23.001Z</time></trkpt><trkpt lat="41.85864662675" lon="19.855792165988902"><ele>196.0</ele><time>2026-04-29T15:38:24.001Z</time></trkpt><trkpt lat="41.85876425482784" lon="19.855678006192427"><ele>196.0</ele><time>2026-04-29T15:38:25.001Z</time></trkpt><trkpt lat="41.85887747757069" lon="19.855571141680798"><ele>196.0</ele><time>2026-04-29T15:38:26.001Z</time></trkpt><trkpt lat="41.85900284280041" lon="19.85546944613857"><ele>196.0</ele><time>2026-04-29T15:38:27.001Z</time></trkpt><trkpt lat="41.85912663855378" lon="19.855396884098134"><ele>196.0</ele><time>2026-04-29T15:38:28.001Z</time></trkpt><trkpt lat="41.85926397122477" lon="19.855321561102368"><ele>196.0</ele><time>2026-04-29T15:38:29.001Z</time></trkpt><trkpt lat="41.859411485095215" lon="19.855237213805445"><ele>196.0</ele><time>2026-04-29T15:38:30.001Z</time></trkpt><trkpt lat="41.85954324499569" lon="19.855219461689018"><ele>200.0</ele><time>2026-04-29T15:38:31.001Z</time></trkpt><trkpt lat="41.85966804653338" lon="19.855188787073264"><ele>204.0</ele><time>2026-04-29T15:38:32.001Z</time></trkpt><trkpt lat="41.8598111620839" lon="19.85516638297022"><ele>208.0</ele><time>2026-04-29T15:38:33.001Z</time></trkpt><trkpt lat="41.85997592036823" lon="19.855145929182672"><ele>212.0</ele><time>2026-04-29T15:38:34.001Z</time></trkpt><trkpt lat="41.86012400521715" lon="19.855127545276513"><ele>209.75</ele><time>2026-04-29T15:38:35.001Z</time></trkpt><trkpt lat="41.860271369916006" lon="19.855109133671412"><ele>207.5</ele><time>2026-04-29T15:38:36.001Z</time></trkpt><trkpt lat="41.86041590787782" lon="19.85509045705672"><ele>205.25</ele><time>2026-04-29T15:38:37.001Z</time></trkpt><trkpt lat="41.86056283482644" lon="19.85504074261012"><ele>203.0</ele><time>2026-04-29T15:38:38.001Z</time></trkpt><trkpt lat="41.86068723923058" lon="19.854996495726667"><ele>203.0</ele><time>2026-04-29T15:38:39.001Z</time></trkpt><trkpt lat="41.86080474548665" lon="19.854973097873156"><ele>203.0</ele><time>2026-04-29T15:38:40.001Z</time></trkpt><trkpt lat="41.86091971410227" lon="19.85495012423725"><ele>203.0</ele><time>2026-04-29T15:38:41.001Z</time></trkpt><trkpt lat="41.861042463315144" lon="19.854882273359017"><ele>203.0</ele><time>2026-04-29T15:38:42.001Z</time></trkpt><trkpt lat="41.861138690610886" lon="19.85477542549024"><ele>206.25</ele><time>2026-04-29T15:38:43.001Z</time></trkpt><trkpt lat="41.86124981078339" lon="19.85475488769339"><ele>209.5</ele><time>2026-04-29T15:38:44.001Z</time></trkpt><trkpt lat="41.86135965455486" lon="19.854711869204028"><ele>212.75</ele><time>2026-04-29T15:38:45.001Z</time></trkpt><trkpt lat="41.861477647418404" lon="19.854642192257657"><ele>216.0</ele><time>2026-04-29T15:38:46.001Z</time></trkpt><trkpt lat="41.861577857655305" lon="19.854565848051486"><ele>216.0</ele><time>2026-04-29T15:38:47.001Z</time></trkpt><trkpt lat="41.86168748173562" lon="19.854486944096763"><ele>216.0</ele><time>2026-04-29T15:38:48.001Z</time></trkpt><trkpt lat="41.86180602265029" lon="19.854368427143662"><ele>216.0</ele><time>2026-04-29T15:38:49.001Z</time></trkpt><trkpt lat="41.86192249845509" lon="19.85424661552651"><ele>216.0</ele><time>2026-04-29T15:38:50.001Z</time></trkpt><trkpt lat="41.86201943072883" lon="19.85411323212539"><ele>214.0</ele><time>2026-04-29T15:38:51.001Z</time></trkpt><trkpt lat="41.86209726679522" lon="19.853930874787554"><ele>212.0</ele><time>2026-04-29T15:38:52.001Z</time></trkpt><trkpt lat="41.86218184258048" lon="19.853747707745917"><ele>210.0</ele><time>2026-04-29T15:38:53.001Z</time></trkpt><trkpt lat="41.862270370617566" lon="19.853533318570854"><ele>207.0</ele><time>2026-04-29T15:38:54.001Z</time></trkpt><trkpt lat="41.86233745247159" lon="19.85332002697838"><ele>204.0</ele><time>2026-04-29T15:38:55.001Z</time></trkpt><trkpt lat="41.86238921192943" lon="19.853151375049222"><ele>201.0</ele><time>2026-04-29T15:38:56.001Z</time></trkpt><trkpt lat="41.86243599361059" lon="19.8530008495605"><ele>198.0</ele><time>2026-04-29T15:38:57.001Z</time></trkpt><trkpt lat="41.86250447771749" lon="19.85285949568889"><ele>202.0</ele><time>2026-04-29T15:38:58.001Z</time></trkpt><trkpt lat="41.862621751932735" lon="19.852704246034232"><ele>206.0</ele><time>2026-04-29T15:38:59.001Z</time></trkpt><trkpt lat="41.86269388871262" lon="19.852471333727035"><ele>210.0</ele><time>2026-04-29T15:39:00.001Z</time></trkpt><trkpt lat="41.862795392017205" lon="19.852251594630985"><ele>210.0</ele><time>2026-04-29T15:39:01.001Z</time></trkpt><trkpt lat="41.8628950759464" lon="19.852082509811044"><ele>210.0</ele><time>2026-04-29T15:39:02.001Z</time></trkpt><trkpt lat="41.86295822827388" lon="19.851906861587732"><ele>210.0</ele><time>2026-04-29T15:39:03.001Z</time></trkpt><trkpt lat="41.863028682282" lon="19.8517223636185"><ele>207.5</ele><time>2026-04-29T15:39:04.001Z</time></trkpt><trkpt lat="41.86311832364415" lon="19.851526272357532"><ele>205.0</ele><time>2026-04-29T15:39:05.001Z</time></trkpt><trkpt lat="41.86318136418634" lon="19.851355831697614"><ele>202.5</ele><time>2026-04-29T15:39:06.001Z</time></trkpt><trkpt lat="41.86321327280897" lon="19.851202799458214"><ele>200.0</ele><time>2026-04-29T15:39:07.001Z</time></trkpt><trkpt lat="41.86323810916071" lon="19.85105734443819"><ele>199.2</ele><time>2026-04-29T15:39:08.001Z</time></trkpt><trkpt lat="41.86328232480761" lon="19.850945265617046"><ele>198.4</ele><time>2026-04-29T15:39:09.001Z</time></trkpt><trkpt lat="41.86334410683645" lon="19.850860859514512"><ele>197.60000000000002</ele><time>2026-04-29T15:39:10.001Z</time></trkpt><trkpt lat="41.86345077874689" lon="19.850790111495314"><ele>196.8</ele><time>2026-04-29T15:39:11.001Z</time></trkpt><trkpt lat="41.86354369473074" lon="19.850636996489534"><ele>196.0</ele><time>2026-04-29T15:39:12.001Z</time></trkpt><trkpt lat="41.863617430444755" lon="19.850453338877852"><ele>198.0</ele><time>2026-04-29T15:39:13.001Z</time></trkpt><trkpt lat="41.86369650394157" lon="19.8502567113715"><ele>200.0</ele><time>2026-04-29T15:39:14.001Z</time></trkpt><trkpt lat="41.8638047835179" lon="19.85007452442785"><ele>202.0</ele><time>2026-04-29T15:39:15.001Z</time></trkpt><trkpt lat="41.86392299691772" lon="19.849910734760147"><ele>202.0</ele><time>2026-04-29T15:39:16.001Z</time></trkpt><trkpt lat="41.864037979433895" lon="19.849733127469783"><ele>202.0</ele><time>2026-04-29T15:39:17.001Z</time></trkpt><trkpt lat="41.86413013864822" lon="19.849553658765362"><ele>202.0</ele><time>2026-04-29T15:39:18.001Z</time></trkpt><trkpt lat="41.86424404563788" lon="19.849376166675626"><ele>205.25</ele><time>2026-04-29T15:39:19.001Z</time></trkpt><trkpt lat="41.86433185332678" lon="19.849224345820193"><ele>208.5</ele><time>2026-04-29T15:39:20.001Z</time></trkpt><trkpt lat="41.864405434924116" lon="19.849093891450615"><ele>211.75</ele><time>2026-04-29T15:39:21.001Z</time></trkpt><trkpt lat="41.86447792836189" lon="19.848935522438783"><ele>215.0</ele><time>2026-04-29T15:39:22.001Z</time></trkpt><trkpt lat="41.864551528896136" lon="19.84879174775335"><ele>215.0</ele><time>2026-04-29T15:39:23.001Z</time></trkpt><trkpt lat="41.86461027322378" lon="19.848703972539514"><ele>215.0</ele><time>2026-04-29T15:39:24.001Z</time></trkpt><trkpt lat="41.86467164752" lon="19.848653370654535"><ele>215.0</ele><time>2026-04-29T15:39:25.001Z</time></trkpt><trkpt lat="41.86474555080233" lon="19.84862425536669"><ele>215.0</ele><time>2026-04-29T15:39:26.001Z</time></trkpt><trkpt lat="41.86484240196973" lon="19.84861944797114"><ele>215.0</ele><time>2026-04-29T15:39:27.001Z</time></trkpt><trkpt lat="41.86496047116282" lon="19.84861979392437"><ele>215.0</ele><time>2026-04-29T15:39:28.001Z</time></trkpt><trkpt lat="41.86509285359526" lon="19.84858419083293"><ele>215.0</ele><time>2026-04-29T15:39:29.001Z</time></trkpt><trkpt lat="41.86519601292651" lon="19.848530114610444"><ele>215.0</ele><time>2026-04-29T15:39:30.001Z</time></trkpt><trkpt lat="41.865251613794804" lon="19.84847543621266"><ele>215.0</ele><time>2026-04-29T15:39:31.001Z</time></trkpt><trkpt lat="41.865285400312295" lon="19.848395330975094"><ele>215.0</ele><time>2026-04-29T15:39:32.001Z</time></trkpt><trkpt lat="41.86528580924124" lon="19.848206728480847"><ele>214.50000000000003</ele><time>2026-04-29T15:39:34.001Z</time></trkpt><trkpt lat="41.865207158273776" lon="19.84815232168581"><ele>214.0</ele><time>2026-04-29T15:39:35.001Z</time></trkpt><trkpt lat="41.86512505360623" lon="19.84813942510744"><ele>213.5</ele><time>2026-04-29T15:39:36.001Z</time></trkpt><trkpt lat="41.865027301599795" lon="19.84813061759647"><ele>213.0</ele><time>2026-04-29T15:39:37.001Z</time></trkpt><trkpt lat="41.864964295745196" lon="19.848094676058032"><ele>212.50000000000003</ele><time>2026-04-29T15:39:38.001Z</time></trkpt><trkpt lat="41.86496690711727" lon="19.848005889831185"><ele>212.0</ele><time>2026-04-29T15:39:39.001Z</time></trkpt><trkpt lat="41.864970798675536" lon="19.847860160697433"><ele>212.00000000000003</ele><time>2026-04-29T15:39:41.001Z</time></trkpt><trkpt lat="41.864984915713805" lon="19.847763455371975"><ele>212.0</ele><time>2026-04-29T15:39:42.001Z</time></trkpt><trkpt lat="41.865029768306556" lon="19.847695890807415"><ele>212.0</ele><time>2026-04-29T15:39:43.001Z</time></trkpt><trkpt lat="41.865079793652896" lon="19.847631791931494"><ele>212.0</ele><time>2026-04-29T15:39:44.001Z</time></trkpt><trkpt lat="41.865139693058" lon="19.847552028304957"><ele>212.00000000000003</ele><time>2026-04-29T15:39:45.001Z</time></trkpt><trkpt lat="41.865188363543716" lon="19.8474387762062"><ele>212.0</ele><time>2026-04-29T15:39:46.001Z</time></trkpt><trkpt lat="41.865229896595444" lon="19.847316556572903"><ele>214.16666666666669</ele><time>2026-04-29T15:39:47.001Z</time></trkpt><trkpt lat="41.865304366682246" lon="19.84725887644988"><ele>216.33333333333334</ele><time>2026-04-29T15:39:49.001Z</time></trkpt><trkpt lat="41.86544321964263" lon="19.847271192211938"><ele>218.5</ele><time>2026-04-29T15:39:51.001Z</time></trkpt><trkpt lat="41.86551854473959" lon="19.84728321366384"><ele>220.66666666666669</ele><time>2026-04-29T15:39:52.001Z</time></trkpt><trkpt lat="41.865577003025244" lon="19.84724113710139"><ele>222.83333333333334</ele><time>2026-04-29T15:39:53.001Z</time></trkpt><trkpt lat="41.86564799556692" lon="19.847251000942748"><ele>225.0</ele><time>2026-04-29T15:39:54.001Z</time></trkpt><trkpt lat="41.86573842870789" lon="19.84721476979459"><ele>225.0</ele><time>2026-04-29T15:39:55.001Z</time></trkpt><trkpt lat="41.8658268905832" lon="19.847189110472737"><ele>225.0</ele><time>2026-04-29T15:39:56.001Z</time></trkpt><trkpt lat="41.86589858928153" lon="19.84716864963381"><ele>225.0</ele><time>2026-04-29T15:39:57Z</time></trkpt><trkpt lat="41.86597563197728" lon="19.847147167996976"><ele>225.0</ele><time>2026-04-29T15:39:58Z</time></trkpt><trkpt lat="41.8660538319974" lon="19.84712418044195"><ele>225.0</ele><time>2026-04-29T15:39:59Z</time></trkpt><trkpt lat="41.866117573215725" lon="19.84704418664981"><ele>225.0</ele><time>2026-04-29T15:40:00Z</time></trkpt><trkpt lat="41.86617870001059" lon="19.847000550304728"><ele>227.0</ele><time>2026-04-29T15:40:01Z</time></trkpt><trkpt lat="41.866303677322904" lon="19.84699721596375"><ele>229.0</ele><time>2026-04-29T15:40:03Z</time></trkpt><trkpt lat="41.866363396976745" lon="19.84707700350787"><ele>231.0</ele><time>2026-04-29T15:40:04Z</time></trkpt><trkpt lat="41.86642838596193" lon="19.847110003590146"><ele>233.0</ele><time>2026-04-29T15:40:05Z</time></trkpt><trkpt lat="41.866508158780206" lon="19.847103564441767"><ele>235.0</ele><time>2026-04-29T15:40:06Z</time></trkpt><trkpt lat="41.866582229092195" lon="19.847009038495948"><ele>235.0</ele><time>2026-04-29T15:40:07Z</time></trkpt><trkpt lat="41.866630794835885" lon="19.846950762982537"><ele>235.0</ele><time>2026-04-29T15:40:08Z</time></trkpt><trkpt lat="41.86662836061738" lon="19.84678679317878"><ele>235.0</ele><time>2026-04-29T15:40:09Z</time></trkpt><trkpt lat="41.86661795550496" lon="19.846665916908407"><ele>235.0</ele><time>2026-04-29T15:40:10Z</time></trkpt><trkpt lat="41.86656516177548" lon="19.846570695449554"><ele>235.0</ele><time>2026-04-29T15:40:11Z</time></trkpt><trkpt lat="41.86650907050768" lon="19.846480941759264"><ele>231.8</ele><time>2026-04-29T15:40:12Z</time></trkpt><trkpt lat="41.866437403037956" lon="19.846391246863604"><ele>228.6</ele><time>2026-04-29T15:40:13Z</time></trkpt><trkpt lat="41.866351905901624" lon="19.84632369127358"><ele>225.39999999999998</ele><time>2026-04-29T15:40:14Z</time></trkpt><trkpt lat="41.86624907884415" lon="19.846262099093632"><ele>222.2</ele><time>2026-04-29T15:40:15Z</time></trkpt><trkpt lat="41.86613886673818" lon="19.846206652351587"><ele>219.0</ele><time>2026-04-29T15:40:16Z</time></trkpt><trkpt lat="41.866037336859414" lon="19.846187401258888"><ele>219.0</ele><time>2026-04-29T15:40:17Z</time></trkpt><trkpt lat="41.86596091083912" lon="19.846184761952106"><ele>218.99999999999997</ele><time>2026-04-29T15:40:18Z</time></trkpt><trkpt lat="41.86586817689325" lon="19.846180272234108"><ele>218.99999999999997</ele><time>2026-04-29T15:40:19Z</time></trkpt><trkpt lat="41.86576454956909" lon="19.846170551512472"><ele>219.0</ele><time>2026-04-29T15:40:20Z</time></trkpt><trkpt lat="41.865662909134" lon="19.846139458357708"><ele>219.0</ele><time>2026-04-29T15:40:21Z</time></trkpt><trkpt lat="41.86557091306441" lon="19.84606777702635"><ele>218.2</ele><time>2026-04-29T15:40:22Z</time></trkpt><trkpt lat="41.865500004428775" lon="19.84600762222308"><ele>217.39999999999998</ele><time>2026-04-29T15:40:23Z</time></trkpt><trkpt lat="41.86543756860227" lon="19.845957130806053"><ele>216.6</ele><time>2026-04-29T15:40:24Z</time></trkpt><trkpt lat="41.86540661134121" lon="19.845860305666402"><ele>215.8</ele><time>2026-04-29T15:40:25Z</time></trkpt><trkpt lat="41.86537986228547" lon="19.84572355723442"><ele>215.0</ele><time>2026-04-29T15:40:26Z</time></trkpt><trkpt lat="41.865331486982925" lon="19.845544154974153"><ele>219.33333333333334</ele><time>2026-04-29T15:40:27Z</time></trkpt><trkpt lat="41.86530569014074" lon="19.845354372859394"><ele>223.66666666666669</ele><time>2026-04-29T15:40:28Z</time></trkpt><trkpt lat="41.86529498200192" lon="19.845152138844043"><ele>228.0</ele><time>2026-04-29T15:40:29Z</time></trkpt><trkpt lat="41.86528845548749" lon="19.84490210730284"><ele>230.75</ele><time>2026-04-29T15:40:30Z</time></trkpt><trkpt lat="41.86527175199348" lon="19.84468491472451"><ele>233.5</ele><time>2026-04-29T15:40:31Z</time></trkpt><trkpt lat="41.86525524182647" lon="19.844502756442893"><ele>236.25</ele><time>2026-04-29T15:40:32Z</time></trkpt><trkpt lat="41.8652091271503" lon="19.84431991929924"><ele>239.0</ele><time>2026-04-29T15:40:33Z</time></trkpt><trkpt lat="41.865180390447826" lon="19.84411044879017"><ele>240.33333333333334</ele><time>2026-04-29T15:40:34Z</time></trkpt><trkpt lat="41.86517965549274" lon="19.843868021215354"><ele>241.66666666666669</ele><time>2026-04-29T15:40:35Z</time></trkpt><trkpt lat="41.865177968675106" lon="19.843622215092324"><ele>243.0</ele><time>2026-04-29T15:40:36Z</time></trkpt><trkpt lat="41.86515752719434" lon="19.84342745667501"><ele>236.75</ele><time>2026-04-29T15:40:37Z</time></trkpt><trkpt lat="41.86511018789998" lon="19.84329001464043"><ele>230.5</ele><time>2026-04-29T15:40:38Z</time></trkpt><trkpt lat="41.86505538825482" lon="19.84314385978094"><ele>224.25</ele><time>2026-04-29T15:40:39Z</time></trkpt><trkpt lat="41.8649879224504" lon="19.842993349406086"><ele>218.0</ele><time>2026-04-29T15:40:40Z</time></trkpt><trkpt lat="41.86497420141337" lon="19.842854115307546"><ele>218.0</ele><time>2026-04-29T15:40:41Z</time></trkpt><trkpt lat="41.864952420276545" lon="19.84272169018154"><ele>218.0</ele><time>2026-04-29T15:40:42Z</time></trkpt><trkpt lat="41.86494263839824" lon="19.842557830110806"><ele>218.0</ele><time>2026-04-29T15:40:43Z</time></trkpt><trkpt lat="41.86496563802319" lon="19.84234841375812"><ele>218.0</ele><time>2026-04-29T15:40:44Z</time></trkpt><trkpt lat="41.86496667976027" lon="19.842087253553412"><ele>218.66666666666669</ele><time>2026-04-29T15:40:45Z</time></trkpt><trkpt lat="41.865006982145935" lon="19.841816965788908"><ele>219.33333333333331</ele><time>2026-04-29T15:40:46Z</time></trkpt><trkpt lat="41.86502575547846" lon="19.84161300297194"><ele>220.0</ele><time>2026-04-29T15:40:47Z</time></trkpt><trkpt lat="41.86501718388343" lon="19.8414664006929"><ele>220.8</ele><time>2026-04-29T15:40:48Z</time></trkpt><trkpt lat="41.864993039037856" lon="19.84132569000923"><ele>221.6</ele><time>2026-04-29T15:40:49Z</time></trkpt><trkpt lat="41.864964144724574" lon="19.84113303383268"><ele>222.39999999999998</ele><time>2026-04-29T15:40:50Z</time></trkpt><trkpt lat="41.864945827827" lon="19.840983845100908"><ele>223.2</ele><time>2026-04-29T15:40:51Z</time></trkpt><trkpt lat="41.86496260222534" lon="19.84089284256409"><ele>224.0</ele><time>2026-04-29T15:40:52Z</time></trkpt><trkpt lat="41.86504247333613" lon="19.840810590125084"><ele>228.25</ele><time>2026-04-29T15:40:53Z</time></trkpt><trkpt lat="41.86512077848961" lon="19.84065590208628"><ele>232.5</ele><time>2026-04-29T15:40:54Z</time></trkpt><trkpt lat="41.86516619798346" lon="19.840478181586917"><ele>236.75</ele><time>2026-04-29T15:40:55Z</time></trkpt><trkpt lat="41.86521374197486" lon="19.84035628126905"><ele>241.0</ele><time>2026-04-29T15:40:56Z</time></trkpt><trkpt lat="41.86530171058752" lon="19.840277410386477"><ele>241.0</ele><time>2026-04-29T15:40:57Z</time></trkpt><trkpt lat="41.86543139546576" lon="19.84020290220715"><ele>241.0</ele><time>2026-04-29T15:40:58.001Z</time></trkpt><trkpt lat="41.865589733170204" lon="19.84009809073807"><ele>241.0</ele><time>2026-04-29T15:40:59.001Z</time></trkpt><trkpt lat="41.86573893884045" lon="19.839938579626818"><ele>240.4</ele><time>2026-04-29T15:41:00.001Z</time></trkpt><trkpt lat="41.86587092448876" lon="19.83980692381906"><ele>239.8</ele><time>2026-04-29T15:41:01.001Z</time></trkpt><trkpt lat="41.86597501052997" lon="19.839729335165853"><ele>239.20000000000002</ele><time>2026-04-29T15:41:02.001Z</time></trkpt><trkpt lat="41.86603044921405" lon="19.839677314244888"><ele>238.60000000000002</ele><time>2026-04-29T15:41:03.001Z</time></trkpt><trkpt lat="41.86605524435266" lon="19.839578475952273"><ele>238.0</ele><time>2026-04-29T15:41:04.001Z</time></trkpt><trkpt lat="41.8660446394609" lon="19.839468095050186"><ele>238.0</ele><time>2026-04-29T15:41:05.001Z</time></trkpt><trkpt lat="41.8659974412467" lon="19.839377189214396"><ele>238.0</ele><time>2026-04-29T15:41:06.001Z</time></trkpt><trkpt lat="41.86593449270252" lon="19.839313498421117"><ele>238.0</ele><time>2026-04-29T15:41:07.001Z</time></trkpt><trkpt lat="41.865817834810855" lon="19.83933376028671"><ele>238.0</ele><time>2026-04-29T15:41:08.001Z</time></trkpt><trkpt lat="41.865706612916604" lon="19.839346153623577"><ele>238.0</ele><time>2026-04-29T15:41:09.001Z</time></trkpt><trkpt lat="41.865572100382096" lon="19.839307435809513"><ele>238.60000000000002</ele><time>2026-04-29T15:41:10.001Z</time></trkpt><trkpt lat="41.86547928954815" lon="19.83926807364717"><ele>239.20000000000002</ele><time>2026-04-29T15:41:11.001Z</time></trkpt><trkpt lat="41.8654280639347" lon="19.839194844189883"><ele>239.8</ele><time>2026-04-29T15:41:13.001Z</time></trkpt><trkpt lat="41.865448990668995" lon="19.839049545084247"><ele>240.4</ele><time>2026-04-29T15:41:15.001Z</time></trkpt><trkpt lat="41.86549058801078" lon="19.838919388781544"><ele>241.0</ele><time>2026-04-29T15:41:16.001Z</time></trkpt><trkpt lat="41.86550871343828" lon="19.83873175164074"><ele>241.0</ele><time>2026-04-29T15:41:17.001Z</time></trkpt><trkpt lat="41.86551076038687" lon="19.838547161009735"><ele>241.0</ele><time>2026-04-29T15:41:18.001Z</time></trkpt><trkpt lat="41.865503533863645" lon="19.83836297649435"><ele>241.0</ele><time>2026-04-29T15:41:19.001Z</time></trkpt><trkpt lat="41.865548717306275" lon="19.83822737910772"><ele>241.0</ele><time>2026-04-29T15:41:20.001Z</time></trkpt><trkpt lat="41.86558978629287" lon="19.838147468592044"><ele>242.25</ele><time>2026-04-29T15:41:21.001Z</time></trkpt><trkpt lat="41.8656468126558" lon="19.838094977221512"><ele>243.5</ele><time>2026-04-29T15:41:22.001Z</time></trkpt><trkpt lat="41.86573299109548" lon="19.838065515011753"><ele>244.75</ele><time>2026-04-29T15:41:23.001Z</time></trkpt><trkpt lat="41.86586697320768" lon="19.83803301111267"><ele>246.0</ele><time>2026-04-29T15:41:24.001Z</time></trkpt><trkpt lat="41.86603297477487" lon="19.83797475090637"><ele>247.66666666666669</ele><time>2026-04-29T15:41:25.001Z</time></trkpt><trkpt lat="41.866169640302786" lon="19.837846745250864"><ele>249.33333333333334</ele><time>2026-04-29T15:41:26.001Z</time></trkpt><trkpt lat="41.86631665685474" lon="19.837787960247272"><ele>251.0</ele><time>2026-04-29T15:41:27.001Z</time></trkpt><trkpt lat="41.86645737910683" lon="19.83773364027208"><ele>251.0</ele><time>2026-04-29T15:41:28.001Z</time></trkpt><trkpt lat="41.86658857148005" lon="19.837682998813182"><ele>251.00000000000003</ele><time>2026-04-29T15:41:29.001Z</time></trkpt><trkpt lat="41.86669301174775" lon="19.83762271938924"><ele>251.00000000000003</ele><time>2026-04-29T15:41:30.001Z</time></trkpt><trkpt lat="41.86679611177998" lon="19.83763268065247"><ele>251.0</ele><time>2026-04-29T15:41:31.001Z</time></trkpt><trkpt lat="41.866875772422965" lon="19.837658610903922"><ele>251.0</ele><time>2026-04-29T15:41:32.001Z</time></trkpt><trkpt lat="41.86696662284903" lon="19.837727038618187"><ele>251.4</ele><time>2026-04-29T15:41:33.001Z</time></trkpt><trkpt lat="41.86704478777761" lon="19.837826126994194"><ele>251.8</ele><time>2026-04-29T15:41:34.001Z</time></trkpt><trkpt lat="41.86713572705413" lon="19.837887674794285"><ele>252.20000000000002</ele><time>2026-04-29T15:41:35.001Z</time></trkpt><trkpt lat="41.86725170574655" lon="19.837829116711973"><ele>252.60000000000002</ele><time>2026-04-29T15:41:38.001Z</time></trkpt><trkpt lat="41.867347575307136" lon="19.837756367450776"><ele>253.0</ele><time>2026-04-29T15:41:39.001Z</time></trkpt><trkpt lat="41.867428483587716" lon="19.83764614951262"><ele>250.33333333333331</ele><time>2026-04-29T15:41:40.001Z</time></trkpt><trkpt lat="41.867496764593895" lon="19.83755428814461"><ele>247.66666666666666</ele><time>2026-04-29T15:41:41.001Z</time></trkpt><trkpt lat="41.867560311491964" lon="19.83749157557919"><ele>245.0</ele><time>2026-04-29T15:41:42.001Z</time></trkpt><trkpt lat="41.867619363623525" lon="19.83745613888775"><ele>242.33333333333331</ele><time>2026-04-29T15:41:43.001Z</time></trkpt><trkpt lat="41.86768779391207" lon="19.837424046737805"><ele>239.66666666666666</ele><time>2026-04-29T15:41:44.001Z</time></trkpt><trkpt lat="41.867763152576046" lon="19.837454347139168"><ele>237.0</ele><time>2026-04-29T15:41:45.001Z</time></trkpt><trkpt lat="41.86785545054004" lon="19.83746320931012"><ele>236.8</ele><time>2026-04-29T15:41:46.001Z</time></trkpt><trkpt lat="41.867934970471005" lon="19.837518422712282"><ele>236.6</ele><time>2026-04-29T15:41:47.001Z</time></trkpt><trkpt lat="41.86802605088192" lon="19.837547934073427"><ele>236.40000000000003</ele><time>2026-04-29T15:41:48.001Z</time></trkpt><trkpt lat="41.86809679300286" lon="19.837563519313008"><ele>236.20000000000002</ele><time>2026-04-29T15:41:49.001Z</time></trkpt><trkpt lat="41.86820549628529" lon="19.83757535591618"><ele>236.0</ele><time>2026-04-29T15:41:51.001Z</time></trkpt><trkpt lat="41.868297933547204" lon="19.83758599234185"><ele>236.00000000000003</ele><time>2026-04-29T15:41:53Z</time></trkpt><trkpt lat="41.86836267646442" lon="19.837593734508946"><ele>236.0</ele><time>2026-04-29T15:41:55Z</time></trkpt><trkpt lat="41.868400444722305" lon="19.83748112246104"><ele>236.0</ele><time>2026-04-29T15:41:58Z</time></trkpt><trkpt lat="41.86836235328125" lon="19.837406800502073"><ele>236.0</ele><time>2026-04-29T15:42:01Z</time></trkpt><trkpt lat="41.868426487233016" lon="19.837448617453365"><ele>236.00000000000003</ele><time>2026-04-29T15:42:19Z</time></trkpt><trkpt lat="41.86833168172015" lon="19.83756419885027"><ele>236.0</ele><time>2026-04-29T15:42:35Z</time></trkpt><trkpt lat="41.86828910173007" lon="19.837365546069385"><ele>236.0</ele><time>2026-04-29T15:42:37Z</time></trkpt><trkpt lat="41.868205659238846" lon="19.837333713448796"><ele>236.00000000000003</ele><time>2026-04-29T15:42:40Z</time></trkpt><trkpt lat="41.86811908797291" lon="19.83731931029137"><ele>236.00000000000003</ele><time>2026-04-29T15:42:42Z</time></trkpt><trkpt lat="41.86801353265043" lon="19.837274401238037"><ele>236.0</ele><time>2026-04-29T15:42:44Z</time></trkpt><trkpt lat="41.86791087258727" lon="19.837214201446752"><ele>236.0</ele><time>2026-04-29T15:42:46Z</time></trkpt><trkpt lat="41.867810474966404" lon="19.83712503390258"><ele>236.0</ele><time>2026-04-29T15:42:48Z</time></trkpt><trkpt lat="41.8677161066308" lon="19.837033455612115"><ele>236.00000000000003</ele><time>2026-04-29T15:42:50Z</time></trkpt><trkpt lat="41.86761071196099" lon="19.83693446277826"><ele>236.00000000000003</ele><time>2026-04-29T15:42:52Z</time></trkpt><trkpt lat="41.86755631460172" lon="19.836883187296323"><ele>236.0</ele><time>2026-04-29T15:42:53Z</time></trkpt><trkpt lat="41.86750401616197" lon="19.836833045471284"><ele>236.0</ele><time>2026-04-29T15:42:54Z</time></trkpt><trkpt lat="41.867406587480396" lon="19.8367414989687"><ele>232.4</ele><time>2026-04-29T15:42:56Z</time></trkpt><trkpt lat="41.867352272347546" lon="19.8366958430481"><ele>228.8</ele><time>2026-04-29T15:42:57Z</time></trkpt><trkpt lat="41.8672498413313" lon="19.83660868734503"><ele>225.20000000000002</ele><time>2026-04-29T15:42:59Z</time></trkpt><trkpt lat="41.867201085026444" lon="19.83644864025616"><ele>221.60000000000002</ele><time>2026-04-29T15:43:01Z</time></trkpt><trkpt lat="41.86715784910641" lon="19.836382987313513"><ele>218.0</ele><time>2026-04-29T15:43:02Z</time></trkpt><trkpt lat="41.867101830742754" lon="19.836319238349418"><ele>218.00000000000003</ele><time>2026-04-29T15:43:03Z</time></trkpt><trkpt lat="41.86704381871711" lon="19.836238323667057"><ele>218.0</ele><time>2026-04-29T15:43:04Z</time></trkpt><trkpt lat="41.86697356309567" lon="19.836164298677637"><ele>218.0</ele><time>2026-04-29T15:43:05Z</time></trkpt><trkpt lat="41.8668935943663" lon="19.836101287490735"><ele>218.0</ele><time>2026-04-29T15:43:06Z</time></trkpt><trkpt lat="41.86682630247085" lon="19.836023647964343"><ele>218.00000000000003</ele><time>2026-04-29T15:43:07Z</time></trkpt><trkpt lat="41.86674831145505" lon="19.835971859845444"><ele>218.0</ele><time>2026-04-29T15:43:08Z</time></trkpt><trkpt lat="41.86665376813822" lon="19.83593323780969"><ele>216.33333333333334</ele><time>2026-04-29T15:43:09Z</time></trkpt><trkpt lat="41.8665605637101" lon="19.835905004865005"><ele>214.66666666666669</ele><time>2026-04-29T15:43:10Z</time></trkpt><trkpt lat="41.86647419537102" lon="19.835879864870684"><ele>213.0</ele><time>2026-04-29T15:43:11Z</time></trkpt><trkpt lat="41.866391449809015" lon="19.835885259201092"><ele>211.33333333333331</ele><time>2026-04-29T15:43:12Z</time></trkpt><trkpt lat="41.8663091440561" lon="19.83589110210836"><ele>209.66666666666666</ele><time>2026-04-29T15:43:13Z</time></trkpt><trkpt lat="41.86623452244483" lon="19.83589481934785"><ele>208.0</ele><time>2026-04-29T15:43:14Z</time></trkpt><trkpt lat="41.86613421580563" lon="19.83586700697038"><ele>208.0</ele><time>2026-04-29T15:43:16Z</time></trkpt><trkpt lat="41.86609069880974" lon="19.835779934692134"><ele>208.0</ele><time>2026-04-29T15:43:19Z</time></trkpt><trkpt lat="41.86605769402641" lon="19.83560968502316"><ele>208.0</ele><time>2026-04-29T15:43:21Z</time></trkpt><trkpt lat="41.866029933117005" lon="19.835500621341662"><ele>208.0</ele><time>2026-04-29T15:43:22Z</time></trkpt><trkpt lat="41.866025563357695" lon="19.83538594474187"><ele>208.0</ele><time>2026-04-29T15:43:23Z</time></trkpt><trkpt lat="41.86602831413137" lon="19.83528842628054"><ele>208.0</ele><time>2026-04-29T15:43:24Z</time></trkpt><trkpt lat="41.86604434351838" lon="19.83519909091957"><ele>208.0</ele><time>2026-04-29T15:43:25Z</time></trkpt><trkpt lat="41.866134630723536" lon="19.835111294383477"><ele>208.0</ele><time>2026-04-29T15:43:27Z</time></trkpt><trkpt lat="41.86623599950753" lon="19.83501111963474"><ele>208.0</ele><time>2026-04-29T15:43:29Z</time></trkpt><trkpt lat="41.86629557160682" lon="19.834947352284775"><ele>208.0</ele><time>2026-04-29T15:43:30Z</time></trkpt><trkpt lat="41.86635665116305" lon="19.834859282153754"><ele>208.16666666666666</ele><time>2026-04-29T15:43:31Z</time></trkpt><trkpt lat="41.866415256787064" lon="19.834759837445606"><ele>208.33333333333331</ele><time>2026-04-29T15:43:32Z</time></trkpt><trkpt lat="41.86647887838634" lon="19.83468330016569"><ele>208.5</ele><time>2026-04-29T15:43:33Z</time></trkpt><trkpt lat="41.86650532946113" lon="19.834590722377435"><ele>208.66666666666669</ele><time>2026-04-29T15:43:34Z</time></trkpt><trkpt lat="41.86654629886288" lon="19.834508946102545"><ele>208.83333333333334</ele><time>2026-04-29T15:43:35Z</time></trkpt><trkpt lat="41.86659058248443" lon="19.834420342130265"><ele>209.0</ele><time>2026-04-29T15:43:36Z</time></trkpt><trkpt lat="41.86662811510735" lon="19.834319397813147"><ele>210.2</ele><time>2026-04-29T15:43:37Z</time></trkpt><trkpt lat="41.86665586156841" lon="19.834205272880098"><ele>211.39999999999998</ele><time>2026-04-29T15:43:38Z</time></trkpt><trkpt lat="41.86669735007974" lon="19.834087115463134"><ele>212.6</ele><time>2026-04-29T15:43:39Z</time></trkpt><trkpt lat="41.86672584230681" lon="19.833962677508115"><ele>213.8</ele><time>2026-04-29T15:43:40Z</time></trkpt><trkpt lat="41.866753635967015" lon="19.833841540261638"><ele>215.0</ele><time>2026-04-29T15:43:41Z</time></trkpt><trkpt lat="41.8667799485835" lon="19.83372763063754"><ele>216.83333333333334</ele><time>2026-04-29T15:43:42Z</time></trkpt><trkpt lat="41.86680788275443" lon="19.8336067008476"><ele>218.66666666666669</ele><time>2026-04-29T15:43:43Z</time></trkpt><trkpt lat="41.866834030696616" lon="19.833492801694355"><ele>220.5</ele><time>2026-04-29T15:43:44Z</time></trkpt><trkpt lat="41.86686448877963" lon="19.8334088588783"><ele>222.33333333333331</ele><time>2026-04-29T15:43:45Z</time></trkpt><trkpt lat="41.866897755634724" lon="19.833316520099714"><ele>224.16666666666666</ele><time>2026-04-29T15:43:46Z</time></trkpt><trkpt lat="41.86692030677498" lon="19.83321051894868"><ele>226.0</ele><time>2026-04-29T15:43:47Z</time></trkpt><trkpt lat="41.866973618112546" lon="19.833116906016556"><ele>225.83333333333331</ele><time>2026-04-29T15:43:48Z</time></trkpt><trkpt lat="41.867018098687204" lon="19.83303403445049"><ele>225.66666666666666</ele><time>2026-04-29T15:43:49Z</time></trkpt><trkpt lat="41.8670588792166" lon="19.832945987477206"><ele>225.5</ele><time>2026-04-29T15:43:50Z</time></trkpt><trkpt lat="41.867105310321506" lon="19.83285399454402"><ele>225.33333333333331</ele><time>2026-04-29T15:43:51Z</time></trkpt><trkpt lat="41.867154509541884" lon="19.83275765064196"><ele>225.16666666666666</ele><time>2026-04-29T15:43:52Z</time></trkpt><trkpt lat="41.86720916217371" lon="19.832649087580407"><ele>225.0</ele><time>2026-04-29T15:43:53Z</time></trkpt><trkpt lat="41.86725474216831" lon="19.832551588235003"><ele>225.0</ele><time>2026-04-29T15:43:54Z</time></trkpt><trkpt lat="41.86730011514551" lon="19.83246350640608"><ele>225.0</ele><time>2026-04-29T15:43:55Z</time></trkpt><trkpt lat="41.86734816832495" lon="19.832360036869677"><ele>225.0</ele><time>2026-04-29T15:43:56Z</time></trkpt><trkpt lat="41.86738892217725" lon="19.832266154232006"><ele>225.0</ele><time>2026-04-29T15:43:57Z</time></trkpt><trkpt lat="41.86743132885676" lon="19.832172954874455"><ele>225.0</ele><time>2026-04-29T15:43:58Z</time></trkpt><trkpt lat="41.86747090507423" lon="19.83209533121737"><ele>225.0</ele><time>2026-04-29T15:43:59Z</time></trkpt><trkpt lat="41.86751032054894" lon="19.832014340633922"><ele>225.0</ele><time>2026-04-29T15:44:00Z</time></trkpt><trkpt lat="41.86754968398228" lon="19.831934213013504"><ele>225.0</ele><time>2026-04-29T15:44:01Z</time></trkpt><trkpt lat="41.867600263408306" lon="19.831858458774803"><ele>225.0</ele><time>2026-04-29T15:44:02Z</time></trkpt><trkpt lat="41.867656316959774" lon="19.831789859032135"><ele>225.0</ele><time>2026-04-29T15:44:03Z</time></trkpt><trkpt lat="41.86771729560757" lon="19.83172767573132"><ele>225.0</ele><time>2026-04-29T15:44:04Z</time></trkpt><trkpt lat="41.8677812363351" lon="19.83166344342017"><ele>225.0</ele><time>2026-04-29T15:44:05Z</time></trkpt><trkpt lat="41.8678478686296" lon="19.831598758489577"><ele>224.33333333333334</ele><time>2026-04-29T15:44:06Z</time></trkpt><trkpt lat="41.86791212818859" lon="19.831538856748818"><ele>223.66666666666669</ele><time>2026-04-29T15:44:07Z</time></trkpt><trkpt lat="41.86798440975727" lon="19.83149056803488"><ele>223.0</ele><time>2026-04-29T15:44:08Z</time></trkpt><trkpt lat="41.86806432489287" lon="19.831428860454043"><ele>222.33333333333334</ele><time>2026-04-29T15:44:09Z</time></trkpt><trkpt lat="41.86813492919711" lon="19.831386820625763"><ele>221.66666666666669</ele><time>2026-04-29T15:44:10Z</time></trkpt><trkpt lat="41.86820001658389" lon="19.831342559862577"><ele>221.0</ele><time>2026-04-29T15:44:11Z</time></trkpt><trkpt lat="41.86827915343345" lon="19.831292403545298"><ele>221.00000000000003</ele><time>2026-04-29T15:44:12Z</time></trkpt><trkpt lat="41.86835537790305" lon="19.831239483549524"><ele>221.0</ele><time>2026-04-29T15:44:13Z</time></trkpt><trkpt lat="41.86843911465719" lon="19.831205025363218"><ele>221.0</ele><time>2026-04-29T15:44:14Z</time></trkpt><trkpt lat="41.86852635143324" lon="19.831181546605272"><ele>221.0</ele><time>2026-04-29T15:44:15Z</time></trkpt><trkpt lat="41.86859959182712" lon="19.831145598242426"><ele>221.00000000000003</ele><time>2026-04-29T15:44:16Z</time></trkpt><trkpt lat="41.868671731823014" lon="19.831097882314268"><ele>221.0</ele><time>2026-04-29T15:44:17Z</time></trkpt><trkpt lat="41.868753888361006" lon="19.831036743351852"><ele>220.8</ele><time>2026-04-29T15:44:18Z</time></trkpt><trkpt lat="41.86883862492502" lon="19.830962586577964"><ele>220.60000000000002</ele><time>2026-04-29T15:44:19Z</time></trkpt><trkpt lat="41.86890189299897" lon="19.8308744556587"><ele>220.4</ele><time>2026-04-29T15:44:20Z</time></trkpt><trkpt lat="41.86896377805638" lon="19.830796678785997"><ele>220.2</ele><time>2026-04-29T15:44:21Z</time></trkpt><trkpt lat="41.869037559608465" lon="19.83070166931874"><ele>220.0</ele><time>2026-04-29T15:44:22Z</time></trkpt><trkpt lat="41.86910845294475" lon="19.830603251962714"><ele>220.0</ele><time>2026-04-29T15:44:23Z</time></trkpt><trkpt lat="41.86917886808212" lon="19.830506260127397"><ele>220.0</ele><time>2026-04-29T15:44:24Z</time></trkpt><trkpt lat="41.869235848795945" lon="19.830428732246666"><ele>220.0</ele><time>2026-04-29T15:44:25Z</time></trkpt><trkpt lat="41.86929721735969" lon="19.830348525231738"><ele>220.0</ele><time>2026-04-29T15:44:26Z</time></trkpt><trkpt lat="41.869371444280894" lon="19.830260235828842"><ele>220.0</ele><time>2026-04-29T15:44:27Z</time></trkpt><trkpt lat="41.86944310609522" lon="19.830175124477005"><ele>219.49999999999997</ele><time>2026-04-29T15:44:28Z</time></trkpt><trkpt lat="41.86950873704613" lon="19.830097175922546"><ele>219.0</ele><time>2026-04-29T15:44:29Z</time></trkpt><trkpt lat="41.86955999944942" lon="19.830009283236585"><ele>218.5</ele><time>2026-04-29T15:44:30Z</time></trkpt><trkpt lat="41.86962704969722" lon="19.82993546557695"><ele>218.0</ele><time>2026-04-29T15:44:31Z</time></trkpt><trkpt lat="41.869690987934405" lon="19.82986810717648"><ele>217.49999999999997</ele><time>2026-04-29T15:44:32Z</time></trkpt><trkpt lat="41.86974636044434" lon="19.82980761652266"><ele>217.0</ele><time>2026-04-29T15:44:33Z</time></trkpt><trkpt lat="41.869794547508775" lon="19.82974550103231"><ele>217.0</ele><time>2026-04-29T15:44:34Z</time></trkpt><trkpt lat="41.86989634056923" lon="19.829633032095643"><ele>217.0</ele><time>2026-04-29T15:44:36Z</time></trkpt><trkpt lat="41.86999859231155" lon="19.82958148610274"><ele>217.0</ele><time>2026-04-29T15:44:38Z</time></trkpt><trkpt lat="41.870114065640024" lon="19.829575124377556"><ele>217.0</ele><time>2026-04-29T15:44:40Z</time></trkpt><trkpt lat="41.87020346641303" lon="19.82957086848906"><ele>217.0</ele><time>2026-04-29T15:44:42Z</time></trkpt><trkpt lat="41.87027506045478" lon="19.829523911492235"><ele>216.66666666666666</ele><time>2026-04-29T15:44:44Z</time></trkpt><trkpt lat="41.8703469510418" lon="19.82941767490915"><ele>216.33333333333331</ele><time>2026-04-29T15:44:46Z</time></trkpt><trkpt lat="41.870422079858585" lon="19.82941119595128"><ele>216.0</ele><time>2026-04-29T15:44:48Z</time></trkpt><trkpt lat="41.870492074331516" lon="19.82944025300124"><ele>215.66666666666669</ele><time>2026-04-29T15:44:51Z</time></trkpt><trkpt lat="41.87056555827699" lon="19.829490733907658"><ele>215.33333333333334</ele><time>2026-04-29T15:44:54Z</time></trkpt><trkpt lat="41.87063713209183" lon="19.829527760252603"><ele>215.0</ele><time>2026-04-29T15:44:57Z</time></trkpt><trkpt lat="41.87069764116584" lon="19.829586645971776"><ele>215.0</ele><time>2026-04-29T15:45:01Z</time></trkpt><trkpt lat="41.87077200459761" lon="19.829605807553616"><ele>215.0</ele><time>2026-04-29T15:45:12Z</time></trkpt><trkpt lat="41.87087653598314" lon="19.82959446222777"><ele>215.0</ele><time>2026-04-29T15:45:14Z</time></trkpt><trkpt lat="41.870987724920965" lon="19.829573914055413"><ele>215.0</ele><time>2026-04-29T15:45:16Z</time></trkpt><trkpt lat="41.87111156718359" lon="19.829544432843253"><ele>215.0</ele><time>2026-04-29T15:45:18Z</time></trkpt><trkpt lat="41.87118033474248" lon="19.829524740032742"><ele>215.66666666666669</ele><time>2026-04-29T15:45:19Z</time></trkpt><trkpt lat="41.87125381352823" lon="19.829481497879502"><ele>216.33333333333334</ele><time>2026-04-29T15:45:20Z</time></trkpt><trkpt lat="41.87132615104861" lon="19.8294332222758"><ele>217.0</ele><time>2026-04-29T15:45:21Z</time></trkpt><trkpt lat="41.87139599415124" lon="19.82935923696049"><ele>217.66666666666669</ele><time>2026-04-29T15:45:22Z</time></trkpt><trkpt lat="41.87144578840492" lon="19.829286791375825"><ele>218.33333333333334</ele><time>2026-04-29T15:45:23Z</time></trkpt><trkpt lat="41.87147050370805" lon="19.82919258834011"><ele>219.0</ele><time>2026-04-29T15:45:24Z</time></trkpt><trkpt lat="41.87149653325488" lon="19.8291114796278"><ele>220.5</ele><time>2026-04-29T15:45:25Z</time></trkpt><trkpt lat="41.87152195095763" lon="19.82903245562728"><ele>222.0</ele><time>2026-04-29T15:45:26Z</time></trkpt><trkpt lat="41.871588892212664" lon="19.82893323587258"><ele>223.5</ele><time>2026-04-29T15:45:28Z</time></trkpt><trkpt lat="41.871637432167546" lon="19.828825792290203"><ele>225.0</ele><time>2026-04-29T15:45:30Z</time></trkpt><trkpt lat="41.87165786786493" lon="19.828737213588322"><ele>226.5</ele><time>2026-04-29T15:45:33Z</time></trkpt><trkpt lat="41.87168384641657" lon="19.828656605509977"><ele>228.0</ele><time>2026-04-29T15:45:45Z</time></trkpt><trkpt lat="41.871728502407876" lon="19.82851748250057"><ele>228.28571428571428</ele><time>2026-04-29T15:45:47Z</time></trkpt><trkpt lat="41.87176414382485" lon="19.828423659925775"><ele>228.57142857142856</ele><time>2026-04-29T15:45:48Z</time></trkpt><trkpt lat="41.87180523205923" lon="19.828334016789007"><ele>228.85714285714283</ele><time>2026-04-29T15:45:49Z</time></trkpt><trkpt lat="41.87184227173378" lon="19.828246770735575"><ele>229.1428571428571</ele><time>2026-04-29T15:45:50Z</time></trkpt><trkpt lat="41.87186921726014" lon="19.828164481377765"><ele>229.42857142857142</ele><time>2026-04-29T15:45:51Z</time></trkpt><trkpt lat="41.87189647767397" lon="19.828081130670988"><ele>229.71428571428567</ele><time>2026-04-29T15:45:52Z</time></trkpt><trkpt lat="41.87190418888125" lon="19.82798452689889"><ele>229.99999999999997</ele><time>2026-04-29T15:45:53Z</time></trkpt><trkpt lat="41.87190744346757" lon="19.827894835218718"><ele>229.33333333333334</ele><time>2026-04-29T15:45:54Z</time></trkpt><trkpt lat="41.8718993396895" lon="19.8277973006526"><ele>228.66666666666669</ele><time>2026-04-29T15:45:55Z</time></trkpt><trkpt lat="41.87184610751566" lon="19.82769244796304"><ele>228.0</ele><time>2026-04-29T15:45:56Z</time></trkpt><trkpt lat="41.87177897346217" lon="19.827619978856394"><ele>227.33333333333331</ele><time>2026-04-29T15:45:57Z</time></trkpt><trkpt lat="41.87171778831542" lon="19.827550258658594"><ele>226.66666666666666</ele><time>2026-04-29T15:45:58Z</time></trkpt><trkpt lat="41.87164703131357" lon="19.827469759025238"><ele>226.0</ele><time>2026-04-29T15:45:59Z</time></trkpt><trkpt lat="41.87157846914234" lon="19.82739174007757"><ele>225.99999999999997</ele><time>2026-04-29T15:46:00Z</time></trkpt><trkpt lat="41.87150840825047" lon="19.82731706643468"><ele>226.0</ele><time>2026-04-29T15:46:01Z</time></trkpt><trkpt lat="41.8714433617699" lon="19.82724235822718"><ele>226.0</ele><time>2026-04-29T15:46:02Z</time></trkpt><trkpt lat="41.87138361998545" lon="19.827168962929886"><ele>226.0</ele><time>2026-04-29T15:46:03Z</time></trkpt><trkpt lat="41.87136496412464" lon="19.82708268812573"><ele>225.99999999999997</ele><time>2026-04-29T15:46:04Z</time></trkpt><trkpt lat="41.87133873071927" lon="19.826980060486914"><ele>226.0</ele><time>2026-04-29T15:46:05Z</time></trkpt><trkpt lat="41.87132346008955" lon="19.82685871558498"><ele>225.4</ele><time>2026-04-29T15:46:06Z</time></trkpt><trkpt lat="41.871305809137596" lon="19.826734666455394"><ele>224.8</ele><time>2026-04-29T15:46:07Z</time></trkpt><trkpt lat="41.87128802990161" lon="19.826609647307002"><ele>224.20000000000002</ele><time>2026-04-29T15:46:08Z</time></trkpt><trkpt lat="41.87128665528361" lon="19.82648102414981"><ele>223.60000000000002</ele><time>2026-04-29T15:46:09Z</time></trkpt><trkpt lat="41.8712855515572" lon="19.826357489710436"><ele>223.0</ele><time>2026-04-29T15:46:10Z</time></trkpt><trkpt lat="41.87128335510789" lon="19.826231022084436"><ele>223.0</ele><time>2026-04-29T15:46:11Z</time></trkpt><trkpt lat="41.87127697286137" lon="19.826092912495316"><ele>223.0</ele><time>2026-04-29T15:46:12Z</time></trkpt><trkpt lat="41.87126990638241" lon="19.825960932398967"><ele>223.0</ele><time>2026-04-29T15:46:13Z</time></trkpt><trkpt lat="41.87126316319833" lon="19.825834993409725"><ele>223.0</ele><time>2026-04-29T15:46:14Z</time></trkpt><trkpt lat="41.87128339427127" lon="19.825712552439782"><ele>223.0</ele><time>2026-04-29T15:46:15Z</time></trkpt><trkpt lat="41.871311998607" lon="19.825586877271533"><ele>223.0</ele><time>2026-04-29T15:46:16Z</time></trkpt><trkpt lat="41.87135093878361" lon="19.825459244871755"><ele>223.0</ele><time>2026-04-29T15:46:17Z</time></trkpt><trkpt lat="41.871382330621714" lon="19.8253528461793"><ele>223.0</ele><time>2026-04-29T15:46:18Z</time></trkpt><trkpt lat="41.871408200578024" lon="19.825237543065953"><ele>223.0</ele><time>2026-04-29T15:46:19Z</time></trkpt><trkpt lat="41.87142673983315" lon="19.825117310027306"><ele>223.0</ele><time>2026-04-29T15:46:20Z</time></trkpt><trkpt lat="41.87144641139135" lon="19.824985691417652"><ele>223.60000000000002</ele><time>2026-04-29T15:46:21Z</time></trkpt><trkpt lat="41.87147093295756" lon="19.82484804336512"><ele>224.20000000000002</ele><time>2026-04-29T15:46:22Z</time></trkpt><trkpt lat="41.87150403260626" lon="19.824711339734264"><ele>224.8</ele><time>2026-04-29T15:46:23Z</time></trkpt><trkpt lat="41.87153225115872" lon="19.82459397932777"><ele>225.4</ele><time>2026-04-29T15:46:24Z</time></trkpt><trkpt lat="41.871559584623185" lon="19.824480527651026"><ele>226.0</ele><time>2026-04-29T15:46:25Z</time></trkpt><trkpt lat="41.87158967674983" lon="19.82435865276839"><ele>227.60000000000002</ele><time>2026-04-29T15:46:26Z</time></trkpt><trkpt lat="41.871623170032265" lon="19.824223695856"><ele>229.20000000000002</ele><time>2026-04-29T15:46:27Z</time></trkpt><trkpt lat="41.871656576654864" lon="19.824090408696105"><ele>230.79999999999998</ele><time>2026-04-29T15:46:28Z</time></trkpt><trkpt lat="41.87168761985085" lon="19.823966840821203"><ele>232.39999999999998</ele><time>2026-04-29T15:46:29Z</time></trkpt><trkpt lat="41.87171600106742" lon="19.823852369985723"><ele>234.0</ele><time>2026-04-29T15:46:30Z</time></trkpt><trkpt lat="41.871746615624254" lon="19.823730074927077"><ele>232.66666666666666</ele><time>2026-04-29T15:46:31Z</time></trkpt><trkpt lat="41.87177677926384" lon="19.823608138432167"><ele>231.33333333333331</ele><time>2026-04-29T15:46:32Z</time></trkpt><trkpt lat="41.871804927584364" lon="19.823493806729704"><ele>230.0</ele><time>2026-04-29T15:46:33Z</time></trkpt><trkpt lat="41.87184602492433" lon="19.82342170081902"><ele>228.66666666666666</ele><time>2026-04-29T15:46:34Z</time></trkpt><trkpt lat="41.87189464336557" lon="19.823318794505415"><ele>227.33333333333331</ele><time>2026-04-29T15:46:35Z</time></trkpt><trkpt lat="41.87194529314796" lon="19.823211588849446"><ele>226.0</ele><time>2026-04-29T15:46:36Z</time></trkpt><trkpt lat="41.871984758802746" lon="19.823128057976817"><ele>225.49999999999997</ele><time>2026-04-29T15:46:37Z</time></trkpt><trkpt lat="41.87201271518255" lon="19.823031407953142"><ele>225.0</ele><time>2026-04-29T15:46:38Z</time></trkpt><trkpt lat="41.87203511531771" lon="19.822928584842288"><ele>224.5</ele><time>2026-04-29T15:46:39Z</time></trkpt><trkpt lat="41.8720584648805" lon="19.822832354621564"><ele>224.0</ele><time>2026-04-29T15:46:40Z</time></trkpt><trkpt lat="41.87211050205018" lon="19.82276224643011"><ele>223.49999999999997</ele><time>2026-04-29T15:46:41Z</time></trkpt><trkpt lat="41.87215751715376" lon="19.822676887513886"><ele>223.0</ele><time>2026-04-29T15:46:42Z</time></trkpt><trkpt lat="41.872210872752504" lon="19.822580253842027"><ele>224.16666666666666</ele><time>2026-04-29T15:46:43Z</time></trkpt><trkpt lat="41.872257350008596" lon="19.822494703037265"><ele>225.33333333333331</ele><time>2026-04-29T15:46:44Z</time></trkpt><trkpt lat="41.872308012253725" lon="19.82239437202208"><ele>226.5</ele><time>2026-04-29T15:46:45Z</time></trkpt><trkpt lat="41.872355672852734" lon="19.822286914705607"><ele>227.66666666666669</ele><time>2026-04-29T15:46:46Z</time></trkpt><trkpt lat="41.87240399947588" lon="19.82217808374845"><ele>228.83333333333334</ele><time>2026-04-29T15:46:47Z</time></trkpt><trkpt lat="41.87244974861544" lon="19.822075467061207"><ele>230.0</ele><time>2026-04-29T15:46:48Z</time></trkpt><trkpt lat="41.87249547064094" lon="19.821971512609995"><ele>230.00000000000003</ele><time>2026-04-29T15:46:49Z</time></trkpt><trkpt lat="41.87253661348955" lon="19.821878928305093"><ele>230.0</ele><time>2026-04-29T15:46:50Z</time></trkpt><trkpt lat="41.87257175223309" lon="19.821799854940792"><ele>230.0</ele><time>2026-04-29T15:46:51Z</time></trkpt><trkpt lat="41.87258272837858" lon="19.82171326228784"><ele>230.0</ele><time>2026-04-29T15:46:52Z</time></trkpt><trkpt lat="41.872543109231735" lon="19.821567988112754"><ele>230.00000000000003</ele><time>2026-04-29T15:46:54Z</time></trkpt><trkpt lat="41.87248665862933" lon="19.821487614114492"><ele>230.0</ele><time>2026-04-29T15:46:55Z</time></trkpt><trkpt lat="41.872408420193395" lon="19.821410153000407"><ele>231.6</ele><time>2026-04-29T15:46:56Z</time></trkpt><trkpt lat="41.87233520188946" lon="19.821320116356823"><ele>233.2</ele><time>2026-04-29T15:46:57Z</time></trkpt><trkpt lat="41.87226198503323" lon="19.821262321927133"><ele>234.8</ele><time>2026-04-29T15:46:58Z</time></trkpt><trkpt lat="41.8722182526461" lon="19.821150489699836"><ele>236.4</ele><time>2026-04-29T15:47:00Z</time></trkpt><trkpt lat="41.872288800916756" lon="19.821057208826026"><ele>238.0</ele><time>2026-04-29T15:47:02Z</time></trkpt><trkpt lat="41.87237791287672" lon="19.821002708703304"><ele>237.99999999999997</ele><time>2026-04-29T15:47:04Z</time></trkpt><trkpt lat="41.87244091264841" lon="19.82104855301006"><ele>238.0</ele><time>2026-04-29T15:47:05Z</time></trkpt><trkpt lat="41.8725115503252" lon="19.82105247669237"><ele>238.0</ele><time>2026-04-29T15:47:06Z</time></trkpt><trkpt lat="41.87259849759163" lon="19.821051558962193"><ele>238.0</ele><time>2026-04-29T15:47:07Z</time></trkpt><trkpt lat="41.87269000660151" lon="19.82101914363291"><ele>237.99999999999997</ele><time>2026-04-29T15:47:08Z</time></trkpt><trkpt lat="41.87277361114772" lon="19.820953835127998"><ele>238.0</ele><time>2026-04-29T15:47:09Z</time></trkpt><trkpt lat="41.8728435283091" lon="19.820868364916468"><ele>236.99999999999997</ele><time>2026-04-29T15:47:10Z</time></trkpt><trkpt lat="41.87289039963612" lon="19.820774481367213"><ele>236.0</ele><time>2026-04-29T15:47:11Z</time></trkpt><trkpt lat="41.87294041002702" lon="19.82069279465407"><ele>235.0</ele><time>2026-04-29T15:47:12Z</time></trkpt><trkpt lat="41.872950888250784" lon="19.820580881406933"><ele>234.0</ele><time>2026-04-29T15:47:13Z</time></trkpt><trkpt lat="41.87296326534908" lon="19.82048164586241"><ele>232.99999999999997</ele><time>2026-04-29T15:47:14Z</time></trkpt><trkpt lat="41.87297637557628" lon="19.820366658111997"><ele>232.0</ele><time>2026-04-29T15:47:15Z</time></trkpt><trkpt lat="41.8729901215499" lon="19.82024196504897"><ele>232.99999999999997</ele><time>2026-04-29T15:47:16Z</time></trkpt><trkpt lat="41.8730114061805" lon="19.820111820100855"><ele>234.0</ele><time>2026-04-29T15:47:17Z</time></trkpt><trkpt lat="41.87303333037056" lon="19.819982153199998"><ele>235.0</ele><time>2026-04-29T15:47:18Z</time></trkpt><trkpt lat="41.87305109029467" lon="19.819867003590854"><ele>236.0</ele><time>2026-04-29T15:47:19Z</time></trkpt><trkpt lat="41.87307219844413" lon="19.819776523088645"><ele>236.99999999999997</ele><time>2026-04-29T15:47:20Z</time></trkpt><trkpt lat="41.873114448178825" lon="19.81968355366807"><ele>238.0</ele><time>2026-04-29T15:47:21Z</time></trkpt><trkpt lat="41.87317381495577" lon="19.819612356951858"><ele>237.99999999999997</ele><time>2026-04-29T15:47:22Z</time></trkpt><trkpt lat="41.873225261291175" lon="19.819525216203314"><ele>238.0</ele><time>2026-04-29T15:47:23Z</time></trkpt><trkpt lat="41.87327971937106" lon="19.81943033279399"><ele>238.0</ele><time>2026-04-29T15:47:24Z</time></trkpt><trkpt lat="41.873292747498546" lon="19.819328421188906"><ele>238.0</ele><time>2026-04-29T15:47:25Z</time></trkpt><trkpt lat="41.873288900344406" lon="19.819229703284932"><ele>237.99999999999997</ele><time>2026-04-29T15:47:26Z</time></trkpt><trkpt lat="41.87326661157577" lon="19.819103740865454"><ele>238.0</ele><time>2026-04-29T15:47:27Z</time></trkpt><trkpt lat="41.873234578469884" lon="19.8189690998071"><ele>238.60000000000002</ele><time>2026-04-29T15:47:28Z</time></trkpt><trkpt lat="41.87313378154796" lon="19.81886993106229"><ele>239.20000000000002</ele><time>2026-04-29T15:47:29Z</time></trkpt><trkpt lat="41.87308249770242" lon="19.818758287241092"><ele>239.8</ele><time>2026-04-29T15:47:30Z</time></trkpt><trkpt lat="41.873051046944944" lon="19.818673660574344"><ele>240.4</ele><time>2026-04-29T15:47:31Z</time></trkpt><trkpt lat="41.87303591513075" lon="19.818571031958573"><ele>241.0</ele><time>2026-04-29T15:47:32Z</time></trkpt><trkpt lat="41.8730604455592" lon="19.818451422275214"><ele>241.8</ele><time>2026-04-29T15:47:33Z</time></trkpt><trkpt lat="41.87303990143326" lon="19.818327385898343"><ele>242.60000000000002</ele><time>2026-04-29T15:47:34Z</time></trkpt><trkpt lat="41.87301166757952" lon="19.818193578469074"><ele>243.4</ele><time>2026-04-29T15:47:35Z</time></trkpt><trkpt lat="41.872983984964826" lon="19.818061182954967"><ele>244.2</ele><time>2026-04-29T15:47:36Z</time></trkpt><trkpt lat="41.872992118552695" lon="19.81795709917176"><ele>245.0</ele><time>2026-04-29T15:47:37Z</time></trkpt><trkpt lat="41.87301107745669" lon="19.817829091407546"><ele>245.0</ele><time>2026-04-29T15:47:38Z</time></trkpt><trkpt lat="41.87306630521562" lon="19.81770489183591"><ele>245.0</ele><time>2026-04-29T15:47:39Z</time></trkpt><trkpt lat="41.873115348708964" lon="19.817572886181363"><ele>245.0</ele><time>2026-04-29T15:47:40Z</time></trkpt><trkpt lat="41.87316015892045" lon="19.817448311052445"><ele>245.0</ele><time>2026-04-29T15:47:41Z</time></trkpt><trkpt lat="41.87319768482274" lon="19.81730094261987"><ele>245.0</ele><time>2026-04-29T15:47:42Z</time></trkpt><trkpt lat="41.87318344176047" lon="19.817163051877674"><ele>245.8</ele><time>2026-04-29T15:47:43Z</time></trkpt><trkpt lat="41.8731777358755" lon="19.81702593146589"><ele>246.6</ele><time>2026-04-29T15:47:44Z</time></trkpt><trkpt lat="41.87315795898514" lon="19.816890370169762"><ele>247.39999999999998</ele><time>2026-04-29T15:47:45Z</time></trkpt><trkpt lat="41.873147016591666" lon="19.81674993277035"><ele>248.2</ele><time>2026-04-29T15:47:46Z</time></trkpt><trkpt lat="41.873118146461756" lon="19.816600912877682"><ele>249.0</ele><time>2026-04-29T15:47:47Z</time></trkpt><trkpt lat="41.873087572882504" lon="19.816439194105918"><ele>249.5</ele><time>2026-04-29T15:47:48Z</time></trkpt><trkpt lat="41.87305890258261" lon="19.816267859991637"><ele>250.0</ele><time>2026-04-29T15:47:49Z</time></trkpt><trkpt lat="41.87303623104887" lon="19.81608855764676"><ele>250.5</ele><time>2026-04-29T15:47:50Z</time></trkpt><trkpt lat="41.873012602330945" lon="19.815904075845086"><ele>251.0</ele><time>2026-04-29T15:47:51Z</time></trkpt><trkpt lat="41.8729882479449" lon="19.815737264696327"><ele>251.0</ele><time>2026-04-29T15:47:52Z</time></trkpt><trkpt lat="41.872966651605864" lon="19.815587893842835"><ele>251.0</ele><time>2026-04-29T15:47:53Z</time></trkpt><trkpt lat="41.87294425732724" lon="19.815434008063434"><ele>251.0</ele><time>2026-04-29T15:47:54Z</time></trkpt><trkpt lat="41.87292556611675" lon="19.815279924649257"><ele>251.0</ele><time>2026-04-29T15:47:55Z</time></trkpt><trkpt lat="41.872909755952556" lon="19.81512091085619"><ele>250.25</ele><time>2026-04-29T15:47:56Z</time></trkpt><trkpt lat="41.87289424741865" lon="19.814953579525113"><ele>249.5</ele><time>2026-04-29T15:47:57Z</time></trkpt><trkpt lat="41.872900691148715" lon="19.814788261642992"><ele>248.75</ele><time>2026-04-29T15:47:58Z</time></trkpt><trkpt lat="41.87290943993885" lon="19.814636526813935"><ele>248.0</ele><time>2026-04-29T15:47:59Z</time></trkpt><trkpt lat="41.8729249489026" lon="19.814494511302012"><ele>248.0</ele><time>2026-04-29T15:48:00Z</time></trkpt><trkpt lat="41.87294217564699" lon="19.81434241460037"><ele>248.0</ele><time>2026-04-29T15:48:01Z</time></trkpt><trkpt lat="41.872965163690814" lon="19.814182477710265"><ele>248.0</ele><time>2026-04-29T15:48:02Z</time></trkpt><trkpt lat="41.87298820596096" lon="19.814022981554753"><ele>248.0</ele><time>2026-04-29T15:48:03Z</time></trkpt><trkpt lat="41.87301288413894" lon="19.813875100324452"><ele>247.0</ele><time>2026-04-29T15:48:04Z</time></trkpt><trkpt lat="41.87304288734119" lon="19.813720051098464"><ele>246.0</ele><time>2026-04-29T15:48:05Z</time></trkpt><trkpt lat="41.87308003727022" lon="19.813547296132526"><ele>245.0</ele><time>2026-04-29T15:48:06Z</time></trkpt><trkpt lat="41.873123363023474" lon="19.81337346413038"><ele>244.0</ele><time>2026-04-29T15:48:07Z</time></trkpt><trkpt lat="41.87316428507083" lon="19.813227237207805"><ele>244.0</ele><time>2026-04-29T15:48:08Z</time></trkpt><trkpt lat="41.873206072790445" lon="19.813098764096125"><ele>244.0</ele><time>2026-04-29T15:48:09Z</time></trkpt><trkpt lat="41.87325262344082" lon="19.81295564770726"><ele>244.0</ele><time>2026-04-29T15:48:10Z</time></trkpt><trkpt lat="41.87330212122436" lon="19.812803120411516"><ele>244.0</ele><time>2026-04-29T15:48:11Z</time></trkpt><trkpt lat="41.873354234771924" lon="19.81264230373982"><ele>244.2</ele><time>2026-04-29T15:48:12Z</time></trkpt><trkpt lat="41.87339615106477" lon="19.812489804406983"><ele>244.39999999999998</ele><time>2026-04-29T15:48:13Z</time></trkpt><trkpt lat="41.87343129850043" lon="19.812350631918964"><ele>244.6</ele><time>2026-04-29T15:48:14Z</time></trkpt><trkpt lat="41.873455000351335" lon="19.812217366333396"><ele>244.8</ele><time>2026-04-29T15:48:15Z</time></trkpt><trkpt lat="41.87344571685292" lon="19.81209397468346"><ele>245.0</ele><time>2026-04-29T15:48:16Z</time></trkpt><trkpt lat="41.87344664631785" lon="19.811987577914433"><ele>244.4</ele><time>2026-04-29T15:48:17Z</time></trkpt><trkpt lat="41.873450953547746" lon="19.81185856267659"><ele>243.8</ele><time>2026-04-29T15:48:18Z</time></trkpt><trkpt lat="41.87344243509653" lon="19.811735083262697"><ele>243.2</ele><time>2026-04-29T15:48:19Z</time></trkpt><trkpt lat="41.873471633411" lon="19.811572574538054"><ele>242.6</ele><time>2026-04-29T15:48:21Z</time></trkpt><trkpt lat="41.873560047295605" lon="19.81153722105862"><ele>242.0</ele><time>2026-04-29T15:48:22Z</time></trkpt><trkpt lat="41.8736241368048" lon="19.811439230112523"><ele>242.0</ele><time>2026-04-29T15:48:23Z</time></trkpt><trkpt lat="41.87368277044378" lon="19.81133390799369"><ele>242.0</ele><time>2026-04-29T15:48:24Z</time></trkpt><trkpt lat="41.8737233000497" lon="19.811240520783628"><ele>242.0</ele><time>2026-04-29T15:48:25Z</time></trkpt><trkpt lat="41.87378005804299" lon="19.811115321341962"><ele>242.0</ele><time>2026-04-29T15:48:27Z</time></trkpt><trkpt lat="41.87386167386315" lon="19.8109950523458"><ele>242.0</ele><time>2026-04-29T15:48:29Z</time></trkpt><trkpt lat="41.873927244272835" lon="19.810976456483125"><ele>242.0</ele><time>2026-04-29T15:48:30Z</time></trkpt><trkpt lat="41.87399858970094" lon="19.810980381994025"><ele>242.0</ele><time>2026-04-29T15:48:31Z</time></trkpt><trkpt lat="41.87407986243183" lon="19.810993237469173"><ele>242.0</ele><time>2026-04-29T15:48:32Z</time></trkpt><trkpt lat="41.87416795617483" lon="19.81103697214468"><ele>242.0</ele><time>2026-04-29T15:48:33Z</time></trkpt><trkpt lat="41.87427492434125" lon="19.81105438397047"><ele>242.0</ele><time>2026-04-29T15:48:34Z</time></trkpt><trkpt lat="41.8743720361818" lon="19.811054383973758"><ele>241.0</ele><time>2026-04-29T15:48:35Z</time></trkpt><trkpt lat="41.87445938339838" lon="19.81106542876201"><ele>240.0</ele><time>2026-04-29T15:48:36Z</time></trkpt><trkpt lat="41.87455743203042" lon="19.81108355416107"><ele>239.0</ele><time>2026-04-29T15:48:37Z</time></trkpt><trkpt lat="41.87466638936747" lon="19.81110495099278"><ele>238.0</ele><time>2026-04-29T15:48:38Z</time></trkpt><trkpt lat="41.87476539661219" lon="19.811113760698188"><ele>237.0</ele><time>2026-04-29T15:48:39Z</time></trkpt><trkpt lat="41.874859297659974" lon="19.811122627031896"><ele>237.0</ele><time>2026-04-29T15:48:40Z</time></trkpt><trkpt lat="41.87496878721339" lon="19.811132900873023"><ele>237.0</ele><time>2026-04-29T15:48:41Z</time></trkpt><trkpt lat="41.87507782723437" lon="19.81114253773758"><ele>237.0</ele><time>2026-04-29T15:48:42Z</time></trkpt><trkpt lat="41.875188333901825" lon="19.811146899046104"><ele>237.0</ele><time>2026-04-29T15:48:43Z</time></trkpt><trkpt lat="41.87529205304613" lon="19.811162175800764"><ele>237.0</ele><time>2026-04-29T15:48:44Z</time></trkpt><trkpt lat="41.875378907728475" lon="19.81117594887251"><ele>237.0</ele><time>2026-04-29T15:48:45Z</time></trkpt><trkpt lat="41.87546187083565" lon="19.811191264217076"><ele>237.0</ele><time>2026-04-29T15:48:46Z</time></trkpt><trkpt lat="41.87555649768315" lon="19.811200921759344"><ele>237.0</ele><time>2026-04-29T15:48:47Z</time></trkpt><trkpt lat="41.8756557263868" lon="19.811185744497283"><ele>237.0</ele><time>2026-04-29T15:48:48Z</time></trkpt><trkpt lat="41.87576887247659" lon="19.81117638340672"><ele>237.0</ele><time>2026-04-29T15:48:49Z</time></trkpt><trkpt lat="41.87585523259884" lon="19.811152941247496"><ele>237.0</ele><time>2026-04-29T15:48:50Z</time></trkpt><trkpt lat="41.87592927053127" lon="19.81112804318157"><ele>237.0</ele><time>2026-04-29T15:48:51Z</time></trkpt><trkpt lat="41.87600496737711" lon="19.811102232913754"><ele>237.0</ele><time>2026-04-29T15:48:52Z</time></trkpt><trkpt lat="41.87607965002734" lon="19.811023250239398"><ele>237.0</ele><time>2026-04-29T15:48:53Z</time></trkpt><trkpt lat="41.87615140758817" lon="19.810962260552255"><ele>237.0</ele><time>2026-04-29T15:48:54Z</time></trkpt><trkpt lat="41.87621304635439" lon="19.810918820227755"><ele>237.0</ele><time>2026-04-29T15:48:55Z</time></trkpt><trkpt lat="41.87622281166151" lon="19.810819565315573"><ele>237.2</ele><time>2026-04-29T15:48:56Z</time></trkpt><trkpt lat="41.876232988570614" lon="19.810634919945535"><ele>237.39999999999998</ele><time>2026-04-29T15:48:58Z</time></trkpt><trkpt lat="41.8762220379132" lon="19.810519691817937"><ele>237.60000000000002</ele><time>2026-04-29T15:48:59Z</time></trkpt><trkpt lat="41.87620297018579" lon="19.810420856191598"><ele>237.8</ele><time>2026-04-29T15:49:00Z</time></trkpt><trkpt lat="41.87618753615631" lon="19.810247728590983"><ele>238.0</ele><time>2026-04-29T15:49:02Z</time></trkpt><trkpt lat="41.87617329022484" lon="19.810153039053763"><ele>237.99999999999997</ele><time>2026-04-29T15:49:03Z</time></trkpt><trkpt lat="41.87615717837113" lon="19.810045947613293"><ele>238.0</ele><time>2026-04-29T15:49:04Z</time></trkpt><trkpt lat="41.87614523867846" lon="19.80993954552427"><ele>238.0</ele><time>2026-04-29T15:49:05Z</time></trkpt><trkpt lat="41.876136323000196" lon="19.809827102832532"><ele>238.0</ele><time>2026-04-29T15:49:06Z</time></trkpt><trkpt lat="41.87612920605718" lon="19.80971732603513"><ele>237.99999999999997</ele><time>2026-04-29T15:49:07Z</time></trkpt><trkpt lat="41.87610788783644" lon="19.809603334918894"><ele>238.0</ele><time>2026-04-29T15:49:08Z</time></trkpt><trkpt lat="41.876070918238625" lon="19.809488671854364"><ele>238.0</ele><time>2026-04-29T15:49:09Z</time></trkpt><trkpt lat="41.8760489841847" lon="19.80936676375666"><ele>238.0</ele><time>2026-04-29T15:49:10Z</time></trkpt><trkpt lat="41.87604672176334" lon="19.80922684229159"><ele>238.0</ele><time>2026-04-29T15:49:11Z</time></trkpt><trkpt lat="41.87603331722941" lon="19.80907955317817"><ele>238.0</ele><time>2026-04-29T15:49:12Z</time></trkpt><trkpt lat="41.87602123133476" lon="19.808953700393268"><ele>238.0</ele><time>2026-04-29T15:49:13Z</time></trkpt><trkpt lat="41.87600630135175" lon="19.80884198916433"><ele>237.8</ele><time>2026-04-29T15:49:14Z</time></trkpt><trkpt lat="41.875978859643354" lon="19.8087122367781"><ele>237.60000000000002</ele><time>2026-04-29T15:49:15Z</time></trkpt><trkpt lat="41.875950090312365" lon="19.808574955704895"><ele>237.39999999999998</ele><time>2026-04-29T15:49:16Z</time></trkpt><trkpt lat="41.87592183558477" lon="19.808442920347932"><ele>237.2</ele><time>2026-04-29T15:49:17Z</time></trkpt><trkpt lat="41.87589696421217" lon="19.808324731956574"><ele>237.0</ele><time>2026-04-29T15:49:18Z</time></trkpt><trkpt lat="41.875869195343135" lon="19.80819296068128"><ele>236.8</ele><time>2026-04-29T15:49:19Z</time></trkpt><trkpt lat="41.87584315599642" lon="19.808069396306916"><ele>236.6</ele><time>2026-04-29T15:49:20Z</time></trkpt><trkpt lat="41.87581516177545" lon="19.807936555518786"><ele>236.40000000000003</ele><time>2026-04-29T15:49:21Z</time></trkpt><trkpt lat="41.87578554133213" lon="19.8077956271406"><ele>236.20000000000002</ele><time>2026-04-29T15:49:22Z</time></trkpt><trkpt lat="41.875740674734054" lon="19.807657979811548"><ele>236.0</ele><time>2026-04-29T15:49:23Z</time></trkpt><trkpt lat="41.875734973765525" lon="19.80752528832111"><ele>236.0</ele><time>2026-04-29T15:49:24Z</time></trkpt><trkpt lat="41.87569655962945" lon="19.807393264768795"><ele>236.00000000000003</ele><time>2026-04-29T15:49:25Z</time></trkpt><trkpt lat="41.87567795781959" lon="19.807250534329828"><ele>236.00000000000003</ele><time>2026-04-29T15:49:26Z</time></trkpt><trkpt lat="41.87565480326922" lon="19.80710041657937"><ele>236.0</ele><time>2026-04-29T15:49:27Z</time></trkpt><trkpt lat="41.875631636754015" lon="19.806958432201217"><ele>236.0</ele><time>2026-04-29T15:49:28Z</time></trkpt><trkpt lat="41.87562624964454" lon="19.80681473051625"><ele>236.4</ele><time>2026-04-29T15:49:29Z</time></trkpt><trkpt lat="41.87557638925762" lon="19.806669650299202"><ele>236.8</ele><time>2026-04-29T15:49:30Z</time></trkpt><trkpt lat="41.87553053731434" lon="19.80652967313826"><ele>237.20000000000002</ele><time>2026-04-29T15:49:31Z</time></trkpt><trkpt lat="41.87550522861806" lon="19.80638726442338"><ele>237.60000000000002</ele><time>2026-04-29T15:49:32Z</time></trkpt><trkpt lat="41.87549006459574" lon="19.806272516391623"><ele>238.0</ele><time>2026-04-29T15:49:33Z</time></trkpt><trkpt lat="41.875498055401536" lon="19.80615458973649"><ele>238.0</ele><time>2026-04-29T15:49:34Z</time></trkpt><trkpt lat="41.87549915664099" lon="19.80601419907257"><ele>238.0</ele><time>2026-04-29T15:49:35Z</time></trkpt><trkpt lat="41.87550045827852" lon="19.805871018865442"><ele>238.0</ele><time>2026-04-29T15:49:36Z</time></trkpt><trkpt lat="41.875501956316945" lon="19.805728029830806"><ele>238.0</ele><time>2026-04-29T15:49:37Z</time></trkpt><trkpt lat="41.8755071548485" lon="19.805582629910433"><ele>238.0</ele><time>2026-04-29T15:49:38Z</time></trkpt><trkpt lat="41.87552987747721" lon="19.805454284976005"><ele>238.60000000000002</ele><time>2026-04-29T15:49:39Z</time></trkpt><trkpt lat="41.875560422975305" lon="19.805341737797786"><ele>239.20000000000002</ele><time>2026-04-29T15:49:40Z</time></trkpt><trkpt lat="41.87560811419664" lon="19.805248752943637"><ele>239.8</ele><time>2026-04-29T15:49:41Z</time></trkpt><trkpt lat="41.87566282573053" lon="19.80514346208016"><ele>240.4</ele><time>2026-04-29T15:49:42Z</time></trkpt><trkpt lat="41.875722746846996" lon="19.805026990245842"><ele>241.0</ele><time>2026-04-29T15:49:43Z</time></trkpt><trkpt lat="41.87578186060291" lon="19.80490408600317"><ele>241.8</ele><time>2026-04-29T15:49:44Z</time></trkpt><trkpt lat="41.875840401023744" lon="19.80478237382993"><ele>242.60000000000002</ele><time>2026-04-29T15:49:45Z</time></trkpt><trkpt lat="41.87585791059572" lon="19.804651120167172"><ele>243.4</ele><time>2026-04-29T15:49:46Z</time></trkpt><trkpt lat="41.875887192970616" lon="19.80452921036453"><ele>244.2</ele><time>2026-04-29T15:49:47Z</time></trkpt><trkpt lat="41.87591321342026" lon="19.804394890186284"><ele>245.0</ele><time>2026-04-29T15:49:48Z</time></trkpt><trkpt lat="41.875936274315265" lon="19.804272587517367"><ele>245.4</ele><time>2026-04-29T15:49:49Z</time></trkpt><trkpt lat="41.87594586753498" lon="19.804142097442924"><ele>245.8</ele><time>2026-04-29T15:49:50Z</time></trkpt><trkpt lat="41.87594567891074" lon="19.80399675563656"><ele>246.2</ele><time>2026-04-29T15:49:51Z</time></trkpt><trkpt lat="41.87593223631813" lon="19.803842415511625"><ele>246.6</ele><time>2026-04-29T15:49:52Z</time></trkpt><trkpt lat="41.87591625659093" lon="19.803676836911233"><ele>247.0</ele><time>2026-04-29T15:49:53Z</time></trkpt><trkpt lat="41.87589872276761" lon="19.80350799823039"><ele>247.25</ele><time>2026-04-29T15:49:54Z</time></trkpt><trkpt lat="41.87587949919104" lon="19.80334032216147"><ele>247.5</ele><time>2026-04-29T15:49:55Z</time></trkpt><trkpt lat="41.87586221249743" lon="19.80317111432485"><ele>247.75</ele><time>2026-04-29T15:49:56Z</time></trkpt><trkpt lat="41.87583670815058" lon="19.803024131743985"><ele>248.0</ele><time>2026-04-29T15:49:57Z</time></trkpt><trkpt lat="41.875793041632676" lon="19.802885224432668"><ele>248.0</ele><time>2026-04-29T15:49:58Z</time></trkpt><trkpt lat="41.87573472489551" lon="19.802752729553475"><ele>248.0</ele><time>2026-04-29T15:49:59Z</time></trkpt><trkpt lat="41.875670173552656" lon="19.802621565302466"><ele>248.0</ele><time>2026-04-29T15:50:00Z</time></trkpt><trkpt lat="41.87562763881327" lon="19.80246406892828"><ele>248.0</ele><time>2026-04-29T15:50:01Z</time></trkpt><trkpt lat="41.87557250991073" lon="19.802319866061897"><ele>250.4</ele><time>2026-04-29T15:50:02Z</time></trkpt><trkpt lat="41.87551041044006" lon="19.802203549005938"><ele>252.8</ele><time>2026-04-29T15:50:03Z</time></trkpt><trkpt lat="41.87547241563409" lon="19.802058709593524"><ele>255.2</ele><time>2026-04-29T15:50:04Z</time></trkpt><trkpt lat="41.875430160503996" lon="19.801924026323125"><ele>257.6</ele><time>2026-04-29T15:50:05Z</time></trkpt><trkpt lat="41.87538317033671" lon="19.801793704382085"><ele>260.0</ele><time>2026-04-29T15:50:06Z</time></trkpt><trkpt lat="41.87533504220282" lon="19.801662357447455"><ele>261.0</ele><time>2026-04-29T15:50:07Z</time></trkpt><trkpt lat="41.87529290213762" lon="19.80152709813394"><ele>262.0</ele><time>2026-04-29T15:50:08Z</time></trkpt><trkpt lat="41.875278639606755" lon="19.801375983411567"><ele>263.0</ele><time>2026-04-29T15:50:09Z</time></trkpt><trkpt lat="41.87525730854858" lon="19.801219089815508"><ele>264.0</ele><time>2026-04-29T15:50:10Z</time></trkpt><trkpt lat="41.87524947172225" lon="19.801054697525025"><ele>264.0</ele><time>2026-04-29T15:50:11Z</time></trkpt><trkpt lat="41.87524115836231" lon="19.80088759846665"><ele>264.0</ele><time>2026-04-29T15:50:12Z</time></trkpt><trkpt lat="41.875267879869256" lon="19.800740897619544"><ele>264.0</ele><time>2026-04-29T15:50:13Z</time></trkpt><trkpt lat="41.87528843539282" lon="19.80061897100939"><ele>264.0</ele><time>2026-04-29T15:50:14Z</time></trkpt><trkpt lat="41.8753608409576" lon="19.80052992378878"><ele>264.0</ele><time>2026-04-29T15:50:15Z</time></trkpt><trkpt lat="41.8754135495303" lon="19.80041476844911"><ele>264.0</ele><time>2026-04-29T15:50:16Z</time></trkpt><trkpt lat="41.87546143281601" lon="19.80028206967653"><ele>264.0</ele><time>2026-04-29T15:50:17Z</time></trkpt><trkpt lat="41.87549110487428" lon="19.800129765579058"><ele>264.0</ele><time>2026-04-29T15:50:18Z</time></trkpt><trkpt lat="41.875489036035894" lon="19.799971610124324"><ele>264.0</ele><time>2026-04-29T15:50:19Z</time></trkpt><trkpt lat="41.87549957685199" lon="19.79983740229138"><ele>264.0</ele><time>2026-04-29T15:50:20Z</time></trkpt><trkpt lat="41.87552131481286" lon="19.7997081378622"><ele>264.0</ele><time>2026-04-29T15:50:21Z</time></trkpt><trkpt lat="41.8755160500585" lon="19.79956886911089"><ele>264.0</ele><time>2026-04-29T15:50:22Z</time></trkpt><trkpt lat="41.87551283448799" lon="19.799442543231965"><ele>264.0</ele><time>2026-04-29T15:50:23Z</time></trkpt><trkpt lat="41.87551956900277" lon="19.79933463527022"><ele>264.0</ele><time>2026-04-29T15:50:24Z</time></trkpt><trkpt lat="41.87555070535302" lon="19.799218508508897"><ele>264.0</ele><time>2026-04-29T15:50:25Z</time></trkpt><trkpt lat="41.87560193288333" lon="19.79906420005677"><ele>263.59999999999997</ele><time>2026-04-29T15:50:26Z</time></trkpt><trkpt lat="41.87561725865538" lon="19.79891442231642"><ele>263.2</ele><time>2026-04-29T15:50:27Z</time></trkpt><trkpt lat="41.8756557719947" lon="19.798787975879037"><ele>262.79999999999995</ele><time>2026-04-29T15:50:28Z</time></trkpt><trkpt lat="41.875711565670244" lon="19.798725733517156"><ele>262.4</ele><time>2026-04-29T15:50:29Z</time></trkpt><trkpt lat="41.875778577536366" lon="19.798643452604352"><ele>262.0</ele><time>2026-04-29T15:50:30Z</time></trkpt><trkpt lat="41.87586779849226" lon="19.798535820007984"><ele>265.5</ele><time>2026-04-29T15:50:31Z</time></trkpt><trkpt lat="41.87596438420361" lon="19.79843114280695"><ele>269.0</ele><time>2026-04-29T15:50:32Z</time></trkpt><trkpt lat="41.87605586120625" lon="19.798317196035004"><ele>272.5</ele><time>2026-04-29T15:50:33Z</time></trkpt><trkpt lat="41.87612583111122" lon="19.798218501598555"><ele>276.0</ele><time>2026-04-29T15:50:34Z</time></trkpt><trkpt lat="41.87614591374833" lon="19.798061214386475"><ele>276.0</ele><time>2026-04-29T15:50:35Z</time></trkpt><trkpt lat="41.876146357458694" lon="19.797953163869398"><ele>276.0</ele><time>2026-04-29T15:50:36Z</time></trkpt><trkpt lat="41.87615772426088" lon="19.797851032652098"><ele>276.0</ele><time>2026-04-29T15:50:37Z</time></trkpt><trkpt lat="41.876184874968644" lon="19.79771935071694"><ele>276.0</ele><time>2026-04-29T15:50:38Z</time></trkpt><trkpt lat="41.876222904740416" lon="19.797577301823413"><ele>276.0</ele><time>2026-04-29T15:50:39Z</time></trkpt><trkpt lat="41.87626337220306" lon="19.79743227303521"><ele>274.2</ele><time>2026-04-29T15:50:40Z</time></trkpt><trkpt lat="41.87630571586015" lon="19.797307315729334"><ele>272.40000000000003</ele><time>2026-04-29T15:50:41Z</time></trkpt><trkpt lat="41.87636836177232" lon="19.797172604019657"><ele>270.6</ele><time>2026-04-29T15:50:42Z</time></trkpt><trkpt lat="41.87644234199908" lon="19.7970446874798"><ele>268.8</ele><time>2026-04-29T15:50:43Z</time></trkpt><trkpt lat="41.876504756889176" lon="19.79694622172993"><ele>267.0</ele><time>2026-04-29T15:50:44Z</time></trkpt><trkpt lat="41.87659025683444" lon="19.796876665458512"><ele>266.2</ele><time>2026-04-29T15:50:45Z</time></trkpt><trkpt lat="41.876665670091235" lon="19.796810188825503"><ele>265.4</ele><time>2026-04-29T15:50:46Z</time></trkpt><trkpt lat="41.87675729048939" lon="19.796783050470193"><ele>264.6</ele><time>2026-04-29T15:50:47Z</time></trkpt><trkpt lat="41.87684143954367" lon="19.796803400103055"><ele>263.8</ele><time>2026-04-29T15:50:48Z</time></trkpt><trkpt lat="41.8769550348995" lon="19.796808677494834"><ele>263.0</ele><time>2026-04-29T15:50:49Z</time></trkpt><trkpt lat="41.87709523798102" lon="19.79676904149252"><ele>263.0</ele><time>2026-04-29T15:50:50Z</time></trkpt><trkpt lat="41.87718160140061" lon="19.79671811758985"><ele>263.0</ele><time>2026-04-29T15:50:51Z</time></trkpt><trkpt lat="41.87725376286744" lon="19.796698065165703"><ele>263.0</ele><time>2026-04-29T15:50:52Z</time></trkpt><trkpt lat="41.87738835224232" lon="19.796745074550646"><ele>263.0</ele><time>2026-04-29T15:50:54Z</time></trkpt><trkpt lat="41.87748128230467" lon="19.79677006792228"><ele>263.0</ele><time>2026-04-29T15:50:55Z</time></trkpt><trkpt lat="41.877612370024984" lon="19.796749231256353"><ele>265.0</ele><time>2026-04-29T15:50:56Z</time></trkpt><trkpt lat="41.8777419796261" lon="19.796671730265775"><ele>267.0</ele><time>2026-04-29T15:50:57Z</time></trkpt><trkpt lat="41.877858527850925" lon="19.796575978033456"><ele>269.0</ele><time>2026-04-29T15:50:58Z</time></trkpt><trkpt lat="41.87796437852605" lon="19.796488309962537"><ele>271.0</ele><time>2026-04-29T15:50:59Z</time></trkpt><trkpt lat="41.87806843198247" lon="19.796388431707122"><ele>271.0</ele><time>2026-04-29T15:51:00Z</time></trkpt><trkpt lat="41.87817226368871" lon="19.796289447352667"><ele>271.0</ele><time>2026-04-29T15:51:01Z</time></trkpt><trkpt lat="41.87827342519603" lon="19.79619881981367"><ele>271.0</ele><time>2026-04-29T15:51:02Z</time></trkpt><trkpt lat="41.87837942208533" lon="19.796107155834026"><ele>271.0</ele><time>2026-04-29T15:51:03Z</time></trkpt><trkpt lat="41.87846940573282" lon="19.796026808006513"><ele>270.8</ele><time>2026-04-29T15:51:04Z</time></trkpt><trkpt lat="41.87853777781814" lon="19.795964718725227"><ele>270.6</ele><time>2026-04-29T15:51:05Z</time></trkpt><trkpt lat="41.878613429393695" lon="19.79594336246269"><ele>270.4</ele><time>2026-04-29T15:51:06Z</time></trkpt><trkpt lat="41.87870126630581" lon="19.79593375598949"><ele>270.2</ele><time>2026-04-29T15:51:07Z</time></trkpt><trkpt lat="41.87880825903594" lon="19.79593457249737"><ele>270.0</ele><time>2026-04-29T15:51:08Z</time></trkpt><trkpt lat="41.87891109526008" lon="19.79595808962015"><ele>270.0</ele><time>2026-04-29T15:51:09Z</time></trkpt><trkpt lat="41.87901697548863" lon="19.795983092094165"><ele>270.0</ele><time>2026-04-29T15:51:10Z</time></trkpt><trkpt lat="41.87913566809771" lon="19.796002322409517"><ele>270.0</ele><time>2026-04-29T15:51:11Z</time></trkpt><trkpt lat="41.879264064168545" lon="19.79600595277754"><ele>270.0</ele><time>2026-04-29T15:51:12Z</time></trkpt><trkpt lat="41.87937762931288" lon="19.79601806826811"><ele>270.8</ele><time>2026-04-29T15:51:13Z</time></trkpt><trkpt lat="41.87945299753514" lon="19.79601961223006"><ele>271.6</ele><time>2026-04-29T15:51:14Z</time></trkpt><trkpt lat="41.87951974516936" lon="19.79602097959655"><ele>272.4</ele><time>2026-04-29T15:51:15Z</time></trkpt><trkpt lat="41.87960687739649" lon="19.796022764555048"><ele>273.2</ele><time>2026-04-29T15:51:17Z</time></trkpt><trkpt lat="41.879738630753074" lon="19.796021745367327"><ele>274.0</ele><time>2026-04-29T15:51:20Z</time></trkpt><trkpt lat="41.879737985812476" lon="19.79582429954958"><ele>274.0</ele><time>2026-04-29T15:51:22Z</time></trkpt><trkpt lat="41.879781356134245" lon="19.795697395769555"><ele>274.0</ele><time>2026-04-29T15:51:24Z</time></trkpt><trkpt lat="41.87982924261634" lon="19.795577987083757"><ele>274.0</ele><time>2026-04-29T15:51:26Z</time></trkpt><trkpt lat="41.879868286401646" lon="19.795504419020453"><ele>274.0</ele><time>2026-04-29T15:51:28Z</time></trkpt><trkpt lat="41.8799121386664" lon="19.79537227731347"><ele>274.0</ele><time>2026-04-29T15:51:30Z</time></trkpt><trkpt lat="41.87996799965255" lon="19.79531593759451"><ele>274.0</ele><time>2026-04-29T15:51:31Z</time></trkpt><trkpt lat="41.88000973333365" lon="19.795233764967247"><ele>274.0</ele><time>2026-04-29T15:51:32Z</time></trkpt><trkpt lat="41.88001944285017" lon="19.79509054484466"><ele>274.0</ele><time>2026-04-29T15:51:34Z</time></trkpt><trkpt lat="41.87998801758759" lon="19.794996333920817"><ele>274.0</ele><time>2026-04-29T15:51:35Z</time></trkpt><trkpt lat="41.8799436365484" lon="19.794934998505678"><ele>274.0</ele><time>2026-04-29T15:51:36Z</time></trkpt><trkpt lat="41.87984078540647" lon="19.794875604636026"><ele>274.0</ele><time>2026-04-29T15:51:38Z</time></trkpt><trkpt lat="41.87973367107929" lon="19.794892817706135"><ele>273.4</ele><time>2026-04-29T15:51:40Z</time></trkpt><trkpt lat="41.8796290958246" lon="19.794890372109386"><ele>272.79999999999995</ele><time>2026-04-29T15:51:42Z</time></trkpt><trkpt lat="41.879534135462734" lon="19.794887654646068"><ele>272.20000000000005</ele><time>2026-04-29T15:51:44Z</time></trkpt><trkpt lat="41.87945653816081" lon="19.794885434056226"><ele>271.6</ele><time>2026-04-29T15:51:47.001Z</time></trkpt><trkpt lat="41.87938847970831" lon="19.7948823897641"><ele>271.0</ele><time>2026-04-29T15:53:02.001Z</time></trkpt><trkpt lat="41.879260845734265" lon="19.794875747196958"><ele>270.8333333333333</ele><time>2026-04-29T15:53:04.001Z</time></trkpt><trkpt lat="41.87919596123436" lon="19.79486879477209"><ele>270.66666666666663</ele><time>2026-04-29T15:53:05.001Z</time></trkpt><trkpt lat="41.87910568065424" lon="19.79484224166174"><ele>270.5</ele><time>2026-04-29T15:53:07.001Z</time></trkpt><trkpt lat="41.87901369247217" lon="19.794793682897094"><ele>270.3333333333333</ele><time>2026-04-29T15:53:09.001Z</time></trkpt><trkpt lat="41.87895569464805" lon="19.79475224827306"><ele>270.1666666666667</ele><time>2026-04-29T15:53:10.001Z</time></trkpt><trkpt lat="41.878906680558494" lon="19.794698476440743"><ele>270.0</ele><time>2026-04-29T15:53:11.001Z</time></trkpt><trkpt lat="41.87884223234149" lon="19.794629334988198"><ele>270.0</ele><time>2026-04-29T15:53:12.001Z</time></trkpt><trkpt lat="41.87877866958992" lon="19.794561143481204"><ele>270.0</ele><time>2026-04-29T15:53:13.001Z</time></trkpt><trkpt lat="41.8787048259122" lon="19.79451606626683"><ele>270.0</ele><time>2026-04-29T15:53:14.001Z</time></trkpt><trkpt lat="41.87861204292152" lon="19.794503817288284"><ele>270.0</ele><time>2026-04-29T15:53:15.001Z</time></trkpt><trkpt lat="41.87851754186557" lon="19.794524170400972"><ele>270.0</ele><time>2026-04-29T15:53:16.001Z</time></trkpt><trkpt lat="41.878423184307785" lon="19.79452778159737"><ele>270.0</ele><time>2026-04-29T15:53:17.001Z</time></trkpt><trkpt lat="41.878334591761465" lon="19.794490682304186"><ele>270.0</ele><time>2026-04-29T15:53:18.001Z</time></trkpt><trkpt lat="41.87823830807872" lon="19.79445936599862"><ele>270.0</ele><time>2026-04-29T15:53:19.001Z</time></trkpt><trkpt lat="41.87813314416583" lon="19.794424835417697"><ele>270.0</ele><time>2026-04-29T15:53:20.001Z</time></trkpt><trkpt lat="41.87802570739124" lon="19.794388987490773"><ele>270.0</ele><time>2026-04-29T15:53:21.001Z</time></trkpt><trkpt lat="41.877913493899136" lon="19.794354870416054"><ele>270.0</ele><time>2026-04-29T15:53:22.001Z</time></trkpt><trkpt lat="41.877800802478376" lon="19.794335379237197"><ele>272.0</ele><time>2026-04-29T15:53:23.001Z</time></trkpt><trkpt lat="41.87770578023008" lon="19.79433024737694"><ele>274.0</ele><time>2026-04-29T15:53:24.001Z</time></trkpt><trkpt lat="41.87760858233655" lon="19.794326447128817"><ele>276.0</ele><time>2026-04-29T15:53:25.001Z</time></trkpt><trkpt lat="41.877510802765265" lon="19.79431642191639"><ele>278.0</ele><time>2026-04-29T15:53:26.001Z</time></trkpt><trkpt lat="41.87741138060452" lon="19.794301414160397"><ele>280.0</ele><time>2026-04-29T15:53:27.001Z</time></trkpt><trkpt lat="41.87730507165789" lon="19.794309141109427"><ele>280.0</ele><time>2026-04-29T15:53:28.001Z</time></trkpt><trkpt lat="41.87720154288946" lon="19.794283473815337"><ele>280.0</ele><time>2026-04-29T15:53:29.001Z</time></trkpt><trkpt lat="41.877093856452476" lon="19.794252266399358"><ele>280.0</ele><time>2026-04-29T15:53:30.001Z</time></trkpt><trkpt lat="41.876991591451336" lon="19.794219674825"><ele>280.0</ele><time>2026-04-29T15:53:31.001Z</time></trkpt><trkpt lat="41.87687298922084" lon="19.794184345077422"><ele>280.0</ele><time>2026-04-29T15:53:32.001Z</time></trkpt><trkpt lat="41.87674318889194" lon="19.794141200878528"><ele>278.0</ele><time>2026-04-29T15:53:33.001Z</time></trkpt><trkpt lat="41.87662247472062" lon="19.794097641104045"><ele>276.0</ele><time>2026-04-29T15:53:34.001Z</time></trkpt><trkpt lat="41.876506641912826" lon="19.794046275467096"><ele>274.0</ele><time>2026-04-29T15:53:35.001Z</time></trkpt><trkpt lat="41.8764011714142" lon="19.793978097007024"><ele>272.0</ele><time>2026-04-29T15:53:36.001Z</time></trkpt><trkpt lat="41.87630489240711" lon="19.7939221656439"><ele>272.0</ele><time>2026-04-29T15:53:37.001Z</time></trkpt><trkpt lat="41.876196624715924" lon="19.793899550493727"><ele>272.0</ele><time>2026-04-29T15:53:38.001Z</time></trkpt><trkpt lat="41.87608880750419" lon="19.793907313529715"><ele>272.0</ele><time>2026-04-29T15:53:39.001Z</time></trkpt><trkpt lat="41.87598306281211" lon="19.793952711175425"><ele>272.0</ele><time>2026-04-29T15:53:40.001Z</time></trkpt><trkpt lat="41.875892464074035" lon="19.79393631452262"><ele>272.0</ele><time>2026-04-29T15:53:41.001Z</time></trkpt><trkpt lat="41.87580532789934" lon="19.79393469939235"><ele>270.4</ele><time>2026-04-29T15:53:42.001Z</time></trkpt><trkpt lat="41.87571888849393" lon="19.793929252483608"><ele>268.79999999999995</ele><time>2026-04-29T15:53:43.001Z</time></trkpt><trkpt lat="41.87563359790545" lon="19.793922272498136"><ele>267.2</ele><time>2026-04-29T15:53:44.001Z</time></trkpt><trkpt lat="41.8755467538376" lon="19.79391516538005"><ele>265.59999999999997</ele><time>2026-04-29T15:53:45.001Z</time></trkpt><trkpt lat="41.875447655271714" lon="19.793907372871402"><ele>264.0</ele><time>2026-04-29T15:53:46.001Z</time></trkpt><trkpt lat="41.87534165013889" lon="19.79389932578599"><ele>264.0</ele><time>2026-04-29T15:53:47.001Z</time></trkpt><trkpt lat="41.87522552047428" lon="19.793888813618228"><ele>264.0</ele><time>2026-04-29T15:53:48.001Z</time></trkpt><trkpt lat="41.87512022469667" lon="19.793879000364953"><ele>264.0</ele><time>2026-04-29T15:53:49.001Z</time></trkpt><trkpt lat="41.8750264980866" lon="19.79384972833455"><ele>264.0</ele><time>2026-04-29T15:53:50.001Z</time></trkpt><trkpt lat="41.87492451303221" lon="19.793821117460432"><ele>264.0</ele><time>2026-04-29T15:53:51.001Z</time></trkpt><trkpt lat="41.87482538477708" lon="19.7937932785344"><ele>263.75</ele><time>2026-04-29T15:53:52.001Z</time></trkpt><trkpt lat="41.87473444748227" lon="19.793764101407852"><ele>263.5</ele><time>2026-04-29T15:53:53.001Z</time></trkpt><trkpt lat="41.87466050598691" lon="19.793674326448812"><ele>263.25</ele><time>2026-04-29T15:53:54.001Z</time></trkpt><trkpt lat="41.874567344791636" lon="19.793555816499936"><ele>263.0</ele><time>2026-04-29T15:53:55.001Z</time></trkpt><trkpt lat="41.874452130145684" lon="19.79347967377135"><ele>263.0</ele><time>2026-04-29T15:53:56.001Z</time></trkpt><trkpt lat="41.87433860204784" lon="19.793430917238272"><ele>263.0</ele><time>2026-04-29T15:53:57.001Z</time></trkpt><trkpt lat="41.874224505411405" lon="19.7933772123232"><ele>263.0</ele><time>2026-04-29T15:53:58.001Z</time></trkpt><trkpt lat="41.87409108647056" lon="19.79333652219686"><ele>263.0</ele><time>2026-04-29T15:53:59.001Z</time></trkpt><trkpt lat="41.87396142538007" lon="19.79333788781269"><ele>260.75</ele><time>2026-04-29T15:54:00.001Z</time></trkpt><trkpt lat="41.87386877283603" lon="19.79326501837235"><ele>258.5</ele><time>2026-04-29T15:54:01.001Z</time></trkpt><trkpt lat="41.873808661588654" lon="19.793156957279784"><ele>256.25</ele><time>2026-04-29T15:54:02.001Z</time></trkpt><trkpt lat="41.87372863003171" lon="19.79301830621066"><ele>254.0</ele><time>2026-04-29T15:54:03.001Z</time></trkpt><trkpt lat="41.873637328102156" lon="19.792873361454934"><ele>254.0</ele><time>2026-04-29T15:54:04.001Z</time></trkpt><trkpt lat="41.87357092873292" lon="19.792706542587617"><ele>254.0</ele><time>2026-04-29T15:54:05.001Z</time></trkpt><trkpt lat="41.87351886060891" lon="19.79255728241226"><ele>254.0</ele><time>2026-04-29T15:54:06.001Z</time></trkpt><trkpt lat="41.873475301453155" lon="19.792413193440318"><ele>254.0</ele><time>2026-04-29T15:54:07.001Z</time></trkpt><trkpt lat="41.87341292453831" lon="19.792275401844766"><ele>254.75</ele><time>2026-04-29T15:54:08.001Z</time></trkpt><trkpt lat="41.87333146744172" lon="19.792172822762563"><ele>255.5</ele><time>2026-04-29T15:54:09.001Z</time></trkpt><trkpt lat="41.87324932229697" lon="19.792069743826328"><ele>256.25</ele><time>2026-04-29T15:54:10.001Z</time></trkpt><trkpt lat="41.873153008891336" lon="19.791988823810883"><ele>257.0</ele><time>2026-04-29T15:54:11.001Z</time></trkpt><trkpt lat="41.873057335331545" lon="19.791895060546434"><ele>257.5</ele><time>2026-04-29T15:54:12.001Z</time></trkpt><trkpt lat="41.87294078489352" lon="19.79182212199338"><ele>258.0</ele><time>2026-04-29T15:54:13.001Z</time></trkpt><trkpt lat="41.8728239269507" lon="19.791760033858278"><ele>258.5</ele><time>2026-04-29T15:54:14.001Z</time></trkpt><trkpt lat="41.87271139203897" lon="19.791690388235768"><ele>259.0</ele><time>2026-04-29T15:54:15.001Z</time></trkpt><trkpt lat="41.872622468079825" lon="19.791631761497396"><ele>258.8</ele><time>2026-04-29T15:54:16.001Z</time></trkpt><trkpt lat="41.87252966892471" lon="19.79159302906847"><ele>258.59999999999997</ele><time>2026-04-29T15:54:17.001Z</time></trkpt><trkpt lat="41.87245369819374" lon="19.791491761718962"><ele>258.4</ele><time>2026-04-29T15:54:18.001Z</time></trkpt><trkpt lat="41.87236282625245" lon="19.791398425618155"><ele>258.2</ele><time>2026-04-29T15:54:19.001Z</time></trkpt><trkpt lat="41.87228263058086" lon="19.79128299038704"><ele>258.0</ele><time>2026-04-29T15:54:20.001Z</time></trkpt><trkpt lat="41.87219791376389" lon="19.79115680939249"><ele>258.0</ele><time>2026-04-29T15:54:21.001Z</time></trkpt><trkpt lat="41.872107245923544" lon="19.791018281545817"><ele>258.0</ele><time>2026-04-29T15:54:22.001Z</time></trkpt><trkpt lat="41.871998468956185" lon="19.790892080368298"><ele>258.0</ele><time>2026-04-29T15:54:23.001Z</time></trkpt><trkpt lat="41.871889448131896" lon="19.79076445154651"><ele>258.0</ele><time>2026-04-29T15:54:24.001Z</time></trkpt><trkpt lat="41.871790992336216" lon="19.79061363391476"><ele>259.0</ele><time>2026-04-29T15:54:25.001Z</time></trkpt><trkpt lat="41.87170321149334" lon="19.790460876259168"><ele>260.0</ele><time>2026-04-29T15:54:26.001Z</time></trkpt><trkpt lat="41.87162001225339" lon="19.790298047746973"><ele>261.0</ele><time>2026-04-29T15:54:27.001Z</time></trkpt><trkpt lat="41.8715367409716" lon="19.790126505732395"><ele>262.0</ele><time>2026-04-29T15:54:28.001Z</time></trkpt><trkpt lat="41.87144816283578" lon="19.789957676694236"><ele>262.25</ele><time>2026-04-29T15:54:29.001Z</time></trkpt><trkpt lat="41.871365687509154" lon="19.78980047954207"><ele>262.5</ele><time>2026-04-29T15:54:30.001Z</time></trkpt><trkpt lat="41.87128389047437" lon="19.78964655363544"><ele>262.75</ele><time>2026-04-29T15:54:31.001Z</time></trkpt><trkpt lat="41.87119797630676" lon="19.789488399979508"><ele>263.0</ele><time>2026-04-29T15:54:32.001Z</time></trkpt><trkpt lat="41.87110986734" lon="19.78932665259011"><ele>263.33333333333337</ele><time>2026-04-29T15:54:33.001Z</time></trkpt><trkpt lat="41.87101910321635" lon="19.789164092269903"><ele>263.6666666666667</ele><time>2026-04-29T15:54:34.001Z</time></trkpt><trkpt lat="41.87092548541188" lon="19.78899969175874"><ele>264.0</ele><time>2026-04-29T15:54:35.001Z</time></trkpt><trkpt lat="41.87082490582306" lon="19.788838038271738"><ele>264.3333333333333</ele><time>2026-04-29T15:54:36.001Z</time></trkpt><trkpt lat="41.870708179764506" lon="19.788690188248726"><ele>264.66666666666663</ele><time>2026-04-29T15:54:37.001Z</time></trkpt><trkpt lat="41.87060107831587" lon="19.788525665570138"><ele>265.0</ele><time>2026-04-29T15:54:38.001Z</time></trkpt><trkpt lat="41.87053057004821" lon="19.78833800201671"><ele>264.3333333333333</ele><time>2026-04-29T15:54:39.001Z</time></trkpt><trkpt lat="41.87046317825224" lon="19.788143567700995"><ele>263.6666666666667</ele><time>2026-04-29T15:54:40.001Z</time></trkpt><trkpt lat="41.87039902655451" lon="19.787951337835278"><ele>263.0</ele><time>2026-04-29T15:54:41.001Z</time></trkpt><trkpt lat="41.87033963789259" lon="19.787773549029364"><ele>264.25</ele><time>2026-04-29T15:54:42.001Z</time></trkpt><trkpt lat="41.870280909125626" lon="19.787596668461536"><ele>265.5</ele><time>2026-04-29T15:54:43.001Z</time></trkpt><trkpt lat="41.87023451154024" lon="19.787416849554816"><ele>266.75</ele><time>2026-04-29T15:54:44.001Z</time></trkpt><trkpt lat="41.8701937023218" lon="19.787224224497532"><ele>268.0</ele><time>2026-04-29T15:54:45.001Z</time></trkpt><trkpt lat="41.870151032750094" lon="19.787024767884688"><ele>268.0</ele><time>2026-04-29T15:54:46.001Z</time></trkpt><trkpt lat="41.87010721629851" lon="19.786825791498934"><ele>268.0</ele><time>2026-04-29T15:54:47.001Z</time></trkpt><trkpt lat="41.87006028773173" lon="19.78662032988342"><ele>268.0</ele><time>2026-04-29T15:54:48.001Z</time></trkpt><trkpt lat="41.870015897487946" lon="19.786422493974154"><ele>268.0</ele><time>2026-04-29T15:54:49.001Z</time></trkpt><trkpt lat="41.86997546732699" lon="19.786246715999063"><ele>268.0</ele><time>2026-04-29T15:54:50.001Z</time></trkpt><trkpt lat="41.869907149294235" lon="19.786078700862152"><ele>268.0</ele><time>2026-04-29T15:54:51.001Z</time></trkpt><trkpt lat="41.86983768846429" lon="19.78590524717155"><ele>268.0</ele><time>2026-04-29T15:54:52.001Z</time></trkpt><trkpt lat="41.86975211776173" lon="19.78573669319497"><ele>268.0</ele><time>2026-04-29T15:54:53.001Z</time></trkpt><trkpt lat="41.869676703960096" lon="19.785557065157864"><ele>268.0</ele><time>2026-04-29T15:54:54.001Z</time></trkpt><trkpt lat="41.869579156166054" lon="19.785402959419315"><ele>268.0</ele><time>2026-04-29T15:54:55.001Z</time></trkpt><trkpt lat="41.86947058056614" lon="19.785283167143405"><ele>268.0</ele><time>2026-04-29T15:54:56.001Z</time></trkpt><trkpt lat="41.86934679513342" lon="19.785197004535263"><ele>268.0</ele><time>2026-04-29T15:54:57.001Z</time></trkpt><trkpt lat="41.86923838284086" lon="19.785090584827095"><ele>268.0</ele><time>2026-04-29T15:54:58.001Z</time></trkpt><trkpt lat="41.8691384408707" lon="19.784963810062287"><ele>268.0</ele><time>2026-04-29T15:54:59.001Z</time></trkpt><trkpt lat="41.86908308392871" lon="19.784786497454654"><ele>268.0</ele><time>2026-04-29T15:55:00.001Z</time></trkpt><trkpt lat="41.86901139601371" lon="19.78461840377626"><ele>268.0</ele><time>2026-04-29T15:55:01.001Z</time></trkpt><trkpt lat="41.86894372651972" lon="19.78444526493525"><ele>268.0</ele><time>2026-04-29T15:55:02.001Z</time></trkpt><trkpt lat="41.86887560381266" lon="19.78427486412921"><ele>268.0</ele><time>2026-04-29T15:55:03.001Z</time></trkpt><trkpt lat="41.868805595185115" lon="19.78411864899267"><ele>268.0</ele><time>2026-04-29T15:55:04.001Z</time></trkpt><trkpt lat="41.86871161482133" lon="19.783987849568398"><ele>268.75</ele><time>2026-04-29T15:55:05.001Z</time></trkpt><trkpt lat="41.86862562391218" lon="19.783856396499086"><ele>269.5</ele><time>2026-04-29T15:55:06.001Z</time></trkpt><trkpt lat="41.86853616846601" lon="19.78373511482821"><ele>270.25</ele><time>2026-04-29T15:55:07.001Z</time></trkpt><trkpt lat="41.86844275885497" lon="19.78361716570904"><ele>271.0</ele><time>2026-04-29T15:55:08.001Z</time></trkpt><trkpt lat="41.86834802800061" lon="19.78349902630463"><ele>271.25</ele><time>2026-04-29T15:55:09.001Z</time></trkpt><trkpt lat="41.86825524819783" lon="19.783375346965833"><ele>271.5</ele><time>2026-04-29T15:55:10.001Z</time></trkpt><trkpt lat="41.86816291641292" lon="19.783249556136543"><ele>271.75</ele><time>2026-04-29T15:55:11.001Z</time></trkpt><trkpt lat="41.868067781440445" lon="19.783123800389614"><ele>272.0</ele><time>2026-04-29T15:55:12.001Z</time></trkpt><trkpt lat="41.86797260713605" lon="19.782995718519185"><ele>272.0</ele><time>2026-04-29T15:55:13.001Z</time></trkpt><trkpt lat="41.86787928210122" lon="19.782866492816208"><ele>272.0</ele><time>2026-04-29T15:55:14.001Z</time></trkpt><trkpt lat="41.86779168581133" lon="19.782733324717928"><ele>272.0</ele><time>2026-04-29T15:55:15.001Z</time></trkpt><trkpt lat="41.86772160895883" lon="19.78258512267761"><ele>272.0</ele><time>2026-04-29T15:55:16.001Z</time></trkpt><trkpt lat="41.867634953087915" lon="19.78245386257295"><ele>273.0</ele><time>2026-04-29T15:55:17.001Z</time></trkpt><trkpt lat="41.867545371521075" lon="19.782329842167716"><ele>274.0</ele><time>2026-04-29T15:55:18.001Z</time></trkpt><trkpt lat="41.867443919966725" lon="19.782226157803603"><ele>275.0</ele><time>2026-04-29T15:55:19.001Z</time></trkpt><trkpt lat="41.86735430368463" lon="19.782104075483144"><ele>276.0</ele><time>2026-04-29T15:55:20.001Z</time></trkpt><trkpt lat="41.86726705052527" lon="19.781984613360965"><ele>276.0</ele><time>2026-04-29T15:55:21.001Z</time></trkpt><trkpt lat="41.867182563726296" lon="19.781866635932627"><ele>276.0</ele><time>2026-04-29T15:55:22.001Z</time></trkpt><trkpt lat="41.867108164408855" lon="19.781747223191626"><ele>276.0</ele><time>2026-04-29T15:55:23.001Z</time></trkpt><trkpt lat="41.86703640174863" lon="19.781635652020626"><ele>276.0</ele><time>2026-04-29T15:55:24.001Z</time></trkpt><trkpt lat="41.866961186020895" lon="19.78154221796762"><ele>277.0</ele><time>2026-04-29T15:55:25.001Z</time></trkpt><trkpt lat="41.86686999925541" lon="19.78146957540366"><ele>278.0</ele><time>2026-04-29T15:55:26.001Z</time></trkpt><trkpt lat="41.866769016373595" lon="19.781409215295973"><ele>279.0</ele><time>2026-04-29T15:55:27.001Z</time></trkpt><trkpt lat="41.866665920395356" lon="19.781349648556475"><ele>280.0</ele><time>2026-04-29T15:55:28.001Z</time></trkpt><trkpt lat="41.86655821275509" lon="19.781287478886302"><ele>281.0</ele><time>2026-04-29T15:55:29.001Z</time></trkpt><trkpt lat="41.86645591870863" lon="19.78122405064158"><ele>281.0</ele><time>2026-04-29T15:55:30.001Z</time></trkpt><trkpt lat="41.86636394469958" lon="19.78116068599351"><ele>281.0</ele><time>2026-04-29T15:55:31.001Z</time></trkpt><trkpt lat="41.866286567595594" lon="19.781083146634405"><ele>281.0</ele><time>2026-04-29T15:55:32.001Z</time></trkpt><trkpt lat="41.86624767486288" lon="19.780945739104336"><ele>281.0</ele><time>2026-04-29T15:55:33.001Z</time></trkpt><trkpt lat="41.86617814365399" lon="19.7808201699734"><ele>281.0</ele><time>2026-04-29T15:55:34.001Z</time></trkpt><trkpt lat="41.866092450645496" lon="19.78071350602623"><ele>281.75</ele><time>2026-04-29T15:55:35.001Z</time></trkpt><trkpt lat="41.86599679165563" lon="19.780619865886745"><ele>282.5</ele><time>2026-04-29T15:55:36.001Z</time></trkpt><trkpt lat="41.865883368495815" lon="19.780549136016568"><ele>283.25</ele><time>2026-04-29T15:55:37.001Z</time></trkpt><trkpt lat="41.865778189845926" lon="19.78045437370031"><ele>284.0</ele><time>2026-04-29T15:55:38.001Z</time></trkpt><trkpt lat="41.865657536839144" lon="19.780412758542706"><ele>284.0</ele><time>2026-04-29T15:55:39.001Z</time></trkpt><trkpt lat="41.865537638595335" lon="19.780372975026115"><ele>284.0</ele><time>2026-04-29T15:55:40.001Z</time></trkpt><trkpt lat="41.865420396954875" lon="19.780311284424734"><ele>284.0</ele><time>2026-04-29T15:55:41.001Z</time></trkpt><trkpt lat="41.86530711127945" lon="19.7802568164953"><ele>284.0</ele><time>2026-04-29T15:55:42.001Z</time></trkpt><trkpt lat="41.86521641655821" lon="19.780181331847526"><ele>284.59999999999997</ele><time>2026-04-29T15:55:43.001Z</time></trkpt><trkpt lat="41.865129340807556" lon="19.780112208316737"><ele>285.2</ele><time>2026-04-29T15:55:44.001Z</time></trkpt><trkpt lat="41.865063886504856" lon="19.780023972750353"><ele>285.79999999999995</ele><time>2026-04-29T15:55:45.001Z</time></trkpt><trkpt lat="41.865010668217515" lon="19.77993270968586"><ele>286.4</ele><time>2026-04-29T15:55:46.001Z</time></trkpt><trkpt lat="41.864970277551585" lon="19.779826324070594"><ele>287.0</ele><time>2026-04-29T15:55:47.001Z</time></trkpt><trkpt lat="41.86496127596328" lon="19.77969775100675"><ele>287.0</ele><time>2026-04-29T15:55:48.001Z</time></trkpt><trkpt lat="41.864935221977454" lon="19.779562808988796"><ele>287.0</ele><time>2026-04-29T15:55:49.001Z</time></trkpt><trkpt lat="41.86490842556755" lon="19.77942402202639"><ele>287.0</ele><time>2026-04-29T15:55:50.001Z</time></trkpt><trkpt lat="41.86486575368222" lon="19.77928368155917"><ele>287.0</ele><time>2026-04-29T15:55:51.001Z</time></trkpt><trkpt lat="41.86483963165622" lon="19.779122392810915"><ele>287.0</ele><time>2026-04-29T15:55:52.001Z</time></trkpt><trkpt lat="41.86481224965851" lon="19.778946781716996"><ele>289.75</ele><time>2026-04-29T15:55:53.001Z</time></trkpt><trkpt lat="41.86478767570232" lon="19.77876377115342"><ele>292.5</ele><time>2026-04-29T15:55:54.001Z</time></trkpt><trkpt lat="41.8647561306196" lon="19.778587460195844"><ele>295.25</ele><time>2026-04-29T15:55:55.001Z</time></trkpt><trkpt lat="41.864719910796794" lon="19.778425280783132"><ele>298.0</ele><time>2026-04-29T15:55:56.001Z</time></trkpt><trkpt lat="41.864683491752885" lon="19.778247184692567"><ele>300.66666666666663</ele><time>2026-04-29T15:55:57.001Z</time></trkpt><trkpt lat="41.8646497319325" lon="19.778012200116645"><ele>303.3333333333333</ele><time>2026-04-29T15:55:58.001Z</time></trkpt><trkpt lat="41.86463816154686" lon="19.777725934601406"><ele>306.0</ele><time>2026-04-29T15:55:59.001Z</time></trkpt><trkpt lat="41.8645963458407" lon="19.77740801521305"><ele>306.0</ele><time>2026-04-29T15:56:00.001Z</time></trkpt><trkpt lat="41.864495094279455" lon="19.777059733818852"><ele>306.0</ele><time>2026-04-29T15:56:01.001Z</time></trkpt><trkpt lat="41.8644221721788" lon="19.77667449797226"><ele>309.5</ele><time>2026-04-29T15:56:02.001Z</time></trkpt><trkpt lat="41.864327329080545" lon="19.776316927174435"><ele>313.0</ele><time>2026-04-29T15:56:03.001Z</time></trkpt><trkpt lat="41.864186604023736" lon="19.775979536738227"><ele>307.0</ele><time>2026-04-29T15:56:04.001Z</time></trkpt><trkpt lat="41.86406400793964" lon="19.77558575893609"><ele>301.0</ele><time>2026-04-29T15:56:05.001Z</time></trkpt><trkpt lat="41.863959086822156" lon="19.77517892334201"><ele>301.0</ele><time>2026-04-29T15:56:06.001Z</time></trkpt><trkpt lat="41.8638694737566" lon="19.774830179313227"><ele>301.0</ele><time>2026-04-29T15:56:07.001Z</time></trkpt><trkpt lat="41.86378690524421" lon="19.77453662204342"><ele>303.0</ele><time>2026-04-29T15:56:08.001Z</time></trkpt><trkpt lat="41.86372727772087" lon="19.77426306626336"><ele>305.0</ele><time>2026-04-29T15:56:09.001Z</time></trkpt><trkpt lat="41.86373795978477" lon="19.77399001808291"><ele>307.0</ele><time>2026-04-29T15:56:10.001Z</time></trkpt><trkpt lat="41.863684562456264" lon="19.773765766692435"><ele>307.0</ele><time>2026-04-29T15:56:11.001Z</time></trkpt><trkpt lat="41.863667939738214" lon="19.773577537387936"><ele>307.0</ele><time>2026-04-29T15:56:12.001Z</time></trkpt><trkpt lat="41.86365667648495" lon="19.77337798648246"><ele>307.0</ele><time>2026-04-29T15:56:13.001Z</time></trkpt><trkpt lat="41.86369725527126" lon="19.773150853457334"><ele>309.75</ele><time>2026-04-29T15:56:14.001Z</time></trkpt><trkpt lat="41.86366545764851" lon="19.77294865683605"><ele>312.5</ele><time>2026-04-29T15:56:15.001Z</time></trkpt><trkpt lat="41.86364073159179" lon="19.7728057274137"><ele>315.25</ele><time>2026-04-29T15:56:16.001Z</time></trkpt><trkpt lat="41.86358411154001" lon="19.77269415775323"><ele>318.0</ele><time>2026-04-29T15:56:17.001Z</time></trkpt><trkpt lat="41.86347424323666" lon="19.772608058732597"><ele>312.6666666666667</ele><time>2026-04-29T15:56:18.001Z</time></trkpt><trkpt lat="41.8633298350065" lon="19.772503413162575"><ele>307.33333333333337</ele><time>2026-04-29T15:56:19.001Z</time></trkpt><trkpt lat="41.86323292204511" lon="19.772299316296273"><ele>302.0</ele><time>2026-04-29T15:56:20.001Z</time></trkpt><trkpt lat="41.86311929801246" lon="19.772121209158218"><ele>302.0</ele><time>2026-04-29T15:56:21.001Z</time></trkpt><trkpt lat="41.86306832076655" lon="19.771915948292634"><ele>302.0</ele><time>2026-04-29T15:56:22.001Z</time></trkpt><trkpt lat="41.863088605606734" lon="19.771657248517027"><ele>302.0</ele><time>2026-04-29T15:56:23.001Z</time></trkpt><trkpt lat="41.863020012372075" lon="19.771372512325833"><ele>304.0</ele><time>2026-04-29T15:56:24.001Z</time></trkpt><trkpt lat="41.86301012361678" lon="19.771096338338147"><ele>306.0</ele><time>2026-04-29T15:56:25.001Z</time></trkpt><trkpt lat="41.86302205381206" lon="19.77087253342722"><ele>308.0</ele><time>2026-04-29T15:56:26.001Z</time></trkpt><trkpt lat="41.863020491797414" lon="19.770651712473246"><ele>310.0</ele><time>2026-04-29T15:56:27.001Z</time></trkpt><trkpt lat="41.863025545060744" lon="19.77038483913448"><ele>312.0</ele><time>2026-04-29T15:56:28.001Z</time></trkpt><trkpt lat="41.86307593175967" lon="19.770073558980283"><ele>314.0</ele><time>2026-04-29T15:56:29.001Z</time></trkpt><trkpt lat="41.863123606286955" lon="19.769725014277185"><ele>314.0</ele><time>2026-04-29T15:56:30.001Z</time></trkpt><trkpt lat="41.86316437870037" lon="19.76943012009451"><ele>314.0</ele><time>2026-04-29T15:56:31.001Z</time></trkpt><trkpt lat="41.86319957310972" lon="19.76917375296342"><ele>314.0</ele><time>2026-04-29T15:56:32.001Z</time></trkpt><trkpt lat="41.86322851282798" lon="19.7689646379156"><ele>314.0</ele><time>2026-04-29T15:56:33.001Z</time></trkpt><trkpt lat="41.863222540827664" lon="19.768756032638006"><ele>314.0</ele><time>2026-04-29T15:56:34.001Z</time></trkpt><trkpt lat="41.86317131483539" lon="19.768508075939227"><ele>314.0</ele><time>2026-04-29T15:56:35.001Z</time></trkpt><trkpt lat="41.86312801017095" lon="19.768275374314747"><ele>314.25</ele><time>2026-04-29T15:56:36.001Z</time></trkpt><trkpt lat="41.86308822864545" lon="19.76809913613301"><ele>314.5</ele><time>2026-04-29T15:56:37.001Z</time></trkpt><trkpt lat="41.86299533644303" lon="19.767970198893373"><ele>314.75</ele><time>2026-04-29T15:56:38.001Z</time></trkpt><trkpt lat="41.86286645712023" lon="19.767815774267344"><ele>315.0</ele><time>2026-04-29T15:56:39.001Z</time></trkpt><trkpt lat="41.86267573815527" lon="19.76762856855492"><ele>309.5</ele><time>2026-04-29T15:56:40.001Z</time></trkpt><trkpt lat="41.86245136161105" lon="19.767407240715894"><ele>304.0</ele><time>2026-04-29T15:56:41.001Z</time></trkpt><trkpt lat="41.86223010673571" lon="19.767176039809996"><ele>304.0</ele><time>2026-04-29T15:56:42.001Z</time></trkpt><trkpt lat="41.862061784655246" lon="19.767003356996348"><ele>304.0</ele><time>2026-04-29T15:56:43.001Z</time></trkpt><trkpt lat="41.86194416817414" lon="19.76683989605848"><ele>304.0</ele><time>2026-04-29T15:56:44.001Z</time></trkpt><trkpt lat="41.861856610974634" lon="19.76667410240549"><ele>304.0</ele><time>2026-04-29T15:56:45.001Z</time></trkpt><trkpt lat="41.861796285752376" lon="19.766474969199383"><ele>304.0</ele><time>2026-04-29T15:56:46.001Z</time></trkpt><trkpt lat="41.861725963415694" lon="19.76621580707793"><ele>304.0</ele><time>2026-04-29T15:56:47.001Z</time></trkpt><trkpt lat="41.861636205697145" lon="19.7659151233139"><ele>304.0</ele><time>2026-04-29T15:56:48.001Z</time></trkpt><trkpt lat="41.86155614082645" lon="19.765577807902467"><ele>304.0</ele><time>2026-04-29T15:56:49.001Z</time></trkpt><trkpt lat="41.86145612258077" lon="19.765243712706287"><ele>305.5</ele><time>2026-04-29T15:56:50.001Z</time></trkpt><trkpt lat="41.861341917452904" lon="19.76489843906923"><ele>307.0</ele><time>2026-04-29T15:56:51.001Z</time></trkpt><trkpt lat="41.8612405018036" lon="19.76458887566961"><ele>309.3333333333333</ele><time>2026-04-29T15:56:52.001Z</time></trkpt><trkpt lat="41.86113705055163" lon="19.76432517674675"><ele>311.6666666666667</ele><time>2026-04-29T15:56:53.001Z</time></trkpt><trkpt lat="41.86101354600242" lon="19.76407808455813"><ele>314.0</ele><time>2026-04-29T15:56:54.001Z</time></trkpt><trkpt lat="41.860872711183625" lon="19.763830144575596"><ele>314.0</ele><time>2026-04-29T15:56:55.001Z</time></trkpt><trkpt lat="41.86074526635129" lon="19.763621661994232"><ele>314.0</ele><time>2026-04-29T15:56:56.001Z</time></trkpt><trkpt lat="41.86062793679395" lon="19.76344861686141"><ele>314.0</ele><time>2026-04-29T15:56:57.001Z</time></trkpt><trkpt lat="41.860481897706215" lon="19.76330134244531"><ele>316.5</ele><time>2026-04-29T15:56:58.001Z</time></trkpt><trkpt lat="41.86026881992363" lon="19.763176862817446"><ele>319.0</ele><time>2026-04-29T15:56:59.001Z</time></trkpt><trkpt lat="41.860052998668486" lon="19.763053284675035"><ele>319.0</ele><time>2026-04-29T15:57:00.001Z</time></trkpt><trkpt lat="41.85981139280466" lon="19.76295375702373"><ele>319.0</ele><time>2026-04-29T15:57:01.001Z</time></trkpt><trkpt lat="41.859525435671124" lon="19.762860517118483"><ele>319.0</ele><time>2026-04-29T15:57:02.001Z</time></trkpt><trkpt lat="41.859225354259365" lon="19.76274973621201"><ele>319.0</ele><time>2026-04-29T15:57:03.001Z</time></trkpt><trkpt lat="41.85895279600062" lon="19.762666002690658"><ele>321.0</ele><time>2026-04-29T15:57:04.001Z</time></trkpt><trkpt lat="41.85873818311677" lon="19.76261804968612"><ele>323.0</ele><time>2026-04-29T15:57:05.001Z</time></trkpt><trkpt lat="41.858552284405334" lon="19.76257845505392"><ele>325.0</ele><time>2026-04-29T15:57:06.001Z</time></trkpt><trkpt lat="41.85837536034143" lon="19.76258179909659"><ele>326.5</ele><time>2026-04-29T15:57:07.001Z</time></trkpt><trkpt lat="41.85816218809013" lon="19.762600579707254"><ele>328.0</ele><time>2026-04-29T15:57:08.001Z</time></trkpt><trkpt lat="41.85791086966109" lon="19.762614412095996"><ele>328.0</ele><time>2026-04-29T15:57:09.001Z</time></trkpt><trkpt lat="41.857662007331186" lon="19.76255848433087"><ele>328.0</ele><time>2026-04-29T15:57:10.001Z</time></trkpt><trkpt lat="41.85739922843508" lon="19.762503040322983"><ele>329.0</ele><time>2026-04-29T15:57:11.001Z</time></trkpt><trkpt lat="41.85712239291139" lon="19.7624109885767"><ele>330.0</ele><time>2026-04-29T15:57:12.001Z</time></trkpt><trkpt lat="41.85689172969496" lon="19.762304713379006"><ele>328.6666666666667</ele><time>2026-04-29T15:57:13.001Z</time></trkpt><trkpt lat="41.85669675610538" lon="19.76222846680867"><ele>327.33333333333337</ele><time>2026-04-29T15:57:14.001Z</time></trkpt><trkpt lat="41.85653900745941" lon="19.762201462682526"><ele>326.0</ele><time>2026-04-29T15:57:15.001Z</time></trkpt><trkpt lat="41.85638985083657" lon="19.762143116890297"><ele>326.0</ele><time>2026-04-29T15:57:16.001Z</time></trkpt><trkpt lat="41.856252668811955" lon="19.76198349217544"><ele>326.0</ele><time>2026-04-29T15:57:17.001Z</time></trkpt><trkpt lat="41.8560746473601" lon="19.761814786587387"><ele>326.0</ele><time>2026-04-29T15:57:18.001Z</time></trkpt><trkpt lat="41.855927320310556" lon="19.761665026850658"><ele>327.0</ele><time>2026-04-29T15:57:19.001Z</time></trkpt><trkpt lat="41.85581956269547" lon="19.76153011192965"><ele>328.0</ele><time>2026-04-29T15:57:20.001Z</time></trkpt><trkpt lat="41.85577318262645" lon="19.761353640055496"><ele>329.0</ele><time>2026-04-29T15:57:21Z</time></trkpt><trkpt lat="41.85573560475246" lon="19.761138406220372"><ele>333.33333333333337</ele><time>2026-04-29T15:57:22Z</time></trkpt><trkpt lat="41.85571828605777" lon="19.760895250751847"><ele>337.6666666666667</ele><time>2026-04-29T15:57:23Z</time></trkpt><trkpt lat="41.8557360271583" lon="19.760644630754395"><ele>342.0</ele><time>2026-04-29T15:57:24Z</time></trkpt><trkpt lat="41.85576900321586" lon="19.760359556278683"><ele>341.6666666666667</ele><time>2026-04-29T15:57:25Z</time></trkpt><trkpt lat="41.85580763479886" lon="19.760079147117672"><ele>341.33333333333337</ele><time>2026-04-29T15:57:26Z</time></trkpt><trkpt lat="41.855847226650546" lon="19.759801378690458"><ele>341.0</ele><time>2026-04-29T15:57:27Z</time></trkpt><trkpt lat="41.85586830690952" lon="19.759536111764863"><ele>341.0</ele><time>2026-04-29T15:57:28Z</time></trkpt><trkpt lat="41.85586451124728" lon="19.75926121010449"><ele>341.0</ele><time>2026-04-29T15:57:29Z</time></trkpt><trkpt lat="41.85586021340215" lon="19.758985120843356"><ele>341.0</ele><time>2026-04-29T15:57:30Z</time></trkpt><trkpt lat="41.855836364200265" lon="19.75869845060576"><ele>342.0</ele><time>2026-04-29T15:57:31Z</time></trkpt><trkpt lat="41.85582193037125" lon="19.758444719223316"><ele>343.0</ele><time>2026-04-29T15:57:32Z</time></trkpt><trkpt lat="41.85581223459839" lon="19.75819577554016"><ele>344.0</ele><time>2026-04-29T15:57:33Z</time></trkpt><trkpt lat="41.85584295517318" lon="19.757956885924713"><ele>344.0</ele><time>2026-04-29T15:57:34Z</time></trkpt><trkpt lat="41.85589234218101" lon="19.75769714727506"><ele>344.0</ele><time>2026-04-29T15:57:35Z</time></trkpt><trkpt lat="41.855932783368985" lon="19.757415391467987"><ele>344.0</ele><time>2026-04-29T15:57:36Z</time></trkpt><trkpt lat="41.85600786062524" lon="19.75711525567499"><ele>359.0</ele><time>2026-04-29T15:57:37Z</time></trkpt><trkpt lat="41.856089456448814" lon="19.756795766835577"><ele>374.0</ele><time>2026-04-29T15:57:38Z</time></trkpt><trkpt lat="41.856132167429706" lon="19.75643179112571"><ele>374.0</ele><time>2026-04-29T15:57:39Z</time></trkpt><trkpt lat="41.85618791971475" lon="19.756100671659024"><ele>374.0</ele><time>2026-04-29T15:57:40Z</time></trkpt><trkpt lat="41.85625323681908" lon="19.755796324388527"><ele>372.0</ele><time>2026-04-29T15:57:41Z</time></trkpt><trkpt lat="41.85634809199557" lon="19.755513439805526"><ele>370.0</ele><time>2026-04-29T15:57:42Z</time></trkpt><trkpt lat="41.85640515357767" lon="19.75525295859301"><ele>368.0</ele><time>2026-04-29T15:57:43Z</time></trkpt><trkpt lat="41.856467747450516" lon="19.75501940779119"><ele>366.33333333333337</ele><time>2026-04-29T15:57:44Z</time></trkpt><trkpt lat="41.85652914898956" lon="19.75479920018305"><ele>364.6666666666667</ele><time>2026-04-29T15:57:45Z</time></trkpt><trkpt lat="41.85654600630903" lon="19.754527020268057"><ele>363.0</ele><time>2026-04-29T15:57:46Z</time></trkpt><trkpt lat="41.85656143044933" lon="19.7542462495037"><ele>363.0</ele><time>2026-04-29T15:57:47Z</time></trkpt><trkpt lat="41.856560379159" lon="19.753952400140545"><ele>363.0</ele><time>2026-04-29T15:57:48Z</time></trkpt><trkpt lat="41.856590692341044" lon="19.753644867458686"><ele>363.3333333333333</ele><time>2026-04-29T15:57:49Z</time></trkpt><trkpt lat="41.85657821384694" lon="19.753323705363208"><ele>363.66666666666663</ele><time>2026-04-29T15:57:50Z</time></trkpt><trkpt lat="41.85656758351334" lon="19.753050112916974"><ele>364.0</ele><time>2026-04-29T15:57:51Z</time></trkpt><trkpt lat="41.85655825858053" lon="19.752792086005975"><ele>365.3333333333333</ele><time>2026-04-29T15:57:52Z</time></trkpt><trkpt lat="41.856610827318285" lon="19.75253171794121"><ele>366.6666666666667</ele><time>2026-04-29T15:57:53Z</time></trkpt><trkpt lat="41.8566961873959" lon="19.752265365920717"><ele>368.0</ele><time>2026-04-29T15:57:54Z</time></trkpt><trkpt lat="41.856769198844944" lon="19.752005998157173"><ele>378.6666666666667</ele><time>2026-04-29T15:57:55Z</time></trkpt><trkpt lat="41.856813421404084" lon="19.751729736886396"><ele>389.33333333333337</ele><time>2026-04-29T15:57:56Z</time></trkpt><trkpt lat="41.85686300425967" lon="19.75141912138709"><ele>400.0</ele><time>2026-04-29T15:57:57Z</time></trkpt><trkpt lat="41.8569362380482" lon="19.75110344064074"><ele>399.33333333333337</ele><time>2026-04-29T15:57:58Z</time></trkpt><trkpt lat="41.8570219018089" lon="19.750817979991073"><ele>398.66666666666663</ele><time>2026-04-29T15:57:59Z</time></trkpt><trkpt lat="41.85709939219701" lon="19.750573307873537"><ele>398.0</ele><time>2026-04-29T15:58:00Z</time></trkpt><trkpt lat="41.857151895638545" lon="19.75034109610602"><ele>394.66666666666663</ele><time>2026-04-29T15:58:01Z</time></trkpt><trkpt lat="41.857169904745284" lon="19.75008056330507"><ele>391.33333333333337</ele><time>2026-04-29T15:58:02Z</time></trkpt><trkpt lat="41.85718630760208" lon="19.74981310986383"><ele>388.0</ele><time>2026-04-29T15:58:03Z</time></trkpt><trkpt lat="41.85724005000942" lon="19.749587890030117"><ele>386.33333333333337</ele><time>2026-04-29T15:58:04Z</time></trkpt><trkpt lat="41.857342708333576" lon="19.749369712972232"><ele>384.6666666666667</ele><time>2026-04-29T15:58:05Z</time></trkpt><trkpt lat="41.8574438097225" lon="19.749127686839543"><ele>383.0</ele><time>2026-04-29T15:58:06Z</time></trkpt><trkpt lat="41.857515967168105" lon="19.74882683571979"><ele>383.5</ele><time>2026-04-29T15:58:07Z</time></trkpt><trkpt lat="41.857595735144095" lon="19.74849036956874"><ele>384.0</ele><time>2026-04-29T15:58:08Z</time></trkpt><trkpt lat="41.85768447391827" lon="19.748167984039757"><ele>391.0</ele><time>2026-04-29T15:58:09Z</time></trkpt><trkpt lat="41.857767938625635" lon="19.747906247740573"><ele>398.0</ele><time>2026-04-29T15:58:10Z</time></trkpt><trkpt lat="41.85783486282165" lon="19.747700363416772"><ele>405.0</ele><time>2026-04-29T15:58:11Z</time></trkpt><trkpt lat="41.857892158923065" lon="19.747535228727852"><ele>405.0</ele><time>2026-04-29T15:58:12Z</time></trkpt><trkpt lat="41.85796824480854" lon="19.747408070577265"><ele>405.0</ele><time>2026-04-29T15:58:13Z</time></trkpt><trkpt lat="41.858090018384694" lon="19.74731877074477"><ele>405.0</ele><time>2026-04-29T15:58:14Z</time></trkpt><trkpt lat="41.85821092999409" lon="19.747205909240822"><ele>405.0</ele><time>2026-04-29T15:58:15Z</time></trkpt><trkpt lat="41.858268166029454" lon="19.747046961843452"><ele>403.66666666666663</ele><time>2026-04-29T15:58:16Z</time></trkpt><trkpt lat="41.85830366788987" lon="19.74683845541359"><ele>402.3333333333333</ele><time>2026-04-29T15:58:17Z</time></trkpt><trkpt lat="41.858289227450086" lon="19.74660332710651"><ele>401.0</ele><time>2026-04-29T15:58:18Z</time></trkpt><trkpt lat="41.85827091952432" lon="19.746346247595127"><ele>401.0</ele><time>2026-04-29T15:58:19Z</time></trkpt><trkpt lat="41.85830395035986" lon="19.74613567977594"><ele>401.0</ele><time>2026-04-29T15:58:20Z</time></trkpt><trkpt lat="41.8583662873384" lon="19.745949673844795"><ele>401.0</ele><time>2026-04-29T15:58:21Z</time></trkpt><trkpt lat="41.858390595223916" lon="19.74580101486651"><ele>401.0</ele><time>2026-04-29T15:58:22Z</time></trkpt><trkpt lat="41.85836504779708" lon="19.745585965333294"><ele>403.3333333333333</ele><time>2026-04-29T15:58:23Z</time></trkpt><trkpt lat="41.8583224263385" lon="19.745316253449086"><ele>405.66666666666663</ele><time>2026-04-29T15:58:24Z</time></trkpt><trkpt lat="41.85826027019412" lon="19.7450253552668"><ele>408.0</ele><time>2026-04-29T15:58:25Z</time></trkpt><trkpt lat="41.85821664330595" lon="19.744693667604672"><ele>417.0</ele><time>2026-04-29T15:58:26Z</time></trkpt><trkpt lat="41.858191089648585" lon="19.74431186137599"><ele>426.0</ele><time>2026-04-29T15:58:27Z</time></trkpt><trkpt lat="41.858150204812" lon="19.743917887767488"><ele>430.5</ele><time>2026-04-29T15:58:28Z</time></trkpt><trkpt lat="41.85809759742704" lon="19.743543582280328"><ele>435.0</ele><time>2026-04-29T15:58:29Z</time></trkpt><trkpt lat="41.85805156877856" lon="19.74325007905562"><ele>435.0</ele><time>2026-04-29T15:58:30Z</time></trkpt><trkpt lat="41.857996342171205" lon="19.742994699491177"><ele>435.0</ele><time>2026-04-29T15:58:31Z</time></trkpt><trkpt lat="41.85795350706229" lon="19.742813295724922"><ele>435.0</ele><time>2026-04-29T15:58:32Z</time></trkpt><trkpt lat="41.857940667671095" lon="19.742671373057174"><ele>435.0</ele><time>2026-04-29T15:58:33Z</time></trkpt><trkpt lat="41.85797869322491" lon="19.742524358761123"><ele>436.25</ele><time>2026-04-29T15:58:34Z</time></trkpt><trkpt lat="41.85806817735571" lon="19.74235668305613"><ele>437.5</ele><time>2026-04-29T15:58:35Z</time></trkpt><trkpt lat="41.85816165312963" lon="19.742173401256665"><ele>438.75</ele><time>2026-04-29T15:58:36Z</time></trkpt><trkpt lat="41.858187326010764" lon="19.742002221499735"><ele>440.0</ele><time>2026-04-29T15:58:37Z</time></trkpt><trkpt lat="41.858144521570765" lon="19.741812521082522"><ele>441.66666666666663</ele><time>2026-04-29T15:58:38Z</time></trkpt><trkpt lat="41.858069803374455" lon="19.741589126896354"><ele>443.33333333333337</ele><time>2026-04-29T15:58:39.001Z</time></trkpt><trkpt lat="41.858015513811175" lon="19.741325790512292"><ele>445.0</ele><time>2026-04-29T15:58:40.001Z</time></trkpt><trkpt lat="41.85800225503033" lon="19.741031827487156"><ele>451.0</ele><time>2026-04-29T15:58:41.001Z</time></trkpt><trkpt lat="41.85800282824051" lon="19.740778333625933"><ele>457.0</ele><time>2026-04-29T15:58:42.001Z</time></trkpt><trkpt lat="41.85801483594898" lon="19.740587167104607"><ele>463.0</ele><time>2026-04-29T15:58:43.001Z</time></trkpt><trkpt lat="41.85805161397922" lon="19.74039472768043"><ele>462.33333333333337</ele><time>2026-04-29T15:58:44.001Z</time></trkpt><trkpt lat="41.85811682597017" lon="19.740174795334074"><ele>461.66666666666663</ele><time>2026-04-29T15:58:45.001Z</time></trkpt><trkpt lat="41.858210252656995" lon="19.739961103715125"><ele>461.0</ele><time>2026-04-29T15:58:46.001Z</time></trkpt><trkpt lat="41.85832676242976" lon="19.739760081749086"><ele>461.0</ele><time>2026-04-29T15:58:47.001Z</time></trkpt><trkpt lat="41.85843518001685" lon="19.739604240723065"><ele>461.0</ele><time>2026-04-29T15:58:48.001Z</time></trkpt><trkpt lat="41.85852353763668" lon="19.73948496277849"><ele>461.0</ele><time>2026-04-29T15:58:49.001Z</time></trkpt><trkpt lat="41.85857407532884" lon="19.73936544636493"><ele>461.0</ele><time>2026-04-29T15:58:50.001Z</time></trkpt><trkpt lat="41.858572504699985" lon="19.739220218536662"><ele>462.75</ele><time>2026-04-29T15:58:51.001Z</time></trkpt><trkpt lat="41.858523464642865" lon="19.739086945287156"><ele>464.5</ele><time>2026-04-29T15:58:52.001Z</time></trkpt><trkpt lat="41.858430264863436" lon="19.739018411446004"><ele>466.25</ele><time>2026-04-29T15:58:53.001Z</time></trkpt><trkpt lat="41.85830434331557" lon="19.739016985596155"><ele>468.0</ele><time>2026-04-29T15:58:54.001Z</time></trkpt><trkpt lat="41.85813100447143" lon="19.739048193849246"><ele>468.0</ele><time>2026-04-29T15:58:55.001Z</time></trkpt><trkpt lat="41.857963646912744" lon="19.739020263014567"><ele>468.0</ele><time>2026-04-29T15:58:56.001Z</time></trkpt><trkpt lat="41.85783409891332" lon="19.73897746381673"><ele>468.0</ele><time>2026-04-29T15:58:57.001Z</time></trkpt><trkpt lat="41.857721696435796" lon="19.738898041706513"><ele>468.0</ele><time>2026-04-29T15:58:58.001Z</time></trkpt><trkpt lat="41.85763596670385" lon="19.73879014726385"><ele>466.75</ele><time>2026-04-29T15:58:59.001Z</time></trkpt><trkpt lat="41.857595540377346" lon="19.738641275673565"><ele>465.5</ele><time>2026-04-29T15:59:00.001Z</time></trkpt><trkpt lat="41.857593210349215" lon="19.738454425408626"><ele>464.25</ele><time>2026-04-29T15:59:01.001Z</time></trkpt><trkpt lat="41.85759178588839" lon="19.73823342637224"><ele>463.0</ele><time>2026-04-29T15:59:02.001Z</time></trkpt><trkpt lat="41.8575697831296" lon="19.73798264701064"><ele>468.0</ele><time>2026-04-29T15:59:03.001Z</time></trkpt><trkpt lat="41.85755060400789" lon="19.737766921689285"><ele>473.0</ele><time>2026-04-29T15:59:04.001Z</time></trkpt><trkpt lat="41.857568163904965" lon="19.73758292197202"><ele>478.0</ele><time>2026-04-29T15:59:05.001Z</time></trkpt><trkpt lat="41.85760767155546" lon="19.737372722596316"><ele>493.6666666666667</ele><time>2026-04-29T15:59:06.001Z</time></trkpt><trkpt lat="41.8576560887874" lon="19.73713686684304"><ele>509.33333333333337</ele><time>2026-04-29T15:59:07.001Z</time></trkpt><trkpt lat="41.85770665584345" lon="19.736878661688312"><ele>525.0</ele><time>2026-04-29T15:59:08.001Z</time></trkpt><trkpt lat="41.857751350578155" lon="19.73665569493631"><ele>526.25</ele><time>2026-04-29T15:59:09.001Z</time></trkpt><trkpt lat="41.857803741430146" lon="19.736447966424535"><ele>527.5</ele><time>2026-04-29T15:59:10.001Z</time></trkpt><trkpt lat="41.85785371650823" lon="19.736275436821003"><ele>528.75</ele><time>2026-04-29T15:59:11.001Z</time></trkpt><trkpt lat="41.85789310905485" lon="19.73615376281243"><ele>530.0</ele><time>2026-04-29T15:59:12.001Z</time></trkpt><trkpt lat="41.8579693694676" lon="19.736067619974726"><ele>530.0</ele><time>2026-04-29T15:59:14.001Z</time></trkpt><trkpt lat="41.85802149054047" lon="19.736122056427792"><ele>530.0</ele><time>2026-04-29T15:59:15.001Z</time></trkpt><trkpt lat="41.85804195993409" lon="19.736224763415393"><ele>530.0</ele><time>2026-04-29T15:59:16.001Z</time></trkpt><trkpt lat="41.858022541635165" lon="19.736367475759106"><ele>530.0</ele><time>2026-04-29T15:59:17Z</time></trkpt><trkpt lat="41.8579396699989" lon="19.736559522848566"><ele>530.0</ele><time>2026-04-29T15:59:18Z</time></trkpt><trkpt lat="41.857891579608896" lon="19.73677174024775"><ele>528.3333333333333</ele><time>2026-04-29T15:59:19Z</time></trkpt><trkpt lat="41.85789751078859" lon="19.736978528758343"><ele>526.6666666666666</ele><time>2026-04-29T15:59:20Z</time></trkpt><trkpt lat="41.85791835010638" lon="19.73721853831078"><ele>525.0</ele><time>2026-04-29T15:59:21Z</time></trkpt><trkpt lat="41.857953715736514" lon="19.737437029030126"><ele>525.0</ele><time>2026-04-29T15:59:22Z</time></trkpt><trkpt lat="41.85802838892665" lon="19.737641469325606"><ele>525.0</ele><time>2026-04-29T15:59:23Z</time></trkpt><trkpt lat="41.85810541322471" lon="19.73779005418126"><ele>525.0</ele><time>2026-04-29T15:59:24Z</time></trkpt><trkpt lat="41.85816986628246" lon="19.73789220334133"><ele>525.0</ele><time>2026-04-29T15:59:25Z</time></trkpt><trkpt lat="41.858270534225234" lon="19.737937770507347"><ele>516.0</ele><time>2026-04-29T15:59:26Z</time></trkpt><trkpt lat="41.85839776089261" lon="19.737931896177084"><ele>507.0</ele><time>2026-04-29T15:59:27Z</time></trkpt><trkpt lat="41.858549230092294" lon="19.737873812637098"><ele>498.0</ele><time>2026-04-29T15:59:28Z</time></trkpt><trkpt lat="41.858740221115646" lon="19.737770912307983"><ele>509.0</ele><time>2026-04-29T15:59:29Z</time></trkpt><trkpt lat="41.85894297522909" lon="19.737652202307096"><ele>520.0</ele><time>2026-04-29T15:59:30Z</time></trkpt><trkpt lat="41.85911488183844" lon="19.737579249343447"><ele>531.0</ele><time>2026-04-29T15:59:31Z</time></trkpt><trkpt lat="41.859313529862284" lon="19.737546806955727"><ele>531.0</ele><time>2026-04-29T15:59:32Z</time></trkpt><trkpt lat="41.85950915385325" lon="19.737509509511415"><ele>531.0</ele><time>2026-04-29T15:59:33Z</time></trkpt><trkpt lat="41.85971666921094" lon="19.73745001513196"><ele>531.0</ele><time>2026-04-29T15:59:34Z</time></trkpt><trkpt lat="41.85987975771711" lon="19.737335103102417"><ele>531.0</ele><time>2026-04-29T15:59:35Z</time></trkpt><trkpt lat="41.86001467716687" lon="19.737211108199965"><ele>531.0</ele><time>2026-04-29T15:59:36Z</time></trkpt><trkpt lat="41.86013878947631" lon="19.737137324610753"><ele>531.0</ele><time>2026-04-29T15:59:37Z</time></trkpt><trkpt lat="41.860287157840055" lon="19.73714149963479"><ele>531.0</ele><time>2026-04-29T15:59:38Z</time></trkpt><trkpt lat="41.86047061094732" lon="19.737184748835602"><ele>536.5</ele><time>2026-04-29T15:59:39Z</time></trkpt><trkpt lat="41.86062993633992" lon="19.737232795115737"><ele>542.0</ele><time>2026-04-29T15:59:40Z</time></trkpt><trkpt lat="41.860736582451345" lon="19.73727534399099"><ele>547.5</ele><time>2026-04-29T15:59:41Z</time></trkpt><trkpt lat="41.86080827531212" lon="19.737376795646096"><ele>553.0</ele><time>2026-04-29T15:59:42Z</time></trkpt><trkpt lat="41.86082602790332" lon="19.73752418553013"><ele>553.0</ele><time>2026-04-29T15:59:43Z</time></trkpt><trkpt lat="41.86081123933603" lon="19.73771350815443"><ele>553.0</ele><time>2026-04-29T15:59:44Z</time></trkpt><trkpt lat="41.86078935800522" lon="19.737971965015266"><ele>553.0</ele><time>2026-04-29T15:59:45Z</time></trkpt><trkpt lat="41.8607249013555" lon="19.738280760227912"><ele>558.5</ele><time>2026-04-29T15:59:46Z</time></trkpt><trkpt lat="41.86063324893986" lon="19.738620933727756"><ele>564.0</ele><time>2026-04-29T15:59:47Z</time></trkpt><trkpt lat="41.860527030396455" lon="19.738949589920132"><ele>564.0</ele><time>2026-04-29T15:59:48Z</time></trkpt><trkpt lat="41.86045739476655" lon="19.739137541267034"><ele>564.0</ele><time>2026-04-29T15:59:49Z</time></trkpt><trkpt lat="41.86039089477329" lon="19.739280019462402"><ele>564.0</ele><time>2026-04-29T15:59:50Z</time></trkpt><trkpt lat="41.86036100391889" lon="19.739377502876938"><ele>564.0</ele><time>2026-04-29T15:59:51Z</time></trkpt><trkpt lat="41.86039882215294" lon="19.73946260895855"><ele>564.0</ele><time>2026-04-29T15:59:52Z</time></trkpt><trkpt lat="41.8604796877386" lon="19.73950269113305"><ele>564.0</ele><time>2026-04-29T15:59:53Z</time></trkpt><trkpt lat="41.860564399646364" lon="19.73945670733164"><ele>564.0</ele><time>2026-04-29T15:59:54Z</time></trkpt><trkpt lat="41.86061390387518" lon="19.73934249589097"><ele>564.0</ele><time>2026-04-29T15:59:55Z</time></trkpt><trkpt lat="41.86063217598128" lon="19.739176232681956"><ele>564.0</ele><time>2026-04-29T15:59:56Z</time></trkpt><trkpt lat="41.86066080715983" lon="19.738957455712136"><ele>564.0</ele><time>2026-04-29T15:59:57Z</time></trkpt><trkpt lat="41.86073175497127" lon="19.73871465470536"><ele>564.0</ele><time>2026-04-29T15:59:58Z</time></trkpt><trkpt lat="41.86085716014254" lon="19.738427760337142"><ele>564.0</ele><time>2026-04-29T15:59:59Z</time></trkpt><trkpt lat="41.86100058194376" lon="19.738129753938598"><ele>573.6666666666666</ele><time>2026-04-29T16:00:00Z</time></trkpt><trkpt lat="41.861116919767895" lon="19.737898833989394"><ele>583.3333333333333</ele><time>2026-04-29T16:00:01Z</time></trkpt><trkpt lat="41.86123460480683" lon="19.737690021333375"><ele>593.0</ele><time>2026-04-29T16:00:02Z</time></trkpt><trkpt lat="41.86125896733991" lon="19.737444940282472"><ele>593.0</ele><time>2026-04-29T16:00:03Z</time></trkpt><trkpt lat="41.86126025345167" lon="19.737201977559923"><ele>593.0</ele><time>2026-04-29T16:00:04Z</time></trkpt><trkpt lat="41.86126903700847" lon="19.736991592658736"><ele>593.0</ele><time>2026-04-29T16:00:05Z</time></trkpt><trkpt lat="41.861261091203865" lon="19.736828852811506"><ele>587.3333333333333</ele><time>2026-04-29T16:00:06Z</time></trkpt><trkpt lat="41.86121105835797" lon="19.736687179479844"><ele>581.6666666666666</ele><time>2026-04-29T16:00:07Z</time></trkpt><trkpt lat="41.8611069951929" lon="19.7365217278769"><ele>576.0</ele><time>2026-04-29T16:00:08Z</time></trkpt><trkpt lat="41.86097359659492" lon="19.736313904283172"><ele>574.5</ele><time>2026-04-29T16:00:09Z</time></trkpt><trkpt lat="41.860814358254366" lon="19.736096589946754"><ele>573.0</ele><time>2026-04-29T16:00:10Z</time></trkpt><trkpt lat="41.8606951498837" lon="19.735825088164614"><ele>573.0</ele><time>2026-04-29T16:00:11Z</time></trkpt><trkpt lat="41.86061312589033" lon="19.73552276555626"><ele>573.0</ele><time>2026-04-29T16:00:12Z</time></trkpt><trkpt lat="41.86057525544701" lon="19.735247195299138"><ele>573.0</ele><time>2026-04-29T16:00:13Z</time></trkpt><trkpt lat="41.860534391140284" lon="19.73493234220239"><ele>570.0</ele><time>2026-04-29T16:00:14Z</time></trkpt><trkpt lat="41.860517990090855" lon="19.734629612635224"><ele>567.0</ele><time>2026-04-29T16:00:15Z</time></trkpt><trkpt lat="41.86054858655587" lon="19.73437170226727"><ele>564.0</ele><time>2026-04-29T16:00:16Z</time></trkpt><trkpt lat="41.8605732561358" lon="19.734105783894524"><ele>564.0</ele><time>2026-04-29T16:00:17Z</time></trkpt><trkpt lat="41.86057588895951" lon="19.73387456690002"><ele>564.0</ele><time>2026-04-29T16:00:18Z</time></trkpt><trkpt lat="41.860576804836136" lon="19.73367501222863"><ele>564.0</ele><time>2026-04-29T16:00:19Z</time></trkpt><trkpt lat="41.86054151353853" lon="19.733490723799573"><ele>565.3333333333334</ele><time>2026-04-29T16:00:20Z</time></trkpt><trkpt lat="41.860446650731625" lon="19.733293171655827"><ele>566.6666666666667</ele><time>2026-04-29T16:00:21Z</time></trkpt><trkpt lat="41.86031639286235" lon="19.73305335969909"><ele>568.0</ele><time>2026-04-29T16:00:22Z</time></trkpt><trkpt lat="41.860222229627745" lon="19.732824382097686"><ele>570.0</ele><time>2026-04-29T16:00:23Z</time></trkpt><trkpt lat="41.860252210945866" lon="19.732596016757807"><ele>572.0</ele><time>2026-04-29T16:00:24Z</time></trkpt><trkpt lat="41.86026916189564" lon="19.732326734911787"><ele>574.0</ele><time>2026-04-29T16:00:25Z</time></trkpt><trkpt lat="41.860247993045185" lon="19.73203883213059"><ele>576.6666666666667</ele><time>2026-04-29T16:00:26Z</time></trkpt><trkpt lat="41.86021651592439" lon="19.731732522079234"><ele>579.3333333333334</ele><time>2026-04-29T16:00:27Z</time></trkpt><trkpt lat="41.86022717953527" lon="19.731475430830322"><ele>582.0</ele><time>2026-04-29T16:00:28Z</time></trkpt><trkpt lat="41.86024322553662" lon="19.73122573762225"><ele>583.3333333333334</ele><time>2026-04-29T16:00:29Z</time></trkpt><trkpt lat="41.86024632017382" lon="19.731007247029456"><ele>584.6666666666667</ele><time>2026-04-29T16:00:30Z</time></trkpt><trkpt lat="41.860295794401225" lon="19.730823293425882"><ele>586.0</ele><time>2026-04-29T16:00:31Z</time></trkpt><trkpt lat="41.860383809529786" lon="19.73065915513962"><ele>586.0</ele><time>2026-04-29T16:00:32Z</time></trkpt><trkpt lat="41.86047927333718" lon="19.73054640464588"><ele>586.0</ele><time>2026-04-29T16:00:33Z</time></trkpt><trkpt lat="41.860571740402044" lon="19.730478607422583"><ele>586.0</ele><time>2026-04-29T16:00:34Z</time></trkpt><trkpt lat="41.86068566043242" lon="19.73048269155219"><ele>586.0</ele><time>2026-04-29T16:00:35Z</time></trkpt><trkpt lat="41.86081321127922" lon="19.730469502994048"><ele>586.0</ele><time>2026-04-29T16:00:36Z</time></trkpt><trkpt lat="41.860943852798044" lon="19.730402952686863"><ele>586.0</ele><time>2026-04-29T16:00:37Z</time></trkpt><trkpt lat="41.861071576038675" lon="19.730372667860472"><ele>586.0</ele><time>2026-04-29T16:00:38Z</time></trkpt><trkpt lat="41.86118110968518" lon="19.730316344223407"><ele>586.0</ele><time>2026-04-29T16:00:39Z</time></trkpt><trkpt lat="41.861291068448715" lon="19.730235457635573"><ele>583.2</ele><time>2026-04-29T16:00:40Z</time></trkpt><trkpt lat="41.86137910117597" lon="19.730131469859792"><ele>580.4000000000001</ele><time>2026-04-29T16:00:41Z</time></trkpt><trkpt lat="41.86144514280515" lon="19.730016961363766"><ele>577.6</ele><time>2026-04-29T16:00:42Z</time></trkpt><trkpt lat="41.861525603096595" lon="19.72990734542344"><ele>574.8000000000001</ele><time>2026-04-29T16:00:43Z</time></trkpt><trkpt lat="41.86162189400808" lon="19.729854979030744"><ele>572.0</ele><time>2026-04-29T16:00:44.001Z</time></trkpt><trkpt lat="41.86172781560644" lon="19.729997498862136"><ele>576.3333333333333</ele><time>2026-04-29T16:00:45.001Z</time></trkpt><trkpt lat="41.86179362134253" lon="19.729974380025496"><ele>580.6666666666666</ele><time>2026-04-29T16:00:46.001Z</time></trkpt><trkpt lat="41.86187016594907" lon="19.730001691655996"><ele>585.0</ele><time>2026-04-29T16:00:47.001Z</time></trkpt><trkpt lat="41.86193226341978" lon="19.729944736901324"><ele>589.3333333333334</ele><time>2026-04-29T16:00:48.001Z</time></trkpt><trkpt lat="41.86197178649728" lon="19.72985162315113"><ele>593.6666666666667</ele><time>2026-04-29T16:00:49.001Z</time></trkpt><trkpt lat="41.86202061844689" lon="19.729725527003882"><ele>598.0</ele><time>2026-04-29T16:00:50.001Z</time></trkpt><trkpt lat="41.86207507876134" lon="19.729582616733424"><ele>598.0</ele><time>2026-04-29T16:00:51.001Z</time></trkpt><trkpt lat="41.86214159867257" lon="19.72942795354364"><ele>598.0</ele><time>2026-04-29T16:00:52.001Z</time></trkpt><trkpt lat="41.862192229780824" lon="19.72925172277606"><ele>598.0</ele><time>2026-04-29T16:00:53.001Z</time></trkpt><trkpt lat="41.862221827568625" lon="19.729060009722033"><ele>598.0</ele><time>2026-04-29T16:00:54.001Z</time></trkpt><trkpt lat="41.86223585461507" lon="19.72888639280781"><ele>594.1999999999999</ele><time>2026-04-29T16:00:55.001Z</time></trkpt><trkpt lat="41.862244639743224" lon="19.728720126802752"><ele>590.4</ele><time>2026-04-29T16:00:56.001Z</time></trkpt><trkpt lat="41.86226375055879" lon="19.728574167231443"><ele>586.5999999999999</ele><time>2026-04-29T16:00:57.001Z</time></trkpt><trkpt lat="41.862324718570655" lon="19.728461488695267"><ele>582.8</ele><time>2026-04-29T16:00:58.001Z</time></trkpt><trkpt lat="41.86240726818388" lon="19.72837013308192"><ele>579.0</ele><time>2026-04-29T16:00:59.001Z</time></trkpt><trkpt lat="41.86251875200366" lon="19.728287190624425"><ele>575.8</ele><time>2026-04-29T16:01:00.001Z</time></trkpt><trkpt lat="41.86261982303938" lon="19.72817399414777"><ele>572.5999999999999</ele><time>2026-04-29T16:01:01.001Z</time></trkpt><trkpt lat="41.86270832262602" lon="19.728073689171424"><ele>569.4</ele><time>2026-04-29T16:01:02.001Z</time></trkpt><trkpt lat="41.86278302980723" lon="19.727988896458715"><ele>566.1999999999999</ele><time>2026-04-29T16:01:03.001Z</time></trkpt><trkpt lat="41.86287118954793" lon="19.727990724321725"><ele>563.0</ele><time>2026-04-29T16:01:04.001Z</time></trkpt><trkpt lat="41.86294045569366" lon="19.728051850923993"><ele>563.0</ele><time>2026-04-29T16:01:05.001Z</time></trkpt><trkpt lat="41.86303551167862" lon="19.728084246623776"><ele>563.0</ele><time>2026-04-29T16:01:06.001Z</time></trkpt><trkpt lat="41.86312698479323" lon="19.728032196954736"><ele>563.0</ele><time>2026-04-29T16:01:07.001Z</time></trkpt><trkpt lat="41.86321271266602" lon="19.72795191910011"><ele>563.0</ele><time>2026-04-29T16:01:08.001Z</time></trkpt><trkpt lat="41.86330665088173" lon="19.727825770388154"><ele>563.0</ele><time>2026-04-29T16:01:09.001Z</time></trkpt><trkpt lat="41.86341494407391" lon="19.727760527656045"><ele>564.6</ele><time>2026-04-29T16:01:10.001Z</time></trkpt><trkpt lat="41.86349644646624" lon="19.727773287995976"><ele>566.1999999999999</ele><time>2026-04-29T16:01:11.001Z</time></trkpt><trkpt lat="41.86359325653549" lon="19.727793152776282"><ele>567.8</ele><time>2026-04-29T16:01:12.001Z</time></trkpt><trkpt lat="41.86364682132431" lon="19.72793685929028"><ele>569.4</ele><time>2026-04-29T16:01:13.001Z</time></trkpt><trkpt lat="41.863732542556406" lon="19.72804969946384"><ele>571.0</ele><time>2026-04-29T16:01:14.001Z</time></trkpt><trkpt lat="41.86381516671902" lon="19.728108690452554"><ele>571.0</ele><time>2026-04-29T16:01:15.001Z</time></trkpt><trkpt lat="41.86388628820716" lon="19.728153652383654"><ele>571.0</ele><time>2026-04-29T16:01:16.001Z</time></trkpt><trkpt lat="41.86397301877474" lon="19.72808678088104"><ele>571.0</ele><time>2026-04-29T16:01:17.001Z</time></trkpt><trkpt lat="41.864050615861885" lon="19.728003022720667"><ele>571.0</ele><time>2026-04-29T16:01:18.001Z</time></trkpt><trkpt lat="41.86412659834896" lon="19.72788122830188"><ele>571.0</ele><time>2026-04-29T16:01:19Z</time></trkpt><trkpt lat="41.864213687769414" lon="19.727756027668036"><ele>562.75</ele><time>2026-04-29T16:01:20Z</time></trkpt><trkpt lat="41.86431863357467" lon="19.72764217265228"><ele>554.5</ele><time>2026-04-29T16:01:21Z</time></trkpt><trkpt lat="41.86443194469328" lon="19.72756185268041"><ele>546.25</ele><time>2026-04-29T16:01:22Z</time></trkpt><trkpt lat="41.86455297923396" lon="19.727568903048113"><ele>538.0</ele><time>2026-04-29T16:01:23Z</time></trkpt><trkpt lat="41.86469124070929" lon="19.72754205989114"><ele>538.0</ele><time>2026-04-29T16:01:24Z</time></trkpt><trkpt lat="41.86484125051424" lon="19.727543009300735"><ele>538.0</ele><time>2026-04-29T16:01:25Z</time></trkpt><trkpt lat="41.86498007853512" lon="19.727536655681554"><ele>538.0</ele><time>2026-04-29T16:01:26Z</time></trkpt><trkpt lat="41.86511038995817" lon="19.727526827142228"><ele>538.0</ele><time>2026-04-29T16:01:27Z</time></trkpt><trkpt lat="41.865214094751096" lon="19.72752597866291"><ele>540.5</ele><time>2026-04-29T16:01:28Z</time></trkpt><trkpt lat="41.865292252433925" lon="19.72749816481922"><ele>543.0</ele><time>2026-04-29T16:01:29Z</time></trkpt><trkpt lat="41.86535041646767" lon="19.7274242434214"><ele>545.5</ele><time>2026-04-29T16:01:30Z</time></trkpt><trkpt lat="41.86536608742206" lon="19.727313815717135"><ele>548.0</ele><time>2026-04-29T16:01:31Z</time></trkpt><trkpt lat="41.86532450342322" lon="19.72719563972897"><ele>550.5</ele><time>2026-04-29T16:01:32Z</time></trkpt><trkpt lat="41.86526508454055" lon="19.72708085599862"><ele>553.0</ele><time>2026-04-29T16:01:33Z</time></trkpt><trkpt lat="41.86515707784287" lon="19.726973871508054"><ele>544.6666666666667</ele><time>2026-04-29T16:01:34Z</time></trkpt><trkpt lat="41.86502763360217" lon="19.726842683338155"><ele>536.3333333333334</ele><time>2026-04-29T16:01:35Z</time></trkpt><trkpt lat="41.86489488485967" lon="19.726673773688866"><ele>528.0</ele><time>2026-04-29T16:01:36Z</time></trkpt><trkpt lat="41.86480031011683" lon="19.726478883435647"><ele>528.0</ele><time>2026-04-29T16:01:37Z</time></trkpt><trkpt lat="41.86468154320708" lon="19.726310152178392"><ele>528.0</ele><time>2026-04-29T16:01:38Z</time></trkpt><trkpt lat="41.86457945686277" lon="19.726147570880403"><ele>528.0</ele><time>2026-04-29T16:01:39Z</time></trkpt><trkpt lat="41.86448808342608" lon="19.726011045213212"><ele>525.75</ele><time>2026-04-29T16:01:40Z</time></trkpt><trkpt lat="41.8644004284691" lon="19.725883208607748"><ele>523.5</ele><time>2026-04-29T16:01:41Z</time></trkpt><trkpt lat="41.8642970430569" lon="19.72577098375221"><ele>521.25</ele><time>2026-04-29T16:01:42Z</time></trkpt><trkpt lat="41.86416115561083" lon="19.725684665934498"><ele>519.0</ele><time>2026-04-29T16:01:43Z</time></trkpt><trkpt lat="41.864021870325814" lon="19.725615419120768"><ele>516.0</ele><time>2026-04-29T16:01:44Z</time></trkpt><trkpt lat="41.86389763674469" lon="19.7255407608751"><ele>513.0</ele><time>2026-04-29T16:01:45Z</time></trkpt><trkpt lat="41.863793808609" lon="19.725465508670716"><ele>510.0</ele><time>2026-04-29T16:01:46Z</time></trkpt><trkpt lat="41.86371946201431" lon="19.725359186800944"><ele>507.0</ele><time>2026-04-29T16:01:47Z</time></trkpt><trkpt lat="41.86365136321928" lon="19.725236614762697"><ele>506.75</ele><time>2026-04-29T16:01:48Z</time></trkpt><trkpt lat="41.863560556274315" lon="19.725092412464775"><ele>506.5</ele><time>2026-04-29T16:01:49Z</time></trkpt><trkpt lat="41.86348626830776" lon="19.72493380045861"><ele>506.25</ele><time>2026-04-29T16:01:50Z</time></trkpt><trkpt lat="41.86341387769574" lon="19.72479098749794"><ele>506.0</ele><time>2026-04-29T16:01:51Z</time></trkpt><trkpt lat="41.86334754577865" lon="19.724660955955695"><ele>500.20000000000005</ele><time>2026-04-29T16:01:52Z</time></trkpt><trkpt lat="41.86329680284595" lon="19.724524508319064"><ele>494.40000000000003</ele><time>2026-04-29T16:01:53Z</time></trkpt><trkpt lat="41.863269601579844" lon="19.724380230523874"><ele>488.6</ele><time>2026-04-29T16:01:54Z</time></trkpt><trkpt lat="41.8632618259061" lon="19.72424748992563"><ele>482.8</ele><time>2026-04-29T16:01:55Z</time></trkpt><trkpt lat="41.863268105840326" lon="19.72413810422841"><ele>477.0</ele><time>2026-04-29T16:01:56Z</time></trkpt><trkpt lat="41.86330514721002" lon="19.72406338244779"><ele>476.8</ele><time>2026-04-29T16:01:57Z</time></trkpt><trkpt lat="41.863367239772835" lon="19.72402216663961"><ele>476.6</ele><time>2026-04-29T16:01:58Z</time></trkpt><trkpt lat="41.86345900809948" lon="19.724047136286444"><ele>476.40000000000003</ele><time>2026-04-29T16:01:59Z</time></trkpt><trkpt lat="41.86356958905132" lon="19.724033436748666"><ele>476.20000000000005</ele><time>2026-04-29T16:02:00Z</time></trkpt><trkpt lat="41.863687349288035" lon="19.724039856834054"><ele>476.0</ele><time>2026-04-29T16:02:01Z</time></trkpt><trkpt lat="41.8637946462617" lon="19.724038172840352"><ele>475.75</ele><time>2026-04-29T16:02:02Z</time></trkpt><trkpt lat="41.86391074320142" lon="19.724056675737884"><ele>475.5</ele><time>2026-04-29T16:02:03Z</time></trkpt><trkpt lat="41.86403148719365" lon="19.72414481797813"><ele>475.25</ele><time>2026-04-29T16:02:04Z</time></trkpt><trkpt lat="41.864171342963765" lon="19.724208209504724"><ele>475.0</ele><time>2026-04-29T16:02:05Z</time></trkpt><trkpt lat="41.86429457881515" lon="19.72428425403334"><ele>472.5</ele><time>2026-04-29T16:02:06Z</time></trkpt><trkpt lat="41.86441292443335" lon="19.72434695493586"><ele>470.0</ele><time>2026-04-29T16:02:07Z</time></trkpt><trkpt lat="41.86452962795727" lon="19.724387299586223"><ele>467.5</ele><time>2026-04-29T16:02:08Z</time></trkpt><trkpt lat="41.86464241439932" lon="19.72439664275091"><ele>465.0</ele><time>2026-04-29T16:02:09Z</time></trkpt><trkpt lat="41.86475449663014" lon="19.72436735562685"><ele>465.0</ele><time>2026-04-29T16:02:10Z</time></trkpt><trkpt lat="41.864858462291785" lon="19.72430219388546"><ele>465.0</ele><time>2026-04-29T16:02:11Z</time></trkpt><trkpt lat="41.86495833032497" lon="19.724229314979326"><ele>465.0</ele><time>2026-04-29T16:02:12Z</time></trkpt><trkpt lat="41.8650667900766" lon="19.724193776217536"><ele>465.0</ele><time>2026-04-29T16:02:13Z</time></trkpt><trkpt lat="41.8651863978165" lon="19.724290976034688"><ele>465.2</ele><time>2026-04-29T16:02:15Z</time></trkpt><trkpt lat="41.86522633182508" lon="19.72443267409966"><ele>465.4</ele><time>2026-04-29T16:02:16Z</time></trkpt><trkpt lat="41.86530236530439" lon="19.72456030069849"><ele>465.6</ele><time>2026-04-29T16:02:17Z</time></trkpt><trkpt lat="41.86538946496258" lon="19.724648077463776"><ele>465.8</ele><time>2026-04-29T16:02:18Z</time></trkpt><trkpt lat="41.865464694852825" lon="19.724712698692574"><ele>466.0</ele><time>2026-04-29T16:02:19Z</time></trkpt><trkpt lat="41.865554795942565" lon="19.724729615878196"><ele>466.0</ele><time>2026-04-29T16:02:20Z</time></trkpt><trkpt lat="41.865662302846" lon="19.724712519136823"><ele>466.0</ele><time>2026-04-29T16:02:21Z</time></trkpt><trkpt lat="41.86577265418612" lon="19.724708472076486"><ele>466.0</ele><time>2026-04-29T16:02:22Z</time></trkpt><trkpt lat="41.86585681262665" lon="19.72477703200897"><ele>466.0</ele><time>2026-04-29T16:02:23Z</time></trkpt><trkpt lat="41.86593341485033" lon="19.724858406613265"><ele>466.0</ele><time>2026-04-29T16:02:24Z</time></trkpt><trkpt lat="41.86602042141753" lon="19.724923997344835"><ele>463.8</ele><time>2026-04-29T16:02:25Z</time></trkpt><trkpt lat="41.866101475109936" lon="19.72498352546184"><ele>461.6</ele><time>2026-04-29T16:02:26Z</time></trkpt><trkpt lat="41.86619321784261" lon="19.72499073327962"><ele>459.4</ele><time>2026-04-29T16:02:27Z</time></trkpt><trkpt lat="41.866284957891494" lon="19.724947834900014"><ele>457.2</ele><time>2026-04-29T16:02:28Z</time></trkpt><trkpt lat="41.866385334051024" lon="19.724889180797636"><ele>455.0</ele><time>2026-04-29T16:02:29Z</time></trkpt><trkpt lat="41.86649528994609" lon="19.724871309392537"><ele>455.0</ele><time>2026-04-29T16:02:30Z</time></trkpt><trkpt lat="41.86660123380955" lon="19.724923580962844"><ele>455.0</ele><time>2026-04-29T16:02:31Z</time></trkpt><trkpt lat="41.86670112758864" lon="19.724923565122072"><ele>455.0</ele><time>2026-04-29T16:02:32Z</time></trkpt><trkpt lat="41.866799176434384" lon="19.72490159403958"><ele>455.0</ele><time>2026-04-29T16:02:33Z</time></trkpt><trkpt lat="41.866887417093274" lon="19.724838720577644"><ele>455.0</ele><time>2026-04-29T16:02:34Z</time></trkpt><trkpt lat="41.86698549885124" lon="19.72477731041697"><ele>455.0</ele><time>2026-04-29T16:02:35Z</time></trkpt><trkpt lat="41.867067973986295" lon="19.724711762774234"><ele>455.0</ele><time>2026-04-29T16:02:36Z</time></trkpt><trkpt lat="41.86712430815103" lon="19.724616456678557"><ele>455.0</ele><time>2026-04-29T16:02:37Z</time></trkpt><trkpt lat="41.8671476696969" lon="19.724478542056907"><ele>455.0</ele><time>2026-04-29T16:02:38Z</time></trkpt><trkpt lat="41.86714098568281" lon="19.724307352228006"><ele>455.0</ele><time>2026-04-29T16:02:39Z</time></trkpt><trkpt lat="41.867111731700426" lon="19.72413503428092"><ele>455.0</ele><time>2026-04-29T16:02:40Z</time></trkpt><trkpt lat="41.86708827197468" lon="19.72398286819594"><ele>455.0</ele><time>2026-04-29T16:02:41Z</time></trkpt><trkpt lat="41.8671018926196" lon="19.723848721725112"><ele>455.0</ele><time>2026-04-29T16:02:42Z</time></trkpt><trkpt lat="41.86715283505965" lon="19.72371333262232"><ele>455.0</ele><time>2026-04-29T16:02:43Z</time></trkpt><trkpt lat="41.86722810444277" lon="19.723564349161325"><ele>452.2</ele><time>2026-04-29T16:02:44Z</time></trkpt><trkpt lat="41.8673159681248" lon="19.723417938493842"><ele>449.4</ele><time>2026-04-29T16:02:45Z</time></trkpt><trkpt lat="41.86739983873094" lon="19.723299258424884"><ele>446.6</ele><time>2026-04-29T16:02:46Z</time></trkpt><trkpt lat="41.86746887616283" lon="19.723202026809442"><ele>443.8</ele><time>2026-04-29T16:02:47Z</time></trkpt><trkpt lat="41.86751776126896" lon="19.723112276711245"><ele>441.0</ele><time>2026-04-29T16:02:48Z</time></trkpt><trkpt lat="41.86753957993207" lon="19.723029428358473"><ele>441.0</ele><time>2026-04-29T16:02:49Z</time></trkpt><trkpt lat="41.86750470487633" lon="19.72290086967923"><ele>441.0</ele><time>2026-04-29T16:02:51.001Z</time></trkpt><trkpt lat="41.86743185261695" lon="19.722820028983403"><ele>441.0</ele><time>2026-04-29T16:02:53.001Z</time></trkpt><trkpt lat="41.867364386930085" lon="19.722772180610814"><ele>441.0</ele><time>2026-04-29T16:02:54.001Z</time></trkpt><trkpt lat="41.867277136426054" lon="19.722726730776238"><ele>441.0</ele><time>2026-04-29T16:02:55.001Z</time></trkpt><trkpt lat="41.86718771371168" lon="19.722681440451808"><ele>441.20000000000005</ele><time>2026-04-29T16:02:56.001Z</time></trkpt><trkpt lat="41.867095076222185" lon="19.722636021930594"><ele>441.40000000000003</ele><time>2026-04-29T16:02:57.001Z</time></trkpt><trkpt lat="41.86700899433304" lon="19.722588162575352"><ele>441.6</ele><time>2026-04-29T16:02:58.001Z</time></trkpt><trkpt lat="41.86693515089838" lon="19.722535005945552"><ele>441.8</ele><time>2026-04-29T16:02:59.001Z</time></trkpt><trkpt lat="41.86687303152672" lon="19.722456324034123"><ele>442.0</ele><time>2026-04-29T16:03:00.001Z</time></trkpt><trkpt lat="41.86683507844223" lon="19.722345676101867"><ele>442.0</ele><time>2026-04-29T16:03:01.001Z</time></trkpt><trkpt lat="41.866816885086806" lon="19.72222127926818"><ele>442.00000000000006</ele><time>2026-04-29T16:03:02.001Z</time></trkpt><trkpt lat="41.866818784162994" lon="19.722096465253514"><ele>442.00000000000006</ele><time>2026-04-29T16:03:03.001Z</time></trkpt><trkpt lat="41.86682974121528" lon="19.721969291102912"><ele>442.0</ele><time>2026-04-29T16:03:04.001Z</time></trkpt><trkpt lat="41.866848917946314" lon="19.721839668612667"><ele>442.0</ele><time>2026-04-29T16:03:05.001Z</time></trkpt><trkpt lat="41.86687627329309" lon="19.72171288228314"><ele>438.40000000000003</ele><time>2026-04-29T16:03:06.001Z</time></trkpt><trkpt lat="41.866910575320404" lon="19.721592384270203"><ele>434.80000000000007</ele><time>2026-04-29T16:03:07.001Z</time></trkpt><trkpt lat="41.86695625545174" lon="19.721478897408616"><ele>431.2</ele><time>2026-04-29T16:03:08.001Z</time></trkpt><trkpt lat="41.86701162021789" lon="19.72137295333051"><ele>427.6</ele><time>2026-04-29T16:03:09.001Z</time></trkpt><trkpt lat="41.86707526839232" lon="19.721277443578227"><ele>424.0</ele><time>2026-04-29T16:03:10.001Z</time></trkpt><trkpt lat="41.8671483395325" lon="19.72120043839438"><ele>424.0</ele><time>2026-04-29T16:03:11.001Z</time></trkpt><trkpt lat="41.867227505025504" lon="19.721136715333923"><ele>424.0</ele><time>2026-04-29T16:03:12.001Z</time></trkpt><trkpt lat="41.867314327063426" lon="19.721084716058805"><ele>424.0</ele><time>2026-04-29T16:03:13Z</time></trkpt><trkpt lat="41.867404584445794" lon="19.721042783627574"><ele>424.0</ele><time>2026-04-29T16:03:14Z</time></trkpt><trkpt lat="41.867496370427766" lon="19.721003576478786"><ele>424.0</ele><time>2026-04-29T16:03:15Z</time></trkpt><trkpt lat="41.86759015578772" lon="19.720966823529967"><ele>417.2</ele><time>2026-04-29T16:03:16Z</time></trkpt><trkpt lat="41.86768847103845" lon="19.720939407344577"><ele>410.4</ele><time>2026-04-29T16:03:17Z</time></trkpt><trkpt lat="41.86778884021849" lon="19.72091817981645"><ele>403.6</ele><time>2026-04-29T16:03:18Z</time></trkpt><trkpt lat="41.86790022389517" lon="19.720910718756105"><ele>396.8</ele><time>2026-04-29T16:03:19Z</time></trkpt><trkpt lat="41.86803230196938" lon="19.720906018224998"><ele>390.0</ele><time>2026-04-29T16:03:20Z</time></trkpt><trkpt lat="41.868143546891936" lon="19.720898616377433"><ele>390.0</ele><time>2026-04-29T16:03:21Z</time></trkpt><trkpt lat="41.86824084059379" lon="19.720885159078694"><ele>390.0</ele><time>2026-04-29T16:03:22Z</time></trkpt><trkpt lat="41.86833104807043" lon="19.720863591824656"><ele>390.0</ele><time>2026-04-29T16:03:23Z</time></trkpt><trkpt lat="41.868416622983794" lon="19.720845154646"><ele>390.0</ele><time>2026-04-29T16:03:24Z</time></trkpt><trkpt lat="41.868498098366814" lon="19.720815208388714"><ele>390.0</ele><time>2026-04-29T16:03:25Z</time></trkpt><trkpt lat="41.868564799153894" lon="19.720761037347824"><ele>390.0</ele><time>2026-04-29T16:03:26Z</time></trkpt><trkpt lat="41.86860369537985" lon="19.720680115178457"><ele>386.8</ele><time>2026-04-29T16:03:27Z</time></trkpt><trkpt lat="41.868607509393996" lon="19.720579763619376"><ele>383.6</ele><time>2026-04-29T16:03:28Z</time></trkpt><trkpt lat="41.86857658141592" lon="19.72046969490714"><ele>380.4</ele><time>2026-04-29T16:03:29Z</time></trkpt><trkpt lat="41.86852659018154" lon="19.72034851602547"><ele>377.2</ele><time>2026-04-29T16:03:30Z</time></trkpt><trkpt lat="41.868459700344104" lon="19.720209139983528"><ele>374.0</ele><time>2026-04-29T16:03:31Z</time></trkpt><trkpt lat="41.86840005765922" lon="19.720065391657563"><ele>374.0</ele><time>2026-04-29T16:03:32Z</time></trkpt><trkpt lat="41.86835552325606" lon="19.719924050096836"><ele>374.0</ele><time>2026-04-29T16:03:33Z</time></trkpt><trkpt lat="41.868320201028865" lon="19.71977539213621"><ele>374.0</ele><time>2026-04-29T16:03:34Z</time></trkpt><trkpt lat="41.86828227198178" lon="19.71961609457635"><ele>374.0</ele><time>2026-04-29T16:03:35Z</time></trkpt><trkpt lat="41.868245108273015" lon="19.71943709911955"><ele>373.5</ele><time>2026-04-29T16:03:36Z</time></trkpt><trkpt lat="41.86821540084893" lon="19.719260314941838"><ele>373.0</ele><time>2026-04-29T16:03:37Z</time></trkpt><trkpt lat="41.86819699428268" lon="19.719084008056054"><ele>372.5</ele><time>2026-04-29T16:03:38Z</time></trkpt><trkpt lat="41.86815102464733" lon="19.718918287723536"><ele>372.0</ele><time>2026-04-29T16:03:39Z</time></trkpt><trkpt lat="41.86813150404953" lon="19.71875441414701"><ele>372.0</ele><time>2026-04-29T16:03:40Z</time></trkpt><trkpt lat="41.86811074325353" lon="19.71860679559764"><ele>372.0</ele><time>2026-04-29T16:03:41Z</time></trkpt><trkpt lat="41.86809569401506" lon="19.718472266585987"><ele>372.0</ele><time>2026-04-29T16:03:42Z</time></trkpt><trkpt lat="41.86808971230057" lon="19.71833622650363"><ele>372.0</ele><time>2026-04-29T16:03:43Z</time></trkpt><trkpt lat="41.86812687073567" lon="19.718213070820372"><ele>372.0</ele><time>2026-04-29T16:03:44Z</time></trkpt><trkpt lat="41.868161792072414" lon="19.718087789034442"><ele>370.0</ele><time>2026-04-29T16:03:45Z</time></trkpt><trkpt lat="41.868187886260664" lon="19.71794234575026"><ele>368.0</ele><time>2026-04-29T16:03:46Z</time></trkpt><trkpt lat="41.86823185160915" lon="19.7177993911677"><ele>366.0</ele><time>2026-04-29T16:03:47Z</time></trkpt><trkpt lat="41.86828064857592" lon="19.717638315173712"><ele>364.0</ele><time>2026-04-29T16:03:48Z</time></trkpt><trkpt lat="41.86834260572928" lon="19.71748037948558"><ele>367.75</ele><time>2026-04-29T16:03:49Z</time></trkpt><trkpt lat="41.86842916037101" lon="19.717366834219426"><ele>371.5</ele><time>2026-04-29T16:03:50Z</time></trkpt><trkpt lat="41.86850138852647" lon="19.71723813017704"><ele>375.25</ele><time>2026-04-29T16:03:51Z</time></trkpt><trkpt lat="41.868575776462606" lon="19.71712834464354"><ele>379.0</ele><time>2026-04-29T16:03:52Z</time></trkpt><trkpt lat="41.86862432325385" lon="19.717009038921837"><ele>373.0</ele><time>2026-04-29T16:03:53Z</time></trkpt><trkpt lat="41.868638578689826" lon="19.716872678234633"><ele>367.0</ele><time>2026-04-29T16:03:54Z</time></trkpt><trkpt lat="41.8686232509683" lon="19.71672931755356"><ele>361.0</ele><time>2026-04-29T16:03:55Z</time></trkpt><trkpt lat="41.868578269056265" lon="19.716575976091065"><ele>355.0</ele><time>2026-04-29T16:03:56Z</time></trkpt><trkpt lat="41.86853044505843" lon="19.716437738261092"><ele>349.0</ele><time>2026-04-29T16:03:57Z</time></trkpt><trkpt lat="41.86849528908762" lon="19.716313788608456"><ele>349.0</ele><time>2026-04-29T16:03:58Z</time></trkpt><trkpt lat="41.86849989816733" lon="19.716218589639855"><ele>349.0</ele><time>2026-04-29T16:03:59Z</time></trkpt><trkpt lat="41.86853056322907" lon="19.716135837749263"><ele>349.0</ele><time>2026-04-29T16:04:00Z</time></trkpt><trkpt lat="41.86859472426552" lon="19.716044826586565"><ele>349.0</ele><time>2026-04-29T16:04:01Z</time></trkpt><trkpt lat="41.8687026315098" lon="19.716003687703484"><ele>349.0</ele><time>2026-04-29T16:04:02Z</time></trkpt><trkpt lat="41.86881731277372" lon="19.715936849373605"><ele>349.2</ele><time>2026-04-29T16:04:03Z</time></trkpt><trkpt lat="41.86891843337731" lon="19.715923707458582"><ele>349.4</ele><time>2026-04-29T16:04:04Z</time></trkpt><trkpt lat="41.86902200380955" lon="19.715921572591494"><ele>349.6</ele><time>2026-04-29T16:04:05Z</time></trkpt><trkpt lat="41.86910022255936" lon="19.71599273342653"><ele>349.8</ele><time>2026-04-29T16:04:06Z</time></trkpt><trkpt lat="41.869187241309085" lon="19.71605892075554"><ele>350.0</ele><time>2026-04-29T16:04:07Z</time></trkpt><trkpt lat="41.869286958890804" lon="19.71611809758616"><ele>350.0</ele><time>2026-04-29T16:04:08Z</time></trkpt><trkpt lat="41.86941565693617" lon="19.716121833212352"><ele>350.0</ele><time>2026-04-29T16:04:09Z</time></trkpt><trkpt lat="41.86952759252158" lon="19.71611863560971"><ele>350.0</ele><time>2026-04-29T16:04:10Z</time></trkpt><trkpt lat="41.86961909360773" lon="19.71611860540433"><ele>350.0</ele><time>2026-04-29T16:04:11Z</time></trkpt><trkpt lat="41.869685107645665" lon="19.7161142184628"><ele>350.0</ele><time>2026-04-29T16:04:12Z</time></trkpt><trkpt lat="41.86975153355523" lon="19.716005362840427"><ele>344.6666666666667</ele><time>2026-04-29T16:04:14Z</time></trkpt><trkpt lat="41.869723921531474" lon="19.715919961566907"><ele>339.33333333333337</ele><time>2026-04-29T16:04:15Z</time></trkpt><trkpt lat="41.86962533685439" lon="19.71586602832979"><ele>334.0</ele><time>2026-04-29T16:04:16Z</time></trkpt><trkpt lat="41.86954767868929" lon="19.71586944816398"><ele>328.6666666666667</ele><time>2026-04-29T16:04:17Z</time></trkpt><trkpt lat="41.86945897577324" lon="19.71588837786933"><ele>323.3333333333333</ele><time>2026-04-29T16:04:18Z</time></trkpt><trkpt lat="41.869371376678444" lon="19.715888410334482"><ele>318.0</ele><time>2026-04-29T16:04:19Z</time></trkpt><trkpt lat="41.86930250469987" lon="19.715833117017418"><ele>317.8</ele><time>2026-04-29T16:04:20Z</time></trkpt><trkpt lat="41.869251061168825" lon="19.71573456264968"><ele>317.6</ele><time>2026-04-29T16:04:21Z</time></trkpt><trkpt lat="41.86921367452558" lon="19.715619256229527"><ele>317.4</ele><time>2026-04-29T16:04:22Z</time></trkpt><trkpt lat="41.869155775704975" lon="19.715514500347588"><ele>317.2</ele><time>2026-04-29T16:04:23Z</time></trkpt><trkpt lat="41.869033774940405" lon="19.71545634758764"><ele>317.0</ele><time>2026-04-29T16:04:24Z</time></trkpt><trkpt lat="41.86894164796278" lon="19.715398530919476"><ele>317.0</ele><time>2026-04-29T16:04:25Z</time></trkpt><trkpt lat="41.868881715217896" lon="19.715363740999475"><ele>317.0</ele><time>2026-04-29T16:04:26Z</time></trkpt><trkpt lat="41.86878352283538" lon="19.71525420500252"><ele>317.0</ele><time>2026-04-29T16:04:28Z</time></trkpt><trkpt lat="41.86868748266189" lon="19.71510053674753"><ele>317.0</ele><time>2026-04-29T16:04:30Z</time></trkpt><trkpt lat="41.868588734524565" lon="19.71500999379904"><ele>313.6</ele><time>2026-04-29T16:04:32Z</time></trkpt><trkpt lat="41.868489607559496" lon="19.714918421029545"><ele>310.2</ele><time>2026-04-29T16:04:34Z</time></trkpt><trkpt lat="41.86840179953003" lon="19.71491865946545"><ele>306.8</ele><time>2026-04-29T16:04:35Z</time></trkpt><trkpt lat="41.86831267708607" lon="19.714909646690018"><ele>303.4</ele><time>2026-04-29T16:04:36Z</time></trkpt><trkpt lat="41.868209389136084" lon="19.714911345719905"><ele>300.0</ele><time>2026-04-29T16:04:37Z</time></trkpt><trkpt lat="41.86809837999425" lon="19.714887454194706"><ele>300.0</ele><time>2026-04-29T16:04:38Z</time></trkpt><trkpt lat="41.867992249069985" lon="19.714880182369498"><ele>300.0</ele><time>2026-04-29T16:04:39Z</time></trkpt><trkpt lat="41.867891174565536" lon="19.71489741902887"><ele>300.0</ele><time>2026-04-29T16:04:40Z</time></trkpt><trkpt lat="41.867795697425265" lon="19.714891924893216"><ele>300.0</ele><time>2026-04-29T16:04:41Z</time></trkpt><trkpt lat="41.867708568327764" lon="19.714875165693282"><ele>300.0</ele><time>2026-04-29T16:04:42Z</time></trkpt><trkpt lat="41.8676248482319" lon="19.71489708063333"><ele>297.6</ele><time>2026-04-29T16:04:43Z</time></trkpt><trkpt lat="41.86755986490661" lon="19.714975537111506"><ele>295.2</ele><time>2026-04-29T16:04:44Z</time></trkpt><trkpt lat="41.86749039586711" lon="19.715023051940825"><ele>292.8</ele><time>2026-04-29T16:04:45Z</time></trkpt><trkpt lat="41.867479438350166" lon="19.715166510290683"><ele>290.4</ele><time>2026-04-29T16:04:46Z</time></trkpt><trkpt lat="41.86749693283328" lon="19.71528298891372"><ele>288.0</ele><time>2026-04-29T16:04:47Z</time></trkpt><trkpt lat="41.867569553812174" lon="19.7153945472637"><ele>294.0</ele><time>2026-04-29T16:04:48Z</time></trkpt><trkpt lat="41.86765616879469" lon="19.715501515488256"><ele>300.0</ele><time>2026-04-29T16:04:49Z</time></trkpt><trkpt lat="41.867753656152104" lon="19.715611686990155"><ele>306.0</ele><time>2026-04-29T16:04:50Z</time></trkpt><trkpt lat="41.86782079653273" lon="19.715747508275776"><ele>312.0</ele><time>2026-04-29T16:04:51Z</time></trkpt><trkpt lat="41.86785508321727" lon="19.715874816051215"><ele>312.0</ele><time>2026-04-29T16:04:52Z</time></trkpt><trkpt lat="41.867829580913124" lon="19.716012174202334"><ele>312.0</ele><time>2026-04-29T16:04:53Z</time></trkpt><trkpt lat="41.86783801940019" lon="19.716165015665386"><ele>312.0</ele><time>2026-04-29T16:04:54Z</time></trkpt><trkpt lat="41.86784006748623" lon="19.716312028886836"><ele>312.0</ele><time>2026-04-29T16:04:55Z</time></trkpt><trkpt lat="41.86783924471482" lon="19.716429226792222"><ele>312.0</ele><time>2026-04-29T16:04:56.001Z</time></trkpt><trkpt lat="41.867774505146734" lon="19.71654982937636"><ele>314.0</ele><time>2026-04-29T16:04:58.001Z</time></trkpt><trkpt lat="41.86768854864792" lon="19.716494474694017"><ele>316.0</ele><time>2026-04-29T16:04:59.001Z</time></trkpt><trkpt lat="41.86758216900641" lon="19.716501423020407"><ele>318.0</ele><time>2026-04-29T16:05:00.001Z</time></trkpt><trkpt lat="41.867466030656594" lon="19.71648839863305"><ele>320.0</ele><time>2026-04-29T16:05:01.001Z</time></trkpt><trkpt lat="41.86736003186143" lon="19.71650849595849"><ele>322.0</ele><time>2026-04-29T16:05:02.001Z</time></trkpt><trkpt lat="41.86726691327544" lon="19.71657041928522"><ele>320.20000000000005</ele><time>2026-04-29T16:05:03.001Z</time></trkpt><trkpt lat="41.867172257992415" lon="19.71664784030632"><ele>318.40000000000003</ele><time>2026-04-29T16:05:04.001Z</time></trkpt><trkpt lat="41.86709967366527" lon="19.716772137223316"><ele>316.6</ele><time>2026-04-29T16:05:05Z</time></trkpt><trkpt lat="41.867045034509175" lon="19.716898869478115"><ele>314.8</ele><time>2026-04-29T16:05:06Z</time></trkpt><trkpt lat="41.86699520994268" lon="19.717009965440635"><ele>313.0</ele><time>2026-04-29T16:05:07Z</time></trkpt><trkpt lat="41.86693211527315" lon="19.71708472379071"><ele>313.0</ele><time>2026-04-29T16:05:08Z</time></trkpt><trkpt lat="41.86685582781385" lon="19.71711181220643"><ele>313.0</ele><time>2026-04-29T16:05:09Z</time></trkpt><trkpt lat="41.866767103725095" lon="19.717108790770574"><ele>313.0</ele><time>2026-04-29T16:05:10Z</time></trkpt><trkpt lat="41.86665809507316" lon="19.71711558603841"><ele>313.0</ele><time>2026-04-29T16:05:11Z</time></trkpt><trkpt lat="41.866544061317796" lon="19.71713216345063"><ele>313.0</ele><time>2026-04-29T16:05:12Z</time></trkpt><trkpt lat="41.86644948530339" lon="19.717154623916667"><ele>305.5</ele><time>2026-04-29T16:05:13Z</time></trkpt><trkpt lat="41.86636520385116" lon="19.717241481019492"><ele>298.0</ele><time>2026-04-29T16:05:14Z</time></trkpt><trkpt lat="41.86630062211826" lon="19.717400018842184"><ele>290.5</ele><time>2026-04-29T16:05:15Z</time></trkpt><trkpt lat="41.86623423486402" lon="19.717552142416785"><ele>283.0</ele><time>2026-04-29T16:05:16Z</time></trkpt><trkpt lat="41.86617937864224" lon="19.717720611338894"><ele>284.4</ele><time>2026-04-29T16:05:17Z</time></trkpt><trkpt lat="41.86615353603142" lon="19.71788660690119"><ele>285.8</ele><time>2026-04-29T16:05:18Z</time></trkpt><trkpt lat="41.86613730053742" lon="19.718039534991068"><ele>287.2</ele><time>2026-04-29T16:05:19Z</time></trkpt><trkpt lat="41.86612353732132" lon="19.718164748901383"><ele>288.6</ele><time>2026-04-29T16:05:20Z</time></trkpt><trkpt lat="41.866080675413386" lon="19.71827580758452"><ele>290.0</ele><time>2026-04-29T16:05:22Z</time></trkpt><trkpt lat="41.86601727908222" lon="19.718203840490567"><ele>290.0</ele><time>2026-04-29T16:05:24Z</time></trkpt><trkpt lat="41.86601066540747" lon="19.718081116173455"><ele>290.0</ele><time>2026-04-29T16:05:25Z</time></trkpt><trkpt lat="41.86601090456497" lon="19.717939421738336"><ele>290.0</ele><time>2026-04-29T16:05:26Z</time></trkpt><trkpt lat="41.86599630306712" lon="19.717779802791952"><ele>290.0</ele><time>2026-04-29T16:05:27Z</time></trkpt><trkpt lat="41.86595469607395" lon="19.717611612638407"><ele>290.0</ele><time>2026-04-29T16:05:28Z</time></trkpt><trkpt lat="41.865905735034346" lon="19.717433111924624"><ele>281.0</ele><time>2026-04-29T16:05:29Z</time></trkpt><trkpt lat="41.86587763181146" lon="19.71725902660538"><ele>272.0</ele><time>2026-04-29T16:05:30Z</time></trkpt><trkpt lat="41.86587498751697" lon="19.717086330653842"><ele>263.0</ele><time>2026-04-29T16:05:31Z</time></trkpt><trkpt lat="41.86589323097213" lon="19.71691707799107"><ele>254.0</ele><time>2026-04-29T16:05:32Z</time></trkpt><trkpt lat="41.865924558443396" lon="19.716760533336064"><ele>252.66666666666669</ele><time>2026-04-29T16:05:33Z</time></trkpt><trkpt lat="41.86596180535261" lon="19.716625702659613"><ele>251.33333333333334</ele><time>2026-04-29T16:05:34Z</time></trkpt><trkpt lat="41.86599445261163" lon="19.716523840892137"><ele>250.0</ele><time>2026-04-29T16:05:35Z</time></trkpt><trkpt lat="41.865948479708464" lon="19.716386995588802"><ele>248.66666666666669</ele><time>2026-04-29T16:05:37Z</time></trkpt><trkpt lat="41.865876307963994" lon="19.716382564862915"><ele>247.33333333333334</ele><time>2026-04-29T16:05:38Z</time></trkpt><trkpt lat="41.86580813857157" lon="19.716407981768334"><ele>246.0</ele><time>2026-04-29T16:05:39Z</time></trkpt><trkpt lat="41.86576758244941" lon="19.716539168824518"><ele>246.0</ele><time>2026-04-29T16:05:40Z</time></trkpt><trkpt lat="41.8657300418813" lon="19.716670772921024"><ele>246.0</ele><time>2026-04-29T16:05:41Z</time></trkpt><trkpt lat="41.865676176228284" lon="19.716812556414652"><ele>246.0</ele><time>2026-04-29T16:05:42Z</time></trkpt><trkpt lat="41.86564191799714" lon="19.716970905288427"><ele>246.0</ele><time>2026-04-29T16:05:43Z</time></trkpt><trkpt lat="41.86562357752826" lon="19.717119812686377"><ele>247.60000000000002</ele><time>2026-04-29T16:05:44Z</time></trkpt><trkpt lat="41.865604920372924" lon="19.71723328136006"><ele>249.20000000000002</ele><time>2026-04-29T16:05:45Z</time></trkpt><trkpt lat="41.86555516491694" lon="19.717324848237215"><ele>250.79999999999998</ele><time>2026-04-29T16:05:47Z</time></trkpt><trkpt lat="41.865482156217915" lon="19.71726336908019"><ele>252.39999999999998</ele><time>2026-04-29T16:05:49Z</time></trkpt><trkpt lat="41.86547437755272" lon="19.717137018839384"><ele>254.0</ele><time>2026-04-29T16:05:50Z</time></trkpt><trkpt lat="41.8654853318251" lon="19.716991396788817"><ele>252.0</ele><time>2026-04-29T16:05:51Z</time></trkpt><trkpt lat="41.86550069942087" lon="19.71682619221159"><ele>250.0</ele><time>2026-04-29T16:05:52Z</time></trkpt><trkpt lat="41.8655024098957" lon="19.716644267605396"><ele>248.0</ele><time>2026-04-29T16:05:53Z</time></trkpt><trkpt lat="41.86549943025594" lon="19.71648426833797"><ele>246.0</ele><time>2026-04-29T16:05:54Z</time></trkpt><trkpt lat="41.865517118371635" lon="19.716351306756998"><ele>246.0</ele><time>2026-04-29T16:05:55Z</time></trkpt><trkpt lat="41.86557613449931" lon="19.7162395589392"><ele>246.00000000000003</ele><time>2026-04-29T16:05:56Z</time></trkpt><trkpt lat="41.86565104816372" lon="19.71613983994856"><ele>246.00000000000003</ele><time>2026-04-29T16:05:57Z</time></trkpt><trkpt lat="41.86570677158639" lon="19.71606010735955"><ele>246.0</ele><time>2026-04-29T16:05:58Z</time></trkpt><trkpt lat="41.86568342534836" lon="19.715919465951963"><ele>246.0</ele><time>2026-04-29T16:06:00Z</time></trkpt><trkpt lat="41.86561099918651" lon="19.715899905420763"><ele>246.0</ele><time>2026-04-29T16:06:01Z</time></trkpt><trkpt lat="41.865528088502494" lon="19.715949738954066"><ele>246.00000000000003</ele><time>2026-04-29T16:06:02Z</time></trkpt><trkpt lat="41.865477054728224" lon="19.716099859171685"><ele>246.00000000000003</ele><time>2026-04-29T16:06:03Z</time></trkpt><trkpt lat="41.86541316297391" lon="19.71622061499063"><ele>246.0</ele><time>2026-04-29T16:06:04Z</time></trkpt><trkpt lat="41.865346028161795" lon="19.716353442028552"><ele>246.0</ele><time>2026-04-29T16:06:05Z</time></trkpt><trkpt lat="41.8652943976334" lon="19.716455366659286"><ele>246.0</ele><time>2026-04-29T16:06:06Z</time></trkpt><trkpt lat="41.865208012709964" lon="19.71651216631848"><ele>246.00000000000003</ele><time>2026-04-29T16:06:08Z</time></trkpt><trkpt lat="41.86516794849268" lon="19.71644162886235"><ele>246.00000000000003</ele><time>2026-04-29T16:06:09Z</time></trkpt><trkpt lat="41.86517076193433" lon="19.71633092527101"><ele>246.0</ele><time>2026-04-29T16:06:10Z</time></trkpt><trkpt lat="41.86522627486753" lon="19.71622777173208"><ele>246.0</ele><time>2026-04-29T16:06:11Z</time></trkpt><trkpt lat="41.865318157656844" lon="19.716140012902724"><ele>242.8</ele><time>2026-04-29T16:06:12Z</time></trkpt><trkpt lat="41.865395321873315" lon="19.716060863363573"><ele>239.60000000000002</ele><time>2026-04-29T16:06:13Z</time></trkpt><trkpt lat="41.86543469218804" lon="19.715944453945948"><ele>236.4</ele><time>2026-04-29T16:06:14Z</time></trkpt><trkpt lat="41.86543152098402" lon="19.715798051814367"><ele>233.2</ele><time>2026-04-29T16:06:15Z</time></trkpt><trkpt lat="41.86539531216574" lon="19.715664286386108"><ele>230.0</ele><time>2026-04-29T16:06:16Z</time></trkpt><trkpt lat="41.86533374473861" lon="19.715542277376752"><ele>230.0</ele><time>2026-04-29T16:06:17Z</time></trkpt><trkpt lat="41.865263180617035" lon="19.71542309361373"><ele>230.0</ele><time>2026-04-29T16:06:18Z</time></trkpt><trkpt lat="41.86521208668851" lon="19.715292929809625"><ele>230.0</ele><time>2026-04-29T16:06:19Z</time></trkpt><trkpt lat="41.86522201592624" lon="19.715141329975403"><ele>230.0</ele><time>2026-04-29T16:06:20Z</time></trkpt><trkpt lat="41.865238503056524" lon="19.714981086405455"><ele>227.5</ele><time>2026-04-29T16:06:21Z</time></trkpt><trkpt lat="41.86531123913967" lon="19.71483696503391"><ele>225.0</ele><time>2026-04-29T16:06:22Z</time></trkpt><trkpt lat="41.86540569087479" lon="19.714719321793016"><ele>222.5</ele><time>2026-04-29T16:06:23Z</time></trkpt><trkpt lat="41.8654839708022" lon="19.714616440474565"><ele>220.0</ele><time>2026-04-29T16:06:24Z</time></trkpt><trkpt lat="41.86550780763773" lon="19.714490937451167"><ele>219.5</ele><time>2026-04-29T16:06:25Z</time></trkpt><trkpt lat="41.865488730573425" lon="19.714326265841034"><ele>219.0</ele><time>2026-04-29T16:06:26Z</time></trkpt><trkpt lat="41.86544974131964" lon="19.71413641965741"><ele>218.5</ele><time>2026-04-29T16:06:27Z</time></trkpt><trkpt lat="41.86542576058355" lon="19.713937848191534"><ele>218.0</ele><time>2026-04-29T16:06:28Z</time></trkpt><trkpt lat="41.86541367450372" lon="19.713743350622867"><ele>216.5</ele><time>2026-04-29T16:06:29Z</time></trkpt><trkpt lat="41.865418647363114" lon="19.71355333637068"><ele>215.0</ele><time>2026-04-29T16:06:30Z</time></trkpt><trkpt lat="41.865441356472495" lon="19.7133742328108"><ele>213.5</ele><time>2026-04-29T16:06:31Z</time></trkpt><trkpt lat="41.86548238286786" lon="19.713215754488324"><ele>212.0</ele><time>2026-04-29T16:06:32Z</time></trkpt><trkpt lat="41.86552815087301" lon="19.71310557906394"><ele>212.0</ele><time>2026-04-29T16:06:33Z</time></trkpt><trkpt lat="41.865551091451955" lon="19.713021480183"><ele>212.0</ele><time>2026-04-29T16:06:34Z</time></trkpt><trkpt lat="41.86549178961694" lon="19.712900543445596"><ele>212.0</ele><time>2026-04-29T16:06:36Z</time></trkpt><trkpt lat="41.865403273734266" lon="19.712911901445757"><ele>212.0</ele><time>2026-04-29T16:06:37Z</time></trkpt><trkpt lat="41.865360464543464" lon="19.713064363855512"><ele>212.0</ele><time>2026-04-29T16:06:38Z</time></trkpt><trkpt lat="41.865323324197284" lon="19.71317829228633"><ele>212.0</ele><time>2026-04-29T16:06:39Z</time></trkpt><trkpt lat="41.8652676264563" lon="19.71335071999826"><ele>212.0</ele><time>2026-04-29T16:06:40Z</time></trkpt><trkpt lat="41.86523523259409" lon="19.71354561721282"><ele>212.0</ele><time>2026-04-29T16:06:41Z</time></trkpt><trkpt lat="41.865208206456764" lon="19.713703840761266"><ele>212.0</ele><time>2026-04-29T16:06:42Z</time></trkpt><trkpt lat="41.86519086998774" lon="19.71380455621542"><ele>212.0</ele><time>2026-04-29T16:06:43Z</time></trkpt><trkpt lat="41.86512028350968" lon="19.713784711352087"><ele>212.0</ele><time>2026-04-29T16:06:45Z</time></trkpt><trkpt lat="41.865110841314205" lon="19.713569764201747"><ele>212.0</ele><time>2026-04-29T16:06:47Z</time></trkpt><trkpt lat="41.86509903721245" lon="19.713382780533337"><ele>212.0</ele><time>2026-04-29T16:06:48Z</time></trkpt><trkpt lat="41.86513096460774" lon="19.713175501543407"><ele>212.0</ele><time>2026-04-29T16:06:49Z</time></trkpt><trkpt lat="41.865183761287085" lon="19.712969183534714"><ele>212.0</ele><time>2026-04-29T16:06:50Z</time></trkpt><trkpt lat="41.86525462020662" lon="19.712758402608543"><ele>212.0</ele><time>2026-04-29T16:06:51Z</time></trkpt><trkpt lat="41.86530816567465" lon="19.712557461088107"><ele>205.66666666666669</ele><time>2026-04-29T16:06:52Z</time></trkpt><trkpt lat="41.86534609826268" lon="19.712329378623934"><ele>199.33333333333331</ele><time>2026-04-29T16:06:53Z</time></trkpt><trkpt lat="41.86536076823884" lon="19.71211914325324"><ele>193.0</ele><time>2026-04-29T16:06:54Z</time></trkpt><trkpt lat="41.86538954390501" lon="19.711895462499825"><ele>186.0</ele><time>2026-04-29T16:06:55Z</time></trkpt><trkpt lat="41.86543158887596" lon="19.711673267326052"><ele>179.0</ele><time>2026-04-29T16:06:56Z</time></trkpt><trkpt lat="41.865481142461526" lon="19.71147442370225"><ele>172.0</ele><time>2026-04-29T16:06:57Z</time></trkpt><trkpt lat="41.865551631837434" lon="19.71132186698744"><ele>172.0</ele><time>2026-04-29T16:06:58Z</time></trkpt><trkpt lat="41.86559161527941" lon="19.7111859858848"><ele>172.0</ele><time>2026-04-29T16:06:59Z</time></trkpt><trkpt lat="41.86563091208916" lon="19.71109997882674"><ele>172.0</ele><time>2026-04-29T16:07:00Z</time></trkpt><trkpt lat="41.86559553859462" lon="19.710971226567114"><ele>172.0</ele><time>2026-04-29T16:07:02Z</time></trkpt><trkpt lat="41.86551908787037" lon="19.710956050568505"><ele>172.0</ele><time>2026-04-29T16:07:03Z</time></trkpt><trkpt lat="41.86543931737266" lon="19.71100730467593"><ele>172.0</ele><time>2026-04-29T16:07:04Z</time></trkpt><trkpt lat="41.86535092959603" lon="19.711081180972958"><ele>172.0</ele><time>2026-04-29T16:07:05Z</time></trkpt><trkpt lat="41.86529166956756" lon="19.71121528411273"><ele>172.0</ele><time>2026-04-29T16:07:06Z</time></trkpt><trkpt lat="41.865235759330474" lon="19.711274688275257"><ele>172.0</ele><time>2026-04-29T16:07:07Z</time></trkpt><trkpt lat="41.86515487407383" lon="19.711169298761693"><ele>172.0</ele><time>2026-04-29T16:07:09Z</time></trkpt><trkpt lat="41.86519383368722" lon="19.711014716141314"><ele>168.75</ele><time>2026-04-29T16:07:10Z</time></trkpt><trkpt lat="41.86521493434078" lon="19.710829264534322"><ele>165.5</ele><time>2026-04-29T16:07:11Z</time></trkpt><trkpt lat="41.865251672276166" lon="19.71062923659627"><ele>162.25</ele><time>2026-04-29T16:07:12Z</time></trkpt><trkpt lat="41.865322468055204" lon="19.710482278227225"><ele>159.0</ele><time>2026-04-29T16:07:13Z</time></trkpt><trkpt lat="41.86541063444044" lon="19.710347161156424"><ele>159.0</ele><time>2026-04-29T16:07:14Z</time></trkpt><trkpt lat="41.86553631899148" lon="19.710256915452646"><ele>159.0</ele><time>2026-04-29T16:07:15Z</time></trkpt><trkpt lat="41.86562899564965" lon="19.71016253986879"><ele>159.0</ele><time>2026-04-29T16:07:16Z</time></trkpt><trkpt lat="41.865682868441226" lon="19.71007197297872"><ele>159.0</ele><time>2026-04-29T16:07:17Z</time></trkpt><trkpt lat="41.86570058145803" lon="19.709929397152198"><ele>155.75</ele><time>2026-04-29T16:07:18Z</time></trkpt><trkpt lat="41.86570093882482" lon="19.70977031129342"><ele>152.5</ele><time>2026-04-29T16:07:19Z</time></trkpt><trkpt lat="41.86567711396657" lon="19.709591134976836"><ele>149.25</ele><time>2026-04-29T16:07:20Z</time></trkpt><trkpt lat="41.86565019352261" lon="19.709400253624395"><ele>146.0</ele><time>2026-04-29T16:07:21Z</time></trkpt><trkpt lat="41.86562246381592" lon="19.709196857612472"><ele>143.75</ele><time>2026-04-29T16:07:22Z</time></trkpt><trkpt lat="41.865589474298694" lon="19.708997018937197"><ele>141.5</ele><time>2026-04-29T16:07:23Z</time></trkpt><trkpt lat="41.8655430637578" lon="19.708811854533035"><ele>139.25</ele><time>2026-04-29T16:07:24Z</time></trkpt><trkpt lat="41.86549023949086" lon="19.708635418264357"><ele>137.0</ele><time>2026-04-29T16:07:25Z</time></trkpt><trkpt lat="41.86545214722104" lon="19.70847904909825"><ele>135.5</ele><time>2026-04-29T16:07:26Z</time></trkpt><trkpt lat="41.86544995128207" lon="19.70831781835788"><ele>134.0</ele><time>2026-04-29T16:07:27Z</time></trkpt><trkpt lat="41.86550482110064" lon="19.708174466309888"><ele>132.5</ele><time>2026-04-29T16:07:28Z</time></trkpt><trkpt lat="41.865573880759854" lon="19.708035082230396"><ele>131.0</ele><time>2026-04-29T16:07:29Z</time></trkpt><trkpt lat="41.86562659756228" lon="19.707891564379125"><ele>131.0</ele><time>2026-04-29T16:07:30Z</time></trkpt><trkpt lat="41.86565340974802" lon="19.707749015022653"><ele>131.0</ele><time>2026-04-29T16:07:31Z</time></trkpt><trkpt lat="41.86563731728001" lon="19.707600160272435"><ele>131.0</ele><time>2026-04-29T16:07:32Z</time></trkpt><trkpt lat="41.865592179847894" lon="19.70743804591063"><ele>131.0</ele><time>2026-04-29T16:07:33Z</time></trkpt><trkpt lat="41.865547157838044" lon="19.70725917628379"><ele>129.0</ele><time>2026-04-29T16:07:34Z</time></trkpt><trkpt lat="41.865513589055666" lon="19.707062617524404"><ele>127.0</ele><time>2026-04-29T16:07:35Z</time></trkpt><trkpt lat="41.86548936685973" lon="19.706878440003674"><ele>125.0</ele><time>2026-04-29T16:07:36Z</time></trkpt><trkpt lat="41.86548002123189" lon="19.70671465725407"><ele>123.0</ele><time>2026-04-29T16:07:37Z</time></trkpt><trkpt lat="41.8655216789685" lon="19.706557246685655"><ele>121.5</ele><time>2026-04-29T16:07:38Z</time></trkpt><trkpt lat="41.86554601219341" lon="19.706373304235232"><ele>120.0</ele><time>2026-04-29T16:07:39Z</time></trkpt><trkpt lat="41.86559076794198" lon="19.70618312256501"><ele>118.5</ele><time>2026-04-29T16:07:40Z</time></trkpt><trkpt lat="41.86562587772041" lon="19.706008600800715"><ele>117.0</ele><time>2026-04-29T16:07:41Z</time></trkpt><trkpt lat="41.865638985374204" lon="19.705847628533505"><ele>115.5</ele><time>2026-04-29T16:07:42Z</time></trkpt><trkpt lat="41.86562121470968" lon="19.7056894439526"><ele>114.0</ele><time>2026-04-29T16:07:43Z</time></trkpt><trkpt lat="41.865578145205994" lon="19.70552806318566"><ele>112.5</ele><time>2026-04-29T16:07:44Z</time></trkpt><trkpt lat="41.86552164795284" lon="19.70535056082756"><ele>111.0</ele><time>2026-04-29T16:07:45Z</time></trkpt><trkpt lat="41.8654645498439" lon="19.705162490258953"><ele>110.5</ele><time>2026-04-29T16:07:46Z</time></trkpt><trkpt lat="41.86540970472684" lon="19.704967414548733"><ele>110.0</ele><time>2026-04-29T16:07:47Z</time></trkpt><trkpt lat="41.865355301134926" lon="19.704779976816255"><ele>109.5</ele><time>2026-04-29T16:07:48Z</time></trkpt><trkpt lat="41.86531339140505" lon="19.704604608661107"><ele>109.0</ele><time>2026-04-29T16:07:49Z</time></trkpt><trkpt lat="41.865286871037625" lon="19.704429028529926"><ele>107.25</ele><time>2026-04-29T16:07:50Z</time></trkpt><trkpt lat="41.86527810188762" lon="19.70423967517163"><ele>105.5</ele><time>2026-04-29T16:07:51Z</time></trkpt><trkpt lat="41.86528747263536" lon="19.70407051987493"><ele>103.75</ele><time>2026-04-29T16:07:52Z</time></trkpt><trkpt lat="41.86529480764715" lon="19.70390515830391"><ele>102.0</ele><time>2026-04-29T16:07:53Z</time></trkpt><trkpt lat="41.86530032416064" lon="19.703719437175746"><ele>100.0</ele><time>2026-04-29T16:07:54Z</time></trkpt><trkpt lat="41.86531885546875" lon="19.70352648200051"><ele>98.0</ele><time>2026-04-29T16:07:55Z</time></trkpt><trkpt lat="41.865347135782514" lon="19.703345382691555"><ele>96.0</ele><time>2026-04-29T16:07:56Z</time></trkpt><trkpt lat="41.86539380566091" lon="19.703170729782347"><ele>94.0</ele><time>2026-04-29T16:07:57Z</time></trkpt><trkpt lat="41.86545418543969" lon="19.70300626678723"><ele>94.0</ele><time>2026-04-29T16:07:58Z</time></trkpt><trkpt lat="41.86552755690822" lon="19.702849811568026"><ele>94.0</ele><time>2026-04-29T16:07:59Z</time></trkpt><trkpt lat="41.865596526978635" lon="19.70269331190792"><ele>94.0</ele><time>2026-04-29T16:08:00Z</time></trkpt><trkpt lat="41.86564451799659" lon="19.70253626628493"><ele>94.0</ele><time>2026-04-29T16:08:01Z</time></trkpt><trkpt lat="41.8656746716767" lon="19.702382025460217"><ele>92.5</ele><time>2026-04-29T16:08:02Z</time></trkpt><trkpt lat="41.86569289064122" lon="19.702231093656874"><ele>91.0</ele><time>2026-04-29T16:08:03Z</time></trkpt><trkpt lat="41.86571042999626" lon="19.702074925544935"><ele>89.5</ele><time>2026-04-29T16:08:04Z</time></trkpt><trkpt lat="41.86572968258659" lon="19.701910907190282"><ele>88.0</ele><time>2026-04-29T16:08:05Z</time></trkpt><trkpt lat="41.865750228384805" lon="19.70174243643365"><ele>87.0</ele><time>2026-04-29T16:08:06Z</time></trkpt><trkpt lat="41.86576780855088" lon="19.70157209252612"><ele>86.0</ele><time>2026-04-29T16:08:07Z</time></trkpt><trkpt lat="41.86578177787508" lon="19.70139517787671"><ele>85.0</ele><time>2026-04-29T16:08:08Z</time></trkpt><trkpt lat="41.865803059920005" lon="19.701213331723896"><ele>84.0</ele><time>2026-04-29T16:08:09Z</time></trkpt><trkpt lat="41.86584510696271" lon="19.70104540732846"><ele>84.5</ele><time>2026-04-29T16:08:10Z</time></trkpt><trkpt lat="41.865903972414166" lon="19.700883961153547"><ele>85.0</ele><time>2026-04-29T16:08:11Z</time></trkpt><trkpt lat="41.865966002129085" lon="19.700728872757928"><ele>85.5</ele><time>2026-04-29T16:08:12Z</time></trkpt><trkpt lat="41.86601136347338" lon="19.70057603200747"><ele>86.0</ele><time>2026-04-29T16:08:13Z</time></trkpt><trkpt lat="41.86603331013353" lon="19.7004025682418"><ele>84.33333333333334</ele><time>2026-04-29T16:08:14Z</time></trkpt><trkpt lat="41.866037156115645" lon="19.700208682344932"><ele>82.66666666666667</ele><time>2026-04-29T16:08:15Z</time></trkpt><trkpt lat="41.866028701697125" lon="19.700007246004663"><ele>81.0</ele><time>2026-04-29T16:08:16Z</time></trkpt><trkpt lat="41.86601494900268" lon="19.699799296977872"><ele>81.0</ele><time>2026-04-29T16:08:17Z</time></trkpt><trkpt lat="41.86599892521074" lon="19.699604466727248"><ele>81.0</ele><time>2026-04-29T16:08:18Z</time></trkpt><trkpt lat="41.865976495085974" lon="19.699440766733535"><ele>81.0</ele><time>2026-04-29T16:08:19Z</time></trkpt><trkpt lat="41.86595947726454" lon="19.69932980912087"><ele>81.0</ele><time>2026-04-29T16:08:20Z</time></trkpt><trkpt lat="41.86596190102553" lon="19.69922227066263"><ele>81.0</ele><time>2026-04-29T16:08:22Z</time></trkpt><trkpt lat="41.86604555486131" lon="19.69919341279287"><ele>80.0</ele><time>2026-04-29T16:08:25Z</time></trkpt><trkpt lat="41.866120371090524" lon="19.6992113187918"><ele>79.0</ele><time>2026-04-29T16:08:26Z</time></trkpt><trkpt lat="41.86620628354483" lon="19.699244130028013"><ele>78.0</ele><time>2026-04-29T16:08:27Z</time></trkpt><trkpt lat="41.86629851102167" lon="19.69926400799794"><ele>77.0</ele><time>2026-04-29T16:08:28Z</time></trkpt><trkpt lat="41.86640231197379" lon="19.699284400134275"><ele>76.0</ele><time>2026-04-29T16:08:29Z</time></trkpt><trkpt lat="41.86651737304494" lon="19.6993103741567"><ele>76.0</ele><time>2026-04-29T16:08:30Z</time></trkpt><trkpt lat="41.8666842621368" lon="19.699353206047455"><ele>76.0</ele><time>2026-04-29T16:08:31Z</time></trkpt><trkpt lat="41.86690905820391" lon="19.69939366049012"><ele>76.0</ele><time>2026-04-29T16:08:32Z</time></trkpt><trkpt lat="41.867164769911625" lon="19.69944461701497"><ele>76.0</ele><time>2026-04-29T16:08:33Z</time></trkpt><trkpt lat="41.86744935802419" lon="19.6995036653338"><ele>76.0</ele><time>2026-04-29T16:08:34Z</time></trkpt><trkpt lat="41.867709746613194" lon="19.69956087236104"><ele>76.0</ele><time>2026-04-29T16:08:35Z</time></trkpt><trkpt lat="41.86792323549962" lon="19.699608370165468"><ele>76.0</ele><time>2026-04-29T16:08:36Z</time></trkpt><trkpt lat="41.868122258906965" lon="19.69965125423497"><ele>76.0</ele><time>2026-04-29T16:08:37Z</time></trkpt><trkpt lat="41.86831968920308" lon="19.69969503898932"><ele>75.66666666666666</ele><time>2026-04-29T16:08:38Z</time></trkpt><trkpt lat="41.86850531694414" lon="19.699737406501022"><ele>75.33333333333333</ele><time>2026-04-29T16:08:39Z</time></trkpt><trkpt lat="41.86867490899134" lon="19.699777767581686"><ele>75.0</ele><time>2026-04-29T16:08:40Z</time></trkpt><trkpt lat="41.86883243353363" lon="19.69981246373543"><ele>75.0</ele><time>2026-04-29T16:08:41Z</time></trkpt><trkpt lat="41.86897911245478" lon="19.69983949327579"><ele>75.0</ele><time>2026-04-29T16:08:42Z</time></trkpt><trkpt lat="41.86911557108105" lon="19.699866607174176"><ele>75.0</ele><time>2026-04-29T16:08:43Z</time></trkpt><trkpt lat="41.869253888573525" lon="19.699901240064968"><ele>75.0</ele><time>2026-04-29T16:08:44Z</time></trkpt><trkpt lat="41.86939965090892" lon="19.699937643022484"><ele>75.5</ele><time>2026-04-29T16:08:45Z</time></trkpt><trkpt lat="41.86955523130936" lon="19.69997305061559"><ele>76.0</ele><time>2026-04-29T16:08:46Z</time></trkpt><trkpt lat="41.869700789763364" lon="19.700006788819575"><ele>76.5</ele><time>2026-04-29T16:08:47Z</time></trkpt><trkpt lat="41.86983415565847" lon="19.70003712590185"><ele>77.0</ele><time>2026-04-29T16:08:48Z</time></trkpt><trkpt lat="41.86997382485444" lon="19.700069029826807"><ele>77.0</ele><time>2026-04-29T16:08:49Z</time></trkpt><trkpt lat="41.870107159236554" lon="19.700094340155935"><ele>77.0</ele><time>2026-04-29T16:08:50Z</time></trkpt><trkpt lat="41.87022696881701" lon="19.70009096343987"><ele>77.0</ele><time>2026-04-29T16:08:51Z</time></trkpt><trkpt lat="41.87033424083681" lon="19.70005027464052"><ele>77.0</ele><time>2026-04-29T16:08:52Z</time></trkpt><trkpt lat="41.87042819558418" lon="19.699965422039003"><ele>76.5</ele><time>2026-04-29T16:08:53Z</time></trkpt><trkpt lat="41.87050906406736" lon="19.699837726856266"><ele>76.0</ele><time>2026-04-29T16:08:54Z</time></trkpt><trkpt lat="41.870580527705265" lon="19.699686886131442"><ele>75.5</ele><time>2026-04-29T16:08:55Z</time></trkpt><trkpt lat="41.87066113311" lon="19.699533424237913"><ele>75.0</ele><time>2026-04-29T16:08:56Z</time></trkpt><trkpt lat="41.870749004628316" lon="19.699372358691818"><ele>76.25</ele><time>2026-04-29T16:08:57Z</time></trkpt><trkpt lat="41.87081561830527" lon="19.699198304512272"><ele>77.5</ele><time>2026-04-29T16:08:58Z</time></trkpt><trkpt lat="41.870829539340875" lon="19.69902712135795"><ele>78.75</ele><time>2026-04-29T16:08:59Z</time></trkpt><trkpt lat="41.870799351220086" lon="19.69884368997542"><ele>80.0</ele><time>2026-04-29T16:09:00Z</time></trkpt><trkpt lat="41.87073872311948" lon="19.69862403054756"><ele>81.0</ele><time>2026-04-29T16:09:01Z</time></trkpt><trkpt lat="41.87069088227275" lon="19.698407236681465"><ele>82.0</ele><time>2026-04-29T16:09:02Z</time></trkpt><trkpt lat="41.870686483361254" lon="19.69820576424574"><ele>83.0</ele><time>2026-04-29T16:09:03Z</time></trkpt><trkpt lat="41.87071918144749" lon="19.69797423472379"><ele>83.33333333333334</ele><time>2026-04-29T16:09:04Z</time></trkpt><trkpt lat="41.870777988341224" lon="19.69770123958915"><ele>83.66666666666667</ele><time>2026-04-29T16:09:05Z</time></trkpt><trkpt lat="41.87083659846302" lon="19.69747158778251"><ele>84.0</ele><time>2026-04-29T16:09:06Z</time></trkpt><trkpt lat="41.87091291309294" lon="19.697284881269393"><ele>87.0</ele><time>2026-04-29T16:09:07Z</time></trkpt><trkpt lat="41.8710215020865" lon="19.697118694728893"><ele>90.0</ele><time>2026-04-29T16:09:08Z</time></trkpt><trkpt lat="41.87113175018103" lon="19.697010901572323"><ele>93.0</ele><time>2026-04-29T16:09:09Z</time></trkpt><trkpt lat="41.871246984100964" lon="19.696972887902593"><ele>96.0</ele><time>2026-04-29T16:09:10Z</time></trkpt><trkpt lat="41.87136791845288" lon="19.696935316718143"><ele>96.0</ele><time>2026-04-29T16:09:11Z</time></trkpt><trkpt lat="41.871509946983764" lon="19.696964247417384"><ele>96.0</ele><time>2026-04-29T16:09:12Z</time></trkpt><trkpt lat="41.871655002048286" lon="19.697031954465608"><ele>96.0</ele><time>2026-04-29T16:09:13Z</time></trkpt><trkpt lat="41.871742748315484" lon="19.697170437070355"><ele>96.0</ele><time>2026-04-29T16:09:14Z</time></trkpt><trkpt lat="41.87183332021133" lon="19.69730699741487"><ele>95.33333333333333</ele><time>2026-04-29T16:09:15Z</time></trkpt><trkpt lat="41.871935688598526" lon="19.697487234851884"><ele>94.66666666666666</ele><time>2026-04-29T16:09:16Z</time></trkpt><trkpt lat="41.872065094449994" lon="19.6977158365141"><ele>94.0</ele><time>2026-04-29T16:09:17Z</time></trkpt><trkpt lat="41.872222086754356" lon="19.697977866114055"><ele>95.66666666666666</ele><time>2026-04-29T16:09:18Z</time></trkpt><trkpt lat="41.872375775471916" lon="19.69821868998986"><ele>97.33333333333333</ele><time>2026-04-29T16:09:19Z</time></trkpt><trkpt lat="41.872510430882734" lon="19.698411156149568"><ele>99.0</ele><time>2026-04-29T16:09:20Z</time></trkpt><trkpt lat="41.872618012335465" lon="19.698594387445414"><ele>100.25</ele><time>2026-04-29T16:09:21Z</time></trkpt><trkpt lat="41.87272161223023" lon="19.69873946824581"><ele>101.5</ele><time>2026-04-29T16:09:22Z</time></trkpt><trkpt lat="41.87282881983675" lon="19.698861929706496"><ele>102.75</ele><time>2026-04-29T16:09:23Z</time></trkpt><trkpt lat="41.8729816933711" lon="19.698896303212646"><ele>104.0</ele><time>2026-04-29T16:09:24Z</time></trkpt><trkpt lat="41.87313959054093" lon="19.698916972700886"><ele>104.0</ele><time>2026-04-29T16:09:25Z</time></trkpt><trkpt lat="41.87328136340663" lon="19.69889607554099"><ele>104.0</ele><time>2026-04-29T16:09:26Z</time></trkpt><trkpt lat="41.873404800301756" lon="19.6988377072174"><ele>104.0</ele><time>2026-04-29T16:09:27Z</time></trkpt><trkpt lat="41.87351898327234" lon="19.698738341000166"><ele>104.0</ele><time>2026-04-29T16:09:28Z</time></trkpt><trkpt lat="41.873626246700624" lon="19.698590164910968"><ele>103.33333333333333</ele><time>2026-04-29T16:09:29Z</time></trkpt><trkpt lat="41.87374840259176" lon="19.698389832125624"><ele>102.66666666666666</ele><time>2026-04-29T16:09:30Z</time></trkpt><trkpt lat="41.873859002243655" lon="19.69819707090027"><ele>102.0</ele><time>2026-04-29T16:09:31Z</time></trkpt><trkpt lat="41.87394122084469" lon="19.69803607050678"><ele>102.0</ele><time>2026-04-29T16:09:32Z</time></trkpt><trkpt lat="41.873979981514104" lon="19.697871893135456"><ele>102.0</ele><time>2026-04-29T16:09:33Z</time></trkpt><trkpt lat="41.873977118291606" lon="19.69769284105876"><ele>102.0</ele><time>2026-04-29T16:09:34Z</time></trkpt><trkpt lat="41.873948512690404" lon="19.69747763507828"><ele>102.0</ele><time>2026-04-29T16:09:35Z</time></trkpt><trkpt lat="41.87391065613225" lon="19.697232442720686"><ele>105.33333333333334</ele><time>2026-04-29T16:09:36Z</time></trkpt><trkpt lat="41.873870235268285" lon="19.69696403891571"><ele>108.66666666666667</ele><time>2026-04-29T16:09:37Z</time></trkpt><trkpt lat="41.873837196897085" lon="19.696755944254818"><ele>112.0</ele><time>2026-04-29T16:09:38Z</time></trkpt><trkpt lat="41.87381841339254" lon="19.69657791735612"><ele>111.0</ele><time>2026-04-29T16:09:39Z</time></trkpt><trkpt lat="41.87383256492103" lon="19.69641073433491"><ele>110.0</ele><time>2026-04-29T16:09:40Z</time></trkpt><trkpt lat="41.87387091885702" lon="19.696270587635176"><ele>109.0</ele><time>2026-04-29T16:09:41Z</time></trkpt><trkpt lat="41.87393024946691" lon="19.696156783864478"><ele>108.0</ele><time>2026-04-29T16:09:42Z</time></trkpt><trkpt lat="41.8740092202661" lon="19.69604275780001"><ele>108.0</ele><time>2026-04-29T16:09:43Z</time></trkpt><trkpt lat="41.87409706275769" lon="19.695907927940908"><ele>108.0</ele><time>2026-04-29T16:09:44Z</time></trkpt><trkpt lat="41.87419589469792" lon="19.695743089724136"><ele>108.0</ele><time>2026-04-29T16:09:45Z</time></trkpt><trkpt lat="41.8743078287248" lon="19.695563799029724"><ele>106.66666666666666</ele><time>2026-04-29T16:09:46Z</time></trkpt><trkpt lat="41.87443058986663" lon="19.695417387880635"><ele>105.33333333333333</ele><time>2026-04-29T16:09:47Z</time></trkpt><trkpt lat="41.874572607864586" lon="19.695301911775267"><ele>104.0</ele><time>2026-04-29T16:09:48Z</time></trkpt><trkpt lat="41.8747315692285" lon="19.695214073923044"><ele>104.0</ele><time>2026-04-29T16:09:49Z</time></trkpt><trkpt lat="41.87490207190945" lon="19.69513869729841"><ele>104.0</ele><time>2026-04-29T16:09:50Z</time></trkpt><trkpt lat="41.87506289672422" lon="19.695063875149867"><ele>104.0</ele><time>2026-04-29T16:09:51Z</time></trkpt><trkpt lat="41.875214241766734" lon="19.6950332831846"><ele>103.0</ele><time>2026-04-29T16:09:52Z</time></trkpt><trkpt lat="41.875348439784126" lon="19.695054147395215"><ele>102.0</ele><time>2026-04-29T16:09:53Z</time></trkpt><trkpt lat="41.87551130966456" lon="19.695096847166905"><ele>101.0</ele><time>2026-04-29T16:09:54Z</time></trkpt><trkpt lat="41.875702217413775" lon="19.695133124382266"><ele>101.0</ele><time>2026-04-29T16:09:55Z</time></trkpt><trkpt lat="41.875899410710694" lon="19.695187586841065"><ele>101.0</ele><time>2026-04-29T16:09:56Z</time></trkpt><trkpt lat="41.87609065320326" lon="19.695237018436586"><ele>101.0</ele><time>2026-04-29T16:09:57Z</time></trkpt><trkpt lat="41.876246890176645" lon="19.695273436265513"><ele>102.0</ele><time>2026-04-29T16:09:58Z</time></trkpt><trkpt lat="41.876372555310496" lon="19.69532668496789"><ele>103.0</ele><time>2026-04-29T16:09:59Z</time></trkpt><trkpt lat="41.876500332849446" lon="19.695397842310513"><ele>104.0</ele><time>2026-04-29T16:10:00Z</time></trkpt><trkpt lat="41.87662791907957" lon="19.69551743777643"><ele>105.0</ele><time>2026-04-29T16:10:01Z</time></trkpt><trkpt lat="41.876762308189655" lon="19.695665254297197"><ele>104.33333333333334</ele><time>2026-04-29T16:10:02Z</time></trkpt><trkpt lat="41.876896854460256" lon="19.695823863392274"><ele>103.66666666666667</ele><time>2026-04-29T16:10:03Z</time></trkpt><trkpt lat="41.87702015447479" lon="19.695968620566084"><ele>103.0</ele><time>2026-04-29T16:10:04Z</time></trkpt><trkpt lat="41.877134394317906" lon="19.696098865512173"><ele>103.0</ele><time>2026-04-29T16:10:05Z</time></trkpt><trkpt lat="41.87726177192921" lon="19.696203100696447"><ele>103.0</ele><time>2026-04-29T16:10:06Z</time></trkpt><trkpt lat="41.8773740501982" lon="19.696325136528376"><ele>103.0</ele><time>2026-04-29T16:10:07Z</time></trkpt><trkpt lat="41.87752160122389" lon="19.69636577755632"><ele>103.0</ele><time>2026-04-29T16:10:08Z</time></trkpt><trkpt lat="41.87766577541374" lon="19.696381673834363"><ele>100.0</ele><time>2026-04-29T16:10:09Z</time></trkpt><trkpt lat="41.877819749990145" lon="19.69632785798125"><ele>97.0</ele><time>2026-04-29T16:10:10Z</time></trkpt><trkpt lat="41.87798017123179" lon="19.696250494142387"><ele>94.0</ele><time>2026-04-29T16:10:11Z</time></trkpt><trkpt lat="41.878140896464316" lon="19.69613099005201"><ele>92.0</ele><time>2026-04-29T16:10:12Z</time></trkpt><trkpt lat="41.87829999030101" lon="19.69596195421785"><ele>90.0</ele><time>2026-04-29T16:10:13Z</time></trkpt><trkpt lat="41.87845452690124" lon="19.695784721080084"><ele>88.0</ele><time>2026-04-29T16:10:14Z</time></trkpt><trkpt lat="41.878584102575694" lon="19.695640765635332"><ele>90.5</ele><time>2026-04-29T16:10:15Z</time></trkpt><trkpt lat="41.87868106513107" lon="19.695497247804465"><ele>93.0</ele><time>2026-04-29T16:10:16Z</time></trkpt><trkpt lat="41.87873202037645" lon="19.695320210334966"><ele>95.5</ele><time>2026-04-29T16:10:17Z</time></trkpt><trkpt lat="41.87874895358041" lon="19.695116215862818"><ele>98.0</ele><time>2026-04-29T16:10:18Z</time></trkpt><trkpt lat="41.87875823715801" lon="19.694885535067478"><ele>98.0</ele><time>2026-04-29T16:10:19Z</time></trkpt><trkpt lat="41.87875246414569" lon="19.694639512866907"><ele>98.0</ele><time>2026-04-29T16:10:20Z</time></trkpt><trkpt lat="41.8787350844143" lon="19.694374598417966"><ele>98.0</ele><time>2026-04-29T16:10:21Z</time></trkpt><trkpt lat="41.87867599432105" lon="19.694114620281287"><ele>98.33333333333333</ele><time>2026-04-29T16:10:22Z</time></trkpt><trkpt lat="41.87863127749935" lon="19.69384439023308"><ele>98.66666666666666</ele><time>2026-04-29T16:10:23Z</time></trkpt><trkpt lat="41.87858443966052" lon="19.693595985916392"><ele>99.0</ele><time>2026-04-29T16:10:24Z</time></trkpt><trkpt lat="41.87854703873348" lon="19.693367004467163"><ele>98.0</ele><time>2026-04-29T16:10:25Z</time></trkpt><trkpt lat="41.87853693260616" lon="19.693156832702112"><ele>97.0</ele><time>2026-04-29T16:10:26Z</time></trkpt><trkpt lat="41.8785698090799" lon="19.692967129614747"><ele>96.0</ele><time>2026-04-29T16:10:27Z</time></trkpt><trkpt lat="41.87865512485809" lon="19.69283681883937"><ele>95.0</ele><time>2026-04-29T16:10:28Z</time></trkpt><trkpt lat="41.878758057142214" lon="19.692744552282306"><ele>91.66666666666667</ele><time>2026-04-29T16:10:29Z</time></trkpt><trkpt lat="41.87887985870901" lon="19.69264832405399"><ele>88.33333333333333</ele><time>2026-04-29T16:10:30Z</time></trkpt><trkpt lat="41.87904967702572" lon="19.692606621392052"><ele>85.0</ele><time>2026-04-29T16:10:31Z</time></trkpt><trkpt lat="41.879253882499164" lon="19.692558455386603"><ele>85.0</ele><time>2026-04-29T16:10:32Z</time></trkpt><trkpt lat="41.879486189112974" lon="19.69250165342539"><ele>85.0</ele><time>2026-04-29T16:10:33Z</time></trkpt><trkpt lat="41.879736086831876" lon="19.692443296600796"><ele>85.0</ele><time>2026-04-29T16:10:34Z</time></trkpt><trkpt lat="41.87995538066326" lon="19.692390582435554"><ele>85.0</ele><time>2026-04-29T16:10:35Z</time></trkpt><trkpt lat="41.88013685188902" lon="19.69234484856859"><ele>85.0</ele><time>2026-04-29T16:10:36Z</time></trkpt><trkpt lat="41.88030162858432" lon="19.692299181887723"><ele>84.66666666666666</ele><time>2026-04-29T16:10:37Z</time></trkpt><trkpt lat="41.88046222800189" lon="19.692254120368727"><ele>84.33333333333333</ele><time>2026-04-29T16:10:38Z</time></trkpt><trkpt lat="41.880637946445475" lon="19.692207429310482"><ele>84.0</ele><time>2026-04-29T16:10:39Z</time></trkpt><trkpt lat="41.88083618009288" lon="19.69215614907556"><ele>86.66666666666667</ele><time>2026-04-29T16:10:40Z</time></trkpt><trkpt lat="41.881037271120434" lon="19.6921073127494"><ele>89.33333333333334</ele><time>2026-04-29T16:10:41Z</time></trkpt><trkpt lat="41.881207775564214" lon="19.69206069112074"><ele>92.0</ele><time>2026-04-29T16:10:42Z</time></trkpt><trkpt lat="41.881362745806015" lon="19.692012431378352"><ele>92.0</ele><time>2026-04-29T16:10:43Z</time></trkpt><trkpt lat="41.88151369808145" lon="19.691956267828722"><ele>92.0</ele><time>2026-04-29T16:10:44Z</time></trkpt><trkpt lat="41.88168173142457" lon="19.691869748918943"><ele>92.0</ele><time>2026-04-29T16:10:45Z</time></trkpt><trkpt lat="41.8818651982485" lon="19.69175685534217"><ele>92.66666666666667</ele><time>2026-04-29T16:10:46Z</time></trkpt><trkpt lat="41.882058997973175" lon="19.691634079424468"><ele>93.33333333333333</ele><time>2026-04-29T16:10:47Z</time></trkpt><trkpt lat="41.88224305161237" lon="19.691525926987637"><ele>94.0</ele><time>2026-04-29T16:10:48Z</time></trkpt><trkpt lat="41.88242226631176" lon="19.691422252168504"><ele>93.66666666666666</ele><time>2026-04-29T16:10:49Z</time></trkpt><trkpt lat="41.88260217759945" lon="19.691320231180146"><ele>93.33333333333333</ele><time>2026-04-29T16:10:50Z</time></trkpt><trkpt lat="41.882769329837984" lon="19.691222287996986"><ele>93.0</ele><time>2026-04-29T16:10:51Z</time></trkpt><trkpt lat="41.88291932930926" lon="19.69113474327784"><ele>91.5</ele><time>2026-04-29T16:10:52Z</time></trkpt><trkpt lat="41.883055426078634" lon="19.691056527024696"><ele>90.0</ele><time>2026-04-29T16:10:53Z</time></trkpt><trkpt lat="41.88316766047692" lon="19.69097727317793"><ele>88.5</ele><time>2026-04-29T16:10:54Z</time></trkpt><trkpt lat="41.88324604937179" lon="19.690900913900464"><ele>87.0</ele><time>2026-04-29T16:10:55Z</time></trkpt><trkpt lat="41.88329407628822" lon="19.69081657300986"><ele>87.0</ele><time>2026-04-29T16:10:56Z</time></trkpt><trkpt lat="41.88334279771442" lon="19.690723555051168"><ele>87.0</ele><time>2026-04-29T16:10:57Z</time></trkpt><trkpt lat="41.883370559124536" lon="19.690583961921654"><ele>87.0</ele><time>2026-04-29T16:10:59Z</time></trkpt><trkpt lat="41.88341617066884" lon="19.690502597176646"><ele>87.0</ele><time>2026-04-29T16:11:02Z</time></trkpt><trkpt lat="41.883410074717894" lon="19.690392631979233"><ele>87.0</ele><time>2026-04-29T16:11:22Z</time></trkpt><trkpt lat="41.88343112060111" lon="19.690312778489197"><ele>87.0</ele><time>2026-04-29T16:11:23Z</time></trkpt><trkpt lat="41.883449746808424" lon="19.69021701755923"><ele>86.39999999999999</ele><time>2026-04-29T16:11:24Z</time></trkpt><trkpt lat="41.883464197665894" lon="19.6900980658996"><ele>85.8</ele><time>2026-04-29T16:11:25Z</time></trkpt><trkpt lat="41.88347695588914" lon="19.68995796251816"><ele>85.2</ele><time>2026-04-29T16:11:26Z</time></trkpt><trkpt lat="41.88349341333016" lon="19.689802129540155"><ele>84.6</ele><time>2026-04-29T16:11:27Z</time></trkpt><trkpt lat="41.88350895539099" lon="19.689640285800333"><ele>84.0</ele><time>2026-04-29T16:11:28Z</time></trkpt><trkpt lat="41.883525058003045" lon="19.689467167014985"><ele>85.75</ele><time>2026-04-29T16:11:29Z</time></trkpt><trkpt lat="41.88353195877443" lon="19.68928392027527"><ele>87.5</ele><time>2026-04-29T16:11:30Z</time></trkpt><trkpt lat="41.883530960040744" lon="19.689094992065108"><ele>89.25</ele><time>2026-04-29T16:11:31Z</time></trkpt><trkpt lat="41.883523235346345" lon="19.688896712088976"><ele>91.0</ele><time>2026-04-29T16:11:32Z</time></trkpt><trkpt lat="41.88351268937284" lon="19.688692205259805"><ele>93.66666666666666</ele><time>2026-04-29T16:11:33Z</time></trkpt><trkpt lat="41.88349914109516" lon="19.688478700692443"><ele>96.33333333333333</ele><time>2026-04-29T16:11:34Z</time></trkpt><trkpt lat="41.88348241424934" lon="19.688261928353043"><ele>99.0</ele><time>2026-04-29T16:11:35Z</time></trkpt><trkpt lat="41.88346438977778" lon="19.688040730772755"><ele>99.0</ele><time>2026-04-29T16:11:36Z</time></trkpt><trkpt lat="41.88344441446343" lon="19.687828036222356"><ele>99.0</ele><time>2026-04-29T16:11:37Z</time></trkpt><trkpt lat="41.88342757426309" lon="19.687608657525665"><ele>99.0</ele><time>2026-04-29T16:11:38Z</time></trkpt><trkpt lat="41.883417098988716" lon="19.687379887001768"><ele>96.0</ele><time>2026-04-29T16:11:39Z</time></trkpt><trkpt lat="41.883401129639694" lon="19.68716372252178"><ele>93.0</ele><time>2026-04-29T16:11:40Z</time></trkpt><trkpt lat="41.88337852980102" lon="19.686971947966192"><ele>90.0</ele><time>2026-04-29T16:11:41Z</time></trkpt><trkpt lat="41.883357460348876" lon="19.68679520813988"><ele>87.0</ele><time>2026-04-29T16:11:42Z</time></trkpt><trkpt lat="41.88334963628486" lon="19.686629472110223"><ele>86.5</ele><time>2026-04-29T16:11:43Z</time></trkpt><trkpt lat="41.8833767448288" lon="19.686477700746444"><ele>86.0</ele><time>2026-04-29T16:11:44Z</time></trkpt><trkpt lat="41.883444616948225" lon="19.68632405983528"><ele>85.5</ele><time>2026-04-29T16:11:45Z</time></trkpt><trkpt lat="41.88352008306986" lon="19.68615962963551"><ele>85.0</ele><time>2026-04-29T16:11:46Z</time></trkpt><trkpt lat="41.88355119902346" lon="19.685984265302107"><ele>84.5</ele><time>2026-04-29T16:11:47Z</time></trkpt><trkpt lat="41.88355017497736" lon="19.685822180430286"><ele>84.0</ele><time>2026-04-29T16:11:48Z</time></trkpt><trkpt lat="41.88349953128713" lon="19.68567180914751"><ele>83.5</ele><time>2026-04-29T16:11:49Z</time></trkpt><trkpt lat="41.88343212433307" lon="19.685528694361434"><ele>83.0</ele><time>2026-04-29T16:11:50Z</time></trkpt><trkpt lat="41.88333387609157" lon="19.685374987602806"><ele>83.75</ele><time>2026-04-29T16:11:51Z</time></trkpt><trkpt lat="41.883234993715824" lon="19.685214265476155"><ele>84.5</ele><time>2026-04-29T16:11:52Z</time></trkpt><trkpt lat="41.883167211806104" lon="19.685060601640835"><ele>85.25</ele><time>2026-04-29T16:11:53Z</time></trkpt><trkpt lat="41.88312994047665" lon="19.68487126058716"><ele>86.0</ele><time>2026-04-29T16:11:54Z</time></trkpt><trkpt lat="41.88311173470982" lon="19.684665497537452"><ele>86.0</ele><time>2026-04-29T16:11:55Z</time></trkpt><trkpt lat="41.883065186392095" lon="19.6844626234698"><ele>86.0</ele><time>2026-04-29T16:11:56Z</time></trkpt><trkpt lat="41.88302940988123" lon="19.684235751811375"><ele>86.0</ele><time>2026-04-29T16:11:57Z</time></trkpt><trkpt lat="41.88298826282843" lon="19.684000363685893"><ele>86.0</ele><time>2026-04-29T16:11:58Z</time></trkpt><trkpt lat="41.882949838750946" lon="19.683782167012133"><ele>86.0</ele><time>2026-04-29T16:11:59Z</time></trkpt><trkpt lat="41.882909193229224" lon="19.683582046123643"><ele>86.0</ele><time>2026-04-29T16:12:00Z</time></trkpt><trkpt lat="41.88287030697422" lon="19.68339377555427"><ele>84.75</ele><time>2026-04-29T16:12:01Z</time></trkpt><trkpt lat="41.882833678540926" lon="19.683217647338886"><ele>83.5</ele><time>2026-04-29T16:12:02Z</time></trkpt><trkpt lat="41.882815749588595" lon="19.683061273620396"><ele>82.25</ele><time>2026-04-29T16:12:03Z</time></trkpt><trkpt lat="41.882833618622904" lon="19.682921780962083"><ele>81.0</ele><time>2026-04-29T16:12:04Z</time></trkpt><trkpt lat="41.88289292668426" lon="19.68278379738751"><ele>78.5</ele><time>2026-04-29T16:12:05Z</time></trkpt><trkpt lat="41.88298084715033" lon="19.682688496141274"><ele>76.0</ele><time>2026-04-29T16:12:06Z</time></trkpt><trkpt lat="41.883096625129674" lon="19.68262817589328"><ele>73.5</ele><time>2026-04-29T16:12:07Z</time></trkpt><trkpt lat="41.88321555831096" lon="19.682607496904833"><ele>71.0</ele><time>2026-04-29T16:12:08Z</time></trkpt><trkpt lat="41.88332110286048" lon="19.6826444119066"><ele>71.0</ele><time>2026-04-29T16:12:09Z</time></trkpt><trkpt lat="41.88339795931568" lon="19.682754959855043"><ele>71.0</ele><time>2026-04-29T16:12:10Z</time></trkpt><trkpt lat="41.88348942818024" lon="19.682853835725787"><ele>71.0</ele><time>2026-04-29T16:12:11Z</time></trkpt><trkpt lat="41.883571686168416" lon="19.68293397845502"><ele>71.0</ele><time>2026-04-29T16:12:12Z</time></trkpt><trkpt lat="41.88367140874753" lon="19.682969137692197"><ele>71.0</ele><time>2026-04-29T16:12:13Z</time></trkpt><trkpt lat="41.883768025895804" lon="19.683006899024242"><ele>70.75</ele><time>2026-04-29T16:12:14Z</time></trkpt><trkpt lat="41.88389966938571" lon="19.682987168602686"><ele>70.5</ele><time>2026-04-29T16:12:15Z</time></trkpt><trkpt lat="41.884029824062566" lon="19.68293217393323"><ele>70.25</ele><time>2026-04-29T16:12:16Z</time></trkpt><trkpt lat="41.88414773390776" lon="19.682836446783863"><ele>70.0</ele><time>2026-04-29T16:12:17Z</time></trkpt><trkpt lat="41.88428881474169" lon="19.68271683440932"><ele>69.66666666666666</ele><time>2026-04-29T16:12:18Z</time></trkpt><trkpt lat="41.88446049544939" lon="19.68258249567399"><ele>69.33333333333333</ele><time>2026-04-29T16:12:19Z</time></trkpt><trkpt lat="41.8846546054673" lon="19.682428234521748"><ele>69.0</ele><time>2026-04-29T16:12:20Z</time></trkpt><trkpt lat="41.88486262720689" lon="19.682273230854445"><ele>69.0</ele><time>2026-04-29T16:12:21Z</time></trkpt><trkpt lat="41.88507699793559" lon="19.682115451343577"><ele>69.0</ele><time>2026-04-29T16:12:22Z</time></trkpt><trkpt lat="41.88530918951214" lon="19.68196169030442"><ele>72.0</ele><time>2026-04-29T16:12:23Z</time></trkpt><trkpt lat="41.88556843907484" lon="19.68183588825835"><ele>75.0</ele><time>2026-04-29T16:12:24Z</time></trkpt><trkpt lat="41.88576807639336" lon="19.68169039832065"><ele>77.0</ele><time>2026-04-29T16:12:25Z</time></trkpt><trkpt lat="41.885959224141274" lon="19.68156718117099"><ele>79.0</ele><time>2026-04-29T16:12:26Z</time></trkpt><trkpt lat="41.88614680029236" lon="19.68144326045844"><ele>81.0</ele><time>2026-04-29T16:12:27Z</time></trkpt><trkpt lat="41.88631034646518" lon="19.681351753617637"><ele>81.0</ele><time>2026-04-29T16:12:28Z</time></trkpt><trkpt lat="41.88643683901019" lon="19.681279768462588"><ele>81.0</ele><time>2026-04-29T16:12:29Z</time></trkpt><trkpt lat="41.886529548590644" lon="19.681221276180505"><ele>81.0</ele><time>2026-04-29T16:12:30Z</time></trkpt><trkpt lat="41.886621889714746" lon="19.68115581591955"><ele>81.0</ele><time>2026-04-29T16:12:31Z</time></trkpt><trkpt lat="41.8867307460479" lon="19.681108267434468"><ele>78.0</ele><time>2026-04-29T16:12:32Z</time></trkpt><trkpt lat="41.886829890901694" lon="19.681178218460776"><ele>75.0</ele><time>2026-04-29T16:12:33Z</time></trkpt><trkpt lat="41.886947688583184" lon="19.681229651561207"><ele>72.0</ele><time>2026-04-29T16:12:34Z</time></trkpt><trkpt lat="41.88709530119007" lon="19.681278433714382"><ele>69.0</ele><time>2026-04-29T16:12:35Z</time></trkpt><trkpt lat="41.887243474941364" lon="19.681250287432356"><ele>69.0</ele><time>2026-04-29T16:12:36Z</time></trkpt><trkpt lat="41.88737127887944" lon="19.681201815266707"><ele>69.0</ele><time>2026-04-29T16:12:37Z</time></trkpt><trkpt lat="41.887476915626536" lon="19.68122566215005"><ele>69.0</ele><time>2026-04-29T16:12:38Z</time></trkpt><trkpt lat="41.88759108166248" lon="19.68131622232432"><ele>69.0</ele><time>2026-04-29T16:12:39Z</time></trkpt><trkpt lat="41.887703023609355" lon="19.681456692270885"><ele>65.0</ele><time>2026-04-29T16:12:40Z</time></trkpt><trkpt lat="41.8878435481768" lon="19.681611025109955"><ele>61.0</ele><time>2026-04-29T16:12:41Z</time></trkpt><trkpt lat="41.88798157295636" lon="19.68173872303178"><ele>57.0</ele><time>2026-04-29T16:12:42Z</time></trkpt><trkpt lat="41.88809096313345" lon="19.681858322391"><ele>59.5</ele><time>2026-04-29T16:12:43Z</time></trkpt><trkpt lat="41.88819741399562" lon="19.681972751256946"><ele>62.0</ele><time>2026-04-29T16:12:44Z</time></trkpt><trkpt lat="41.88832419517868" lon="19.682061155087712"><ele>64.5</ele><time>2026-04-29T16:12:45Z</time></trkpt><trkpt lat="41.8884520452035" lon="19.682114096567968"><ele>67.0</ele><time>2026-04-29T16:12:46Z</time></trkpt><trkpt lat="41.88856295779493" lon="19.682127567234502"><ele>67.0</ele><time>2026-04-29T16:12:47Z</time></trkpt><trkpt lat="41.88866625642447" lon="19.682029315162193"><ele>67.0</ele><time>2026-04-29T16:12:48Z</time></trkpt><trkpt lat="41.888754775085324" lon="19.68191558101651"><ele>67.0</ele><time>2026-04-29T16:12:49Z</time></trkpt><trkpt lat="41.888826575503124" lon="19.681797420518286"><ele>67.0</ele><time>2026-04-29T16:12:50Z</time></trkpt><trkpt lat="41.88881263926371" lon="19.681650360562163"><ele>67.0</ele><time>2026-04-29T16:12:51Z</time></trkpt><trkpt lat="41.888774085099925" lon="19.68151948169113"><ele>67.0</ele><time>2026-04-29T16:12:52Z</time></trkpt><trkpt lat="41.88871519916327" lon="19.681373854305313"><ele>67.0</ele><time>2026-04-29T16:12:53Z</time></trkpt><trkpt lat="41.888647490058844" lon="19.681209702447557"><ele>67.0</ele><time>2026-04-29T16:12:54Z</time></trkpt><trkpt lat="41.888557527110976" lon="19.681030467482444"><ele>69.33333333333333</ele><time>2026-04-29T16:12:55Z</time></trkpt><trkpt lat="41.88845198840358" lon="19.680862189172032"><ele>71.66666666666667</ele><time>2026-04-29T16:12:56Z</time></trkpt><trkpt lat="41.88836080177751" lon="19.680687495620454"><ele>74.0</ele><time>2026-04-29T16:12:57Z</time></trkpt><trkpt lat="41.88834851778653" lon="19.680494232151858"><ele>72.25</ele><time>2026-04-29T16:12:58Z</time></trkpt><trkpt lat="41.888326876262994" lon="19.68029818520612"><ele>70.5</ele><time>2026-04-29T16:12:59Z</time></trkpt><trkpt lat="41.888304909350246" lon="19.68013424994332"><ele>68.75</ele><time>2026-04-29T16:13:00Z</time></trkpt><trkpt lat="41.88833849603661" lon="19.679993575815516"><ele>67.0</ele><time>2026-04-29T16:13:01Z</time></trkpt><trkpt lat="41.88840999061936" lon="19.679863618518212"><ele>66.75</ele><time>2026-04-29T16:13:02Z</time></trkpt><trkpt lat="41.88851903177253" lon="19.679780219475973"><ele>66.5</ele><time>2026-04-29T16:13:03Z</time></trkpt><trkpt lat="41.888611124854386" lon="19.679698421560342"><ele>66.25</ele><time>2026-04-29T16:13:04Z</time></trkpt><trkpt lat="41.88873274012634" lon="19.679766556055238"><ele>66.0</ele><time>2026-04-29T16:13:05Z</time></trkpt><trkpt lat="41.88887821920852" lon="19.67982878779278"><ele>66.0</ele><time>2026-04-29T16:13:06Z</time></trkpt><trkpt lat="41.88903999022839" lon="19.679901948907936"><ele>66.0</ele><time>2026-04-29T16:13:07Z</time></trkpt><trkpt lat="41.88918118440548" lon="19.67994359803872"><ele>66.0</ele><time>2026-04-29T16:13:08Z</time></trkpt><trkpt lat="41.88931651660383" lon="19.679934960539157"><ele>66.66666666666667</ele><time>2026-04-29T16:13:09Z</time></trkpt><trkpt lat="41.88945753591305" lon="19.67984839543966"><ele>67.33333333333334</ele><time>2026-04-29T16:13:10Z</time></trkpt><trkpt lat="41.88960480933185" lon="19.679707648918743"><ele>68.0</ele><time>2026-04-29T16:13:11Z</time></trkpt><trkpt lat="41.889740096899" lon="19.679554135958366"><ele>66.0</ele><time>2026-04-29T16:13:12Z</time></trkpt><trkpt lat="41.88985410565957" lon="19.679433089716944"><ele>64.0</ele><time>2026-04-29T16:13:13Z</time></trkpt><trkpt lat="41.88996188276935" lon="19.67933025695453"><ele>62.0</ele><time>2026-04-29T16:13:14Z</time></trkpt><trkpt lat="41.89007673215379" lon="19.679254396966968"><ele>60.0</ele><time>2026-04-29T16:13:15Z</time></trkpt><trkpt lat="41.890199625057505" lon="19.679245165097868"><ele>61.25</ele><time>2026-04-29T16:13:16Z</time></trkpt><trkpt lat="41.890311204324306" lon="19.679273428004954"><ele>62.5</ele><time>2026-04-29T16:13:17Z</time></trkpt><trkpt lat="41.8904609722268" lon="19.679304078235106"><ele>63.75</ele><time>2026-04-29T16:13:18Z</time></trkpt><trkpt lat="41.89062986700479" lon="19.679381480053202"><ele>65.0</ele><time>2026-04-29T16:13:19Z</time></trkpt><trkpt lat="41.89080744864988" lon="19.67946541324101"><ele>62.66666666666667</ele><time>2026-04-29T16:13:20Z</time></trkpt><trkpt lat="41.89097111455481" lon="19.679490200424546"><ele>60.33333333333333</ele><time>2026-04-29T16:13:21Z</time></trkpt><trkpt lat="41.89113265915501" lon="19.67952894820111"><ele>58.0</ele><time>2026-04-29T16:13:22Z</time></trkpt><trkpt lat="41.89130536143985" lon="19.6795286354239"><ele>58.0</ele><time>2026-04-29T16:13:23Z</time></trkpt><trkpt lat="41.891464833537924" lon="19.679493278638596"><ele>58.0</ele><time>2026-04-29T16:13:24Z</time></trkpt><trkpt lat="41.891599677425766" lon="19.679422869066922"><ele>58.0</ele><time>2026-04-29T16:13:25Z</time></trkpt><trkpt lat="41.89171701943834" lon="19.679347513360906"><ele>58.0</ele><time>2026-04-29T16:13:26Z</time></trkpt><trkpt lat="41.891765078598745" lon="19.679141803275396"><ele>58.75</ele><time>2026-04-29T16:13:27Z</time></trkpt><trkpt lat="41.8918038816348" lon="19.678975605193436"><ele>59.5</ele><time>2026-04-29T16:13:28Z</time></trkpt><trkpt lat="41.89184721780847" lon="19.678797557393356"><ele>60.25</ele><time>2026-04-29T16:13:29Z</time></trkpt><trkpt lat="41.89182064690803" lon="19.678623733012433"><ele>61.0</ele><time>2026-04-29T16:13:30Z</time></trkpt><trkpt lat="41.891767098988765" lon="19.678471153668585"><ele>59.0</ele><time>2026-04-29T16:13:31Z</time></trkpt><trkpt lat="41.89167318532068" lon="19.678344189914796"><ele>57.0</ele><time>2026-04-29T16:13:32Z</time></trkpt><trkpt lat="41.89154499879665" lon="19.678229742455546"><ele>55.0</ele><time>2026-04-29T16:13:33Z</time></trkpt><trkpt lat="41.89138955902416" lon="19.678106000039502"><ele>55.0</ele><time>2026-04-29T16:13:34Z</time></trkpt><trkpt lat="41.891229193380745" lon="19.677975641038387"><ele>55.0</ele><time>2026-04-29T16:13:35Z</time></trkpt><trkpt lat="41.8911240906487" lon="19.677843202908882"><ele>55.0</ele><time>2026-04-29T16:13:36Z</time></trkpt><trkpt lat="41.89102975688007" lon="19.67774414206444"><ele>54.25</ele><time>2026-04-29T16:13:37Z</time></trkpt><trkpt lat="41.890937856461164" lon="19.6776341765978"><ele>53.5</ele><time>2026-04-29T16:13:38Z</time></trkpt><trkpt lat="41.89082373579279" lon="19.677516183374756"><ele>52.75</ele><time>2026-04-29T16:13:39Z</time></trkpt><trkpt lat="41.89073702204804" lon="19.677346107108672"><ele>52.0</ele><time>2026-04-29T16:13:40Z</time></trkpt><trkpt lat="41.8906770755904" lon="19.677195136867425"><ele>52.0</ele><time>2026-04-29T16:13:41Z</time></trkpt><trkpt lat="41.89066420120975" lon="19.6770621771426"><ele>52.0</ele><time>2026-04-29T16:13:42Z</time></trkpt><trkpt lat="41.89068652197731" lon="19.676948940736004"><ele>52.0</ele><time>2026-04-29T16:13:43Z</time></trkpt><trkpt lat="41.890723638680164" lon="19.676827666339637"><ele>52.0</ele><time>2026-04-29T16:13:44Z</time></trkpt><trkpt lat="41.890784995557745" lon="19.676673861304288"><ele>52.0</ele><time>2026-04-29T16:13:45Z</time></trkpt><trkpt lat="41.89088427786214" lon="19.676523159113177"><ele>54.0</ele><time>2026-04-29T16:13:46Z</time></trkpt><trkpt lat="41.89100830711747" lon="19.676378821733106"><ele>56.0</ele><time>2026-04-29T16:13:47Z</time></trkpt><trkpt lat="41.89113852486447" lon="19.676226546701862"><ele>58.0</ele><time>2026-04-29T16:13:48Z</time></trkpt><trkpt lat="41.89128016631581" lon="19.676086048523665"><ele>58.0</ele><time>2026-04-29T16:13:49Z</time></trkpt><trkpt lat="41.891418579646725" lon="19.675939866131014"><ele>58.0</ele><time>2026-04-29T16:13:50Z</time></trkpt><trkpt lat="41.89155699769622" lon="19.675793517149128"><ele>58.0</ele><time>2026-04-29T16:13:51Z</time></trkpt><trkpt lat="41.89169901020372" lon="19.675652219359204"><ele>60.33333333333333</ele><time>2026-04-29T16:13:52Z</time></trkpt><trkpt lat="41.89184241161408" lon="19.675516339676925"><ele>62.66666666666667</ele><time>2026-04-29T16:13:53Z</time></trkpt><trkpt lat="41.89197472673589" lon="19.675372878864966"><ele>65.0</ele><time>2026-04-29T16:13:54Z</time></trkpt><trkpt lat="41.89207459262893" lon="19.67523462885657"><ele>65.0</ele><time>2026-04-29T16:13:55Z</time></trkpt><trkpt lat="41.89212898948311" lon="19.675093575849175"><ele>65.0</ele><time>2026-04-29T16:13:56Z</time></trkpt><trkpt lat="41.89215399216391" lon="19.6749180307897"><ele>65.0</ele><time>2026-04-29T16:13:57Z</time></trkpt><trkpt lat="41.8921435686017" lon="19.67472363171742"><ele>65.0</ele><time>2026-04-29T16:13:58Z</time></trkpt><trkpt lat="41.89210154057378" lon="19.67455742853093"><ele>64.2</ele><time>2026-04-29T16:13:59Z</time></trkpt><trkpt lat="41.89207161512348" lon="19.67443368452157"><ele>63.4</ele><time>2026-04-29T16:14:00Z</time></trkpt><trkpt lat="41.8920875506305" lon="19.674334511356175"><ele>62.599999999999994</ele><time>2026-04-29T16:14:01Z</time></trkpt><trkpt lat="41.89214272097755" lon="19.67424647467066"><ele>61.8</ele><time>2026-04-29T16:14:02Z</time></trkpt><trkpt lat="41.89222503418162" lon="19.674173964232686"><ele>61.0</ele><time>2026-04-29T16:14:03Z</time></trkpt><trkpt lat="41.89234218182673" lon="19.674118982583554"><ele>61.0</ele><time>2026-04-29T16:14:04Z</time></trkpt><trkpt lat="41.89249362614783" lon="19.674082835080554"><ele>61.0</ele><time>2026-04-29T16:14:05Z</time></trkpt><trkpt lat="41.89266643323984" lon="19.674050294527635"><ele>61.0</ele><time>2026-04-29T16:14:06Z</time></trkpt><trkpt lat="41.89284005827785" lon="19.673989713065012"><ele>61.666666666666664</ele><time>2026-04-29T16:14:07Z</time></trkpt><trkpt lat="41.892989260866464" lon="19.67391920542331"><ele>62.33333333333333</ele><time>2026-04-29T16:14:08Z</time></trkpt><trkpt lat="41.89312847187426" lon="19.67382445477619"><ele>63.0</ele><time>2026-04-29T16:14:09Z</time></trkpt><trkpt lat="41.89326252524951" lon="19.673702669657843"><ele>64.0</ele><time>2026-04-29T16:14:10Z</time></trkpt><trkpt lat="41.89338717964839" lon="19.673586351658347"><ele>65.0</ele><time>2026-04-29T16:14:11Z</time></trkpt><trkpt lat="41.89349451247074" lon="19.673469828156925"><ele>66.0</ele><time>2026-04-29T16:14:12Z</time></trkpt><trkpt lat="41.89358850530762" lon="19.673324896202416"><ele>67.0</ele><time>2026-04-29T16:14:13Z</time></trkpt><trkpt lat="41.893665385796666" lon="19.673140661521728"><ele>67.0</ele><time>2026-04-29T16:14:14Z</time></trkpt><trkpt lat="41.893738183671246" lon="19.67292517928373"><ele>67.0</ele><time>2026-04-29T16:14:15Z</time></trkpt><trkpt lat="41.89381258294047" lon="19.672707242631756"><ele>67.0</ele><time>2026-04-29T16:14:16Z</time></trkpt><trkpt lat="41.89388105638686" lon="19.672519550564562"><ele>65.0</ele><time>2026-04-29T16:14:17Z</time></trkpt><trkpt lat="41.893960467051215" lon="19.672367697955575"><ele>63.0</ele><time>2026-04-29T16:14:18Z</time></trkpt><trkpt lat="41.894043835665194" lon="19.672244082563967"><ele>61.0</ele><time>2026-04-29T16:14:19Z</time></trkpt><trkpt lat="41.89412272099633" lon="19.672103343521574"><ele>59.0</ele><time>2026-04-29T16:14:20Z</time></trkpt><trkpt lat="41.8942520269824" lon="19.67201002530622"><ele>55.66666666666667</ele><time>2026-04-29T16:14:21Z</time></trkpt><trkpt lat="41.89440482997197" lon="19.67190978789955"><ele>52.33333333333333</ele><time>2026-04-29T16:14:22Z</time></trkpt><trkpt lat="41.894569935045055" lon="19.671796567348665"><ele>49.0</ele><time>2026-04-29T16:14:23Z</time></trkpt><trkpt lat="41.89473662604371" lon="19.671686733725117"><ele>49.0</ele><time>2026-04-29T16:14:24Z</time></trkpt><trkpt lat="41.89489859571847" lon="19.67159089599327"><ele>49.0</ele><time>2026-04-29T16:14:25Z</time></trkpt><trkpt lat="41.89507497715134" lon="19.671530977715438"><ele>49.0</ele><time>2026-04-29T16:14:26Z</time></trkpt><trkpt lat="41.89525228142772" lon="19.671433582424992"><ele>49.0</ele><time>2026-04-29T16:14:27Z</time></trkpt><trkpt lat="41.89544534162581" lon="19.671359801147478"><ele>49.0</ele><time>2026-04-29T16:14:28Z</time></trkpt><trkpt lat="41.8956404742543" lon="19.671274588518358"><ele>49.0</ele><time>2026-04-29T16:14:29Z</time></trkpt><trkpt lat="41.89581886072168" lon="19.67119267201461"><ele>49.33333333333333</ele><time>2026-04-29T16:14:30Z</time></trkpt><trkpt lat="41.895990876413634" lon="19.6711144268375"><ele>49.66666666666667</ele><time>2026-04-29T16:14:31Z</time></trkpt><trkpt lat="41.8961648360122" lon="19.67103699405525"><ele>50.0</ele><time>2026-04-29T16:14:32Z</time></trkpt><trkpt lat="41.89634009893993" lon="19.67096402537946"><ele>50.0</ele><time>2026-04-29T16:14:33Z</time></trkpt><trkpt lat="41.896508500268226" lon="19.670892666084445"><ele>50.0</ele><time>2026-04-29T16:14:34Z</time></trkpt><trkpt lat="41.89666541734912" lon="19.670827633026242"><ele>50.0</ele><time>2026-04-29T16:14:35Z</time></trkpt><trkpt lat="41.896816420161706" lon="19.670774562359554"><ele>50.333333333333336</ele><time>2026-04-29T16:14:36Z</time></trkpt><trkpt lat="41.89697982318912" lon="19.670745221570584"><ele>50.66666666666667</ele><time>2026-04-29T16:14:37Z</time></trkpt><trkpt lat="41.8971539891841" lon="19.670798051528386"><ele>51.0</ele><time>2026-04-29T16:14:38Z</time></trkpt><trkpt lat="41.89734203741525" lon="19.67082367999245"><ele>51.0</ele><time>2026-04-29T16:14:39Z</time></trkpt><trkpt lat="41.89753851559458" lon="19.670855889947703"><ele>51.0</ele><time>2026-04-29T16:14:40Z</time></trkpt><trkpt lat="41.89774807889767" lon="19.670897034757505"><ele>51.0</ele><time>2026-04-29T16:14:41Z</time></trkpt><trkpt lat="41.89796802391382" lon="19.670939898425523"><ele>50.5</ele><time>2026-04-29T16:14:42Z</time></trkpt><trkpt lat="41.898192497420155" lon="19.670983598892338"><ele>50.0</ele><time>2026-04-29T16:14:43Z</time></trkpt><trkpt lat="41.89841746879342" lon="19.671026202457472"><ele>49.66666666666667</ele><time>2026-04-29T16:14:44Z</time></trkpt><trkpt lat="41.89863046890675" lon="19.671068092505102"><ele>49.33333333333333</ele><time>2026-04-29T16:14:45Z</time></trkpt><trkpt lat="41.89883789896119" lon="19.671108519331653"><ele>49.0</ele><time>2026-04-29T16:14:46Z</time></trkpt><trkpt lat="41.89905330480357" lon="19.671150523402854"><ele>48.666666666666664</ele><time>2026-04-29T16:14:47Z</time></trkpt><trkpt lat="41.899274979436804" lon="19.671192807533686"><ele>48.33333333333333</ele><time>2026-04-29T16:14:48Z</time></trkpt><trkpt lat="41.89949378649144" lon="19.671235732763307"><ele>48.0</ele><time>2026-04-29T16:14:49Z</time></trkpt><trkpt lat="41.89969832637472" lon="19.671259824461757"><ele>48.0</ele><time>2026-04-29T16:14:50Z</time></trkpt><trkpt lat="41.89989018402157" lon="19.67129303060139"><ele>48.0</ele><time>2026-04-29T16:14:51Z</time></trkpt><trkpt lat="41.90008183289225" lon="19.671326243144563"><ele>48.0</ele><time>2026-04-29T16:14:52Z</time></trkpt><trkpt lat="41.90027709872157" lon="19.671360219090367"><ele>48.33333333333333</ele><time>2026-04-29T16:14:53Z</time></trkpt><trkpt lat="41.900479188035284" lon="19.671385777252254"><ele>48.666666666666664</ele><time>2026-04-29T16:14:54Z</time></trkpt><trkpt lat="41.900679857433815" lon="19.67141488243484"><ele>49.0</ele><time>2026-04-29T16:14:55Z</time></trkpt><trkpt lat="41.900878534362995" lon="19.671449189161862"><ele>50.666666666666664</ele><time>2026-04-29T16:14:56Z</time></trkpt><trkpt lat="41.9010817619569" lon="19.67148045609844"><ele>52.33333333333333</ele><time>2026-04-29T16:14:57Z</time></trkpt><trkpt lat="41.90128034354524" lon="19.671521971993904"><ele>54.0</ele><time>2026-04-29T16:14:58Z</time></trkpt><trkpt lat="41.901481304096045" lon="19.671558281992734"><ele>54.0</ele><time>2026-04-29T16:14:59Z</time></trkpt><trkpt lat="41.901684134256534" lon="19.671595102607792"><ele>54.0</ele><time>2026-04-29T16:15:00Z</time></trkpt><trkpt lat="41.90188862339911" lon="19.67162754284215"><ele>54.0</ele><time>2026-04-29T16:15:01Z</time></trkpt><trkpt lat="41.90209459202839" lon="19.671661050472988"><ele>55.0</ele><time>2026-04-29T16:15:02Z</time></trkpt><trkpt lat="41.90229918661761" lon="19.671695032923886"><ele>56.0</ele><time>2026-04-29T16:15:03Z</time></trkpt><trkpt lat="41.90250320483474" lon="19.67172806726257"><ele>57.0</ele><time>2026-04-29T16:15:04Z</time></trkpt><trkpt lat="41.90270660447067" lon="19.67176109458457"><ele>57.33333333333333</ele><time>2026-04-29T16:15:05Z</time></trkpt><trkpt lat="41.902912520616006" lon="19.671794530515797"><ele>57.666666666666664</ele><time>2026-04-29T16:15:06Z</time></trkpt><trkpt lat="41.90311836579973" lon="19.671828047662608"><ele>58.0</ele><time>2026-04-29T16:15:07Z</time></trkpt><trkpt lat="41.90332389639967" lon="19.67186416822876"><ele>57.666666666666664</ele><time>2026-04-29T16:15:08Z</time></trkpt><trkpt lat="41.90352861239233" lon="19.67190470876434"><ele>57.33333333333333</ele><time>2026-04-29T16:15:09Z</time></trkpt><trkpt lat="41.90373606552009" lon="19.67194295684806"><ele>57.0</ele><time>2026-04-29T16:15:10Z</time></trkpt><trkpt lat="41.9039420335784" lon="19.671980759300684"><ele>58.66666666666667</ele><time>2026-04-29T16:15:11Z</time></trkpt><trkpt lat="41.904148058817626" lon="19.672019029324304"><ele>60.333333333333336</ele><time>2026-04-29T16:15:12Z</time></trkpt><trkpt lat="41.9043562424773" lon="19.672052271651946"><ele>62.0</ele><time>2026-04-29T16:15:13Z</time></trkpt><trkpt lat="41.90456445654148" lon="19.67208448675731"><ele>62.333333333333336</ele><time>2026-04-29T16:15:14Z</time></trkpt><trkpt lat="41.90476456648607" lon="19.672115447982495"><ele>62.66666666666667</ele><time>2026-04-29T16:15:15Z</time></trkpt><trkpt lat="41.90495616336168" lon="19.672145345742727"><ele>63.0</ele><time>2026-04-29T16:15:16Z</time></trkpt><trkpt lat="41.90514985809536" lon="19.67217646934054"><ele>64.33333333333333</ele><time>2026-04-29T16:15:17Z</time></trkpt><trkpt lat="41.90534211139977" lon="19.672207783545712"><ele>65.66666666666666</ele><time>2026-04-29T16:15:18Z</time></trkpt><trkpt lat="41.905528242891926" lon="19.672238756903088"><ele>67.0</ele><time>2026-04-29T16:15:19Z</time></trkpt><trkpt lat="41.905717078185255" lon="19.672270484509372"><ele>67.0</ele><time>2026-04-29T16:15:20Z</time></trkpt><trkpt lat="41.90591045235747" lon="19.672302974722864"><ele>67.0</ele><time>2026-04-29T16:15:21Z</time></trkpt><trkpt lat="41.90610599414288" lon="19.67233582913007"><ele>67.0</ele><time>2026-04-29T16:15:22Z</time></trkpt><trkpt lat="41.9062996359803" lon="19.6723683643142"><ele>67.33333333333333</ele><time>2026-04-29T16:15:23Z</time></trkpt><trkpt lat="41.90649381099068" lon="19.672401000814894"><ele>67.66666666666667</ele><time>2026-04-29T16:15:24Z</time></trkpt><trkpt lat="41.90669263456779" lon="19.672416589336695"><ele>68.0</ele><time>2026-04-29T16:15:25Z</time></trkpt><trkpt lat="41.906889653658645" lon="19.67245543016073"><ele>67.0</ele><time>2026-04-29T16:15:26Z</time></trkpt><trkpt lat="41.907086370620235" lon="19.672494417949558"><ele>66.0</ele><time>2026-04-29T16:15:27Z</time></trkpt><trkpt lat="41.90728428822862" lon="19.672531017311318"><ele>65.0</ele><time>2026-04-29T16:15:28Z</time></trkpt><trkpt lat="41.90747545970104" lon="19.672568057437392"><ele>66.66666666666667</ele><time>2026-04-29T16:15:29Z</time></trkpt><trkpt lat="41.90765666047704" lon="19.672600849526887"><ele>68.33333333333333</ele><time>2026-04-29T16:15:30Z</time></trkpt><trkpt lat="41.90784092642314" lon="19.6726366356613"><ele>70.0</ele><time>2026-04-29T16:15:31Z</time></trkpt><trkpt lat="41.90801888920448" lon="19.67266968874294"><ele>70.0</ele><time>2026-04-29T16:15:32Z</time></trkpt><trkpt lat="41.908196136103555" lon="19.6727018645227"><ele>70.0</ele><time>2026-04-29T16:15:33Z</time></trkpt><trkpt lat="41.908365773009606" lon="19.672732271005255"><ele>70.0</ele><time>2026-04-29T16:15:34Z</time></trkpt><trkpt lat="41.90852436033457" lon="19.672755794558775"><ele>69.5</ele><time>2026-04-29T16:15:35Z</time></trkpt><trkpt lat="41.90868214051739" lon="19.672770296766597"><ele>69.0</ele><time>2026-04-29T16:15:36Z</time></trkpt><trkpt lat="41.908829337213035" lon="19.67277197865661"><ele>68.5</ele><time>2026-04-29T16:15:37Z</time></trkpt><trkpt lat="41.90897320247324" lon="19.672772496437055"><ele>68.0</ele><time>2026-04-29T16:15:38Z</time></trkpt><trkpt lat="41.90911224629826" lon="19.672779415929604"><ele>67.33333333333334</ele><time>2026-04-29T16:15:39Z</time></trkpt><trkpt lat="41.909262409574644" lon="19.67271854070504"><ele>66.66666666666667</ele><time>2026-04-29T16:15:40Z</time></trkpt><trkpt lat="41.909400220603004" lon="19.672635603389395"><ele>66.0</ele><time>2026-04-29T16:15:41Z</time></trkpt><trkpt lat="41.90953485711335" lon="19.672520968841223"><ele>66.0</ele><time>2026-04-29T16:15:42Z</time></trkpt><trkpt lat="41.90966607730877" lon="19.672391363665767"><ele>66.0</ele><time>2026-04-29T16:15:43Z</time></trkpt><trkpt lat="41.90980093406205" lon="19.67225083536716"><ele>66.0</ele><time>2026-04-29T16:15:44Z</time></trkpt><trkpt lat="41.90994482861964" lon="19.672103496796186"><ele>66.66666666666667</ele><time>2026-04-29T16:15:45Z</time></trkpt><trkpt lat="41.91010688456698" lon="19.671951989064677"><ele>67.33333333333334</ele><time>2026-04-29T16:15:46Z</time></trkpt><trkpt lat="41.910275983912165" lon="19.67179443742795"><ele>68.0</ele><time>2026-04-29T16:15:47Z</time></trkpt><trkpt lat="41.910446937646654" lon="19.671637210192717"><ele>66.33333333333334</ele><time>2026-04-29T16:15:48Z</time></trkpt><trkpt lat="41.91059497407949" lon="19.67148367270059"><ele>64.66666666666667</ele><time>2026-04-29T16:15:49Z</time></trkpt><trkpt lat="41.910743594064975" lon="19.67134703626873"><ele>63.0</ele><time>2026-04-29T16:15:50Z</time></trkpt><trkpt lat="41.91088003753965" lon="19.67121169573825"><ele>63.75</ele><time>2026-04-29T16:15:51Z</time></trkpt><trkpt lat="41.91102121608042" lon="19.671099923342478"><ele>64.5</ele><time>2026-04-29T16:15:52Z</time></trkpt><trkpt lat="41.911128742630915" lon="19.670970470032174"><ele>65.25</ele><time>2026-04-29T16:15:53Z</time></trkpt><trkpt lat="41.91123558549537" lon="19.6708720503826"><ele>66.0</ele><time>2026-04-29T16:15:54Z</time></trkpt><trkpt lat="41.911335211456944" lon="19.67077406301239"><ele>66.0</ele><time>2026-04-29T16:15:55Z</time></trkpt><trkpt lat="41.91143410937831" lon="19.6706837284722"><ele>66.0</ele><time>2026-04-29T16:15:56Z</time></trkpt><trkpt lat="41.91153983867473" lon="19.67058594085471"><ele>66.0</ele><time>2026-04-29T16:15:57Z</time></trkpt><trkpt lat="41.91163874544392" lon="19.67049682725598"><ele>66.0</ele><time>2026-04-29T16:15:58Z</time></trkpt><trkpt lat="41.91172330168764" lon="19.6704123020018"><ele>67.0</ele><time>2026-04-29T16:15:59Z</time></trkpt><trkpt lat="41.911806970029176" lon="19.670323455884574"><ele>68.0</ele><time>2026-04-29T16:16:00Z</time></trkpt><trkpt lat="41.91190433993915" lon="19.670228365114326"><ele>69.0</ele><time>2026-04-29T16:16:01Z</time></trkpt><trkpt lat="41.91200951372754" lon="19.67012681129348"><ele>70.0</ele><time>2026-04-29T16:16:02Z</time></trkpt><trkpt lat="41.912124340119064" lon="19.670015907148564"><ele>70.0</ele><time>2026-04-29T16:16:03Z</time></trkpt><trkpt lat="41.91224487492162" lon="19.669900318776254"><ele>70.0</ele><time>2026-04-29T16:16:04Z</time></trkpt><trkpt lat="41.91237614567764" lon="19.66978043926686"><ele>70.0</ele><time>2026-04-29T16:16:05Z</time></trkpt><trkpt lat="41.91251155144875" lon="19.669657870729708"><ele>70.66666666666666</ele><time>2026-04-29T16:16:06Z</time></trkpt><trkpt lat="41.912657227600164" lon="19.66953678131496"><ele>71.33333333333333</ele><time>2026-04-29T16:16:07Z</time></trkpt><trkpt lat="41.91282306580416" lon="19.669467588185505"><ele>72.0</ele><time>2026-04-29T16:16:08Z</time></trkpt><trkpt lat="41.91299790915989" lon="19.669407520669164"><ele>71.66666666666667</ele><time>2026-04-29T16:16:09Z</time></trkpt><trkpt lat="41.91318750738592" lon="19.66936970069942"><ele>71.33333333333334</ele><time>2026-04-29T16:16:10Z</time></trkpt><trkpt lat="41.91338662097312" lon="19.669344986212714"><ele>71.0</ele><time>2026-04-29T16:16:11Z</time></trkpt><trkpt lat="41.913591288200244" lon="19.669303639065834"><ele>71.0</ele><time>2026-04-29T16:16:12Z</time></trkpt><trkpt lat="41.91380614156977" lon="19.6692850489443"><ele>71.0</ele><time>2026-04-29T16:16:13Z</time></trkpt><trkpt lat="41.9140042255094" lon="19.669262451164485"><ele>71.0</ele><time>2026-04-29T16:16:14Z</time></trkpt><trkpt lat="41.91419123694713" lon="19.6692459390523"><ele>71.33333333333334</ele><time>2026-04-29T16:16:15Z</time></trkpt><trkpt lat="41.914381297118794" lon="19.669233095488554"><ele>71.66666666666667</ele><time>2026-04-29T16:16:16Z</time></trkpt><trkpt lat="41.91457284232692" lon="19.669219848964307"><ele>72.0</ele><time>2026-04-29T16:16:17Z</time></trkpt><trkpt lat="41.914762924037625" lon="19.669209450533835"><ele>72.0</ele><time>2026-04-29T16:16:18Z</time></trkpt><trkpt lat="41.914957171407856" lon="19.669195069242072"><ele>72.0</ele><time>2026-04-29T16:16:19Z</time></trkpt><trkpt lat="41.915150208153875" lon="19.66918011135212"><ele>72.0</ele><time>2026-04-29T16:16:20Z</time></trkpt><trkpt lat="41.91533808616811" lon="19.669160077597702"><ele>72.0</ele><time>2026-04-29T16:16:21Z</time></trkpt><trkpt lat="41.91550954368189" lon="19.669135064702147"><ele>72.0</ele><time>2026-04-29T16:16:22Z</time></trkpt><trkpt lat="41.9156801570392" lon="19.66910201467876"><ele>72.0</ele><time>2026-04-29T16:16:23Z</time></trkpt><trkpt lat="41.915856865878276" lon="19.669065040930313"><ele>72.0</ele><time>2026-04-29T16:16:24Z</time></trkpt><trkpt lat="41.916031838642425" lon="19.669013368502743"><ele>72.0</ele><time>2026-04-29T16:16:25Z</time></trkpt><trkpt lat="41.916207263536265" lon="19.668942510841582"><ele>72.0</ele><time>2026-04-29T16:16:26Z</time></trkpt><trkpt lat="41.916381573929776" lon="19.66884409756949"><ele>72.0</ele><time>2026-04-29T16:16:27Z</time></trkpt><trkpt lat="41.916545511253766" lon="19.668722609784876"><ele>72.0</ele><time>2026-04-29T16:16:28Z</time></trkpt><trkpt lat="41.91669527383908" lon="19.668587012785796"><ele>72.0</ele><time>2026-04-29T16:16:29Z</time></trkpt><trkpt lat="41.91683855958495" lon="19.668439665908334"><ele>70.0</ele><time>2026-04-29T16:16:30Z</time></trkpt><trkpt lat="41.91697592364056" lon="19.66827014022143"><ele>68.0</ele><time>2026-04-29T16:16:31Z</time></trkpt><trkpt lat="41.91710966300764" lon="19.668081784957565"><ele>66.0</ele><time>2026-04-29T16:16:32Z</time></trkpt><trkpt lat="41.91724394952525" lon="19.66788373909643"><ele>66.0</ele><time>2026-04-29T16:16:33Z</time></trkpt><trkpt lat="41.91738532747491" lon="19.66768123943274"><ele>66.0</ele><time>2026-04-29T16:16:34Z</time></trkpt><trkpt lat="41.91752714581439" lon="19.667472733978308"><ele>66.0</ele><time>2026-04-29T16:16:35Z</time></trkpt><trkpt lat="41.91767158969068" lon="19.667254248885705"><ele>66.0</ele><time>2026-04-29T16:16:36Z</time></trkpt><trkpt lat="41.917812566806354" lon="19.66704095418264"><ele>66.0</ele><time>2026-04-29T16:16:37Z</time></trkpt><trkpt lat="41.91795114739081" lon="19.666839184651238"><ele>66.0</ele><time>2026-04-29T16:16:38Z</time></trkpt><trkpt lat="41.918075044270026" lon="19.666656600502396"><ele>66.0</ele><time>2026-04-29T16:16:39Z</time></trkpt><trkpt lat="41.91819797459312" lon="19.666483827317776"><ele>66.0</ele><time>2026-04-29T16:16:40Z</time></trkpt><trkpt lat="41.9183220831427" lon="19.666305160049713"><ele>66.0</ele><time>2026-04-29T16:16:41Z</time></trkpt><trkpt lat="41.918449284655686" lon="19.6661166101902"><ele>66.0</ele><time>2026-04-29T16:16:42Z</time></trkpt><trkpt lat="41.91857904802593" lon="19.665925045538902"><ele>66.0</ele><time>2026-04-29T16:16:43Z</time></trkpt><trkpt lat="41.9187116045797" lon="19.665730522250666"><ele>66.0</ele><time>2026-04-29T16:16:44Z</time></trkpt><trkpt lat="41.91885257417858" lon="19.665534023133908"><ele>66.0</ele><time>2026-04-29T16:16:45Z</time></trkpt><trkpt lat="41.918996620396584" lon="19.665341201481116"><ele>66.0</ele><time>2026-04-29T16:16:46Z</time></trkpt><trkpt lat="41.91914844354008" lon="19.665151002016515"><ele>66.0</ele><time>2026-04-29T16:16:47Z</time></trkpt><trkpt lat="41.919308615968056" lon="19.66496084723158"><ele>64.5</ele><time>2026-04-29T16:16:48Z</time></trkpt><trkpt lat="41.91947506119782" lon="19.66476571987135"><ele>63.0</ele><time>2026-04-29T16:16:49Z</time></trkpt><trkpt lat="41.919650790907035" lon="19.66456476244803"><ele>61.0</ele><time>2026-04-29T16:16:50Z</time></trkpt><trkpt lat="41.91983482018614" lon="19.66435905646582"><ele>59.0</ele><time>2026-04-29T16:16:51Z</time></trkpt><trkpt lat="41.92001177177612" lon="19.664162815011363"><ele>58.0</ele><time>2026-04-29T16:16:52Z</time></trkpt><trkpt lat="41.92017306897419" lon="19.663981908520796"><ele>57.0</ele><time>2026-04-29T16:16:53Z</time></trkpt><trkpt lat="41.92032389678204" lon="19.663809443918293"><ele>56.0</ele><time>2026-04-29T16:16:54Z</time></trkpt><trkpt lat="41.92046309189993" lon="19.663645020658695"><ele>56.333333333333336</ele><time>2026-04-29T16:16:55Z</time></trkpt><trkpt lat="41.92059517390535" lon="19.663488639745093"><ele>56.66666666666667</ele><time>2026-04-29T16:16:56Z</time></trkpt><trkpt lat="41.92072269541232" lon="19.663343657491083"><ele>57.0</ele><time>2026-04-29T16:16:57Z</time></trkpt><trkpt lat="41.920856765173774" lon="19.663202404227818"><ele>55.66666666666667</ele><time>2026-04-29T16:16:58Z</time></trkpt><trkpt lat="41.920989924523404" lon="19.66306360429674"><ele>54.333333333333336</ele><time>2026-04-29T16:16:59Z</time></trkpt><trkpt lat="41.92111069854155" lon="19.662932509555404"><ele>53.0</ele><time>2026-04-29T16:17:00Z</time></trkpt><trkpt lat="41.921231699917705" lon="19.662812110522076"><ele>52.75</ele><time>2026-04-29T16:17:01Z</time></trkpt><trkpt lat="41.92136849243524" lon="19.662745787880585"><ele>52.5</ele><time>2026-04-29T16:17:02Z</time></trkpt><trkpt lat="41.92148677665467" lon="19.662730886086653"><ele>52.25</ele><time>2026-04-29T16:17:03Z</time></trkpt><trkpt lat="41.9216040383844" lon="19.66274499208071"><ele>52.0</ele><time>2026-04-29T16:17:04Z</time></trkpt><trkpt lat="41.92174927571174" lon="19.662754462852597"><ele>53.33333333333333</ele><time>2026-04-29T16:17:05Z</time></trkpt><trkpt lat="41.92191292225001" lon="19.662804041127696"><ele>54.66666666666667</ele><time>2026-04-29T16:17:06Z</time></trkpt><trkpt lat="41.922082745691924" lon="19.66284212153934"><ele>56.0</ele><time>2026-04-29T16:17:07Z</time></trkpt><trkpt lat="41.92223162574314" lon="19.66286970354305"><ele>56.0</ele><time>2026-04-29T16:17:08Z</time></trkpt><trkpt lat="41.922368307761595" lon="19.662876721284633"><ele>56.0</ele><time>2026-04-29T16:17:09Z</time></trkpt><trkpt lat="41.92249372316638" lon="19.662859330413927"><ele>56.0</ele><time>2026-04-29T16:17:10Z</time></trkpt><trkpt lat="41.92261689166879" lon="19.662813089263814"><ele>56.0</ele><time>2026-04-29T16:17:11Z</time></trkpt><trkpt lat="41.92274444580188" lon="19.66272491087967"><ele>53.333333333333336</ele><time>2026-04-29T16:17:12Z</time></trkpt><trkpt lat="41.92287397679792" lon="19.66260280499971"><ele>50.66666666666667</ele><time>2026-04-29T16:17:13Z</time></trkpt><trkpt lat="41.92300521055345" lon="19.66245729699484"><ele>48.0</ele><time>2026-04-29T16:17:14Z</time></trkpt><trkpt lat="41.92314246046958" lon="19.662302275938877"><ele>48.0</ele><time>2026-04-29T16:17:15Z</time></trkpt><trkpt lat="41.92328650204799" lon="19.662145728684447"><ele>48.0</ele><time>2026-04-29T16:17:16Z</time></trkpt><trkpt lat="41.92343401409224" lon="19.66198196009808"><ele>48.0</ele><time>2026-04-29T16:17:17Z</time></trkpt><trkpt lat="41.923582851117395" lon="19.661815059570497"><ele>49.33333333333333</ele><time>2026-04-29T16:17:18Z</time></trkpt><trkpt lat="41.92372146947546" lon="19.661659568130233"><ele>50.666666666666664</ele><time>2026-04-29T16:17:19Z</time></trkpt><trkpt lat="41.92386749199134" lon="19.661508151257703"><ele>52.0</ele><time>2026-04-29T16:17:20Z</time></trkpt><trkpt lat="41.924013861346744" lon="19.661350365258144"><ele>52.0</ele><time>2026-04-29T16:17:21Z</time></trkpt><trkpt lat="41.924163805671945" lon="19.661189183669777"><ele>52.0</ele><time>2026-04-29T16:17:22Z</time></trkpt><trkpt lat="41.92431239150986" lon="19.66102202656843"><ele>52.0</ele><time>2026-04-29T16:17:23Z</time></trkpt><trkpt lat="41.92445281014797" lon="19.660867659646314"><ele>52.666666666666664</ele><time>2026-04-29T16:17:24Z</time></trkpt><trkpt lat="41.924591638931744" lon="19.660717310220058"><ele>53.33333333333333</ele><time>2026-04-29T16:17:25Z</time></trkpt><trkpt lat="41.924729440739185" lon="19.66056621976468"><ele>54.0</ele><time>2026-04-29T16:17:26Z</time></trkpt><trkpt lat="41.924863039940455" lon="19.660421003085943"><ele>53.33333333333333</ele><time>2026-04-29T16:17:27Z</time></trkpt><trkpt lat="41.92500473472872" lon="19.660269986262545"><ele>52.666666666666664</ele><time>2026-04-29T16:17:28Z</time></trkpt><trkpt lat="41.92515436216958" lon="19.660109417441415"><ele>52.0</ele><time>2026-04-29T16:17:29Z</time></trkpt><trkpt lat="41.92530704840766" lon="19.659936449431893"><ele>52.0</ele><time>2026-04-29T16:17:30Z</time></trkpt><trkpt lat="41.92546364797648" lon="19.659757736505423"><ele>52.0</ele><time>2026-04-29T16:17:31Z</time></trkpt><trkpt lat="41.92561619838623" lon="19.659589586491585"><ele>52.0</ele><time>2026-04-29T16:17:32Z</time></trkpt><trkpt lat="41.92575454912275" lon="19.659442501021182"><ele>52.0</ele><time>2026-04-29T16:17:33Z</time></trkpt><trkpt lat="41.92589095152578" lon="19.65929889589772"><ele>52.0</ele><time>2026-04-29T16:17:34Z</time></trkpt><trkpt lat="41.926051245966306" lon="19.659125597216875"><ele>52.0</ele><time>2026-04-29T16:17:35Z</time></trkpt><trkpt lat="41.926239218193054" lon="19.658918582104544"><ele>53.0</ele><time>2026-04-29T16:17:36Z</time></trkpt><trkpt lat="41.926432823362475" lon="19.658703910702208"><ele>54.0</ele><time>2026-04-29T16:17:37Z</time></trkpt><trkpt lat="41.92659624138349" lon="19.65852481934567"><ele>54.66666666666667</ele><time>2026-04-29T16:17:38Z</time></trkpt><trkpt lat="41.926741572950974" lon="19.658365015690542"><ele>55.333333333333336</ele><time>2026-04-29T16:17:39Z</time></trkpt><trkpt lat="41.92688964617871" lon="19.65820700581242"><ele>56.0</ele><time>2026-04-29T16:17:40Z</time></trkpt><trkpt lat="41.927042106786345" lon="19.658053331830864"><ele>56.0</ele><time>2026-04-29T16:17:41Z</time></trkpt><trkpt lat="41.9271939623892" lon="19.657893902559596"><ele>56.0</ele><time>2026-04-29T16:17:42Z</time></trkpt><trkpt lat="41.92732630767963" lon="19.657746220687702"><ele>56.0</ele><time>2026-04-29T16:17:43Z</time></trkpt><trkpt lat="41.92744520430621" lon="19.65761380970011"><ele>55.5</ele><time>2026-04-29T16:17:44Z</time></trkpt><trkpt lat="41.92753180682938" lon="19.65751499116737"><ele>55.0</ele><time>2026-04-29T16:17:45Z</time></trkpt><trkpt lat="41.927606234600056" lon="19.65740519232552"><ele>54.5</ele><time>2026-04-29T16:17:46Z</time></trkpt><trkpt lat="41.92771337056174" lon="19.6572450746605"><ele>54.0</ele><time>2026-04-29T16:17:47Z</time></trkpt><trkpt lat="41.927872480382035" lon="19.65701243951732"><ele>56.0</ele><time>2026-04-29T16:17:48Z</time></trkpt><trkpt lat="41.92802777030981" lon="19.65677911934174"><ele>58.0</ele><time>2026-04-29T16:17:49Z</time></trkpt><trkpt lat="41.928147503321135" lon="19.656630719598624"><ele>60.0</ele><time>2026-04-29T16:17:50Z</time></trkpt><trkpt lat="41.928291664525965" lon="19.656480544704685"><ele>58.33333333333333</ele><time>2026-04-29T16:17:51Z</time></trkpt><trkpt lat="41.92845944881689" lon="19.656336979885936"><ele>56.666666666666664</ele><time>2026-04-29T16:17:52Z</time></trkpt><trkpt lat="41.92860925719264" lon="19.656218835823168"><ele>55.0</ele><time>2026-04-29T16:17:53Z</time></trkpt><trkpt lat="41.92875259945898" lon="19.656118080281058"><ele>55.0</ele><time>2026-04-29T16:17:54Z</time></trkpt><trkpt lat="41.92889954144479" lon="19.65603844726667"><ele>55.0</ele><time>2026-04-29T16:17:55Z</time></trkpt><trkpt lat="41.92902328147964" lon="19.6559840859256"><ele>55.0</ele><time>2026-04-29T16:17:56Z</time></trkpt><trkpt lat="41.92912106400652" lon="19.65594401275048"><ele>55.0</ele><time>2026-04-29T16:17:57Z</time></trkpt><trkpt lat="41.92918710836308" lon="19.655805761273193"><ele>57.0</ele><time>2026-04-29T16:17:58Z</time></trkpt><trkpt lat="41.92924569663066" lon="19.655646284278234"><ele>59.0</ele><time>2026-04-29T16:17:59Z</time></trkpt><trkpt lat="41.92928876839324" lon="19.655454819001964"><ele>61.0</ele><time>2026-04-29T16:18:00Z</time></trkpt><trkpt lat="41.92931717589815" lon="19.655256162619764"><ele>63.0</ele><time>2026-04-29T16:18:01Z</time></trkpt><trkpt lat="41.9293408257513" lon="19.655044668259322"><ele>63.0</ele><time>2026-04-29T16:18:02Z</time></trkpt><trkpt lat="41.92936484176152" lon="19.65481454658557"><ele>63.0</ele><time>2026-04-29T16:18:03Z</time></trkpt><trkpt lat="41.929390246316736" lon="19.654581237066484"><ele>63.0</ele><time>2026-04-29T16:18:04Z</time></trkpt><trkpt lat="41.929420989834625" lon="19.65434185805737"><ele>60.0</ele><time>2026-04-29T16:18:05Z</time></trkpt><trkpt lat="41.92945570142688" lon="19.654094947840253"><ele>57.0</ele><time>2026-04-29T16:18:06Z</time></trkpt><trkpt lat="41.929492475525045" lon="19.653836671197528"><ele>54.0</ele><time>2026-04-29T16:18:07Z</time></trkpt><trkpt lat="41.92952376537465" lon="19.653599982941838"><ele>52.5</ele><time>2026-04-29T16:18:08Z</time></trkpt><trkpt lat="41.92954717854978" lon="19.653378741619566"><ele>51.0</ele><time>2026-04-29T16:18:09Z</time></trkpt><trkpt lat="41.929583695214085" lon="19.653187975659776"><ele>49.5</ele><time>2026-04-29T16:18:10Z</time></trkpt><trkpt lat="41.92961281990728" lon="19.653029882701126"><ele>48.0</ele><time>2026-04-29T16:18:11Z</time></trkpt><trkpt lat="41.92966208818944" lon="19.652900633233443"><ele>47.5</ele><time>2026-04-29T16:18:12Z</time></trkpt><trkpt lat="41.92972558522015" lon="19.6527868172031"><ele>47.0</ele><time>2026-04-29T16:18:13Z</time></trkpt><trkpt lat="41.929811516401976" lon="19.652682500304593"><ele>46.5</ele><time>2026-04-29T16:18:14Z</time></trkpt><trkpt lat="41.92990837299219" lon="19.65257881126565"><ele>46.0</ele><time>2026-04-29T16:18:15Z</time></trkpt><trkpt lat="41.930009119122644" lon="19.652472595053062"><ele>48.5</ele><time>2026-04-29T16:18:16Z</time></trkpt><trkpt lat="41.93011155717102" lon="19.65235921994641"><ele>51.0</ele><time>2026-04-29T16:18:17Z</time></trkpt><trkpt lat="41.93019744072381" lon="19.652254613980723"><ele>53.5</ele><time>2026-04-29T16:18:18Z</time></trkpt><trkpt lat="41.93027344505294" lon="19.652149846590547"><ele>56.0</ele><time>2026-04-29T16:18:19Z</time></trkpt><trkpt lat="41.93033775088976" lon="19.652042570628133"><ele>56.8</ele><time>2026-04-29T16:18:20Z</time></trkpt><trkpt lat="41.930391876215104" lon="19.65192555491079"><ele>57.599999999999994</ele><time>2026-04-29T16:18:21Z</time></trkpt><trkpt lat="41.93043322282357" lon="19.651818806049448"><ele>58.4</ele><time>2026-04-29T16:18:22Z</time></trkpt><trkpt lat="41.93046453218662" lon="19.651731903228338"><ele>59.2</ele><time>2026-04-29T16:18:23Z</time></trkpt><trkpt lat="41.93050892061062" lon="19.6516539822639"><ele>60.0</ele><time>2026-04-29T16:18:25Z</time></trkpt><trkpt lat="41.93041398236955" lon="19.651498763026293"><ele>60.0</ele><time>2026-04-29T16:18:28Z</time></trkpt><trkpt lat="41.930354128407345" lon="19.65136877563726"><ele>60.0</ele><time>2026-04-29T16:18:30Z</time></trkpt><trkpt lat="41.93032784859263" lon="19.6512624073403"><ele>60.0</ele><time>2026-04-29T16:18:31Z</time></trkpt><trkpt lat="41.930298861156615" lon="19.65114015396705"><ele>60.0</ele><time>2026-04-29T16:18:32Z</time></trkpt><trkpt lat="41.93026435565875" lon="19.65100891271737"><ele>60.0</ele><time>2026-04-29T16:18:33Z</time></trkpt><trkpt lat="41.930226738685306" lon="19.65086249015761"><ele>59.5</ele><time>2026-04-29T16:18:34Z</time></trkpt><trkpt lat="41.93018857438452" lon="19.650705661621874"><ele>59.0</ele><time>2026-04-29T16:18:35Z</time></trkpt><trkpt lat="41.93014889581959" lon="19.6505394830553"><ele>58.5</ele><time>2026-04-29T16:18:36Z</time></trkpt><trkpt lat="41.930122557162875" lon="19.650402366970045"><ele>58.0</ele><time>2026-04-29T16:18:37Z</time></trkpt><trkpt lat="41.93011552914568" lon="19.650264009323777"><ele>57.8</ele><time>2026-04-29T16:18:38Z</time></trkpt><trkpt lat="41.93009610757374" lon="19.65013612269056"><ele>57.599999999999994</ele><time>2026-04-29T16:18:39Z</time></trkpt><trkpt lat="41.930134193875155" lon="19.65000993796923"><ele>57.400000000000006</ele><time>2026-04-29T16:18:40Z</time></trkpt><trkpt lat="41.930192549125536" lon="19.649869699083915"><ele>57.2</ele><time>2026-04-29T16:18:41Z</time></trkpt><trkpt lat="41.930260545661525" lon="19.649733899973835"><ele>57.0</ele><time>2026-04-29T16:18:42Z</time></trkpt><trkpt lat="41.93021246724937" lon="19.649602370978066"><ele>57.0</ele><time>2026-04-29T16:18:43Z</time></trkpt><trkpt lat="41.93021180288799" lon="19.64946644554529"><ele>57.0</ele><time>2026-04-29T16:18:44Z</time></trkpt><trkpt lat="41.93018826755245" lon="19.649314788694415"><ele>57.0</ele><time>2026-04-29T16:18:45Z</time></trkpt><trkpt lat="41.93014607459923" lon="19.649152603613587"><ele>57.0</ele><time>2026-04-29T16:18:46Z</time></trkpt><trkpt lat="41.9301069241585" lon="19.648973790654363"><ele>55.75</ele><time>2026-04-29T16:18:47Z</time></trkpt><trkpt lat="41.930067048289345" lon="19.648788334336828"><ele>54.5</ele><time>2026-04-29T16:18:48Z</time></trkpt><trkpt lat="41.93002822226608" lon="19.648586998869845"><ele>53.25</ele><time>2026-04-29T16:18:49Z</time></trkpt><trkpt lat="41.929993079701866" lon="19.648418667564037"><ele>52.0</ele><time>2026-04-29T16:18:50Z</time></trkpt><trkpt lat="41.92998650008134" lon="19.64824993482058"><ele>49.25</ele><time>2026-04-29T16:18:51Z</time></trkpt><trkpt lat="41.92997853251765" lon="19.648082326258145"><ele>46.5</ele><time>2026-04-29T16:18:52Z</time></trkpt><trkpt lat="41.929981708440366" lon="19.647906618364846"><ele>43.75</ele><time>2026-04-29T16:18:53Z</time></trkpt><trkpt lat="41.93000789435209" lon="19.64774836958344"><ele>41.0</ele><time>2026-04-29T16:18:54Z</time></trkpt><trkpt lat="41.930022843786816" lon="19.647582424099124"><ele>40.8</ele><time>2026-04-29T16:18:55Z</time></trkpt><trkpt lat="41.93011432913302" lon="19.64747191293481"><ele>40.599999999999994</ele><time>2026-04-29T16:18:56Z</time></trkpt><trkpt lat="41.930186646920944" lon="19.64737707383529"><ele>40.4</ele><time>2026-04-29T16:18:57Z</time></trkpt><trkpt lat="41.93027303229238" lon="19.64727652667165"><ele>40.2</ele><time>2026-04-29T16:18:58Z</time></trkpt><trkpt lat="41.93036481114498" lon="19.64725434764204"><ele>40.0</ele><time>2026-04-29T16:18:59Z</time></trkpt><trkpt lat="41.930451969190614" lon="19.647239718410738"><ele>40.0</ele><time>2026-04-29T16:19:00Z</time></trkpt><trkpt lat="41.9305546453157" lon="19.647209030538047"><ele>40.0</ele><time>2026-04-29T16:19:01Z</time></trkpt><trkpt lat="41.93067677207606" lon="19.647205493734827"><ele>40.0</ele><time>2026-04-29T16:19:02Z</time></trkpt><trkpt lat="41.930808363046815" lon="19.647223706180423"><ele>40.0</ele><time>2026-04-29T16:19:03Z</time></trkpt><trkpt lat="41.93094654583891" lon="19.647262565470694"><ele>38.6</ele><time>2026-04-29T16:19:04Z</time></trkpt><trkpt lat="41.93106588374892" lon="19.647302067909404"><ele>37.2</ele><time>2026-04-29T16:19:05Z</time></trkpt><trkpt lat="41.931166178832186" lon="19.647349685125956"><ele>35.8</ele><time>2026-04-29T16:19:06Z</time></trkpt><trkpt lat="41.93125883599283" lon="19.647416487659793"><ele>34.4</ele><time>2026-04-29T16:19:07Z</time></trkpt><trkpt lat="41.931341783512416" lon="19.64749189603196"><ele>33.0</ele><time>2026-04-29T16:19:08Z</time></trkpt><trkpt lat="41.9314165288923" lon="19.647558015074683"><ele>33.0</ele><time>2026-04-29T16:19:09Z</time></trkpt><trkpt lat="41.93149245236574" lon="19.64755640502783"><ele>33.0</ele><time>2026-04-29T16:19:10Z</time></trkpt><trkpt lat="41.93157043519795" lon="19.647486617618313"><ele>33.0</ele><time>2026-04-29T16:19:11Z</time></trkpt><trkpt lat="41.9316674659807" lon="19.64739252706173"><ele>33.0</ele><time>2026-04-29T16:19:12Z</time></trkpt><trkpt lat="41.93178888630332" lon="19.647291443799578"><ele>33.0</ele><time>2026-04-29T16:19:13Z</time></trkpt><trkpt lat="41.93192728282991" lon="19.647227049418454"><ele>33.25</ele><time>2026-04-29T16:19:14Z</time></trkpt><trkpt lat="41.93203438930991" lon="19.647155029593034"><ele>33.5</ele><time>2026-04-29T16:19:15Z</time></trkpt><trkpt lat="41.93213706879748" lon="19.64717262783241"><ele>33.75</ele><time>2026-04-29T16:19:16Z</time></trkpt><trkpt lat="41.93222587026557" lon="19.647078268015218"><ele>34.0</ele><time>2026-04-29T16:19:17Z</time></trkpt><trkpt lat="41.93230904734311" lon="19.646964979059614"><ele>34.0</ele><time>2026-04-29T16:19:18Z</time></trkpt><trkpt lat="41.932369181375655" lon="19.64683781366111"><ele>34.0</ele><time>2026-04-29T16:19:19Z</time></trkpt><trkpt lat="41.93244192291248" lon="19.646700584739815"><ele>34.0</ele><time>2026-04-29T16:19:20Z</time></trkpt><trkpt lat="41.932523028544914" lon="19.646591164293962"><ele>34.0</ele><time>2026-04-29T16:19:21Z</time></trkpt><trkpt lat="41.932625709889045" lon="19.64654931229609"><ele>34.0</ele><time>2026-04-29T16:19:22Z</time></trkpt><trkpt lat="41.932715319124746" lon="19.64650375027664"><ele>34.0</ele><time>2026-04-29T16:19:23Z</time></trkpt><trkpt lat="41.9327993736756" lon="19.646461873249983"><ele>34.0</ele><time>2026-04-29T16:19:24Z</time></trkpt><trkpt lat="41.93287184581118" lon="19.646369767647528"><ele>34.0</ele><time>2026-04-29T16:19:26Z</time></trkpt><trkpt lat="41.93280473149653" lon="19.64604735337613"><ele>33.0</ele><time>2026-04-29T16:19:30Z</time></trkpt><trkpt lat="41.93274139577854" lon="19.64587847517998"><ele>32.0</ele><time>2026-04-29T16:19:31Z</time></trkpt><trkpt lat="41.932661939718045" lon="19.645664942578648"><ele>31.0</ele><time>2026-04-29T16:19:32Z</time></trkpt><trkpt lat="41.93256981987675" lon="19.64541212883543"><ele>30.0</ele><time>2026-04-29T16:19:33Z</time></trkpt><trkpt lat="41.932462860038804" lon="19.64516703120354"><ele>29.0</ele><time>2026-04-29T16:19:34Z</time></trkpt><trkpt lat="41.93242093953381" lon="19.64496203179523"><ele>28.0</ele><time>2026-04-29T16:19:35Z</time></trkpt><trkpt lat="41.93237404429468" lon="19.644767706374203"><ele>28.0</ele><time>2026-04-29T16:19:36Z</time></trkpt><trkpt lat="41.932327879283235" lon="19.644576406442564"><ele>28.0</ele><time>2026-04-29T16:19:37Z</time></trkpt><trkpt lat="41.9322859504506" lon="19.644402661704145"><ele>28.0</ele><time>2026-04-29T16:19:38Z</time></trkpt><trkpt lat="41.932244848323045" lon="19.644232338122894"><ele>28.0</ele><time>2026-04-29T16:19:39Z</time></trkpt><trkpt lat="41.93221763643109" lon="19.644045192360593"><ele>27.75</ele><time>2026-04-29T16:19:40Z</time></trkpt><trkpt lat="41.932209565861875" lon="19.643880210943372"><ele>27.5</ele><time>2026-04-29T16:19:41Z</time></trkpt><trkpt lat="41.9322112557914" lon="19.643713483082593"><ele>27.25</ele><time>2026-04-29T16:19:42Z</time></trkpt><trkpt lat="41.93216810790363" lon="19.64352824132257"><ele>27.0</ele><time>2026-04-29T16:19:43Z</time></trkpt><trkpt lat="41.93211793664012" lon="19.64334809618536"><ele>26.0</ele><time>2026-04-29T16:19:44Z</time></trkpt><trkpt lat="41.93206384191553" lon="19.64315386231224"><ele>25.0</ele><time>2026-04-29T16:19:45Z</time></trkpt><trkpt lat="41.93196725589974" lon="19.64295971069441"><ele>24.0</ele><time>2026-04-29T16:19:46Z</time></trkpt><trkpt lat="41.93186998152715" lon="19.642763071523284"><ele>23.0</ele><time>2026-04-29T16:19:47Z</time></trkpt><trkpt lat="41.93184434078236" lon="19.642538649091644"><ele>22.0</ele><time>2026-04-29T16:19:48Z</time></trkpt><trkpt lat="41.93178851109464" lon="19.64229874636731"><ele>21.0</ele><time>2026-04-29T16:19:49Z</time></trkpt><trkpt lat="41.931730779246315" lon="19.642050668026915"><ele>21.0</ele><time>2026-04-29T16:19:50Z</time></trkpt><trkpt lat="41.93168045072641" lon="19.641832881315544"><ele>21.0</ele><time>2026-04-29T16:19:51Z</time></trkpt><trkpt lat="41.931634817927495" lon="19.641638515837183"><ele>21.0</ele><time>2026-04-29T16:19:52Z</time></trkpt><trkpt lat="41.93159078098216" lon="19.641450529508553"><ele>21.0</ele><time>2026-04-29T16:19:53Z</time></trkpt><trkpt lat="41.93154353625659" lon="19.641247026129754"><ele>21.0</ele><time>2026-04-29T16:19:54Z</time></trkpt><trkpt lat="41.93149358704766" lon="19.641032156024327"><ele>21.0</ele><time>2026-04-29T16:19:55Z</time></trkpt><trkpt lat="41.93144443539793" lon="19.640821303618743"><ele>21.0</ele><time>2026-04-29T16:19:56Z</time></trkpt><trkpt lat="41.93139484468499" lon="19.640608678864044"><ele>21.0</ele><time>2026-04-29T16:19:57Z</time></trkpt><trkpt lat="41.93134588357656" lon="19.640401908851405"><ele>21.0</ele><time>2026-04-29T16:19:58Z</time></trkpt><trkpt lat="41.931302732089115" lon="19.640214993532222"><ele>20.8</ele><time>2026-04-29T16:19:59Z</time></trkpt><trkpt lat="41.9312647605722" lon="19.64005082538334"><ele>20.6</ele><time>2026-04-29T16:20:00Z</time></trkpt><trkpt lat="41.9312335923322" lon="19.639918055447943"><ele>20.4</ele><time>2026-04-29T16:20:01Z</time></trkpt><trkpt lat="41.931209487908134" lon="19.63981909409293"><ele>20.2</ele><time>2026-04-29T16:20:02Z</time></trkpt><trkpt lat="41.93118599364493" lon="19.639725656897948"><ele>20.0</ele><time>2026-04-29T16:20:04Z</time></trkpt><trkpt lat="41.93116447271437" lon="19.63963673222023"><ele>20.0</ele><time>2026-04-29T16:20:17Z</time></trkpt><trkpt lat="41.931212832676856" lon="19.639563805187432"><ele>20.0</ele><time>2026-04-29T16:20:19Z</time></trkpt><trkpt lat="41.93134137693178" lon="19.63952147302061"><ele>20.0</ele><time>2026-04-29T16:20:21Z</time></trkpt><trkpt lat="41.93142305708664" lon="19.639499860558626"><ele>20.0</ele><time>2026-04-29T16:20:22Z</time></trkpt><trkpt lat="41.931506739852786" lon="19.63947302228023"><ele>20.0</ele><time>2026-04-29T16:20:23Z</time></trkpt><trkpt lat="41.931577769670504" lon="19.639449780531834"><ele>20.0</ele><time>2026-04-29T16:20:24Z</time></trkpt><trkpt lat="41.93166386269269" lon="19.639417023855263"><ele>19.666666666666668</ele><time>2026-04-29T16:20:26Z</time></trkpt><trkpt lat="41.931772940124254" lon="19.639373538551734"><ele>19.333333333333336</ele><time>2026-04-29T16:20:28Z</time></trkpt><trkpt lat="41.93184893745008" lon="19.639339760541727"><ele>19.0</ele><time>2026-04-29T16:20:29Z</time></trkpt><trkpt lat="41.93193350785399" lon="19.639302055059257"><ele>18.666666666666668</ele><time>2026-04-29T16:20:30Z</time></trkpt><trkpt lat="41.931994556473036" lon="19.63927826235126"><ele>18.333333333333332</ele><time>2026-04-29T16:20:31Z</time></trkpt><trkpt lat="41.93207785983429" lon="19.639262646827625"><ele>18.0</ele><time>2026-04-29T16:20:33Z</time></trkpt><trkpt lat="41.932214089546335" lon="19.63922428691363"><ele>18.0</ele><time>2026-04-29T16:20:35Z</time></trkpt><trkpt lat="41.93230385495257" lon="19.639199904309084"><ele>18.0</ele><time>2026-04-29T16:20:36Z</time></trkpt><trkpt lat="41.93239575954042" lon="19.63917633130242"><ele>18.0</ele><time>2026-04-29T16:20:37Z</time></trkpt><trkpt lat="41.932484800479024" lon="19.639141310022584"><ele>18.0</ele><time>2026-04-29T16:20:38Z</time></trkpt><trkpt lat="41.9325754680078" lon="19.639108181632192"><ele>18.0</ele><time>2026-04-29T16:20:39Z</time></trkpt><trkpt lat="41.93267453110394" lon="19.639074822116992"><ele>18.2</ele><time>2026-04-29T16:20:40Z</time></trkpt><trkpt lat="41.93277836229838" lon="19.63903506862"><ele>18.4</ele><time>2026-04-29T16:20:41Z</time></trkpt><trkpt lat="41.93288102143054" lon="19.638993038656558"><ele>18.599999999999998</ele><time>2026-04-29T16:20:42Z</time></trkpt><trkpt lat="41.932985153112206" lon="19.638958881452698"><ele>18.8</ele><time>2026-04-29T16:20:43Z</time></trkpt><trkpt lat="41.93308904088372" lon="19.6389307802754"><ele>19.0</ele><time>2026-04-29T16:20:44Z</time></trkpt><trkpt lat="41.933178637424206" lon="19.638904454491097"><ele>19.0</ele><time>2026-04-29T16:20:45Z</time></trkpt><trkpt lat="41.93325045637139" lon="19.63887869049732"><ele>19.0</ele><time>2026-04-29T16:20:46Z</time></trkpt><trkpt lat="41.933313130547575" lon="19.638864026244303"><ele>19.0</ele><time>2026-04-29T16:20:47Z</time></trkpt><trkpt lat="41.93339750027423" lon="19.63884379573615"><ele>19.0</ele><time>2026-04-29T16:20:48Z</time></trkpt><trkpt lat="41.93348980721068" lon="19.638818801916067"><ele>19.0</ele><time>2026-04-29T16:20:49Z</time></trkpt><trkpt lat="41.93358020355736" lon="19.638769558548"><ele>19.0</ele><time>2026-04-29T16:20:50Z</time></trkpt><trkpt lat="41.93366803115341" lon="19.638725034382695"><ele>19.4</ele><time>2026-04-29T16:20:51Z</time></trkpt><trkpt lat="41.93376774714037" lon="19.63869095984132"><ele>19.799999999999997</ele><time>2026-04-29T16:20:52Z</time></trkpt><trkpt lat="41.93386939870185" lon="19.638660453204903"><ele>20.200000000000003</ele><time>2026-04-29T16:20:53Z</time></trkpt><trkpt lat="41.93397247062844" lon="19.638630190744436"><ele>20.6</ele><time>2026-04-29T16:20:54Z</time></trkpt><trkpt lat="41.934046889241586" lon="19.63860569226136"><ele>21.0</ele><time>2026-04-29T16:20:55Z</time></trkpt><trkpt lat="41.93414913194493" lon="19.63857174357876"><ele>20.6</ele><time>2026-04-29T16:20:57Z</time></trkpt><trkpt lat="41.93422927759854" lon="19.638538201656885"><ele>20.200000000000003</ele><time>2026-04-29T16:20:58Z</time></trkpt><trkpt lat="41.93432245153015" lon="19.638503719872485"><ele>19.799999999999997</ele><time>2026-04-29T16:20:59Z</time></trkpt><trkpt lat="41.93442469366251" lon="19.63846908215651"><ele>19.4</ele><time>2026-04-29T16:21:00Z</time></trkpt><trkpt lat="41.93452140511302" lon="19.638436877392056"><ele>19.0</ele><time>2026-04-29T16:21:01Z</time></trkpt><trkpt lat="41.93460557378768" lon="19.63841500070813"><ele>19.0</ele><time>2026-04-29T16:21:02Z</time></trkpt><trkpt lat="41.93467705658132" lon="19.63839344200858"><ele>19.0</ele><time>2026-04-29T16:21:03Z</time></trkpt><trkpt lat="41.93475035376174" lon="19.63837299057561"><ele>19.0</ele><time>2026-04-29T16:21:04Z</time></trkpt><trkpt lat="41.934816859452376" lon="19.63836877744496"><ele>19.0</ele><time>2026-04-29T16:21:05Z</time></trkpt><trkpt lat="41.93488456912852" lon="19.638344207626407"><ele>19.0</ele><time>2026-04-29T16:21:06Z</time></trkpt><trkpt lat="41.934965061370264" lon="19.638292951423892"><ele>19.0</ele><time>2026-04-29T16:21:07Z</time></trkpt><trkpt lat="41.93505435328026" lon="19.638255628202067"><ele>19.833333333333332</ele><time>2026-04-29T16:21:08Z</time></trkpt><trkpt lat="41.935141430237174" lon="19.638225903045434"><ele>20.666666666666664</ele><time>2026-04-29T16:21:09Z</time></trkpt><trkpt lat="41.93522000803145" lon="19.638200751140648"><ele>21.5</ele><time>2026-04-29T16:21:10Z</time></trkpt><trkpt lat="41.935297570220506" lon="19.63817606287042"><ele>22.333333333333332</ele><time>2026-04-29T16:21:11Z</time></trkpt><trkpt lat="41.93538054643148" lon="19.638149589933867"><ele>23.166666666666668</ele><time>2026-04-29T16:21:12Z</time></trkpt><trkpt lat="41.93545749655906" lon="19.6381274515183"><ele>24.0</ele><time>2026-04-29T16:21:13Z</time></trkpt><trkpt lat="41.93553610943159" lon="19.638103790199757"><ele>24.0</ele><time>2026-04-29T16:21:14Z</time></trkpt><trkpt lat="41.93560040659477" lon="19.638090387234005"><ele>24.0</ele><time>2026-04-29T16:21:15Z</time></trkpt><trkpt lat="41.93570898535924" lon="19.638068708339745"><ele>24.0</ele><time>2026-04-29T16:21:17Z</time></trkpt><trkpt lat="41.93578305219456" lon="19.638024387087757"><ele>24.0</ele><time>2026-04-29T16:21:18Z</time></trkpt><trkpt lat="41.93587664388506" lon="19.637990336753308"><ele>24.0</ele><time>2026-04-29T16:21:19Z</time></trkpt><trkpt lat="41.935957653476635" lon="19.63796973988184"><ele>24.0</ele><time>2026-04-29T16:21:20Z</time></trkpt><trkpt lat="41.93603519472011" lon="19.637960502451914"><ele>24.0</ele><time>2026-04-29T16:21:21Z</time></trkpt><trkpt lat="41.93612254053391" lon="19.63793185867836"><ele>24.0</ele><time>2026-04-29T16:21:22Z</time></trkpt><trkpt lat="41.936209313121864" lon="19.637890396603645"><ele>24.0</ele><time>2026-04-29T16:21:23Z</time></trkpt><trkpt lat="41.93629384108372" lon="19.63784136829448"><ele>24.0</ele><time>2026-04-29T16:21:24Z</time></trkpt><trkpt lat="41.936388685360164" lon="19.63780208408426"><ele>24.0</ele><time>2026-04-29T16:21:25Z</time></trkpt><trkpt lat="41.93648762225706" lon="19.637769157492286"><ele>24.0</ele><time>2026-04-29T16:21:26Z</time></trkpt><trkpt lat="41.93659284523434" lon="19.63773892290925"><ele>24.0</ele><time>2026-04-29T16:21:27Z</time></trkpt><trkpt lat="41.93669478233718" lon="19.63770522360319"><ele>24.0</ele><time>2026-04-29T16:21:28Z</time></trkpt><trkpt lat="41.936781610640786" lon="19.637677835319288"><ele>24.0</ele><time>2026-04-29T16:21:29Z</time></trkpt><trkpt lat="41.936872319959406" lon="19.637651646758254"><ele>24.0</ele><time>2026-04-29T16:21:30Z</time></trkpt><trkpt lat="41.93698446558913" lon="19.637623524998943"><ele>24.0</ele><time>2026-04-29T16:21:31Z</time></trkpt><trkpt lat="41.93708254551001" lon="19.63760147037763"><ele>24.0</ele><time>2026-04-29T16:21:32Z</time></trkpt><trkpt lat="41.93718345456479" lon="19.63756899936818"><ele>24.0</ele><time>2026-04-29T16:21:33Z</time></trkpt><trkpt lat="41.93727815760591" lon="19.63752824557075"><ele>24.0</ele><time>2026-04-29T16:21:34Z</time></trkpt><trkpt lat="41.93738340136453" lon="19.637491904901694"><ele>24.0</ele><time>2026-04-29T16:21:35Z</time></trkpt><trkpt lat="41.93748491482671" lon="19.637461721894045"><ele>24.0</ele><time>2026-04-29T16:21:36Z</time></trkpt><trkpt lat="41.93756259365472" lon="19.637424717374838"><ele>24.0</ele><time>2026-04-29T16:21:37Z</time></trkpt><trkpt lat="41.93763592867651" lon="19.637394291730725"><ele>24.0</ele><time>2026-04-29T16:21:38Z</time></trkpt><trkpt lat="41.937724134747704" lon="19.637379659899928"><ele>24.0</ele><time>2026-04-29T16:21:39Z</time></trkpt><trkpt lat="41.93781849648125" lon="19.637358931105517"><ele>24.0</ele><time>2026-04-29T16:21:40Z</time></trkpt><trkpt lat="41.93793286345398" lon="19.637306186230777"><ele>24.0</ele><time>2026-04-29T16:21:41Z</time></trkpt><trkpt lat="41.93805268968269" lon="19.63726008391707"><ele>24.0</ele><time>2026-04-29T16:21:42Z</time></trkpt><trkpt lat="41.938159430293126" lon="19.637229722792764"><ele>24.0</ele><time>2026-04-29T16:21:43Z</time></trkpt><trkpt lat="41.938263333289946" lon="19.63719858983714"><ele>24.0</ele><time>2026-04-29T16:21:44Z</time></trkpt><trkpt lat="41.93837872761038" lon="19.63715359869854"><ele>23.75</ele><time>2026-04-29T16:21:45Z</time></trkpt><trkpt lat="41.938496890926544" lon="19.637102464638726"><ele>23.5</ele><time>2026-04-29T16:21:46Z</time></trkpt><trkpt lat="41.93861416093846" lon="19.637040491864475"><ele>23.25</ele><time>2026-04-29T16:21:47Z</time></trkpt><trkpt lat="41.938737126690725" lon="19.63698148906549"><ele>23.0</ele><time>2026-04-29T16:21:48Z</time></trkpt><trkpt lat="41.93886018379703" lon="19.636920628545823"><ele>23.0</ele><time>2026-04-29T16:21:49Z</time></trkpt><trkpt lat="41.93898449954305" lon="19.6368871805263"><ele>23.0</ele><time>2026-04-29T16:21:50Z</time></trkpt><trkpt lat="41.93911814793417" lon="19.63684773841515"><ele>23.0</ele><time>2026-04-29T16:21:51Z</time></trkpt><trkpt lat="41.93923217939535" lon="19.636812490397993"><ele>23.0</ele><time>2026-04-29T16:21:52Z</time></trkpt><trkpt lat="41.93933200150446" lon="19.636783108068492"><ele>23.0</ele><time>2026-04-29T16:21:53Z</time></trkpt><trkpt lat="41.939434497116714" lon="19.63674755372069"><ele>23.0</ele><time>2026-04-29T16:21:54Z</time></trkpt><trkpt lat="41.93954552693543" lon="19.63670066214892"><ele>23.0</ele><time>2026-04-29T16:21:55Z</time></trkpt><trkpt lat="41.93963782481435" lon="19.636659691956943"><ele>23.0</ele><time>2026-04-29T16:21:56Z</time></trkpt><trkpt lat="41.93971365290954" lon="19.63662943462617"><ele>23.0</ele><time>2026-04-29T16:21:57Z</time></trkpt><trkpt lat="41.93978195012098" lon="19.636595902655255"><ele>23.0</ele><time>2026-04-29T16:21:58Z</time></trkpt><trkpt lat="41.93987870141947" lon="19.636504921567973"><ele>23.0</ele><time>2026-04-29T16:22:00Z</time></trkpt><trkpt lat="41.939967559603986" lon="19.63645635471153"><ele>23.0</ele><time>2026-04-29T16:22:02Z</time></trkpt><trkpt lat="41.94003355280168" lon="19.636443774125063"><ele>23.0</ele><time>2026-04-29T16:22:03Z</time></trkpt><trkpt lat="41.94010191300568" lon="19.6364343560301"><ele>23.0</ele><time>2026-04-29T16:22:04Z</time></trkpt><trkpt lat="41.94017285550012" lon="19.636465193433047"><ele>23.0</ele><time>2026-04-29T16:22:05Z</time></trkpt><trkpt lat="41.94026767144043" lon="19.636480296974188"><ele>22.666666666666668</ele><time>2026-04-29T16:22:07Z</time></trkpt><trkpt lat="41.94034299533041" lon="19.63641077250491"><ele>22.333333333333336</ele><time>2026-04-29T16:22:09Z</time></trkpt><trkpt lat="41.94043071782083" lon="19.636367444703044"><ele>22.0</ele><time>2026-04-29T16:22:12Z</time></trkpt><trkpt lat="41.94050500970535" lon="19.63634869817589"><ele>21.666666666666668</ele><time>2026-04-29T16:22:14Z</time></trkpt><trkpt lat="41.94058478609173" lon="19.636321644762976"><ele>21.333333333333332</ele><time>2026-04-29T16:22:16Z</time></trkpt><trkpt lat="41.94067628049584" lon="19.636288969385305"><ele>21.0</ele><time>2026-04-29T16:22:18Z</time></trkpt><trkpt lat="41.94076160992676" lon="19.63626076229482"><ele>21.0</ele><time>2026-04-29T16:22:20Z</time></trkpt><trkpt lat="41.94086648287109" lon="19.636230700289357"><ele>21.0</ele><time>2026-04-29T16:22:22Z</time></trkpt><trkpt lat="41.94095740163334" lon="19.63620256375273"><ele>21.0</ele><time>2026-04-29T16:22:24Z</time></trkpt><trkpt lat="41.941037696639306" lon="19.636180281444325"><ele>21.0</ele><time>2026-04-29T16:22:26Z</time></trkpt><trkpt lat="41.94112005056675" lon="19.6361510210996"><ele>21.0</ele><time>2026-04-29T16:22:28Z</time></trkpt><trkpt lat="41.94124137854312" lon="19.63610769941343"><ele>20.833333333333332</ele><time>2026-04-29T16:22:30Z</time></trkpt><trkpt lat="41.9413132813291" lon="19.6360832000887"><ele>20.666666666666668</ele><time>2026-04-29T16:22:31Z</time></trkpt><trkpt lat="41.94138021938352" lon="19.63606056217236"><ele>20.5</ele><time>2026-04-29T16:22:32Z</time></trkpt><trkpt lat="41.94145780785696" lon="19.636041780441726"><ele>20.333333333333336</ele><time>2026-04-29T16:22:33Z</time></trkpt><trkpt lat="41.941543567358096" lon="19.63603685753291"><ele>20.166666666666668</ele><time>2026-04-29T16:22:34Z</time></trkpt><trkpt lat="41.94161879128616" lon="19.636015193139635"><ele>20.0</ele><time>2026-04-29T16:22:35Z</time></trkpt><trkpt lat="41.94169094896704" lon="19.635986563913114"><ele>20.166666666666668</ele><time>2026-04-29T16:22:36Z</time></trkpt><trkpt lat="41.94176388226641" lon="19.63595742837978"><ele>20.333333333333336</ele><time>2026-04-29T16:22:37Z</time></trkpt><trkpt lat="41.94184485002573" lon="19.63592901877563"><ele>20.5</ele><time>2026-04-29T16:22:38Z</time></trkpt><trkpt lat="41.94192974204448" lon="19.635892338728272"><ele>20.666666666666668</ele><time>2026-04-29T16:22:39Z</time></trkpt><trkpt lat="41.942004520380266" lon="19.635865713426615"><ele>20.833333333333332</ele><time>2026-04-29T16:22:40Z</time></trkpt><trkpt lat="41.94207272990154" lon="19.635851715150643"><ele>21.0</ele><time>2026-04-29T16:22:41Z</time></trkpt><trkpt lat="41.94213668266936" lon="19.635837845224778"><ele>21.0</ele><time>2026-04-29T16:22:42Z</time></trkpt><trkpt lat="41.94220199224915" lon="19.635816877452765"><ele>21.0</ele><time>2026-04-29T16:22:43Z</time></trkpt><trkpt lat="41.94227660047604" lon="19.635790626922063"><ele>21.0</ele><time>2026-04-29T16:22:44Z</time></trkpt><trkpt lat="41.94237766391985" lon="19.635751668214162"><ele>21.0</ele><time>2026-04-29T16:22:45Z</time></trkpt><trkpt lat="41.94247326805731" lon="19.63572476989274"><ele>21.0</ele><time>2026-04-29T16:22:46Z</time></trkpt><trkpt lat="41.9425491965539" lon="19.635709870440312"><ele>21.0</ele><time>2026-04-29T16:22:47Z</time></trkpt><trkpt lat="41.94262634008834" lon="19.63569001278236"><ele>21.4</ele><time>2026-04-29T16:22:48Z</time></trkpt><trkpt lat="41.94271232916253" lon="19.635659508773298"><ele>21.8</ele><time>2026-04-29T16:22:49Z</time></trkpt><trkpt lat="41.942806782283235" lon="19.635626152146934"><ele>22.2</ele><time>2026-04-29T16:22:50Z</time></trkpt><trkpt lat="41.94290149703165" lon="19.635589116903326"><ele>22.599999999999998</ele><time>2026-04-29T16:22:51Z</time></trkpt><trkpt lat="41.942973731428665" lon="19.63556164311408"><ele>23.0</ele><time>2026-04-29T16:22:52Z</time></trkpt><trkpt lat="41.943060061771135" lon="19.635526099132715"><ele>23.0</ele><time>2026-04-29T16:22:53Z</time></trkpt><trkpt lat="41.94316182633427" lon="19.635485813467398"><ele>23.0</ele><time>2026-04-29T16:22:54Z</time></trkpt><trkpt lat="41.94326046307127" lon="19.63545413556388"><ele>23.0</ele><time>2026-04-29T16:22:55Z</time></trkpt><trkpt lat="41.94335632429765" lon="19.635432952787326"><ele>23.0</ele><time>2026-04-29T16:22:56Z</time></trkpt><trkpt lat="41.94344861483642" lon="19.635405260737805"><ele>23.0</ele><time>2026-04-29T16:22:57Z</time></trkpt><trkpt lat="41.94353780368957" lon="19.635365959720804"><ele>23.2</ele><time>2026-04-29T16:22:58Z</time></trkpt><trkpt lat="41.943625032034085" lon="19.635332728432505"><ele>23.4</ele><time>2026-04-29T16:22:59Z</time></trkpt><trkpt lat="41.9437217526618" lon="19.635307617306168"><ele>23.599999999999998</ele><time>2026-04-29T16:23:00Z</time></trkpt><trkpt lat="41.94382086655552" lon="19.635277941926557"><ele>23.799999999999997</ele><time>2026-04-29T16:23:01Z</time></trkpt><trkpt lat="41.94391877222263" lon="19.63524989478954"><ele>24.0</ele><time>2026-04-29T16:23:02Z</time></trkpt><trkpt lat="41.944017122532074" lon="19.635219797822398"><ele>24.0</ele><time>2026-04-29T16:23:03Z</time></trkpt><trkpt lat="41.9441242273582" lon="19.63517927485632"><ele>24.0</ele><time>2026-04-29T16:23:04Z</time></trkpt><trkpt lat="41.94424151744715" lon="19.635157564837037"><ele>24.0</ele><time>2026-04-29T16:23:05Z</time></trkpt><trkpt lat="41.94436112073265" lon="19.63512735412352"><ele>24.0</ele><time>2026-04-29T16:23:06Z</time></trkpt><trkpt lat="41.94448381334219" lon="19.635091832802367"><ele>24.5</ele><time>2026-04-29T16:23:07Z</time></trkpt><trkpt lat="41.94461168029688" lon="19.63505498456799"><ele>25.0</ele><time>2026-04-29T16:23:08Z</time></trkpt><trkpt lat="41.9447372681207" lon="19.635009544242966"><ele>25.5</ele><time>2026-04-29T16:23:09Z</time></trkpt><trkpt lat="41.94485430643535" lon="19.634949799155635"><ele>26.0</ele><time>2026-04-29T16:23:10Z</time></trkpt><trkpt lat="41.94495351966421" lon="19.634881851368302"><ele>26.0</ele><time>2026-04-29T16:23:11Z</time></trkpt><trkpt lat="41.94504976941111" lon="19.634852979334298"><ele>26.0</ele><time>2026-04-29T16:23:12Z</time></trkpt><trkpt lat="41.9451441479753" lon="19.634826856080355"><ele>26.0</ele><time>2026-04-29T16:23:13Z</time></trkpt><trkpt lat="41.94524064539183" lon="19.634800226708553"><ele>26.0</ele><time>2026-04-29T16:23:14Z</time></trkpt><trkpt lat="41.94534571230712" lon="19.63476912697361"><ele>26.0</ele><time>2026-04-29T16:23:15Z</time></trkpt><trkpt lat="41.94545839399386" lon="19.634735505483626"><ele>26.0</ele><time>2026-04-29T16:23:16Z</time></trkpt><trkpt lat="41.945575295360676" lon="19.634693552106338"><ele>26.0</ele><time>2026-04-29T16:23:17Z</time></trkpt><trkpt lat="41.94570418797047" lon="19.634651681524957"><ele>26.0</ele><time>2026-04-29T16:23:18Z</time></trkpt><trkpt lat="41.94583460530162" lon="19.63460799690472"><ele>26.0</ele><time>2026-04-29T16:23:19Z</time></trkpt><trkpt lat="41.94595661959802" lon="19.634566276788792"><ele>26.0</ele><time>2026-04-29T16:23:20Z</time></trkpt><trkpt lat="41.946067234441266" lon="19.634529043842143"><ele>26.0</ele><time>2026-04-29T16:23:21Z</time></trkpt><trkpt lat="41.94616907193123" lon="19.63448972329098"><ele>26.0</ele><time>2026-04-29T16:23:22Z</time></trkpt><trkpt lat="41.94627359341357" lon="19.634444695660314"><ele>26.0</ele><time>2026-04-29T16:23:23Z</time></trkpt><trkpt lat="41.946393357022146" lon="19.634399815489374"><ele>26.0</ele><time>2026-04-29T16:23:24Z</time></trkpt><trkpt lat="41.94651854557495" lon="19.634357648969413"><ele>26.0</ele><time>2026-04-29T16:23:25Z</time></trkpt><trkpt lat="41.94664422320169" lon="19.63430746006878"><ele>26.0</ele><time>2026-04-29T16:23:26Z</time></trkpt><trkpt lat="41.94675547256932" lon="19.63426596237741"><ele>26.0</ele><time>2026-04-29T16:23:27Z</time></trkpt><trkpt lat="41.9468698976068" lon="19.634230074379875"><ele>25.5</ele><time>2026-04-29T16:23:28Z</time></trkpt><trkpt lat="41.946994164682906" lon="19.634185065367777"><ele>25.0</ele><time>2026-04-29T16:23:29Z</time></trkpt><trkpt lat="41.94712625197233" lon="19.634125512078914"><ele>24.5</ele><time>2026-04-29T16:23:30Z</time></trkpt><trkpt lat="41.94725613287172" lon="19.634073527985617"><ele>24.0</ele><time>2026-04-29T16:23:31Z</time></trkpt><trkpt lat="41.947377750236136" lon="19.634037352079172"><ele>24.0</ele><time>2026-04-29T16:23:32Z</time></trkpt><trkpt lat="41.94750883483741" lon="19.633996310062457"><ele>24.0</ele><time>2026-04-29T16:23:33Z</time></trkpt><trkpt lat="41.94763740431775" lon="19.63394504667523"><ele>24.0</ele><time>2026-04-29T16:23:34Z</time></trkpt><trkpt lat="41.94774782236404" lon="19.633895585534063"><ele>24.0</ele><time>2026-04-29T16:23:35Z</time></trkpt><trkpt lat="41.94785236758597" lon="19.633847044026144"><ele>24.799999999999997</ele><time>2026-04-29T16:23:36Z</time></trkpt><trkpt lat="41.94794653674239" lon="19.633803984146883"><ele>25.599999999999998</ele><time>2026-04-29T16:23:37Z</time></trkpt><trkpt lat="41.948032191827394" lon="19.633774215568568"><ele>26.4</ele><time>2026-04-29T16:23:38Z</time></trkpt><trkpt lat="41.94812694985943" lon="19.633753431310147"><ele>27.2</ele><time>2026-04-29T16:23:39Z</time></trkpt><trkpt lat="41.94825012480291" lon="19.633714427309137"><ele>28.0</ele><time>2026-04-29T16:23:40Z</time></trkpt><trkpt lat="41.94837363604292" lon="19.633663282521916"><ele>27.4</ele><time>2026-04-29T16:23:41Z</time></trkpt><trkpt lat="41.94851285844324" lon="19.633626334389213"><ele>26.799999999999997</ele><time>2026-04-29T16:23:42Z</time></trkpt><trkpt lat="41.94862560204439" lon="19.633606694812517"><ele>26.2</ele><time>2026-04-29T16:23:43Z</time></trkpt><trkpt lat="41.948712743008436" lon="19.63358979731092"><ele>25.6</ele><time>2026-04-29T16:23:44Z</time></trkpt><trkpt lat="41.948780736216065" lon="19.63356673401878"><ele>25.0</ele><time>2026-04-29T16:23:45Z</time></trkpt><trkpt lat="41.94884610689959" lon="19.633539470246642"><ele>25.000000000000004</ele><time>2026-04-29T16:23:46Z</time></trkpt><trkpt lat="41.9489247723217" lon="19.633513405118983"><ele>25.0</ele><time>2026-04-29T16:23:47Z</time></trkpt><trkpt lat="41.948991807355945" lon="19.633495842174955"><ele>25.0</ele><time>2026-04-29T16:23:48Z</time></trkpt><trkpt lat="41.94906256428489" lon="19.633473535188077"><ele>25.0</ele><time>2026-04-29T16:23:49Z</time></trkpt><trkpt lat="41.949141951801515" lon="19.633449264455077"><ele>25.000000000000004</ele><time>2026-04-29T16:23:50Z</time></trkpt><trkpt lat="41.949230012071865" lon="19.63341996589167"><ele>25.0</ele><time>2026-04-29T16:23:51Z</time></trkpt><trkpt lat="41.94932234177072" lon="19.633385144860412"><ele>25.333333333333336</ele><time>2026-04-29T16:23:52Z</time></trkpt><trkpt lat="41.949411628900016" lon="19.633353313977686"><ele>25.666666666666668</ele><time>2026-04-29T16:23:53Z</time></trkpt><trkpt lat="41.94948440774689" lon="19.633323668958973"><ele>26.0</ele><time>2026-04-29T16:23:54Z</time></trkpt><trkpt lat="41.94954713111827" lon="19.633299208370566"><ele>26.333333333333336</ele><time>2026-04-29T16:23:55Z</time></trkpt><trkpt lat="41.9496605609138" lon="19.633251582781593"><ele>26.666666666666668</ele><time>2026-04-29T16:23:57Z</time></trkpt><trkpt lat="41.94973984200671" lon="19.633222841174675"><ele>27.0</ele><time>2026-04-29T16:23:58Z</time></trkpt><trkpt lat="41.94983101187179" lon="19.63318787512161"><ele>27.0</ele><time>2026-04-29T16:23:59Z</time></trkpt><trkpt lat="41.9499287461249" lon="19.633143331806647"><ele>27.0</ele><time>2026-04-29T16:24:00Z</time></trkpt><trkpt lat="41.95003790309419" lon="19.633101663857204"><ele>27.0</ele><time>2026-04-29T16:24:01Z</time></trkpt><trkpt lat="41.950154267387795" lon="19.633065444872493"><ele>27.0</ele><time>2026-04-29T16:24:02Z</time></trkpt><trkpt lat="41.95027316840084" lon="19.633024468208266"><ele>27.5</ele><time>2026-04-29T16:24:03Z</time></trkpt><trkpt lat="41.950390324123106" lon="19.63298754669497"><ele>28.0</ele><time>2026-04-29T16:24:04Z</time></trkpt><trkpt lat="41.95050067607019" lon="19.63294874839241"><ele>28.5</ele><time>2026-04-29T16:24:05Z</time></trkpt><trkpt lat="41.95060987568785" lon="19.63290358082212"><ele>29.0</ele><time>2026-04-29T16:24:06Z</time></trkpt><trkpt lat="41.95072246665362" lon="19.632858287336866"><ele>29.0</ele><time>2026-04-29T16:24:07Z</time></trkpt><trkpt lat="41.950865538503756" lon="19.632813104900237"><ele>29.0</ele><time>2026-04-29T16:24:08Z</time></trkpt><trkpt lat="41.951069226747066" lon="19.632753550042946"><ele>29.0</ele><time>2026-04-29T16:24:09Z</time></trkpt><trkpt lat="41.95129607826768" lon="19.632691774705442"><ele>29.0</ele><time>2026-04-29T16:24:10Z</time></trkpt><trkpt lat="41.9514969348936" lon="19.63262882376772"><ele>29.0</ele><time>2026-04-29T16:24:11Z</time></trkpt><trkpt lat="41.951669707777604" lon="19.632563078838245"><ele>29.0</ele><time>2026-04-29T16:24:12Z</time></trkpt><trkpt lat="41.95183111875584" lon="19.63251346616973"><ele>29.0</ele><time>2026-04-29T16:24:13Z</time></trkpt><trkpt lat="41.95198619036912" lon="19.632464411163916"><ele>29.0</ele><time>2026-04-29T16:24:14Z</time></trkpt><trkpt lat="41.95212948385098" lon="19.632419140255912"><ele>29.0</ele><time>2026-04-29T16:24:15Z</time></trkpt><trkpt lat="41.952278348723006" lon="19.632372887131666"><ele>29.0</ele><time>2026-04-29T16:24:16Z</time></trkpt><trkpt lat="41.95242976524493" lon="19.63233305348106"><ele>29.0</ele><time>2026-04-29T16:24:17Z</time></trkpt><trkpt lat="41.95256312491392" lon="19.632294290791968"><ele>29.0</ele><time>2026-04-29T16:24:18Z</time></trkpt><trkpt lat="41.95265318240624" lon="19.632265268439845"><ele>29.0</ele><time>2026-04-29T16:24:19Z</time></trkpt><trkpt lat="41.95272643191929" lon="19.63224634841291"><ele>29.4</ele><time>2026-04-29T16:24:20Z</time></trkpt><trkpt lat="41.95282764147432" lon="19.632223846747088"><ele>29.799999999999997</ele><time>2026-04-29T16:24:22Z</time></trkpt><trkpt lat="41.95294979848072" lon="19.632186472887692"><ele>30.200000000000003</ele><time>2026-04-29T16:24:24Z</time></trkpt><trkpt lat="41.95303451369962" lon="19.632157413695094"><ele>30.6</ele><time>2026-04-29T16:24:25Z</time></trkpt><trkpt lat="41.953131464141656" lon="19.63211427689939"><ele>31.0</ele><time>2026-04-29T16:24:26Z</time></trkpt><trkpt lat="41.953212021137794" lon="19.632080192819373"><ele>31.000000000000004</ele><time>2026-04-29T16:24:27Z</time></trkpt><trkpt lat="41.95330106155949" lon="19.632046654055276"><ele>31.0</ele><time>2026-04-29T16:24:28Z</time></trkpt><trkpt lat="41.95339099588105" lon="19.632018467561252"><ele>31.0</ele><time>2026-04-29T16:24:29Z</time></trkpt><trkpt lat="41.95347622013108" lon="19.631994701381057"><ele>31.0</ele><time>2026-04-29T16:24:30Z</time></trkpt><trkpt lat="41.953550308706596" lon="19.6319774528253"><ele>31.000000000000004</ele><time>2026-04-29T16:24:31Z</time></trkpt><trkpt lat="41.95361731699954" lon="19.631962077220763"><ele>31.0</ele><time>2026-04-29T16:24:32Z</time></trkpt><trkpt lat="41.95368680854853" lon="19.63194497482752"><ele>30.333333333333336</ele><time>2026-04-29T16:24:33Z</time></trkpt><trkpt lat="41.95375981768612" lon="19.631931957579976"><ele>29.666666666666668</ele><time>2026-04-29T16:24:34Z</time></trkpt><trkpt lat="41.95383839828568" lon="19.63192507068935"><ele>29.0</ele><time>2026-04-29T16:24:35Z</time></trkpt><trkpt lat="41.95393020731052" lon="19.631886369633243"><ele>28.333333333333336</ele><time>2026-04-29T16:24:37Z</time></trkpt><trkpt lat="41.95397579869988" lon="19.631806638129813"><ele>27.666666666666668</ele><time>2026-04-29T16:24:39Z</time></trkpt><trkpt lat="41.95394713657117" lon="19.63169959265847"><ele>27.0</ele><time>2026-04-29T16:24:40Z</time></trkpt><trkpt lat="41.95389255854839" lon="19.631619124468596"><ele>27.0</ele><time>2026-04-29T16:24:41Z</time></trkpt><trkpt lat="41.95387214384353" lon="19.63150471024952"><ele>27.000000000000004</ele><time>2026-04-29T16:24:42Z</time></trkpt><trkpt lat="41.95383291330704" lon="19.63137505285858"><ele>27.000000000000004</ele><time>2026-04-29T16:24:43Z</time></trkpt><trkpt lat="41.953779934577874" lon="19.631240554777264"><ele>27.0</ele><time>2026-04-29T16:24:44Z</time></trkpt><trkpt lat="41.953753727168866" lon="19.631113366014212"><ele>27.0</ele><time>2026-04-29T16:24:45Z</time></trkpt><trkpt lat="41.95372219424284" lon="19.63100920593075"><ele>26.400000000000002</ele><time>2026-04-29T16:24:46Z</time></trkpt><trkpt lat="41.95368738811887" lon="19.63089423377599"><ele>25.800000000000004</ele><time>2026-04-29T16:24:47Z</time></trkpt><trkpt lat="41.95366324393262" lon="19.630773757001673"><ele>25.2</ele><time>2026-04-29T16:24:48Z</time></trkpt><trkpt lat="41.95364948588204" lon="19.63064087268911"><ele>24.6</ele><time>2026-04-29T16:24:49Z</time></trkpt><trkpt lat="41.95363450139828" lon="19.6305197684452"><ele>24.0</ele><time>2026-04-29T16:24:50Z</time></trkpt><trkpt lat="41.9536082568593" lon="19.630397298733495"><ele>23.25</ele><time>2026-04-29T16:24:51Z</time></trkpt><trkpt lat="41.95355935108736" lon="19.630240434378777"><ele>22.5</ele><time>2026-04-29T16:24:52Z</time></trkpt><trkpt lat="41.953529487959266" lon="19.630090112595173"><ele>21.75</ele><time>2026-04-29T16:24:53Z</time></trkpt><trkpt lat="41.95347884463379" lon="19.629921626050113"><ele>21.0</ele><time>2026-04-29T16:24:54Z</time></trkpt><trkpt lat="41.95344987830847" lon="19.62973248503103"><ele>21.0</ele><time>2026-04-29T16:24:55Z</time></trkpt><trkpt lat="41.95340683345339" lon="19.62955398300134"><ele>21.0</ele><time>2026-04-29T16:24:56Z</time></trkpt><trkpt lat="41.95337956391162" lon="19.629395067690194"><ele>21.0</ele><time>2026-04-29T16:24:57Z</time></trkpt><trkpt lat="41.953350997868306" lon="19.62925595249243"><ele>21.0</ele><time>2026-04-29T16:24:58Z</time></trkpt><trkpt lat="41.95332392753392" lon="19.62912226548595"><ele>21.0</ele><time>2026-04-29T16:24:59Z</time></trkpt><trkpt lat="41.9532959160974" lon="19.628971056692958"><ele>21.0</ele><time>2026-04-29T16:25:00Z</time></trkpt><trkpt lat="41.953268454231946" lon="19.628810473226356"><ele>21.0</ele><time>2026-04-29T16:25:01Z</time></trkpt><trkpt lat="41.95323808077142" lon="19.628663097395382"><ele>21.0</ele><time>2026-04-29T16:25:02Z</time></trkpt><trkpt lat="41.95322198302671" lon="19.628507614829935"><ele>20.5</ele><time>2026-04-29T16:25:03Z</time></trkpt><trkpt lat="41.953190049766405" lon="19.62834030882365"><ele>20.0</ele><time>2026-04-29T16:25:04Z</time></trkpt><trkpt lat="41.953156154467344" lon="19.628161837224607"><ele>19.5</ele><time>2026-04-29T16:25:05Z</time></trkpt><trkpt lat="41.95310797237952" lon="19.62799081535492"><ele>19.0</ele><time>2026-04-29T16:25:06Z</time></trkpt><trkpt lat="41.95307942112289" lon="19.627836640311312"><ele>18.666666666666664</ele><time>2026-04-29T16:25:07Z</time></trkpt><trkpt lat="41.953051563822065" lon="19.627701340467166"><ele>18.333333333333332</ele><time>2026-04-29T16:25:08Z</time></trkpt><trkpt lat="41.95302869405574" lon="19.627580309791977"><ele>18.0</ele><time>2026-04-29T16:25:09Z</time></trkpt><trkpt lat="41.95301021448346" lon="19.627483141103284"><ele>17.666666666666668</ele><time>2026-04-29T16:25:10Z</time></trkpt><trkpt lat="41.95300965399488" lon="19.62739480692871"><ele>17.333333333333336</ele><time>2026-04-29T16:25:11Z</time></trkpt><trkpt lat="41.95299318186586" lon="19.627309144425578"><ele>17.0</ele><time>2026-04-29T16:25:12Z</time></trkpt><trkpt lat="41.9529736426818" lon="19.627206101466637"><ele>17.0</ele><time>2026-04-29T16:25:13Z</time></trkpt><trkpt lat="41.95295011618537" lon="19.62708256427605"><ele>17.0</ele><time>2026-04-29T16:25:14Z</time></trkpt><trkpt lat="41.95290890036787" lon="19.62695459887328"><ele>17.0</ele><time>2026-04-29T16:25:15Z</time></trkpt><trkpt lat="41.9528849271043" lon="19.626826777161448"><ele>17.0</ele><time>2026-04-29T16:25:16Z</time></trkpt><trkpt lat="41.95287902681949" lon="19.62670927480233"><ele>17.0</ele><time>2026-04-29T16:25:17Z</time></trkpt><trkpt lat="41.95285246925433" lon="19.626600153680524"><ele>17.0</ele><time>2026-04-29T16:25:19Z</time></trkpt><trkpt lat="41.9528243773851" lon="19.626504552012644"><ele>17.0</ele><time>2026-04-29T16:25:22Z</time></trkpt><trkpt lat="41.952771143332505" lon="19.626395244325003"><ele>17.0</ele><time>2026-04-29T16:25:25Z</time></trkpt><trkpt lat="41.952768378323285" lon="19.62627381387164"><ele>17.0</ele><time>2026-04-29T16:25:27Z</time></trkpt><trkpt lat="41.9527919919858" lon="19.626148808639638"><ele>17.0</ele><time>2026-04-29T16:25:29Z</time></trkpt><trkpt lat="41.95274159271977" lon="19.62603046818849"><ele>17.4</ele><time>2026-04-29T16:25:31Z</time></trkpt><trkpt lat="41.95272051095473" lon="19.62589379566133"><ele>17.799999999999997</ele><time>2026-04-29T16:25:33Z</time></trkpt><trkpt lat="41.952703363323764" lon="19.625738528146453"><ele>18.2</ele><time>2026-04-29T16:25:35Z</time></trkpt><trkpt lat="41.9526736828125" lon="19.625578559897647"><ele>18.599999999999998</ele><time>2026-04-29T16:25:37Z</time></trkpt><trkpt lat="41.95265689733695" lon="19.625487561468702"><ele>19.0</ele><time>2026-04-29T16:25:38Z</time></trkpt><trkpt lat="41.95263824568435" lon="19.62538636995174"><ele>19.0</ele><time>2026-04-29T16:25:39Z</time></trkpt><trkpt lat="41.95261766266802" lon="19.62527470068059"><ele>19.0</ele><time>2026-04-29T16:25:40Z</time></trkpt><trkpt lat="41.95259296638789" lon="19.625158676988885"><ele>19.0</ele><time>2026-04-29T16:25:41Z</time></trkpt><trkpt lat="41.95257129253224" lon="19.62505615756262"><ele>19.0</ele><time>2026-04-29T16:25:42Z</time></trkpt><trkpt lat="41.952544353794316" lon="19.62492873486332"><ele>19.0</ele><time>2026-04-29T16:25:44Z</time></trkpt><trkpt lat="41.952652385535124" lon="19.62483045422446"><ele>19.0</ele><time>2026-04-29T16:25:48Z</time></trkpt><trkpt lat="41.952774438570664" lon="19.624854328957067"><ele>19.0</ele><time>2026-04-29T16:25:50Z</time></trkpt><trkpt lat="41.95284605210292" lon="19.62490834287368"><ele>19.0</ele><time>2026-04-29T16:25:51Z</time></trkpt><trkpt lat="41.952927737740154" lon="19.62491281219939"><ele>19.0</ele><time>2026-04-29T16:25:52Z</time></trkpt><trkpt lat="41.953011322152335" lon="19.62493984939289"><ele>19.0</ele><time>2026-04-29T16:25:53Z</time></trkpt><trkpt lat="41.95309628577652" lon="19.624882228992814"><ele>19.0</ele><time>2026-04-29T16:25:54Z</time></trkpt><trkpt lat="41.953171917116876" lon="19.624827104724243"><ele>19.0</ele><time>2026-04-29T16:25:55Z</time></trkpt><trkpt lat="41.953242165693325" lon="19.62479459763406"><ele>19.0</ele><time>2026-04-29T16:25:56Z</time></trkpt><trkpt lat="41.953326030182055" lon="19.624778582013157"><ele>19.0</ele><time>2026-04-29T16:25:57Z</time></trkpt><trkpt lat="41.95341545773815" lon="19.624801903185567"><ele>19.0</ele><time>2026-04-29T16:25:58Z</time></trkpt><trkpt lat="41.95349215475164" lon="19.62479213236554"><ele>19.0</ele><time>2026-04-29T16:25:59Z</time></trkpt><trkpt lat="41.95357194193284" lon="19.624825978191225"><ele>19.0</ele><time>2026-04-29T16:26:01Z</time></trkpt><trkpt lat="41.95362776191263" lon="19.624763377602797"><ele>19.0</ele><time>2026-04-29T16:26:04Z</time></trkpt><trkpt lat="41.953630256974485" lon="19.62464497985246"><ele>19.0</ele><time>2026-04-29T16:26:06Z</time></trkpt><trkpt lat="41.95363782517065" lon="19.62452259000808"><ele>19.0</ele><time>2026-04-29T16:26:08Z</time></trkpt><trkpt lat="41.95371453869692" lon="19.624471783634977"><ele>19.0</ele><time>2026-04-29T16:26:11Z</time></trkpt><trkpt lat="41.953869913587205" lon="19.624498009078977"><ele>19.0</ele><time>2026-04-29T16:26:13Z</time></trkpt><trkpt lat="41.95398504304608" lon="19.624509254557946"><ele>19.0</ele><time>2026-04-29T16:26:14Z</time></trkpt><trkpt lat="41.9540816872755" lon="19.624514392456735"><ele>19.0</ele><time>2026-04-29T16:26:15Z</time></trkpt><trkpt lat="41.954163616911785" lon="19.624512191575043"><ele>19.0</ele><time>2026-04-29T16:26:16Z</time></trkpt><trkpt lat="41.954255422253745" lon="19.624502615432352"><ele>19.0</ele><time>2026-04-29T16:26:17Z</time></trkpt><trkpt lat="41.9543422072041" lon="19.62450225305143"><ele>18.599999999999998</ele><time>2026-04-29T16:26:18Z</time></trkpt><trkpt lat="41.954418217773856" lon="19.624525607800788"><ele>18.2</ele><time>2026-04-29T16:26:19Z</time></trkpt><trkpt lat="41.95450678859608" lon="19.624564708583172"><ele>17.799999999999997</ele><time>2026-04-29T16:26:20Z</time></trkpt><trkpt lat="41.95460523141869" lon="19.624624215165273"><ele>17.4</ele><time>2026-04-29T16:26:21Z</time></trkpt><trkpt lat="41.95469145123665" lon="19.624695043132082"><ele>17.0</ele><time>2026-04-29T16:26:22Z</time></trkpt><trkpt lat="41.95476878289744" lon="19.624766274436027"><ele>17.0</ele><time>2026-04-29T16:26:23Z</time></trkpt><trkpt lat="41.95484013214613" lon="19.624831225335893"><ele>17.0</ele><time>2026-04-29T16:26:24Z</time></trkpt><trkpt lat="41.954913119971806" lon="19.62490054138988"><ele>17.0</ele><time>2026-04-29T16:26:25Z</time></trkpt><trkpt lat="41.95498514335853" lon="19.624967524503308"><ele>17.0</ele><time>2026-04-29T16:26:26Z</time></trkpt><trkpt lat="41.95506119852635" lon="19.625035730437002"><ele>17.0</ele><time>2026-04-29T16:26:27Z</time></trkpt><trkpt lat="41.95513903524639" lon="19.62511326822583"><ele>17.0</ele><time>2026-04-29T16:26:28Z</time></trkpt><trkpt lat="41.95522388401578" lon="19.6251942008842"><ele>17.0</ele><time>2026-04-29T16:26:29Z</time></trkpt><trkpt lat="41.9553046426496" lon="19.625267900898272"><ele>17.0</ele><time>2026-04-29T16:26:30Z</time></trkpt><trkpt lat="41.95538269364463" lon="19.625326497996383"><ele>17.0</ele><time>2026-04-29T16:26:31Z</time></trkpt><trkpt lat="41.955452949048635" lon="19.62538106726812"><ele>17.0</ele><time>2026-04-29T16:26:32Z</time></trkpt><trkpt lat="41.955520087929024" lon="19.62542753183019"><ele>17.0</ele><time>2026-04-29T16:26:33Z</time></trkpt><trkpt lat="41.955601178535765" lon="19.625471719535053"><ele>17.0</ele><time>2026-04-29T16:26:34Z</time></trkpt><trkpt lat="41.95568983595396" lon="19.62550124268855"><ele>17.0</ele><time>2026-04-29T16:26:35Z</time></trkpt><trkpt lat="41.955775737225935" lon="19.625521337410568"><ele>17.0</ele><time>2026-04-29T16:26:36Z</time></trkpt><trkpt lat="41.95587149918746" lon="19.625538237882783"><ele>17.0</ele><time>2026-04-29T16:26:37Z</time></trkpt><trkpt lat="41.9559636012553" lon="19.625540296906465"><ele>17.0</ele><time>2026-04-29T16:26:38Z</time></trkpt><trkpt lat="41.956036431952874" lon="19.62553428409937"><ele>17.0</ele><time>2026-04-29T16:26:39Z</time></trkpt><trkpt lat="41.95610728813422" lon="19.62550836176661"><ele>16.8</ele><time>2026-04-29T16:26:40Z</time></trkpt><trkpt lat="41.95617326009897" lon="19.625467856536837"><ele>16.6</ele><time>2026-04-29T16:26:41Z</time></trkpt><trkpt lat="41.95624174085618" lon="19.625393828288686"><ele>16.400000000000002</ele><time>2026-04-29T16:26:42Z</time></trkpt><trkpt lat="41.956302405676254" lon="19.62530194308635"><ele>16.2</ele><time>2026-04-29T16:26:43Z</time></trkpt><trkpt lat="41.95636235955142" lon="19.625198980385594"><ele>16.0</ele><time>2026-04-29T16:26:44Z</time></trkpt><trkpt lat="41.95642769963112" lon="19.625087997888535"><ele>15.8</ele><time>2026-04-29T16:26:45Z</time></trkpt><trkpt lat="41.956495800243964" lon="19.624982208279114"><ele>15.600000000000001</ele><time>2026-04-29T16:26:46Z</time></trkpt><trkpt lat="41.956564640376406" lon="19.624878811040627"><ele>15.4</ele><time>2026-04-29T16:26:47Z</time></trkpt><trkpt lat="41.9566346103952" lon="19.62479161749018"><ele>15.2</ele><time>2026-04-29T16:26:48Z</time></trkpt><trkpt lat="41.956715906805606" lon="19.624710812482146"><ele>15.0</ele><time>2026-04-29T16:26:49Z</time></trkpt><trkpt lat="41.95680840110886" lon="19.624625489115672"><ele>15.25</ele><time>2026-04-29T16:26:50Z</time></trkpt><trkpt lat="41.95691185253468" lon="19.624545036436817"><ele>15.5</ele><time>2026-04-29T16:26:51Z</time></trkpt><trkpt lat="41.957023752802726" lon="19.6244653560661"><ele>15.75</ele><time>2026-04-29T16:26:52Z</time></trkpt><trkpt lat="41.95712552962548" lon="19.624385534309376"><ele>16.0</ele><time>2026-04-29T16:26:53Z</time></trkpt><trkpt lat="41.95720876286706" lon="19.624318824003442"><ele>15.999999999999998</ele><time>2026-04-29T16:26:54Z</time></trkpt><trkpt lat="41.957283945100656" lon="19.62425437245927"><ele>16.0</ele><time>2026-04-29T16:26:55Z</time></trkpt><trkpt lat="41.95735360976017" lon="19.624201740847415"><ele>16.0</ele><time>2026-04-29T16:26:56Z</time></trkpt><trkpt lat="41.95741705391491" lon="19.62414980190068"><ele>16.0</ele><time>2026-04-29T16:26:57Z</time></trkpt><trkpt lat="41.957472187421764" lon="19.624074940551637"><ele>15.999999999999998</ele><time>2026-04-29T16:26:58Z</time></trkpt><trkpt lat="41.957515578747575" lon="19.62398508757762"><ele>16.0</ele><time>2026-04-29T16:26:59Z</time></trkpt><trkpt lat="41.95756273473538" lon="19.623923618267973"><ele>16.2</ele><time>2026-04-29T16:27:00Z</time></trkpt><trkpt lat="41.957620744660204" lon="19.623812912430008"><ele>16.400000000000002</ele><time>2026-04-29T16:27:02Z</time></trkpt><trkpt lat="41.95758977680905" lon="19.623678721273148"><ele>16.6</ele><time>2026-04-29T16:27:03Z</time></trkpt><trkpt lat="41.957603760550754" lon="19.623563465485372"><ele>16.8</ele><time>2026-04-29T16:27:04Z</time></trkpt><trkpt lat="41.95760374971885" lon="19.623433750437673"><ele>17.0</ele><time>2026-04-29T16:27:05Z</time></trkpt><trkpt lat="41.957599746752855" lon="19.623271460713394"><ele>15.666666666666668</ele><time>2026-04-29T16:27:06Z</time></trkpt><trkpt lat="41.95759595285806" lon="19.623020707840265"><ele>14.333333333333332</ele><time>2026-04-29T16:27:07Z</time></trkpt><trkpt lat="41.95761029679405" lon="19.622709538226037"><ele>13.0</ele><time>2026-04-29T16:27:08Z</time></trkpt><trkpt lat="41.957601150709614" lon="19.622396899941542"><ele>12.666666666666666</ele><time>2026-04-29T16:27:09Z</time></trkpt><trkpt lat="41.957620631599696" lon="19.622165394285137"><ele>12.333333333333332</ele><time>2026-04-29T16:27:10Z</time></trkpt><trkpt lat="41.9576571464737" lon="19.621968436339312"><ele>12.0</ele><time>2026-04-29T16:27:11Z</time></trkpt><trkpt lat="41.95770333429817" lon="19.621782500372614"><ele>12.5</ele><time>2026-04-29T16:27:12Z</time></trkpt><trkpt lat="41.95774731875027" lon="19.621598657083435"><ele>13.0</ele><time>2026-04-29T16:27:13Z</time></trkpt><trkpt lat="41.95779178125022" lon="19.621400077979956"><ele>13.5</ele><time>2026-04-29T16:27:14Z</time></trkpt><trkpt lat="41.95783036579865" lon="19.62121145009169"><ele>14.0</ele><time>2026-04-29T16:27:15Z</time></trkpt><trkpt lat="41.95786381485545" lon="19.62104472328036"><ele>14.0</ele><time>2026-04-29T16:27:16Z</time></trkpt><trkpt lat="41.95789271035538" lon="19.620907417746896"><ele>13.999999999999998</ele><time>2026-04-29T16:27:17Z</time></trkpt><trkpt lat="41.957901430558884" lon="19.620777698592804"><ele>13.999999999999998</ele><time>2026-04-29T16:27:18Z</time></trkpt><trkpt lat="41.95787117778878" lon="19.62066641248411"><ele>14.0</ele><time>2026-04-29T16:27:19Z</time></trkpt><trkpt lat="41.957838638854895" lon="19.62054983946365"><ele>14.0</ele><time>2026-04-29T16:27:20Z</time></trkpt><trkpt lat="41.95781014016115" lon="19.620427961062614"><ele>14.000000000000002</ele><time>2026-04-29T16:27:21Z</time></trkpt><trkpt lat="41.95776764701137" lon="19.620347071825567"><ele>14.0</ele><time>2026-04-29T16:27:22Z</time></trkpt><trkpt lat="41.95775123987214" lon="19.620259216070217"><ele>14.0</ele><time>2026-04-29T16:27:23Z</time></trkpt><trkpt lat="41.95775601828531" lon="19.620162888681904"><ele>14.0</ele><time>2026-04-29T16:27:24Z</time></trkpt><trkpt lat="41.95778220430873" lon="19.620053495910348"><ele>14.000000000000002</ele><time>2026-04-29T16:27:25Z</time></trkpt><trkpt lat="41.95781968172811" lon="19.619934689242072"><ele>14.0</ele><time>2026-04-29T16:27:26Z</time></trkpt><trkpt lat="41.95785550847424" lon="19.619797122906203"><ele>14.25</ele><time>2026-04-29T16:27:27Z</time></trkpt><trkpt lat="41.95788896440487" lon="19.61964713468331"><ele>14.5</ele><time>2026-04-29T16:27:28Z</time></trkpt><trkpt lat="41.9579243990257" lon="19.619484229038566"><ele>14.75</ele><time>2026-04-29T16:27:29Z</time></trkpt><trkpt lat="41.95796833420354" lon="19.619313088331566"><ele>15.0</ele><time>2026-04-29T16:27:30Z</time></trkpt><trkpt lat="41.95802112103652" lon="19.619136893656098"><ele>15.25</ele><time>2026-04-29T16:27:31Z</time></trkpt><trkpt lat="41.958081637858825" lon="19.61895604195446"><ele>15.5</ele><time>2026-04-29T16:27:32Z</time></trkpt><trkpt lat="41.958138578563045" lon="19.61878799733305"><ele>15.75</ele><time>2026-04-29T16:27:33Z</time></trkpt><trkpt lat="41.9581840251302" lon="19.618636258519025"><ele>16.0</ele><time>2026-04-29T16:27:34Z</time></trkpt><trkpt lat="41.9582234627103" lon="19.61850882286609"><ele>16.2</ele><time>2026-04-29T16:27:35Z</time></trkpt><trkpt lat="41.95826901942609" lon="19.618400038862376"><ele>16.400000000000002</ele><time>2026-04-29T16:27:36Z</time></trkpt><trkpt lat="41.958331024570604" lon="19.61832268325677"><ele>16.6</ele><time>2026-04-29T16:27:37Z</time></trkpt><trkpt lat="41.95841722317749" lon="19.618306305597315"><ele>16.8</ele><time>2026-04-29T16:27:38Z</time></trkpt><trkpt lat="41.95850105235538" lon="19.618241922587742"><ele>17.0</ele><time>2026-04-29T16:27:39Z</time></trkpt><trkpt lat="41.958605927723006" lon="19.618203821916396"><ele>17.0</ele><time>2026-04-29T16:27:40Z</time></trkpt><trkpt lat="41.958719650217716" lon="19.61815346160226"><ele>17.0</ele><time>2026-04-29T16:27:41Z</time></trkpt><trkpt lat="41.95883937592024" lon="19.618101006470507"><ele>17.0</ele><time>2026-04-29T16:27:42Z</time></trkpt><trkpt lat="41.958957787927545" lon="19.618052006275235"><ele>17.0</ele><time>2026-04-29T16:27:43Z</time></trkpt><trkpt lat="41.9590592892437" lon="19.618011695044785"><ele>17.0</ele><time>2026-04-29T16:27:44Z</time></trkpt><trkpt lat="41.95915062174275" lon="19.61799968786108"><ele>17.0</ele><time>2026-04-29T16:27:45Z</time></trkpt><trkpt lat="41.959232675796514" lon="19.6179716614943"><ele>17.0</ele><time>2026-04-29T16:27:46Z</time></trkpt><trkpt lat="41.9593106416363" lon="19.61795093769658"><ele>17.0</ele><time>2026-04-29T16:27:47Z</time></trkpt><trkpt lat="41.959389852062266" lon="19.617931604003573"><ele>17.0</ele><time>2026-04-29T16:27:48Z</time></trkpt><trkpt lat="41.959465647401956" lon="19.617914794903086"><ele>17.0</ele><time>2026-04-29T16:27:49Z</time></trkpt><trkpt lat="41.95954756967403" lon="19.617898602693252"><ele>16.666666666666668</ele><time>2026-04-29T16:27:50Z</time></trkpt><trkpt lat="41.95962369533345" lon="19.617884392561646"><ele>16.333333333333336</ele><time>2026-04-29T16:27:51Z</time></trkpt><trkpt lat="41.95969647765266" lon="19.617866964027964"><ele>16.0</ele><time>2026-04-29T16:27:52Z</time></trkpt><trkpt lat="41.95976633082432" lon="19.61782061779557"><ele>15.666666666666668</ele><time>2026-04-29T16:27:53Z</time></trkpt><trkpt lat="41.95984331536749" lon="19.61776769420001"><ele>15.333333333333334</ele><time>2026-04-29T16:27:54Z</time></trkpt><trkpt lat="41.95990826286514" lon="19.617687115773798"><ele>15.0</ele><time>2026-04-29T16:27:55Z</time></trkpt><trkpt lat="41.95997251537434" lon="19.617587775637112"><ele>15.0</ele><time>2026-04-29T16:27:56Z</time></trkpt><trkpt lat="41.96006636765409" lon="19.61744887384772"><ele>15.0</ele><time>2026-04-29T16:27:57Z</time></trkpt><trkpt lat="41.96018362131424" lon="19.617262732201528"><ele>15.0</ele><time>2026-04-29T16:27:58Z</time></trkpt><trkpt lat="41.960316644261106" lon="19.61704491806765"><ele>15.666666666666668</ele><time>2026-04-29T16:27:59Z</time></trkpt><trkpt lat="41.960442350264096" lon="19.61683874638561"><ele>16.333333333333336</ele><time>2026-04-29T16:27:59.999Z</time></trkpt><trkpt lat="41.96054635283817" lon="19.616663627374493"><ele>17.0</ele><time>2026-04-29T16:28:00.999Z</time></trkpt><trkpt lat="41.96063981951993" lon="19.616520416010008"><ele>17.0</ele><time>2026-04-29T16:28:02Z</time></trkpt><trkpt lat="41.96072764644979" lon="19.616400180448185"><ele>17.0</ele><time>2026-04-29T16:28:03Z</time></trkpt><trkpt lat="41.96081650697846" lon="19.61628303776398"><ele>17.0</ele><time>2026-04-29T16:28:04Z</time></trkpt><trkpt lat="41.960911949717556" lon="19.616162671591994"><ele>17.0</ele><time>2026-04-29T16:28:05Z</time></trkpt><trkpt lat="41.96101909255991" lon="19.61604342671216"><ele>16.333333333333336</ele><time>2026-04-29T16:28:06Z</time></trkpt><trkpt lat="41.96114170083202" lon="19.61593065811433"><ele>15.666666666666668</ele><time>2026-04-29T16:28:07Z</time></trkpt><trkpt lat="41.96127507862008" lon="19.61582953143337"><ele>15.0</ele><time>2026-04-29T16:28:08Z</time></trkpt><trkpt lat="41.961413900577035" lon="19.615741868562793"><ele>15.0</ele><time>2026-04-29T16:28:09Z</time></trkpt><trkpt lat="41.96156205195308" lon="19.615658656118928"><ele>15.0</ele><time>2026-04-29T16:28:10Z</time></trkpt><trkpt lat="41.96171324718376" lon="19.615586629358013"><ele>15.0</ele><time>2026-04-29T16:28:11Z</time></trkpt><trkpt lat="41.96185217952141" lon="19.61551847032493"><ele>15.0</ele><time>2026-04-29T16:28:12Z</time></trkpt><trkpt lat="41.96200228145934" lon="19.61545239249076"><ele>15.0</ele><time>2026-04-29T16:28:13Z</time></trkpt><trkpt lat="41.96214441064678" lon="19.615384407898013"><ele>15.0</ele><time>2026-04-29T16:28:14Z</time></trkpt><trkpt lat="41.962271684039706" lon="19.615325218995213"><ele>15.0</ele><time>2026-04-29T16:28:15Z</time></trkpt><trkpt lat="41.96240197247878" lon="19.61526943262249"><ele>15.25</ele><time>2026-04-29T16:28:16Z</time></trkpt><trkpt lat="41.96253680485039" lon="19.615218605516105"><ele>15.5</ele><time>2026-04-29T16:28:17Z</time></trkpt><trkpt lat="41.96267289944117" lon="19.615182057312953"><ele>15.75</ele><time>2026-04-29T16:28:18Z</time></trkpt><trkpt lat="41.96279983114834" lon="19.615164601554483"><ele>16.0</ele><time>2026-04-29T16:28:19Z</time></trkpt><trkpt lat="41.9629236395608" lon="19.61515080197347"><ele>16.0</ele><time>2026-04-29T16:28:20Z</time></trkpt><trkpt lat="41.963057067176706" lon="19.615152699754525"><ele>16.0</ele><time>2026-04-29T16:28:21Z</time></trkpt><trkpt lat="41.96318065012072" lon="19.61520679829214"><ele>16.0</ele><time>2026-04-29T16:28:22Z</time></trkpt><trkpt lat="41.963299070246805" lon="19.615253975342664"><ele>16.0</ele><time>2026-04-29T16:28:23Z</time></trkpt><trkpt lat="41.963402012909896" lon="19.615295832308355"><ele>16.0</ele><time>2026-04-29T16:28:24Z</time></trkpt><trkpt lat="41.963497069921445" lon="19.615336455513127"><ele>16.0</ele><time>2026-04-29T16:28:25Z</time></trkpt><trkpt lat="41.963595954329115" lon="19.61538250740278"><ele>16.0</ele><time>2026-04-29T16:28:26Z</time></trkpt><trkpt lat="41.963684976165744" lon="19.61542367100787"><ele>16.0</ele><time>2026-04-29T16:28:27Z</time></trkpt><trkpt lat="41.96378296458719" lon="19.61546895815962"><ele>16.0</ele><time>2026-04-29T16:28:28Z</time></trkpt><trkpt lat="41.963907766602645" lon="19.61552418381845"><ele>16.0</ele><time>2026-04-29T16:28:29Z</time></trkpt><trkpt lat="41.964077037524085" lon="19.615593224892013"><ele>16.0</ele><time>2026-04-29T16:28:30Z</time></trkpt><trkpt lat="41.964199902525095" lon="19.61564311505256"><ele>16.0</ele><time>2026-04-29T16:28:31Z</time></trkpt><trkpt lat="41.96431954628374" lon="19.615691697287875"><ele>16.0</ele><time>2026-04-29T16:28:32Z</time></trkpt><trkpt lat="41.96446576667999" lon="19.6157503092227"><ele>16.0</ele><time>2026-04-29T16:28:33Z</time></trkpt><trkpt lat="41.964614516382206" lon="19.615809054185295"><ele>16.0</ele><time>2026-04-29T16:28:34Z</time></trkpt><trkpt lat="41.964758437884555" lon="19.615865892409218"><ele>16.0</ele><time>2026-04-29T16:28:35Z</time></trkpt><trkpt lat="41.964897893131536" lon="19.615920966732727"><ele>16.0</ele><time>2026-04-29T16:28:36Z</time></trkpt><trkpt lat="41.96501890838314" lon="19.615968758639458"><ele>16.0</ele><time>2026-04-29T16:28:37Z</time></trkpt><trkpt lat="41.965126903999526" lon="19.616011408766585"><ele>16.0</ele><time>2026-04-29T16:28:38Z</time></trkpt><trkpt lat="41.96523243291486" lon="19.61603105599756"><ele>16.0</ele><time>2026-04-29T16:28:39Z</time></trkpt><trkpt lat="41.96533317115017" lon="19.61608049240256"><ele>16.0</ele><time>2026-04-29T16:28:40Z</time></trkpt><trkpt lat="41.96539854053014" lon="19.61617422105214"><ele>16.0</ele><time>2026-04-29T16:28:41Z</time></trkpt><trkpt lat="41.96546460836948" lon="19.616273000783384"><ele>16.0</ele><time>2026-04-29T16:28:42Z</time></trkpt><trkpt lat="41.965540537391774" lon="19.616405090198572"><ele>16.0</ele><time>2026-04-29T16:28:43Z</time></trkpt><trkpt lat="41.96561484346948" lon="19.616563784470685"><ele>16.0</ele><time>2026-04-29T16:28:44Z</time></trkpt><trkpt lat="41.96568576370226" lon="19.61672272834171"><ele>16.0</ele><time>2026-04-29T16:28:45Z</time></trkpt><trkpt lat="41.965744869711635" lon="19.616854667550314"><ele>16.0</ele><time>2026-04-29T16:28:46Z</time></trkpt><trkpt lat="41.96579642207689" lon="19.616968321191006"><ele>16.0</ele><time>2026-04-29T16:28:47Z</time></trkpt><trkpt lat="41.96584423629849" lon="19.61707189404107"><ele>16.0</ele><time>2026-04-29T16:28:48Z</time></trkpt><trkpt lat="41.96589854578968" lon="19.617178812671455"><ele>16.400000000000002</ele><time>2026-04-29T16:28:49Z</time></trkpt><trkpt lat="41.965963982272285" lon="19.617287703982484"><ele>16.8</ele><time>2026-04-29T16:28:50Z</time></trkpt><trkpt lat="41.96602398956192" lon="19.617382597268733"><ele>17.200000000000003</ele><time>2026-04-29T16:28:51Z</time></trkpt><trkpt lat="41.9660765333886" lon="19.617467191950904"><ele>17.6</ele><time>2026-04-29T16:28:52Z</time></trkpt><trkpt lat="41.96613091779369" lon="19.617558821804234"><ele>18.0</ele><time>2026-04-29T16:28:53Z</time></trkpt><trkpt lat="41.96618097687258" lon="19.61766362786876"><ele>18.0</ele><time>2026-04-29T16:28:54Z</time></trkpt><trkpt lat="41.96622092840127" lon="19.617792842305164"><ele>18.0</ele><time>2026-04-29T16:28:55Z</time></trkpt><trkpt lat="41.96625161103665" lon="19.617903077800413"><ele>18.0</ele><time>2026-04-29T16:28:56Z</time></trkpt><trkpt lat="41.96627628805504" lon="19.618015719653588"><ele>18.0</ele><time>2026-04-29T16:28:57Z</time></trkpt><trkpt lat="41.96629312966021" lon="19.618124077342245"><ele>18.0</ele><time>2026-04-29T16:28:58Z</time></trkpt><trkpt lat="41.96627424648361" lon="19.61824972836897"><ele>18.0</ele><time>2026-04-29T16:29:00Z</time></trkpt><trkpt lat="41.966283727809284" lon="19.618371685842177"><ele>18.0</ele><time>2026-04-29T16:29:02Z</time></trkpt><trkpt lat="41.96637126191666" lon="19.6184067988549"><ele>18.0</ele><time>2026-04-29T16:29:03Z</time></trkpt><trkpt lat="41.9664513904589" lon="19.61838939710663"><ele>18.0</ele><time>2026-04-29T16:29:04Z</time></trkpt><trkpt lat="41.96653089538388" lon="19.618372659195714"><ele>18.0</ele><time>2026-04-29T16:29:05Z</time></trkpt><trkpt lat="41.96662448146593" lon="19.618378427784922"><ele>18.0</ele><time>2026-04-29T16:29:06Z</time></trkpt><trkpt lat="41.96672911890494" lon="19.618385872212023"><ele>17.666666666666668</ele><time>2026-04-29T16:29:07Z</time></trkpt><trkpt lat="41.96684598127194" lon="19.61839352892617"><ele>17.333333333333336</ele><time>2026-04-29T16:29:08Z</time></trkpt><trkpt lat="41.96699494672071" lon="19.618403002885103"><ele>17.0</ele><time>2026-04-29T16:29:09Z</time></trkpt><trkpt lat="41.96720885747862" lon="19.618416607248832"><ele>17.0</ele><time>2026-04-29T16:29:10Z</time></trkpt><trkpt lat="41.96746133762012" lon="19.618432664568292"><ele>17.0</ele><time>2026-04-29T16:29:11Z</time></trkpt><trkpt lat="41.96774051684344" lon="19.61845264325377"><ele>17.0</ele><time>2026-04-29T16:29:12Z</time></trkpt><trkpt lat="41.96796160557859" lon="19.618449610983536"><ele>17.0</ele><time>2026-04-29T16:29:13Z</time></trkpt><trkpt lat="41.96815750247404" lon="19.618463350713547"><ele>17.0</ele><time>2026-04-29T16:29:14Z</time></trkpt><trkpt lat="41.968331263952884" lon="19.618476818544604"><ele>16.75</ele><time>2026-04-29T16:29:15Z</time></trkpt><trkpt lat="41.96848702623169" lon="19.618488958463445"><ele>16.5</ele><time>2026-04-29T16:29:16Z</time></trkpt><trkpt lat="41.968633062199594" lon="19.618498934965917"><ele>16.25</ele><time>2026-04-29T16:29:17Z</time></trkpt><trkpt lat="41.96876816913985" lon="19.61851445998039"><ele>16.0</ele><time>2026-04-29T16:29:18Z</time></trkpt><trkpt lat="41.96888865418169" lon="19.618520146865862"><ele>16.0</ele><time>2026-04-29T16:29:19Z</time></trkpt><trkpt lat="41.969007318010746" lon="19.6185284747524"><ele>16.0</ele><time>2026-04-29T16:29:20Z</time></trkpt><trkpt lat="41.96913032550194" lon="19.61853399531469"><ele>16.0</ele><time>2026-04-29T16:29:21Z</time></trkpt><trkpt lat="41.9692428759746" lon="19.61854239086313"><ele>16.0</ele><time>2026-04-29T16:29:22Z</time></trkpt><trkpt lat="41.96935893448194" lon="19.618548434217704"><ele>15.75</ele><time>2026-04-29T16:29:23Z</time></trkpt><trkpt lat="41.96945501758975" lon="19.618553695465046"><ele>15.5</ele><time>2026-04-29T16:29:24Z</time></trkpt><trkpt lat="41.96957093197841" lon="19.61855913280863"><ele>15.25</ele><time>2026-04-29T16:29:25Z</time></trkpt><trkpt lat="41.969694918730134" lon="19.61856770588991"><ele>15.0</ele><time>2026-04-29T16:29:26Z</time></trkpt><trkpt lat="41.96981997251142" lon="19.618569255982983"><ele>15.0</ele><time>2026-04-29T16:29:27Z</time></trkpt><trkpt lat="41.969955837872426" lon="19.618595676603324"><ele>15.0</ele><time>2026-04-29T16:29:28Z</time></trkpt><trkpt lat="41.97011263407806" lon="19.61860469780255"><ele>15.0</ele><time>2026-04-29T16:29:29Z</time></trkpt><trkpt lat="41.970310321295244" lon="19.618615350989977"><ele>14.666666666666668</ele><time>2026-04-29T16:29:30Z</time></trkpt><trkpt lat="41.970530127115154" lon="19.6186271961295"><ele>14.333333333333334</ele><time>2026-04-29T16:29:31Z</time></trkpt><trkpt lat="41.97071598501752" lon="19.61862497188503"><ele>14.0</ele><time>2026-04-29T16:29:32Z</time></trkpt><trkpt lat="41.97087866782882" lon="19.618626974425514"><ele>14.666666666666668</ele><time>2026-04-29T16:29:33Z</time></trkpt><trkpt lat="41.971040251125345" lon="19.61861529984791"><ele>15.333333333333332</ele><time>2026-04-29T16:29:34Z</time></trkpt><trkpt lat="41.97121590208959" lon="19.61858921802273"><ele>16.0</ele><time>2026-04-29T16:29:35Z</time></trkpt><trkpt lat="41.971400785673154" lon="19.61854754779352"><ele>16.0</ele><time>2026-04-29T16:29:36Z</time></trkpt><trkpt lat="41.971594691156405" lon="19.618492851165215"><ele>16.0</ele><time>2026-04-29T16:29:37Z</time></trkpt><trkpt lat="41.97179774284425" lon="19.61843162688536"><ele>16.0</ele><time>2026-04-29T16:29:38Z</time></trkpt><trkpt lat="41.97200411276617" lon="19.618371564258858"><ele>16.333333333333332</ele><time>2026-04-29T16:29:39Z</time></trkpt><trkpt lat="41.9722139450383" lon="19.618312418206216"><ele>16.666666666666668</ele><time>2026-04-29T16:29:40Z</time></trkpt><trkpt lat="41.9724335285962" lon="19.61825274806448"><ele>17.0</ele><time>2026-04-29T16:29:41Z</time></trkpt><trkpt lat="41.972657235651525" lon="19.618194278241898"><ele>17.0</ele><time>2026-04-29T16:29:42Z</time></trkpt><trkpt lat="41.97286197516692" lon="19.618143623152882"><ele>17.0</ele><time>2026-04-29T16:29:43Z</time></trkpt><trkpt lat="41.97305427008193" lon="19.61809577051264"><ele>17.0</ele><time>2026-04-29T16:29:44Z</time></trkpt><trkpt lat="41.9732516026291" lon="19.618045467309827"><ele>18.0</ele><time>2026-04-29T16:29:45Z</time></trkpt><trkpt lat="41.97345103668686" lon="19.6179963955507"><ele>19.0</ele><time>2026-04-29T16:29:46Z</time></trkpt><trkpt lat="41.97365501275245" lon="19.6179445130609"><ele>20.0</ele><time>2026-04-29T16:29:47Z</time></trkpt><trkpt lat="41.97386465511837" lon="19.617895394783975"><ele>20.0</ele><time>2026-04-29T16:29:48Z</time></trkpt><trkpt lat="41.974079876240594" lon="19.617869081539883"><ele>20.0</ele><time>2026-04-29T16:29:49Z</time></trkpt><trkpt lat="41.97428534002384" lon="19.617886319764832"><ele>20.0</ele><time>2026-04-29T16:29:50Z</time></trkpt><trkpt lat="41.974473956650314" lon="19.617866778607485"><ele>20.0</ele><time>2026-04-29T16:29:51Z</time></trkpt><trkpt lat="41.97465047946821" lon="19.617892474029595"><ele>20.0</ele><time>2026-04-29T16:29:52Z</time></trkpt><trkpt lat="41.97482090766051" lon="19.617898134954594"><ele>20.0</ele><time>2026-04-29T16:29:53Z</time></trkpt><trkpt lat="41.97499759735645" lon="19.617903771754648"><ele>19.333333333333336</ele><time>2026-04-29T16:29:54Z</time></trkpt><trkpt lat="41.97517851873474" lon="19.61790954355085"><ele>18.666666666666668</ele><time>2026-04-29T16:29:55Z</time></trkpt><trkpt lat="41.97536246831491" lon="19.617915359664064"><ele>18.0</ele><time>2026-04-29T16:29:56Z</time></trkpt><trkpt lat="41.97555098870772" lon="19.617921023697246"><ele>18.0</ele><time>2026-04-29T16:29:57Z</time></trkpt><trkpt lat="41.975739653514545" lon="19.617926692064657"><ele>18.0</ele><time>2026-04-29T16:29:58Z</time></trkpt><trkpt lat="41.975927196832416" lon="19.61793249282842"><ele>18.0</ele><time>2026-04-29T16:29:59Z</time></trkpt><trkpt lat="41.97611932533194" lon="19.617938583491764"><ele>18.0</ele><time>2026-04-29T16:30:00Z</time></trkpt><trkpt lat="41.97630835591472" lon="19.6179445758352"><ele>18.0</ele><time>2026-04-29T16:30:01Z</time></trkpt><trkpt lat="41.97647900979556" lon="19.617916601809625"><ele>18.0</ele><time>2026-04-29T16:30:02Z</time></trkpt><trkpt lat="41.97663332593003" lon="19.617919263654162"><ele>17.75</ele><time>2026-04-29T16:30:02.999Z</time></trkpt><trkpt lat="41.97676949248551" lon="19.617924645027188"><ele>17.5</ele><time>2026-04-29T16:30:03.999Z</time></trkpt><trkpt lat="41.97688762726487" lon="19.617934837032134"><ele>17.25</ele><time>2026-04-29T16:30:04.999Z</time></trkpt><trkpt lat="41.97700390035439" lon="19.61794006352756"><ele>17.0</ele><time>2026-04-29T16:30:05.999Z</time></trkpt><trkpt lat="41.97711228481012" lon="19.617953812182453"><ele>17.0</ele><time>2026-04-29T16:30:07Z</time></trkpt><trkpt lat="41.977220094047944" lon="19.617982387023012"><ele>17.0</ele><time>2026-04-29T16:30:08Z</time></trkpt><trkpt lat="41.97732972737343" lon="19.618018328190036"><ele>17.0</ele><time>2026-04-29T16:30:09Z</time></trkpt><trkpt lat="41.97743435672678" lon="19.61805088563383"><ele>17.0</ele><time>2026-04-29T16:30:10Z</time></trkpt><trkpt lat="41.97754126703812" lon="19.618082482100412"><ele>17.0</ele><time>2026-04-29T16:30:11Z</time></trkpt><trkpt lat="41.97765765721366" lon="19.618121507660526"><ele>17.0</ele><time>2026-04-29T16:30:12Z</time></trkpt><trkpt lat="41.977778609563956" lon="19.618172805529607"><ele>17.0</ele><time>2026-04-29T16:30:13Z</time></trkpt><trkpt lat="41.97790650684095" lon="19.61821989920491"><ele>17.0</ele><time>2026-04-29T16:30:14Z</time></trkpt><trkpt lat="41.97804133986848" lon="19.61826429139132"><ele>17.0</ele><time>2026-04-29T16:30:15Z</time></trkpt><trkpt lat="41.97817730928467" lon="19.61830594324249"><ele>17.0</ele><time>2026-04-29T16:30:16Z</time></trkpt><trkpt lat="41.97831314178215" lon="19.618352516610074"><ele>17.0</ele><time>2026-04-29T16:30:17Z</time></trkpt><trkpt lat="41.978436347044976" lon="19.618394941325697"><ele>17.0</ele><time>2026-04-29T16:30:18Z</time></trkpt><trkpt lat="41.97855181180949" lon="19.618432370599372"><ele>17.0</ele><time>2026-04-29T16:30:19Z</time></trkpt><trkpt lat="41.97866149443148" lon="19.61847037701943"><ele>17.4</ele><time>2026-04-29T16:30:20Z</time></trkpt><trkpt lat="41.97876476437971" lon="19.618505447633776"><ele>17.799999999999997</ele><time>2026-04-29T16:30:21Z</time></trkpt><trkpt lat="41.978851840238214" lon="19.618539089505"><ele>18.2</ele><time>2026-04-29T16:30:22Z</time></trkpt><trkpt lat="41.978938594888746" lon="19.618566127299395"><ele>18.599999999999998</ele><time>2026-04-29T16:30:23Z</time></trkpt><trkpt lat="41.979029780934844" lon="19.618597472059566"><ele>19.0</ele><time>2026-04-29T16:30:24Z</time></trkpt><trkpt lat="41.97911810110563" lon="19.618651321997373"><ele>18.5</ele><time>2026-04-29T16:30:25Z</time></trkpt><trkpt lat="41.97922715006123" lon="19.6186762220488"><ele>18.0</ele><time>2026-04-29T16:30:26Z</time></trkpt><trkpt lat="41.97933791402234" lon="19.61870694757127"><ele>17.5</ele><time>2026-04-29T16:30:27Z</time></trkpt><trkpt lat="41.9794563026306" lon="19.618738028796585"><ele>17.0</ele><time>2026-04-29T16:30:28Z</time></trkpt><trkpt lat="41.97958618994923" lon="19.61876590679448"><ele>17.0</ele><time>2026-04-29T16:30:29Z</time></trkpt><trkpt lat="41.97972332968354" lon="19.618788398554756"><ele>17.0</ele><time>2026-04-29T16:30:30Z</time></trkpt><trkpt lat="41.97986975258891" lon="19.618812556703496"><ele>17.0</ele><time>2026-04-29T16:30:31Z</time></trkpt><trkpt lat="41.98002413058552" lon="19.618838027337684"><ele>17.0</ele><time>2026-04-29T16:30:32Z</time></trkpt><trkpt lat="41.98019208361371" lon="19.618861761295506"><ele>16.666666666666668</ele><time>2026-04-29T16:30:33Z</time></trkpt><trkpt lat="41.98037298290509" lon="19.618877486969968"><ele>16.333333333333332</ele><time>2026-04-29T16:30:34Z</time></trkpt><trkpt lat="41.980581625684145" lon="19.618895624395094"><ele>16.0</ele><time>2026-04-29T16:30:35Z</time></trkpt><trkpt lat="41.980808195237515" lon="19.618915320195796"><ele>17.0</ele><time>2026-04-29T16:30:36Z</time></trkpt><trkpt lat="41.981052991571474" lon="19.618936600468817"><ele>18.0</ele><time>2026-04-29T16:30:37Z</time></trkpt><trkpt lat="41.98130406986163" lon="19.6189438039228"><ele>18.0</ele><time>2026-04-29T16:30:38Z</time></trkpt><trkpt lat="41.981564222973844" lon="19.618983177227648"><ele>18.0</ele><time>2026-04-29T16:30:39Z</time></trkpt><trkpt lat="41.98180642548825" lon="19.6190226381825"><ele>17.666666666666668</ele><time>2026-04-29T16:30:40Z</time></trkpt><trkpt lat="41.982024494017686" lon="19.619064517930344"><ele>17.333333333333336</ele><time>2026-04-29T16:30:41Z</time></trkpt><trkpt lat="41.98222996906948" lon="19.619153623927804"><ele>17.0</ele><time>2026-04-29T16:30:42Z</time></trkpt><trkpt lat="41.98244471603311" lon="19.61922365011061"><ele>17.666666666666668</ele><time>2026-04-29T16:30:43Z</time></trkpt><trkpt lat="41.982652196738414" lon="19.619317410150302"><ele>18.333333333333332</ele><time>2026-04-29T16:30:44Z</time></trkpt><trkpt lat="41.98286082165627" lon="19.619403895313788"><ele>19.0</ele><time>2026-04-29T16:30:45Z</time></trkpt><trkpt lat="41.98305142886947" lon="19.619476398127187"><ele>19.0</ele><time>2026-04-29T16:30:46Z</time></trkpt><trkpt lat="41.983234452385574" lon="19.619543903142883"><ele>19.0</ele><time>2026-04-29T16:30:47Z</time></trkpt><trkpt lat="41.98342058890181" lon="19.619611748807188"><ele>19.0</ele><time>2026-04-29T16:30:48Z</time></trkpt><trkpt lat="41.983607623580674" lon="19.61968420034047"><ele>18.333333333333332</ele><time>2026-04-29T16:30:49Z</time></trkpt><trkpt lat="41.983783504602776" lon="19.61975508311191"><ele>17.666666666666668</ele><time>2026-04-29T16:30:50Z</time></trkpt><trkpt lat="41.98392926795226" lon="19.619808875155275"><ele>17.0</ele><time>2026-04-29T16:30:51Z</time></trkpt><trkpt lat="41.98406823654244" lon="19.61986267248"><ele>17.0</ele><time>2026-04-29T16:30:52Z</time></trkpt><trkpt lat="41.984218814843956" lon="19.619921147074308"><ele>17.0</ele><time>2026-04-29T16:30:53Z</time></trkpt><trkpt lat="41.98441138651451" lon="19.61999416352002"><ele>17.0</ele><time>2026-04-29T16:30:54Z</time></trkpt><trkpt lat="41.98460743388408" lon="19.62006592367783"><ele>17.0</ele><time>2026-04-29T16:30:55Z</time></trkpt><trkpt lat="41.98478093243579" lon="19.620131661140952"><ele>17.0</ele><time>2026-04-29T16:30:56Z</time></trkpt><trkpt lat="41.98494692272657" lon="19.620194005919966"><ele>17.0</ele><time>2026-04-29T16:30:57Z</time></trkpt><trkpt lat="41.98511191355635" lon="19.620259225179428"><ele>16.666666666666668</ele><time>2026-04-29T16:30:58Z</time></trkpt><trkpt lat="41.98528189280107" lon="19.62032794838323"><ele>16.333333333333332</ele><time>2026-04-29T16:30:59Z</time></trkpt><trkpt lat="41.98544443851549" lon="19.62039466454486"><ele>16.0</ele><time>2026-04-29T16:31:00Z</time></trkpt><trkpt lat="41.9856125236735" lon="19.62046404946009"><ele>16.0</ele><time>2026-04-29T16:31:01Z</time></trkpt><trkpt lat="41.985783516174145" lon="19.620537202496813"><ele>16.0</ele><time>2026-04-29T16:31:02Z</time></trkpt><trkpt lat="41.98595246496187" lon="19.62060403617756"><ele>16.0</ele><time>2026-04-29T16:31:03Z</time></trkpt><trkpt lat="41.98610470179286" lon="19.620661941237508"><ele>15.75</ele><time>2026-04-29T16:31:04Z</time></trkpt><trkpt lat="41.98624213701087" lon="19.620710778354166"><ele>15.5</ele><time>2026-04-29T16:31:05Z</time></trkpt><trkpt lat="41.98637807136193" lon="19.620747237191758"><ele>15.25</ele><time>2026-04-29T16:31:06Z</time></trkpt><trkpt lat="41.98651875233729" lon="19.620741035236442"><ele>15.0</ele><time>2026-04-29T16:31:07Z</time></trkpt><trkpt lat="41.98666656501109" lon="19.620689184831324"><ele>15.0</ele><time>2026-04-29T16:31:08Z</time></trkpt><trkpt lat="41.98682061322971" lon="19.620600755763"><ele>15.0</ele><time>2026-04-29T16:31:09Z</time></trkpt><trkpt lat="41.98697931904429" lon="19.62048097646467"><ele>15.0</ele><time>2026-04-29T16:31:10Z</time></trkpt><trkpt lat="41.9871393993783" lon="19.62033436315679"><ele>15.333333333333332</ele><time>2026-04-29T16:31:11Z</time></trkpt><trkpt lat="41.98730730221048" lon="19.620174344212145"><ele>15.666666666666666</ele><time>2026-04-29T16:31:12Z</time></trkpt><trkpt lat="41.98748813134422" lon="19.62001024012308"><ele>16.0</ele><time>2026-04-29T16:31:13Z</time></trkpt><trkpt lat="41.98766956776046" lon="19.6198588803637"><ele>16.666666666666664</ele><time>2026-04-29T16:31:14Z</time></trkpt><trkpt lat="41.987845618861066" lon="19.61972674630975"><ele>17.333333333333332</ele><time>2026-04-29T16:31:15Z</time></trkpt><trkpt lat="41.98801682779816" lon="19.619592746806006"><ele>18.0</ele><time>2026-04-29T16:31:16Z</time></trkpt><trkpt lat="41.98817879643043" lon="19.619453747458067"><ele>18.0</ele><time>2026-04-29T16:31:17Z</time></trkpt><trkpt lat="41.98832642476858" lon="19.61932178330123"><ele>18.0</ele><time>2026-04-29T16:31:18Z</time></trkpt><trkpt lat="41.98847570902561" lon="19.619192205775978"><ele>18.0</ele><time>2026-04-29T16:31:19Z</time></trkpt><trkpt lat="41.9886289488977" lon="19.619063224052223"><ele>18.0</ele><time>2026-04-29T16:31:20Z</time></trkpt><trkpt lat="41.98878039984641" lon="19.61893429856787"><ele>18.0</ele><time>2026-04-29T16:31:21Z</time></trkpt><trkpt lat="41.98892425020586" lon="19.6188115058733"><ele>18.0</ele><time>2026-04-29T16:31:22Z</time></trkpt><trkpt lat="41.989069888232464" lon="19.618684008962227"><ele>18.0</ele><time>2026-04-29T16:31:23Z</time></trkpt><trkpt lat="41.989218406911384" lon="19.61855295274657"><ele>18.0</ele><time>2026-04-29T16:31:24Z</time></trkpt><trkpt lat="41.9893711013596" lon="19.61841871013997"><ele>18.0</ele><time>2026-04-29T16:31:25Z</time></trkpt><trkpt lat="41.989519248564356" lon="19.618288618251206"><ele>18.0</ele><time>2026-04-29T16:31:26Z</time></trkpt><trkpt lat="41.98965150828933" lon="19.618170543516722"><ele>18.0</ele><time>2026-04-29T16:31:27Z</time></trkpt><trkpt lat="41.98977392835025" lon="19.618060553754372"><ele>18.0</ele><time>2026-04-29T16:31:28Z</time></trkpt><trkpt lat="41.989888080175795" lon="19.617958908210333"><ele>18.0</ele><time>2026-04-29T16:31:29Z</time></trkpt><trkpt lat="41.98999368632499" lon="19.617865865581308"><ele>17.75</ele><time>2026-04-29T16:31:30Z</time></trkpt><trkpt lat="41.990099431256695" lon="19.61777836799594"><ele>17.5</ele><time>2026-04-29T16:31:31Z</time></trkpt><trkpt lat="41.99020344682403" lon="19.617697847595064"><ele>17.25</ele><time>2026-04-29T16:31:32Z</time></trkpt><trkpt lat="41.99032157684671" lon="19.617621876884254"><ele>17.0</ele><time>2026-04-29T16:31:33Z</time></trkpt><trkpt lat="41.99045618236845" lon="19.617584308061346"><ele>17.0</ele><time>2026-04-29T16:31:34Z</time></trkpt><trkpt lat="41.99058334833208" lon="19.617539750172803"><ele>17.0</ele><time>2026-04-29T16:31:35Z</time></trkpt><trkpt lat="41.99070534201951" lon="19.61749633205675"><ele>17.0</ele><time>2026-04-29T16:31:36Z</time></trkpt><trkpt lat="41.99083670259024" lon="19.61744928877088"><ele>17.0</ele><time>2026-04-29T16:31:37Z</time></trkpt><trkpt lat="41.9909815100171" lon="19.61739742987724"><ele>17.333333333333336</ele><time>2026-04-29T16:31:38Z</time></trkpt><trkpt lat="41.99113767752201" lon="19.61734180295294"><ele>17.666666666666668</ele><time>2026-04-29T16:31:39Z</time></trkpt><trkpt lat="41.9913101669599" lon="19.617280467251966"><ele>18.0</ele><time>2026-04-29T16:31:40Z</time></trkpt><trkpt lat="41.99149634619754" lon="19.617222004959658"><ele>18.0</ele><time>2026-04-29T16:31:41Z</time></trkpt><trkpt lat="41.99169065766347" lon="19.61716207596717"><ele>18.0</ele><time>2026-04-29T16:31:42Z</time></trkpt><trkpt lat="41.99189066690029" lon="19.617100391328066"><ele>18.0</ele><time>2026-04-29T16:31:43Z</time></trkpt><trkpt lat="41.99209179624387" lon="19.6170383247279"><ele>17.0</ele><time>2026-04-29T16:31:44Z</time></trkpt><trkpt lat="41.99227376750274" lon="19.616964620693324"><ele>16.0</ele><time>2026-04-29T16:31:45Z</time></trkpt><trkpt lat="41.99246070481016" lon="19.616905674932827"><ele>15.0</ele><time>2026-04-29T16:31:46Z</time></trkpt><trkpt lat="41.992649286573005" lon="19.61684587728604"><ele>15.0</ele><time>2026-04-29T16:31:47Z</time></trkpt><trkpt lat="41.99284427980385" lon="19.61678604449627"><ele>15.0</ele><time>2026-04-29T16:31:48Z</time></trkpt><trkpt lat="41.99304291107497" lon="19.616720209478423"><ele>15.0</ele><time>2026-04-29T16:31:49Z</time></trkpt><trkpt lat="41.99324233754831" lon="19.616654531474126"><ele>15.666666666666668</ele><time>2026-04-29T16:31:50Z</time></trkpt><trkpt lat="41.99344540779209" lon="19.616590017487237"><ele>16.333333333333336</ele><time>2026-04-29T16:31:51Z</time></trkpt><trkpt lat="41.99364902631316" lon="19.61652511451631"><ele>17.0</ele><time>2026-04-29T16:31:52Z</time></trkpt><trkpt lat="41.99385595149315" lon="19.61645776914185"><ele>17.0</ele><time>2026-04-29T16:31:53Z</time></trkpt><trkpt lat="41.99406326036954" lon="19.616389470011683"><ele>17.0</ele><time>2026-04-29T16:31:54Z</time></trkpt><trkpt lat="41.99427251451078" lon="19.61631865164691"><ele>17.0</ele><time>2026-04-29T16:31:55Z</time></trkpt><trkpt lat="41.99446944056324" lon="19.616255814463607"><ele>17.0</ele><time>2026-04-29T16:31:56Z</time></trkpt><trkpt lat="41.99466281366226" lon="19.616193132386"><ele>17.0</ele><time>2026-04-29T16:31:57Z</time></trkpt><trkpt lat="41.9948585974557" lon="19.61613125306886"><ele>17.0</ele><time>2026-04-29T16:31:58Z</time></trkpt><trkpt lat="41.99505942668167" lon="19.616063710186808"><ele>17.0</ele><time>2026-04-29T16:31:59Z</time></trkpt><trkpt lat="41.99526373545806" lon="19.615995834929713"><ele>17.0</ele><time>2026-04-29T16:32:00Z</time></trkpt><trkpt lat="41.995475384378835" lon="19.6159277920162"><ele>17.0</ele><time>2026-04-29T16:32:01Z</time></trkpt><trkpt lat="41.99568644135973" lon="19.615858163082756"><ele>18.0</ele><time>2026-04-29T16:32:02Z</time></trkpt><trkpt lat="41.99588036178437" lon="19.615795465915873"><ele>19.0</ele><time>2026-04-29T16:32:03Z</time></trkpt><trkpt lat="41.99605963696712" lon="19.615734290624015"><ele>20.0</ele><time>2026-04-29T16:32:04Z</time></trkpt><trkpt lat="41.996231886018826" lon="19.615676951042392"><ele>20.0</ele><time>2026-04-29T16:32:04.999Z</time></trkpt><trkpt lat="41.99639295829122" lon="19.615622909458498"><ele>20.0</ele><time>2026-04-29T16:32:05.999Z</time></trkpt><trkpt lat="41.99654231727959" lon="19.615574296800386"><ele>20.0</ele><time>2026-04-29T16:32:06.999Z</time></trkpt><trkpt lat="41.99668977550584" lon="19.615529659178314"><ele>19.75</ele><time>2026-04-29T16:32:07.999Z</time></trkpt><trkpt lat="41.99684343537156" lon="19.615480889942315"><ele>19.5</ele><time>2026-04-29T16:32:08.999Z</time></trkpt><trkpt lat="41.996987372325314" lon="19.615436408240388"><ele>19.25</ele><time>2026-04-29T16:32:09.999Z</time></trkpt><trkpt lat="41.99711500224812" lon="19.615396746900803"><ele>19.0</ele><time>2026-04-29T16:32:10.999Z</time></trkpt><trkpt lat="41.9972258222243" lon="19.615363242213046"><ele>19.0</ele><time>2026-04-29T16:32:12Z</time></trkpt><trkpt lat="41.99731451200137" lon="19.615339940595064"><ele>19.0</ele><time>2026-04-29T16:32:13Z</time></trkpt><trkpt lat="41.997385188873324" lon="19.615317433172393"><ele>19.0</ele><time>2026-04-29T16:32:14Z</time></trkpt><trkpt lat="41.997452496187705" lon="19.615296097927178"><ele>19.0</ele><time>2026-04-29T16:32:15Z</time></trkpt><trkpt lat="41.99755140043587" lon="19.61527350642876"><ele>19.0</ele><time>2026-04-29T16:32:17Z</time></trkpt><trkpt lat="41.99761372325034" lon="19.615255602887412"><ele>19.0</ele><time>2026-04-29T16:32:19Z</time></trkpt><trkpt lat="41.9976767411063" lon="19.61522068554349"><ele>18.8</ele><time>2026-04-29T16:32:21Z</time></trkpt><trkpt lat="41.9976556528483" lon="19.61500929909411"><ele>18.599999999999998</ele><time>2026-04-29T16:32:32Z</time></trkpt><trkpt lat="41.99760087561127" lon="19.614932164317118"><ele>18.4</ele><time>2026-04-29T16:32:33Z</time></trkpt><trkpt lat="41.997541309351064" lon="19.614830274575745"><ele>18.2</ele><time>2026-04-29T16:32:34Z</time></trkpt><trkpt lat="41.997468581400575" lon="19.61471331454422"><ele>18.0</ele><time>2026-04-29T16:32:35Z</time></trkpt><trkpt lat="41.997387286265464" lon="19.614585703817422"><ele>18.0</ele><time>2026-04-29T16:32:36Z</time></trkpt><trkpt lat="41.99730265155393" lon="19.61445878460704"><ele>18.0</ele><time>2026-04-29T16:32:37Z</time></trkpt><trkpt lat="41.99722261545431" lon="19.614339791787874"><ele>18.0</ele><time>2026-04-29T16:32:38Z</time></trkpt><trkpt lat="41.99713987032619" lon="19.614211112275818"><ele>18.0</ele><time>2026-04-29T16:32:39Z</time></trkpt><trkpt lat="41.99705533040062" lon="19.61407809542294"><ele>18.0</ele><time>2026-04-29T16:32:40Z</time></trkpt><trkpt lat="41.99697557548242" lon="19.613955321004468"><ele>18.0</ele><time>2026-04-29T16:32:41Z</time></trkpt><trkpt lat="41.996896840413875" lon="19.613835889504287"><ele>18.0</ele><time>2026-04-29T16:32:42Z</time></trkpt><trkpt lat="41.99681725188608" lon="19.613715431755097"><ele>18.0</ele><time>2026-04-29T16:32:43Z</time></trkpt><trkpt lat="41.996739451227505" lon="19.61359598486264"><ele>18.0</ele><time>2026-04-29T16:32:44Z</time></trkpt><trkpt lat="41.996670669210914" lon="19.61348537395671"><ele>18.0</ele><time>2026-04-29T16:32:45Z</time></trkpt><trkpt lat="41.99659914361628" lon="19.61337046843072"><ele>18.0</ele><time>2026-04-29T16:32:46Z</time></trkpt><trkpt lat="41.99651813505495" lon="19.61324921382902"><ele>18.0</ele><time>2026-04-29T16:32:47Z</time></trkpt><trkpt lat="41.99644034774436" lon="19.613133590454858"><ele>18.0</ele><time>2026-04-29T16:32:48Z</time></trkpt><trkpt lat="41.996366527924145" lon="19.613021103105712"><ele>18.0</ele><time>2026-04-29T16:32:49Z</time></trkpt><trkpt lat="41.996287007036614" lon="19.612900321211516"><ele>18.0</ele><time>2026-04-29T16:32:50Z</time></trkpt><trkpt lat="41.99621334053365" lon="19.612788758033002"><ele>18.0</ele><time>2026-04-29T16:32:51Z</time></trkpt><trkpt lat="41.99614744188468" lon="19.612683774657583"><ele>18.0</ele><time>2026-04-29T16:32:52Z</time></trkpt><trkpt lat="41.99608688231748" lon="19.612590750510634"><ele>18.0</ele><time>2026-04-29T16:32:53Z</time></trkpt><trkpt lat="41.996033581006955" lon="19.612505435677743"><ele>18.0</ele><time>2026-04-29T16:32:54Z</time></trkpt><trkpt lat="41.99600628324294" lon="19.612428379322314"><ele>18.0</ele><time>2026-04-29T16:32:55Z</time></trkpt><trkpt lat="41.9960118449802" lon="19.612257081620733"><ele>18.0</ele><time>2026-04-29T16:32:57Z</time></trkpt><trkpt lat="41.99605807464927" lon="19.61215571463538"><ele>18.0</ele><time>2026-04-29T16:32:58Z</time></trkpt><trkpt lat="41.996082875971766" lon="19.612022184803006"><ele>18.5</ele><time>2026-04-29T16:32:59Z</time></trkpt><trkpt lat="41.996157673449865" lon="19.611907804088474"><ele>19.0</ele><time>2026-04-29T16:33:00Z</time></trkpt><trkpt lat="41.99623919786716" lon="19.61178014504104"><ele>19.5</ele><time>2026-04-29T16:33:01Z</time></trkpt><trkpt lat="41.9963315764925" lon="19.61163752349367"><ele>20.0</ele><time>2026-04-29T16:33:02Z</time></trkpt><trkpt lat="41.996431601420554" lon="19.611485579796625"><ele>20.0</ele><time>2026-04-29T16:33:03Z</time></trkpt><trkpt lat="41.99651727018431" lon="19.61133917582286"><ele>20.0</ele><time>2026-04-29T16:33:04Z</time></trkpt><trkpt lat="41.996609625857495" lon="19.611179800256156"><ele>20.0</ele><time>2026-04-29T16:33:05Z</time></trkpt><trkpt lat="41.99670777072917" lon="19.611010434434935"><ele>20.0</ele><time>2026-04-29T16:33:06Z</time></trkpt><trkpt lat="41.99681511431086" lon="19.610825194618446"><ele>19.666666666666668</ele><time>2026-04-29T16:33:07Z</time></trkpt><trkpt lat="41.996906570381654" lon="19.610608551032325"><ele>19.333333333333332</ele><time>2026-04-29T16:33:08Z</time></trkpt><trkpt lat="41.99702233128522" lon="19.61039393589476"><ele>19.0</ele><time>2026-04-29T16:33:09Z</time></trkpt><trkpt lat="41.99714340950159" lon="19.610165872930274"><ele>19.0</ele><time>2026-04-29T16:33:10Z</time></trkpt><trkpt lat="41.99727114438514" lon="19.609932080180375"><ele>19.0</ele><time>2026-04-29T16:33:11Z</time></trkpt><trkpt lat="41.99739388616086" lon="19.60969897056699"><ele>19.0</ele><time>2026-04-29T16:33:12Z</time></trkpt><trkpt lat="41.99749971403434" lon="19.609488606422428"><ele>19.0</ele><time>2026-04-29T16:33:13Z</time></trkpt><trkpt lat="41.997602443727" lon="19.609289184400144"><ele>19.0</ele><time>2026-04-29T16:33:14Z</time></trkpt><trkpt lat="41.997698666982984" lon="19.609107395639725"><ele>19.0</ele><time>2026-04-29T16:33:15Z</time></trkpt><trkpt lat="41.99778902951641" lon="19.608935672729498"><ele>19.0</ele><time>2026-04-29T16:33:16Z</time></trkpt><trkpt lat="41.99786995022503" lon="19.608784704301286"><ele>19.0</ele><time>2026-04-29T16:33:17Z</time></trkpt><trkpt lat="41.997956839186834" lon="19.608640972903846"><ele>19.0</ele><time>2026-04-29T16:33:18Z</time></trkpt><trkpt lat="41.99806427173157" lon="19.60851120555099"><ele>19.0</ele><time>2026-04-29T16:33:19Z</time></trkpt><trkpt lat="41.99819599156338" lon="19.60839926896853"><ele>18.666666666666664</ele><time>2026-04-29T16:33:20Z</time></trkpt><trkpt lat="41.99834177024242" lon="19.608286878536326"><ele>18.333333333333332</ele><time>2026-04-29T16:33:21Z</time></trkpt><trkpt lat="41.998498780040585" lon="19.608169745919156"><ele>18.0</ele><time>2026-04-29T16:33:22Z</time></trkpt><trkpt lat="41.998670739859065" lon="19.60807134022713"><ele>18.0</ele><time>2026-04-29T16:33:23Z</time></trkpt><trkpt lat="41.998843056969264" lon="19.607953957723797"><ele>18.0</ele><time>2026-04-29T16:33:24Z</time></trkpt><trkpt lat="41.99900274878785" lon="19.60781657208985"><ele>18.0</ele><time>2026-04-29T16:33:25Z</time></trkpt><trkpt lat="41.99916675053812" lon="19.60767443230029"><ele>17.666666666666668</ele><time>2026-04-29T16:33:26Z</time></trkpt><trkpt lat="41.999335245450375" lon="19.607528914437566"><ele>17.333333333333336</ele><time>2026-04-29T16:33:27Z</time></trkpt><trkpt lat="41.99950413842858" lon="19.607382304833493"><ele>17.0</ele><time>2026-04-29T16:33:28Z</time></trkpt><trkpt lat="41.99967601581203" lon="19.607232734007273"><ele>17.0</ele><time>2026-04-29T16:33:29Z</time></trkpt><trkpt lat="41.99984950538024" lon="19.607080856690132"><ele>17.0</ele><time>2026-04-29T16:33:30Z</time></trkpt><trkpt lat="42.00001735939488" lon="19.606916116840114"><ele>17.0</ele><time>2026-04-29T16:33:31Z</time></trkpt><trkpt lat="42.00017647071107" lon="19.60674677185773"><ele>17.333333333333336</ele><time>2026-04-29T16:33:32Z</time></trkpt><trkpt lat="42.00033644412239" lon="19.60657623234914"><ele>17.666666666666668</ele><time>2026-04-29T16:33:33Z</time></trkpt><trkpt lat="42.000489500028564" lon="19.606396533766627"><ele>18.0</ele><time>2026-04-29T16:33:34Z</time></trkpt><trkpt lat="42.000643174370104" lon="19.60621682296715"><ele>18.0</ele><time>2026-04-29T16:33:35Z</time></trkpt><trkpt lat="42.00079414710002" lon="19.606040031230513"><ele>18.0</ele><time>2026-04-29T16:33:36Z</time></trkpt><trkpt lat="42.000941196627494" lon="19.605861402731843"><ele>18.0</ele><time>2026-04-29T16:33:37Z</time></trkpt><trkpt lat="42.001085831472146" lon="19.605686899212024"><ele>18.666666666666668</ele><time>2026-04-29T16:33:38Z</time></trkpt><trkpt lat="42.00122277667868" lon="19.605521524231868"><ele>19.333333333333336</ele><time>2026-04-29T16:33:39Z</time></trkpt><trkpt lat="42.00134292125554" lon="19.60537515028285"><ele>20.0</ele><time>2026-04-29T16:33:40Z</time></trkpt><trkpt lat="42.00146642122447" lon="19.605225801311075"><ele>20.0</ele><time>2026-04-29T16:33:41Z</time></trkpt><trkpt lat="42.00159645626989" lon="19.605071337453925"><ele>20.0</ele><time>2026-04-29T16:33:42Z</time></trkpt><trkpt lat="42.001735228117084" lon="19.60491363459147"><ele>20.0</ele><time>2026-04-29T16:33:43Z</time></trkpt><trkpt lat="42.001880678453304" lon="19.60474837589368"><ele>20.333333333333336</ele><time>2026-04-29T16:33:44Z</time></trkpt><trkpt lat="42.00202946914894" lon="19.604578611988643"><ele>20.666666666666668</ele><time>2026-04-29T16:33:45Z</time></trkpt><trkpt lat="42.00218366649394" lon="19.604402256923166"><ele>21.0</ele><time>2026-04-29T16:33:46Z</time></trkpt><trkpt lat="42.00234308304785" lon="19.6042204184328"><ele>21.0</ele><time>2026-04-29T16:33:47Z</time></trkpt><trkpt lat="42.002506732553044" lon="19.604033584150347"><ele>21.0</ele><time>2026-04-29T16:33:48Z</time></trkpt><trkpt lat="42.00267449503365" lon="19.603842129120867"><ele>21.0</ele><time>2026-04-29T16:33:49Z</time></trkpt><trkpt lat="42.00284169751704" lon="19.603656126362782"><ele>21.0</ele><time>2026-04-29T16:33:50Z</time></trkpt><trkpt lat="42.003004576572245" lon="19.603477539996668"><ele>21.0</ele><time>2026-04-29T16:33:51Z</time></trkpt><trkpt lat="42.003149888436255" lon="19.60331848581083"><ele>21.0</ele><time>2026-04-29T16:33:52Z</time></trkpt><trkpt lat="42.003281967482444" lon="19.60317049851854"><ele>20.666666666666668</ele><time>2026-04-29T16:33:53Z</time></trkpt><trkpt lat="42.00341589422539" lon="19.603020440987827"><ele>20.333333333333336</ele><time>2026-04-29T16:33:54Z</time></trkpt><trkpt lat="42.00355201347001" lon="19.602867948440895"><ele>20.0</ele><time>2026-04-29T16:33:55Z</time></trkpt><trkpt lat="42.00368924444378" lon="19.602714389508307"><ele>19.0</ele><time>2026-04-29T16:33:56Z</time></trkpt><trkpt lat="42.00383009672935" lon="19.602556778396853"><ele>18.0</ele><time>2026-04-29T16:33:57Z</time></trkpt><trkpt lat="42.00397333211553" lon="19.602396393347405"><ele>17.0</ele><time>2026-04-29T16:33:58Z</time></trkpt><trkpt lat="42.004112532134506" lon="19.602240251576795"><ele>17.333333333333336</ele><time>2026-04-29T16:33:59Z</time></trkpt><trkpt lat="42.00425739910532" lon="19.60207775314764"><ele>17.666666666666668</ele><time>2026-04-29T16:34:00Z</time></trkpt><trkpt lat="42.00440522301883" lon="19.601911937895746"><ele>18.0</ele><time>2026-04-29T16:34:01Z</time></trkpt><trkpt lat="42.00455672961352" lon="19.601741991741463"><ele>18.0</ele><time>2026-04-29T16:34:02Z</time></trkpt><trkpt lat="42.004710205359316" lon="19.601569836777188"><ele>18.0</ele><time>2026-04-29T16:34:03Z</time></trkpt><trkpt lat="42.00486545473357" lon="19.601395692316768"><ele>18.0</ele><time>2026-04-29T16:34:04Z</time></trkpt><trkpt lat="42.00502291453085" lon="19.601219068419944"><ele>18.333333333333332</ele><time>2026-04-29T16:34:05Z</time></trkpt><trkpt lat="42.00518142922834" lon="19.601041261224395"><ele>18.666666666666664</ele><time>2026-04-29T16:34:06Z</time></trkpt><trkpt lat="42.00533980864214" lon="19.600863605775384"><ele>19.0</ele><time>2026-04-29T16:34:07Z</time></trkpt><trkpt lat="42.00550019879572" lon="19.60068369486788"><ele>19.0</ele><time>2026-04-29T16:34:08Z</time></trkpt><trkpt lat="42.00566226699941" lon="19.600501901677898"><ele>19.0</ele><time>2026-04-29T16:34:09Z</time></trkpt><trkpt lat="42.00581592236783" lon="19.60032954522321"><ele>19.0</ele><time>2026-04-29T16:34:10Z</time></trkpt><trkpt lat="42.00595255269133" lon="19.600176285910084"><ele>19.333333333333332</ele><time>2026-04-29T16:34:11Z</time></trkpt><trkpt lat="42.00607848858482" lon="19.600036030996552"><ele>19.666666666666668</ele><time>2026-04-29T16:34:12Z</time></trkpt><trkpt lat="42.0061954508266" lon="19.599905912355503"><ele>20.0</ele><time>2026-04-29T16:34:13Z</time></trkpt><trkpt lat="42.00631115783687" lon="19.5997771901198"><ele>20.0</ele><time>2026-04-29T16:34:14Z</time></trkpt><trkpt lat="42.006435399804054" lon="19.599638972863655"><ele>20.0</ele><time>2026-04-29T16:34:15Z</time></trkpt><trkpt lat="42.00656667135839" lon="19.59949382560268"><ele>20.0</ele><time>2026-04-29T16:34:16Z</time></trkpt><trkpt lat="42.00670093750263" lon="19.599344815673323"><ele>19.333333333333336</ele><time>2026-04-29T16:34:17Z</time></trkpt><trkpt lat="42.00683837533852" lon="19.5991919323323"><ele>18.666666666666668</ele><time>2026-04-29T16:34:18Z</time></trkpt><trkpt lat="42.00697483592431" lon="19.599040134883197"><ele>18.0</ele><time>2026-04-29T16:34:19Z</time></trkpt><trkpt lat="42.00711529474409" lon="19.598883889807595"><ele>18.0</ele><time>2026-04-29T16:34:20Z</time></trkpt><trkpt lat="42.00725641552758" lon="19.59872690835552"><ele>18.0</ele><time>2026-04-29T16:34:21Z</time></trkpt><trkpt lat="42.0074011868458" lon="19.598565866090066"><ele>18.0</ele><time>2026-04-29T16:34:22Z</time></trkpt><trkpt lat="42.00754852564005" lon="19.598401967813537"><ele>18.333333333333332</ele><time>2026-04-29T16:34:23Z</time></trkpt><trkpt lat="42.00769903438438" lon="19.598234543309538"><ele>18.666666666666664</ele><time>2026-04-29T16:34:24Z</time></trkpt><trkpt lat="42.00784068246022" lon="19.598071070311494"><ele>19.0</ele><time>2026-04-29T16:34:25Z</time></trkpt><trkpt lat="42.0079768387629" lon="19.597912339915784"><ele>19.0</ele><time>2026-04-29T16:34:26Z</time></trkpt><trkpt lat="42.00811750169431" lon="19.597748002714695"><ele>19.0</ele><time>2026-04-29T16:34:27Z</time></trkpt><trkpt lat="42.00825973852274" lon="19.59758249581261"><ele>19.0</ele><time>2026-04-29T16:34:28Z</time></trkpt><trkpt lat="42.008390097763176" lon="19.597404248054605"><ele>19.666666666666664</ele><time>2026-04-29T16:34:29Z</time></trkpt><trkpt lat="42.00850436582337" lon="19.597243226686192"><ele>20.333333333333332</ele><time>2026-04-29T16:34:30Z</time></trkpt><trkpt lat="42.00859517410517" lon="19.597056824300946"><ele>21.0</ele><time>2026-04-29T16:34:31Z</time></trkpt><trkpt lat="42.008681380622114" lon="19.596878664992452"><ele>21.0</ele><time>2026-04-29T16:34:32Z</time></trkpt><trkpt lat="42.00874651438942" lon="19.596697209343137"><ele>21.0</ele><time>2026-04-29T16:34:33Z</time></trkpt><trkpt lat="42.008810609386785" lon="19.596507941761654"><ele>21.0</ele><time>2026-04-29T16:34:34Z</time></trkpt><trkpt lat="42.00887816393773" lon="19.596313850877756"><ele>20.5</ele><time>2026-04-29T16:34:35Z</time></trkpt><trkpt lat="42.00893897224175" lon="19.5961343146993"><ele>20.0</ele><time>2026-04-29T16:34:36Z</time></trkpt><trkpt lat="42.00898841689021" lon="19.595974961229324"><ele>19.5</ele><time>2026-04-29T16:34:37Z</time></trkpt><trkpt lat="42.009033686822605" lon="19.595840727580953"><ele>19.0</ele><time>2026-04-29T16:34:38Z</time></trkpt><trkpt lat="42.00907142998269" lon="19.59572417099287"><ele>19.0</ele><time>2026-04-29T16:34:39Z</time></trkpt><trkpt lat="42.00910678146936" lon="19.595604942695285"><ele>19.0</ele><time>2026-04-29T16:34:40Z</time></trkpt><trkpt lat="42.00914187966478" lon="19.595463683482826"><ele>19.0</ele><time>2026-04-29T16:34:41Z</time></trkpt><trkpt lat="42.009181576081296" lon="19.595322651872756"><ele>19.0</ele><time>2026-04-29T16:34:42Z</time></trkpt><trkpt lat="42.00922530437883" lon="19.59516607128151"><ele>19.0</ele><time>2026-04-29T16:34:43Z</time></trkpt><trkpt lat="42.009271436011865" lon="19.595001059567615"><ele>19.75</ele><time>2026-04-29T16:34:44Z</time></trkpt><trkpt lat="42.009319534526576" lon="19.594824251689605"><ele>20.5</ele><time>2026-04-29T16:34:45Z</time></trkpt><trkpt lat="42.00937149451705" lon="19.594635456903955"><ele>21.25</ele><time>2026-04-29T16:34:46Z</time></trkpt><trkpt lat="42.00942516006673" lon="19.59443401408071"><ele>22.0</ele><time>2026-04-29T16:34:47Z</time></trkpt><trkpt lat="42.00948152646218" lon="19.59422979126475"><ele>22.0</ele><time>2026-04-29T16:34:48Z</time></trkpt><trkpt lat="42.0095389527452" lon="19.594023126145323"><ele>22.0</ele><time>2026-04-29T16:34:49Z</time></trkpt><trkpt lat="42.009593559023045" lon="19.593808999946052"><ele>22.0</ele><time>2026-04-29T16:34:50Z</time></trkpt><trkpt lat="42.009636343467434" lon="19.593601886852518"><ele>23.0</ele><time>2026-04-29T16:34:51Z</time></trkpt><trkpt lat="42.00967792978458" lon="19.593414532791346"><ele>24.0</ele><time>2026-04-29T16:34:52Z</time></trkpt><trkpt lat="42.00973236837234" lon="19.593224700271143"><ele>25.0</ele><time>2026-04-29T16:34:53Z</time></trkpt><trkpt lat="42.0098045932091" lon="19.593034702160637"><ele>25.0</ele><time>2026-04-29T16:34:54Z</time></trkpt><trkpt lat="42.009897020720516" lon="19.592860918359424"><ele>25.0</ele><time>2026-04-29T16:34:55Z</time></trkpt><trkpt lat="42.009992189056426" lon="19.59267468898691"><ele>25.0</ele><time>2026-04-29T16:34:56Z</time></trkpt><trkpt lat="42.01008561251183" lon="19.592475083136353"><ele>24.0</ele><time>2026-04-29T16:34:57Z</time></trkpt><trkpt lat="42.010176384361294" lon="19.592266308848803"><ele>23.0</ele><time>2026-04-29T16:34:58Z</time></trkpt><trkpt lat="42.01026964309707" lon="19.5920519898198"><ele>22.0</ele><time>2026-04-29T16:34:59Z</time></trkpt><trkpt lat="42.01037042572213" lon="19.591871069287524"><ele>22.0</ele><time>2026-04-29T16:35:00Z</time></trkpt><trkpt lat="42.01045295935003" lon="19.59169589249738"><ele>22.0</ele><time>2026-04-29T16:35:01Z</time></trkpt><trkpt lat="42.010562254604906" lon="19.591557696088614"><ele>22.0</ele><time>2026-04-29T16:35:02Z</time></trkpt><trkpt lat="42.01067595291491" lon="19.5914563931979"><ele>22.0</ele><time>2026-04-29T16:35:03Z</time></trkpt><trkpt lat="42.01080693089137" lon="19.59136566635464"><ele>22.75</ele><time>2026-04-29T16:35:04Z</time></trkpt><trkpt lat="42.010941564805044" lon="19.59127674656549"><ele>23.5</ele><time>2026-04-29T16:35:05Z</time></trkpt><trkpt lat="42.0110604733716" lon="19.591189364674612"><ele>24.25</ele><time>2026-04-29T16:35:06Z</time></trkpt><trkpt lat="42.01117762483269" lon="19.591076053629816"><ele>25.0</ele><time>2026-04-29T16:35:07Z</time></trkpt><trkpt lat="42.011281842525726" lon="19.590914075073034"><ele>25.0</ele><time>2026-04-29T16:35:08Z</time></trkpt><trkpt lat="42.01137538580116" lon="19.590705819805777"><ele>25.0</ele><time>2026-04-29T16:35:09Z</time></trkpt><trkpt lat="42.01150848763849" lon="19.59049006331343"><ele>25.0</ele><time>2026-04-29T16:35:10Z</time></trkpt><trkpt lat="42.01161118070878" lon="19.590293899593856"><ele>26.5</ele><time>2026-04-29T16:35:11Z</time></trkpt><trkpt lat="42.01170415444517" lon="19.590113846703197"><ele>28.0</ele><time>2026-04-29T16:35:12Z</time></trkpt><trkpt lat="42.01178716488923" lon="19.58995077421718"><ele>29.5</ele><time>2026-04-29T16:35:13Z</time></trkpt><trkpt lat="42.01185857683637" lon="19.5898060807849"><ele>31.0</ele><time>2026-04-29T16:35:14Z</time></trkpt><trkpt lat="42.01190019350855" lon="19.589642265781976"><ele>30.0</ele><time>2026-04-29T16:35:15Z</time></trkpt><trkpt lat="42.01188078155911" lon="19.58945363055261"><ele>29.0</ele><time>2026-04-29T16:35:16Z</time></trkpt><trkpt lat="42.0118580168467" lon="19.589261723592323"><ele>28.0</ele><time>2026-04-29T16:35:17Z</time></trkpt><trkpt lat="42.011822239350394" lon="19.589059172146534"><ele>27.0</ele><time>2026-04-29T16:35:18Z</time></trkpt><trkpt lat="42.01179371500546" lon="19.58886225106683"><ele>27.0</ele><time>2026-04-29T16:35:19Z</time></trkpt><trkpt lat="42.01178285178035" lon="19.588700964006424"><ele>27.0</ele><time>2026-04-29T16:35:20Z</time></trkpt><trkpt lat="42.01180838609707" lon="19.588558834847515"><ele>27.0</ele><time>2026-04-29T16:35:21Z</time></trkpt><trkpt lat="42.011841227742345" lon="19.588404372437857"><ele>27.0</ele><time>2026-04-29T16:35:22Z</time></trkpt><trkpt lat="42.01189616761764" lon="19.588249924878838"><ele>26.333333333333336</ele><time>2026-04-29T16:35:23Z</time></trkpt><trkpt lat="42.0119429716341" lon="19.588072347772542"><ele>25.666666666666668</ele><time>2026-04-29T16:35:24Z</time></trkpt><trkpt lat="42.01201240970218" lon="19.58788789845214"><ele>25.0</ele><time>2026-04-29T16:35:25Z</time></trkpt><trkpt lat="42.0120840755629" lon="19.587684878197443"><ele>24.25</ele><time>2026-04-29T16:35:26Z</time></trkpt><trkpt lat="42.01214488821514" lon="19.587504657262667"><ele>23.5</ele><time>2026-04-29T16:35:27Z</time></trkpt><trkpt lat="42.01220021132394" lon="19.58734136150315"><ele>22.75</ele><time>2026-04-29T16:35:28Z</time></trkpt><trkpt lat="42.012253274856306" lon="19.5871908334391"><ele>22.0</ele><time>2026-04-29T16:35:29Z</time></trkpt><trkpt lat="42.012307682852736" lon="19.58704133855065"><ele>21.0</ele><time>2026-04-29T16:35:30Z</time></trkpt><trkpt lat="42.01237931346306" lon="19.586898371869754"><ele>20.0</ele><time>2026-04-29T16:35:31Z</time></trkpt><trkpt lat="42.01242560447749" lon="19.58678128281141"><ele>19.0</ele><time>2026-04-29T16:35:32Z</time></trkpt><trkpt lat="42.01246569891821" lon="19.586679093367422"><ele>18.0</ele><time>2026-04-29T16:35:33Z</time></trkpt><trkpt lat="42.012505965084614" lon="19.586577338200033"><ele>17.0</ele><time>2026-04-29T16:35:34Z</time></trkpt><trkpt lat="42.012548878459796" lon="19.586469337679073"><ele>18.333333333333336</ele><time>2026-04-29T16:35:35Z</time></trkpt><trkpt lat="42.01260287702357" lon="19.58636245725116"><ele>19.666666666666668</ele><time>2026-04-29T16:35:36Z</time></trkpt><trkpt lat="42.012670187510345" lon="19.58629918344778"><ele>21.0</ele><time>2026-04-29T16:35:37Z</time></trkpt><trkpt lat="42.01273395931454" lon="19.586234179085764"><ele>22.333333333333336</ele><time>2026-04-29T16:35:38Z</time></trkpt><trkpt lat="42.01280081866776" lon="19.586165987465392"><ele>23.666666666666668</ele><time>2026-04-29T16:35:39Z</time></trkpt><trkpt lat="42.01287160329771" lon="19.586094093128427"><ele>25.0</ele><time>2026-04-29T16:35:40Z</time></trkpt><trkpt lat="42.01293208101889" lon="19.58603250333376"><ele>25.0</ele><time>2026-04-29T16:35:41Z</time></trkpt><trkpt lat="42.013023042602576" lon="19.585952893819776"><ele>25.0</ele><time>2026-04-29T16:35:43Z</time></trkpt><trkpt lat="42.01311925670228" lon="19.585870841721288"><ele>25.0</ele><time>2026-04-29T16:35:45Z</time></trkpt><trkpt lat="42.01317924439064" lon="19.585820006394002"><ele>25.0</ele><time>2026-04-29T16:35:46Z</time></trkpt><trkpt lat="42.0132527621591" lon="19.5857579288612"><ele>25.0</ele><time>2026-04-29T16:35:47Z</time></trkpt><trkpt lat="42.013341122369916" lon="19.585683318985424"><ele>24.6</ele><time>2026-04-29T16:35:48Z</time></trkpt><trkpt lat="42.01344016610636" lon="19.58559873726194"><ele>24.2</ele><time>2026-04-29T16:35:49Z</time></trkpt><trkpt lat="42.01352327807683" lon="19.585494763831413"><ele>23.799999999999997</ele><time>2026-04-29T16:35:50Z</time></trkpt><trkpt lat="42.01360903180382" lon="19.585421652480115"><ele>23.4</ele><time>2026-04-29T16:35:51Z</time></trkpt><trkpt lat="42.013697015229035" lon="19.585339729005288"><ele>23.0</ele><time>2026-04-29T16:35:52Z</time></trkpt><trkpt lat="42.013783745475635" lon="19.58525610847903"><ele>23.0</ele><time>2026-04-29T16:35:53Z</time></trkpt><trkpt lat="42.0138683965968" lon="19.585204704820416"><ele>23.0</ele><time>2026-04-29T16:35:54Z</time></trkpt><trkpt lat="42.01391359161468" lon="19.58509281389614"><ele>23.0</ele><time>2026-04-29T16:35:55Z</time></trkpt><trkpt lat="42.01397737213197" lon="19.58499624739382"><ele>23.0</ele><time>2026-04-29T16:35:56Z</time></trkpt><trkpt lat="42.01399161651438" lon="19.58487276945751"><ele>23.0</ele><time>2026-04-29T16:35:57Z</time></trkpt><trkpt lat="42.01399900116015" lon="19.584769259016095"><ele>23.0</ele><time>2026-04-29T16:35:58Z</time></trkpt><trkpt lat="42.014004143617925" lon="19.584657056331707"><ele>23.0</ele><time>2026-04-29T16:35:59Z</time></trkpt><trkpt lat="42.013995474929686" lon="19.584530121317723"><ele>23.0</ele><time>2026-04-29T16:36:00Z</time></trkpt><trkpt lat="42.01397906175636" lon="19.584394874738457"><ele>23.0</ele><time>2026-04-29T16:36:01Z</time></trkpt><trkpt lat="42.013958866427416" lon="19.58426879013058"><ele>23.0</ele><time>2026-04-29T16:36:02Z</time></trkpt><trkpt lat="42.013942519261" lon="19.584149140892194"><ele>21.799999999999997</ele><time>2026-04-29T16:36:03Z</time></trkpt><trkpt lat="42.0139344718666" lon="19.584024801301126"><ele>20.599999999999998</ele><time>2026-04-29T16:36:04Z</time></trkpt><trkpt lat="42.01392844759181" lon="19.58389612539459"><ele>19.4</ele><time>2026-04-29T16:36:05Z</time></trkpt><trkpt lat="42.01393389587232" lon="19.583778706791016"><ele>18.2</ele><time>2026-04-29T16:36:06Z</time></trkpt><trkpt lat="42.01397346412139" lon="19.583658471216467"><ele>17.0</ele><time>2026-04-29T16:36:07Z</time></trkpt><trkpt lat="42.01401945260811" lon="19.5835323483536"><ele>17.0</ele><time>2026-04-29T16:36:08Z</time></trkpt><trkpt lat="42.01403660284907" lon="19.583385053340756"><ele>17.0</ele><time>2026-04-29T16:36:09Z</time></trkpt><trkpt lat="42.01409107864719" lon="19.5832877985313"><ele>17.0</ele><time>2026-04-29T16:36:10Z</time></trkpt><trkpt lat="42.01413744392105" lon="19.583180841251473"><ele>17.0</ele><time>2026-04-29T16:36:11Z</time></trkpt><trkpt lat="42.01416970260641" lon="19.5830563337246"><ele>17.0</ele><time>2026-04-29T16:36:12Z</time></trkpt><trkpt lat="42.014184943840114" lon="19.58291072379389"><ele>21.0</ele><time>2026-04-29T16:36:13Z</time></trkpt><trkpt lat="42.01419148832251" lon="19.582730400198617"><ele>25.0</ele><time>2026-04-29T16:36:14Z</time></trkpt><trkpt lat="42.01422256708573" lon="19.58252896010194"><ele>29.0</ele><time>2026-04-29T16:36:15Z</time></trkpt><trkpt lat="42.014245966675574" lon="19.58230005859801"><ele>29.0</ele><time>2026-04-29T16:36:16Z</time></trkpt><trkpt lat="42.01425900719696" lon="19.58206031252764"><ele>29.0</ele><time>2026-04-29T16:36:17Z</time></trkpt><trkpt lat="42.014285323603325" lon="19.58185218520455"><ele>29.0</ele><time>2026-04-29T16:36:18Z</time></trkpt><trkpt lat="42.014295860374446" lon="19.58166953157537"><ele>29.25</ele><time>2026-04-29T16:36:19Z</time></trkpt><trkpt lat="42.014290644950314" lon="19.581501329536355"><ele>29.5</ele><time>2026-04-29T16:36:20Z</time></trkpt><trkpt lat="42.01425597673794" lon="19.58130740665396"><ele>29.75</ele><time>2026-04-29T16:36:21Z</time></trkpt><trkpt lat="42.0141961157412" lon="19.581097363275862"><ele>30.0</ele><time>2026-04-29T16:36:22Z</time></trkpt><trkpt lat="42.0141211868216" lon="19.580872484330225"><ele>25.666666666666668</ele><time>2026-04-29T16:36:23Z</time></trkpt><trkpt lat="42.01402774811103" lon="19.580633287768514"><ele>21.333333333333336</ele><time>2026-04-29T16:36:24Z</time></trkpt><trkpt lat="42.01393971374387" lon="19.580396504676788"><ele>17.0</ele><time>2026-04-29T16:36:25Z</time></trkpt><trkpt lat="42.01386739702546" lon="19.58019211277521"><ele>17.0</ele><time>2026-04-29T16:36:26Z</time></trkpt><trkpt lat="42.013805405994376" lon="19.580008913408893"><ele>17.0</ele><time>2026-04-29T16:36:27Z</time></trkpt><trkpt lat="42.013755345651724" lon="19.579855159637635"><ele>17.0</ele><time>2026-04-29T16:36:28Z</time></trkpt><trkpt lat="42.01373921496632" lon="19.57971187045761"><ele>17.0</ele><time>2026-04-29T16:36:29Z</time></trkpt><trkpt lat="42.01376316759724" lon="19.57954350582663"><ele>17.25</ele><time>2026-04-29T16:36:30Z</time></trkpt><trkpt lat="42.01385562873661" lon="19.5794075853206"><ele>17.5</ele><time>2026-04-29T16:36:31Z</time></trkpt><trkpt lat="42.01392527734015" lon="19.57926156094522"><ele>17.75</ele><time>2026-04-29T16:36:32Z</time></trkpt><trkpt lat="42.014016128748594" lon="19.57912549329817"><ele>18.0</ele><time>2026-04-29T16:36:33Z</time></trkpt><trkpt lat="42.01409814765061" lon="19.57900519644126"><ele>17.833333333333332</ele><time>2026-04-29T16:36:34Z</time></trkpt><trkpt lat="42.01416708849497" lon="19.578923743825577"><ele>17.666666666666668</ele><time>2026-04-29T16:36:35Z</time></trkpt><trkpt lat="42.01423416706222" lon="19.57885390291605"><ele>17.5</ele><time>2026-04-29T16:36:36Z</time></trkpt><trkpt lat="42.0143080625991" lon="19.57878614039153"><ele>17.333333333333336</ele><time>2026-04-29T16:36:37Z</time></trkpt><trkpt lat="42.01438500550222" lon="19.578724448574018"><ele>17.166666666666668</ele><time>2026-04-29T16:36:38Z</time></trkpt><trkpt lat="42.01446400564478" lon="19.57866190059956"><ele>17.0</ele><time>2026-04-29T16:36:39Z</time></trkpt><trkpt lat="42.01452643869349" lon="19.578615115736415"><ele>17.0</ele><time>2026-04-29T16:36:40Z</time></trkpt><trkpt lat="42.01460371044976" lon="19.57855550611295"><ele>17.0</ele><time>2026-04-29T16:36:41Z</time></trkpt><trkpt lat="42.014685425537024" lon="19.57849248070174"><ele>17.0</ele><time>2026-04-29T16:36:42Z</time></trkpt><trkpt lat="42.01477418551213" lon="19.578424073666454"><ele>17.0</ele><time>2026-04-29T16:36:43Z</time></trkpt><trkpt lat="42.0148691426545" lon="19.57835089049911"><ele>17.0</ele><time>2026-04-29T16:36:44Z</time></trkpt><trkpt lat="42.01495261659711" lon="19.57828655739752"><ele>18.6</ele><time>2026-04-29T16:36:45Z</time></trkpt><trkpt lat="42.01503257390464" lon="19.57822478220622"><ele>20.2</ele><time>2026-04-29T16:36:46Z</time></trkpt><trkpt lat="42.01511066246636" lon="19.57816416942074"><ele>21.8</ele><time>2026-04-29T16:36:47Z</time></trkpt><trkpt lat="42.01518953704634" lon="19.578103732119022"><ele>23.4</ele><time>2026-04-29T16:36:48Z</time></trkpt><trkpt lat="42.01526988641442" lon="19.578020194578595"><ele>25.0</ele><time>2026-04-29T16:36:49Z</time></trkpt><trkpt lat="42.01536723371766" lon="19.577959727876205"><ele>25.0</ele><time>2026-04-29T16:36:50Z</time></trkpt><trkpt lat="42.01547673342397" lon="19.57794177936319"><ele>25.0</ele><time>2026-04-29T16:36:51Z</time></trkpt><trkpt lat="42.015585476653364" lon="19.577906191335707"><ele>25.0</ele><time>2026-04-29T16:36:52Z</time></trkpt><trkpt lat="42.01570521720974" lon="19.57789876797068"><ele>25.0</ele><time>2026-04-29T16:36:53Z</time></trkpt><trkpt lat="42.01583519144723" lon="19.577905977270433"><ele>26.5</ele><time>2026-04-29T16:36:54Z</time></trkpt><trkpt lat="42.01597668682286" lon="19.577930344262178"><ele>28.0</ele><time>2026-04-29T16:36:55Z</time></trkpt><trkpt lat="42.01611664797414" lon="19.577979581244282"><ele>29.5</ele><time>2026-04-29T16:36:56Z</time></trkpt><trkpt lat="42.01623600780281" lon="19.578044041224697"><ele>31.0</ele><time>2026-04-29T16:36:57Z</time></trkpt><trkpt lat="42.01633516316098" lon="19.578139705112832"><ele>31.0</ele><time>2026-04-29T16:36:58Z</time></trkpt><trkpt lat="42.016432571458004" lon="19.578249498543332"><ele>31.0</ele><time>2026-04-29T16:36:59Z</time></trkpt><trkpt lat="42.01654212221863" lon="19.578376712213768"><ele>31.0</ele><time>2026-04-29T16:37:00Z</time></trkpt><trkpt lat="42.016654422306395" lon="19.57850725034081"><ele>31.0</ele><time>2026-04-29T16:37:01Z</time></trkpt><trkpt lat="42.01677225952633" lon="19.578641108604298"><ele>32.0</ele><time>2026-04-29T16:37:02Z</time></trkpt><trkpt lat="42.016883714473536" lon="19.578766833749317"><ele>33.0</ele><time>2026-04-29T16:37:03Z</time></trkpt><trkpt lat="42.01698277052536" lon="19.57887180360539"><ele>34.0</ele><time>2026-04-29T16:37:04Z</time></trkpt><trkpt lat="42.017078625879975" lon="19.578973334325152"><ele>35.0</ele><time>2026-04-29T16:37:05Z</time></trkpt><trkpt lat="42.01718946718882" lon="19.579059197182705"><ele>35.0</ele><time>2026-04-29T16:37:06Z</time></trkpt><trkpt lat="42.01732623586073" lon="19.579087132387325"><ele>35.0</ele><time>2026-04-29T16:37:07Z</time></trkpt><trkpt lat="42.01746332919539" lon="19.579095036656003"><ele>35.0</ele><time>2026-04-29T16:37:08Z</time></trkpt><trkpt lat="42.01760113058534" lon="19.579105323336744"><ele>35.0</ele><time>2026-04-29T16:37:09Z</time></trkpt><trkpt lat="42.01774117703457" lon="19.5791157776114"><ele>33.75</ele><time>2026-04-29T16:37:10Z</time></trkpt><trkpt lat="42.01788812790983" lon="19.579126723271074"><ele>32.5</ele><time>2026-04-29T16:37:11Z</time></trkpt><trkpt lat="42.01803810430575" lon="19.579137886941954"><ele>31.25</ele><time>2026-04-29T16:37:12Z</time></trkpt><trkpt lat="42.01818086329391" lon="19.57914407126811"><ele>30.0</ele><time>2026-04-29T16:37:13Z</time></trkpt><trkpt lat="42.01832471791391" lon="19.57914707307416"><ele>28.0</ele><time>2026-04-29T16:37:14Z</time></trkpt><trkpt lat="42.018475735294786" lon="19.579148145053008"><ele>26.0</ele><time>2026-04-29T16:37:15Z</time></trkpt><trkpt lat="42.018633808553524" lon="19.5791284432998"><ele>24.0</ele><time>2026-04-29T16:37:16Z</time></trkpt><trkpt lat="42.01879334143621" lon="19.579057048491837"><ele>24.0</ele><time>2026-04-29T16:37:17Z</time></trkpt><trkpt lat="42.01895087944556" lon="19.578973282759343"><ele>24.0</ele><time>2026-04-29T16:37:18Z</time></trkpt><trkpt lat="42.01911241669476" lon="19.57887607452891"><ele>24.0</ele><time>2026-04-29T16:37:19Z</time></trkpt><trkpt lat="42.019271847476894" lon="19.578760483251738"><ele>23.666666666666668</ele><time>2026-04-29T16:37:20Z</time></trkpt><trkpt lat="42.01943059930175" lon="19.57863531240856"><ele>23.333333333333336</ele><time>2026-04-29T16:37:21Z</time></trkpt><trkpt lat="42.01959604513516" lon="19.578504892375015"><ele>23.0</ele><time>2026-04-29T16:37:22Z</time></trkpt><trkpt lat="42.01976013978424" lon="19.57837554594662"><ele>23.0</ele><time>2026-04-29T16:37:23Z</time></trkpt><trkpt lat="42.019916672310046" lon="19.57826451883895"><ele>23.0</ele><time>2026-04-29T16:37:24Z</time></trkpt><trkpt lat="42.02007319512919" lon="19.578154851200324"><ele>23.0</ele><time>2026-04-29T16:37:25Z</time></trkpt><trkpt lat="42.02023348003762" lon="19.578046466576644"><ele>24.0</ele><time>2026-04-29T16:37:26Z</time></trkpt><trkpt lat="42.02040222880128" lon="19.577929950111578"><ele>25.0</ele><time>2026-04-29T16:37:27Z</time></trkpt><trkpt lat="42.020575662183866" lon="19.57780779487672"><ele>26.0</ele><time>2026-04-29T16:37:28Z</time></trkpt><trkpt lat="42.020749385923956" lon="19.57768407243551"><ele>24.0</ele><time>2026-04-29T16:37:29Z</time></trkpt><trkpt lat="42.020913997203145" lon="19.57755171204938"><ele>22.0</ele><time>2026-04-29T16:37:30Z</time></trkpt><trkpt lat="42.02108395767613" lon="19.5774394570761"><ele>20.0</ele><time>2026-04-29T16:37:31Z</time></trkpt><trkpt lat="42.02125280673396" lon="19.577325473915316"><ele>20.0</ele><time>2026-04-29T16:37:32Z</time></trkpt><trkpt lat="42.021421018230235" lon="19.577212710944107"><ele>20.0</ele><time>2026-04-29T16:37:33Z</time></trkpt><trkpt lat="42.021579828524544" lon="19.577103938566264"><ele>20.0</ele><time>2026-04-29T16:37:34Z</time></trkpt><trkpt lat="42.02172224537022" lon="19.577008208782214"><ele>20.0</ele><time>2026-04-29T16:37:35Z</time></trkpt><trkpt lat="42.02185023572825" lon="19.576924507270007"><ele>20.0</ele><time>2026-04-29T16:37:36Z</time></trkpt><trkpt lat="42.02194518451964" lon="19.57685542902796"><ele>20.0</ele><time>2026-04-29T16:37:37Z</time></trkpt><trkpt lat="42.022027595809064" lon="19.576783533871414"><ele>20.0</ele><time>2026-04-29T16:37:38Z</time></trkpt><trkpt lat="42.022096229914055" lon="19.57671281569287"><ele>20.0</ele><time>2026-04-29T16:37:39Z</time></trkpt><trkpt lat="42.02215098963067" lon="19.5766521122156"><ele>20.0</ele><time>2026-04-29T16:37:40Z</time></trkpt><trkpt lat="42.02222476172184" lon="19.576597128933777"><ele>20.0</ele><time>2026-04-29T16:37:42Z</time></trkpt><trkpt lat="42.022172045450034" lon="19.57635271035727"><ele>20.0</ele><time>2026-04-29T16:37:46Z</time></trkpt><trkpt lat="42.02213614657023" lon="19.57623295252901"><ele>20.0</ele><time>2026-04-29T16:37:48Z</time></trkpt><trkpt lat="42.022114873968405" lon="19.57613858822848"><ele>20.0</ele><time>2026-04-29T16:37:50Z</time></trkpt><trkpt lat="42.02209706297903" lon="19.575992400610488"><ele>19.333333333333336</ele><time>2026-04-29T16:37:53Z</time></trkpt><trkpt lat="42.022065853878416" lon="19.575910706782224"><ele>18.666666666666668</ele><time>2026-04-29T16:37:54Z</time></trkpt><trkpt lat="42.022027687073106" lon="19.575810799552528"><ele>18.0</ele><time>2026-04-29T16:37:55Z</time></trkpt><trkpt lat="42.02197767878756" lon="19.575700838836266"><ele>17.333333333333332</ele><time>2026-04-29T16:37:56Z</time></trkpt><trkpt lat="42.02191804817445" lon="19.575618961906383"><ele>16.666666666666664</ele><time>2026-04-29T16:37:57Z</time></trkpt><trkpt lat="42.0218697445209" lon="19.575537948735914"><ele>16.0</ele><time>2026-04-29T16:37:58Z</time></trkpt><trkpt lat="42.02181986265071" lon="19.57544410369544"><ele>15.999999999999998</ele><time>2026-04-29T16:37:59Z</time></trkpt><trkpt lat="42.02176549363597" lon="19.57535506219228"><ele>16.0</ele><time>2026-04-29T16:38:00Z</time></trkpt><trkpt lat="42.02171903980765" lon="19.57527088728589"><ele>16.0</ele><time>2026-04-29T16:38:01Z</time></trkpt><trkpt lat="42.02167762546367" lon="19.5751852169586"><ele>16.0</ele><time>2026-04-29T16:38:02Z</time></trkpt><trkpt lat="42.02162574826267" lon="19.57509479020686"><ele>15.999999999999998</ele><time>2026-04-29T16:38:03Z</time></trkpt><trkpt lat="42.021577265302504" lon="19.574992875546606"><ele>16.0</ele><time>2026-04-29T16:38:04Z</time></trkpt><trkpt lat="42.02152873320537" lon="19.574887833509084"><ele>15.833333333333332</ele><time>2026-04-29T16:38:05Z</time></trkpt><trkpt lat="42.021483116506424" lon="19.57477751034228"><ele>15.666666666666666</ele><time>2026-04-29T16:38:06Z</time></trkpt><trkpt lat="42.02144384955723" lon="19.574672019580554"><ele>15.5</ele><time>2026-04-29T16:38:07Z</time></trkpt><trkpt lat="42.02140772697794" lon="19.57457040014333"><ele>15.333333333333332</ele><time>2026-04-29T16:38:08Z</time></trkpt><trkpt lat="42.02137217227146" lon="19.57446355579019"><ele>15.166666666666666</ele><time>2026-04-29T16:38:09Z</time></trkpt><trkpt lat="42.02134730615309" lon="19.57436074951354"><ele>15.0</ele><time>2026-04-29T16:38:10Z</time></trkpt><trkpt lat="42.021333489696275" lon="19.574260538283323"><ele>15.0</ele><time>2026-04-29T16:38:11Z</time></trkpt><trkpt lat="42.02133038651007" lon="19.574161505315487"><ele>15.0</ele><time>2026-04-29T16:38:12Z</time></trkpt><trkpt lat="42.02136470226524" lon="19.574071558983764"><ele>15.0</ele><time>2026-04-29T16:38:13Z</time></trkpt><trkpt lat="42.02139115912817" lon="19.573975155808043"><ele>15.0</ele><time>2026-04-29T16:38:14Z</time></trkpt><trkpt lat="42.02141776262575" lon="19.573877973347486"><ele>15.0</ele><time>2026-04-29T16:38:15Z</time></trkpt><trkpt lat="42.02144321322861" lon="19.573785375955723"><ele>15.0</ele><time>2026-04-29T16:38:16Z</time></trkpt><trkpt lat="42.02147050116781" lon="19.57368732215545"><ele>15.0</ele><time>2026-04-29T16:38:17Z</time></trkpt><trkpt lat="42.02149883800349" lon="19.57358629621009"><ele>15.0</ele><time>2026-04-29T16:38:18Z</time></trkpt><trkpt lat="42.02152328688356" lon="19.573493716006606"><ele>15.0</ele><time>2026-04-29T16:38:19Z</time></trkpt><trkpt lat="42.0215451038853" lon="19.573403633942"><ele>15.0</ele><time>2026-04-29T16:38:20Z</time></trkpt><trkpt lat="42.0215665224156" lon="19.57331042943683"><ele>15.0</ele><time>2026-04-29T16:38:21Z</time></trkpt><trkpt lat="42.02156077416768" lon="19.573199050440614"><ele>15.0</ele><time>2026-04-29T16:38:22Z</time></trkpt><trkpt lat="42.02156511885625" lon="19.573081693986733"><ele>15.0</ele><time>2026-04-29T16:38:23Z</time></trkpt><trkpt lat="42.02155719069248" lon="19.572966993540646"><ele>15.0</ele><time>2026-04-29T16:38:24Z</time></trkpt><trkpt lat="42.02154195100223" lon="19.572855373353654"><ele>15.0</ele><time>2026-04-29T16:38:25Z</time></trkpt><trkpt lat="42.021528289736494" lon="19.572744178168723"><ele>15.0</ele><time>2026-04-29T16:38:26Z</time></trkpt><trkpt lat="42.021508939681915" lon="19.572631514970773"><ele>15.0</ele><time>2026-04-29T16:38:27Z</time></trkpt><trkpt lat="42.02148400238392" lon="19.572523466390948"><ele>15.0</ele><time>2026-04-29T16:38:28Z</time></trkpt><trkpt lat="42.02146785944778" lon="19.57242323200288"><ele>14.666666666666666</ele><time>2026-04-29T16:38:29Z</time></trkpt><trkpt lat="42.0214352155606" lon="19.572278300151805"><ele>14.333333333333332</ele><time>2026-04-29T16:38:31Z</time></trkpt><trkpt lat="42.0214210101597" lon="19.572194583337602"><ele>14.0</ele><time>2026-04-29T16:38:33Z</time></trkpt><trkpt lat="42.02139339266366" lon="19.572068483307323"><ele>13.666666666666666</ele><time>2026-04-29T16:38:36Z</time></trkpt><trkpt lat="42.02137348388032" lon="19.571974246812367"><ele>13.333333333333332</ele><time>2026-04-29T16:38:38Z</time></trkpt><trkpt lat="42.02135476251285" lon="19.57187758585728"><ele>13.0</ele><time>2026-04-29T16:38:42Z</time></trkpt><trkpt lat="42.0213364866008" lon="19.571791022375493"><ele>12.999999999999998</ele><time>2026-04-29T16:38:45Z</time></trkpt><trkpt lat="42.02131464160785" lon="19.571697499371307"><ele>13.0</ele><time>2026-04-29T16:38:48Z</time></trkpt><trkpt lat="42.02131307827102" lon="19.5716030878527"><ele>13.0</ele><time>2026-04-29T16:38:50Z</time></trkpt><trkpt lat="42.02129006449996" lon="19.57150134950749"><ele>13.0</ele><time>2026-04-29T16:38:52Z</time></trkpt><trkpt lat="42.02124771069379" lon="19.571354113660558"><ele>12.999999999999998</ele><time>2026-04-29T16:38:54Z</time></trkpt><trkpt lat="42.02122037980704" lon="19.571272374990624"><ele>13.0</ele><time>2026-04-29T16:38:55Z</time></trkpt><trkpt lat="42.02119076199273" lon="19.57118523443061"><ele>13.0</ele><time>2026-04-29T16:38:56Z</time></trkpt><trkpt lat="42.021144611220606" lon="19.57109807526958"><ele>13.0</ele><time>2026-04-29T16:38:57Z</time></trkpt><trkpt lat="42.021108828265454" lon="19.570987729598304"><ele>13.0</ele><time>2026-04-29T16:38:58Z</time></trkpt><trkpt lat="42.02107007931838" lon="19.570868618502885"><ele>13.0</ele><time>2026-04-29T16:38:59Z</time></trkpt><trkpt lat="42.0210277053463" lon="19.57074310940303"><ele>13.0</ele><time>2026-04-29T16:39:00Z</time></trkpt><trkpt lat="42.020982460644944" lon="19.570611675046067"><ele>13.0</ele><time>2026-04-29T16:39:01Z</time></trkpt><trkpt lat="42.020936995597864" lon="19.57047534262261"><ele>13.0</ele><time>2026-04-29T16:39:02Z</time></trkpt><trkpt lat="42.020905562516475" lon="19.570342915302483"><ele>13.0</ele><time>2026-04-29T16:39:03Z</time></trkpt><trkpt lat="42.020867713045035" lon="19.570239137089505"><ele>13.0</ele><time>2026-04-29T16:39:04Z</time></trkpt><trkpt lat="42.02083134662613" lon="19.57013950075535"><ele>13.0</ele><time>2026-04-29T16:39:05Z</time></trkpt><trkpt lat="42.02078929834804" lon="19.570026397876426"><ele>12.8</ele><time>2026-04-29T16:39:06Z</time></trkpt><trkpt lat="42.02074202808569" lon="19.569903216509875"><ele>12.600000000000001</ele><time>2026-04-29T16:39:07Z</time></trkpt><trkpt lat="42.02069170536846" lon="19.569772987286168"><ele>12.399999999999999</ele><time>2026-04-29T16:39:08Z</time></trkpt><trkpt lat="42.02063818416805" lon="19.56963576504172"><ele>12.2</ele><time>2026-04-29T16:39:09Z</time></trkpt><trkpt lat="42.02058890616505" lon="19.569509000460204"><ele>12.0</ele><time>2026-04-29T16:39:10Z</time></trkpt><trkpt lat="42.02054436006382" lon="19.569394156568134"><ele>12.0</ele><time>2026-04-29T16:39:11Z</time></trkpt><trkpt lat="42.02049782074824" lon="19.569274173902148"><ele>12.0</ele><time>2026-04-29T16:39:12Z</time></trkpt><trkpt lat="42.02043987051011" lon="19.5691511446494"><ele>12.0</ele><time>2026-04-29T16:39:13Z</time></trkpt><trkpt lat="42.020381785168624" lon="19.56904512958724"><ele>12.0</ele><time>2026-04-29T16:39:14Z</time></trkpt><trkpt lat="42.020333314454696" lon="19.568958368577537"><ele>12.0</ele><time>2026-04-29T16:39:15Z</time></trkpt><trkpt lat="42.02028767253716" lon="19.56887669249847"><ele>12.0</ele><time>2026-04-29T16:39:16Z</time></trkpt><trkpt lat="42.020238467523995" lon="19.56878884360798"><ele>12.0</ele><time>2026-04-29T16:39:17Z</time></trkpt><trkpt lat="42.020194275955774" lon="19.568709945502558"><ele>12.0</ele><time>2026-04-29T16:39:18Z</time></trkpt><trkpt lat="42.0201146181407" lon="19.568574781706452"><ele>12.0</ele><time>2026-04-29T16:39:20Z</time></trkpt><trkpt lat="42.020054215371424" lon="19.568503279014976"><ele>12.0</ele><time>2026-04-29T16:39:22Z</time></trkpt><trkpt lat="42.01999104771683" lon="19.568529078497658"><ele>12.0</ele><time>2026-04-29T16:39:23Z</time></trkpt><trkpt lat="42.019910459299766" lon="19.568531037748638"><ele>11.8</ele><time>2026-04-29T16:39:27Z</time></trkpt><trkpt lat="42.01990649308795" lon="19.568660774182938"><ele>11.6</ele><time>2026-04-29T16:39:28Z</time></trkpt><trkpt lat="42.01981246594225" lon="19.568762590053634"><ele>11.4</ele><time>2026-04-29T16:39:45Z</time></trkpt><trkpt lat="42.01975130498417" lon="19.568834850292554"><ele>11.200000000000001</ele><time>2026-04-29T16:39:46Z</time></trkpt><trkpt lat="42.01964675288543" lon="19.568954997983518"><ele>11.0</ele><time>2026-04-29T16:39:48Z</time></trkpt><trkpt lat="42.01957951911836" lon="19.569036930314113"><ele>11.0</ele><time>2026-04-29T16:39:49Z</time></trkpt><trkpt lat="42.019501195974115" lon="19.56913262757817"><ele>11.0</ele><time>2026-04-29T16:39:50Z</time></trkpt><trkpt lat="42.01941281591385" lon="19.569236635082074"><ele>11.0</ele><time>2026-04-29T16:39:51Z</time></trkpt><trkpt lat="42.019315420421165" lon="19.56935499064545"><ele>11.0</ele><time>2026-04-29T16:39:52Z</time></trkpt><trkpt lat="42.01921232135714" lon="19.569477958372776"><ele>11.333333333333332</ele><time>2026-04-29T16:39:53Z</time></trkpt><trkpt lat="42.019098557635715" lon="19.569603052593248"><ele>11.666666666666666</ele><time>2026-04-29T16:39:54Z</time></trkpt><trkpt lat="42.01897991112712" lon="19.569734323385855"><ele>12.0</ele><time>2026-04-29T16:39:55Z</time></trkpt><trkpt lat="42.018845781342" lon="19.569883883818502"><ele>12.0</ele><time>2026-04-29T16:39:56Z</time></trkpt><trkpt lat="42.018724320822976" lon="19.57002155262705"><ele>12.0</ele><time>2026-04-29T16:39:57Z</time></trkpt><trkpt lat="42.018612020707785" lon="19.570154267530143"><ele>12.0</ele><time>2026-04-29T16:39:58Z</time></trkpt><trkpt lat="42.01851643420716" lon="19.570268159615356"><ele>12.0</ele><time>2026-04-29T16:39:59Z</time></trkpt><trkpt lat="42.0184185892166" lon="19.57038113284515"><ele>12.5</ele><time>2026-04-29T16:40:00Z</time></trkpt><trkpt lat="42.01830850403373" lon="19.570503768856412"><ele>13.0</ele><time>2026-04-29T16:40:01Z</time></trkpt><trkpt lat="42.01819382692791" lon="19.57062991274977"><ele>13.5</ele><time>2026-04-29T16:40:02Z</time></trkpt><trkpt lat="42.018079561853675" lon="19.570767644729305"><ele>14.0</ele><time>2026-04-29T16:40:03Z</time></trkpt><trkpt lat="42.017961867634064" lon="19.570910456259664"><ele>14.0</ele><time>2026-04-29T16:40:04Z</time></trkpt><trkpt lat="42.01785200237918" lon="19.571037270248983"><ele>14.0</ele><time>2026-04-29T16:40:05Z</time></trkpt><trkpt lat="42.01775349476975" lon="19.571148447154854"><ele>14.0</ele><time>2026-04-29T16:40:06Z</time></trkpt><trkpt lat="42.017656722817684" lon="19.571257256750986"><ele>14.0</ele><time>2026-04-29T16:40:07Z</time></trkpt><trkpt lat="42.017555718780784" lon="19.571376267308114"><ele>13.5</ele><time>2026-04-29T16:40:08Z</time></trkpt><trkpt lat="42.01744419960188" lon="19.57150179853551"><ele>13.0</ele><time>2026-04-29T16:40:09Z</time></trkpt><trkpt lat="42.017339766537525" lon="19.57162077260916"><ele>12.5</ele><time>2026-04-29T16:40:10Z</time></trkpt><trkpt lat="42.017263123585614" lon="19.571712487638994"><ele>12.0</ele><time>2026-04-29T16:40:11Z</time></trkpt><trkpt lat="42.01720379566885" lon="19.571776937299962"><ele>12.0</ele><time>2026-04-29T16:40:12Z</time></trkpt><trkpt lat="42.01711674068573" lon="19.57187974289668"><ele>12.0</ele><time>2026-04-29T16:40:14Z</time></trkpt><trkpt lat="42.01703098755604" lon="19.571980430396334"><ele>12.0</ele><time>2026-04-29T16:40:16Z</time></trkpt><trkpt lat="42.016966849665806" lon="19.57205288592469"><ele>12.0</ele><time>2026-04-29T16:40:18Z</time></trkpt><trkpt lat="42.016903252168206" lon="19.572119404773233"><ele>12.0</ele><time>2026-04-29T16:40:21Z</time></trkpt><trkpt lat="42.01685667947653" lon="19.57218841481306"><ele>12.0</ele><time>2026-04-29T16:40:24Z</time></trkpt><trkpt lat="42.01691764033372" lon="19.572091321624363"><ele>12.0</ele><time>2026-04-29T16:40:39Z</time></trkpt><trkpt lat="42.01700669614201" lon="19.5720060418281"><ele>12.0</ele><time>2026-04-29T16:40:41Z</time></trkpt><trkpt lat="42.0170641561447" lon="19.571943510746767"><ele>12.0</ele><time>2026-04-29T16:40:42Z</time></trkpt><trkpt lat="42.017149070394524" lon="19.57185084924501"><ele>12.0</ele><time>2026-04-29T16:40:44Z</time></trkpt><trkpt lat="42.01721287216267" lon="19.571772299671874"><ele>12.0</ele><time>2026-04-29T16:40:46Z</time></trkpt><trkpt lat="42.01727243803797" lon="19.571696851917288"><ele>12.0</ele><time>2026-04-29T16:40:48Z</time></trkpt><trkpt lat="42.01734968627123" lon="19.571612464489977"><ele>12.0</ele><time>2026-04-29T16:40:50Z</time></trkpt><trkpt lat="42.01740477322766" lon="19.571550353445886"><ele>12.0</ele><time>2026-04-29T16:40:51Z</time></trkpt><trkpt lat="42.017468860260536" lon="19.57147331758689"><ele>12.0</ele><time>2026-04-29T16:40:52Z</time></trkpt><trkpt lat="42.01754810387049" lon="19.57138421484486"><ele>12.0</ele><time>2026-04-29T16:40:53Z</time></trkpt><trkpt lat="42.017636867917155" lon="19.571281578479464"><ele>12.5</ele><time>2026-04-29T16:40:54Z</time></trkpt><trkpt lat="42.01773330146251" lon="19.571175498335343"><ele>13.0</ele><time>2026-04-29T16:40:55Z</time></trkpt><trkpt lat="42.01783289953209" lon="19.57105910731919"><ele>13.5</ele><time>2026-04-29T16:40:56Z</time></trkpt><trkpt lat="42.0179417347129" lon="19.570933421065998"><ele>14.0</ele><time>2026-04-29T16:40:57Z</time></trkpt><trkpt lat="42.01805523862005" lon="19.570798776173625"><ele>14.0</ele><time>2026-04-29T16:40:58Z</time></trkpt><trkpt lat="42.01817808254473" lon="19.570649216811656"><ele>14.0</ele><time>2026-04-29T16:40:59Z</time></trkpt><trkpt lat="42.01831029137478" lon="19.570495270742466"><ele>14.0</ele><time>2026-04-29T16:41:00Z</time></trkpt><trkpt lat="42.01844784293952" lon="19.570341340245704"><ele>13.5</ele><time>2026-04-29T16:41:01Z</time></trkpt><trkpt lat="42.01856732700968" lon="19.570204985403276"><ele>13.0</ele><time>2026-04-29T16:41:02Z</time></trkpt><trkpt lat="42.018670631834674" lon="19.57008809116314"><ele>12.5</ele><time>2026-04-29T16:41:03Z</time></trkpt><trkpt lat="42.01876386629157" lon="19.569979490629446"><ele>12.0</ele><time>2026-04-29T16:41:04Z</time></trkpt><trkpt lat="42.018856283975374" lon="19.569866933807106"><ele>12.0</ele><time>2026-04-29T16:41:05Z</time></trkpt><trkpt lat="42.01895500411737" lon="19.569755166634955"><ele>12.0</ele><time>2026-04-29T16:41:06Z</time></trkpt><trkpt lat="42.01907118126556" lon="19.569634195100264"><ele>12.0</ele><time>2026-04-29T16:41:07Z</time></trkpt><trkpt lat="42.0191867948602" lon="19.569508820643108"><ele>12.0</ele><time>2026-04-29T16:41:08Z</time></trkpt><trkpt lat="42.01930452126556" lon="19.569382139937105"><ele>11.75</ele><time>2026-04-29T16:41:09Z</time></trkpt><trkpt lat="42.01940905159865" lon="19.56926538293802"><ele>11.5</ele><time>2026-04-29T16:41:10Z</time></trkpt><trkpt lat="42.01949360881225" lon="19.56915756987477"><ele>11.25</ele><time>2026-04-29T16:41:11Z</time></trkpt><trkpt lat="42.01957867284936" lon="19.56905243764054"><ele>11.0</ele><time>2026-04-29T16:41:12Z</time></trkpt><trkpt lat="42.01966527767074" lon="19.568944716040594"><ele>11.0</ele><time>2026-04-29T16:41:13Z</time></trkpt><trkpt lat="42.019742627567474" lon="19.568854046202887"><ele>11.0</ele><time>2026-04-29T16:41:14Z</time></trkpt><trkpt lat="42.01980573826439" lon="19.56878436733123"><ele>11.0</ele><time>2026-04-29T16:41:15Z</time></trkpt><trkpt lat="42.01986618983488" lon="19.56871914513041"><ele>11.0</ele><time>2026-04-29T16:41:16Z</time></trkpt><trkpt lat="42.01992053076727" lon="19.56866123635145"><ele>11.0</ele><time>2026-04-29T16:41:17Z</time></trkpt><trkpt lat="42.01998906963256" lon="19.56858448405907"><ele>11.0</ele><time>2026-04-29T16:41:19Z</time></trkpt><trkpt lat="42.019941039800685" lon="19.56851554669548"><ele>11.0</ele><time>2026-04-29T16:41:23Z</time></trkpt><trkpt lat="42.019844760647956" lon="19.568481560234417"><ele>11.0</ele><time>2026-04-29T16:41:26Z</time></trkpt><trkpt lat="42.019802525144065" lon="19.56859575440212"><ele>11.0</ele><time>2026-04-29T16:41:27Z</time></trkpt><trkpt lat="42.01972294317806" lon="19.56869393776896"><ele>11.0</ele><time>2026-04-29T16:41:29Z</time></trkpt><trkpt lat="42.01966573519936" lon="19.568761261616018"><ele>11.0</ele><time>2026-04-29T16:41:30Z</time></trkpt><trkpt lat="42.01960150261796" lon="19.56883824234381"><ele>11.0</ele><time>2026-04-29T16:41:31Z</time></trkpt><trkpt lat="42.01954457571073" lon="19.5689016959546"><ele>11.0</ele><time>2026-04-29T16:41:32Z</time></trkpt><trkpt lat="42.01948773746984" lon="19.56896710061321"><ele>11.0</ele><time>2026-04-29T16:41:34Z</time></trkpt><trkpt lat="42.01941007792961" lon="19.568800215449006"><ele>11.0</ele><time>2026-04-29T16:41:57Z</time></trkpt><trkpt lat="42.01935403950492" lon="19.568727618702333"><ele>11.0</ele><time>2026-04-29T16:41:58Z</time></trkpt><trkpt lat="42.01927306940078" lon="19.568593908882786"><ele>11.0</ele><time>2026-04-29T16:42:00Z</time></trkpt><trkpt lat="42.019222506462455" lon="19.568513295122127"><ele>11.0</ele><time>2026-04-29T16:42:01Z</time></trkpt><trkpt lat="42.01916245986758" lon="19.56841694137736"><ele>11.0</ele><time>2026-04-29T16:42:02Z</time></trkpt><trkpt lat="42.019092967009534" lon="19.56830437070637"><ele>11.0</ele><time>2026-04-29T16:42:03Z</time></trkpt><trkpt lat="42.019019354434576" lon="19.568184406659896"><ele>11.0</ele><time>2026-04-29T16:42:04Z</time></trkpt><trkpt lat="42.01895327727608" lon="19.56807650141384"><ele>10.600000000000001</ele><time>2026-04-29T16:42:05Z</time></trkpt><trkpt lat="42.01889061901187" lon="19.567974179123087"><ele>10.200000000000001</ele><time>2026-04-29T16:42:06Z</time></trkpt><trkpt lat="42.01882067600456" lon="19.567859960476017"><ele>9.8</ele><time>2026-04-29T16:42:07Z</time></trkpt><trkpt lat="42.0187471931282" lon="19.56773996112094"><ele>9.4</ele><time>2026-04-29T16:42:08Z</time></trkpt><trkpt lat="42.01868584619232" lon="19.567639780045507"><ele>9.0</ele><time>2026-04-29T16:42:09Z</time></trkpt><trkpt lat="42.018630697992336" lon="19.567549722138082"><ele>9.5</ele><time>2026-04-29T16:42:10Z</time></trkpt><trkpt lat="42.018578968969464" lon="19.567465247428718"><ele>10.0</ele><time>2026-04-29T16:42:11Z</time></trkpt><trkpt lat="42.018530065325145" lon="19.567385383523735"><ele>10.5</ele><time>2026-04-29T16:42:12Z</time></trkpt><trkpt lat="42.018479537541175" lon="19.567306599553255"><ele>11.0</ele><time>2026-04-29T16:42:13Z</time></trkpt><trkpt lat="42.018423816235995" lon="19.567218188782103"><ele>11.5</ele><time>2026-04-29T16:42:14Z</time></trkpt><trkpt lat="42.01836394434157" lon="19.567122429476612"><ele>12.0</ele><time>2026-04-29T16:42:15Z</time></trkpt><trkpt lat="42.01831046580642" lon="19.567036769181907"><ele>12.166666666666666</ele><time>2026-04-29T16:42:16Z</time></trkpt><trkpt lat="42.018258392205674" lon="19.566953463938795"><ele>12.333333333333332</ele><time>2026-04-29T16:42:17Z</time></trkpt><trkpt lat="42.018199492857704" lon="19.566859483032818"><ele>12.5</ele><time>2026-04-29T16:42:18Z</time></trkpt><trkpt lat="42.01813620385132" lon="19.566758409151994"><ele>12.666666666666666</ele><time>2026-04-29T16:42:19Z</time></trkpt><trkpt lat="42.01807955319572" lon="19.566667845699637"><ele>12.833333333333332</ele><time>2026-04-29T16:42:20Z</time></trkpt><trkpt lat="42.01802810090207" lon="19.56658430000559"><ele>13.0</ele><time>2026-04-29T16:42:21Z</time></trkpt><trkpt lat="42.01797228821708" lon="19.566495395983665"><ele>13.0</ele><time>2026-04-29T16:42:22Z</time></trkpt><trkpt lat="42.017912626552864" lon="19.56640037351415"><ele>13.0</ele><time>2026-04-29T16:42:23Z</time></trkpt><trkpt lat="42.01785212717175" lon="19.566303466099054"><ele>13.0</ele><time>2026-04-29T16:42:24Z</time></trkpt><trkpt lat="42.01779445566937" lon="19.566212032407474"><ele>13.0</ele><time>2026-04-29T16:42:25Z</time></trkpt><trkpt lat="42.01773477839166" lon="19.56611656666502"><ele>13.0</ele><time>2026-04-29T16:42:26Z</time></trkpt><trkpt lat="42.01768057308239" lon="19.566029770940023"><ele>13.0</ele><time>2026-04-29T16:42:27Z</time></trkpt><trkpt lat="42.0176214021147" lon="19.56593502423012"><ele>13.0</ele><time>2026-04-29T16:42:28Z</time></trkpt><trkpt lat="42.01756609294278" lon="19.565846461189793"><ele>13.0</ele><time>2026-04-29T16:42:29Z</time></trkpt><trkpt lat="42.01750925613227" lon="19.565755753967945"><ele>13.0</ele><time>2026-04-29T16:42:29.999Z</time></trkpt><trkpt lat="42.017439617310906" lon="19.565650447960312"><ele>13.0</ele><time>2026-04-29T16:42:30.999Z</time></trkpt><trkpt lat="42.01737043966223" lon="19.565544890331285"><ele>13.0</ele><time>2026-04-29T16:42:31.999Z</time></trkpt><trkpt lat="42.01730207555772" lon="19.565441357838523"><ele>13.0</ele><time>2026-04-29T16:42:32.999Z</time></trkpt><trkpt lat="42.017225798384054" lon="19.56532584136191"><ele>13.0</ele><time>2026-04-29T16:42:33.999Z</time></trkpt><trkpt lat="42.01714793486831" lon="19.565207071521613"><ele>13.0</ele><time>2026-04-29T16:42:34.999Z</time></trkpt><trkpt lat="42.0170815013464" lon="19.565105732649826"><ele>13.0</ele><time>2026-04-29T16:42:35.999Z</time></trkpt><trkpt lat="42.01701468341736" lon="19.565003807445237"><ele>12.999999999999998</ele><time>2026-04-29T16:42:36.999Z</time></trkpt><trkpt lat="42.016945315293604" lon="19.564897991992947"><ele>13.0</ele><time>2026-04-29T16:42:37.999Z</time></trkpt><trkpt lat="42.01690128267599" lon="19.564831080489103"><ele>13.0</ele><time>2026-04-29T16:42:38.999Z</time></trkpt><trkpt lat="42.01685239369707" lon="19.564757001885916"><ele>13.0</ele><time>2026-04-29T16:42:40.999Z</time></trkpt><trkpt lat="42.016770824868004" lon="19.564633405933495"><ele>12.999999999999998</ele><time>2026-04-29T16:42:50Z</time></trkpt><trkpt lat="42.01672057175643" lon="19.5645543762672"><ele>13.0</ele><time>2026-04-29T16:42:51Z</time></trkpt><trkpt lat="42.01665972908678" lon="19.56445974835713"><ele>12.600000000000001</ele><time>2026-04-29T16:42:52Z</time></trkpt><trkpt lat="42.01659574658184" lon="19.564360509146102"><ele>12.200000000000001</ele><time>2026-04-29T16:42:53Z</time></trkpt><trkpt lat="42.01652586967916" lon="19.564252127575998"><ele>11.8</ele><time>2026-04-29T16:42:54Z</time></trkpt><trkpt lat="42.016454399545964" lon="19.564141274774325"><ele>11.4</ele><time>2026-04-29T16:42:55Z</time></trkpt><trkpt lat="42.016390558889924" lon="19.56404225555223"><ele>11.0</ele><time>2026-04-29T16:42:56Z</time></trkpt><trkpt lat="42.01632892081937" lon="19.56394665272163"><ele>11.0</ele><time>2026-04-29T16:42:57Z</time></trkpt><trkpt lat="42.016256405737614" lon="19.563834179188127"><ele>11.0</ele><time>2026-04-29T16:42:58Z</time></trkpt><trkpt lat="42.01617751608607" lon="19.563711818481085"><ele>11.0</ele><time>2026-04-29T16:42:59Z</time></trkpt><trkpt lat="42.01609992409399" lon="19.56359147049648"><ele>11.0</ele><time>2026-04-29T16:43:00Z</time></trkpt><trkpt lat="42.016027529464644" lon="19.56347918378483"><ele>11.0</ele><time>2026-04-29T16:43:01Z</time></trkpt><trkpt lat="42.015958241390976" lon="19.563371384510127"><ele>11.0</ele><time>2026-04-29T16:43:02Z</time></trkpt><trkpt lat="42.01589139400725" lon="19.56326640136577"><ele>11.0</ele><time>2026-04-29T16:43:03Z</time></trkpt><trkpt lat="42.01583453968113" lon="19.563175538724416"><ele>11.0</ele><time>2026-04-29T16:43:04Z</time></trkpt><trkpt lat="42.015768683112775" lon="19.563070288915245"><ele>11.0</ele><time>2026-04-29T16:43:05Z</time></trkpt><trkpt lat="42.01570431090563" lon="19.56296744326835"><ele>11.0</ele><time>2026-04-29T16:43:06Z</time></trkpt><trkpt lat="42.01563330013501" lon="19.56285481861906"><ele>11.0</ele><time>2026-04-29T16:43:07Z</time></trkpt><trkpt lat="42.015559292925204" lon="19.562737441610746"><ele>11.0</ele><time>2026-04-29T16:43:08Z</time></trkpt><trkpt lat="42.015485178405996" lon="19.562619741259663"><ele>11.0</ele><time>2026-04-29T16:43:09Z</time></trkpt><trkpt lat="42.01541249059537" lon="19.56250425194592"><ele>11.0</ele><time>2026-04-29T16:43:10Z</time></trkpt><trkpt lat="42.01533385734079" lon="19.5623793163351"><ele>11.0</ele><time>2026-04-29T16:43:11Z</time></trkpt><trkpt lat="42.01525272615968" lon="19.562253554034324"><ele>11.0</ele><time>2026-04-29T16:43:12Z</time></trkpt><trkpt lat="42.01517281134774" lon="19.562135556904447"><ele>11.0</ele><time>2026-04-29T16:43:13Z</time></trkpt><trkpt lat="42.015098976336304" lon="19.562035745352258"><ele>11.0</ele><time>2026-04-29T16:43:14Z</time></trkpt><trkpt lat="42.01505312350133" lon="19.561930875250816"><ele>11.0</ele><time>2026-04-29T16:43:15Z</time></trkpt><trkpt lat="42.014983800109356" lon="19.56187430963981"><ele>11.0</ele><time>2026-04-29T16:43:16Z</time></trkpt><trkpt lat="42.014923346258804" lon="19.561744062241516"><ele>11.0</ele><time>2026-04-29T16:43:18Z</time></trkpt><trkpt lat="42.014967467515" lon="19.561626561023036"><ele>11.0</ele><time>2026-04-29T16:43:20Z</time></trkpt><trkpt lat="42.014987375241695" lon="19.561537556198246"><ele>11.0</ele><time>2026-04-29T16:43:21Z</time></trkpt><trkpt lat="42.015011010764255" lon="19.5614318846533"><ele>11.0</ele><time>2026-04-29T16:43:22Z</time></trkpt><trkpt lat="42.01503910336698" lon="19.561307766477203"><ele>11.0</ele><time>2026-04-29T16:43:23Z</time></trkpt><trkpt lat="42.015070851250876" lon="19.561168220964518"><ele>11.0</ele><time>2026-04-29T16:43:24Z</time></trkpt><trkpt lat="42.01510334421214" lon="19.561025511084452"><ele>11.0</ele><time>2026-04-29T16:43:25Z</time></trkpt><trkpt lat="42.01513288875716" lon="19.560894907603178"><ele>11.0</ele><time>2026-04-29T16:43:26Z</time></trkpt><trkpt lat="42.015165451061456" lon="19.560752848849386"><ele>11.0</ele><time>2026-04-29T16:43:27Z</time></trkpt><trkpt lat="42.01519755618566" lon="19.56061088077973"><ele>11.0</ele><time>2026-04-29T16:43:28Z</time></trkpt><trkpt lat="42.015226380085096" lon="19.560483474801345"><ele>11.0</ele><time>2026-04-29T16:43:29Z</time></trkpt><trkpt lat="42.01525449217979" lon="19.56035744269583"><ele>11.0</ele><time>2026-04-29T16:43:30Z</time></trkpt><trkpt lat="42.0152704794976" lon="19.560214398606902"><ele>11.0</ele><time>2026-04-29T16:43:31Z</time></trkpt><trkpt lat="42.0153012166609" lon="19.560077189010762"><ele>11.0</ele><time>2026-04-29T16:43:32Z</time></trkpt><trkpt lat="42.01533744053916" lon="19.559941020820062"><ele>11.0</ele><time>2026-04-29T16:43:33Z</time></trkpt><trkpt lat="42.01537345506267" lon="19.55978945206489"><ele>11.0</ele><time>2026-04-29T16:43:34Z</time></trkpt><trkpt lat="42.01540172931976" lon="19.559659483947026"><ele>11.0</ele><time>2026-04-29T16:43:35Z</time></trkpt><trkpt lat="42.01542545456176" lon="19.559542550133216"><ele>11.166666666666666</ele><time>2026-04-29T16:43:36Z</time></trkpt><trkpt lat="42.01544972968004" lon="19.559439659627216"><ele>11.333333333333332</ele><time>2026-04-29T16:43:37Z</time></trkpt><trkpt lat="42.01547266699373" lon="19.559347642754695"><ele>11.5</ele><time>2026-04-29T16:43:38Z</time></trkpt><trkpt lat="42.015496637463826" lon="19.55924848846194"><ele>11.666666666666666</ele><time>2026-04-29T16:43:39Z</time></trkpt><trkpt lat="42.01552475847734" lon="19.559131190379368"><ele>11.833333333333334</ele><time>2026-04-29T16:43:40Z</time></trkpt><trkpt lat="42.015560373149135" lon="19.558996497011204"><ele>12.0</ele><time>2026-04-29T16:43:41Z</time></trkpt><trkpt lat="42.01560194352581" lon="19.55885112644605"><ele>12.0</ele><time>2026-04-29T16:43:42Z</time></trkpt><trkpt lat="42.015654084136465" lon="19.558715404645685"><ele>12.0</ele><time>2026-04-29T16:43:43Z</time></trkpt><trkpt lat="42.01570851210221" lon="19.558593859474474"><ele>12.0</ele><time>2026-04-29T16:43:44Z</time></trkpt><trkpt lat="42.01576566066189" lon="19.558460379602653"><ele>12.0</ele><time>2026-04-29T16:43:45Z</time></trkpt><trkpt lat="42.015828172532004" lon="19.5583197157859"><ele>12.25</ele><time>2026-04-29T16:43:46Z</time></trkpt><trkpt lat="42.01589333997932" lon="19.558176807169687"><ele>12.5</ele><time>2026-04-29T16:43:47Z</time></trkpt><trkpt lat="42.01595962796164" lon="19.558025459366522"><ele>12.75</ele><time>2026-04-29T16:43:48Z</time></trkpt><trkpt lat="42.01602881473302" lon="19.55787306447125"><ele>13.0</ele><time>2026-04-29T16:43:49Z</time></trkpt><trkpt lat="42.01609907007125" lon="19.557720840867464"><ele>12.600000000000001</ele><time>2026-04-29T16:43:50Z</time></trkpt><trkpt lat="42.01616387116417" lon="19.557589098156622"><ele>12.200000000000001</ele><time>2026-04-29T16:43:51Z</time></trkpt><trkpt lat="42.01622644749543" lon="19.557453568120753"><ele>11.8</ele><time>2026-04-29T16:43:52Z</time></trkpt><trkpt lat="42.01630041581134" lon="19.557340236745798"><ele>11.4</ele><time>2026-04-29T16:43:53Z</time></trkpt><trkpt lat="42.01635096438182" lon="19.557235170625475"><ele>11.0</ele><time>2026-04-29T16:43:54Z</time></trkpt><trkpt lat="42.01639561347284" lon="19.557126087296922"><ele>10.833333333333332</ele><time>2026-04-29T16:43:55Z</time></trkpt><trkpt lat="42.01644539645115" lon="19.5570178589643"><ele>10.666666666666666</ele><time>2026-04-29T16:43:56Z</time></trkpt><trkpt lat="42.01649581710584" lon="19.55693054090675"><ele>10.5</ele><time>2026-04-29T16:43:57Z</time></trkpt><trkpt lat="42.01653728159851" lon="19.556850114216527"><ele>10.333333333333334</ele><time>2026-04-29T16:43:58Z</time></trkpt><trkpt lat="42.01657547500939" lon="19.556776055427644"><ele>10.166666666666668</ele><time>2026-04-29T16:43:59Z</time></trkpt><trkpt lat="42.01657667968984" lon="19.556688457500375"><ele>10.0</ele><time>2026-04-29T16:44:00Z</time></trkpt><trkpt lat="42.01662013635607" lon="19.556566824412382"><ele>10.0</ele><time>2026-04-29T16:44:02Z</time></trkpt><trkpt lat="42.0166621505915" lon="19.556489907420016"><ele>10.0</ele><time>2026-04-29T16:44:05Z</time></trkpt><trkpt lat="42.01667063065014" lon="19.556381386599725"><ele>10.0</ele><time>2026-04-29T16:44:10Z</time></trkpt><trkpt lat="42.01672686927008" lon="19.556265950361695"><ele>10.0</ele><time>2026-04-29T16:44:12Z</time></trkpt><trkpt lat="42.01677049544816" lon="19.556168246615087"><ele>10.0</ele><time>2026-04-29T16:44:13Z</time></trkpt><trkpt lat="42.01680979353605" lon="19.556050854465283"><ele>10.0</ele><time>2026-04-29T16:44:14Z</time></trkpt><trkpt lat="42.01684902928331" lon="19.55592471638458"><ele>10.0</ele><time>2026-04-29T16:44:15Z</time></trkpt><trkpt lat="42.016877198209976" lon="19.555778630560443"><ele>10.0</ele><time>2026-04-29T16:44:16Z</time></trkpt><trkpt lat="42.016928013843945" lon="19.555636902173376"><ele>10.0</ele><time>2026-04-29T16:44:17Z</time></trkpt><trkpt lat="42.01697866826284" lon="19.55551587735679"><ele>10.0</ele><time>2026-04-29T16:44:18Z</time></trkpt><trkpt lat="42.01701855950779" lon="19.555397804177304"><ele>10.0</ele><time>2026-04-29T16:44:19Z</time></trkpt><trkpt lat="42.01705419260097" lon="19.55529233463586"><ele>10.0</ele><time>2026-04-29T16:44:20Z</time></trkpt><trkpt lat="42.01709104132102" lon="19.555182340540654"><ele>10.0</ele><time>2026-04-29T16:44:21Z</time></trkpt><trkpt lat="42.01711812491984" lon="19.555099982814507"><ele>10.0</ele><time>2026-04-29T16:44:22Z</time></trkpt><trkpt lat="42.017185623469686" lon="19.555006052804327"><ele>10.0</ele><time>2026-04-29T16:44:24Z</time></trkpt><trkpt lat="42.01712522024451" lon="19.554826441120444"><ele>10.0</ele><time>2026-04-29T16:44:53Z</time></trkpt><trkpt lat="42.01705641299174" lon="19.554812176283928"><ele>10.0</ele><time>2026-04-29T16:44:55Z</time></trkpt><trkpt lat="42.01698897224213" lon="19.55484137860733"><ele>10.0</ele><time>2026-04-29T16:44:58Z</time></trkpt><trkpt lat="42.017050054279004" lon="19.554818921112343"><ele>10.0</ele><time>2026-04-29T16:45:41Z</time></trkpt><trkpt lat="42.01715608748654" lon="19.55479216585047"><ele>10.0</ele><time>2026-04-29T16:45:43Z</time></trkpt><trkpt lat="42.01725081275734" lon="19.55491871974613"><ele>10.0</ele><time>2026-04-29T16:45:45Z</time></trkpt><trkpt lat="42.01730609186224" lon="19.55484117140694"><ele>10.0</ele><time>2026-04-29T16:45:47Z</time></trkpt><trkpt lat="42.01740016808104" lon="19.55474195769379"><ele>10.0</ele><time>2026-04-29T16:45:49Z</time></trkpt><trkpt lat="42.017482354369065" lon="19.55464635453584"><ele>10.0</ele><time>2026-04-29T16:45:51Z</time></trkpt><trkpt lat="42.01747177457117" lon="19.554474714677248"><ele>10.0</ele><time>2026-04-29T16:45:53Z</time></trkpt><trkpt lat="42.01748703369848" lon="19.554321426715745"><ele>11.6</ele><time>2026-04-29T16:45:55Z</time></trkpt><trkpt lat="42.01750922639702" lon="19.554207030974226"><ele>13.2</ele><time>2026-04-29T16:45:57Z</time></trkpt><trkpt lat="42.017519165805986" lon="19.554083042456263"><ele>14.8</ele><time>2026-04-29T16:45:59Z</time></trkpt><trkpt lat="42.01752767058079" lon="19.553997607750944"><ele>16.4</ele><time>2026-04-29T16:46:00Z</time></trkpt><trkpt lat="42.01768804359222" lon="19.55393796932131"><ele>18.0</ele><time>2026-04-29T16:46:01Z</time></trkpt><trkpt lat="42.01774266809212" lon="19.553809343441337"><ele>18.0</ele><time>2026-04-29T16:46:03Z</time></trkpt><trkpt lat="42.01775468813702" lon="19.553718428838195"><ele>18.0</ele><time>2026-04-29T16:46:05Z</time></trkpt><trkpt lat="42.01778679667334" lon="19.55362500448752"><ele>18.0</ele><time>2026-04-29T16:46:08Z</time></trkpt><trkpt lat="42.017833111430896" lon="19.55350536180932"><ele>18.0</ele><time>2026-04-29T16:46:10Z</time></trkpt><trkpt lat="42.01789062895737" lon="19.55339198948538"><ele>18.0</ele><time>2026-04-29T16:46:11.999Z</time></trkpt><trkpt lat="42.01798375758687" lon="19.553258392844644"><ele>17.5</ele><time>2026-04-29T16:46:13.999Z</time></trkpt><trkpt lat="42.01804487453143" lon="19.553175096798103"><ele>17.0</ele><time>2026-04-29T16:46:14.999Z</time></trkpt><trkpt lat="42.01810851484074" lon="19.553100753772355"><ele>16.5</ele><time>2026-04-29T16:46:15.999Z</time></trkpt><trkpt lat="42.01816687519332" lon="19.553044929424253"><ele>16.0</ele><time>2026-04-29T16:46:16.999Z</time></trkpt><trkpt lat="42.01826065934776" lon="19.552936792917546"><ele>15.5</ele><time>2026-04-29T16:46:18.999Z</time></trkpt><trkpt lat="42.01831113095183" lon="19.552871540413598"><ele>15.0</ele><time>2026-04-29T16:46:19.999Z</time></trkpt><trkpt lat="42.01836332477742" lon="19.552800874129797"><ele>15.0</ele><time>2026-04-29T16:46:20.999Z</time></trkpt><trkpt lat="42.01840915658294" lon="19.552741129827947"><ele>15.0</ele><time>2026-04-29T16:46:21.999Z</time></trkpt><trkpt lat="42.018496481531464" lon="19.552632904429867"><ele>15.0</ele><time>2026-04-29T16:46:23.999Z</time></trkpt><trkpt lat="42.01859345736923" lon="19.552511724656966"><ele>15.0</ele><time>2026-04-29T16:46:25.999Z</time></trkpt><trkpt lat="42.01864958014432" lon="19.552437294219"><ele>15.0</ele><time>2026-04-29T16:46:26.999Z</time></trkpt><trkpt lat="42.01871348385374" lon="19.55235752333511"><ele>15.0</ele><time>2026-04-29T16:46:27.999Z</time></trkpt><trkpt lat="42.01877247332703" lon="19.552290574404168"><ele>15.0</ele><time>2026-04-29T16:46:28.999Z</time></trkpt><trkpt lat="42.01883168478409" lon="19.552236946127312"><ele>15.0</ele><time>2026-04-29T16:46:29.999Z</time></trkpt><trkpt lat="42.01890385965531" lon="19.552190841853918"><ele>15.0</ele><time>2026-04-29T16:46:30.999Z</time></trkpt><trkpt lat="42.01897595574213" lon="19.552157333279446"><ele>15.0</ele><time>2026-04-29T16:46:31.999Z</time></trkpt><trkpt lat="42.01904665775979" lon="19.552132327895063"><ele>15.0</ele><time>2026-04-29T16:46:32.999Z</time></trkpt><trkpt lat="42.01909322256434" lon="19.55203851708162"><ele>15.0</ele><time>2026-04-29T16:46:33.999Z</time></trkpt><trkpt lat="42.01916773456275" lon="19.55197436482084"><ele>15.0</ele><time>2026-04-29T16:46:34.999Z</time></trkpt><trkpt lat="42.019241677689834" lon="19.55187796587948"><ele>15.0</ele><time>2026-04-29T16:46:35.999Z</time></trkpt><trkpt lat="42.019324029409766" lon="19.551772065433745"><ele>15.0</ele><time>2026-04-29T16:46:36.999Z</time></trkpt><trkpt lat="42.01940090240808" lon="19.551672698699992"><ele>15.0</ele><time>2026-04-29T16:46:37.999Z</time></trkpt><trkpt lat="42.01947043794033" lon="19.551583120639815"><ele>15.0</ele><time>2026-04-29T16:46:38.999Z</time></trkpt><trkpt lat="42.01954170315635" lon="19.55149196374639"><ele>15.0</ele><time>2026-04-29T16:46:39.999Z</time></trkpt><trkpt lat="42.019612448336936" lon="19.551400835585156"><ele>15.0</ele><time>2026-04-29T16:46:40.999Z</time></trkpt><trkpt lat="42.01968071961092" lon="19.551313911856123"><ele>15.0</ele><time>2026-04-29T16:46:41.999Z</time></trkpt><trkpt lat="42.019759515917016" lon="19.55121355196988"><ele>15.0</ele><time>2026-04-29T16:46:42.999Z</time></trkpt><trkpt lat="42.01982480755516" lon="19.551130038672174"><ele>15.0</ele><time>2026-04-29T16:46:43.999Z</time></trkpt><trkpt lat="42.01989801285101" lon="19.551036403129093"><ele>15.0</ele><time>2026-04-29T16:46:44.999Z</time></trkpt><trkpt lat="42.019977048844495" lon="19.550930025708297"><ele>15.0</ele><time>2026-04-29T16:46:45.999Z</time></trkpt><trkpt lat="42.02005919702255" lon="19.55081834875853"><ele>15.0</ele><time>2026-04-29T16:46:46.999Z</time></trkpt><trkpt lat="42.02012676206842" lon="19.550704211037612"><ele>15.0</ele><time>2026-04-29T16:46:47.999Z</time></trkpt><trkpt lat="42.02018277965639" lon="19.550608782216162"><ele>15.0</ele><time>2026-04-29T16:46:48.999Z</time></trkpt><trkpt lat="42.02022979654944" lon="19.55052897022487"><ele>15.0</ele><time>2026-04-29T16:46:49.999Z</time></trkpt><trkpt lat="42.020284098454304" lon="19.550472771541884"><ele>15.0</ele><time>2026-04-29T16:46:50.999Z</time></trkpt><trkpt lat="42.02037238308495" lon="19.550342696418166"><ele>15.0</ele><time>2026-04-29T16:46:52.999Z</time></trkpt><trkpt lat="42.02046485754521" lon="19.5503185212781"><ele>15.0</ele><time>2026-04-29T16:46:54Z</time></trkpt><trkpt lat="42.02056318416445" lon="19.55026475264062"><ele>15.4</ele><time>2026-04-29T16:46:55Z</time></trkpt><trkpt lat="42.02064984062767" lon="19.550185935470427"><ele>15.8</ele><time>2026-04-29T16:46:56Z</time></trkpt><trkpt lat="42.02073950397987" lon="19.550119454024877"><ele>16.2</ele><time>2026-04-29T16:46:57Z</time></trkpt><trkpt lat="42.020813250707995" lon="19.55003570201612"><ele>16.6</ele><time>2026-04-29T16:46:58Z</time></trkpt><trkpt lat="42.0208740095941" lon="19.549956763528503"><ele>17.0</ele><time>2026-04-29T16:46:59Z</time></trkpt><trkpt lat="42.0209316982599" lon="19.549886944443053"><ele>17.0</ele><time>2026-04-29T16:47:00Z</time></trkpt><trkpt lat="42.02100037848465" lon="19.549809680131304"><ele>17.0</ele><time>2026-04-29T16:47:01Z</time></trkpt><trkpt lat="42.02107659513058" lon="19.549728450982006"><ele>17.0</ele><time>2026-04-29T16:47:02Z</time></trkpt><trkpt lat="42.021155150701716" lon="19.54964619392446"><ele>17.0</ele><time>2026-04-29T16:47:03Z</time></trkpt><trkpt lat="42.021216158355585" lon="19.549565845325432"><ele>17.0</ele><time>2026-04-29T16:47:04Z</time></trkpt><trkpt lat="42.02126967671799" lon="19.549472794096"><ele>16.0</ele><time>2026-04-29T16:47:05Z</time></trkpt><trkpt lat="42.021331940919104" lon="19.54935624722076"><ele>15.0</ele><time>2026-04-29T16:47:06Z</time></trkpt><trkpt lat="42.02139710208777" lon="19.549271991284144"><ele>14.0</ele><time>2026-04-29T16:47:07Z</time></trkpt><trkpt lat="42.02143750318704" lon="19.549196238827534"><ele>13.0</ele><time>2026-04-29T16:47:08Z</time></trkpt><trkpt lat="42.02147746809476" lon="19.549126553159407"><ele>12.0</ele><time>2026-04-29T16:47:09Z</time></trkpt><trkpt lat="42.0215218051006" lon="19.549048937604482"><ele>11.0</ele><time>2026-04-29T16:47:10Z</time></trkpt><trkpt lat="42.02158455504376" lon="19.54893908844249"><ele>11.0</ele><time>2026-04-29T16:47:12Z</time></trkpt><trkpt lat="42.021621853492135" lon="19.54886913628564"><ele>11.0</ele><time>2026-04-29T16:47:58Z</time></trkpt><trkpt lat="42.02166567375254" lon="19.548778498771394"><ele>11.0</ele><time>2026-04-29T16:48:00Z</time></trkpt><trkpt lat="42.021716037670366" lon="19.548674994576604"><ele>11.0</ele><time>2026-04-29T16:48:02Z</time></trkpt><trkpt lat="42.02177747231908" lon="19.548548084798302"><ele>11.0</ele><time>2026-04-29T16:48:04Z</time></trkpt><trkpt lat="42.021811271686744" lon="19.54840918267163"><ele>10.833333333333332</ele><time>2026-04-29T16:48:06Z</time></trkpt><trkpt lat="42.021860837762446" lon="19.548324900383797"><ele>10.666666666666666</ele><time>2026-04-29T16:48:08Z</time></trkpt><trkpt lat="42.021894214768345" lon="19.548237028336853"><ele>10.5</ele><time>2026-04-29T16:48:11Z</time></trkpt><trkpt lat="42.0219324381841" lon="19.548136396678064"><ele>10.333333333333334</ele><time>2026-04-29T16:48:13Z</time></trkpt><trkpt lat="42.02198944715186" lon="19.547978908561223"><ele>10.166666666666668</ele><time>2026-04-29T16:48:15Z</time></trkpt><trkpt lat="42.02202233656694" lon="19.54788660077971"><ele>10.0</ele><time>2026-04-29T16:48:16Z</time></trkpt><trkpt lat="42.02207358655834" lon="19.547743971391718"><ele>10.0</ele><time>2026-04-29T16:48:18Z</time></trkpt><trkpt lat="42.02206559042302" lon="19.547640106240205"><ele>10.0</ele><time>2026-04-29T16:48:19Z</time></trkpt><trkpt lat="42.022092823338404" lon="19.547559769572626"><ele>10.0</ele><time>2026-04-29T16:48:20Z</time></trkpt><trkpt lat="42.022119406952335" lon="19.54741939030936"><ele>10.0</ele><time>2026-04-29T16:48:22Z</time></trkpt><trkpt lat="42.022138287374545" lon="19.54733526702429"><ele>10.0</ele><time>2026-04-29T16:48:23Z</time></trkpt><trkpt lat="42.02215240626703" lon="19.54720159887196"><ele>10.0</ele><time>2026-04-29T16:48:25Z</time></trkpt><trkpt lat="42.02221402343647" lon="19.547093209080245"><ele>10.0</ele><time>2026-04-29T16:48:27Z</time></trkpt><trkpt lat="42.0222629758032" lon="19.54699890526455"><ele>10.0</ele><time>2026-04-29T16:48:30Z</time></trkpt><trkpt lat="42.02230301385218" lon="19.546905939969264"><ele>10.0</ele><time>2026-04-29T16:48:33Z</time></trkpt><trkpt lat="42.02236428761377" lon="19.54680009776882"><ele>10.0</ele><time>2026-04-29T16:48:56Z</time></trkpt><trkpt lat="42.02242048307712" lon="19.54670533544134"><ele>10.0</ele><time>2026-04-29T16:48:58Z</time></trkpt><trkpt lat="42.02247529095709" lon="19.546656347399672"><ele>10.0</ele><time>2026-04-29T16:49:02Z</time></trkpt><trkpt lat="42.022579820077056" lon="19.546616649893718"><ele>11.666666666666668</ele><time>2026-04-29T16:49:05Z</time></trkpt><trkpt lat="42.02264424512185" lon="19.54659231870212"><ele>13.333333333333334</ele><time>2026-04-29T16:49:06Z</time></trkpt><trkpt lat="42.02271326495352" lon="19.54656204911757"><ele>15.0</ele><time>2026-04-29T16:49:07Z</time></trkpt><trkpt lat="42.02280123138519" lon="19.546507152473563"><ele>16.666666666666668</ele><time>2026-04-29T16:49:09Z</time></trkpt><trkpt lat="42.02287800408584" lon="19.546471158796354"><ele>18.333333333333336</ele><time>2026-04-29T16:49:11Z</time></trkpt><trkpt lat="42.02294561752699" lon="19.54642855801118"><ele>20.0</ele><time>2026-04-29T16:49:16Z</time></trkpt><trkpt lat="42.02295090405723" lon="19.54626691382493"><ele>18.6</ele><time>2026-04-29T16:49:17Z</time></trkpt><trkpt lat="42.02294785781125" lon="19.546146128398803"><ele>17.2</ele><time>2026-04-29T16:49:19Z</time></trkpt><trkpt lat="42.022918367754045" lon="19.54601091071613"><ele>15.8</ele><time>2026-04-29T16:49:21Z</time></trkpt><trkpt lat="42.02287615174146" lon="19.545894194999995"><ele>14.4</ele><time>2026-04-29T16:49:23Z</time></trkpt><trkpt lat="42.02285035866202" lon="19.54578829708097"><ele>13.0</ele><time>2026-04-29T16:49:25Z</time></trkpt><trkpt lat="42.02284335022037" lon="19.545642342215455"><ele>12.999999999999998</ele><time>2026-04-29T16:49:27Z</time></trkpt><trkpt lat="42.022858398922786" lon="19.54548986061977"><ele>13.0</ele><time>2026-04-29T16:49:29Z</time></trkpt><trkpt lat="42.02290915908293" lon="19.545376658685235"><ele>13.0</ele><time>2026-04-29T16:49:31Z</time></trkpt><trkpt lat="42.02296783692212" lon="19.545302779465313"><ele>13.0</ele><time>2026-04-29T16:49:33Z</time></trkpt><trkpt lat="42.02303219489855" lon="19.545249225795207"><ele>12.999999999999998</ele><time>2026-04-29T16:49:35Z</time></trkpt><trkpt lat="42.02309449209184" lon="19.54520246680558"><ele>13.0</ele><time>2026-04-29T16:49:37Z</time></trkpt><trkpt lat="42.02315994245472" lon="19.54516157036978"><ele>12.0</ele><time>2026-04-29T16:49:40Z</time></trkpt><trkpt lat="42.02311958976821" lon="19.545057748757333"><ele>11.0</ele><time>2026-04-29T16:49:44Z</time></trkpt><trkpt lat="42.023047914413446" lon="19.5450022053043"><ele>10.0</ele><time>2026-04-29T16:49:58Z</time></trkpt><trkpt lat="42.02293733195209" lon="19.54497224855605"><ele>9.0</ele><time>2026-04-29T16:50:01Z</time></trkpt><trkpt lat="42.022863694403235" lon="19.544847606615583"><ele>8.0</ele><time>2026-04-29T16:50:03Z</time></trkpt><trkpt lat="42.02281754722139" lon="19.544784509643765"><ele>8.0</ele><time>2026-04-29T16:50:04Z</time></trkpt><trkpt lat="42.022778301960464" lon="19.544637562296767"><ele>8.0</ele><time>2026-04-29T16:50:06Z</time></trkpt><trkpt lat="42.02275511952784" lon="19.544557008704622"><ele>8.0</ele><time>2026-04-29T16:50:07Z</time></trkpt><trkpt lat="42.022745742722336" lon="19.54441981400855"><ele>8.0</ele><time>2026-04-29T16:50:09Z</time></trkpt><trkpt lat="42.022758313906614" lon="19.544277885460975"><ele>8.0</ele><time>2026-04-29T16:50:11Z</time></trkpt><trkpt lat="42.02278571076285" lon="19.54418205526997"><ele>8.166666666666666</ele><time>2026-04-29T16:50:12Z</time></trkpt><trkpt lat="42.02282496323571" lon="19.54408775128929"><ele>8.333333333333332</ele><time>2026-04-29T16:50:13Z</time></trkpt><trkpt lat="42.022848298381504" lon="19.54398865027403"><ele>8.5</ele><time>2026-04-29T16:50:14Z</time></trkpt><trkpt lat="42.022903609555506" lon="19.543900733881262"><ele>8.666666666666666</ele><time>2026-04-29T16:50:15Z</time></trkpt><trkpt lat="42.02296445819459" lon="19.543798261626286"><ele>8.833333333333334</ele><time>2026-04-29T16:50:16Z</time></trkpt><trkpt lat="42.02300628756899" lon="19.543697981351634"><ele>9.0</ele><time>2026-04-29T16:50:17Z</time></trkpt><trkpt lat="42.02305140494787" lon="19.543631127069794"><ele>9.0</ele><time>2026-04-29T16:50:18Z</time></trkpt><trkpt lat="42.02308046489377" lon="19.543537284586044"><ele>9.0</ele><time>2026-04-29T16:50:19Z</time></trkpt><trkpt lat="42.02310366895521" lon="19.543449383935904"><ele>9.0</ele><time>2026-04-29T16:50:20Z</time></trkpt><trkpt lat="42.02311924816024" lon="19.54336307678617"><ele>9.0</ele><time>2026-04-29T16:50:21Z</time></trkpt><trkpt lat="42.02314399040278" lon="19.54321343000888"><ele>9.0</ele><time>2026-04-29T16:50:23Z</time></trkpt><trkpt lat="42.02314505386473" lon="19.54311091844724"><ele>9.0</ele><time>2026-04-29T16:50:24Z</time></trkpt><trkpt lat="42.0231572319687" lon="19.542997681273853"><ele>9.0</ele><time>2026-04-29T16:50:25Z</time></trkpt><trkpt lat="42.02315678918517" lon="19.54290235319907"><ele>9.0</ele><time>2026-04-29T16:50:26Z</time></trkpt><trkpt lat="42.02316375723628" lon="19.54279519668653"><ele>9.0</ele><time>2026-04-29T16:50:27Z</time></trkpt><trkpt lat="42.023180874845465" lon="19.542678812980984"><ele>9.0</ele><time>2026-04-29T16:50:28Z</time></trkpt><trkpt lat="42.02322437405611" lon="19.542578817302658"><ele>9.0</ele><time>2026-04-29T16:50:29Z</time></trkpt><trkpt lat="42.02327205579581" lon="19.54250182736309"><ele>9.0</ele><time>2026-04-29T16:50:30Z</time></trkpt><trkpt lat="42.02332008336302" lon="19.542395718063805"><ele>9.0</ele><time>2026-04-29T16:50:31Z</time></trkpt><trkpt lat="42.023376180299465" lon="19.54226857327424"><ele>9.0</ele><time>2026-04-29T16:50:32Z</time></trkpt><trkpt lat="42.023417840581146" lon="19.542133087933"><ele>9.0</ele><time>2026-04-29T16:50:33Z</time></trkpt><trkpt lat="42.02344420998983" lon="19.542039411258262"><ele>9.0</ele><time>2026-04-29T16:50:34Z</time></trkpt><trkpt lat="42.02342876110439" lon="19.541942087389664"><ele>9.0</ele><time>2026-04-29T16:50:35Z</time></trkpt><trkpt lat="42.023451610643086" lon="19.54184508591227"><ele>9.0</ele><time>2026-04-29T16:50:36Z</time></trkpt><trkpt lat="42.02346937400366" lon="19.541742715770276"><ele>8.666666666666666</ele><time>2026-04-29T16:50:37Z</time></trkpt><trkpt lat="42.02354279246887" lon="19.54164786878223"><ele>8.333333333333334</ele><time>2026-04-29T16:50:39Z</time></trkpt><trkpt lat="42.02356751166813" lon="19.541569745033783"><ele>8.0</ele><time>2026-04-29T16:50:40Z</time></trkpt><trkpt lat="42.02356677444334" lon="19.541452011783726"><ele>7.666666666666667</ele><time>2026-04-29T16:50:42Z</time></trkpt><trkpt lat="42.02355989101093" lon="19.541353190611524"><ele>7.333333333333334</ele><time>2026-04-29T16:50:44Z</time></trkpt><trkpt lat="42.02357018751776" lon="19.541268814234627"><ele>7.0</ele><time>2026-04-29T16:50:45Z</time></trkpt><trkpt lat="42.0235686029696" lon="19.541175286258472"><ele>7.000000000000001</ele><time>2026-04-29T16:50:46Z</time></trkpt><trkpt lat="42.02356681527226" lon="19.541069767405123"><ele>7.0</ele><time>2026-04-29T16:50:47Z</time></trkpt><trkpt lat="42.02356916299092" lon="19.54095590770971"><ele>7.0</ele><time>2026-04-29T16:50:48Z</time></trkpt><trkpt lat="42.02362931352783" lon="19.540890886327865"><ele>7.0</ele><time>2026-04-29T16:50:49Z</time></trkpt><trkpt lat="42.02368927180485" lon="19.540806069905905"><ele>7.000000000000001</ele><time>2026-04-29T16:50:50Z</time></trkpt><trkpt lat="42.02374956628994" lon="19.54070591971575"><ele>7.0</ele><time>2026-04-29T16:50:51Z</time></trkpt><trkpt lat="42.02378371750107" lon="19.540563250611218"><ele>7.000000000000001</ele><time>2026-04-29T16:50:52Z</time></trkpt><trkpt lat="42.02383212275993" lon="19.540459845632462"><ele>7.0</ele><time>2026-04-29T16:50:53Z</time></trkpt><trkpt lat="42.023863652870006" lon="19.54037416870971"><ele>7.0</ele><time>2026-04-29T16:50:54Z</time></trkpt><trkpt lat="42.02397553741342" lon="19.540359333666945"><ele>7.0</ele><time>2026-04-29T16:50:55Z</time></trkpt><trkpt lat="42.024034492775876" lon="19.540300788577234"><ele>7.000000000000001</ele><time>2026-04-29T16:50:56Z</time></trkpt><trkpt lat="42.024094829318535" lon="19.540240871021638"><ele>7.0</ele><time>2026-04-29T16:50:57Z</time></trkpt><trkpt lat="42.02415866508496" lon="19.54015218939588"><ele>7.199999999999999</ele><time>2026-04-29T16:50:58Z</time></trkpt><trkpt lat="42.02423885354914" lon="19.540079620027278"><ele>7.3999999999999995</ele><time>2026-04-29T16:50:59Z</time></trkpt><trkpt lat="42.024330950984336" lon="19.54001527886232"><ele>7.6000000000000005</ele><time>2026-04-29T16:51:00Z</time></trkpt><trkpt lat="42.024411361395735" lon="19.539957295842594"><ele>7.800000000000001</ele><time>2026-04-29T16:51:01Z</time></trkpt><trkpt lat="42.02445249316675" lon="19.539868968248914"><ele>8.0</ele><time>2026-04-29T16:51:02Z</time></trkpt><trkpt lat="42.02454943988948" lon="19.53977188889182"><ele>7.999999999999999</ele><time>2026-04-29T16:51:04Z</time></trkpt><trkpt lat="42.02460436756243" lon="19.53972536058149"><ele>8.0</ele><time>2026-04-29T16:51:05Z</time></trkpt><trkpt lat="42.02470677523242" lon="19.53964922914257"><ele>8.0</ele><time>2026-04-29T16:51:07Z</time></trkpt><trkpt lat="42.024766988886796" lon="19.539600440441315"><ele>8.0</ele><time>2026-04-29T16:51:08Z</time></trkpt><trkpt lat="42.02483511747979" lon="19.539535531534035"><ele>7.999999999999999</ele><time>2026-04-29T16:51:09Z</time></trkpt><trkpt lat="42.024907925759095" lon="19.539463606857804"><ele>8.0</ele><time>2026-04-29T16:51:10Z</time></trkpt><trkpt lat="42.024980304202955" lon="19.539409681438304"><ele>8.5</ele><time>2026-04-29T16:51:11Z</time></trkpt><trkpt lat="42.025036357991105" lon="19.539351311596015"><ele>9.0</ele><time>2026-04-29T16:51:12Z</time></trkpt><trkpt lat="42.025097835189854" lon="19.539280497315513"><ele>9.5</ele><time>2026-04-29T16:51:13Z</time></trkpt><trkpt lat="42.02515309489257" lon="19.539198456850833"><ele>10.0</ele><time>2026-04-29T16:51:14Z</time></trkpt><trkpt lat="42.02519336290072" lon="19.539112117169704"><ele>10.5</ele><time>2026-04-29T16:51:15Z</time></trkpt><trkpt lat="42.02520929911749" lon="19.539009740269048"><ele>11.0</ele><time>2026-04-29T16:51:16Z</time></trkpt><trkpt lat="42.02524319543612" lon="19.538889911875316"><ele>11.0</ele><time>2026-04-29T16:51:17Z</time></trkpt><trkpt lat="42.025303571889275" lon="19.538785100317188"><ele>11.0</ele><time>2026-04-29T16:51:18Z</time></trkpt><trkpt lat="42.02536153226597" lon="19.538675554366687"><ele>11.0</ele><time>2026-04-29T16:51:19Z</time></trkpt><trkpt lat="42.025428889827545" lon="19.538565792122423"><ele>11.0</ele><time>2026-04-29T16:51:20Z</time></trkpt><trkpt lat="42.02547926599908" lon="19.538468832381184"><ele>11.0</ele><time>2026-04-29T16:51:21Z</time></trkpt><trkpt lat="42.025500955234726" lon="19.5383814258358"><ele>10.600000000000001</ele><time>2026-04-29T16:51:22Z</time></trkpt><trkpt lat="42.025521571394634" lon="19.538285952432968"><ele>10.200000000000001</ele><time>2026-04-29T16:51:23Z</time></trkpt><trkpt lat="42.02554605719832" lon="19.53818908335501"><ele>9.8</ele><time>2026-04-29T16:51:24Z</time></trkpt><trkpt lat="42.025597742759004" lon="19.53804349716722"><ele>9.4</ele><time>2026-04-29T16:51:26Z</time></trkpt><trkpt lat="42.02569428722841" lon="19.537947207101492"><ele>9.0</ele><time>2026-04-29T16:51:28Z</time></trkpt><trkpt lat="42.025763000174884" lon="19.5379143835461"><ele>9.0</ele><time>2026-04-29T16:51:29Z</time></trkpt><trkpt lat="42.02582533264351" lon="19.53793846283175"><ele>9.0</ele><time>2026-04-29T16:51:30Z</time></trkpt><trkpt lat="42.025892147959475" lon="19.537941156120628"><ele>9.0</ele><time>2026-04-29T16:51:31Z</time></trkpt><trkpt lat="42.02596889136063" lon="19.537942163992252"><ele>9.0</ele><time>2026-04-29T16:51:32Z</time></trkpt><trkpt lat="42.026035293218364" lon="19.537887150676866"><ele>9.0</ele><time>2026-04-29T16:51:33Z</time></trkpt><trkpt lat="42.02612051731665" lon="19.537805667320516"><ele>9.0</ele><time>2026-04-29T16:51:35Z</time></trkpt><trkpt lat="42.02616817643955" lon="19.537729282866966"><ele>8.666666666666666</ele><time>2026-04-29T16:51:36Z</time></trkpt><trkpt lat="42.02624233264166" lon="19.53766920393874"><ele>8.333333333333334</ele><time>2026-04-29T16:51:37Z</time></trkpt><trkpt lat="42.0263080791761" lon="19.537594972663907"><ele>8.0</ele><time>2026-04-29T16:51:38Z</time></trkpt><trkpt lat="42.02636815688717" lon="19.537527763651"><ele>7.666666666666667</ele><time>2026-04-29T16:51:39Z</time></trkpt><trkpt lat="42.02643020716003" lon="19.53746171868995"><ele>7.333333333333334</ele><time>2026-04-29T16:51:40Z</time></trkpt><trkpt lat="42.026484372999676" lon="19.537351291690257"><ele>7.0</ele><time>2026-04-29T16:51:41Z</time></trkpt><trkpt lat="42.02654912463416" lon="19.53725258535463"><ele>7.000000000000001</ele><time>2026-04-29T16:51:42Z</time></trkpt><trkpt lat="42.02660291305569" lon="19.537157710185244"><ele>7.0</ele><time>2026-04-29T16:51:43Z</time></trkpt><trkpt lat="42.02665691543604" lon="19.5370799330467"><ele>7.0</ele><time>2026-04-29T16:51:44Z</time></trkpt><trkpt lat="42.02669571287954" lon="19.53698518706624"><ele>7.0</ele><time>2026-04-29T16:51:45Z</time></trkpt><trkpt lat="42.02674263214431" lon="19.536923944855516"><ele>7.000000000000001</ele><time>2026-04-29T16:51:46Z</time></trkpt><trkpt lat="42.026813234158304" lon="19.536829508199116"><ele>7.0</ele><time>2026-04-29T16:51:48Z</time></trkpt><trkpt lat="42.02687118611275" lon="19.536716080607636"><ele>7.000000000000001</ele><time>2026-04-29T16:51:50Z</time></trkpt><trkpt lat="42.026928971008495" lon="19.536599102568612"><ele>7.0</ele><time>2026-04-29T16:51:52Z</time></trkpt><trkpt lat="42.026985804152815" lon="19.536539940852396"><ele>7.0</ele><time>2026-04-29T16:51:53Z</time></trkpt><trkpt lat="42.02704947924885" lon="19.536472040183703"><ele>7.0</ele><time>2026-04-29T16:51:54Z</time></trkpt><trkpt lat="42.0271164952764" lon="19.536394917071494"><ele>7.000000000000001</ele><time>2026-04-29T16:51:55Z</time></trkpt><trkpt lat="42.027187030545925" lon="19.536303518454467"><ele>7.0</ele><time>2026-04-29T16:51:56Z</time></trkpt><trkpt lat="42.02724660632859" lon="19.53619795620673"><ele>6.8</ele><time>2026-04-29T16:51:57Z</time></trkpt><trkpt lat="42.0273291580223" lon="19.536117978767614"><ele>6.6</ele><time>2026-04-29T16:51:58Z</time></trkpt><trkpt lat="42.02740994587274" lon="19.536032107991986"><ele>6.3999999999999995</ele><time>2026-04-29T16:51:59Z</time></trkpt><trkpt lat="42.027479269432376" lon="19.535958423490392"><ele>6.199999999999999</ele><time>2026-04-29T16:52:00Z</time></trkpt><trkpt lat="42.027542929165875" lon="19.535908717538867"><ele>6.0</ele><time>2026-04-29T16:52:01Z</time></trkpt><trkpt lat="42.02763176432614" lon="19.5358455997698"><ele>6.4</ele><time>2026-04-29T16:52:02Z</time></trkpt><trkpt lat="42.02771986603877" lon="19.53578834502082"><ele>6.8</ele><time>2026-04-29T16:52:03Z</time></trkpt><trkpt lat="42.027806717631506" lon="19.535736035970277"><ele>7.200000000000001</ele><time>2026-04-29T16:52:04Z</time></trkpt><trkpt lat="42.02787838429376" lon="19.535685768317826"><ele>7.6000000000000005</ele><time>2026-04-29T16:52:05Z</time></trkpt><trkpt lat="42.02796035563095" lon="19.535628272516465"><ele>8.0</ele><time>2026-04-29T16:52:06Z</time></trkpt><trkpt lat="42.0280423313068" lon="19.53556051894727"><ele>8.0</ele><time>2026-04-29T16:52:07Z</time></trkpt><trkpt lat="42.02813648663282" lon="19.5355047083479"><ele>8.0</ele><time>2026-04-29T16:52:08Z</time></trkpt><trkpt lat="42.02823037826878" lon="19.535438782914238"><ele>8.0</ele><time>2026-04-29T16:52:09Z</time></trkpt><trkpt lat="42.0282941434815" lon="19.53533753454946"><ele>8.0</ele><time>2026-04-29T16:52:10Z</time></trkpt><trkpt lat="42.028344267011704" lon="19.535255595041185"><ele>8.0</ele><time>2026-04-29T16:52:11Z</time></trkpt><trkpt lat="42.02839342970757" lon="19.53515273974909"><ele>8.0</ele><time>2026-04-29T16:52:12Z</time></trkpt><trkpt lat="42.02843990155709" lon="19.535032272608014"><ele>8.0</ele><time>2026-04-29T16:52:13Z</time></trkpt><trkpt lat="42.028473433456085" lon="19.5349113247621"><ele>8.0</ele><time>2026-04-29T16:52:14Z</time></trkpt><trkpt lat="42.02851815128171" lon="19.534804239709064"><ele>8.0</ele><time>2026-04-29T16:52:15Z</time></trkpt><trkpt lat="42.028519769387074" lon="19.534677763970432"><ele>8.0</ele><time>2026-04-29T16:52:16Z</time></trkpt><trkpt lat="42.028517753245794" lon="19.534568508975266"><ele>7.666666666666666</ele><time>2026-04-29T16:52:17Z</time></trkpt><trkpt lat="42.028506046771646" lon="19.53445542951401"><ele>7.333333333333333</ele><time>2026-04-29T16:52:18Z</time></trkpt><trkpt lat="42.028491921593634" lon="19.53433615410611"><ele>7.0</ele><time>2026-04-29T16:52:19Z</time></trkpt><trkpt lat="42.02847691485455" lon="19.534204662754824"><ele>6.666666666666666</ele><time>2026-04-29T16:52:20Z</time></trkpt><trkpt lat="42.028471504107884" lon="19.53407540242544"><ele>6.333333333333333</ele><time>2026-04-29T16:52:21Z</time></trkpt><trkpt lat="42.028477370717404" lon="19.533970223113858"><ele>6.0</ele><time>2026-04-29T16:52:22Z</time></trkpt><trkpt lat="42.028514843763496" lon="19.533879365410197"><ele>6.0</ele><time>2026-04-29T16:52:23Z</time></trkpt><trkpt lat="42.02853407722933" lon="19.533766892841033"><ele>6.0</ele><time>2026-04-29T16:52:24Z</time></trkpt><trkpt lat="42.02854806066352" lon="19.53363345453348"><ele>6.0</ele><time>2026-04-29T16:52:25Z</time></trkpt><trkpt lat="42.02854582036108" lon="19.5334905457396"><ele>6.0</ele><time>2026-04-29T16:52:26Z</time></trkpt><trkpt lat="42.02855140047326" lon="19.533373428696187"><ele>6.0</ele><time>2026-04-29T16:52:27Z</time></trkpt><trkpt lat="42.02854537057596" lon="19.533264151173"><ele>6.199999999999999</ele><time>2026-04-29T16:52:28Z</time></trkpt><trkpt lat="42.02855004972232" lon="19.53313243266683"><ele>6.3999999999999995</ele><time>2026-04-29T16:52:29Z</time></trkpt><trkpt lat="42.02855552345496" lon="19.532975398979538"><ele>6.6</ele><time>2026-04-29T16:52:30Z</time></trkpt><trkpt lat="42.02856176860054" lon="19.53286064661074"><ele>6.8</ele><time>2026-04-29T16:52:31Z</time></trkpt><trkpt lat="42.0285723178407" lon="19.532749789941004"><ele>7.0</ele><time>2026-04-29T16:52:32Z</time></trkpt><trkpt lat="42.0285800193845" lon="19.53263538930091"><ele>7.000000000000001</ele><time>2026-04-29T16:52:33Z</time></trkpt><trkpt lat="42.02857739664437" lon="19.532532618251665"><ele>7.0</ele><time>2026-04-29T16:52:34Z</time></trkpt><trkpt lat="42.028562282501575" lon="19.532440346574916"><ele>7.0</ele><time>2026-04-29T16:52:35Z</time></trkpt><trkpt lat="42.02852465596935" lon="19.532355689282163"><ele>7.0</ele><time>2026-04-29T16:52:36Z</time></trkpt><trkpt lat="42.02849744691985" lon="19.532250827349536"><ele>7.000000000000001</ele><time>2026-04-29T16:52:37Z</time></trkpt><trkpt lat="42.02848129924513" lon="19.532117445670274"><ele>7.0</ele><time>2026-04-29T16:52:38Z</time></trkpt><trkpt lat="42.02847024062899" lon="19.53198009469539"><ele>6.6</ele><time>2026-04-29T16:52:39Z</time></trkpt><trkpt lat="42.0284693677434" lon="19.5318600904607"><ele>6.199999999999999</ele><time>2026-04-29T16:52:40Z</time></trkpt><trkpt lat="42.028457919777175" lon="19.53171495466091"><ele>5.8</ele><time>2026-04-29T16:52:41Z</time></trkpt><trkpt lat="42.02846375626643" lon="19.53155193412266"><ele>5.4</ele><time>2026-04-29T16:52:42Z</time></trkpt><trkpt lat="42.028490013752844" lon="19.531387929483163"><ele>5.0</ele><time>2026-04-29T16:52:43Z</time></trkpt><trkpt lat="42.02850566111052" lon="19.531216488226374"><ele>5.0</ele><time>2026-04-29T16:52:44Z</time></trkpt><trkpt lat="42.028537597352226" lon="19.53107305349749"><ele>5.0</ele><time>2026-04-29T16:52:45Z</time></trkpt><trkpt lat="42.028575901555165" lon="19.53096172425963"><ele>5.0</ele><time>2026-04-29T16:52:46Z</time></trkpt><trkpt lat="42.02861947186256" lon="19.530830957178193"><ele>5.0</ele><time>2026-04-29T16:52:47Z</time></trkpt><trkpt lat="42.02865908245905" lon="19.53071405608961"><ele>5.0</ele><time>2026-04-29T16:52:48Z</time></trkpt><trkpt lat="42.02869438645632" lon="19.530579552860228"><ele>5.0</ele><time>2026-04-29T16:52:49Z</time></trkpt><trkpt lat="42.02871102175165" lon="19.530436632774087"><ele>5.0</ele><time>2026-04-29T16:52:50Z</time></trkpt><trkpt lat="42.02869241833206" lon="19.530313770802778"><ele>5.0</ele><time>2026-04-29T16:52:51Z</time></trkpt><trkpt lat="42.02868061103611" lon="19.530207179838136"><ele>5.0</ele><time>2026-04-29T16:52:52Z</time></trkpt><trkpt lat="42.02866649758136" lon="19.53007597526899"><ele>5.0</ele><time>2026-04-29T16:52:53Z</time></trkpt><trkpt lat="42.02871704988301" lon="19.529949261076247"><ele>5.5</ele><time>2026-04-29T16:52:54Z</time></trkpt><trkpt lat="42.02874624824795" lon="19.529795952107374"><ele>6.0</ele><time>2026-04-29T16:52:55Z</time></trkpt><trkpt lat="42.02878059251561" lon="19.529647043262557"><ele>6.5</ele><time>2026-04-29T16:52:56Z</time></trkpt><trkpt lat="42.028816630505155" lon="19.52949709019248"><ele>7.0</ele><time>2026-04-29T16:52:57Z</time></trkpt><trkpt lat="42.0288410532157" lon="19.52936324663853"><ele>7.0</ele><time>2026-04-29T16:52:58Z</time></trkpt><trkpt lat="42.02886403628873" lon="19.52923729300591"><ele>6.999999999999999</ele><time>2026-04-29T16:52:59Z</time></trkpt><trkpt lat="42.02888667277262" lon="19.529114328253172"><ele>6.999999999999999</ele><time>2026-04-29T16:52:59.999Z</time></trkpt><trkpt lat="42.028929261802894" lon="19.528992313375127"><ele>7.0</ele><time>2026-04-29T16:53:00.999Z</time></trkpt><trkpt lat="42.02896625810881" lon="19.528855980298765"><ele>7.0</ele><time>2026-04-29T16:53:01.999Z</time></trkpt><trkpt lat="42.02898514049641" lon="19.528720654916782"><ele>7.000000000000001</ele><time>2026-04-29T16:53:02.999Z</time></trkpt><trkpt lat="42.02900651159739" lon="19.52859782522526"><ele>7.0</ele><time>2026-04-29T16:53:03.999Z</time></trkpt><trkpt lat="42.02901521122225" lon="19.528493177716076"><ele>7.0</ele><time>2026-04-29T16:53:04.999Z</time></trkpt><trkpt lat="42.029026669135085" lon="19.52839220506206"><ele>7.0</ele><time>2026-04-29T16:53:05.999Z</time></trkpt><trkpt lat="42.02903736251753" lon="19.528287947725538"><ele>7.000000000000001</ele><time>2026-04-29T16:53:06.999Z</time></trkpt><trkpt lat="42.02905494593619" lon="19.528153140385957"><ele>7.0</ele><time>2026-04-29T16:53:07.999Z</time></trkpt><trkpt lat="42.02907075083627" lon="19.52800578933645"><ele>6.833333333333334</ele><time>2026-04-29T16:53:08.999Z</time></trkpt><trkpt lat="42.0290859840407" lon="19.527872845182465"><ele>6.666666666666667</ele><time>2026-04-29T16:53:09.999Z</time></trkpt><trkpt lat="42.029115697098234" lon="19.52775624168192"><ele>6.5</ele><time>2026-04-29T16:53:10.999Z</time></trkpt><trkpt lat="42.02913014835859" lon="19.527648270075098"><ele>6.333333333333334</ele><time>2026-04-29T16:53:12Z</time></trkpt><trkpt lat="42.029150057166135" lon="19.527541672447445"><ele>6.166666666666667</ele><time>2026-04-29T16:53:13Z</time></trkpt><trkpt lat="42.02917538191747" lon="19.527443152210292"><ele>6.0</ele><time>2026-04-29T16:53:14Z</time></trkpt><trkpt lat="42.029269120247605" lon="19.52736523065429"><ele>6.0</ele><time>2026-04-29T16:53:15Z</time></trkpt><trkpt lat="42.0293417276998" lon="19.527306558845275"><ele>6.0</ele><time>2026-04-29T16:53:16Z</time></trkpt><trkpt lat="42.02942770628226" lon="19.527193910278278"><ele>6.0</ele><time>2026-04-29T16:53:18Z</time></trkpt><trkpt lat="42.029497788431435" lon="19.527129986206635"><ele>6.0</ele><time>2026-04-29T16:53:19Z</time></trkpt><trkpt lat="42.02959479668946" lon="19.527046660976545"><ele>6.0</ele><time>2026-04-29T16:53:20Z</time></trkpt><trkpt lat="42.029679532857344" lon="19.52695602738639"><ele>6.0</ele><time>2026-04-29T16:53:21Z</time></trkpt><trkpt lat="42.02973495285707" lon="19.526857409000318"><ele>6.0</ele><time>2026-04-29T16:53:22Z</time></trkpt><trkpt lat="42.02977533136686" lon="19.526751791488902"><ele>6.0</ele><time>2026-04-29T16:53:23Z</time></trkpt><trkpt lat="42.02981860145302" lon="19.52661878134995"><ele>6.0</ele><time>2026-04-29T16:53:24Z</time></trkpt><trkpt lat="42.02986726008755" lon="19.52647039248563"><ele>6.0</ele><time>2026-04-29T16:53:25Z</time></trkpt><trkpt lat="42.02994294899617" lon="19.526327840095366"><ele>6.6</ele><time>2026-04-29T16:53:26Z</time></trkpt><trkpt lat="42.03000755873061" lon="19.526201303439255"><ele>7.199999999999999</ele><time>2026-04-29T16:53:27Z</time></trkpt><trkpt lat="42.03006565125824" lon="19.526103249526795"><ele>7.800000000000001</ele><time>2026-04-29T16:53:28Z</time></trkpt><trkpt lat="42.03012852602733" lon="19.526032670440646"><ele>8.4</ele><time>2026-04-29T16:53:29Z</time></trkpt><trkpt lat="42.030194449176136" lon="19.525973331728817"><ele>9.0</ele><time>2026-04-29T16:53:30Z</time></trkpt><trkpt lat="42.030258713403285" lon="19.525853019088764"><ele>9.0</ele><time>2026-04-29T16:53:32Z</time></trkpt><trkpt lat="42.03029936491858" lon="19.525776912302007"><ele>9.0</ele><time>2026-04-29T16:53:34Z</time></trkpt><trkpt lat="42.03034253055283" lon="19.525696099964623"><ele>9.0</ele><time>2026-04-29T16:53:36Z</time></trkpt><trkpt lat="42.03033440845324" lon="19.52552146217264"><ele>9.0</ele><time>2026-04-29T16:53:38Z</time></trkpt><trkpt lat="42.030340713837816" lon="19.52542797639885"><ele>9.0</ele><time>2026-04-29T16:53:39Z</time></trkpt><trkpt lat="42.030359756731045" lon="19.52534708536209"><ele>9.0</ele><time>2026-04-29T16:53:40Z</time></trkpt><trkpt lat="42.030445191161576" lon="19.525214369688257"><ele>8.666666666666666</ele><time>2026-04-29T16:53:42Z</time></trkpt><trkpt lat="42.030486691623054" lon="19.525143308374275"><ele>8.333333333333334</ele><time>2026-04-29T16:53:43Z</time></trkpt><trkpt lat="42.030513355709566" lon="19.525021305614917"><ele>8.0</ele><time>2026-04-29T16:53:45Z</time></trkpt><trkpt lat="42.03051940764092" lon="19.524911095480086"><ele>7.666666666666667</ele><time>2026-04-29T16:53:47Z</time></trkpt><trkpt lat="42.0305361051335" lon="19.524820161164016"><ele>7.333333333333334</ele><time>2026-04-29T16:53:49Z</time></trkpt><trkpt lat="42.030589518219095" lon="19.524766472601105"><ele>7.0</ele><time>2026-04-29T16:53:57Z</time></trkpt><trkpt lat="42.030671901815246" lon="19.524823184194982"><ele>7.000000000000001</ele><time>2026-04-29T16:53:58Z</time></trkpt><trkpt lat="42.030753683320334" lon="19.524814707065744"><ele>7.0</ele><time>2026-04-29T16:54:02Z</time></trkpt><trkpt lat="42.03084946841788" lon="19.52485384630545"><ele>7.0</ele><time>2026-04-29T16:54:26Z</time></trkpt><trkpt lat="42.03092680007512" lon="19.524827056440305"><ele>7.0</ele><time>2026-04-29T16:54:28Z</time></trkpt><trkpt lat="42.030995231580555" lon="19.52480334975494"><ele>7.000000000000001</ele><time>2026-04-29T16:54:31Z</time></trkpt><trkpt lat="42.0310585066803" lon="19.524698010506185"><ele>7.0</ele><time>2026-04-29T16:54:33Z</time></trkpt><trkpt lat="42.03106177562871" lon="19.524595219286663"><ele>7.0</ele><time>2026-04-29T16:54:36Z</time></trkpt><trkpt lat="42.031034178736014" lon="19.5244820371872"><ele>6.999999999999999</ele><time>2026-04-29T16:54:40Z</time></trkpt><trkpt lat="42.031038756225264" lon="19.524358056124527"><ele>6.999999999999999</ele><time>2026-04-29T16:54:42Z</time></trkpt><trkpt lat="42.03102350363752" lon="19.52422609172641"><ele>7.0</ele><time>2026-04-29T16:54:44Z</time></trkpt><trkpt lat="42.03099725471679" lon="19.524079597727493"><ele>7.0</ele><time>2026-04-29T16:54:46Z</time></trkpt><trkpt lat="42.03099106561085" lon="19.523957599902428"><ele>7.0</ele><time>2026-04-29T16:54:48Z</time></trkpt><trkpt lat="42.03098951740449" lon="19.52382819825058"><ele>6.999999999999999</ele><time>2026-04-29T16:54:49Z</time></trkpt><trkpt lat="42.03111826983463" lon="19.523815407278033"><ele>6.999999999999999</ele><time>2026-04-29T16:54:50Z</time></trkpt><trkpt lat="42.03116635135192" lon="19.523736190797255"><ele>7.0</ele><time>2026-04-29T16:54:50.999Z</time></trkpt><trkpt lat="42.03125781697875" lon="19.523648135324052"><ele>7.0</ele><time>2026-04-29T16:54:52.999Z</time></trkpt><trkpt lat="42.0313361723433" lon="19.52370187170122"><ele>7.333333333333334</ele><time>2026-04-29T16:54:54.999Z</time></trkpt><trkpt lat="42.03142395984288" lon="19.52367816243033"><ele>7.666666666666666</ele><time>2026-04-29T16:54:57.999Z</time></trkpt><trkpt lat="42.031232078801736" lon="19.52331335397708"><ele>8.0</ele><time>2026-04-29T16:54:58.999Z</time></trkpt><trkpt lat="42.03126308490195" lon="19.523237681055118"><ele>8.0</ele><time>2026-04-29T16:54:59.999Z</time></trkpt><trkpt lat="42.03128895956408" lon="19.52314173166701"><ele>8.0</ele><time>2026-04-29T16:55:01.999Z</time></trkpt><trkpt lat="42.03162582856153" lon="19.5232985758996"><ele>8.0</ele><time>2026-04-29T16:55:02.999Z</time></trkpt><trkpt lat="42.03172314382847" lon="19.523237279108965"><ele>8.166666666666666</ele><time>2026-04-29T16:55:04.999Z</time></trkpt><trkpt lat="42.03179491021557" lon="19.523189318023405"><ele>8.333333333333332</ele><time>2026-04-29T16:55:06.999Z</time></trkpt><trkpt lat="42.03187803311423" lon="19.52314197373808"><ele>8.5</ele><time>2026-04-29T16:55:08.999Z</time></trkpt><trkpt lat="42.03194965471805" lon="19.523106694573432"><ele>8.666666666666666</ele><time>2026-04-29T16:55:10.999Z</time></trkpt><trkpt lat="42.03203821476812" lon="19.52311579474418"><ele>8.833333333333334</ele><time>2026-04-29T16:55:12.999Z</time></trkpt><trkpt lat="42.032128325659514" lon="19.523111599011504"><ele>9.0</ele><time>2026-04-29T16:55:14.999Z</time></trkpt><trkpt lat="42.03219900835602" lon="19.52307655680159"><ele>9.0</ele><time>2026-04-29T16:55:16.999Z</time></trkpt><trkpt lat="42.03230264718547" lon="19.523037990450806"><ele>9.0</ele><time>2026-04-29T16:55:19Z</time></trkpt><trkpt lat="42.03242150255492" lon="19.522979025932706"><ele>9.0</ele><time>2026-04-29T16:55:21Z</time></trkpt><trkpt lat="42.03255869670557" lon="19.52318181328814"><ele>9.0</ele><time>2026-04-29T16:55:22Z</time></trkpt><trkpt lat="42.03273792064268" lon="19.52304243665023"><ele>8.8</ele><time>2026-04-29T16:55:25Z</time></trkpt><trkpt lat="42.032795663145706" lon="19.522995085115827"><ele>8.600000000000001</ele><time>2026-04-29T16:55:26Z</time></trkpt><trkpt lat="42.03281784826196" lon="19.52277464592964"><ele>8.4</ele><time>2026-04-29T16:55:28Z</time></trkpt><trkpt lat="42.032874427372455" lon="19.52272438307976"><ele>8.200000000000001</ele><time>2026-04-29T16:55:29Z</time></trkpt><trkpt lat="42.03293012118326" lon="19.522658880496035"><ele>8.0</ele><time>2026-04-29T16:55:30Z</time></trkpt><trkpt lat="42.03299524225327" lon="19.522590174021364"><ele>7.666666666666666</ele><time>2026-04-29T16:55:31Z</time></trkpt><trkpt lat="42.03304937885164" lon="19.52252792409982"><ele>7.333333333333333</ele><time>2026-04-29T16:55:32Z</time></trkpt><trkpt lat="42.03310173281101" lon="19.522455096720766"><ele>7.0</ele><time>2026-04-29T16:55:33Z</time></trkpt><trkpt lat="42.033150033200926" lon="19.52238876328402"><ele>6.666666666666666</ele><time>2026-04-29T16:55:34Z</time></trkpt><trkpt lat="42.03325605277331" lon="19.522319263717417"><ele>6.333333333333333</ele><time>2026-04-29T16:55:36Z</time></trkpt><trkpt lat="42.03335078151853" lon="19.52225395973861"><ele>6.0</ele><time>2026-04-29T16:55:38Z</time></trkpt><trkpt lat="42.03340694416875" lon="19.52208817793246"><ele>6.333333333333333</ele><time>2026-04-29T16:55:40Z</time></trkpt><trkpt lat="42.033442765313474" lon="19.522000485163716"><ele>6.666666666666666</ele><time>2026-04-29T16:55:41Z</time></trkpt><trkpt lat="42.03351050132506" lon="19.52194889836754"><ele>7.0</ele><time>2026-04-29T16:55:42Z</time></trkpt><trkpt lat="42.03356314791419" lon="19.52187487331449"><ele>7.333333333333333</ele><time>2026-04-29T16:55:43Z</time></trkpt><trkpt lat="42.03358985796843" lon="19.52176055622969"><ele>7.666666666666666</ele><time>2026-04-29T16:55:44Z</time></trkpt><trkpt lat="42.033636230227856" lon="19.52169802621153"><ele>8.0</ele><time>2026-04-29T16:55:45Z</time></trkpt><trkpt lat="42.03371584138722" lon="19.52158167362785"><ele>7.999999999999999</ele><time>2026-04-29T16:55:47Z</time></trkpt><trkpt lat="42.03375815079661" lon="19.521485278645432"><ele>8.0</ele><time>2026-04-29T16:55:49Z</time></trkpt><trkpt lat="42.033821414057165" lon="19.521415469625907"><ele>8.0</ele><time>2026-04-29T16:55:51Z</time></trkpt><trkpt lat="42.033882597660735" lon="19.521337586443657"><ele>8.0</ele><time>2026-04-29T16:55:53Z</time></trkpt><trkpt lat="42.03393921074572" lon="19.52125442330803"><ele>7.999999999999999</ele><time>2026-04-29T16:55:55Z</time></trkpt><trkpt lat="42.033991721279286" lon="19.521177682981513"><ele>8.0</ele><time>2026-04-29T16:55:57Z</time></trkpt><trkpt lat="42.03423599568792" lon="19.521388685756307"><ele>7.999999999999999</ele><time>2026-04-29T16:55:59Z</time></trkpt><trkpt lat="42.034327974564356" lon="19.521393885469823"><ele>8.0</ele><time>2026-04-29T16:56:01Z</time></trkpt><trkpt lat="42.03440510320164" lon="19.521392301739393"><ele>8.0</ele><time>2026-04-29T16:56:03Z</time></trkpt><trkpt lat="42.034463088515196" lon="19.52146345306124"><ele>8.0</ele><time>2026-04-29T16:56:05Z</time></trkpt><trkpt lat="42.03449841160077" lon="19.52157725508408"><ele>7.999999999999999</ele><time>2026-04-29T16:56:07Z</time></trkpt><trkpt lat="42.03453992399285" lon="19.521650524917096"><ele>8.0</ele><time>2026-04-29T16:56:13Z</time></trkpt><trkpt lat="42.03461489274795" lon="19.52175851667262"><ele>7.999999999999999</ele><time>2026-04-29T16:56:15Z</time></trkpt><trkpt lat="42.03466593775611" lon="19.521837993266637"><ele>8.0</ele><time>2026-04-29T16:56:16Z</time></trkpt><trkpt lat="42.03473316415993" lon="19.521913744630847"><ele>8.0</ele><time>2026-04-29T16:56:17Z</time></trkpt><trkpt lat="42.03477549311609" lon="19.52200865957052"><ele>8.0</ele><time>2026-04-29T16:56:18Z</time></trkpt><trkpt lat="42.034847089917555" lon="19.52212019337403"><ele>7.999999999999999</ele><time>2026-04-29T16:56:20Z</time></trkpt><trkpt lat="42.034886842622" lon="19.522188464499497"><ele>8.0</ele><time>2026-04-29T16:56:21Z</time></trkpt><trkpt lat="42.03493183210199" lon="19.522264318166908"><ele>7.999999999999999</ele><time>2026-04-29T16:56:22Z</time></trkpt><trkpt lat="42.03497968481854" lon="19.52234499927522"><ele>8.0</ele><time>2026-04-29T16:56:23Z</time></trkpt><trkpt lat="42.03502440928284" lon="19.522420406094238"><ele>8.0</ele><time>2026-04-29T16:56:24Z</time></trkpt><trkpt lat="42.03508994932059" lon="19.52253090846373"><ele>8.0</ele><time>2026-04-29T16:56:26Z</time></trkpt><trkpt lat="42.03515690215915" lon="19.52264379291189"><ele>7.999999999999999</ele><time>2026-04-29T16:56:28Z</time></trkpt><trkpt lat="42.03519867573286" lon="19.522714223160495"><ele>8.0</ele><time>2026-04-29T16:56:30Z</time></trkpt><trkpt lat="42.03529857428477" lon="19.522669810761755"><ele>8.0</ele><time>2026-04-29T16:56:32Z</time></trkpt><trkpt lat="42.03540885476174" lon="19.52265768074929"><ele>8.0</ele><time>2026-04-29T16:56:34Z</time></trkpt><trkpt lat="42.03550031977799" lon="19.522659840971066"><ele>8.0</ele><time>2026-04-29T16:56:36Z</time></trkpt><trkpt lat="42.0356037753837" lon="19.522646213412546"><ele>8.0</ele><time>2026-04-29T16:56:38Z</time></trkpt><trkpt lat="42.03572386864454" lon="19.522631675066236"><ele>8.0</ele><time>2026-04-29T16:56:40Z</time></trkpt><trkpt lat="42.0357883528358" lon="19.52262476763802"><ele>8.333333333333332</ele><time>2026-04-29T16:56:41Z</time></trkpt><trkpt lat="42.03586155447458" lon="19.522614965914524"><ele>8.666666666666666</ele><time>2026-04-29T16:56:42Z</time></trkpt><trkpt lat="42.03594710907395" lon="19.522604980119258"><ele>9.0</ele><time>2026-04-29T16:56:43Z</time></trkpt><trkpt lat="42.036027770173135" lon="19.522593429970797"><ele>9.333333333333334</ele><time>2026-04-29T16:56:44Z</time></trkpt><trkpt lat="42.03612545257664" lon="19.52257000595173"><ele>9.666666666666668</ele><time>2026-04-29T16:56:46Z</time></trkpt><trkpt lat="42.03618718709163" lon="19.522538479656458"><ele>10.0</ele><time>2026-04-29T16:56:48Z</time></trkpt><trkpt lat="42.03626735913253" lon="19.522564277120797"><ele>10.0</ele><time>2026-04-29T16:56:51Z</time></trkpt><trkpt lat="42.036297666416665" lon="19.522689345453543"><ele>10.0</ele><time>2026-04-29T16:56:51.999Z</time></trkpt><trkpt lat="42.03637595296545" lon="19.522825992631688"><ele>10.0</ele><time>2026-04-29T16:56:53.999Z</time></trkpt><trkpt lat="42.03644864451546" lon="19.522932279760443"><ele>10.0</ele><time>2026-04-29T16:56:55.999Z</time></trkpt><trkpt lat="42.03653374293935" lon="19.523043329214097"><ele>10.0</ele><time>2026-04-29T16:56:57.999Z</time></trkpt><trkpt lat="42.03660844407478" lon="19.52315938572046"><ele>10.0</ele><time>2026-04-29T16:56:59.999Z</time></trkpt><trkpt lat="42.0366816390241" lon="19.523276143239986"><ele>10.0</ele><time>2026-04-29T16:57:01.999Z</time></trkpt><trkpt lat="42.036759615243845" lon="19.5234019230127"><ele>10.0</ele><time>2026-04-29T16:57:03.999Z</time></trkpt><trkpt lat="42.03680159234248" lon="19.52346838134733"><ele>10.0</ele><time>2026-04-29T16:57:04.999Z</time></trkpt><trkpt lat="42.03684623555996" lon="19.52353676331207"><ele>9.6</ele><time>2026-04-29T16:57:05.999Z</time></trkpt><trkpt lat="42.036923910726976" lon="19.52365926214733"><ele>9.2</ele><time>2026-04-29T16:57:07.999Z</time></trkpt><trkpt lat="42.03700217274368" lon="19.523780553084805"><ele>8.8</ele><time>2026-04-29T16:57:09.999Z</time></trkpt><trkpt lat="42.03704950562663" lon="19.523852894936297"><ele>8.4</ele><time>2026-04-29T16:57:10.999Z</time></trkpt><trkpt lat="42.03709963053968" lon="19.523925264729353"><ele>8.0</ele><time>2026-04-29T16:57:11.999Z</time></trkpt><trkpt lat="42.037144894113936" lon="19.52400052086181"><ele>7.833333333333333</ele><time>2026-04-29T16:57:12.999Z</time></trkpt><trkpt lat="42.0371910618755" lon="19.52406925935314"><ele>7.666666666666666</ele><time>2026-04-29T16:57:13.999Z</time></trkpt><trkpt lat="42.03726219711131" lon="19.524179610400044"><ele>7.5</ele><time>2026-04-29T16:57:15.999Z</time></trkpt><trkpt lat="42.037318349522714" lon="19.524266139819094"><ele>7.333333333333334</ele><time>2026-04-29T16:57:17.999Z</time></trkpt><trkpt lat="42.03735209792152" lon="19.52434380910642"><ele>7.166666666666667</ele><time>2026-04-29T16:57:20.999Z</time></trkpt><trkpt lat="42.03741640192687" lon="19.52440834843241"><ele>7.0</ele><time>2026-04-29T16:57:24Z</time></trkpt><trkpt lat="42.037466738599974" lon="19.524486598075395"><ele>7.142857142857142</ele><time>2026-04-29T16:57:28Z</time></trkpt><trkpt lat="42.037512582549255" lon="19.52455887816587"><ele>7.285714285714286</ele><time>2026-04-29T16:57:44Z</time></trkpt><trkpt lat="42.03755606630488" lon="19.524639134866575"><ele>7.428571428571429</ele><time>2026-04-29T16:57:47Z</time></trkpt><trkpt lat="42.03759959008813" lon="19.524709721084303"><ele>7.571428571428571</ele><time>2026-04-29T16:57:51Z</time></trkpt><trkpt lat="42.03764504799689" lon="19.524783013722836"><ele>7.7142857142857135</ele><time>2026-04-29T16:57:58Z</time></trkpt><trkpt lat="42.0376844410589" lon="19.524851513128894"><ele>7.857142857142857</ele><time>2026-04-29T16:58:03Z</time></trkpt><trkpt lat="42.03773088320657" lon="19.524920552818323"><ele>8.0</ele><time>2026-04-29T16:58:10Z</time></trkpt><trkpt lat="42.037781532517755" lon="19.52501518162173"><ele>7.999999999999999</ele><time>2026-04-29T16:58:19Z</time></trkpt><trkpt lat="42.03783425798505" lon="19.52507906715828"><ele>8.0</ele><time>2026-04-29T16:58:22Z</time></trkpt><trkpt lat="42.03791763227459" lon="19.525156021856535"><ele>8.0</ele><time>2026-04-29T16:58:24Z</time></trkpt><trkpt lat="42.03795781612395" lon="19.52522883216716"><ele>8.0</ele><time>2026-04-29T16:58:25Z</time></trkpt><trkpt lat="42.038003256515545" lon="19.52530481590339"><ele>7.999999999999999</ele><time>2026-04-29T16:58:26Z</time></trkpt><trkpt lat="42.0380524626827" lon="19.525383899438292"><ele>8.0</ele><time>2026-04-29T16:58:27Z</time></trkpt><trkpt lat="42.038098815196356" lon="19.525465244791636"><ele>8.0</ele><time>2026-04-29T16:58:28Z</time></trkpt><trkpt lat="42.03814860064717" lon="19.525558626601562"><ele>8.0</ele><time>2026-04-29T16:58:29Z</time></trkpt><trkpt lat="42.0382019624159" lon="19.52566629979126"><ele>8.0</ele><time>2026-04-29T16:58:30Z</time></trkpt><trkpt lat="42.03825847156641" lon="19.525785173072922"><ele>8.0</ele><time>2026-04-29T16:58:31Z</time></trkpt><trkpt lat="42.03831939740469" lon="19.525909441045787"><ele>8.0</ele><time>2026-04-29T16:58:32Z</time></trkpt><trkpt lat="42.03837159726254" lon="19.52600810922139"><ele>8.0</ele><time>2026-04-29T16:58:33Z</time></trkpt><trkpt lat="42.03841481290256" lon="19.52609311902803"><ele>8.0</ele><time>2026-04-29T16:58:34Z</time></trkpt><trkpt lat="42.03845943757376" lon="19.526190274738056"><ele>8.0</ele><time>2026-04-29T16:58:35Z</time></trkpt><trkpt lat="42.03849948312779" lon="19.52628036105289"><ele>8.0</ele><time>2026-04-29T16:58:36Z</time></trkpt><trkpt lat="42.03858487912726" lon="19.526372622285024"><ele>8.0</ele><time>2026-04-29T16:58:38Z</time></trkpt><trkpt lat="42.038696490349295" lon="19.526405978379398"><ele>8.0</ele><time>2026-04-29T16:58:40Z</time></trkpt><trkpt lat="42.03877223988517" lon="19.52639570950012"><ele>8.0</ele><time>2026-04-29T16:58:41Z</time></trkpt><trkpt lat="42.03885196522411" lon="19.526365825703046"><ele>8.0</ele><time>2026-04-29T16:58:42Z</time></trkpt><trkpt lat="42.03892828626631" lon="19.52633072141886"><ele>8.0</ele><time>2026-04-29T16:58:43Z</time></trkpt><trkpt lat="42.03903913358172" lon="19.526254925071353"><ele>8.0</ele><time>2026-04-29T16:58:45Z</time></trkpt><trkpt lat="42.03913914488248" lon="19.526171603537254"><ele>8.4</ele><time>2026-04-29T16:58:47Z</time></trkpt><trkpt lat="42.0392172745944" lon="19.526099861158205"><ele>8.8</ele><time>2026-04-29T16:58:49Z</time></trkpt><trkpt lat="42.0392920528119" lon="19.525988598739936"><ele>9.2</ele><time>2026-04-29T16:58:51Z</time></trkpt><trkpt lat="42.03931648157395" lon="19.52590152509068"><ele>9.6</ele><time>2026-04-29T16:58:52Z</time></trkpt><trkpt lat="42.039339834956074" lon="19.52579448831457"><ele>10.0</ele><time>2026-04-29T16:58:53Z</time></trkpt><trkpt lat="42.039372589741305" lon="19.525670759040164"><ele>10.0</ele><time>2026-04-29T16:58:54Z</time></trkpt><trkpt lat="42.03940640627607" lon="19.52554598705415"><ele>10.0</ele><time>2026-04-29T16:58:55Z</time></trkpt><trkpt lat="42.039439627689006" lon="19.52542027517089"><ele>10.0</ele><time>2026-04-29T16:58:56Z</time></trkpt><trkpt lat="42.03946840996235" lon="19.52528360198499"><ele>10.0</ele><time>2026-04-29T16:58:56.999Z</time></trkpt><trkpt lat="42.03949899110309" lon="19.525148157626646"><ele>10.0</ele><time>2026-04-29T16:58:57.999Z</time></trkpt><trkpt lat="42.03952724542627" lon="19.525017415531945"><ele>10.0</ele><time>2026-04-29T16:58:58.999Z</time></trkpt><trkpt lat="42.03955729263147" lon="19.52488211994419"><ele>10.0</ele><time>2026-04-29T16:58:59.999Z</time></trkpt><trkpt lat="42.03958917784455" lon="19.5247452701452"><ele>10.0</ele><time>2026-04-29T16:59:00.999Z</time></trkpt><trkpt lat="42.039617497184175" lon="19.524604951431872"><ele>10.0</ele><time>2026-04-29T16:59:01.999Z</time></trkpt><trkpt lat="42.03964561061372" lon="19.524466695451963"><ele>10.0</ele><time>2026-04-29T16:59:02.999Z</time></trkpt><trkpt lat="42.0396733382867" lon="19.524325865106075"><ele>9.75</ele><time>2026-04-29T16:59:03.999Z</time></trkpt><trkpt lat="42.03970178530285" lon="19.524183046284545"><ele>9.5</ele><time>2026-04-29T16:59:04.999Z</time></trkpt><trkpt lat="42.039732636640565" lon="19.524038083980777"><ele>9.25</ele><time>2026-04-29T16:59:05.999Z</time></trkpt><trkpt lat="42.039764465516036" lon="19.523889833029607"><ele>9.0</ele><time>2026-04-29T16:59:06.999Z</time></trkpt><trkpt lat="42.03980040965418" lon="19.523741896622997"><ele>9.4</ele><time>2026-04-29T16:59:07.999Z</time></trkpt><trkpt lat="42.0398365370804" lon="19.523598807847197"><ele>9.8</ele><time>2026-04-29T16:59:08.999Z</time></trkpt><trkpt lat="42.03986745644724" lon="19.52346309792647"><ele>10.200000000000001</ele><time>2026-04-29T16:59:09.999Z</time></trkpt><trkpt lat="42.03989823457997" lon="19.523321262348922"><ele>10.600000000000001</ele><time>2026-04-29T16:59:10.999Z</time></trkpt><trkpt lat="42.039930821146946" lon="19.52317413576345"><ele>11.0</ele><time>2026-04-29T16:59:11.999Z</time></trkpt><trkpt lat="42.03996495715069" lon="19.523028818630415"><ele>10.75</ele><time>2026-04-29T16:59:12.999Z</time></trkpt><trkpt lat="42.0400045985294" lon="19.522877368707384"><ele>10.5</ele><time>2026-04-29T16:59:13.999Z</time></trkpt><trkpt lat="42.04006060256762" lon="19.52272957921189"><ele>10.25</ele><time>2026-04-29T16:59:14.999Z</time></trkpt><trkpt lat="42.04008619067808" lon="19.52256252647544"><ele>10.0</ele><time>2026-04-29T16:59:15.999Z</time></trkpt><trkpt lat="42.04013796207389" lon="19.522423985866464"><ele>10.0</ele><time>2026-04-29T16:59:16.999Z</time></trkpt><trkpt lat="42.04017409979365" lon="19.522298705101438"><ele>10.0</ele><time>2026-04-29T16:59:17.999Z</time></trkpt><trkpt lat="42.040211393671036" lon="19.522194174573922"><ele>10.0</ele><time>2026-04-29T16:59:18.999Z</time></trkpt><trkpt lat="42.04023174710353" lon="19.522095816794423"><ele>10.0</ele><time>2026-04-29T16:59:19.999Z</time></trkpt><trkpt lat="42.040270037042255" lon="19.522023812011355"><ele>10.0</ele><time>2026-04-29T16:59:20.999Z</time></trkpt><trkpt lat="42.04037736354188" lon="19.52201451576729"><ele>10.0</ele><time>2026-04-29T16:59:22.999Z</time></trkpt><trkpt lat="42.04044653648752" lon="19.522008172512034"><ele>9.8</ele><time>2026-04-29T16:59:23.999Z</time></trkpt><trkpt lat="42.040521564616" lon="19.522001290471948"><ele>9.6</ele><time>2026-04-29T16:59:24.999Z</time></trkpt><trkpt lat="42.04060926075034" lon="19.521993246377306"><ele>9.4</ele><time>2026-04-29T16:59:25.999Z</time></trkpt><trkpt lat="42.04070298246389" lon="19.521966390926323"><ele>9.2</ele><time>2026-04-29T16:59:26.999Z</time></trkpt><trkpt lat="42.040811708973834" lon="19.521956477823657"><ele>9.0</ele><time>2026-04-29T16:59:27.999Z</time></trkpt><trkpt lat="42.04092769120427" lon="19.521943232597156"><ele>9.0</ele><time>2026-04-29T16:59:29Z</time></trkpt><trkpt lat="42.04105340703638" lon="19.52192561405609"><ele>9.0</ele><time>2026-04-29T16:59:30Z</time></trkpt><trkpt lat="42.041182259675715" lon="19.521906283608274"><ele>9.0</ele><time>2026-04-29T16:59:31Z</time></trkpt><trkpt lat="42.041316146017444" lon="19.52188966542756"><ele>9.0</ele><time>2026-04-29T16:59:32Z</time></trkpt><trkpt lat="42.04144798795937" lon="19.521874334171134"><ele>9.0</ele><time>2026-04-29T16:59:33Z</time></trkpt><trkpt lat="42.04158111403171" lon="19.521856401483983"><ele>9.0</ele><time>2026-04-29T16:59:34Z</time></trkpt><trkpt lat="42.04171382743288" lon="19.521845042132984"><ele>9.0</ele><time>2026-04-29T16:59:35Z</time></trkpt><trkpt lat="42.04184647478213" lon="19.521836482105293"><ele>9.0</ele><time>2026-04-29T16:59:36Z</time></trkpt><trkpt lat="42.04198960133988" lon="19.52181954086286"><ele>8.5</ele><time>2026-04-29T16:59:37Z</time></trkpt><trkpt lat="42.042137730968065" lon="19.521803304426037"><ele>8.0</ele><time>2026-04-29T16:59:38Z</time></trkpt><trkpt lat="42.04228541938027" lon="19.521790350078373"><ele>7.5</ele><time>2026-04-29T16:59:39Z</time></trkpt><trkpt lat="42.04243545447343" lon="19.521771636807845"><ele>7.0</ele><time>2026-04-29T16:59:40Z</time></trkpt><trkpt lat="42.04258968115287" lon="19.52175132893447"><ele>6.666666666666667</ele><time>2026-04-29T16:59:41Z</time></trkpt><trkpt lat="42.04274652455818" lon="19.52173041839354"><ele>6.333333333333334</ele><time>2026-04-29T16:59:42Z</time></trkpt><trkpt lat="42.042907940069675" lon="19.521706724029055"><ele>6.0</ele><time>2026-04-29T16:59:43Z</time></trkpt><trkpt lat="42.04307483015307" lon="19.521689137209865"><ele>6.0</ele><time>2026-04-29T16:59:44Z</time></trkpt><trkpt lat="42.0432417200674" lon="19.52167265962287"><ele>6.0</ele><time>2026-04-29T16:59:45Z</time></trkpt><trkpt lat="42.043410053598905" lon="19.52164610791788"><ele>6.0</ele><time>2026-04-29T16:59:46Z</time></trkpt><trkpt lat="42.04357970554003" lon="19.521617086720948"><ele>6.333333333333334</ele><time>2026-04-29T16:59:47Z</time></trkpt><trkpt lat="42.04374654883118" lon="19.521592651354887"><ele>6.666666666666667</ele><time>2026-04-29T16:59:48Z</time></trkpt><trkpt lat="42.04391150154689" lon="19.521569133528224"><ele>7.0</ele><time>2026-04-29T16:59:49Z</time></trkpt><trkpt lat="42.044077567755515" lon="19.521541068233613"><ele>7.666666666666667</ele><time>2026-04-29T16:59:50Z</time></trkpt><trkpt lat="42.04424877158101" lon="19.521538562414616"><ele>8.333333333333334</ele><time>2026-04-29T16:59:51Z</time></trkpt><trkpt lat="42.044414313244644" lon="19.52151449824112"><ele>9.0</ele><time>2026-04-29T16:59:52Z</time></trkpt><trkpt lat="42.044581004064895" lon="19.521490267026852"><ele>9.0</ele><time>2026-04-29T16:59:53Z</time></trkpt><trkpt lat="42.04474978096531" lon="19.521465690508688"><ele>9.0</ele><time>2026-04-29T16:59:54Z</time></trkpt><trkpt lat="42.04491697676186" lon="19.52144133979398"><ele>9.0</ele><time>2026-04-29T16:59:55Z</time></trkpt><trkpt lat="42.04508355384631" lon="19.521417079194745"><ele>8.666666666666666</ele><time>2026-04-29T16:59:56Z</time></trkpt><trkpt lat="42.04524782801129" lon="19.521370815274764"><ele>8.333333333333332</ele><time>2026-04-29T16:59:57Z</time></trkpt><trkpt lat="42.04541300889583" lon="19.52135163886588"><ele>8.0</ele><time>2026-04-29T16:59:58Z</time></trkpt><trkpt lat="42.045579329792155" lon="19.52132742739093"><ele>8.0</ele><time>2026-04-29T16:59:59Z</time></trkpt><trkpt lat="42.04574393890892" lon="19.52130188673674"><ele>8.0</ele><time>2026-04-29T17:00:00Z</time></trkpt><trkpt lat="42.045900758133804" lon="19.521281584838917"><ele>8.0</ele><time>2026-04-29T17:00:01Z</time></trkpt><trkpt lat="42.04604221006281" lon="19.52127504558021"><ele>8.5</ele><time>2026-04-29T17:00:02Z</time></trkpt><trkpt lat="42.046172347802916" lon="19.52127743637234"><ele>9.0</ele><time>2026-04-29T17:00:03Z</time></trkpt><trkpt lat="42.046291763410494" lon="19.52129990669668"><ele>9.5</ele><time>2026-04-29T17:00:04Z</time></trkpt><trkpt lat="42.0464135788454" lon="19.5213679213409"><ele>10.0</ele><time>2026-04-29T17:00:05Z</time></trkpt><trkpt lat="42.04654796342082" lon="19.52140553586959"><ele>10.25</ele><time>2026-04-29T17:00:06Z</time></trkpt><trkpt lat="42.046674913078" lon="19.5214831456085"><ele>10.5</ele><time>2026-04-29T17:00:07Z</time></trkpt><trkpt lat="42.04678110846731" lon="19.521569774802757"><ele>10.75</ele><time>2026-04-29T17:00:08Z</time></trkpt><trkpt lat="42.04687479361274" lon="19.52166703394244"><ele>11.0</ele><time>2026-04-29T17:00:09Z</time></trkpt><trkpt lat="42.04695193663071" lon="19.52177405451803"><ele>11.0</ele><time>2026-04-29T17:00:10Z</time></trkpt><trkpt lat="42.04700932529244" lon="19.52183469678203"><ele>11.0</ele><time>2026-04-29T17:00:11Z</time></trkpt><trkpt lat="42.047034567017256" lon="19.521945235256542"><ele>11.0</ele><time>2026-04-29T17:00:12Z</time></trkpt><trkpt lat="42.04708396040105" lon="19.52205041387342"><ele>11.0</ele><time>2026-04-29T17:00:13Z</time></trkpt><trkpt lat="42.04711176360856" lon="19.522168580703756"><ele>11.0</ele><time>2026-04-29T17:00:14Z</time></trkpt><trkpt lat="42.047141007899036" lon="19.522289781079863"><ele>11.0</ele><time>2026-04-29T17:00:15Z</time></trkpt><trkpt lat="42.04717403964487" lon="19.52240799099885"><ele>10.8</ele><time>2026-04-29T17:00:16Z</time></trkpt><trkpt lat="42.0472131849099" lon="19.522514720609887"><ele>10.600000000000001</ele><time>2026-04-29T17:00:17Z</time></trkpt><trkpt lat="42.047254696776534" lon="19.522626250919096"><ele>10.4</ele><time>2026-04-29T17:00:18Z</time></trkpt><trkpt lat="42.0472993547316" lon="19.522760630463168"><ele>10.2</ele><time>2026-04-29T17:00:19Z</time></trkpt><trkpt lat="42.04733977490698" lon="19.52290273801361"><ele>10.0</ele><time>2026-04-29T17:00:20Z</time></trkpt><trkpt lat="42.047394673285574" lon="19.52307646299656"><ele>8.666666666666668</ele><time>2026-04-29T17:00:21Z</time></trkpt><trkpt lat="42.04745725027303" lon="19.523276436504812"><ele>7.333333333333334</ele><time>2026-04-29T17:00:22Z</time></trkpt><trkpt lat="42.04752026198784" lon="19.523463184544603"><ele>6.0</ele><time>2026-04-29T17:00:23Z</time></trkpt><trkpt lat="42.04758242069466" lon="19.523651431066323"><ele>6.333333333333334</ele><time>2026-04-29T17:00:24Z</time></trkpt><trkpt lat="42.04764576827708" lon="19.523851699994495"><ele>6.666666666666667</ele><time>2026-04-29T17:00:25Z</time></trkpt><trkpt lat="42.04771274475293" lon="19.52406001271523"><ele>7.0</ele><time>2026-04-29T17:00:26Z</time></trkpt><trkpt lat="42.0477830638358" lon="19.52426687883267"><ele>7.0</ele><time>2026-04-29T17:00:27Z</time></trkpt><trkpt lat="42.04783769545569" lon="19.524476426594696"><ele>7.0</ele><time>2026-04-29T17:00:28Z</time></trkpt><trkpt lat="42.04790274992973" lon="19.52467919854326"><ele>7.0</ele><time>2026-04-29T17:00:29Z</time></trkpt><trkpt lat="42.0479719365723" lon="19.524885140798247"><ele>7.333333333333334</ele><time>2026-04-29T17:00:30Z</time></trkpt><trkpt lat="42.04804525211584" lon="19.525098583262196"><ele>7.666666666666666</ele><time>2026-04-29T17:00:31Z</time></trkpt><trkpt lat="42.048136155653985" lon="19.525302512809475"><ele>8.0</ele><time>2026-04-29T17:00:32Z</time></trkpt><trkpt lat="42.04821270040146" lon="19.525522183654274"><ele>8.0</ele><time>2026-04-29T17:00:33Z</time></trkpt><trkpt lat="42.04827639184244" lon="19.525701366566086"><ele>8.0</ele><time>2026-04-29T17:00:34Z</time></trkpt><trkpt lat="42.04835931913215" lon="19.52587837837507"><ele>8.0</ele><time>2026-04-29T17:00:35Z</time></trkpt><trkpt lat="42.048467372240005" lon="19.52605216500067"><ele>8.0</ele><time>2026-04-29T17:00:36Z</time></trkpt><trkpt lat="42.048604219772706" lon="19.52622145103161"><ele>8.0</ele><time>2026-04-29T17:00:37Z</time></trkpt><trkpt lat="42.04874704535854" lon="19.526397139679737"><ele>8.0</ele><time>2026-04-29T17:00:38Z</time></trkpt><trkpt lat="42.048895237814364" lon="19.52658194762689"><ele>8.0</ele><time>2026-04-29T17:00:39Z</time></trkpt><trkpt lat="42.0490456544609" lon="19.52676961315247"><ele>8.0</ele><time>2026-04-29T17:00:40Z</time></trkpt><trkpt lat="42.04919693672943" lon="19.526966781677956"><ele>8.0</ele><time>2026-04-29T17:00:41Z</time></trkpt><trkpt lat="42.049354026800586" lon="19.52716722454438"><ele>7.666666666666666</ele><time>2026-04-29T17:00:42Z</time></trkpt><trkpt lat="42.04951689754414" lon="19.5273640736407"><ele>7.333333333333334</ele><time>2026-04-29T17:00:43Z</time></trkpt><trkpt lat="42.04968683558572" lon="19.527564778905983"><ele>7.0</ele><time>2026-04-29T17:00:44Z</time></trkpt><trkpt lat="42.049856351228385" lon="19.527770997083092"><ele>7.0</ele><time>2026-04-29T17:00:45Z</time></trkpt><trkpt lat="42.050019567867395" lon="19.5279707196122"><ele>7.0</ele><time>2026-04-29T17:00:46Z</time></trkpt><trkpt lat="42.05018288232083" lon="19.52817099496906"><ele>7.0</ele><time>2026-04-29T17:00:47Z</time></trkpt><trkpt lat="42.05034336922428" lon="19.52837192763734"><ele>7.0</ele><time>2026-04-29T17:00:48Z</time></trkpt><trkpt lat="42.050497979403104" lon="19.52857223458889"><ele>7.0</ele><time>2026-04-29T17:00:49Z</time></trkpt><trkpt lat="42.05064854098185" lon="19.52876643670865"><ele>7.0</ele><time>2026-04-29T17:00:50Z</time></trkpt><trkpt lat="42.05078955990049" lon="19.52893271221948"><ele>6.666666666666667</ele><time>2026-04-29T17:00:51Z</time></trkpt><trkpt lat="42.05093403066981" lon="19.529104422020325"><ele>6.333333333333334</ele><time>2026-04-29T17:00:52Z</time></trkpt><trkpt lat="42.05107746865154" lon="19.52928336643729"><ele>6.0</ele><time>2026-04-29T17:00:53Z</time></trkpt><trkpt lat="42.05122143420223" lon="19.529465855348608"><ele>5.666666666666667</ele><time>2026-04-29T17:00:54Z</time></trkpt><trkpt lat="42.05136788567902" lon="19.529645186243897"><ele>5.333333333333334</ele><time>2026-04-29T17:00:55Z</time></trkpt><trkpt lat="42.051513049654865" lon="19.529821808235564"><ele>5.0</ele><time>2026-04-29T17:00:56Z</time></trkpt><trkpt lat="42.05164425142035" lon="19.529985026080862"><ele>6.0</ele><time>2026-04-29T17:00:56.999Z</time></trkpt><trkpt lat="42.05176423348454" lon="19.53013681783409"><ele>7.0</ele><time>2026-04-29T17:00:57.999Z</time></trkpt><trkpt lat="42.0518830360038" lon="19.530284395996254"><ele>8.0</ele><time>2026-04-29T17:00:58.999Z</time></trkpt><trkpt lat="42.051995917729" lon="19.53041963993218"><ele>8.0</ele><time>2026-04-29T17:00:59.999Z</time></trkpt><trkpt lat="42.052100338787646" lon="19.530538214437357"><ele>8.0</ele><time>2026-04-29T17:01:00.999Z</time></trkpt><trkpt lat="42.05219558881959" lon="19.53065035982884"><ele>8.0</ele><time>2026-04-29T17:01:01.999Z</time></trkpt><trkpt lat="42.05228340831787" lon="19.530760368914304"><ele>8.0</ele><time>2026-04-29T17:01:02.999Z</time></trkpt><trkpt lat="42.05236679452554" lon="19.53086733882623"><ele>7.999999999999999</ele><time>2026-04-29T17:01:03.999Z</time></trkpt><trkpt lat="42.05243357515698" lon="19.530957178741872"><ele>8.0</ele><time>2026-04-29T17:01:04.999Z</time></trkpt><trkpt lat="42.05248317202498" lon="19.531031673869883"><ele>8.0</ele><time>2026-04-29T17:01:05.999Z</time></trkpt><trkpt lat="42.05250013353922" lon="19.531159268528754"><ele>8.0</ele><time>2026-04-29T17:01:07.999Z</time></trkpt><trkpt lat="42.05246574566544" lon="19.53123304923365"><ele>7.999999999999999</ele><time>2026-04-29T17:01:08.999Z</time></trkpt><trkpt lat="42.052377232591574" lon="19.53127573630037"><ele>8.0</ele><time>2026-04-29T17:01:09.999Z</time></trkpt><trkpt lat="42.05231628925903" lon="19.531375942362704"><ele>7.800000000000001</ele><time>2026-04-29T17:01:10.999Z</time></trkpt><trkpt lat="42.05223417013357" lon="19.531453435685776"><ele>7.6000000000000005</ele><time>2026-04-29T17:01:11.999Z</time></trkpt><trkpt lat="42.052154329835815" lon="19.531547114210852"><ele>7.3999999999999995</ele><time>2026-04-29T17:01:12.999Z</time></trkpt><trkpt lat="42.05208663854755" lon="19.53163424307748"><ele>7.199999999999999</ele><time>2026-04-29T17:01:13.999Z</time></trkpt><trkpt lat="42.05202586704412" lon="19.531709728484298"><ele>7.0</ele><time>2026-04-29T17:01:14.999Z</time></trkpt><trkpt lat="42.05197194619957" lon="19.531772437042143"><ele>7.000000000000001</ele><time>2026-04-29T17:01:15.999Z</time></trkpt><trkpt lat="42.051919726939566" lon="19.53182843844643"><ele>7.0</ele><time>2026-04-29T17:01:16.999Z</time></trkpt><trkpt lat="42.0518693763763" lon="19.531888593475347"><ele>7.0</ele><time>2026-04-29T17:01:17.999Z</time></trkpt><trkpt lat="42.05181437278956" lon="19.531953508350355"><ele>7.0</ele><time>2026-04-29T17:01:18.999Z</time></trkpt><trkpt lat="42.051754500307936" lon="19.53203041032535"><ele>7.000000000000001</ele><time>2026-04-29T17:01:19.999Z</time></trkpt><trkpt lat="42.05168064882746" lon="19.532090357161568"><ele>7.0</ele><time>2026-04-29T17:01:20.999Z</time></trkpt><trkpt lat="42.0516381345177" lon="19.53217167935339"><ele>7.166666666666667</ele><time>2026-04-29T17:01:21.999Z</time></trkpt><trkpt lat="42.051581823376985" lon="19.532215720272237"><ele>7.333333333333334</ele><time>2026-04-29T17:01:22.999Z</time></trkpt><trkpt lat="42.05152443629503" lon="19.532330769741847"><ele>7.5</ele><time>2026-04-29T17:01:24.999Z</time></trkpt><trkpt lat="42.05150458509447" lon="19.53242080967527"><ele>7.666666666666666</ele><time>2026-04-29T17:01:27.999Z</time></trkpt><trkpt lat="42.051547806281675" lon="19.53252204361327"><ele>7.833333333333333</ele><time>2026-04-29T17:01:29.999Z</time></trkpt><trkpt lat="42.0515887567896" lon="19.532595149260416"><ele>8.0</ele><time>2026-04-29T17:01:31.999Z</time></trkpt><trkpt lat="42.05171801189666" lon="19.532546762604323"><ele>7.833333333333333</ele><time>2026-04-29T17:01:35Z</time></trkpt><trkpt lat="42.051766242833935" lon="19.53242610270832"><ele>7.666666666666666</ele><time>2026-04-29T17:01:37Z</time></trkpt><trkpt lat="42.05180124070407" lon="19.532347630455554"><ele>7.5</ele><time>2026-04-29T17:01:38Z</time></trkpt><trkpt lat="42.051837545240524" lon="19.532276842564567"><ele>7.333333333333334</ele><time>2026-04-29T17:01:39Z</time></trkpt><trkpt lat="42.05190481596065" lon="19.532172431099607"><ele>7.166666666666667</ele><time>2026-04-29T17:01:41Z</time></trkpt><trkpt lat="42.051971556011914" lon="19.53209735216337"><ele>7.0</ele><time>2026-04-29T17:01:43Z</time></trkpt><trkpt lat="42.05206940262421" lon="19.532004406583077"><ele>7.000000000000001</ele><time>2026-04-29T17:01:45Z</time></trkpt><trkpt lat="42.05213138894434" lon="19.53195389810099"><ele>7.0</ele><time>2026-04-29T17:01:46Z</time></trkpt><trkpt lat="42.052205615524365" lon="19.531886006392284"><ele>7.0</ele><time>2026-04-29T17:01:47Z</time></trkpt><trkpt lat="42.05227270163524" lon="19.531819174635743"><ele>7.0</ele><time>2026-04-29T17:01:48Z</time></trkpt><trkpt lat="42.05233221009964" lon="19.531751896369958"><ele>7.000000000000001</ele><time>2026-04-29T17:01:49Z</time></trkpt><trkpt lat="42.05239726189287" lon="19.53167392829212"><ele>7.0</ele><time>2026-04-29T17:01:50Z</time></trkpt><trkpt lat="42.05246805195627" lon="19.531589136213586"><ele>8.25</ele><time>2026-04-29T17:01:51Z</time></trkpt><trkpt lat="42.05254887447835" lon="19.531500448964636"><ele>9.5</ele><time>2026-04-29T17:01:52Z</time></trkpt><trkpt lat="42.05263603745689" lon="19.531399193834567"><ele>10.75</ele><time>2026-04-29T17:01:53Z</time></trkpt><trkpt lat="42.05272924220566" lon="19.531292335300744"><ele>12.0</ele><time>2026-04-29T17:01:54Z</time></trkpt><trkpt lat="42.0528126800075" lon="19.531195959814514"><ele>12.0</ele><time>2026-04-29T17:01:55Z</time></trkpt><trkpt lat="42.05289759733734" lon="19.531094870352984"><ele>12.0</ele><time>2026-04-29T17:01:56Z</time></trkpt><trkpt lat="42.05299044255284" lon="19.53099193196005"><ele>12.0</ele><time>2026-04-29T17:01:57Z</time></trkpt><trkpt lat="42.053084459436256" lon="19.530883885910523"><ele>12.0</ele><time>2026-04-29T17:01:58Z</time></trkpt><trkpt lat="42.053183726808804" lon="19.53076728999623"><ele>12.0</ele><time>2026-04-29T17:01:59Z</time></trkpt><trkpt lat="42.053292302029966" lon="19.5306447002722"><ele>12.0</ele><time>2026-04-29T17:02:00Z</time></trkpt><trkpt lat="42.053403420984054" lon="19.530519329244548"><ele>12.0</ele><time>2026-04-29T17:02:01Z</time></trkpt><trkpt lat="42.05351965858008" lon="19.53038564616001"><ele>12.0</ele><time>2026-04-29T17:02:02Z</time></trkpt><trkpt lat="42.053637239348106" lon="19.530248870194903"><ele>11.666666666666666</ele><time>2026-04-29T17:02:03Z</time></trkpt><trkpt lat="42.05376230952042" lon="19.530106272720463"><ele>11.333333333333332</ele><time>2026-04-29T17:02:04Z</time></trkpt><trkpt lat="42.053887446949865" lon="19.52995704213487"><ele>11.0</ele><time>2026-04-29T17:02:05Z</time></trkpt><trkpt lat="42.05401391516038" lon="19.529810560605007"><ele>11.0</ele><time>2026-04-29T17:02:06Z</time></trkpt><trkpt lat="42.054124825539006" lon="19.52968508370407"><ele>11.0</ele><time>2026-04-29T17:02:07Z</time></trkpt><trkpt lat="42.05422395835189" lon="19.529572257088493"><ele>11.0</ele><time>2026-04-29T17:02:08Z</time></trkpt><trkpt lat="42.05431749579693" lon="19.529465545618972"><ele>11.0</ele><time>2026-04-29T17:02:09Z</time></trkpt><trkpt lat="42.05441453998856" lon="19.529353252629402"><ele>11.0</ele><time>2026-04-29T17:02:10Z</time></trkpt><trkpt lat="42.054519122861294" lon="19.529235503634137"><ele>11.0</ele><time>2026-04-29T17:02:11Z</time></trkpt><trkpt lat="42.054627663668725" lon="19.529117091248565"><ele>11.0</ele><time>2026-04-29T17:02:12Z</time></trkpt><trkpt lat="42.05472217636348" lon="19.52901432900729"><ele>11.0</ele><time>2026-04-29T17:02:13Z</time></trkpt><trkpt lat="42.05480988858097" lon="19.52892638779778"><ele>11.0</ele><time>2026-04-29T17:02:14Z</time></trkpt><trkpt lat="42.05488676987604" lon="19.528848219077066"><ele>11.0</ele><time>2026-04-29T17:02:15Z</time></trkpt><trkpt lat="42.05496358593055" lon="19.528771661264237"><ele>11.0</ele><time>2026-04-29T17:02:16Z</time></trkpt><trkpt lat="42.055036463586895" lon="19.528715461237866"><ele>11.0</ele><time>2026-04-29T17:02:17Z</time></trkpt><trkpt lat="42.05510736342637" lon="19.528672193799228"><ele>11.0</ele><time>2026-04-29T17:02:18Z</time></trkpt><trkpt lat="42.05518053406624" lon="19.528648690389776"><ele>11.0</ele><time>2026-04-29T17:02:19Z</time></trkpt><trkpt lat="42.05525905996576" lon="19.528640489638512"><ele>11.0</ele><time>2026-04-29T17:02:20Z</time></trkpt><trkpt lat="42.05534486477107" lon="19.528638503790674"><ele>11.0</ele><time>2026-04-29T17:02:21Z</time></trkpt><trkpt lat="42.05543376292567" lon="19.528642648444386"><ele>11.0</ele><time>2026-04-29T17:02:22Z</time></trkpt><trkpt lat="42.05551627503905" lon="19.528646265701806"><ele>11.0</ele><time>2026-04-29T17:02:23Z</time></trkpt><trkpt lat="42.05558378504783" lon="19.5286470687913"><ele>11.0</ele><time>2026-04-29T17:02:24Z</time></trkpt><trkpt lat="42.05564938908834" lon="19.528644101338394"><ele>11.0</ele><time>2026-04-29T17:02:25Z</time></trkpt><trkpt lat="42.055724534124536" lon="19.52864066304309"><ele>11.200000000000001</ele><time>2026-04-29T17:02:26Z</time></trkpt><trkpt lat="42.05581684615073" lon="19.528636276988426"><ele>11.4</ele><time>2026-04-29T17:02:27Z</time></trkpt><trkpt lat="42.05591006914341" lon="19.5286324388655"><ele>11.6</ele><time>2026-04-29T17:02:28Z</time></trkpt><trkpt lat="42.05599140374686" lon="19.528626580640847"><ele>11.8</ele><time>2026-04-29T17:02:29Z</time></trkpt><trkpt lat="42.056084822441136" lon="19.528618243241283"><ele>12.0</ele><time>2026-04-29T17:02:30Z</time></trkpt><trkpt lat="42.05617610946691" lon="19.528612941868776"><ele>12.0</ele><time>2026-04-29T17:02:31Z</time></trkpt><trkpt lat="42.0562583245029" lon="19.528610367353025"><ele>12.0</ele><time>2026-04-29T17:02:32Z</time></trkpt><trkpt lat="42.05632818589998" lon="19.52860636380913"><ele>12.0</ele><time>2026-04-29T17:02:33Z</time></trkpt><trkpt lat="42.05639453541131" lon="19.52859988072865"><ele>12.0</ele><time>2026-04-29T17:02:34Z</time></trkpt><trkpt lat="42.056471401825426" lon="19.528591345983774"><ele>12.0</ele><time>2026-04-29T17:02:35Z</time></trkpt><trkpt lat="42.05656224589815" lon="19.528581003052967"><ele>12.0</ele><time>2026-04-29T17:02:36Z</time></trkpt><trkpt lat="42.05663801596018" lon="19.52856683708163"><ele>11.999999999999998</ele><time>2026-04-29T17:02:37Z</time></trkpt><trkpt lat="42.056706015049315" lon="19.5285467162578"><ele>12.0</ele><time>2026-04-29T17:02:38Z</time></trkpt><trkpt lat="42.05676957158081" lon="19.52851539622072"><ele>12.0</ele><time>2026-04-29T17:02:39Z</time></trkpt><trkpt lat="42.056836568127785" lon="19.528471047051372"><ele>12.0</ele><time>2026-04-29T17:02:40Z</time></trkpt><trkpt lat="42.056893939461894" lon="19.528414654358482"><ele>12.0</ele><time>2026-04-29T17:02:41Z</time></trkpt><trkpt lat="42.056940013731435" lon="19.528337361658743"><ele>11.999999999999998</ele><time>2026-04-29T17:02:42Z</time></trkpt><trkpt lat="42.05697844023656" lon="19.528240861824425"><ele>12.0</ele><time>2026-04-29T17:02:43Z</time></trkpt><trkpt lat="42.05701503766209" lon="19.528116511050648"><ele>12.0</ele><time>2026-04-29T17:02:44Z</time></trkpt><trkpt lat="42.057093350959065" lon="19.527965164282183"><ele>12.0</ele><time>2026-04-29T17:02:45Z</time></trkpt><trkpt lat="42.05716483837566" lon="19.52777445762935"><ele>12.0</ele><time>2026-04-29T17:02:46Z</time></trkpt><trkpt lat="42.057231869977265" lon="19.527553175569114"><ele>12.0</ele><time>2026-04-29T17:02:47Z</time></trkpt><trkpt lat="42.057314723390654" lon="19.52736337960497"><ele>12.0</ele><time>2026-04-29T17:02:48Z</time></trkpt><trkpt lat="42.05738282287325" lon="19.527196815351058"><ele>12.0</ele><time>2026-04-29T17:02:49Z</time></trkpt><trkpt lat="42.05745708545514" lon="19.527010311174"><ele>12.0</ele><time>2026-04-29T17:02:50Z</time></trkpt><trkpt lat="42.05752625690988" lon="19.5268396837476"><ele>12.0</ele><time>2026-04-29T17:02:51Z</time></trkpt><trkpt lat="42.05758585222646" lon="19.526687624507925"><ele>12.0</ele><time>2026-04-29T17:02:52Z</time></trkpt><trkpt lat="42.05763144031997" lon="19.526543381278238"><ele>12.0</ele><time>2026-04-29T17:02:53Z</time></trkpt><trkpt lat="42.0576857859386" lon="19.526392084231976"><ele>12.0</ele><time>2026-04-29T17:02:54Z</time></trkpt><trkpt lat="42.05774512809555" lon="19.526229631284743"><ele>12.0</ele><time>2026-04-29T17:02:55Z</time></trkpt><trkpt lat="42.05781478688297" lon="19.52606762843666"><ele>12.0</ele><time>2026-04-29T17:02:56Z</time></trkpt><trkpt lat="42.05788718526692" lon="19.52590244648104"><ele>12.0</ele><time>2026-04-29T17:02:57Z</time></trkpt><trkpt lat="42.05796288558435" lon="19.525754624420397"><ele>11.6</ele><time>2026-04-29T17:02:58Z</time></trkpt><trkpt lat="42.0580361064262" lon="19.525624648957635"><ele>11.2</ele><time>2026-04-29T17:02:58.999Z</time></trkpt><trkpt lat="42.058100835786" lon="19.525505022361713"><ele>10.8</ele><time>2026-04-29T17:02:59.999Z</time></trkpt><trkpt lat="42.05815989832421" lon="19.525396010608"><ele>10.4</ele><time>2026-04-29T17:03:00.999Z</time></trkpt><trkpt lat="42.058216471438904" lon="19.52530356914186"><ele>10.0</ele><time>2026-04-29T17:03:01.999Z</time></trkpt><trkpt lat="42.05827300983033" lon="19.525222165211463"><ele>10.0</ele><time>2026-04-29T17:03:02.999Z</time></trkpt><trkpt lat="42.05832802291176" lon="19.525149273345413"><ele>10.0</ele><time>2026-04-29T17:03:03.999Z</time></trkpt><trkpt lat="42.05838223626899" lon="19.52508654674587"><ele>10.0</ele><time>2026-04-29T17:03:04.999Z</time></trkpt><trkpt lat="42.0584400988885" lon="19.525045889624586"><ele>10.0</ele><time>2026-04-29T17:03:05.999Z</time></trkpt><trkpt lat="42.058506649376206" lon="19.525006983754633"><ele>10.0</ele><time>2026-04-29T17:03:06.999Z</time></trkpt><trkpt lat="42.058573202691306" lon="19.52498015473167"><ele>10.0</ele><time>2026-04-29T17:03:07.999Z</time></trkpt><trkpt lat="42.05864379986447" lon="19.52497104208795"><ele>10.0</ele><time>2026-04-29T17:03:08.999Z</time></trkpt><trkpt lat="42.05871061400519" lon="19.52498023118673"><ele>10.0</ele><time>2026-04-29T17:03:09.999Z</time></trkpt><trkpt lat="42.058805467748705" lon="19.525039521757904"><ele>10.0</ele><time>2026-04-29T17:03:11.999Z</time></trkpt><trkpt lat="42.05886303695298" lon="19.525077923629354"><ele>10.0</ele><time>2026-04-29T17:03:13.999Z</time></trkpt><trkpt lat="42.05894876981223" lon="19.525106957143972"><ele>10.0</ele><time>2026-04-29T17:03:23.999Z</time></trkpt><trkpt lat="42.0590574980701" lon="19.525136801767076"><ele>10.0</ele><time>2026-04-29T17:03:25.999Z</time></trkpt><trkpt lat="42.05913599028632" lon="19.52517428265433"><ele>10.0</ele><time>2026-04-29T17:03:26.999Z</time></trkpt><trkpt lat="42.059219007245254" lon="19.525217120058276"><ele>10.0</ele><time>2026-04-29T17:03:27.999Z</time></trkpt><trkpt lat="42.059310962702625" lon="19.525266983611562"><ele>10.0</ele><time>2026-04-29T17:03:28.999Z</time></trkpt><trkpt lat="42.059412037763494" lon="19.52531254324533"><ele>10.0</ele><time>2026-04-29T17:03:29.999Z</time></trkpt><trkpt lat="42.05951374928789" lon="19.525356373199706"><ele>10.0</ele><time>2026-04-29T17:03:30.999Z</time></trkpt><trkpt lat="42.05962145303542" lon="19.52539928476926"><ele>9.5</ele><time>2026-04-29T17:03:31.999Z</time></trkpt><trkpt lat="42.059733389008365" lon="19.52545037671757"><ele>9.0</ele><time>2026-04-29T17:03:32.999Z</time></trkpt><trkpt lat="42.05984674799721" lon="19.525507737085125"><ele>8.5</ele><time>2026-04-29T17:03:33.999Z</time></trkpt><trkpt lat="42.059964449680464" lon="19.525564144136304"><ele>8.0</ele><time>2026-04-29T17:03:34.999Z</time></trkpt><trkpt lat="42.06008999559357" lon="19.52562399545794"><ele>9.0</ele><time>2026-04-29T17:03:35.999Z</time></trkpt><trkpt lat="42.060222706384366" lon="19.525680304031635"><ele>10.0</ele><time>2026-04-29T17:03:36.999Z</time></trkpt><trkpt lat="42.06035659333722" lon="19.52573686491391"><ele>11.0</ele><time>2026-04-29T17:03:37.999Z</time></trkpt><trkpt lat="42.060481039965325" lon="19.525792164696025"><ele>12.0</ele><time>2026-04-29T17:03:38.999Z</time></trkpt><trkpt lat="42.06059349877685" lon="19.525843378483128"><ele>12.0</ele><time>2026-04-29T17:03:39.999Z</time></trkpt><trkpt lat="42.06069878300567" lon="19.525889332778043"><ele>12.0</ele><time>2026-04-29T17:03:41Z</time></trkpt><trkpt lat="42.060799001704886" lon="19.525933140051805"><ele>12.0</ele><time>2026-04-29T17:03:42Z</time></trkpt><trkpt lat="42.06089492581303" lon="19.525973215931817"><ele>12.0</ele><time>2026-04-29T17:03:43Z</time></trkpt><trkpt lat="42.060982100509946" lon="19.52601081116315"><ele>12.0</ele><time>2026-04-29T17:03:44Z</time></trkpt><trkpt lat="42.06106032744643" lon="19.52605029760927"><ele>12.2</ele><time>2026-04-29T17:03:45Z</time></trkpt><trkpt lat="42.06113089617423" lon="19.52607856955943"><ele>12.399999999999999</ele><time>2026-04-29T17:03:46Z</time></trkpt><trkpt lat="42.06120685056257" lon="19.526099835606434"><ele>12.600000000000001</ele><time>2026-04-29T17:03:48Z</time></trkpt><trkpt lat="42.06127313177721" lon="19.526137577261906"><ele>12.8</ele><time>2026-04-29T17:03:51Z</time></trkpt><trkpt lat="42.061304951900006" lon="19.525982403347854"><ele>13.0</ele><time>2026-04-29T17:03:53Z</time></trkpt><trkpt lat="42.06129079245149" lon="19.525823554636922"><ele>13.0</ele><time>2026-04-29T17:03:55Z</time></trkpt><trkpt lat="42.06129927336115" lon="19.52572536149436"><ele>13.0</ele><time>2026-04-29T17:03:56Z</time></trkpt><trkpt lat="42.06130916146822" lon="19.525601872066144"><ele>13.0</ele><time>2026-04-29T17:03:57Z</time></trkpt><trkpt lat="42.06131870392356" lon="19.52545290200585"><ele>13.0</ele><time>2026-04-29T17:03:58Z</time></trkpt><trkpt lat="42.06132770381122" lon="19.525282004260113"><ele>13.0</ele><time>2026-04-29T17:03:59Z</time></trkpt><trkpt lat="42.061337883598014" lon="19.525133266556207"><ele>12.999999999999998</ele><time>2026-04-29T17:04:00Z</time></trkpt><trkpt lat="42.06134646411647" lon="19.52500714471041"><ele>13.0</ele><time>2026-04-29T17:04:01Z</time></trkpt><trkpt lat="42.06135399164518" lon="19.524893463452848"><ele>13.0</ele><time>2026-04-29T17:04:02Z</time></trkpt><trkpt lat="42.06136072105004" lon="19.524802808930747"><ele>13.0</ele><time>2026-04-29T17:04:03Z</time></trkpt><trkpt lat="42.061370960858085" lon="19.52464868678495"><ele>12.999999999999998</ele><time>2026-04-29T17:04:05Z</time></trkpt><trkpt lat="42.061377605787946" lon="19.5245562787221"><ele>13.0</ele><time>2026-04-29T17:04:06Z</time></trkpt><trkpt lat="42.06138820736184" lon="19.52441395901496"><ele>13.0</ele><time>2026-04-29T17:04:07Z</time></trkpt><trkpt lat="42.06140073520528" lon="19.52425629156011"><ele>13.0</ele><time>2026-04-29T17:04:08Z</time></trkpt><trkpt lat="42.061410472323125" lon="19.52410014505024"><ele>13.0</ele><time>2026-04-29T17:04:09Z</time></trkpt><trkpt lat="42.0614242843071" lon="19.52397911044497"><ele>13.0</ele><time>2026-04-29T17:04:10Z</time></trkpt><trkpt lat="42.061430191458776" lon="19.523882617459396"><ele>13.0</ele><time>2026-04-29T17:04:11Z</time></trkpt><trkpt lat="42.061431246943286" lon="19.523764166483506"><ele>12.5</ele><time>2026-04-29T17:04:13Z</time></trkpt><trkpt lat="42.06145362869791" lon="19.523563349013806"><ele>12.0</ele><time>2026-04-29T17:04:15Z</time></trkpt><trkpt lat="42.06146327147519" lon="19.523405401861833"><ele>11.5</ele><time>2026-04-29T17:04:16Z</time></trkpt><trkpt lat="42.06147576248671" lon="19.523236774886787"><ele>11.0</ele><time>2026-04-29T17:04:17Z</time></trkpt><trkpt lat="42.06149619695943" lon="19.52308999656723"><ele>11.0</ele><time>2026-04-29T17:04:18Z</time></trkpt><trkpt lat="42.06148124300649" lon="19.522985558207115"><ele>11.0</ele><time>2026-04-29T17:04:19Z</time></trkpt><trkpt lat="42.0614859881714" lon="19.522882301622197"><ele>11.0</ele><time>2026-04-29T17:04:20Z</time></trkpt><trkpt lat="42.0615000993836" lon="19.522761582416265"><ele>11.0</ele><time>2026-04-29T17:04:21Z</time></trkpt><trkpt lat="42.061511845021364" lon="19.52262852405655"><ele>11.0</ele><time>2026-04-29T17:04:22Z</time></trkpt><trkpt lat="42.061522019591735" lon="19.522511583417515"><ele>11.0</ele><time>2026-04-29T17:04:23Z</time></trkpt><trkpt lat="42.061530064400046" lon="19.522420682702986"><ele>11.200000000000001</ele><time>2026-04-29T17:04:24Z</time></trkpt><trkpt lat="42.06153718922729" lon="19.522283496024663"><ele>11.4</ele><time>2026-04-29T17:04:26Z</time></trkpt><trkpt lat="42.06154379979028" lon="19.522192145796428"><ele>11.6</ele><time>2026-04-29T17:04:28Z</time></trkpt><trkpt lat="42.06155707051323" lon="19.522102335895095"><ele>11.8</ele><time>2026-04-29T17:04:31Z</time></trkpt><trkpt lat="42.06156079595379" lon="19.521958095068626"><ele>12.0</ele><time>2026-04-29T17:04:57Z</time></trkpt><trkpt lat="42.06157229617638" lon="19.521804573373906"><ele>10.0</ele><time>2026-04-29T17:04:59Z</time></trkpt><trkpt lat="42.06158463703133" lon="19.52167396196715"><ele>10.0</ele><time>2026-04-29T17:05:01Z</time></trkpt></trkseg></trk></gpx>